<?xml version='1.0' encoding='UTF-8'?><gpx version="1.1" creator="JPX - https://github.com/jenetics/jpx" xmlns="http://www.topografix.com/GPX/1/1"><trk><trkseg><trkpt lat="46.01173904191802" lon="8.958149247359971"><ele>288.0</ele><time>2026-04-11T06:35:37Z</time></trkpt><trkpt lat="46.011797240465384" lon="8.95809364815008"><ele>288.0</ele><time>2026-04-11T06:35:51Z</time></trkpt><trkpt lat="46.01173301691147" lon="8.95817060857766"><ele>288.0</ele><time>2026-04-11T06:36:08Z</time></trkpt><trkpt lat="46.011802018254315" lon="8.958156535928667"><ele>288.0</ele><time>2026-04-11T06:36:35Z</time></trkpt><trkpt lat="46.01183364057269" lon="8.95807575235764"><ele>288.0</ele><time>2026-04-11T06:36:42.999Z</time></trkpt><trkpt lat="46.01193728637575" lon="8.958000043307088"><ele>288.0</ele><time>2026-04-11T06:36:57.999Z</time></trkpt><trkpt lat="46.0120488258833" lon="8.957950218599922"><ele>288.00000000000006</ele><time>2026-04-11T06:37:03.999Z</time></trkpt><trkpt lat="46.012095114117436" lon="8.9578764512291"><ele>288.0</ele><time>2026-04-11T06:37:09.999Z</time></trkpt><trkpt lat="46.012138617604236" lon="8.957801700357058"><ele>288.0</ele><time>2026-04-11T06:37:17.999Z</time></trkpt><trkpt lat="46.01215334414454" lon="8.957707154732457"><ele>288.0</ele><time>2026-04-11T06:37:24.999Z</time></trkpt><trkpt lat="46.01215307672932" lon="8.957608003391023"><ele>288.0</ele><time>2026-04-11T06:37:28.999Z</time></trkpt><trkpt lat="46.01216479808784" lon="8.957515324592153"><ele>288.00000000000006</ele><time>2026-04-11T06:37:35Z</time></trkpt><trkpt lat="46.012195953753036" lon="8.957428606165037"><ele>288.0</ele><time>2026-04-11T06:37:42Z</time></trkpt><trkpt lat="46.01220211382476" lon="8.957323681430918"><ele>287.8571428571429</ele><time>2026-04-11T06:37:48Z</time></trkpt><trkpt lat="46.012207965208496" lon="8.95722720355442"><ele>287.7142857142857</ele><time>2026-04-11T06:37:54Z</time></trkpt><trkpt lat="46.01222899008919" lon="8.957138736153983"><ele>287.57142857142856</ele><time>2026-04-11T06:38:00Z</time></trkpt><trkpt lat="46.012234732980254" lon="8.957034648871165"><ele>287.42857142857144</ele><time>2026-04-11T06:38:07Z</time></trkpt><trkpt lat="46.01225280130915" lon="8.95693927953253"><ele>287.2857142857143</ele><time>2026-04-11T06:38:12Z</time></trkpt><trkpt lat="46.01221068179709" lon="8.956864975772337"><ele>287.14285714285717</ele><time>2026-04-11T06:38:16Z</time></trkpt><trkpt lat="46.01228595119237" lon="8.956812929963025"><ele>287.0</ele><time>2026-04-11T06:38:20Z</time></trkpt><trkpt lat="46.01235143684649" lon="8.956780004891645"><ele>287.0</ele><time>2026-04-11T06:38:23Z</time></trkpt><trkpt lat="46.01243719069324" lon="8.956748631040792"><ele>287.0</ele><time>2026-04-11T06:38:32Z</time></trkpt><trkpt lat="46.01240819393519" lon="8.956654922259998"><ele>287.0</ele><time>2026-04-11T06:38:50.999Z</time></trkpt><trkpt lat="46.01243481936222" lon="8.956569855035987"><ele>287.0</ele><time>2026-04-11T06:38:58.999Z</time></trkpt><trkpt lat="46.01237212973171" lon="8.956484754571338"><ele>287.0</ele><time>2026-04-11T06:39:02.999Z</time></trkpt><trkpt lat="46.012296594923505" lon="8.956389159015162"><ele>287.0</ele><time>2026-04-11T06:39:10.999Z</time></trkpt><trkpt lat="46.012240828144606" lon="8.956465273609213"><ele>287.0</ele><time>2026-04-11T06:39:18.999Z</time></trkpt><trkpt lat="46.01218725473186" lon="8.956516168139846"><ele>287.0</ele><time>2026-04-11T06:39:22.999Z</time></trkpt><trkpt lat="46.01225110865481" lon="8.956625395385304"><ele>287.0</ele><time>2026-04-11T06:39:33.999Z</time></trkpt><trkpt lat="46.012308878448785" lon="8.956676047774458"><ele>287.0</ele><time>2026-04-11T06:39:39.999Z</time></trkpt><trkpt lat="46.01237364591465" lon="8.956717078067717"><ele>287.0</ele><time>2026-04-11T06:39:46Z</time></trkpt><trkpt lat="46.01243313470561" lon="8.956757322857525"><ele>287.0</ele><time>2026-04-11T06:39:52Z</time></trkpt><trkpt lat="46.01251571523586" lon="8.956830855148258"><ele>287.33333333333337</ele><time>2026-04-11T06:40:01Z</time></trkpt><trkpt lat="46.01257960979683" lon="8.956891047566508"><ele>287.6666666666667</ele><time>2026-04-11T06:40:08Z</time></trkpt><trkpt lat="46.01265297318647" lon="8.956866062103863"><ele>288.0</ele><time>2026-04-11T06:40:14Z</time></trkpt><trkpt lat="46.01271830086046" lon="8.956860333289573"><ele>288.3333333333333</ele><time>2026-04-11T06:40:24Z</time></trkpt><trkpt lat="46.0127343132562" lon="8.957043537018862"><ele>288.66666666666663</ele><time>2026-04-11T06:40:35.999Z</time></trkpt><trkpt lat="46.012705934092544" lon="8.957135888188363"><ele>289.0</ele><time>2026-04-11T06:40:52.999Z</time></trkpt><trkpt lat="46.0127402753168" lon="8.957369660223286"><ele>289.0</ele><time>2026-04-11T06:40:55.999Z</time></trkpt><trkpt lat="46.01276871169477" lon="8.957454813564961"><ele>289.0</ele><time>2026-04-11T06:41:00.999Z</time></trkpt><trkpt lat="46.012779951775514" lon="8.95736097591318"><ele>289.0</ele><time>2026-04-11T06:41:01.999Z</time></trkpt><trkpt lat="46.01266271164856" lon="8.956778634687982"><ele>289.0</ele><time>2026-04-11T06:41:36.589Z</time></trkpt><trkpt lat="46.012725286932564" lon="8.957141676890133"><ele>289.0</ele><time>2026-04-11T06:57:12.012Z</time></trkpt><trkpt lat="46.01267152459501" lon="8.956861786823639"><ele>289.0</ele><time>2026-04-11T06:57:13.993Z</time></trkpt><trkpt lat="46.01275084601783" lon="8.956663416347874"><ele>289.0</ele><time>2026-04-11T06:57:14.993Z</time></trkpt><trkpt lat="46.01268856816056" lon="8.956592586072166"><ele>289.0</ele><time>2026-04-11T06:57:19.999Z</time></trkpt><trkpt lat="46.012651005918364" lon="8.956668173292345"><ele>289.0</ele><time>2026-04-11T06:57:23.999Z</time></trkpt><trkpt lat="46.01261188420511" lon="8.956739822996234"><ele>289.0</ele><time>2026-04-11T06:57:29.999Z</time></trkpt><trkpt lat="46.012546749150246" lon="8.956744826284076"><ele>289.0</ele><time>2026-04-11T06:57:36.999Z</time></trkpt><trkpt lat="46.01249081275866" lon="8.956702513500007"><ele>288.7142857142857</ele><time>2026-04-11T06:57:45.999Z</time></trkpt><trkpt lat="46.01242543372565" lon="8.956654970055562"><ele>288.42857142857144</ele><time>2026-04-11T06:57:52.999Z</time></trkpt><trkpt lat="46.012362531483554" lon="8.956646011625232"><ele>288.1428571428571</ele><time>2026-04-11T06:58:00.999Z</time></trkpt><trkpt lat="46.01231455939531" lon="8.956737125668404"><ele>287.8571428571429</ele><time>2026-04-11T06:58:03.999Z</time></trkpt><trkpt lat="46.01227795091258" lon="8.956816725014402"><ele>287.57142857142856</ele><time>2026-04-11T06:58:07.999Z</time></trkpt><trkpt lat="46.012256509093355" lon="8.956907303926755"><ele>287.2857142857143</ele><time>2026-04-11T06:58:16.999Z</time></trkpt><trkpt lat="46.012242729541256" lon="8.957004437953696"><ele>287.0</ele><time>2026-04-11T06:58:20.999Z</time></trkpt><trkpt lat="46.012214110213144" lon="8.957089791248217"><ele>287.0</ele><time>2026-04-11T06:58:23.999Z</time></trkpt><trkpt lat="46.01216303174641" lon="8.957169759557628"><ele>287.0</ele><time>2026-04-11T06:58:27.999Z</time></trkpt><trkpt lat="46.01214391608618" lon="8.9572673576273"><ele>287.0</ele><time>2026-04-11T06:58:31.999Z</time></trkpt><trkpt lat="46.01213045688969" lon="8.957361017449045"><ele>287.0</ele><time>2026-04-11T06:58:36.999Z</time></trkpt><trkpt lat="46.01214279547903" lon="8.957454151332978"><ele>287.0</ele><time>2026-04-11T06:58:42.999Z</time></trkpt><trkpt lat="46.01215673786695" lon="8.957554084419307"><ele>287.0</ele><time>2026-04-11T06:58:49.999Z</time></trkpt><trkpt lat="46.012112237068585" lon="8.957634752012716"><ele>287.0</ele><time>2026-04-11T06:58:57.999Z</time></trkpt><trkpt lat="46.01207842574556" lon="8.957752308365059"><ele>287.14285714285717</ele><time>2026-04-11T06:59:03.999Z</time></trkpt><trkpt lat="46.01205932220648" lon="8.957857964579263"><ele>287.2857142857143</ele><time>2026-04-11T06:59:09.999Z</time></trkpt><trkpt lat="46.01201638801013" lon="8.957937736005391"><ele>287.42857142857144</ele><time>2026-04-11T06:59:15.999Z</time></trkpt><trkpt lat="46.0119827788628" lon="8.95801829119553"><ele>287.57142857142856</ele><time>2026-04-11T06:59:23.999Z</time></trkpt><trkpt lat="46.01191642153205" lon="8.958008216550814"><ele>287.7142857142857</ele><time>2026-04-11T06:59:29.999Z</time></trkpt><trkpt lat="46.01183657433278" lon="8.958040762216216"><ele>287.8571428571429</ele><time>2026-04-11T06:59:39.999Z</time></trkpt><trkpt lat="46.01179001487963" lon="8.958112220616586"><ele>288.0</ele><time>2026-04-11T06:59:43.999Z</time></trkpt><trkpt lat="46.01173297037859" lon="8.958213628299472"><ele>288.0</ele><time>2026-04-11T07:00:02.999Z</time></trkpt><trkpt lat="46.01171380222207" lon="8.95811963574049"><ele>288.0</ele><time>2026-04-11T07:00:09.999Z</time></trkpt><trkpt lat="46.01164277915875" lon="8.958100984567983"><ele>288.0</ele><time>2026-04-11T07:00:25.999Z</time></trkpt><trkpt lat="46.01156120851637" lon="8.958146660361148"><ele>288.0</ele><time>2026-04-11T07:00:29.999Z</time></trkpt><trkpt lat="46.0114778306399" lon="8.958171339350534"><ele>288.0</ele><time>2026-04-11T07:00:32.999Z</time></trkpt><trkpt lat="46.011613331888434" lon="8.958123714107954"><ele>287.0</ele><time>2026-04-11T07:00:35.071Z</time></trkpt><trkpt lat="46.01135294971622" lon="8.958237813880714"><ele>286.0</ele><time>2026-04-11T07:00:36.072Z</time></trkpt><trkpt lat="46.01141728121868" lon="8.958634215910248"><ele>286.0</ele><time>2026-04-11T07:00:36.999Z</time></trkpt><trkpt lat="46.011574244530976" lon="8.958453403659497"><ele>286.0</ele><time>2026-04-11T07:00:38.999Z</time></trkpt><trkpt lat="46.01165019101165" lon="8.95835789266535"><ele>286.0</ele><time>2026-04-11T07:00:39.999Z</time></trkpt><trkpt lat="46.0117122238907" lon="8.958268593208311"><ele>286.0</ele><time>2026-04-11T07:00:48.999Z</time></trkpt><trkpt lat="46.01174528201375" lon="8.958348352375662"><ele>286.3333333333333</ele><time>2026-04-11T07:06:32.999Z</time></trkpt><trkpt lat="46.011720305760385" lon="8.95845462008665"><ele>286.66666666666663</ele><time>2026-04-11T07:06:35.999Z</time></trkpt><trkpt lat="46.01178178231924" lon="8.958496602518325"><ele>287.0</ele><time>2026-04-11T07:06:37.999Z</time></trkpt><trkpt lat="46.01185354204208" lon="8.958555004597695"><ele>287.3333333333333</ele><time>2026-04-11T07:06:38.999Z</time></trkpt><trkpt lat="46.0119329250105" lon="8.95857883567973"><ele>287.6666666666667</ele><time>2026-04-11T07:06:39.999Z</time></trkpt><trkpt lat="46.012019247009455" lon="8.958542415471054"><ele>288.0</ele><time>2026-04-11T07:06:40.999Z</time></trkpt><trkpt lat="46.012121305214414" lon="8.958565144242186"><ele>288.0</ele><time>2026-04-11T07:06:41.999Z</time></trkpt><trkpt lat="46.012196517581245" lon="8.958580599339863"><ele>288.0</ele><time>2026-04-11T07:06:42.999Z</time></trkpt><trkpt lat="46.01226078458661" lon="8.958605912879525"><ele>288.0</ele><time>2026-04-11T07:06:43.999Z</time></trkpt><trkpt lat="46.01234237924651" lon="8.958624746427068"><ele>288.0</ele><time>2026-04-11T07:06:44.999Z</time></trkpt><trkpt lat="46.012470742482385" lon="8.958627062403558"><ele>288.0</ele><time>2026-04-11T07:06:46.999Z</time></trkpt><trkpt lat="46.012558862149916" lon="8.958665935314269"><ele>288.0</ele><time>2026-04-11T07:06:47.999Z</time></trkpt><trkpt lat="46.012640769483255" lon="8.958672706492706"><ele>288.0</ele><time>2026-04-11T07:06:48.999Z</time></trkpt><trkpt lat="46.01272673879827" lon="8.958690070901975"><ele>288.0</ele><time>2026-04-11T07:06:49.999Z</time></trkpt><trkpt lat="46.01280760978573" lon="8.958705445933246"><ele>288.0</ele><time>2026-04-11T07:06:50.999Z</time></trkpt><trkpt lat="46.01289272012512" lon="8.95872474778267"><ele>288.0</ele><time>2026-04-11T07:06:51.999Z</time></trkpt><trkpt lat="46.01297147457722" lon="8.958747974870548"><ele>288.0</ele><time>2026-04-11T07:06:52.999Z</time></trkpt><trkpt lat="46.01304488463698" lon="8.958758537723227"><ele>288.0</ele><time>2026-04-11T07:06:53.999Z</time></trkpt><trkpt lat="46.01312341744897" lon="8.958776325832472"><ele>288.0</ele><time>2026-04-11T07:06:54.999Z</time></trkpt><trkpt lat="46.013209055908185" lon="8.95878499191937"><ele>288.0</ele><time>2026-04-11T07:06:55.999Z</time></trkpt><trkpt lat="46.013287603525974" lon="8.958808077106168"><ele>288.0</ele><time>2026-04-11T07:06:56.999Z</time></trkpt><trkpt lat="46.0133626481801" lon="8.958826699764943"><ele>288.0</ele><time>2026-04-11T07:06:57.999Z</time></trkpt><trkpt lat="46.0134397352439" lon="8.958844585857706"><ele>288.0</ele><time>2026-04-11T07:06:58.999Z</time></trkpt><trkpt lat="46.01351334284153" lon="8.95886108957617"><ele>288.0</ele><time>2026-04-11T07:06:59.999Z</time></trkpt><trkpt lat="46.0135842702045" lon="8.958878397940168"><ele>289.0</ele><time>2026-04-11T07:07:00.999Z</time></trkpt><trkpt lat="46.013652719444984" lon="8.958896586436602"><ele>290.0</ele><time>2026-04-11T07:07:01.999Z</time></trkpt><trkpt lat="46.013735881090284" lon="8.958914291355148"><ele>291.0</ele><time>2026-04-11T07:07:02.999Z</time></trkpt><trkpt lat="46.0138183675273" lon="8.958930521005655"><ele>292.0</ele><time>2026-04-11T07:07:03.999Z</time></trkpt><trkpt lat="46.0138940909717" lon="8.958941779131363"><ele>293.0</ele><time>2026-04-11T07:07:04.999Z</time></trkpt><trkpt lat="46.01396295755342" lon="8.958982492750176"><ele>294.0</ele><time>2026-04-11T07:07:05.999Z</time></trkpt><trkpt lat="46.01403542847792" lon="8.958996454292624"><ele>294.0</ele><time>2026-04-11T07:07:06.999Z</time></trkpt><trkpt lat="46.01410067455108" lon="8.95900570440436"><ele>294.0</ele><time>2026-04-11T07:07:07.999Z</time></trkpt><trkpt lat="46.014168166247195" lon="8.95901488395898"><ele>294.0</ele><time>2026-04-11T07:07:08.999Z</time></trkpt><trkpt lat="46.014206645248365" lon="8.959089344987612"><ele>294.0</ele><time>2026-04-11T07:07:09.999Z</time></trkpt><trkpt lat="46.014163942875214" lon="8.959320427829473"><ele>294.0</ele><time>2026-04-11T07:07:11.999Z</time></trkpt><trkpt lat="46.01414086055933" lon="8.95945964411271"><ele>294.0</ele><time>2026-04-11T07:07:12.999Z</time></trkpt><trkpt lat="46.01411890891804" lon="8.959594174409764"><ele>294.0</ele><time>2026-04-11T07:07:13.999Z</time></trkpt><trkpt lat="46.01410965726492" lon="8.959738212493848"><ele>294.0</ele><time>2026-04-11T07:07:14.999Z</time></trkpt><trkpt lat="46.01409460369494" lon="8.959881304482415"><ele>294.0</ele><time>2026-04-11T07:07:15.999Z</time></trkpt><trkpt lat="46.01408076994837" lon="8.960023244269909"><ele>294.0</ele><time>2026-04-11T07:07:16.999Z</time></trkpt><trkpt lat="46.014068043513326" lon="8.96015070327271"><ele>293.1666666666667</ele><time>2026-04-11T07:07:17.999Z</time></trkpt><trkpt lat="46.01405668123639" lon="8.960272948670106"><ele>292.3333333333333</ele><time>2026-04-11T07:07:18.999Z</time></trkpt><trkpt lat="46.01404730416256" lon="8.960372191712462"><ele>291.5</ele><time>2026-04-11T07:07:19.999Z</time></trkpt><trkpt lat="46.01402434611345" lon="8.960526066476241"><ele>290.66666666666663</ele><time>2026-04-11T07:07:21.999Z</time></trkpt><trkpt lat="46.01402107961951" lon="8.960634748832812"><ele>289.8333333333333</ele><time>2026-04-11T07:07:24.999Z</time></trkpt><trkpt lat="46.01409330841506" lon="8.96074030771541"><ele>289.0</ele><time>2026-04-11T07:07:27.999Z</time></trkpt><trkpt lat="46.01417545386507" lon="8.960778495669432"><ele>289.0</ele><time>2026-04-11T07:07:28.999Z</time></trkpt><trkpt lat="46.01426091635433" lon="8.9608068641585"><ele>289.0</ele><time>2026-04-11T07:07:29.999Z</time></trkpt><trkpt lat="46.01435431728894" lon="8.960842867048711"><ele>289.0</ele><time>2026-04-11T07:07:30.999Z</time></trkpt><trkpt lat="46.014457778862656" lon="8.96088614266749"><ele>289.0</ele><time>2026-04-11T07:07:31.999Z</time></trkpt><trkpt lat="46.01457039926472" lon="8.96093544640126"><ele>289.0</ele><time>2026-04-11T07:07:32.999Z</time></trkpt><trkpt lat="46.01468991060323" lon="8.96098360580168"><ele>288.75</ele><time>2026-04-11T07:07:33.999Z</time></trkpt><trkpt lat="46.01481259395655" lon="8.961034061755438"><ele>288.5</ele><time>2026-04-11T07:07:34.999Z</time></trkpt><trkpt lat="46.01493057217994" lon="8.961085318107884"><ele>288.25</ele><time>2026-04-11T07:07:35.999Z</time></trkpt><trkpt lat="46.0150511261354" lon="8.96113622792781"><ele>288.0</ele><time>2026-04-11T07:07:36.999Z</time></trkpt><trkpt lat="46.01517893043446" lon="8.961183114208499"><ele>287.75</ele><time>2026-04-11T07:07:37.999Z</time></trkpt><trkpt lat="46.01530323701142" lon="8.961240712232144"><ele>287.5</ele><time>2026-04-11T07:07:38.999Z</time></trkpt><trkpt lat="46.015429340140166" lon="8.961288557937639"><ele>287.25</ele><time>2026-04-11T07:07:39.999Z</time></trkpt><trkpt lat="46.015556312052645" lon="8.961339264307322"><ele>287.0</ele><time>2026-04-11T07:07:40.999Z</time></trkpt><trkpt lat="46.01567659957541" lon="8.961401060091019"><ele>287.0</ele><time>2026-04-11T07:07:41.999Z</time></trkpt><trkpt lat="46.01580188918319" lon="8.961441315657709"><ele>287.0</ele><time>2026-04-11T07:07:42.999Z</time></trkpt><trkpt lat="46.01592784121127" lon="8.961498708061672"><ele>287.0</ele><time>2026-04-11T07:07:43.999Z</time></trkpt><trkpt lat="46.016047665044326" lon="8.96156102730187"><ele>287.0</ele><time>2026-04-11T07:07:44.999Z</time></trkpt><trkpt lat="46.01617267276121" lon="8.961617178268474"><ele>287.75</ele><time>2026-04-11T07:07:45.999Z</time></trkpt><trkpt lat="46.01629339030325" lon="8.961671427150362"><ele>288.5</ele><time>2026-04-11T07:07:46.999Z</time></trkpt><trkpt lat="46.01641574231239" lon="8.961717817422478"><ele>289.25</ele><time>2026-04-11T07:07:47.999Z</time></trkpt><trkpt lat="46.01654066613568" lon="8.961769672973276"><ele>290.0</ele><time>2026-04-11T07:07:48.999Z</time></trkpt><trkpt lat="46.016657832679456" lon="8.961810107213752"><ele>290.0</ele><time>2026-04-11T07:07:49.999Z</time></trkpt><trkpt lat="46.01676827349138" lon="8.961845560541772"><ele>290.0</ele><time>2026-04-11T07:07:50.999Z</time></trkpt><trkpt lat="46.01687136036816" lon="8.961884258164812"><ele>290.0</ele><time>2026-04-11T07:07:51.999Z</time></trkpt><trkpt lat="46.016969291972615" lon="8.961918340375368"><ele>290.0</ele><time>2026-04-11T07:07:52.999Z</time></trkpt><trkpt lat="46.017061039367015" lon="8.961954148350117"><ele>290.0</ele><time>2026-04-11T07:07:53.999Z</time></trkpt><trkpt lat="46.0171483977996" lon="8.961985663414794"><ele>290.0</ele><time>2026-04-11T07:07:54.999Z</time></trkpt><trkpt lat="46.01722198574656" lon="8.96200358830273"><ele>290.0</ele><time>2026-04-11T07:07:55.999Z</time></trkpt><trkpt lat="46.01729567624516" lon="8.962029720401048"><ele>290.0</ele><time>2026-04-11T07:07:57.999Z</time></trkpt><trkpt lat="46.0173598379116" lon="8.962050837992647"><ele>290.0</ele><time>2026-04-11T07:07:59.999Z</time></trkpt><trkpt lat="46.01745196682916" lon="8.962085825492299"><ele>290.0</ele><time>2026-04-11T07:08:01.999Z</time></trkpt><trkpt lat="46.017515954411245" lon="8.962110298108596"><ele>290.0</ele><time>2026-04-11T07:08:02.999Z</time></trkpt><trkpt lat="46.017587994322355" lon="8.962131487564983"><ele>290.0</ele><time>2026-04-11T07:08:03.999Z</time></trkpt><trkpt lat="46.01767300167048" lon="8.962161976885596"><ele>290.0</ele><time>2026-04-11T07:08:04.999Z</time></trkpt><trkpt lat="46.01775595090136" lon="8.962201388148026"><ele>290.0</ele><time>2026-04-11T07:08:05.999Z</time></trkpt><trkpt lat="46.01784743740679" lon="8.962198256048904"><ele>290.0</ele><time>2026-04-11T07:08:06.999Z</time></trkpt><trkpt lat="46.017941755837604" lon="8.96220619355125"><ele>290.0</ele><time>2026-04-11T07:08:07.999Z</time></trkpt><trkpt lat="46.018029340880005" lon="8.962210727776215"><ele>290.0</ele><time>2026-04-11T07:08:08.999Z</time></trkpt><trkpt lat="46.01811944141878" lon="8.962227575557584"><ele>290.0</ele><time>2026-04-11T07:08:09.999Z</time></trkpt><trkpt lat="46.01821742098043" lon="8.962232907662019"><ele>290.0</ele><time>2026-04-11T07:08:10.999Z</time></trkpt><trkpt lat="46.01831629919485" lon="8.962240549114897"><ele>290.0</ele><time>2026-04-11T07:08:11.999Z</time></trkpt><trkpt lat="46.01841255646224" lon="8.962252752085291"><ele>290.0</ele><time>2026-04-11T07:08:12.999Z</time></trkpt><trkpt lat="46.01851138219967" lon="8.962266577936742"><ele>290.0</ele><time>2026-04-11T07:08:13.999Z</time></trkpt><trkpt lat="46.01861418371789" lon="8.962271720506664"><ele>291.2</ele><time>2026-04-11T07:08:14.999Z</time></trkpt><trkpt lat="46.01872440319545" lon="8.96228545402231"><ele>292.4</ele><time>2026-04-11T07:08:15.999Z</time></trkpt><trkpt lat="46.01883118301887" lon="8.96229991704291"><ele>293.6</ele><time>2026-04-11T07:08:16.999Z</time></trkpt><trkpt lat="46.01893364779558" lon="8.962317345852917"><ele>294.8</ele><time>2026-04-11T07:08:17.999Z</time></trkpt><trkpt lat="46.01904737025899" lon="8.962331390966078"><ele>296.0</ele><time>2026-04-11T07:08:18.999Z</time></trkpt><trkpt lat="46.01915328763138" lon="8.962350853727205"><ele>296.0</ele><time>2026-04-11T07:08:19.999Z</time></trkpt><trkpt lat="46.01926373716512" lon="8.962363040698905"><ele>296.0</ele><time>2026-04-11T07:08:20.999Z</time></trkpt><trkpt lat="46.01937583865286" lon="8.962378540230315"><ele>296.0</ele><time>2026-04-11T07:08:21.999Z</time></trkpt><trkpt lat="46.01948233815317" lon="8.962395662558182"><ele>296.0</ele><time>2026-04-11T07:08:22.999Z</time></trkpt><trkpt lat="46.01958779426569" lon="8.96241202258673"><ele>296.0</ele><time>2026-04-11T07:08:23.999Z</time></trkpt><trkpt lat="46.01969691938724" lon="8.962430733280325"><ele>296.0</ele><time>2026-04-11T07:08:25Z</time></trkpt><trkpt lat="46.01980392153849" lon="8.962446225625923"><ele>296.0</ele><time>2026-04-11T07:08:26Z</time></trkpt><trkpt lat="46.019914609206275" lon="8.962465223766298"><ele>296.0</ele><time>2026-04-11T07:08:27Z</time></trkpt><trkpt lat="46.02002546467321" lon="8.96247903821532"><ele>296.0</ele><time>2026-04-11T07:08:28Z</time></trkpt><trkpt lat="46.020135909449394" lon="8.962497049289464"><ele>296.0</ele><time>2026-04-11T07:08:29Z</time></trkpt><trkpt lat="46.02024463426849" lon="8.962514422903304"><ele>296.0</ele><time>2026-04-11T07:08:30Z</time></trkpt><trkpt lat="46.020346477261924" lon="8.96252784654126"><ele>296.0</ele><time>2026-04-11T07:08:31Z</time></trkpt><trkpt lat="46.02044809976193" lon="8.962545390669101"><ele>296.0</ele><time>2026-04-11T07:08:32Z</time></trkpt><trkpt lat="46.02054862105846" lon="8.96255547558223"><ele>296.0</ele><time>2026-04-11T07:08:33Z</time></trkpt><trkpt lat="46.020649788112145" lon="8.962571872763549"><ele>296.0</ele><time>2026-04-11T07:08:34Z</time></trkpt><trkpt lat="46.020742858525864" lon="8.96258474867951"><ele>297.0</ele><time>2026-04-11T07:08:35Z</time></trkpt><trkpt lat="46.02083620409505" lon="8.962595104813627"><ele>298.0</ele><time>2026-04-11T07:08:36Z</time></trkpt><trkpt lat="46.02093134510173" lon="8.962609551766807"><ele>299.0</ele><time>2026-04-11T07:08:37Z</time></trkpt><trkpt lat="46.021025558836115" lon="8.962626488165485"><ele>300.0</ele><time>2026-04-11T07:08:38Z</time></trkpt><trkpt lat="46.02112045135965" lon="8.962650386686256"><ele>301.0</ele><time>2026-04-11T07:08:39Z</time></trkpt><trkpt lat="46.021222156461256" lon="8.962673576203091"><ele>301.0</ele><time>2026-04-11T07:08:40Z</time></trkpt><trkpt lat="46.02132437986509" lon="8.962703668980359"><ele>301.0</ele><time>2026-04-11T07:08:41Z</time></trkpt><trkpt lat="46.02142855563047" lon="8.962748316115684"><ele>301.0</ele><time>2026-04-11T07:08:42Z</time></trkpt><trkpt lat="46.02152696391914" lon="8.962802551779868"><ele>301.0</ele><time>2026-04-11T07:08:43Z</time></trkpt><trkpt lat="46.02162110683547" lon="8.9628561442329"><ele>301.0</ele><time>2026-04-11T07:08:44Z</time></trkpt><trkpt lat="46.02171667955082" lon="8.9629124529358"><ele>300.2</ele><time>2026-04-11T07:08:45Z</time></trkpt><trkpt lat="46.02181006910075" lon="8.962965856471264"><ele>299.40000000000003</ele><time>2026-04-11T07:08:46Z</time></trkpt><trkpt lat="46.02189979090982" lon="8.963015944537757"><ele>298.6</ele><time>2026-04-11T07:08:47Z</time></trkpt><trkpt lat="46.021984892354" lon="8.963061854105552"><ele>297.8</ele><time>2026-04-11T07:08:48Z</time></trkpt><trkpt lat="46.02207114208651" lon="8.963095910786489"><ele>297.0</ele><time>2026-04-11T07:08:49Z</time></trkpt><trkpt lat="46.022156280053636" lon="8.963154841795141"><ele>297.0</ele><time>2026-04-11T07:08:50Z</time></trkpt><trkpt lat="46.02223575186312" lon="8.963197862837184"><ele>297.0</ele><time>2026-04-11T07:08:51Z</time></trkpt><trkpt lat="46.02231892998751" lon="8.96324371787114"><ele>297.0</ele><time>2026-04-11T07:08:52Z</time></trkpt><trkpt lat="46.022411630143125" lon="8.963276126843505"><ele>297.0</ele><time>2026-04-11T07:08:52.999Z</time></trkpt><trkpt lat="46.02249825520448" lon="8.963323389296487"><ele>297.0</ele><time>2026-04-11T07:08:53.999Z</time></trkpt><trkpt lat="46.02258969221665" lon="8.963378052133793"><ele>297.4</ele><time>2026-04-11T07:08:54.999Z</time></trkpt><trkpt lat="46.02267787342519" lon="8.963429645583187"><ele>297.79999999999995</ele><time>2026-04-11T07:08:55.999Z</time></trkpt><trkpt lat="46.022762322507205" lon="8.963478282407593"><ele>298.2</ele><time>2026-04-11T07:08:56.999Z</time></trkpt><trkpt lat="46.02284474925916" lon="8.963523163218989"><ele>298.59999999999997</ele><time>2026-04-11T07:08:57.999Z</time></trkpt><trkpt lat="46.0229280429437" lon="8.963572147821926"><ele>299.0</ele><time>2026-04-11T07:08:58.999Z</time></trkpt><trkpt lat="46.02301388277388" lon="8.963620792775982"><ele>299.0</ele><time>2026-04-11T07:08:59.999Z</time></trkpt><trkpt lat="46.02310577964844" lon="8.963672606141504"><ele>299.0</ele><time>2026-04-11T07:09:00.999Z</time></trkpt><trkpt lat="46.0231983572547" lon="8.963726997456297"><ele>299.0</ele><time>2026-04-11T07:09:01.999Z</time></trkpt><trkpt lat="46.02328618272364" lon="8.963803750261958"><ele>299.0</ele><time>2026-04-11T07:09:02.999Z</time></trkpt><trkpt lat="46.023383410276146" lon="8.963861444054354"><ele>299.0</ele><time>2026-04-11T07:09:03.999Z</time></trkpt><trkpt lat="46.023483360209546" lon="8.963920753276659"><ele>298.59999999999997</ele><time>2026-04-11T07:09:04.999Z</time></trkpt><trkpt lat="46.0235904963604" lon="8.963957808559803"><ele>298.2</ele><time>2026-04-11T07:09:05.999Z</time></trkpt><trkpt lat="46.02368790421105" lon="8.964012789219037"><ele>297.79999999999995</ele><time>2026-04-11T07:09:06.999Z</time></trkpt><trkpt lat="46.023779417109346" lon="8.964063804977386"><ele>297.4</ele><time>2026-04-11T07:09:07.999Z</time></trkpt><trkpt lat="46.023865224336475" lon="8.964118355824704"><ele>297.0</ele><time>2026-04-11T07:09:08.999Z</time></trkpt><trkpt lat="46.02394941299501" lon="8.964163559895693"><ele>297.1666666666667</ele><time>2026-04-11T07:09:09.999Z</time></trkpt><trkpt lat="46.02402661297958" lon="8.964208724129763"><ele>297.3333333333333</ele><time>2026-04-11T07:09:10.999Z</time></trkpt><trkpt lat="46.02409335363083" lon="8.964243554583328"><ele>297.5</ele><time>2026-04-11T07:09:11.999Z</time></trkpt><trkpt lat="46.02418509530515" lon="8.964296321548861"><ele>297.66666666666663</ele><time>2026-04-11T07:09:13.999Z</time></trkpt><trkpt lat="46.02424871407076" lon="8.964332964879816"><ele>297.8333333333333</ele><time>2026-04-11T07:09:16.999Z</time></trkpt><trkpt lat="46.02432488078532" lon="8.964376528723209"><ele>298.0</ele><time>2026-04-11T07:10:31Z</time></trkpt><trkpt lat="46.02440922002772" lon="8.96442667926387"><ele>298.0</ele><time>2026-04-11T07:10:33Z</time></trkpt><trkpt lat="46.02448319149898" lon="8.96447649475662"><ele>298.0</ele><time>2026-04-11T07:10:35Z</time></trkpt><trkpt lat="46.024540340019726" lon="8.964343132380346"><ele>298.0</ele><time>2026-04-11T07:10:36Z</time></trkpt><trkpt lat="46.02458925937213" lon="8.964177662061186"><ele>298.0</ele><time>2026-04-11T07:10:38Z</time></trkpt><trkpt lat="46.02463030726392" lon="8.96401993256493"><ele>298.0</ele><time>2026-04-11T07:10:40Z</time></trkpt><trkpt lat="46.02465462453721" lon="8.963936004496876"><ele>298.5</ele><time>2026-04-11T07:10:41Z</time></trkpt><trkpt lat="46.02470952351424" lon="8.963776394723391"><ele>299.0</ele><time>2026-04-11T07:10:43Z</time></trkpt><trkpt lat="46.02474050739459" lon="8.963696283826526"><ele>299.5</ele><time>2026-04-11T07:10:44Z</time></trkpt><trkpt lat="46.024789857142764" lon="8.963549867112572"><ele>300.0</ele><time>2026-04-11T07:10:46Z</time></trkpt><trkpt lat="46.02493834417403" lon="8.963585773243818"><ele>300.3333333333333</ele><time>2026-04-11T07:10:48Z</time></trkpt><trkpt lat="46.02499982835299" lon="8.963643453692601"><ele>300.6666666666667</ele><time>2026-04-11T07:10:49Z</time></trkpt><trkpt lat="46.025058814631" lon="8.963714661543705"><ele>301.0</ele><time>2026-04-11T07:10:50Z</time></trkpt><trkpt lat="46.025114876049194" lon="8.963798945860052"><ele>301.33333333333337</ele><time>2026-04-11T07:10:51Z</time></trkpt><trkpt lat="46.02517954618565" lon="8.963886664809763"><ele>301.6666666666667</ele><time>2026-04-11T07:10:52Z</time></trkpt><trkpt lat="46.0252529580376" lon="8.963978269169303"><ele>302.0</ele><time>2026-04-11T07:10:53Z</time></trkpt><trkpt lat="46.02532749368132" lon="8.964072667404848"><ele>302.0</ele><time>2026-04-11T07:10:54Z</time></trkpt><trkpt lat="46.025411615121286" lon="8.964169853581563"><ele>302.0</ele><time>2026-04-11T07:10:55Z</time></trkpt><trkpt lat="46.02549724628172" lon="8.964270275498139"><ele>302.0</ele><time>2026-04-11T07:10:56Z</time></trkpt><trkpt lat="46.025576443327516" lon="8.96437428889431"><ele>302.0</ele><time>2026-04-11T07:10:57Z</time></trkpt><trkpt lat="46.02565315417562" lon="8.964480640299428"><ele>302.0</ele><time>2026-04-11T07:10:58Z</time></trkpt><trkpt lat="46.02572932261078" lon="8.96459321236496"><ele>302.0</ele><time>2026-04-11T07:10:59Z</time></trkpt><trkpt lat="46.025807543988215" lon="8.964705172862422"><ele>302.0</ele><time>2026-04-11T07:11:00Z</time></trkpt><trkpt lat="46.025884690941815" lon="8.964814137602731"><ele>302.0</ele><time>2026-04-11T07:11:01Z</time></trkpt><trkpt lat="46.02596508958798" lon="8.964924026131527"><ele>302.0</ele><time>2026-04-11T07:11:02Z</time></trkpt><trkpt lat="46.02604775476871" lon="8.965035911582579"><ele>302.0</ele><time>2026-04-11T07:11:03Z</time></trkpt><trkpt lat="46.02612987334416" lon="8.965152483585369"><ele>302.2</ele><time>2026-04-11T07:11:04Z</time></trkpt><trkpt lat="46.02621164929162" lon="8.965265626842955"><ele>302.4</ele><time>2026-04-11T07:11:05Z</time></trkpt><trkpt lat="46.026291319820565" lon="8.965379812287283"><ele>302.6</ele><time>2026-04-11T07:11:06Z</time></trkpt><trkpt lat="46.02636618579073" lon="8.96548133621385"><ele>302.8</ele><time>2026-04-11T07:11:07Z</time></trkpt><trkpt lat="46.026436141301815" lon="8.9655651200231"><ele>303.0</ele><time>2026-04-11T07:11:08Z</time></trkpt><trkpt lat="46.02650584302207" lon="8.965639295392354"><ele>303.0</ele><time>2026-04-11T07:11:09Z</time></trkpt><trkpt lat="46.02657469831864" lon="8.965732021593306"><ele>303.0</ele><time>2026-04-11T07:11:10Z</time></trkpt><trkpt lat="46.026648262303866" lon="8.965836591601958"><ele>303.0</ele><time>2026-04-11T07:11:11Z</time></trkpt><trkpt lat="46.02672846563383" lon="8.96594326404461"><ele>303.0</ele><time>2026-04-11T07:11:12Z</time></trkpt><trkpt lat="46.026811750736776" lon="8.966062223988166"><ele>303.0</ele><time>2026-04-11T07:11:13Z</time></trkpt><trkpt lat="46.02689925119005" lon="8.96620280367079"><ele>303.0</ele><time>2026-04-11T07:11:14Z</time></trkpt><trkpt lat="46.026997258085416" lon="8.966360106407128"><ele>303.0</ele><time>2026-04-11T07:11:15Z</time></trkpt><trkpt lat="46.02710523520281" lon="8.966528685664212"><ele>303.0</ele><time>2026-04-11T07:11:16Z</time></trkpt><trkpt lat="46.027223264274504" lon="8.966673646140233"><ele>303.3333333333333</ele><time>2026-04-11T07:11:17Z</time></trkpt><trkpt lat="46.027335177573214" lon="8.966833977769385"><ele>303.66666666666663</ele><time>2026-04-11T07:11:18Z</time></trkpt><trkpt lat="46.0274457742039" lon="8.966995777731984"><ele>304.0</ele><time>2026-04-11T07:11:19Z</time></trkpt><trkpt lat="46.02754970459999" lon="8.967169100927922"><ele>304.66666666666663</ele><time>2026-04-11T07:11:20Z</time></trkpt><trkpt lat="46.027638832275436" lon="8.967357408490424"><ele>305.3333333333333</ele><time>2026-04-11T07:11:21Z</time></trkpt><trkpt lat="46.027747342022195" lon="8.967524163672655"><ele>306.0</ele><time>2026-04-11T07:11:22Z</time></trkpt><trkpt lat="46.02785562864262" lon="8.96769269524722"><ele>306.6666666666667</ele><time>2026-04-11T07:11:23Z</time></trkpt><trkpt lat="46.02796516997701" lon="8.967861245228917"><ele>307.33333333333337</ele><time>2026-04-11T07:11:23.999Z</time></trkpt><trkpt lat="46.02807571919624" lon="8.968029268331604"><ele>308.0</ele><time>2026-04-11T07:11:24.999Z</time></trkpt><trkpt lat="46.02818652991921" lon="8.96818926596161"><ele>308.0</ele><time>2026-04-11T07:11:25.999Z</time></trkpt><trkpt lat="46.028292935076806" lon="8.968332445809853"><ele>308.0</ele><time>2026-04-11T07:11:26.999Z</time></trkpt><trkpt lat="46.02840008557342" lon="8.968458343640949"><ele>308.0</ele><time>2026-04-11T07:11:27.999Z</time></trkpt><trkpt lat="46.02850403868084" lon="8.96858030440426"><ele>308.0</ele><time>2026-04-11T07:11:28.999Z</time></trkpt><trkpt lat="46.02860908003083" lon="8.968672892207104"><ele>308.2</ele><time>2026-04-11T07:11:29.999Z</time></trkpt><trkpt lat="46.0287164170416" lon="8.968758032391873"><ele>308.4</ele><time>2026-04-11T07:11:30.999Z</time></trkpt><trkpt lat="46.02881938387791" lon="8.968824394992954"><ele>308.59999999999997</ele><time>2026-04-11T07:11:31.999Z</time></trkpt><trkpt lat="46.028907407811275" lon="8.968906676070041"><ele>308.8</ele><time>2026-04-11T07:11:32.999Z</time></trkpt><trkpt lat="46.029004468864976" lon="8.968963175346266"><ele>309.0</ele><time>2026-04-11T07:11:33.999Z</time></trkpt><trkpt lat="46.02913220836924" lon="8.968763498637706"><ele>309.0</ele><time>2026-04-11T07:11:34.999Z</time></trkpt><trkpt lat="46.02921700286037" lon="8.96866719439801"><ele>309.0</ele><time>2026-04-11T07:11:35.999Z</time></trkpt><trkpt lat="46.029274678368296" lon="8.968515078576083"><ele>309.0</ele><time>2026-04-11T07:11:36.999Z</time></trkpt><trkpt lat="46.02934616966536" lon="8.968382395363188"><ele>309.0</ele><time>2026-04-11T07:11:37.999Z</time></trkpt><trkpt lat="46.029423710392045" lon="8.968256088280896"><ele>309.0</ele><time>2026-04-11T07:11:38.999Z</time></trkpt><trkpt lat="46.0295103938442" lon="8.968136033009472"><ele>309.0</ele><time>2026-04-11T07:11:39.999Z</time></trkpt><trkpt lat="46.02960282692779" lon="8.968021862701585"><ele>309.0</ele><time>2026-04-11T07:11:40.999Z</time></trkpt><trkpt lat="46.029702514300304" lon="8.967920492414873"><ele>309.0</ele><time>2026-04-11T07:11:41.999Z</time></trkpt><trkpt lat="46.029793429367935" lon="8.967792074475364"><ele>309.0</ele><time>2026-04-11T07:11:42.999Z</time></trkpt><trkpt lat="46.02988801410258" lon="8.96766378400658"><ele>309.0</ele><time>2026-04-11T07:11:43.999Z</time></trkpt><trkpt lat="46.02996613518266" lon="8.967520220090616"><ele>309.0</ele><time>2026-04-11T07:11:44.999Z</time></trkpt><trkpt lat="46.030058385519204" lon="8.967377781955006"><ele>309.0</ele><time>2026-04-11T07:11:45.999Z</time></trkpt><trkpt lat="46.030149017203485" lon="8.967233651183514"><ele>310.25</ele><time>2026-04-11T07:11:46.999Z</time></trkpt><trkpt lat="46.030231106879086" lon="8.96710214617334"><ele>311.5</ele><time>2026-04-11T07:11:47.999Z</time></trkpt><trkpt lat="46.03031583794104" lon="8.966987577356521"><ele>312.75</ele><time>2026-04-11T07:11:48.999Z</time></trkpt><trkpt lat="46.0304201099274" lon="8.966909428399985"><ele>314.0</ele><time>2026-04-11T07:11:49.999Z</time></trkpt><trkpt lat="46.03053954835239" lon="8.966876834184935"><ele>314.0</ele><time>2026-04-11T07:11:50.999Z</time></trkpt><trkpt lat="46.03066118823896" lon="8.96686691507228"><ele>314.0</ele><time>2026-04-11T07:11:51.999Z</time></trkpt><trkpt lat="46.030758865039424" lon="8.966814690203627"><ele>314.0</ele><time>2026-04-11T07:11:52.999Z</time></trkpt><trkpt lat="46.03084938474491" lon="8.96670651682274"><ele>314.0</ele><time>2026-04-11T07:11:53.999Z</time></trkpt><trkpt lat="46.030927194921425" lon="8.966577755665833"><ele>315.0</ele><time>2026-04-11T07:11:54.999Z</time></trkpt><trkpt lat="46.03100829498116" lon="8.966439256103227"><ele>316.0</ele><time>2026-04-11T07:11:55.999Z</time></trkpt><trkpt lat="46.031106447848" lon="8.966300789912506"><ele>317.0</ele><time>2026-04-11T07:11:56.999Z</time></trkpt><trkpt lat="46.03119391554186" lon="8.966156014864273"><ele>318.0</ele><time>2026-04-11T07:11:57.999Z</time></trkpt><trkpt lat="46.03128354023966" lon="8.965995961447726"><ele>318.0</ele><time>2026-04-11T07:11:58.999Z</time></trkpt><trkpt lat="46.03132765306979" lon="8.965920918851566"><ele>318.0</ele><time>2026-04-11T07:11:59.999Z</time></trkpt><trkpt lat="46.03140999640319" lon="8.965768110623058"><ele>318.0</ele><time>2026-04-11T07:12:00.999Z</time></trkpt><trkpt lat="46.0314765384858" lon="8.965636313048732"><ele>318.0</ele><time>2026-04-11T07:12:01.999Z</time></trkpt><trkpt lat="46.03154037295976" lon="8.965502980994962"><ele>318.0</ele><time>2026-04-11T07:12:02.999Z</time></trkpt><trkpt lat="46.03160369806347" lon="8.965371244088887"><ele>324.0</ele><time>2026-04-11T07:12:03.999Z</time></trkpt><trkpt lat="46.03167125126435" lon="8.965229967822333"><ele>330.0</ele><time>2026-04-11T07:12:05.049Z</time></trkpt><trkpt lat="46.03173585634654" lon="8.965095279773308"><ele>336.0</ele><time>2026-04-11T07:12:06.039Z</time></trkpt><trkpt lat="46.0319226984404" lon="8.964636556133344"><ele>337.0</ele><time>2026-04-11T07:12:09.222Z</time></trkpt><trkpt lat="46.03197497006219" lon="8.96449135721365"><ele>338.0</ele><time>2026-04-11T07:12:10.222Z</time></trkpt><trkpt lat="46.032026199641294" lon="8.964344798364438"><ele>339.0</ele><time>2026-04-11T07:12:11.222Z</time></trkpt><trkpt lat="46.03207625672276" lon="8.964198126753276"><ele>340.0</ele><time>2026-04-11T07:12:12.222Z</time></trkpt><trkpt lat="46.03210918960221" lon="8.964039256781065"><ele>342.75</ele><time>2026-04-11T07:12:13.222Z</time></trkpt><trkpt lat="46.032155691013585" lon="8.963890013523017"><ele>345.5</ele><time>2026-04-11T07:12:14.223Z</time></trkpt><trkpt lat="46.0321996097812" lon="8.963739367246239"><ele>348.25</ele><time>2026-04-11T07:12:15.222Z</time></trkpt><trkpt lat="46.03224072741156" lon="8.963586875699004"><ele>351.0</ele><time>2026-04-11T07:12:16.222Z</time></trkpt><trkpt lat="46.03227930631319" lon="8.96343317474723"><ele>351.0</ele><time>2026-04-11T07:12:17.222Z</time></trkpt><trkpt lat="46.03233120126317" lon="8.963285393086297"><ele>351.0</ele><time>2026-04-11T07:12:18.222Z</time></trkpt><trkpt lat="46.03234888960295" lon="8.963121977172664"><ele>351.0</ele><time>2026-04-11T07:12:19.222Z</time></trkpt><trkpt lat="46.032396934187716" lon="8.962971446719624"><ele>351.0</ele><time>2026-04-11T07:12:20.222Z</time></trkpt><trkpt lat="46.03241037594194" lon="8.96280717037164"><ele>351.0</ele><time>2026-04-11T07:12:21.223Z</time></trkpt><trkpt lat="46.03245373217778" lon="8.962654147479475"><ele>351.0</ele><time>2026-04-11T07:12:22.222Z</time></trkpt><trkpt lat="46.032463444205895" lon="8.962489393400812"><ele>351.0</ele><time>2026-04-11T07:12:23.222Z</time></trkpt><trkpt lat="46.032486749924026" lon="8.96232943758537"><ele>351.0</ele><time>2026-04-11T07:12:24.222Z</time></trkpt><trkpt lat="46.03250815663478" lon="8.962168903084214"><ele>358.0</ele><time>2026-04-11T07:12:25.222Z</time></trkpt><trkpt lat="46.03252817479839" lon="8.962008059671378"><ele>365.0</ele><time>2026-04-11T07:12:26.222Z</time></trkpt><trkpt lat="46.03254579428367" lon="8.961846521338206"><ele>372.0</ele><time>2026-04-11T07:12:27.222Z</time></trkpt><trkpt lat="46.03256205814623" lon="8.961684783037592"><ele>379.0</ele><time>2026-04-11T07:12:28.222Z</time></trkpt><trkpt lat="46.03259240600486" lon="8.961525275629329"><ele>385.3333333333333</ele><time>2026-04-11T07:12:29.223Z</time></trkpt><trkpt lat="46.03260457499285" lon="8.961362509302415"><ele>391.66666666666663</ele><time>2026-04-11T07:12:30.222Z</time></trkpt><trkpt lat="46.03259630455455" lon="8.961196944358253"><ele>398.0</ele><time>2026-04-11T07:12:31.223Z</time></trkpt><trkpt lat="46.02804130882209" lon="8.932546317384887"><ele>366.3333333333333</ele><time>2026-04-11T07:14:08.999Z</time></trkpt><trkpt lat="46.02797686842069" lon="8.93227375072052"><ele>334.66666666666663</ele><time>2026-04-11T07:14:09.999Z</time></trkpt><trkpt lat="46.027920258606976" lon="8.932030459453209"><ele>303.0</ele><time>2026-04-11T07:14:10.999Z</time></trkpt><trkpt lat="46.02788244227482" lon="8.931801510461627"><ele>301.6666666666667</ele><time>2026-04-11T07:14:11.999Z</time></trkpt><trkpt lat="46.02787534243578" lon="8.93153186740822"><ele>300.33333333333337</ele><time>2026-04-11T07:14:12.999Z</time></trkpt><trkpt lat="46.02789642574958" lon="8.931261443315154"><ele>299.0</ele><time>2026-04-11T07:14:13.999Z</time></trkpt><trkpt lat="46.02798532477036" lon="8.931015427122937"><ele>298.6666666666667</ele><time>2026-04-11T07:14:15Z</time></trkpt><trkpt lat="46.028118820708286" lon="8.93080566502785"><ele>298.3333333333333</ele><time>2026-04-11T07:14:16Z</time></trkpt><trkpt lat="46.02829995942818" lon="8.930678069275112"><ele>298.0</ele><time>2026-04-11T07:14:17Z</time></trkpt><trkpt lat="46.02847801394508" lon="8.930548696886495"><ele>300.3333333333333</ele><time>2026-04-11T07:14:18Z</time></trkpt><trkpt lat="46.028671560847734" lon="8.93044420568941"><ele>302.6666666666667</ele><time>2026-04-11T07:14:19Z</time></trkpt><trkpt lat="46.02885614668745" lon="8.930313788747059"><ele>305.0</ele><time>2026-04-11T07:14:20Z</time></trkpt><trkpt lat="46.02903748446285" lon="8.93017317477656"><ele>304.33333333333337</ele><time>2026-04-11T07:14:21Z</time></trkpt><trkpt lat="46.02922553923848" lon="8.930028367988239"><ele>303.6666666666667</ele><time>2026-04-11T07:14:22Z</time></trkpt><trkpt lat="46.02941339937444" lon="8.92987884624733"><ele>303.0</ele><time>2026-04-11T07:14:23Z</time></trkpt><trkpt lat="46.029601690003254" lon="8.929724410925846"><ele>303.0</ele><time>2026-04-11T07:14:24Z</time></trkpt><trkpt lat="46.0297735979775" lon="8.929557609376998"><ele>303.0</ele><time>2026-04-11T07:14:25Z</time></trkpt><trkpt lat="46.029939253551554" lon="8.929382658369567"><ele>303.0</ele><time>2026-04-11T07:14:26Z</time></trkpt><trkpt lat="46.03010780589424" lon="8.92922081470289"><ele>302.3333333333333</ele><time>2026-04-11T07:14:27Z</time></trkpt><trkpt lat="46.030280940378645" lon="8.92907280632662"><ele>301.66666666666663</ele><time>2026-04-11T07:14:28Z</time></trkpt><trkpt lat="46.03045918071698" lon="8.928934643997584"><ele>301.0</ele><time>2026-04-11T07:14:29.001Z</time></trkpt><trkpt lat="46.03064387174628" lon="8.928816750854185"><ele>301.3333333333333</ele><time>2026-04-11T07:14:30.001Z</time></trkpt><trkpt lat="46.03082153596462" lon="8.928710576542668"><ele>301.6666666666667</ele><time>2026-04-11T07:14:31.001Z</time></trkpt><trkpt lat="46.03100175698933" lon="8.928610165158046"><ele>302.0</ele><time>2026-04-11T07:14:32.001Z</time></trkpt><trkpt lat="46.03118648457425" lon="8.928544315827533"><ele>302.0</ele><time>2026-04-11T07:14:33.001Z</time></trkpt><trkpt lat="46.031372027585725" lon="8.928477887199401"><ele>302.0</ele><time>2026-04-11T07:14:34.001Z</time></trkpt><trkpt lat="46.031568544951945" lon="8.928421114284385"><ele>302.0</ele><time>2026-04-11T07:14:35.001Z</time></trkpt><trkpt lat="46.03176322004215" lon="8.928363027496722"><ele>303.33333333333337</ele><time>2026-04-11T07:14:36.001Z</time></trkpt><trkpt lat="46.0319598773588" lon="8.928333341130879"><ele>304.6666666666667</ele><time>2026-04-11T07:14:37.001Z</time></trkpt><trkpt lat="46.032152795931495" lon="8.928320235561"><ele>306.0</ele><time>2026-04-11T07:14:38.001Z</time></trkpt><trkpt lat="46.03233745921086" lon="8.928323152213931"><ele>305.0</ele><time>2026-04-11T07:14:39.001Z</time></trkpt><trkpt lat="46.03251258247295" lon="8.928325080999702"><ele>304.0</ele><time>2026-04-11T07:14:40.001Z</time></trkpt><trkpt lat="46.032682508005394" lon="8.928342758602833"><ele>303.0</ele><time>2026-04-11T07:14:41.001Z</time></trkpt><trkpt lat="46.03284401456539" lon="8.928375663798736"><ele>302.3333333333333</ele><time>2026-04-11T07:14:42.001Z</time></trkpt><trkpt lat="46.03299486314416" lon="8.928418601041997"><ele>301.66666666666663</ele><time>2026-04-11T07:14:43.001Z</time></trkpt><trkpt lat="46.0331515782986" lon="8.928458400587463"><ele>301.0</ele><time>2026-04-11T07:14:44.001Z</time></trkpt><trkpt lat="46.03330311044478" lon="8.928482344320159"><ele>301.75</ele><time>2026-04-11T07:14:45.001Z</time></trkpt><trkpt lat="46.03344328610622" lon="8.928547276097557"><ele>302.5</ele><time>2026-04-11T07:14:46.001Z</time></trkpt><trkpt lat="46.0335952676512" lon="8.928575370598073"><ele>303.25</ele><time>2026-04-11T07:14:47.001Z</time></trkpt><trkpt lat="46.033726701466705" lon="8.928576577270714"><ele>304.0</ele><time>2026-04-11T07:14:48.001Z</time></trkpt><trkpt lat="46.033825034378125" lon="8.928597867278269"><ele>304.0</ele><time>2026-04-11T07:14:49.001Z</time></trkpt><trkpt lat="46.03395701172672" lon="8.928662577541767"><ele>304.0</ele><time>2026-04-11T07:14:50.001Z</time></trkpt><trkpt lat="46.03409461478571" lon="8.928723178726822"><ele>304.0</ele><time>2026-04-11T07:14:51.001Z</time></trkpt><trkpt lat="46.03423755827183" lon="8.928781785417472"><ele>304.0</ele><time>2026-04-11T07:14:52.001Z</time></trkpt><trkpt lat="46.034386299379605" lon="8.928839877908398"><ele>305.0</ele><time>2026-04-11T07:14:53.001Z</time></trkpt><trkpt lat="46.03454269424272" lon="8.928900959622109"><ele>306.0</ele><time>2026-04-11T07:14:54.001Z</time></trkpt><trkpt lat="46.03471074845859" lon="8.928961240422208"><ele>307.0</ele><time>2026-04-11T07:14:55.001Z</time></trkpt><trkpt lat="46.034886780096905" lon="8.92901949183364"><ele>308.3333333333333</ele><time>2026-04-11T07:14:56.001Z</time></trkpt><trkpt lat="46.035062771371344" lon="8.929072671648912"><ele>309.6666666666667</ele><time>2026-04-11T07:14:57.001Z</time></trkpt><trkpt lat="46.035234172262186" lon="8.929121997749897"><ele>311.0</ele><time>2026-04-11T07:14:58.001Z</time></trkpt><trkpt lat="46.03540870443361" lon="8.92916874860719"><ele>311.0</ele><time>2026-04-11T07:14:59.001Z</time></trkpt><trkpt lat="46.03559544722105" lon="8.929208027417783"><ele>311.0</ele><time>2026-04-11T07:15:00.001Z</time></trkpt><trkpt lat="46.03579149517483" lon="8.929240593174873"><ele>311.0</ele><time>2026-04-11T07:15:01.001Z</time></trkpt><trkpt lat="46.03599244211472" lon="8.929270377792674"><ele>310.0</ele><time>2026-04-11T07:15:02.001Z</time></trkpt><trkpt lat="46.03618850771086" lon="8.929288393595034"><ele>309.0</ele><time>2026-04-11T07:15:03.001Z</time></trkpt><trkpt lat="46.03638297720281" lon="8.929306262738985"><ele>308.0</ele><time>2026-04-11T07:15:04.001Z</time></trkpt><trkpt lat="46.03657769996331" lon="8.929324155159584"><ele>308.0</ele><time>2026-04-11T07:15:05Z</time></trkpt><trkpt lat="46.03677592771744" lon="8.929339416979493"><ele>308.0</ele><time>2026-04-11T07:15:06Z</time></trkpt><trkpt lat="46.03697871179509" lon="8.929342804093123"><ele>308.0</ele><time>2026-04-11T07:15:07Z</time></trkpt><trkpt lat="46.037176455064774" lon="8.929339153404438"><ele>308.0</ele><time>2026-04-11T07:15:08Z</time></trkpt><trkpt lat="46.03737171108592" lon="8.929244818337155"><ele>308.0</ele><time>2026-04-11T07:15:09Z</time></trkpt><trkpt lat="46.03756927496387" lon="8.92924481024605"><ele>308.0</ele><time>2026-04-11T07:15:10Z</time></trkpt><trkpt lat="46.03776758687025" lon="8.929239577667548"><ele>309.0</ele><time>2026-04-11T07:15:11Z</time></trkpt><trkpt lat="46.03796578081267" lon="8.929229277846426"><ele>310.0</ele><time>2026-04-11T07:15:12Z</time></trkpt><trkpt lat="46.03816256644387" lon="8.929215509149676"><ele>311.0</ele><time>2026-04-11T07:15:13Z</time></trkpt><trkpt lat="46.03835782369277" lon="8.929193548464829"><ele>311.6666666666667</ele><time>2026-04-11T07:15:14Z</time></trkpt><trkpt lat="46.03855033562262" lon="8.929160000773969"><ele>312.3333333333333</ele><time>2026-04-11T07:15:15Z</time></trkpt><trkpt lat="46.038741965191825" lon="8.929124957727067"><ele>313.0</ele><time>2026-04-11T07:15:16Z</time></trkpt><trkpt lat="46.03893117925064" lon="8.92908544375969"><ele>313.0</ele><time>2026-04-11T07:15:17Z</time></trkpt><trkpt lat="46.03912001933715" lon="8.929037916068527"><ele>313.0</ele><time>2026-04-11T07:15:18Z</time></trkpt><trkpt lat="46.03930842828567" lon="8.928985126436858"><ele>313.0</ele><time>2026-04-11T07:15:19Z</time></trkpt><trkpt lat="46.03949682339015" lon="8.92892270192503"><ele>313.3333333333333</ele><time>2026-04-11T07:15:20Z</time></trkpt><trkpt lat="46.03968364394547" lon="8.928855569198552"><ele>313.6666666666667</ele><time>2026-04-11T07:15:21Z</time></trkpt><trkpt lat="46.03986898485125" lon="8.928782466687002"><ele>314.0</ele><time>2026-04-11T07:15:22Z</time></trkpt><trkpt lat="46.04005300110514" lon="8.928704034890423"><ele>314.0</ele><time>2026-04-11T07:15:23Z</time></trkpt><trkpt lat="46.0402339340625" lon="8.928618173678176"><ele>314.0</ele><time>2026-04-11T07:15:24Z</time></trkpt><trkpt lat="46.04041361449956" lon="8.928524250820228"><ele>314.0</ele><time>2026-04-11T07:15:25Z</time></trkpt><trkpt lat="46.04059145955852" lon="8.928425783721893"><ele>313.0</ele><time>2026-04-11T07:15:26Z</time></trkpt><trkpt lat="46.04076746603395" lon="8.92831972728751"><ele>312.0</ele><time>2026-04-11T07:15:27Z</time></trkpt><trkpt lat="46.04093906671589" lon="8.928207120290628"><ele>311.0</ele><time>2026-04-11T07:15:28Z</time></trkpt><trkpt lat="46.04110892192218" lon="8.92808885029002"><ele>311.0</ele><time>2026-04-11T07:15:29Z</time></trkpt><trkpt lat="46.041278777935986" lon="8.927965128377988"><ele>311.0</ele><time>2026-04-11T07:15:30Z</time></trkpt><trkpt lat="46.04144661733979" lon="8.92783449606537"><ele>311.0</ele><time>2026-04-11T07:15:31Z</time></trkpt><trkpt lat="46.041611861933234" lon="8.927700101215716"><ele>311.0</ele><time>2026-04-11T07:15:32Z</time></trkpt><trkpt lat="46.041774951161024" lon="8.927563151560236"><ele>311.0</ele><time>2026-04-11T07:15:33Z</time></trkpt><trkpt lat="46.041935964277506" lon="8.927424428942912"><ele>311.0</ele><time>2026-04-11T07:15:34Z</time></trkpt><trkpt lat="46.042097304091044" lon="8.927284763615088"><ele>311.6666666666667</ele><time>2026-04-11T07:15:35Z</time></trkpt><trkpt lat="46.042258282744626" lon="8.927144115467575"><ele>312.3333333333333</ele><time>2026-04-11T07:15:36Z</time></trkpt><trkpt lat="46.04241961580854" lon="8.927003159574577"><ele>313.0</ele><time>2026-04-11T07:15:37Z</time></trkpt><trkpt lat="46.04258277002285" lon="8.926860612590495"><ele>314.3333333333333</ele><time>2026-04-11T07:15:38Z</time></trkpt><trkpt lat="46.04274451435394" lon="8.926718301515148"><ele>315.6666666666667</ele><time>2026-04-11T07:15:39Z</time></trkpt><trkpt lat="46.04290627798637" lon="8.92658256346804"><ele>317.0</ele><time>2026-04-11T07:15:40Z</time></trkpt><trkpt lat="46.043069609957314" lon="8.92645361211047"><ele>317.0</ele><time>2026-04-11T07:15:41Z</time></trkpt><trkpt lat="46.04323447665358" lon="8.926326331516126"><ele>317.0</ele><time>2026-04-11T07:15:42Z</time></trkpt><trkpt lat="46.04340022239988" lon="8.926203284112056"><ele>317.0</ele><time>2026-04-11T07:15:43Z</time></trkpt><trkpt lat="46.04356603230053" lon="8.92608667025534"><ele>318.0</ele><time>2026-04-11T07:15:44Z</time></trkpt><trkpt lat="46.04372848720071" lon="8.925979214500007"><ele>319.0</ele><time>2026-04-11T07:15:45Z</time></trkpt><trkpt lat="46.04390693566678" lon="8.925868522920249"><ele>320.0</ele><time>2026-04-11T07:15:46Z</time></trkpt><trkpt lat="46.04407198083261" lon="8.925753816843427"><ele>320.6666666666667</ele><time>2026-04-11T07:15:47Z</time></trkpt><trkpt lat="46.04425453909373" lon="8.92567985394848"><ele>321.3333333333333</ele><time>2026-04-11T07:15:48Z</time></trkpt><trkpt lat="46.04443617393854" lon="8.925607782044073"><ele>322.0</ele><time>2026-04-11T07:15:49Z</time></trkpt><trkpt lat="46.044617623367024" lon="8.92554031569339"><ele>322.0</ele><time>2026-04-11T07:15:50Z</time></trkpt><trkpt lat="46.04479904127989" lon="8.925471783526906"><ele>322.0</ele><time>2026-04-11T07:15:51Z</time></trkpt><trkpt lat="46.04498088495187" lon="8.925405145216285"><ele>322.0</ele><time>2026-04-11T07:15:52Z</time></trkpt><trkpt lat="46.04516219027038" lon="8.925336907653833"><ele>323.0</ele><time>2026-04-11T07:15:53Z</time></trkpt><trkpt lat="46.04534417087621" lon="8.925271237804317"><ele>324.0</ele><time>2026-04-11T07:15:54Z</time></trkpt><trkpt lat="46.04553259686833" lon="8.925208906588066"><ele>325.0</ele><time>2026-04-11T07:15:55Z</time></trkpt><trkpt lat="46.045729704367595" lon="8.925152643166838"><ele>325.66666666666663</ele><time>2026-04-11T07:15:56Z</time></trkpt><trkpt lat="46.04594039833376" lon="8.925104468360868"><ele>326.3333333333333</ele><time>2026-04-11T07:15:57Z</time></trkpt><trkpt lat="46.04616048760394" lon="8.92506078536502"><ele>327.0</ele><time>2026-04-11T07:15:58Z</time></trkpt><trkpt lat="46.046391503238496" lon="8.925024237858226"><ele>324.0</ele><time>2026-04-11T07:15:59Z</time></trkpt><trkpt lat="46.04663155121948" lon="8.924993864063387"><ele>321.0</ele><time>2026-04-11T07:16:00Z</time></trkpt><trkpt lat="46.046876770306326" lon="8.924971446973753"><ele>321.0</ele><time>2026-04-11T07:16:01Z</time></trkpt><trkpt lat="46.04712873732273" lon="8.924955501029551"><ele>321.0</ele><time>2026-04-11T07:16:02Z</time></trkpt><trkpt lat="46.047386954218844" lon="8.924949008389019"><ele>322.5</ele><time>2026-04-11T07:16:03Z</time></trkpt><trkpt lat="46.047648230605624" lon="8.924953784406359"><ele>324.0</ele><time>2026-04-11T07:16:04Z</time></trkpt><trkpt lat="46.04791378436884" lon="8.924972428633154"><ele>324.0</ele><time>2026-04-11T07:16:05Z</time></trkpt><trkpt lat="46.048183631133156" lon="8.925003283621319"><ele>324.0</ele><time>2026-04-11T07:16:06Z</time></trkpt><trkpt lat="46.04845449848049" lon="8.925046947689617"><ele>328.0</ele><time>2026-04-11T07:16:07Z</time></trkpt><trkpt lat="46.04872554834456" lon="8.925102792448238"><ele>332.0</ele><time>2026-04-11T07:16:08Z</time></trkpt><trkpt lat="46.0489952044209" lon="8.925170435175149"><ele>331.0</ele><time>2026-04-11T07:16:09Z</time></trkpt><trkpt lat="46.0492621098359" lon="8.925255431159432"><ele>330.0</ele><time>2026-04-11T07:16:10Z</time></trkpt><trkpt lat="46.049525300110055" lon="8.925359074686108"><ele>330.0</ele><time>2026-04-11T07:16:11Z</time></trkpt><trkpt lat="46.049784090002014" lon="8.925473716546788"><ele>330.0</ele><time>2026-04-11T07:16:12Z</time></trkpt><trkpt lat="46.050042219362844" lon="8.925590276343364"><ele>329.5</ele><time>2026-04-11T07:16:13Z</time></trkpt><trkpt lat="46.05029664976212" lon="8.925712859970464"><ele>329.0</ele><time>2026-04-11T07:16:14Z</time></trkpt><trkpt lat="46.05054818466527" lon="8.925843520487378"><ele>331.0</ele><time>2026-04-11T07:16:15Z</time></trkpt><trkpt lat="46.05079676018345" lon="8.925982181157444"><ele>333.0</ele><time>2026-04-11T07:16:16Z</time></trkpt><trkpt lat="46.051042513787344" lon="8.92612421100358"><ele>333.0</ele><time>2026-04-11T07:16:17Z</time></trkpt><trkpt lat="46.05128983245435" lon="8.926275170067074"><ele>333.0</ele><time>2026-04-11T07:16:18Z</time></trkpt><trkpt lat="46.05153706761057" lon="8.926420998431897"><ele>331.0</ele><time>2026-04-11T07:16:19Z</time></trkpt><trkpt lat="46.051784619597186" lon="8.926561409898394"><ele>329.0</ele><time>2026-04-11T07:16:20Z</time></trkpt><trkpt lat="46.05203515280646" lon="8.92670668473779"><ele>329.5</ele><time>2026-04-11T07:16:21.001Z</time></trkpt><trkpt lat="46.05228420234255" lon="8.926849436517573"><ele>330.0</ele><time>2026-04-11T07:16:22.001Z</time></trkpt><trkpt lat="46.05253538337923" lon="8.92699061048396"><ele>330.0</ele><time>2026-04-11T07:16:23.001Z</time></trkpt><trkpt lat="46.05278855267479" lon="8.927128358296251"><ele>330.0</ele><time>2026-04-11T07:16:24.001Z</time></trkpt><trkpt lat="46.05304345173772" lon="8.927259459696705"><ele>330.5</ele><time>2026-04-11T07:16:25.001Z</time></trkpt><trkpt lat="46.053297420193225" lon="8.927380793833821"><ele>331.0</ele><time>2026-04-11T07:16:26.001Z</time></trkpt><trkpt lat="46.05355383137226" lon="8.927491909733051"><ele>331.5</ele><time>2026-04-11T07:16:27.001Z</time></trkpt><trkpt lat="46.05381113081423" lon="8.927596403383335"><ele>332.0</ele><time>2026-04-11T07:16:28.001Z</time></trkpt><trkpt lat="46.05407061082791" lon="8.927692974305176"><ele>331.5</ele><time>2026-04-11T07:16:29.001Z</time></trkpt><trkpt lat="46.05432589228172" lon="8.927787025377258"><ele>331.0</ele><time>2026-04-11T07:16:30.001Z</time></trkpt><trkpt lat="46.05458977516454" lon="8.927872990290458"><ele>331.0</ele><time>2026-04-11T07:16:31.001Z</time></trkpt><trkpt lat="46.054853013068005" lon="8.927948138548707"><ele>331.0</ele><time>2026-04-11T07:16:32.001Z</time></trkpt><trkpt lat="46.05511810444793" lon="8.928008138562056"><ele>331.5</ele><time>2026-04-11T07:16:33.001Z</time></trkpt><trkpt lat="46.05538404587354" lon="8.92806238634028"><ele>332.0</ele><time>2026-04-11T07:16:34.001Z</time></trkpt><trkpt lat="46.05564923176463" lon="8.928115879081497"><ele>333.5</ele><time>2026-04-11T07:16:35.001Z</time></trkpt><trkpt lat="46.055915861707255" lon="8.92816424726917"><ele>335.0</ele><time>2026-04-11T07:16:36.001Z</time></trkpt><trkpt lat="46.056184011336015" lon="8.92820342970762"><ele>335.0</ele><time>2026-04-11T07:16:37.001Z</time></trkpt><trkpt lat="46.056453156352866" lon="8.928236360446002"><ele>335.0</ele><time>2026-04-11T07:16:38.001Z</time></trkpt><trkpt lat="46.056720611730256" lon="8.928266964709477"><ele>334.5</ele><time>2026-04-11T07:16:39.001Z</time></trkpt><trkpt lat="46.05698652198295" lon="8.92829760662257"><ele>334.0</ele><time>2026-04-11T07:16:40.001Z</time></trkpt><trkpt lat="46.057252264650685" lon="8.9283192046159"><ele>335.5</ele><time>2026-04-11T07:16:41.001Z</time></trkpt><trkpt lat="46.05752061671263" lon="8.928324112320206"><ele>337.0</ele><time>2026-04-11T07:16:42.001Z</time></trkpt><trkpt lat="46.057789106240406" lon="8.928315455799309"><ele>337.0</ele><time>2026-04-11T07:16:43.001Z</time></trkpt><trkpt lat="46.058057354464374" lon="8.92830126725778"><ele>337.0</ele><time>2026-04-11T07:16:44.001Z</time></trkpt><trkpt lat="46.05832611628125" lon="8.928281041296323"><ele>337.5</ele><time>2026-04-11T07:16:45.001Z</time></trkpt><trkpt lat="46.058595801323996" lon="8.928254252208902"><ele>338.0</ele><time>2026-04-11T07:16:46.001Z</time></trkpt><trkpt lat="46.05886488627456" lon="8.9282270807169"><ele>337.5</ele><time>2026-04-11T07:16:47.001Z</time></trkpt><trkpt lat="46.05913359077723" lon="8.928197570653795"><ele>337.0</ele><time>2026-04-11T07:16:48.001Z</time></trkpt><trkpt lat="46.05940240041007" lon="8.928166446783798"><ele>337.0</ele><time>2026-04-11T07:16:49.001Z</time></trkpt><trkpt lat="46.05967084128771" lon="8.928131505497044"><ele>337.0</ele><time>2026-04-11T07:16:50.001Z</time></trkpt><trkpt lat="46.05993763959754" lon="8.928093199671256"><ele>337.5</ele><time>2026-04-11T07:16:51.001Z</time></trkpt><trkpt lat="46.0602053767003" lon="8.928051413179393"><ele>338.0</ele><time>2026-04-11T07:16:52.001Z</time></trkpt><trkpt lat="46.06047263812072" lon="8.92801565670594"><ele>338.0</ele><time>2026-04-11T07:16:53.001Z</time></trkpt><trkpt lat="46.06073899053736" lon="8.927986789756996"><ele>338.0</ele><time>2026-04-11T07:16:54.001Z</time></trkpt><trkpt lat="46.06100603025435" lon="8.9279576245399"><ele>339.5</ele><time>2026-04-11T07:16:55.001Z</time></trkpt><trkpt lat="46.061272559476116" lon="8.927930873805334"><ele>341.0</ele><time>2026-04-11T07:16:56.001Z</time></trkpt><trkpt lat="46.06153944361958" lon="8.927908055474406"><ele>340.5</ele><time>2026-04-11T07:16:57.001Z</time></trkpt><trkpt lat="46.06180639713841" lon="8.927893208622192"><ele>340.0</ele><time>2026-04-11T07:16:58.001Z</time></trkpt><trkpt lat="46.06207369502645" lon="8.927882591712942"><ele>340.0</ele><time>2026-04-11T07:16:59Z</time></trkpt><trkpt lat="46.0623416381377" lon="8.927876704646396"><ele>340.0</ele><time>2026-04-11T07:17:00Z</time></trkpt><trkpt lat="46.0626087216565" lon="8.927878136046761"><ele>340.5</ele><time>2026-04-11T07:17:01Z</time></trkpt><trkpt lat="46.0628765247757" lon="8.927886305103538"><ele>341.0</ele><time>2026-04-11T07:17:02Z</time></trkpt><trkpt lat="46.06314409827483" lon="8.927900687390544"><ele>342.5</ele><time>2026-04-11T07:17:03Z</time></trkpt><trkpt lat="46.06341298250533" lon="8.927918428863554"><ele>344.0</ele><time>2026-04-11T07:17:04Z</time></trkpt><trkpt lat="46.063680349688504" lon="8.927940820188862"><ele>344.0</ele><time>2026-04-11T07:17:05Z</time></trkpt><trkpt lat="46.06393153263004" lon="8.927970019396245"><ele>344.0</ele><time>2026-04-11T07:17:06Z</time></trkpt><trkpt lat="46.06417027095756" lon="8.928001674623665"><ele>345.0</ele><time>2026-04-11T07:17:07Z</time></trkpt><trkpt lat="46.064407328668665" lon="8.928040051789127"><ele>346.0</ele><time>2026-04-11T07:17:08Z</time></trkpt><trkpt lat="46.064643316069436" lon="8.92808454968182"><ele>346.0</ele><time>2026-04-11T07:17:09Z</time></trkpt><trkpt lat="46.064877812655496" lon="8.928130788535775"><ele>346.0</ele><time>2026-04-11T07:17:10Z</time></trkpt><trkpt lat="46.06511277129207" lon="8.928179998168115"><ele>347.5</ele><time>2026-04-11T07:17:11Z</time></trkpt><trkpt lat="46.065348219801486" lon="8.928232832695263"><ele>349.0</ele><time>2026-04-11T07:17:12Z</time></trkpt><trkpt lat="46.06558415045098" lon="8.928292064051199"><ele>349.0</ele><time>2026-04-11T07:17:13Z</time></trkpt><trkpt lat="46.065818449023645" lon="8.928353960222752"><ele>349.0</ele><time>2026-04-11T07:17:14Z</time></trkpt><trkpt lat="46.06605236312048" lon="8.928420330365682"><ele>348.5</ele><time>2026-04-11T07:17:15Z</time></trkpt><trkpt lat="46.06628678329956" lon="8.92848913583024"><ele>348.0</ele><time>2026-04-11T07:17:16Z</time></trkpt><trkpt lat="46.066520870924684" lon="8.928558587126618"><ele>349.5</ele><time>2026-04-11T07:17:17Z</time></trkpt><trkpt lat="46.06675605088824" lon="8.928629595569731"><ele>351.0</ele><time>2026-04-11T07:17:18Z</time></trkpt><trkpt lat="46.06698944264534" lon="8.928699320613667"><ele>351.0</ele><time>2026-04-11T07:17:19Z</time></trkpt><trkpt lat="46.067224257119314" lon="8.92876585304515"><ele>351.0</ele><time>2026-04-11T07:17:20Z</time></trkpt><trkpt lat="46.067460262242506" lon="8.928831142727738"><ele>353.5</ele><time>2026-04-11T07:17:21Z</time></trkpt><trkpt lat="46.06769534233371" lon="8.928895571217696"><ele>356.0</ele><time>2026-04-11T07:17:22Z</time></trkpt><trkpt lat="46.067930488744736" lon="8.92895442600618"><ele>356.0</ele><time>2026-04-11T07:17:23Z</time></trkpt><trkpt lat="46.06816525177254" lon="8.929005930724303"><ele>356.0</ele><time>2026-04-11T07:17:24Z</time></trkpt><trkpt lat="46.0684010599187" lon="8.929043346673474"><ele>365.0</ele><time>2026-04-11T07:17:25Z</time></trkpt><trkpt lat="46.06863970685868" lon="8.929071056051573"><ele>374.0</ele><time>2026-04-11T07:17:26Z</time></trkpt><trkpt lat="46.068882257970586" lon="8.929093332981136"><ele>383.0</ele><time>2026-04-11T07:17:27Z</time></trkpt><trkpt lat="46.069122241358215" lon="8.929100409220128"><ele>392.0</ele><time>2026-04-11T07:17:28Z</time></trkpt><trkpt lat="46.06936257726052" lon="8.929096137797956"><ele>392.0</ele><time>2026-04-11T07:17:29Z</time></trkpt><trkpt lat="46.06960273028436" lon="8.929080931582753"><ele>392.0</ele><time>2026-04-11T07:17:30Z</time></trkpt><trkpt lat="46.06984260203806" lon="8.929054362349856"><ele>402.0</ele><time>2026-04-11T07:17:31Z</time></trkpt><trkpt lat="46.07008004392429" lon="8.929010999841216"><ele>412.0</ele><time>2026-04-11T07:17:32Z</time></trkpt><trkpt lat="46.07031675449919" lon="8.928960994584244"><ele>412.0</ele><time>2026-04-11T07:17:33Z</time></trkpt><trkpt lat="46.07055345884273" lon="8.928895231449934"><ele>412.0</ele><time>2026-04-11T07:17:34Z</time></trkpt><trkpt lat="46.070792092292066" lon="8.928825298066434"><ele>408.0</ele><time>2026-04-11T07:17:35Z</time></trkpt><trkpt lat="46.0710322368042" lon="8.928746572513576"><ele>404.0</ele><time>2026-04-11T07:17:36Z</time></trkpt><trkpt lat="46.071280880990365" lon="8.928707594232517"><ele>404.0</ele><time>2026-04-11T07:17:37Z</time></trkpt><trkpt lat="46.07143129503568" lon="8.928659420431874"><ele>404.0</ele><time>2026-04-11T07:17:38Z</time></trkpt><trkpt lat="46.07165380653437" lon="8.928578230924648"><ele>404.0</ele><time>2026-04-11T07:17:39Z</time></trkpt><trkpt lat="46.07187400366811" lon="8.928488598068398"><ele>399.5</ele><time>2026-04-11T07:17:40Z</time></trkpt><trkpt lat="46.072167424177444" lon="8.928346053965093"><ele>395.0</ele><time>2026-04-11T07:17:41Z</time></trkpt><trkpt lat="46.072395675100864" lon="8.928251847456933"><ele>387.5</ele><time>2026-04-11T07:17:42Z</time></trkpt><trkpt lat="46.07262646492687" lon="8.9281560495131"><ele>380.0</ele><time>2026-04-11T07:17:43Z</time></trkpt><trkpt lat="46.0728526398435" lon="8.92803796127394"><ele>380.0</ele><time>2026-04-11T07:17:44Z</time></trkpt><trkpt lat="46.073068915365475" lon="8.927899669346644"><ele>380.0</ele><time>2026-04-11T07:17:45Z</time></trkpt><trkpt lat="46.07327828453496" lon="8.92774540026435"><ele>380.0</ele><time>2026-04-11T07:17:46Z</time></trkpt><trkpt lat="46.073490518886366" lon="8.927594573019027"><ele>380.0</ele><time>2026-04-11T07:17:47Z</time></trkpt><trkpt lat="46.073700158197745" lon="8.927433742122995"><ele>378.5</ele><time>2026-04-11T07:17:48Z</time></trkpt><trkpt lat="46.07390602927436" lon="8.927263104369242"><ele>377.0</ele><time>2026-04-11T07:17:49Z</time></trkpt><trkpt lat="46.074106845022555" lon="8.927087325794572"><ele>377.0</ele><time>2026-04-11T07:17:50Z</time></trkpt><trkpt lat="46.074313162102754" lon="8.926903912033184"><ele>377.0</ele><time>2026-04-11T07:17:51Z</time></trkpt><trkpt lat="46.074510697975214" lon="8.926711320373704"><ele>380.0</ele><time>2026-04-11T07:17:52Z</time></trkpt><trkpt lat="46.07470703777506" lon="8.926512190931883"><ele>383.0</ele><time>2026-04-11T07:17:53Z</time></trkpt><trkpt lat="46.07489939268436" lon="8.926305541859998"><ele>383.0</ele><time>2026-04-11T07:17:54Z</time></trkpt><trkpt lat="46.075091368709764" lon="8.926094361058068"><ele>383.0</ele><time>2026-04-11T07:17:55Z</time></trkpt><trkpt lat="46.07528446913806" lon="8.925874602250866"><ele>383.0</ele><time>2026-04-11T07:17:56Z</time></trkpt><trkpt lat="46.07548131888466" lon="8.925642414849717"><ele>383.0</ele><time>2026-04-11T07:17:57Z</time></trkpt><trkpt lat="46.07568283199484" lon="8.92540106677943"><ele>384.5</ele><time>2026-04-11T07:17:58Z</time></trkpt><trkpt lat="46.07588577050719" lon="8.925157270720849"><ele>386.0</ele><time>2026-04-11T07:17:59Z</time></trkpt><trkpt lat="46.076088368488136" lon="8.924911358794967"><ele>386.0</ele><time>2026-04-11T07:18:00Z</time></trkpt><trkpt lat="46.07629269614364" lon="8.924661986101121"><ele>386.0</ele><time>2026-04-11T07:18:01Z</time></trkpt><trkpt lat="46.07649828922167" lon="8.924413287671484"><ele>388.5</ele><time>2026-04-11T07:18:02Z</time></trkpt><trkpt lat="46.07670534015521" lon="8.92416716435608"><ele>391.0</ele><time>2026-04-11T07:18:03Z</time></trkpt><trkpt lat="46.07691393018388" lon="8.923922935674002"><ele>391.0</ele><time>2026-04-11T07:18:04Z</time></trkpt><trkpt lat="46.07712536782585" lon="8.923688205697703"><ele>391.0</ele><time>2026-04-11T07:18:05Z</time></trkpt><trkpt lat="46.07733961638588" lon="8.92345693163727"><ele>389.0</ele><time>2026-04-11T07:18:06Z</time></trkpt><trkpt lat="46.07755663657411" lon="8.923234027687993"><ele>387.0</ele><time>2026-04-11T07:18:07Z</time></trkpt><trkpt lat="46.07777684971422" lon="8.923022072831532"><ele>387.0</ele><time>2026-04-11T07:18:08Z</time></trkpt><trkpt lat="46.07799961153686" lon="8.922819608893933"><ele>387.0</ele><time>2026-04-11T07:18:09Z</time></trkpt><trkpt lat="46.07822816652918" lon="8.922626086727705"><ele>387.5</ele><time>2026-04-11T07:18:10Z</time></trkpt><trkpt lat="46.07846031616066" lon="8.922442668530657"><ele>388.0</ele><time>2026-04-11T07:18:11Z</time></trkpt><trkpt lat="46.07869625485562" lon="8.922269172266455"><ele>388.0</ele><time>2026-04-11T07:18:12Z</time></trkpt><trkpt lat="46.078936429745895" lon="8.922108644283815"><ele>388.0</ele><time>2026-04-11T07:18:13Z</time></trkpt><trkpt lat="46.07918045205543" lon="8.921958335594924"><ele>390.0</ele><time>2026-04-11T07:18:14Z</time></trkpt><trkpt lat="46.079428483403476" lon="8.921822137158243"><ele>392.0</ele><time>2026-04-11T07:18:15Z</time></trkpt><trkpt lat="46.079679798200395" lon="8.921698254245031"><ele>394.5</ele><time>2026-04-11T07:18:16Z</time></trkpt><trkpt lat="46.07993352755635" lon="8.921583373583315"><ele>397.0</ele><time>2026-04-11T07:18:17Z</time></trkpt><trkpt lat="46.080190540017924" lon="8.92148425427873"><ele>397.0</ele><time>2026-04-11T07:18:18Z</time></trkpt><trkpt lat="46.080449460074334" lon="8.921391465004556"><ele>397.0</ele><time>2026-04-11T07:18:19Z</time></trkpt><trkpt lat="46.08071049344812" lon="8.921316924788519"><ele>397.5</ele><time>2026-04-11T07:18:20Z</time></trkpt><trkpt lat="46.08097376117517" lon="8.921253925527177"><ele>398.0</ele><time>2026-04-11T07:18:21Z</time></trkpt><trkpt lat="46.0812361838173" lon="8.921200738983528"><ele>398.0</ele><time>2026-04-11T07:18:22Z</time></trkpt><trkpt lat="46.08150140024156" lon="8.921163442627126"><ele>398.0</ele><time>2026-04-11T07:18:23Z</time></trkpt><trkpt lat="46.08176684085163" lon="8.921140621470723"><ele>398.0</ele><time>2026-04-11T07:18:24Z</time></trkpt><trkpt lat="46.08203189068277" lon="8.921125625684112"><ele>398.0</ele><time>2026-04-11T07:18:25Z</time></trkpt><trkpt lat="46.082297902071936" lon="8.92112079629301"><ele>399.0</ele><time>2026-04-11T07:18:26Z</time></trkpt><trkpt lat="46.08256391865312" lon="8.921127597836229"><ele>400.0</ele><time>2026-04-11T07:18:27.001Z</time></trkpt><trkpt lat="46.08282951275184" lon="8.921150552252318"><ele>400.0</ele><time>2026-04-11T07:18:28.001Z</time></trkpt><trkpt lat="46.08309428198485" lon="8.921188744531989"><ele>400.0</ele><time>2026-04-11T07:18:29.001Z</time></trkpt><trkpt lat="46.083357945972224" lon="8.921236712345655"><ele>399.0</ele><time>2026-04-11T07:18:30.001Z</time></trkpt><trkpt lat="46.08362095282772" lon="8.921286420252862"><ele>398.0</ele><time>2026-04-11T07:18:31.001Z</time></trkpt><trkpt lat="46.08388561865034" lon="8.921331882394874"><ele>401.0</ele><time>2026-04-11T07:18:32.001Z</time></trkpt><trkpt lat="46.084151048125406" lon="8.921382740907957"><ele>404.0</ele><time>2026-04-11T07:18:33.001Z</time></trkpt><trkpt lat="46.08441479393088" lon="8.921441503835908"><ele>404.0</ele><time>2026-04-11T07:18:34.001Z</time></trkpt><trkpt lat="46.08467724664717" lon="8.921506477234074"><ele>404.0</ele><time>2026-04-11T07:18:35.001Z</time></trkpt><trkpt lat="46.084940245620004" lon="8.921575555206065"><ele>404.0</ele><time>2026-04-11T07:18:36.001Z</time></trkpt><trkpt lat="46.08520233099538" lon="8.921649298658904"><ele>404.0</ele><time>2026-04-11T07:18:37.001Z</time></trkpt><trkpt lat="46.08546355245327" lon="8.921730211922892"><ele>403.5</ele><time>2026-04-11T07:18:38.001Z</time></trkpt><trkpt lat="46.0857209636371" lon="8.921818490241547"><ele>403.0</ele><time>2026-04-11T07:18:39.001Z</time></trkpt><trkpt lat="46.08597996398535" lon="8.92190636895432"><ele>403.0</ele><time>2026-04-11T07:18:40.001Z</time></trkpt><trkpt lat="46.086239779326576" lon="8.921994736932492"><ele>403.0</ele><time>2026-04-11T07:18:41.001Z</time></trkpt><trkpt lat="46.08649850245375" lon="8.922084109539414"><ele>403.0</ele><time>2026-04-11T07:18:42.001Z</time></trkpt><trkpt lat="46.08675774996741" lon="8.922177003476842"><ele>403.0</ele><time>2026-04-11T07:18:43.001Z</time></trkpt><trkpt lat="46.08701629853087" lon="8.922274697250026"><ele>403.0</ele><time>2026-04-11T07:18:44.001Z</time></trkpt><trkpt lat="46.08727521241038" lon="8.922374509302822"><ele>403.0</ele><time>2026-04-11T07:18:45.001Z</time></trkpt><trkpt lat="46.0875335684832" lon="8.922476967283595"><ele>407.0</ele><time>2026-04-11T07:18:46.001Z</time></trkpt><trkpt lat="46.08778914486303" lon="8.922583312762512"><ele>411.0</ele><time>2026-04-11T07:18:47.001Z</time></trkpt><trkpt lat="46.088044249037885" lon="8.922691257322857"><ele>409.5</ele><time>2026-04-11T07:18:48.001Z</time></trkpt><trkpt lat="46.08829812417536" lon="8.92280118640861"><ele>408.0</ele><time>2026-04-11T07:18:49.001Z</time></trkpt><trkpt lat="46.088551846892734" lon="8.92291533788504"><ele>408.0</ele><time>2026-04-11T07:18:50.001Z</time></trkpt><trkpt lat="46.088804624426714" lon="8.923032208396009"><ele>408.0</ele><time>2026-04-11T07:18:51.001Z</time></trkpt><trkpt lat="46.089058027712525" lon="8.923151990267929"><ele>407.0</ele><time>2026-04-11T07:18:52.001Z</time></trkpt><trkpt lat="46.08931029988304" lon="8.923273617289293"><ele>406.0</ele><time>2026-04-11T07:18:53.001Z</time></trkpt><trkpt lat="46.089561680653546" lon="8.923398383950172"><ele>406.0</ele><time>2026-04-11T07:18:54.001Z</time></trkpt><trkpt lat="46.08981334348321" lon="8.92352305340024"><ele>406.0</ele><time>2026-04-11T07:18:55.001Z</time></trkpt><trkpt lat="46.090065986628254" lon="8.92364586415919"><ele>407.5</ele><time>2026-04-11T07:18:56.001Z</time></trkpt><trkpt lat="46.09031766051381" lon="8.92377381856775"><ele>409.0</ele><time>2026-04-11T07:18:57.001Z</time></trkpt><trkpt lat="46.09056527571723" lon="8.92390863220211"><ele>411.0</ele><time>2026-04-11T07:18:58Z</time></trkpt><trkpt lat="46.09081298375454" lon="8.924047171446308"><ele>413.0</ele><time>2026-04-11T07:18:59Z</time></trkpt><trkpt lat="46.09106082922368" lon="8.924186118789796"><ele>413.0</ele><time>2026-04-11T07:19:00Z</time></trkpt><trkpt lat="46.09130795776407" lon="8.924325682506655"><ele>413.0</ele><time>2026-04-11T07:19:01Z</time></trkpt><trkpt lat="46.091554411921116" lon="8.924467772661657"><ele>411.5</ele><time>2026-04-11T07:19:02Z</time></trkpt><trkpt lat="46.09180025723826" lon="8.924613734459998"><ele>410.0</ele><time>2026-04-11T07:19:03Z</time></trkpt><trkpt lat="46.09204409830571" lon="8.924762963306202"><ele>410.0</ele><time>2026-04-11T07:19:04Z</time></trkpt><trkpt lat="46.0922889819235" lon="8.924912677723173"><ele>410.0</ele><time>2026-04-11T07:19:05Z</time></trkpt><trkpt lat="46.09253281298351" lon="8.92506443588764"><ele>412.5</ele><time>2026-04-11T07:19:06Z</time></trkpt><trkpt lat="46.092774624398984" lon="8.925222046569152"><ele>415.0</ele><time>2026-04-11T07:19:07Z</time></trkpt><trkpt lat="46.093016265019585" lon="8.92538293088974"><ele>414.5</ele><time>2026-04-11T07:19:08Z</time></trkpt><trkpt lat="46.09325773567687" lon="8.925546508484095"><ele>414.0</ele><time>2026-04-11T07:19:09Z</time></trkpt><trkpt lat="46.09349827248874" lon="8.92570934528484"><ele>414.0</ele><time>2026-04-11T07:19:10Z</time></trkpt><trkpt lat="46.093738604413915" lon="8.925873756847663"><ele>414.0</ele><time>2026-04-11T07:19:11Z</time></trkpt><trkpt lat="46.093978468799904" lon="8.926040073852159"><ele>414.5</ele><time>2026-04-11T07:19:12Z</time></trkpt><trkpt lat="46.0942163680904" lon="8.926212382190771"><ele>415.0</ele><time>2026-04-11T07:19:13Z</time></trkpt><trkpt lat="46.09445319448471" lon="8.926387372726998"><ele>415.0</ele><time>2026-04-11T07:19:14Z</time></trkpt><trkpt lat="46.09469057184999" lon="8.926562931633265"><ele>415.0</ele><time>2026-04-11T07:19:15Z</time></trkpt><trkpt lat="46.09492571660993" lon="8.92673815862059"><ele>417.5</ele><time>2026-04-11T07:19:16Z</time></trkpt><trkpt lat="46.095160264921255" lon="8.926918699613132"><ele>420.0</ele><time>2026-04-11T07:19:17Z</time></trkpt><trkpt lat="46.09539461752035" lon="8.927098445357624"><ele>420.0</ele><time>2026-04-11T07:19:18Z</time></trkpt><trkpt lat="46.09562922564521" lon="8.927278844336042"><ele>420.0</ele><time>2026-04-11T07:19:19Z</time></trkpt><trkpt lat="46.09586418326397" lon="8.927459772285214"><ele>420.0</ele><time>2026-04-11T07:19:20Z</time></trkpt><trkpt lat="46.09609875165456" lon="8.927640037576893"><ele>420.0</ele><time>2026-04-11T07:19:21Z</time></trkpt><trkpt lat="46.09633399396483" lon="8.927818263414354"><ele>420.0</ele><time>2026-04-11T07:19:22Z</time></trkpt><trkpt lat="46.09657010869235" lon="8.927993085920484"><ele>420.0</ele><time>2026-04-11T07:19:23Z</time></trkpt><trkpt lat="46.09680580805954" lon="8.928166451429396"><ele>420.0</ele><time>2026-04-11T07:19:24Z</time></trkpt><trkpt lat="46.097042143167215" lon="8.92834108889699"><ele>420.0</ele><time>2026-04-11T07:19:25Z</time></trkpt><trkpt lat="46.0972800105386" lon="8.92851431303266"><ele>421.0</ele><time>2026-04-11T07:19:26Z</time></trkpt><trkpt lat="46.09751893078837" lon="8.928686022432416"><ele>422.0</ele><time>2026-04-11T07:19:27Z</time></trkpt><trkpt lat="46.09775769465645" lon="8.928854290778213"><ele>422.0</ele><time>2026-04-11T07:19:28Z</time></trkpt><trkpt lat="46.097996221940136" lon="8.929023328864314"><ele>422.0</ele><time>2026-04-11T07:19:29Z</time></trkpt><trkpt lat="46.09823678277998" lon="8.929187311096168"><ele>422.0</ele><time>2026-04-11T07:19:30Z</time></trkpt><trkpt lat="46.098478009099125" lon="8.929342725277367"><ele>422.0</ele><time>2026-04-11T07:19:31Z</time></trkpt><trkpt lat="46.09872119834548" lon="8.929495444885287"><ele>422.0</ele><time>2026-04-11T07:19:32Z</time></trkpt><trkpt lat="46.098966693378344" lon="8.929644472672914"><ele>422.0</ele><time>2026-04-11T07:19:33Z</time></trkpt><trkpt lat="46.099213748769444" lon="8.929788852463673"><ele>423.5</ele><time>2026-04-11T07:19:34Z</time></trkpt><trkpt lat="46.0994638685514" lon="8.929923410445321"><ele>425.0</ele><time>2026-04-11T07:19:35Z</time></trkpt><trkpt lat="46.09971610518196" lon="8.930044085979263"><ele>427.5</ele><time>2026-04-11T07:19:36Z</time></trkpt><trkpt lat="46.09996833122763" lon="8.930162972738222"><ele>430.0</ele><time>2026-04-11T07:19:37Z</time></trkpt><trkpt lat="46.10022247355954" lon="8.930280894399305"><ele>430.0</ele><time>2026-04-11T07:19:38Z</time></trkpt><trkpt lat="46.10047834732384" lon="8.930397465989007"><ele>430.0</ele><time>2026-04-11T07:19:39Z</time></trkpt><trkpt lat="46.10073384951914" lon="8.93050799077204"><ele>429.5</ele><time>2026-04-11T07:19:40Z</time></trkpt><trkpt lat="46.10099074200372" lon="8.930612659126783"><ele>429.0</ele><time>2026-04-11T07:19:41Z</time></trkpt><trkpt lat="46.10124769606319" lon="8.93071065453844"><ele>429.0</ele><time>2026-04-11T07:19:42Z</time></trkpt><trkpt lat="46.1015058773119" lon="8.930803854631355"><ele>429.0</ele><time>2026-04-11T07:19:43Z</time></trkpt><trkpt lat="46.101763880883524" lon="8.930891117182586"><ele>428.5</ele><time>2026-04-11T07:19:44Z</time></trkpt><trkpt lat="46.102021781561206" lon="8.930975048408994"><ele>428.0</ele><time>2026-04-11T07:19:45Z</time></trkpt><trkpt lat="46.10228142355725" lon="8.931050199899106"><ele>429.0</ele><time>2026-04-11T07:19:46Z</time></trkpt><trkpt lat="46.10254227278958" lon="8.931118623176959"><ele>430.0</ele><time>2026-04-11T07:19:47Z</time></trkpt><trkpt lat="46.102804131205595" lon="8.931178483872898"><ele>430.0</ele><time>2026-04-11T07:19:48Z</time></trkpt><trkpt lat="46.10306600826677" lon="8.931236009378763"><ele>430.0</ele><time>2026-04-11T07:19:49Z</time></trkpt><trkpt lat="46.103328200256804" lon="8.931288800746131"><ele>432.5</ele><time>2026-04-11T07:19:50Z</time></trkpt><trkpt lat="46.10359271142139" lon="8.93133387283116"><ele>435.0</ele><time>2026-04-11T07:19:51Z</time></trkpt><trkpt lat="46.10385771614198" lon="8.931370881428911"><ele>433.5</ele><time>2026-04-11T07:19:52Z</time></trkpt><trkpt lat="46.10412320761737" lon="8.93140387510332"><ele>432.0</ele><time>2026-04-11T07:19:53Z</time></trkpt><trkpt lat="46.1043900451108" lon="8.931432101771888"><ele>432.0</ele><time>2026-04-11T07:19:54Z</time></trkpt><trkpt lat="46.10465643625094" lon="8.931457346183974"><ele>432.0</ele><time>2026-04-11T07:19:55Z</time></trkpt><trkpt lat="46.10492282520666" lon="8.931476350192883"><ele>434.5</ele><time>2026-04-11T07:19:56Z</time></trkpt><trkpt lat="46.10518688162211" lon="8.931496036334362"><ele>437.0</ele><time>2026-04-11T07:19:57Z</time></trkpt><trkpt lat="46.10545330999502" lon="8.931515205031197"><ele>437.0</ele><time>2026-04-11T07:19:58Z</time></trkpt><trkpt lat="46.10571927046586" lon="8.931523086444061"><ele>437.0</ele><time>2026-04-11T07:19:59Z</time></trkpt><trkpt lat="46.10598328921199" lon="8.931518060885951"><ele>439.5</ele><time>2026-04-11T07:20:00Z</time></trkpt><trkpt lat="46.10624929744029" lon="8.93150336959769"><ele>442.0</ele><time>2026-04-11T07:20:01Z</time></trkpt><trkpt lat="46.10651368255743" lon="8.931481377923756"><ele>442.5</ele><time>2026-04-11T07:20:02Z</time></trkpt><trkpt lat="46.106778900244755" lon="8.93145325190562"><ele>443.0</ele><time>2026-04-11T07:20:03Z</time></trkpt><trkpt lat="46.107044068023285" lon="8.931420250756021"><ele>443.0</ele><time>2026-04-11T07:20:04Z</time></trkpt><trkpt lat="46.107308421278695" lon="8.93138286131713"><ele>443.0</ele><time>2026-04-11T07:20:05Z</time></trkpt><trkpt lat="46.10757202518599" lon="8.93133649809239"><ele>442.5</ele><time>2026-04-11T07:20:06Z</time></trkpt><trkpt lat="46.1078359082118" lon="8.931282224405019"><ele>442.0</ele><time>2026-04-11T07:20:07Z</time></trkpt><trkpt lat="46.10809775680898" lon="8.93122720857971"><ele>442.0</ele><time>2026-04-11T07:20:08Z</time></trkpt><trkpt lat="46.10836046715359" lon="8.93116554132435"><ele>442.0</ele><time>2026-04-11T07:20:09Z</time></trkpt><trkpt lat="46.10862185894455" lon="8.931098318065763"><ele>442.0</ele><time>2026-04-11T07:20:10Z</time></trkpt><trkpt lat="46.108882361102026" lon="8.931023714924056"><ele>442.0</ele><time>2026-04-11T07:20:11Z</time></trkpt><trkpt lat="46.10914334078114" lon="8.930943370636209"><ele>443.5</ele><time>2026-04-11T07:20:12Z</time></trkpt><trkpt lat="46.10940356867163" lon="8.930859717607644"><ele>445.0</ele><time>2026-04-11T07:20:13Z</time></trkpt><trkpt lat="46.10966201021094" lon="8.930770624467113"><ele>445.0</ele><time>2026-04-11T07:20:14Z</time></trkpt><trkpt lat="46.10991948742596" lon="8.930675730591128"><ele>445.0</ele><time>2026-04-11T07:20:15Z</time></trkpt><trkpt lat="46.110175003252905" lon="8.93057129088942"><ele>445.0</ele><time>2026-04-11T07:20:16Z</time></trkpt><trkpt lat="46.11042909941137" lon="8.93046265232274"><ele>445.0</ele><time>2026-04-11T07:20:17Z</time></trkpt><trkpt lat="46.110680946129804" lon="8.930345805158158"><ele>443.5</ele><time>2026-04-11T07:20:18Z</time></trkpt><trkpt lat="46.11093223286404" lon="8.93022299506851"><ele>442.0</ele><time>2026-04-11T07:20:19Z</time></trkpt><trkpt lat="46.11118259319435" lon="8.930099920337657"><ele>443.5</ele><time>2026-04-11T07:20:20Z</time></trkpt><trkpt lat="46.111430678754786" lon="8.929969481351199"><ele>445.0</ele><time>2026-04-11T07:20:21Z</time></trkpt><trkpt lat="46.11167746689761" lon="8.9298303610317"><ele>447.0</ele><time>2026-04-11T07:20:22Z</time></trkpt><trkpt lat="46.11192312881953" lon="8.929686558729104"><ele>449.0</ele><time>2026-04-11T07:20:23Z</time></trkpt><trkpt lat="46.11216746852286" lon="8.929537291710842"><ele>448.5</ele><time>2026-04-11T07:20:24Z</time></trkpt><trkpt lat="46.1124105886591" lon="8.929383636133748"><ele>448.0</ele><time>2026-04-11T07:20:25Z</time></trkpt><trkpt lat="46.11265416841749" lon="8.929227712179959"><ele>450.0</ele><time>2026-04-11T07:20:26Z</time></trkpt><trkpt lat="46.11289622541377" lon="8.929069300359327"><ele>452.0</ele><time>2026-04-11T07:20:27Z</time></trkpt><trkpt lat="46.11313612903375" lon="8.928905425780806"><ele>452.5</ele><time>2026-04-11T07:20:28Z</time></trkpt><trkpt lat="46.11337628111984" lon="8.92874227290233"><ele>453.0</ele><time>2026-04-11T07:20:29Z</time></trkpt><trkpt lat="46.1136159943066" lon="8.928580931847142"><ele>453.0</ele><time>2026-04-11T07:20:30Z</time></trkpt><trkpt lat="46.11385654047472" lon="8.928420977342608"><ele>453.0</ele><time>2026-04-11T07:20:31Z</time></trkpt><trkpt lat="46.11409835846775" lon="8.928264904561884"><ele>456.0</ele><time>2026-04-11T07:20:32Z</time></trkpt><trkpt lat="46.11434018174733" lon="8.928112518898915"><ele>459.0</ele><time>2026-04-11T07:20:33.001Z</time></trkpt><trkpt lat="46.114584275223415" lon="8.927965301653522"><ele>459.0</ele><time>2026-04-11T07:20:34.001Z</time></trkpt><trkpt lat="46.11482892694409" lon="8.927821594224941"><ele>459.0</ele><time>2026-04-11T07:20:35.001Z</time></trkpt><trkpt lat="46.11507452243099" lon="8.927680550295628"><ele>461.0</ele><time>2026-04-11T07:20:36.001Z</time></trkpt><trkpt lat="46.11532103334656" lon="8.927539410399941"><ele>463.0</ele><time>2026-04-11T07:20:37.001Z</time></trkpt><trkpt lat="46.115569076413614" lon="8.927401064816678"><ele>464.5</ele><time>2026-04-11T07:20:38.001Z</time></trkpt><trkpt lat="46.11581724957227" lon="8.927266619848986"><ele>466.0</ele><time>2026-04-11T07:20:39.001Z</time></trkpt><trkpt lat="46.1160669944956" lon="8.927135859803775"><ele>466.0</ele><time>2026-04-11T07:20:40.001Z</time></trkpt><trkpt lat="46.11631807780793" lon="8.92700616013758"><ele>466.0</ele><time>2026-04-11T07:20:41.001Z</time></trkpt><trkpt lat="46.11656984075812" lon="8.926876298107835"><ele>467.0</ele><time>2026-04-11T07:20:42.001Z</time></trkpt><trkpt lat="46.116820423965365" lon="8.926743469545288"><ele>468.0</ele><time>2026-04-11T07:20:43.001Z</time></trkpt><trkpt lat="46.11707071429809" lon="8.926610394803777"><ele>471.0</ele><time>2026-04-11T07:20:44.001Z</time></trkpt><trkpt lat="46.11732052358148" lon="8.926483188076373"><ele>474.0</ele><time>2026-04-11T07:20:45.001Z</time></trkpt><trkpt lat="46.11756971554285" lon="8.926357374813852"><ele>474.5</ele><time>2026-04-11T07:20:46.001Z</time></trkpt><trkpt lat="46.11781772847571" lon="8.926227611208967"><ele>475.0</ele><time>2026-04-11T07:20:47.001Z</time></trkpt><trkpt lat="46.11806331766309" lon="8.926088537854294"><ele>475.0</ele><time>2026-04-11T07:20:48.001Z</time></trkpt><trkpt lat="46.11830681705436" lon="8.92594090336307"><ele>475.0</ele><time>2026-04-11T07:20:49.001Z</time></trkpt><trkpt lat="46.11854910278261" lon="8.925789797356494"><ele>478.0</ele><time>2026-04-11T07:20:50.001Z</time></trkpt><trkpt lat="46.11879053600459" lon="8.925631362841813"><ele>481.0</ele><time>2026-04-11T07:20:51.001Z</time></trkpt><trkpt lat="46.119028706899535" lon="8.92546600614589"><ele>480.0</ele><time>2026-04-11T07:20:52.001Z</time></trkpt><trkpt lat="46.11926486262296" lon="8.925287378885507"><ele>479.0</ele><time>2026-04-11T07:20:53.001Z</time></trkpt><trkpt lat="46.11949827914142" lon="8.925101352305733"><ele>481.5</ele><time>2026-04-11T07:20:54.001Z</time></trkpt><trkpt lat="46.11972771949296" lon="8.924907459942443"><ele>484.0</ele><time>2026-04-11T07:20:55Z</time></trkpt><trkpt lat="46.11995330543772" lon="8.924702715169557"><ele>484.0</ele><time>2026-04-11T07:20:56Z</time></trkpt><trkpt lat="46.12017530227285" lon="8.9244892605466"><ele>484.0</ele><time>2026-04-11T07:20:57Z</time></trkpt><trkpt lat="46.120392647397985" lon="8.924267232621888"><ele>485.5</ele><time>2026-04-11T07:20:58Z</time></trkpt><trkpt lat="46.120605360814565" lon="8.92403628321418"><ele>487.0</ele><time>2026-04-11T07:20:59Z</time></trkpt><trkpt lat="46.1208116049198" lon="8.92379460820167"><ele>487.0</ele><time>2026-04-11T07:21:00Z</time></trkpt><trkpt lat="46.12101395824864" lon="8.92354732597607"><ele>487.0</ele><time>2026-04-11T07:21:01Z</time></trkpt><trkpt lat="46.121216037578826" lon="8.923295405524444"><ele>485.5</ele><time>2026-04-11T07:21:02Z</time></trkpt><trkpt lat="46.121409354745865" lon="8.923031404635797"><ele>484.0</ele><time>2026-04-11T07:21:03Z</time></trkpt><trkpt lat="46.121598943580736" lon="8.922760175891261"><ele>485.0</ele><time>2026-04-11T07:21:04Z</time></trkpt><trkpt lat="46.121786886281285" lon="8.922487877368157"><ele>486.0</ele><time>2026-04-11T07:21:05Z</time></trkpt><trkpt lat="46.121974579430685" lon="8.922214649707211"><ele>486.0</ele><time>2026-04-11T07:21:06Z</time></trkpt><trkpt lat="46.122164449141366" lon="8.921943232256037"><ele>486.0</ele><time>2026-04-11T07:21:07Z</time></trkpt><trkpt lat="46.12235545297488" lon="8.921674319270824"><ele>486.5</ele><time>2026-04-11T07:21:08Z</time></trkpt><trkpt lat="46.1225480401576" lon="8.921405704635053"><ele>487.0</ele><time>2026-04-11T07:21:09Z</time></trkpt><trkpt lat="46.122744146178526" lon="8.921144823062509"><ele>490.5</ele><time>2026-04-11T07:21:10Z</time></trkpt><trkpt lat="46.12294608748742" lon="8.920893331200881"><ele>494.0</ele><time>2026-04-11T07:21:11Z</time></trkpt><trkpt lat="46.123153939429194" lon="8.920652097275667"><ele>489.0</ele><time>2026-04-11T07:21:12Z</time></trkpt><trkpt lat="46.12336823719455" lon="8.92042088924537"><ele>484.0</ele><time>2026-04-11T07:21:13Z</time></trkpt><trkpt lat="46.12358596415101" lon="8.920201506748736"><ele>487.0</ele><time>2026-04-11T07:21:14Z</time></trkpt><trkpt lat="46.123810334845764" lon="8.919994371318786"><ele>490.0</ele><time>2026-04-11T07:21:15Z</time></trkpt><trkpt lat="46.124036156514705" lon="8.9197910193173"><ele>486.5</ele><time>2026-04-11T07:21:16Z</time></trkpt><trkpt lat="46.124265747492025" lon="8.91959592667304"><ele>483.0</ele><time>2026-04-11T07:21:17Z</time></trkpt><trkpt lat="46.124499489550544" lon="8.91941294374949"><ele>483.0</ele><time>2026-04-11T07:21:18Z</time></trkpt><trkpt lat="46.124737781723084" lon="8.919243730943837"><ele>483.0</ele><time>2026-04-11T07:21:19Z</time></trkpt><trkpt lat="46.12497976878236" lon="8.919088932812386"><ele>486.5</ele><time>2026-04-11T07:21:20Z</time></trkpt><trkpt lat="46.12521778736233" lon="8.918950770248241"><ele>490.0</ele><time>2026-04-11T07:21:21Z</time></trkpt><trkpt lat="46.125451427041384" lon="8.918831006289539"><ele>490.0</ele><time>2026-04-11T07:21:22Z</time></trkpt><trkpt lat="46.12568093578028" lon="8.918723343287924"><ele>490.0</ele><time>2026-04-11T07:21:23Z</time></trkpt><trkpt lat="46.125908661117705" lon="8.918626870871186"><ele>485.0</ele><time>2026-04-11T07:21:24Z</time></trkpt><trkpt lat="46.12613944635942" lon="8.918539868638424"><ele>480.0</ele><time>2026-04-11T07:21:25Z</time></trkpt><trkpt lat="46.12637254411489" lon="8.918461115298546"><ele>484.0</ele><time>2026-04-11T07:21:26Z</time></trkpt><trkpt lat="46.12660943778042" lon="8.918390385208859"><ele>488.0</ele><time>2026-04-11T07:21:27Z</time></trkpt><trkpt lat="46.12684806706246" lon="8.918331965693108"><ele>488.0</ele><time>2026-04-11T07:21:28Z</time></trkpt><trkpt lat="46.127089858437856" lon="8.918291624667742"><ele>488.0</ele><time>2026-04-11T07:21:29Z</time></trkpt><trkpt lat="46.12733231261905" lon="8.918259350060374"><ele>486.0</ele><time>2026-04-11T07:21:30Z</time></trkpt><trkpt lat="46.12757505886481" lon="8.91824066331948"><ele>484.0</ele><time>2026-04-11T07:21:31Z</time></trkpt><trkpt lat="46.12781832767075" lon="8.918229571106789"><ele>484.0</ele><time>2026-04-11T07:21:32Z</time></trkpt><trkpt lat="46.128060785437484" lon="8.918227363942938"><ele>484.0</ele><time>2026-04-11T07:21:33Z</time></trkpt><trkpt lat="46.12830395053027" lon="8.918232015316887"><ele>484.0</ele><time>2026-04-11T07:21:34Z</time></trkpt><trkpt lat="46.12854625743084" lon="8.918248328995226"><ele>484.0</ele><time>2026-04-11T07:21:35Z</time></trkpt><trkpt lat="46.128787222259355" lon="8.91827813266896"><ele>484.0</ele><time>2026-04-11T07:21:36Z</time></trkpt><trkpt lat="46.129027594318515" lon="8.918318493054151"><ele>484.0</ele><time>2026-04-11T07:21:37Z</time></trkpt><trkpt lat="46.12926689544239" lon="8.918367451326203"><ele>481.0</ele><time>2026-04-11T07:21:38Z</time></trkpt><trkpt lat="46.12950578206969" lon="8.918425991092157"><ele>478.0</ele><time>2026-04-11T07:21:39Z</time></trkpt><trkpt lat="46.12974460645213" lon="8.918491435395538"><ele>478.0</ele><time>2026-04-11T07:21:40Z</time></trkpt><trkpt lat="46.129980735378076" lon="8.918566831830647"><ele>478.0</ele><time>2026-04-11T07:21:41Z</time></trkpt><trkpt lat="46.130214880595275" lon="8.918651929327156"><ele>478.0</ele><time>2026-04-11T07:21:42Z</time></trkpt><trkpt lat="46.1304479688172" lon="8.918745232488522"><ele>478.0</ele><time>2026-04-11T07:21:43Z</time></trkpt><trkpt lat="46.13068008983823" lon="8.918843811687312"><ele>479.5</ele><time>2026-04-11T07:21:44Z</time></trkpt><trkpt lat="46.13091187052029" lon="8.9189498702016"><ele>481.0</ele><time>2026-04-11T07:21:45Z</time></trkpt><trkpt lat="46.13114007379774" lon="8.919062704101899"><ele>481.0</ele><time>2026-04-11T07:21:46Z</time></trkpt><trkpt lat="46.13136788493904" lon="8.919178940982203"><ele>481.0</ele><time>2026-04-11T07:21:47Z</time></trkpt><trkpt lat="46.13159424832074" lon="8.91929948057579"><ele>480.5</ele><time>2026-04-11T07:21:48Z</time></trkpt><trkpt lat="46.1318209142042" lon="8.91942738605724"><ele>480.0</ele><time>2026-04-11T07:21:49Z</time></trkpt><trkpt lat="46.13204665556936" lon="8.919557083777615"><ele>480.0</ele><time>2026-04-11T07:21:50Z</time></trkpt><trkpt lat="46.132270999567396" lon="8.919686994969174"><ele>480.0</ele><time>2026-04-11T07:21:51Z</time></trkpt><trkpt lat="46.13249640187217" lon="8.919816249082892"><ele>481.5</ele><time>2026-04-11T07:21:52Z</time></trkpt><trkpt lat="46.13272063811212" lon="8.919945206124222"><ele>483.0</ele><time>2026-04-11T07:21:53Z</time></trkpt><trkpt lat="46.13294411056423" lon="8.920075945871535"><ele>489.5</ele><time>2026-04-11T07:21:54Z</time></trkpt><trkpt lat="46.133169318631744" lon="8.920204567039002"><ele>496.0</ele><time>2026-04-11T07:21:55Z</time></trkpt><trkpt lat="46.13339522649476" lon="8.920335928517474"><ele>503.5</ele><time>2026-04-11T07:21:56Z</time></trkpt><trkpt lat="46.13362037427707" lon="8.920465205464897"><ele>511.0</ele><time>2026-04-11T07:21:57Z</time></trkpt><trkpt lat="46.133844277738824" lon="8.920591919913772"><ele>516.5</ele><time>2026-04-11T07:21:58Z</time></trkpt><trkpt lat="46.134066576916176" lon="8.920717166278203"><ele>522.0</ele><time>2026-04-11T07:21:59Z</time></trkpt><trkpt lat="46.13428637855916" lon="8.920839606920843"><ele>535.0</ele><time>2026-04-11T07:22:00Z</time></trkpt><trkpt lat="46.13450646836959" lon="8.920959610696721"><ele>548.0</ele><time>2026-04-11T07:22:01Z</time></trkpt><trkpt lat="46.13472632655184" lon="8.921075242448028"><ele>552.5</ele><time>2026-04-11T07:22:02Z</time></trkpt><trkpt lat="46.13494540628856" lon="8.921188550948726"><ele>557.0</ele><time>2026-04-11T07:22:03Z</time></trkpt><trkpt lat="46.1351630162317" lon="8.921303107534419"><ele>557.0</ele><time>2026-04-11T07:22:04Z</time></trkpt><trkpt lat="46.13537886748119" lon="8.921416096963373"><ele>557.0</ele><time>2026-04-11T07:22:05Z</time></trkpt><trkpt lat="46.13559517280568" lon="8.921528403946418"><ele>565.0</ele><time>2026-04-11T07:22:06Z</time></trkpt><trkpt lat="46.13585064704347" lon="8.921718272959557"><ele>573.0</ele><time>2026-04-11T07:22:07Z</time></trkpt><trkpt lat="46.13606497391346" lon="8.921851261012954"><ele>582.0</ele><time>2026-04-11T07:22:08Z</time></trkpt><trkpt lat="46.13627520380082" lon="8.921987151564617"><ele>591.0</ele><time>2026-04-11T07:22:09Z</time></trkpt><trkpt lat="46.13648311659481" lon="8.922124949916059"><ele>607.0</ele><time>2026-04-11T07:22:10Z</time></trkpt><trkpt lat="46.13669999681676" lon="8.922245535986676"><ele>623.0</ele><time>2026-04-11T07:22:11Z</time></trkpt><trkpt lat="46.13691350811177" lon="8.922376022450415"><ele>623.0</ele><time>2026-04-11T07:22:12Z</time></trkpt><trkpt lat="46.1371289519771" lon="8.92250138415097"><ele>623.0</ele><time>2026-04-11T07:22:13Z</time></trkpt><trkpt lat="46.13734344936997" lon="8.922614532798475"><ele>637.6666666666666</ele><time>2026-04-11T07:22:14Z</time></trkpt><trkpt lat="46.13755124269913" lon="8.922717416101465"><ele>652.3333333333334</ele><time>2026-04-11T07:22:15Z</time></trkpt><trkpt lat="46.13776184257527" lon="8.922835081187213"><ele>667.0</ele><time>2026-04-11T07:22:16Z</time></trkpt><trkpt lat="46.13797231681005" lon="8.922943082083158"><ele>667.0</ele><time>2026-04-11T07:22:17Z</time></trkpt><trkpt lat="46.13817785696698" lon="8.923047203071413"><ele>667.0</ele><time>2026-04-11T07:22:18Z</time></trkpt><trkpt lat="46.13838475637686" lon="8.923152562840308"><ele>667.0</ele><time>2026-04-11T07:22:19Z</time></trkpt><trkpt lat="46.13859470441105" lon="8.923272588909038"><ele>675.6666666666667</ele><time>2026-04-11T07:22:20Z</time></trkpt><trkpt lat="46.13880146086427" lon="8.923387605840265"><ele>684.3333333333334</ele><time>2026-04-11T07:22:21Z</time></trkpt><trkpt lat="46.13900067659423" lon="8.923502748157798"><ele>693.0</ele><time>2026-04-11T07:22:22Z</time></trkpt><trkpt lat="46.13917353759651" lon="8.923612775955101"><ele>696.3333333333334</ele><time>2026-04-11T07:22:23Z</time></trkpt><trkpt lat="46.13931112716087" lon="8.923710549298354"><ele>699.6666666666667</ele><time>2026-04-11T07:22:24Z</time></trkpt><trkpt lat="46.139514701228535" lon="8.923824359680525"><ele>703.0</ele><time>2026-04-11T07:22:25Z</time></trkpt><trkpt lat="46.13972032942757" lon="8.923949946959842"><ele>702.0</ele><time>2026-04-11T07:22:26Z</time></trkpt><trkpt lat="46.13993299120156" lon="8.924082037859042"><ele>701.0</ele><time>2026-04-11T07:22:27Z</time></trkpt><trkpt lat="46.140152951654954" lon="8.924229771248147"><ele>703.0</ele><time>2026-04-11T07:22:28Z</time></trkpt><trkpt lat="46.14030156884307" lon="8.924351332791042"><ele>705.0</ele><time>2026-04-11T07:22:29Z</time></trkpt><trkpt lat="46.140423612059614" lon="8.924468713210276"><ele>707.0</ele><time>2026-04-11T07:22:30Z</time></trkpt><trkpt lat="46.14048069513039" lon="8.924561440358042"><ele>709.0</ele><time>2026-04-11T07:22:31Z</time></trkpt><trkpt lat="46.140722954153624" lon="8.92475482877621"><ele>684.0</ele><time>2026-04-11T07:22:32Z</time></trkpt><trkpt lat="46.14094417593322" lon="8.924963012190384"><ele>659.0</ele><time>2026-04-11T07:22:33Z</time></trkpt><trkpt lat="46.141133550612075" lon="8.925166458364625"><ele>658.0</ele><time>2026-04-11T07:22:34Z</time></trkpt><trkpt lat="46.14127292690281" lon="8.925298693104532"><ele>657.0</ele><time>2026-04-11T07:22:35Z</time></trkpt><trkpt lat="46.141406961883206" lon="8.925441743819427"><ele>656.0</ele><time>2026-04-11T07:22:36Z</time></trkpt><trkpt lat="46.14156098133172" lon="8.92561030588422"><ele>587.0</ele><time>2026-04-11T07:22:37.008Z</time></trkpt><trkpt lat="46.1420816127926" lon="8.926115524938451"><ele>587.0</ele><time>2026-04-11T07:22:40.218Z</time></trkpt><trkpt lat="46.14221811149443" lon="8.926312482157215"><ele>587.0</ele><time>2026-04-11T07:22:41.218Z</time></trkpt><trkpt lat="46.14235079860025" lon="8.926514824099327"><ele>587.0</ele><time>2026-04-11T07:22:42.218Z</time></trkpt><trkpt lat="46.142479655103216" lon="8.926722214653656"><ele>569.6666666666666</ele><time>2026-04-11T07:22:43.218Z</time></trkpt><trkpt lat="46.14260412139709" lon="8.926935313988064"><ele>552.3333333333334</ele><time>2026-04-11T07:22:44.219Z</time></trkpt><trkpt lat="46.142723078454544" lon="8.927154389310596"><ele>535.0</ele><time>2026-04-11T07:22:45.218Z</time></trkpt><trkpt lat="46.142836443362874" lon="8.927379663917154"><ele>479.0</ele><time>2026-04-11T07:22:46.218Z</time></trkpt><trkpt lat="46.14359121338993" lon="8.929789915221791"><ele>479.0</ele><time>2026-04-11T07:22:48Z</time></trkpt><trkpt lat="46.14366076009235" lon="8.930120663887623"><ele>479.0</ele><time>2026-04-11T07:22:49Z</time></trkpt><trkpt lat="46.143703784940094" lon="8.93044537346493"><ele>479.0</ele><time>2026-04-11T07:22:50.001Z</time></trkpt><trkpt lat="46.143770760662235" lon="8.9307900423202"><ele>479.0</ele><time>2026-04-11T07:22:51.001Z</time></trkpt><trkpt lat="46.143815294031064" lon="8.931136433423697"><ele>479.0</ele><time>2026-04-11T07:22:52.001Z</time></trkpt><trkpt lat="46.14383838732625" lon="8.931485630718495"><ele>479.0</ele><time>2026-04-11T07:22:53.001Z</time></trkpt><trkpt lat="46.14394112881032" lon="8.931901533920326"><ele>479.0</ele><time>2026-04-11T07:22:54.001Z</time></trkpt><trkpt lat="46.14395027433468" lon="8.932241786845802"><ele>479.0</ele><time>2026-04-11T07:22:55.001Z</time></trkpt><trkpt lat="46.14395578319429" lon="8.932581981289365"><ele>478.5</ele><time>2026-04-11T07:22:56.001Z</time></trkpt><trkpt lat="46.1439254772199" lon="8.932935904679685"><ele>478.0</ele><time>2026-04-11T07:22:57.001Z</time></trkpt><trkpt lat="46.14389816525505" lon="8.933298470523791"><ele>477.5</ele><time>2026-04-11T07:22:58.001Z</time></trkpt><trkpt lat="46.143883737167805" lon="8.933665764301884"><ele>477.0</ele><time>2026-04-11T07:22:59.001Z</time></trkpt><trkpt lat="46.143876813988655" lon="8.934035022866817"><ele>474.0</ele><time>2026-04-11T07:23:00.001Z</time></trkpt><trkpt lat="46.1438709004093" lon="8.934410037529705"><ele>471.0</ele><time>2026-04-11T07:23:01.001Z</time></trkpt><trkpt lat="46.14386985948024" lon="8.934791325347332"><ele>471.0</ele><time>2026-04-11T07:23:02.001Z</time></trkpt><trkpt lat="46.143873491334645" lon="8.9351816827999"><ele>471.0</ele><time>2026-04-11T07:23:03.001Z</time></trkpt><trkpt lat="46.14387584086429" lon="8.93556769452141"><ele>470.0</ele><time>2026-04-11T07:23:04.001Z</time></trkpt><trkpt lat="46.14387736577637" lon="8.935952026526"><ele>469.0</ele><time>2026-04-11T07:23:05Z</time></trkpt><trkpt lat="46.143881483107954" lon="8.93633792087033"><ele>465.5</ele><time>2026-04-11T07:23:06Z</time></trkpt><trkpt lat="46.14389023950696" lon="8.93672010339243"><ele>462.0</ele><time>2026-04-11T07:23:07Z</time></trkpt><trkpt lat="46.14390605303692" lon="8.937102792842625"><ele>462.0</ele><time>2026-04-11T07:23:08Z</time></trkpt><trkpt lat="46.14392456735393" lon="8.9374871946387"><ele>462.0</ele><time>2026-04-11T07:23:09Z</time></trkpt><trkpt lat="46.14394660451149" lon="8.937869984907705"><ele>462.0</ele><time>2026-04-11T07:23:10Z</time></trkpt><trkpt lat="46.14397291559642" lon="8.938251249939995"><ele>462.0</ele><time>2026-04-11T07:23:11Z</time></trkpt><trkpt lat="46.144002865268405" lon="8.938631388220431"><ele>463.5</ele><time>2026-04-11T07:23:12Z</time></trkpt><trkpt lat="46.144036372449705" lon="8.939010136520439"><ele>465.0</ele><time>2026-04-11T07:23:13Z</time></trkpt><trkpt lat="46.1440742089148" lon="8.939388433042268"><ele>448.5</ele><time>2026-04-11T07:23:14Z</time></trkpt><trkpt lat="46.14411488795219" lon="8.939766072038205"><ele>432.0</ele><time>2026-04-11T07:23:15Z</time></trkpt><trkpt lat="46.144157542784576" lon="8.94014612491006"><ele>432.0</ele><time>2026-04-11T07:23:16Z</time></trkpt><trkpt lat="46.14420356273759" lon="8.94052352418199"><ele>432.0</ele><time>2026-04-11T07:23:17Z</time></trkpt><trkpt lat="46.14425039418657" lon="8.94090042282704"><ele>433.0</ele><time>2026-04-11T07:23:18Z</time></trkpt><trkpt lat="46.14429844379122" lon="8.941275788487076"><ele>434.0</ele><time>2026-04-11T07:23:19Z</time></trkpt><trkpt lat="46.14434625644625" lon="8.941651128784406"><ele>433.5</ele><time>2026-04-11T07:23:20Z</time></trkpt><trkpt lat="46.14439534165081" lon="8.942030033999538"><ele>433.0</ele><time>2026-04-11T07:23:21Z</time></trkpt><trkpt lat="46.14444134305792" lon="8.942408976306135"><ele>435.0</ele><time>2026-04-11T07:23:22Z</time></trkpt><trkpt lat="46.144485297460555" lon="8.942787734145625"><ele>437.0</ele><time>2026-04-11T07:23:23Z</time></trkpt><trkpt lat="46.144523890941336" lon="8.943166999527167"><ele>436.0</ele><time>2026-04-11T07:23:24Z</time></trkpt><trkpt lat="46.144550980513905" lon="8.943547986629293"><ele>435.0</ele><time>2026-04-11T07:23:25Z</time></trkpt><trkpt lat="46.14457012067122" lon="8.943929395106426"><ele>431.5</ele><time>2026-04-11T07:23:26Z</time></trkpt><trkpt lat="46.14457895914388" lon="8.94431317288806"><ele>428.0</ele><time>2026-04-11T07:23:27Z</time></trkpt><trkpt lat="46.14457444522364" lon="8.944696405338535"><ele>424.5</ele><time>2026-04-11T07:23:28Z</time></trkpt><trkpt lat="46.14456154526887" lon="8.94507671096081"><ele>421.0</ele><time>2026-04-11T07:23:29Z</time></trkpt><trkpt lat="46.14454169798478" lon="8.945458468380316"><ele>421.0</ele><time>2026-04-11T07:23:30Z</time></trkpt><trkpt lat="46.14451418205351" lon="8.94583849841497"><ele>421.0</ele><time>2026-04-11T07:23:31Z</time></trkpt><trkpt lat="46.144481005869835" lon="8.94621952965128"><ele>419.5</ele><time>2026-04-11T07:23:32Z</time></trkpt><trkpt lat="46.14444274756317" lon="8.946598665670317"><ele>418.0</ele><time>2026-04-11T07:23:33Z</time></trkpt><trkpt lat="46.14440467528891" lon="8.946977401294337"><ele>415.0</ele><time>2026-04-11T07:23:34Z</time></trkpt><trkpt lat="46.144370816065425" lon="8.947354823883563"><ele>412.0</ele><time>2026-04-11T07:23:35Z</time></trkpt><trkpt lat="46.1443406182689" lon="8.94773679682561"><ele>406.0</ele><time>2026-04-11T07:23:36Z</time></trkpt><trkpt lat="46.14431544815568" lon="8.948119615055663"><ele>400.0</ele><time>2026-04-11T07:23:37Z</time></trkpt><trkpt lat="46.14429820965947" lon="8.948502637927271"><ele>391.5</ele><time>2026-04-11T07:23:38Z</time></trkpt><trkpt lat="46.14429297295898" lon="8.948885128106502"><ele>383.0</ele><time>2026-04-11T07:23:39Z</time></trkpt><trkpt lat="46.14429874203676" lon="8.949267764203183"><ele>382.0</ele><time>2026-04-11T07:23:40Z</time></trkpt><trkpt lat="46.14431678070412" lon="8.949651381319976"><ele>381.0</ele><time>2026-04-11T07:23:41Z</time></trkpt><trkpt lat="46.1443473777211" lon="8.950029781763327"><ele>384.5</ele><time>2026-04-11T07:23:42Z</time></trkpt><trkpt lat="46.144388871892644" lon="8.950408044852129"><ele>388.0</ele><time>2026-04-11T07:23:43Z</time></trkpt><trkpt lat="46.144435471992246" lon="8.950783019947304"><ele>393.5</ele><time>2026-04-11T07:23:44Z</time></trkpt><trkpt lat="46.14448762900259" lon="8.951156228512694"><ele>399.0</ele><time>2026-04-11T07:23:45Z</time></trkpt><trkpt lat="46.14454795379686" lon="8.951526910559126"><ele>409.0</ele><time>2026-04-11T07:23:46Z</time></trkpt><trkpt lat="46.14461755055078" lon="8.951894611366392"><ele>419.0</ele><time>2026-04-11T07:23:47Z</time></trkpt><trkpt lat="46.144697138698305" lon="8.952261436905394"><ele>427.5</ele><time>2026-04-11T07:23:48Z</time></trkpt><trkpt lat="46.14478480006354" lon="8.952626148735547"><ele>436.0</ele><time>2026-04-11T07:23:49Z</time></trkpt><trkpt lat="46.144882873621434" lon="8.9529840478886"><ele>418.5</ele><time>2026-04-11T07:23:50Z</time></trkpt><trkpt lat="46.144989269440444" lon="8.953333954907116"><ele>401.0</ele><time>2026-04-11T07:23:51Z</time></trkpt><trkpt lat="46.145104748080634" lon="8.953677753509504"><ele>401.0</ele><time>2026-04-11T07:23:52Z</time></trkpt><trkpt lat="46.14522926001017" lon="8.95401538100295"><ele>401.0</ele><time>2026-04-11T07:23:53Z</time></trkpt><trkpt lat="46.145364215869314" lon="8.954343228656171"><ele>405.5</ele><time>2026-04-11T07:23:54Z</time></trkpt><trkpt lat="46.14550771950289" lon="8.954666444173691"><ele>410.0</ele><time>2026-04-11T07:23:55Z</time></trkpt><trkpt lat="46.14566066454815" lon="8.954988897688553"><ele>382.5</ele><time>2026-04-11T07:23:56Z</time></trkpt><trkpt lat="46.145816120450675" lon="8.955303119667697"><ele>355.0</ele><time>2026-04-11T07:23:57Z</time></trkpt><trkpt lat="46.145977078804826" lon="8.955602704673211"><ele>357.5</ele><time>2026-04-11T07:23:58Z</time></trkpt><trkpt lat="46.14614527789254" lon="8.9558965857415"><ele>360.0</ele><time>2026-04-11T07:23:59Z</time></trkpt><trkpt lat="46.1463145847104" lon="8.956189370703338"><ele>360.0</ele><time>2026-04-11T07:24:00Z</time></trkpt><trkpt lat="46.1464930901687" lon="8.956472331541125"><ele>360.0</ele><time>2026-04-11T07:24:01Z</time></trkpt><trkpt lat="46.14668471001249" lon="8.95673885248342"><ele>367.0</ele><time>2026-04-11T07:24:02Z</time></trkpt><trkpt lat="46.14688346789221" lon="8.95699404729676"><ele>374.0</ele><time>2026-04-11T07:24:03Z</time></trkpt><trkpt lat="46.14708847577853" lon="8.95723840792279"><ele>374.0</ele><time>2026-04-11T07:24:04Z</time></trkpt><trkpt lat="46.14730022872302" lon="8.95746788484893"><ele>374.0</ele><time>2026-04-11T07:24:05Z</time></trkpt><trkpt lat="46.14751821413621" lon="8.957688937454023"><ele>371.0</ele><time>2026-04-11T07:24:06Z</time></trkpt><trkpt lat="46.147736329283816" lon="8.957910783171664"><ele>368.0</ele><time>2026-04-11T07:24:07Z</time></trkpt><trkpt lat="46.14795183914372" lon="8.95813714276358"><ele>368.0</ele><time>2026-04-11T07:24:08Z</time></trkpt><trkpt lat="46.148166969880286" lon="8.9583637874763"><ele>368.0</ele><time>2026-04-11T07:24:09Z</time></trkpt><trkpt lat="46.14837832416132" lon="8.958597593765557"><ele>364.0</ele><time>2026-04-11T07:24:10Z</time></trkpt><trkpt lat="46.148584166678" lon="8.958840581756492"><ele>360.0</ele><time>2026-04-11T07:24:11Z</time></trkpt><trkpt lat="46.14878379484924" lon="8.95909476630084"><ele>358.0</ele><time>2026-04-11T07:24:12Z</time></trkpt><trkpt lat="46.14897013400852" lon="8.95936741200128"><ele>356.0</ele><time>2026-04-11T07:24:13Z</time></trkpt><trkpt lat="46.14914699868185" lon="8.959650879568786"><ele>356.0</ele><time>2026-04-11T07:24:14Z</time></trkpt><trkpt lat="46.14931068831342" lon="8.959951618571266"><ele>356.0</ele><time>2026-04-11T07:24:15Z</time></trkpt><trkpt lat="46.14946314593212" lon="8.960267536281888"><ele>362.5</ele><time>2026-04-11T07:24:16Z</time></trkpt><trkpt lat="46.149601774508305" lon="8.960598715848757"><ele>369.0</ele><time>2026-04-11T07:24:17Z</time></trkpt><trkpt lat="46.149729275025024" lon="8.960935815358706"><ele>376.0</ele><time>2026-04-11T07:24:18Z</time></trkpt><trkpt lat="46.149848671379196" lon="8.961273420633823"><ele>383.0</ele><time>2026-04-11T07:24:19Z</time></trkpt><trkpt lat="46.14995536941956" lon="8.961624604863728"><ele>362.5</ele><time>2026-04-11T07:24:20Z</time></trkpt><trkpt lat="46.150046629178156" lon="8.961983152094717"><ele>342.0</ele><time>2026-04-11T07:24:21Z</time></trkpt><trkpt lat="46.150124922810036" lon="8.962349475682549"><ele>341.5</ele><time>2026-04-11T07:24:22Z</time></trkpt><trkpt lat="46.150194705829705" lon="8.962718190656044"><ele>341.0</ele><time>2026-04-11T07:24:23Z</time></trkpt><trkpt lat="46.150263125985305" lon="8.963088699066711"><ele>344.5</ele><time>2026-04-11T07:24:24Z</time></trkpt><trkpt lat="46.15032962386323" lon="8.963459927840365"><ele>348.0</ele><time>2026-04-11T07:24:25Z</time></trkpt><trkpt lat="46.15039446706786" lon="8.963832369594732"><ele>353.0</ele><time>2026-04-11T07:24:26Z</time></trkpt><trkpt lat="46.150455217182675" lon="8.964204875076017"><ele>358.0</ele><time>2026-04-11T07:24:27Z</time></trkpt><trkpt lat="46.15051118841003" lon="8.96458040502038"><ele>358.0</ele><time>2026-04-11T07:24:28Z</time></trkpt><trkpt lat="46.15056074977388" lon="8.964957605391586"><ele>358.0</ele><time>2026-04-11T07:24:29Z</time></trkpt><trkpt lat="46.15060569102821" lon="8.965336600679999"><ele>360.5</ele><time>2026-04-11T07:24:30Z</time></trkpt><trkpt lat="46.15064671503416" lon="8.965715635252897"><ele>363.0</ele><time>2026-04-11T07:24:31Z</time></trkpt><trkpt lat="46.15068518140941" lon="8.966095430943154"><ele>339.0</ele><time>2026-04-11T07:24:32Z</time></trkpt><trkpt lat="46.150721202965215" lon="8.966475634748646"><ele>315.0</ele><time>2026-04-11T07:24:33Z</time></trkpt><trkpt lat="46.15075293236796" lon="8.966856893172377"><ele>315.0</ele><time>2026-04-11T07:24:34Z</time></trkpt><trkpt lat="46.15078004800269" lon="8.967238051208822"><ele>315.0</ele><time>2026-04-11T07:24:35Z</time></trkpt><trkpt lat="46.15080507596008" lon="8.967619666521626"><ele>316.0</ele><time>2026-04-11T07:24:36Z</time></trkpt><trkpt lat="46.15082440455497" lon="8.968001941525582"><ele>317.0</ele><time>2026-04-11T07:24:37Z</time></trkpt><trkpt lat="46.15083988657582" lon="8.968384087730358"><ele>317.0</ele><time>2026-04-11T07:24:38Z</time></trkpt><trkpt lat="46.15084855731899" lon="8.96876725589266"><ele>317.0</ele><time>2026-04-11T07:24:39Z</time></trkpt><trkpt lat="46.15084588277651" lon="8.96915162020529"><ele>313.5</ele><time>2026-04-11T07:24:40Z</time></trkpt><trkpt lat="46.15082824058835" lon="8.96953349143766"><ele>310.0</ele><time>2026-04-11T07:24:41Z</time></trkpt><trkpt lat="46.15079962404479" lon="8.969913042171452"><ele>308.0</ele><time>2026-04-11T07:24:42Z</time></trkpt><trkpt lat="46.15076138407781" lon="8.970291221298645"><ele>306.0</ele><time>2026-04-11T07:24:43Z</time></trkpt><trkpt lat="46.15071381213298" lon="8.970666892627822"><ele>325.0</ele><time>2026-04-11T07:24:44Z</time></trkpt><trkpt lat="46.15065701458681" lon="8.971042007396049"><ele>344.0</ele><time>2026-04-11T07:24:45Z</time></trkpt><trkpt lat="46.150592274648346" lon="8.971414269633492"><ele>335.5</ele><time>2026-04-11T07:24:46Z</time></trkpt><trkpt lat="46.150523770135415" lon="8.97178476875873"><ele>327.0</ele><time>2026-04-11T07:24:47Z</time></trkpt><trkpt lat="46.15045306177958" lon="8.972154651751241"><ele>320.0</ele><time>2026-04-11T07:24:48Z</time></trkpt><trkpt lat="46.150386284323766" lon="8.972526752036918"><ele>313.0</ele><time>2026-04-11T07:24:49Z</time></trkpt><trkpt lat="46.150330699445014" lon="8.972900071653926"><ele>313.0</ele><time>2026-04-11T07:24:50Z</time></trkpt><trkpt lat="46.150282772340425" lon="8.973273911685428"><ele>313.0</ele><time>2026-04-11T07:24:51Z</time></trkpt><trkpt lat="46.15024428758589" lon="8.973652406715912"><ele>309.0</ele><time>2026-04-11T07:24:52Z</time></trkpt><trkpt lat="46.150212071783876" lon="8.974032619447275"><ele>305.0</ele><time>2026-04-11T07:24:53Z</time></trkpt><trkpt lat="46.15019224816924" lon="8.974412314304304"><ele>303.5</ele><time>2026-04-11T07:24:54Z</time></trkpt><trkpt lat="46.15018630055409" lon="8.974794066448437"><ele>302.0</ele><time>2026-04-11T07:24:55Z</time></trkpt><trkpt lat="46.1501936888194" lon="8.97517727259201"><ele>306.0</ele><time>2026-04-11T07:24:56Z</time></trkpt><trkpt lat="46.15021411800995" lon="8.975559810311912"><ele>310.0</ele><time>2026-04-11T07:24:57Z</time></trkpt><trkpt lat="46.15024287155281" lon="8.975941445427464"><ele>314.0</ele><time>2026-04-11T07:24:58Z</time></trkpt><trkpt lat="46.15028296096937" lon="8.97632124167422"><ele>318.0</ele><time>2026-04-11T07:24:59Z</time></trkpt><trkpt lat="46.15033798617748" lon="8.976699479901704"><ele>320.0</ele><time>2026-04-11T07:25:00Z</time></trkpt><trkpt lat="46.15040618955691" lon="8.977072622622794"><ele>322.0</ele><time>2026-04-11T07:25:01Z</time></trkpt><trkpt lat="46.150470437033164" lon="8.977438622886357"><ele>326.0</ele><time>2026-04-11T07:25:02Z</time></trkpt><trkpt lat="46.15055264747218" lon="8.977803993171934"><ele>330.0</ele><time>2026-04-11T07:25:03Z</time></trkpt><trkpt lat="46.15064832370896" lon="8.978161980613116"><ele>309.5</ele><time>2026-04-11T07:25:04Z</time></trkpt><trkpt lat="46.1507510967307" lon="8.978512743523911"><ele>289.0</ele><time>2026-04-11T07:25:05Z</time></trkpt><trkpt lat="46.150865699671044" lon="8.97885897055913"><ele>293.5</ele><time>2026-04-11T07:25:06Z</time></trkpt><trkpt lat="46.15098979528375" lon="8.97919679536623"><ele>298.0</ele><time>2026-04-11T07:25:07Z</time></trkpt><trkpt lat="46.15112620757929" lon="8.979524859228135"><ele>298.0</ele><time>2026-04-11T07:25:08Z</time></trkpt><trkpt lat="46.15127037160643" lon="8.979844971536245"><ele>298.0</ele><time>2026-04-11T07:25:09Z</time></trkpt><trkpt lat="46.15142091471442" lon="8.98015729137096"><ele>288.0</ele><time>2026-04-11T07:25:10Z</time></trkpt><trkpt lat="46.151582504791115" lon="8.98045493338263"><ele>278.0</ele><time>2026-04-11T07:25:11Z</time></trkpt><trkpt lat="46.1517542388838" lon="8.980755983081528"><ele>283.5</ele><time>2026-04-11T07:25:12Z</time></trkpt><trkpt lat="46.15193394904391" lon="8.981040714828614"><ele>289.0</ele><time>2026-04-11T07:25:13Z</time></trkpt><trkpt lat="46.1521223469285" lon="8.981312387388153"><ele>289.0</ele><time>2026-04-11T07:25:14Z</time></trkpt><trkpt lat="46.15231662470017" lon="8.981573777282538"><ele>289.0</ele><time>2026-04-11T07:25:15Z</time></trkpt><trkpt lat="46.152515350149656" lon="8.981827752984723"><ele>283.5</ele><time>2026-04-11T07:25:16Z</time></trkpt><trkpt lat="46.15271735249746" lon="8.982077853529093"><ele>278.0</ele><time>2026-04-11T07:25:17Z</time></trkpt><trkpt lat="46.15292132717251" lon="8.982326420071397"><ele>274.0</ele><time>2026-04-11T07:25:18Z</time></trkpt><trkpt lat="46.15312552833107" lon="8.982574773913282"><ele>270.0</ele><time>2026-04-11T07:25:19Z</time></trkpt><trkpt lat="46.15332999533487" lon="8.982821376684088"><ele>270.0</ele><time>2026-04-11T07:25:20Z</time></trkpt><trkpt lat="46.15353412074773" lon="8.983071423270488"><ele>270.0</ele><time>2026-04-11T07:25:21Z</time></trkpt><trkpt lat="46.153735599681674" lon="8.98332161828014"><ele>267.5</ele><time>2026-04-11T07:25:22Z</time></trkpt><trkpt lat="46.15393451108825" lon="8.983576494979392"><ele>265.0</ele><time>2026-04-11T07:25:23Z</time></trkpt><trkpt lat="46.154128056968375" lon="8.983837568992877"><ele>265.0</ele><time>2026-04-11T07:25:24Z</time></trkpt><trkpt lat="46.15432012758456" lon="8.98410482177333"><ele>265.0</ele><time>2026-04-11T07:25:25Z</time></trkpt><trkpt lat="46.15450605156592" lon="8.984376439503626"><ele>271.0</ele><time>2026-04-11T07:25:26Z</time></trkpt><trkpt lat="46.1546917164823" lon="8.98464943591482"><ele>277.0</ele><time>2026-04-11T07:25:27Z</time></trkpt><trkpt lat="46.15487451111694" lon="8.984927551087035"><ele>269.5</ele><time>2026-04-11T07:25:28Z</time></trkpt><trkpt lat="46.15505294048798" lon="8.985211828198052"><ele>262.0</ele><time>2026-04-11T07:25:29Z</time></trkpt><trkpt lat="46.15522707073852" lon="8.985502881667584"><ele>262.0</ele><time>2026-04-11T07:25:30Z</time></trkpt><trkpt lat="46.15539645487693" lon="8.985798356062976"><ele>262.0</ele><time>2026-04-11T07:25:31Z</time></trkpt><trkpt lat="46.155564060644025" lon="8.98610115122952"><ele>264.5</ele><time>2026-04-11T07:25:32Z</time></trkpt><trkpt lat="46.15572653470109" lon="8.98640564357162"><ele>267.0</ele><time>2026-04-11T07:25:33Z</time></trkpt><trkpt lat="46.15588567979586" lon="8.986711078254615"><ele>267.0</ele><time>2026-04-11T07:25:34Z</time></trkpt><trkpt lat="46.15604228389107" lon="8.987019331268263"><ele>267.0</ele><time>2026-04-11T07:25:35Z</time></trkpt><trkpt lat="46.15619704602575" lon="8.987330318778303"><ele>271.5</ele><time>2026-04-11T07:25:36Z</time></trkpt><trkpt lat="46.156353018183786" lon="8.9876443130716"><ele>276.0</ele><time>2026-04-11T07:25:37Z</time></trkpt><trkpt lat="46.1565114710147" lon="8.987949418399596"><ele>259.0</ele><time>2026-04-11T07:25:38Z</time></trkpt><trkpt lat="46.15667782793256" lon="8.988247009327273"><ele>242.0</ele><time>2026-04-11T07:25:39Z</time></trkpt><trkpt lat="46.15684856371553" lon="8.98854218020302"><ele>242.0</ele><time>2026-04-11T07:25:40Z</time></trkpt><trkpt lat="46.15702249282804" lon="8.988830466310215"><ele>242.0</ele><time>2026-04-11T07:25:41Z</time></trkpt><trkpt lat="46.15720705585137" lon="8.989103622386976"><ele>236.0</ele><time>2026-04-11T07:25:42Z</time></trkpt><trkpt lat="46.15740173410371" lon="8.989361653870137"><ele>230.0</ele><time>2026-04-11T07:25:43Z</time></trkpt><trkpt lat="46.15760552750767" lon="8.989605332302258"><ele>230.0</ele><time>2026-04-11T07:25:44Z</time></trkpt><trkpt lat="46.15781769187876" lon="8.989834708844525"><ele>230.0</ele><time>2026-04-11T07:25:45Z</time></trkpt><trkpt lat="46.15803844081344" lon="8.990048278923988"><ele>228.5</ele><time>2026-04-11T07:25:46Z</time></trkpt><trkpt lat="46.158265901319595" lon="8.990245984510155"><ele>227.0</ele><time>2026-04-11T07:25:47Z</time></trkpt><trkpt lat="46.15849767363231" lon="8.99043148854396"><ele>227.0</ele><time>2026-04-11T07:25:48Z</time></trkpt><trkpt lat="46.15873519350898" lon="8.99060697675444"><ele>227.0</ele><time>2026-04-11T07:25:49Z</time></trkpt><trkpt lat="46.15897678143031" lon="8.990767217199839"><ele>224.0</ele><time>2026-04-11T07:25:50Z</time></trkpt><trkpt lat="46.159222912415615" lon="8.990904652522007"><ele>221.0</ele><time>2026-04-11T07:25:51Z</time></trkpt><trkpt lat="46.159475192588" lon="8.991018756978704"><ele>221.0</ele><time>2026-04-11T07:25:52Z</time></trkpt><trkpt lat="46.15973220881265" lon="8.991109035749155"><ele>221.0</ele><time>2026-04-11T07:25:53Z</time></trkpt><trkpt lat="46.15999348396616" lon="8.99117992785373"><ele>220.5</ele><time>2026-04-11T07:25:54Z</time></trkpt><trkpt lat="46.16025748891639" lon="8.991227506468881"><ele>220.0</ele><time>2026-04-11T07:25:55Z</time></trkpt><trkpt lat="46.160522072220324" lon="8.991264913566205"><ele>219.0</ele><time>2026-04-11T07:25:56Z</time></trkpt><trkpt lat="46.160787848461744" lon="8.991282313854672"><ele>218.0</ele><time>2026-04-11T07:25:57Z</time></trkpt><trkpt lat="46.16105361572686" lon="8.991281663811648"><ele>218.0</ele><time>2026-04-11T07:25:58Z</time></trkpt><trkpt lat="46.16131841417485" lon="8.991266800663135"><ele>218.0</ele><time>2026-04-11T07:25:59Z</time></trkpt><trkpt lat="46.16158313313822" lon="8.991238675813364"><ele>218.0</ele><time>2026-04-11T07:26:00Z</time></trkpt><trkpt lat="46.16184775125668" lon="8.991194214512912"><ele>218.0</ele><time>2026-04-11T07:26:01Z</time></trkpt><trkpt lat="46.16211108169161" lon="8.991140346547773"><ele>217.5</ele><time>2026-04-11T07:26:02Z</time></trkpt><trkpt lat="46.162374945213664" lon="8.991086621302085"><ele>217.0</ele><time>2026-04-11T07:26:03Z</time></trkpt><trkpt lat="46.16263802427837" lon="8.991030432976611"><ele>217.0</ele><time>2026-04-11T07:26:04Z</time></trkpt><trkpt lat="46.16290085798698" lon="8.990972700486454"><ele>217.0</ele><time>2026-04-11T07:26:05Z</time></trkpt><trkpt lat="46.163162738005056" lon="8.990917994711266"><ele>218.5</ele><time>2026-04-11T07:26:06Z</time></trkpt><trkpt lat="46.16342435781475" lon="8.990867621631907"><ele>220.0</ele><time>2026-04-11T07:26:07Z</time></trkpt><trkpt lat="46.16368611330021" lon="8.990811451040761"><ele>220.0</ele><time>2026-04-11T07:26:08Z</time></trkpt><trkpt lat="46.16394866263424" lon="8.990754657072026"><ele>220.0</ele><time>2026-04-11T07:26:09Z</time></trkpt><trkpt lat="46.164212257697635" lon="8.990711105568435"><ele>220.0</ele><time>2026-04-11T07:26:10Z</time></trkpt><trkpt lat="46.16447613351982" lon="8.990672510535704"><ele>220.0</ele><time>2026-04-11T07:26:11Z</time></trkpt><trkpt lat="46.1647417733673" lon="8.99063529627697"><ele>220.0</ele><time>2026-04-11T07:26:12Z</time></trkpt><trkpt lat="46.16500784432802" lon="8.990606483762157"><ele>220.0</ele><time>2026-04-11T07:26:13Z</time></trkpt><trkpt lat="46.165274024172824" lon="8.990584033379735"><ele>220.0</ele><time>2026-04-11T07:26:14Z</time></trkpt><trkpt lat="46.16554069130999" lon="8.990569147899505"><ele>220.0</ele><time>2026-04-11T07:26:15Z</time></trkpt><trkpt lat="46.16580759553128" lon="8.990558685744821"><ele>220.0</ele><time>2026-04-11T07:26:16Z</time></trkpt><trkpt lat="46.16607362388379" lon="8.99055065066641"><ele>220.0</ele><time>2026-04-11T07:26:17Z</time></trkpt><trkpt lat="46.16633827275615" lon="8.990548669843102"><ele>220.5</ele><time>2026-04-11T07:26:18Z</time></trkpt><trkpt lat="46.1665991564069" lon="8.990555369069476"><ele>221.0</ele><time>2026-04-11T07:26:19Z</time></trkpt><trkpt lat="46.16686115014722" lon="8.990571012754154"><ele>221.0</ele><time>2026-04-11T07:26:20Z</time></trkpt><trkpt lat="46.16712541425694" lon="8.99059106825932"><ele>221.0</ele><time>2026-04-11T07:26:21Z</time></trkpt><trkpt lat="46.16739075302557" lon="8.990609855400441"><ele>219.5</ele><time>2026-04-11T07:26:22Z</time></trkpt><trkpt lat="46.16765668250223" lon="8.99064101307757"><ele>218.0</ele><time>2026-04-11T07:26:23Z</time></trkpt><trkpt lat="46.16792123407954" lon="8.990680693186507"><ele>218.0</ele><time>2026-04-11T07:26:24Z</time></trkpt><trkpt lat="46.168185594668834" lon="8.990731238009579"><ele>218.0</ele><time>2026-04-11T07:26:25Z</time></trkpt><trkpt lat="46.16844930775616" lon="8.990787465211712"><ele>219.0</ele><time>2026-04-11T07:26:26Z</time></trkpt><trkpt lat="46.16871425785575" lon="8.99084489033585"><ele>220.0</ele><time>2026-04-11T07:26:27Z</time></trkpt><trkpt lat="46.168979662999384" lon="8.990907809120053"><ele>219.0</ele><time>2026-04-11T07:26:28Z</time></trkpt><trkpt lat="46.169243095660605" lon="8.990977447532966"><ele>218.0</ele><time>2026-04-11T07:26:29Z</time></trkpt><trkpt lat="46.16950437190406" lon="8.991053877776114"><ele>218.0</ele><time>2026-04-11T07:26:30Z</time></trkpt><trkpt lat="46.169764770686875" lon="8.991131478256317"><ele>218.0</ele><time>2026-04-11T07:26:31Z</time></trkpt><trkpt lat="46.17002503348801" lon="8.99121236769773"><ele>219.0</ele><time>2026-04-11T07:26:32Z</time></trkpt><trkpt lat="46.170285671107834" lon="8.99129567766944"><ele>220.0</ele><time>2026-04-11T07:26:33Z</time></trkpt><trkpt lat="46.17054577457368" lon="8.991384005673199"><ele>220.0</ele><time>2026-04-11T07:26:34Z</time></trkpt><trkpt lat="46.170804676476735" lon="8.991480690780827"><ele>220.0</ele><time>2026-04-11T07:26:35Z</time></trkpt><trkpt lat="46.17106103604956" lon="8.991586376189872"><ele>221.0</ele><time>2026-04-11T07:26:36Z</time></trkpt><trkpt lat="46.17131463175279" lon="8.991700183440766"><ele>222.0</ele><time>2026-04-11T07:26:37Z</time></trkpt><trkpt lat="46.17156654796702" lon="8.991815784768685"><ele>220.0</ele><time>2026-04-11T07:26:38Z</time></trkpt><trkpt lat="46.17182003576876" lon="8.991937107184247"><ele>218.0</ele><time>2026-04-11T07:26:39Z</time></trkpt><trkpt lat="46.17207178543011" lon="8.992063800987504"><ele>218.0</ele><time>2026-04-11T07:26:40Z</time></trkpt><trkpt lat="46.17232101573355" lon="8.992194781387232"><ele>218.0</ele><time>2026-04-11T07:26:41Z</time></trkpt><trkpt lat="46.172567857807984" lon="8.992329450633944"><ele>217.5</ele><time>2026-04-11T07:26:42Z</time></trkpt><trkpt lat="46.17281375283574" lon="8.992470336233868"><ele>217.0</ele><time>2026-04-11T07:26:43Z</time></trkpt><trkpt lat="46.173058820552185" lon="8.992618765842694"><ele>218.5</ele><time>2026-04-11T07:26:44Z</time></trkpt><trkpt lat="46.17330225271426" lon="8.992774679698579"><ele>220.0</ele><time>2026-04-11T07:26:45Z</time></trkpt><trkpt lat="46.1735454504596" lon="8.992932114646765"><ele>220.0</ele><time>2026-04-11T07:26:46Z</time></trkpt><trkpt lat="46.17378714595605" lon="8.993094160603489"><ele>220.0</ele><time>2026-04-11T07:26:47Z</time></trkpt><trkpt lat="46.174026840874376" lon="8.993260699427116"><ele>219.5</ele><time>2026-04-11T07:26:48Z</time></trkpt><trkpt lat="46.17426370076443" lon="8.993433643053718"><ele>219.0</ele><time>2026-04-11T07:26:49Z</time></trkpt><trkpt lat="46.17449743817947" lon="8.993612846032956"><ele>219.0</ele><time>2026-04-11T07:26:50Z</time></trkpt><trkpt lat="46.17473117106156" lon="8.993798269384019"><ele>219.0</ele><time>2026-04-11T07:26:51Z</time></trkpt><trkpt lat="46.17496204748342" lon="8.993988953118924"><ele>219.0</ele><time>2026-04-11T07:26:52Z</time></trkpt><trkpt lat="46.17518822368205" lon="8.994187708940336"><ele>219.0</ele><time>2026-04-11T07:26:53Z</time></trkpt><trkpt lat="46.17541353112876" lon="8.994389214000723"><ele>219.0</ele><time>2026-04-11T07:26:54Z</time></trkpt><trkpt lat="46.17563807152909" lon="8.99459347029731"><ele>219.0</ele><time>2026-04-11T07:26:55Z</time></trkpt><trkpt lat="46.17586114939693" lon="8.994800680029243"><ele>220.0</ele><time>2026-04-11T07:26:56Z</time></trkpt><trkpt lat="46.17608423857369" lon="8.995009678994649"><ele>221.0</ele><time>2026-04-11T07:26:57Z</time></trkpt><trkpt lat="46.176304670935885" lon="8.995222169456754"><ele>222.5</ele><time>2026-04-11T07:26:58Z</time></trkpt><trkpt lat="46.17652442249876" lon="8.995440343212117"><ele>224.0</ele><time>2026-04-11T07:26:59Z</time></trkpt><trkpt lat="46.17674284459556" lon="8.995662432666803"><ele>223.5</ele><time>2026-04-11T07:27:00Z</time></trkpt><trkpt lat="46.17696443363892" lon="8.995891783705122"><ele>223.0</ele><time>2026-04-11T07:27:01Z</time></trkpt><trkpt lat="46.17718079174322" lon="8.996117778758942"><ele>224.5</ele><time>2026-04-11T07:27:02Z</time></trkpt><trkpt lat="46.177394577712086" lon="8.996342291919492"><ele>226.0</ele><time>2026-04-11T07:27:03Z</time></trkpt><trkpt lat="46.17760993500551" lon="8.996569627780627"><ele>224.0</ele><time>2026-04-11T07:27:04Z</time></trkpt><trkpt lat="46.17782483067031" lon="8.996796928866313"><ele>222.0</ele><time>2026-04-11T07:27:05Z</time></trkpt><trkpt lat="46.17803890346689" lon="8.997024376925802"><ele>222.5</ele><time>2026-04-11T07:27:06Z</time></trkpt><trkpt lat="46.17825314797447" lon="8.997251242523495"><ele>223.0</ele><time>2026-04-11T07:27:07Z</time></trkpt><trkpt lat="46.17846636717517" lon="8.997480128987812"><ele>221.0</ele><time>2026-04-11T07:27:08Z</time></trkpt><trkpt lat="46.178681192332505" lon="8.997708121663239"><ele>219.0</ele><time>2026-04-11T07:27:09Z</time></trkpt><trkpt lat="46.17889486627148" lon="8.997933478610603"><ele>220.0</ele><time>2026-04-11T07:27:10Z</time></trkpt><trkpt lat="46.179110908988406" lon="8.99815714632754"><ele>221.0</ele><time>2026-04-11T07:27:11Z</time></trkpt><trkpt lat="46.1793271591844" lon="8.998382255051355"><ele>221.0</ele><time>2026-04-11T07:27:12Z</time></trkpt><trkpt lat="46.179542091684816" lon="8.99860720074257"><ele>221.0</ele><time>2026-04-11T07:27:13Z</time></trkpt><trkpt lat="46.17975672643693" lon="8.998830727906448"><ele>221.0</ele><time>2026-04-11T07:27:14Z</time></trkpt><trkpt lat="46.179972211399594" lon="8.999052617006404"><ele>221.0</ele><time>2026-04-11T07:27:15Z</time></trkpt><trkpt lat="46.180188873613275" lon="8.999273013825874"><ele>221.0</ele><time>2026-04-11T07:27:16Z</time></trkpt><trkpt lat="46.18040696771707" lon="8.999490086585045"><ele>221.0</ele><time>2026-04-11T07:27:17Z</time></trkpt><trkpt lat="46.18062583447964" lon="8.999705389004394"><ele>223.0</ele><time>2026-04-11T07:27:18Z</time></trkpt><trkpt lat="46.18084388740137" lon="8.999922393997052"><ele>225.0</ele><time>2026-04-11T07:27:19Z</time></trkpt><trkpt lat="46.18106091581222" lon="9.00014105969396"><ele>225.0</ele><time>2026-04-11T07:27:20Z</time></trkpt><trkpt lat="46.18128310493933" lon="9.000350706461798"><ele>225.0</ele><time>2026-04-11T07:27:21Z</time></trkpt><trkpt lat="46.1815093453996" lon="9.000553604796838"><ele>226.0</ele><time>2026-04-11T07:27:22Z</time></trkpt><trkpt lat="46.18173649468417" lon="9.000756457317724"><ele>227.0</ele><time>2026-04-11T07:27:23Z</time></trkpt><trkpt lat="46.18196405108156" lon="9.000958549651639"><ele>227.0</ele><time>2026-04-11T07:27:24Z</time></trkpt><trkpt lat="46.182192316633504" lon="9.001158840566069"><ele>227.0</ele><time>2026-04-11T07:27:25Z</time></trkpt><trkpt lat="46.18242177791655" lon="9.001355177721877"><ele>227.0</ele><time>2026-04-11T07:27:26Z</time></trkpt><trkpt lat="46.18265336271469" lon="9.001546187992462"><ele>227.0</ele><time>2026-04-11T07:27:27Z</time></trkpt><trkpt lat="46.18288727825488" lon="9.001730313743154"><ele>227.0</ele><time>2026-04-11T07:27:28Z</time></trkpt><trkpt lat="46.18312121066992" lon="9.00191016486603"><ele>227.0</ele><time>2026-04-11T07:27:29Z</time></trkpt><trkpt lat="46.1833547359071" lon="9.002091552709071"><ele>228.0</ele><time>2026-04-11T07:27:30Z</time></trkpt><trkpt lat="46.183589087390594" lon="9.002271669102353"><ele>229.0</ele><time>2026-04-11T07:27:31Z</time></trkpt><trkpt lat="46.18382467052034" lon="9.002448521815966"><ele>229.0</ele><time>2026-04-11T07:27:32Z</time></trkpt><trkpt lat="46.18406386457577" lon="9.002619575396569"><ele>229.0</ele><time>2026-04-11T07:27:33Z</time></trkpt><trkpt lat="46.18430402843563" lon="9.002785327587372"><ele>229.0</ele><time>2026-04-11T07:27:34Z</time></trkpt><trkpt lat="46.18454477808088" lon="9.002950329652878"><ele>229.0</ele><time>2026-04-11T07:27:35Z</time></trkpt><trkpt lat="46.18478591800123" lon="9.003114120124813"><ele>229.0</ele><time>2026-04-11T07:27:36Z</time></trkpt><trkpt lat="46.18502747999345" lon="9.003275650544289"><ele>229.0</ele><time>2026-04-11T07:27:37Z</time></trkpt><trkpt lat="46.185269229725435" lon="9.00343716806799"><ele>228.5</ele><time>2026-04-11T07:27:38Z</time></trkpt><trkpt lat="46.18551155669161" lon="9.003595272532229"><ele>228.0</ele><time>2026-04-11T07:27:39Z</time></trkpt><trkpt lat="46.18575577308126" lon="9.00374997888602"><ele>228.0</ele><time>2026-04-11T07:27:40Z</time></trkpt><trkpt lat="46.18599988003981" lon="9.003901309188016"><ele>228.0</ele><time>2026-04-11T07:27:41Z</time></trkpt><trkpt lat="46.1862452731123" lon="9.004051617483738"><ele>227.0</ele><time>2026-04-11T07:27:42Z</time></trkpt><trkpt lat="46.18649047673384" lon="9.004202170456178"><ele>226.0</ele><time>2026-04-11T07:27:43Z</time></trkpt><trkpt lat="46.186735919412705" lon="9.004353594258529"><ele>226.0</ele><time>2026-04-11T07:27:44Z</time></trkpt><trkpt lat="46.18697989639019" lon="9.004504037397826"><ele>226.0</ele><time>2026-04-11T07:27:45Z</time></trkpt><trkpt lat="46.18722315656365" lon="9.004657907696025"><ele>224.0</ele><time>2026-04-11T07:27:46Z</time></trkpt><trkpt lat="46.18746695903655" lon="9.004812090836541"><ele>222.0</ele><time>2026-04-11T07:27:47Z</time></trkpt><trkpt lat="46.18771086942961" lon="9.004965375059918"><ele>222.5</ele><time>2026-04-11T07:27:48Z</time></trkpt><trkpt lat="46.18795434646668" lon="9.005119535674753"><ele>223.0</ele><time>2026-04-11T07:27:49Z</time></trkpt><trkpt lat="46.18819859461614" lon="9.005274283828408"><ele>223.5</ele><time>2026-04-11T07:27:50Z</time></trkpt><trkpt lat="46.188442578053326" lon="9.005429674334863"><ele>224.0</ele><time>2026-04-11T07:27:51Z</time></trkpt><trkpt lat="46.18868602677145" lon="9.005582634832116"><ele>224.0</ele><time>2026-04-11T07:27:52Z</time></trkpt><trkpt lat="46.188930214067646" lon="9.005734384073305"><ele>224.0</ele><time>2026-04-11T07:27:53Z</time></trkpt><trkpt lat="46.1891740432862" lon="9.00588593277933"><ele>223.5</ele><time>2026-04-11T07:27:54Z</time></trkpt><trkpt lat="46.18941818074838" lon="9.006039148567849"><ele>223.0</ele><time>2026-04-11T07:27:55Z</time></trkpt><trkpt lat="46.18966238763772" lon="9.006192975430766"><ele>224.0</ele><time>2026-04-11T07:27:56Z</time></trkpt><trkpt lat="46.18990671475576" lon="9.00634798757094"><ele>225.0</ele><time>2026-04-11T07:27:57Z</time></trkpt><trkpt lat="46.19014929141781" lon="9.006506644722768"><ele>225.0</ele><time>2026-04-11T07:27:58Z</time></trkpt><trkpt lat="46.190391443502946" lon="9.006665360623648"><ele>225.0</ele><time>2026-04-11T07:27:59Z</time></trkpt><trkpt lat="46.19063352692129" lon="9.006823503967203"><ele>224.0</ele><time>2026-04-11T07:28:00Z</time></trkpt><trkpt lat="46.19087542360984" lon="9.006981352201363"><ele>223.0</ele><time>2026-04-11T07:28:01Z</time></trkpt><trkpt lat="46.19111855182927" lon="9.007137048160411"><ele>223.0</ele><time>2026-04-11T07:28:02Z</time></trkpt><trkpt lat="46.19136123941751" lon="9.0072900083813"><ele>223.0</ele><time>2026-04-11T07:28:03Z</time></trkpt><trkpt lat="46.1916039563072" lon="9.007443843791414"><ele>222.5</ele><time>2026-04-11T07:28:04Z</time></trkpt><trkpt lat="46.19184848396953" lon="9.007601106763405"><ele>222.0</ele><time>2026-04-11T07:28:05Z</time></trkpt><trkpt lat="46.192088922999666" lon="9.007765602681955"><ele>222.0</ele><time>2026-04-11T07:28:06Z</time></trkpt><trkpt lat="46.19233010229727" lon="9.007928488049112"><ele>222.0</ele><time>2026-04-11T07:28:07Z</time></trkpt><trkpt lat="46.19257181262891" lon="9.008086999230212"><ele>222.5</ele><time>2026-04-11T07:28:08Z</time></trkpt><trkpt lat="46.19281291192212" lon="9.008248117632812"><ele>223.0</ele><time>2026-04-11T07:28:09Z</time></trkpt><trkpt lat="46.19305502523684" lon="9.008409286983294"><ele>226.0</ele><time>2026-04-11T07:28:10Z</time></trkpt><trkpt lat="46.193297208837166" lon="9.008569098241248"><ele>229.0</ele><time>2026-04-11T07:28:11Z</time></trkpt><trkpt lat="46.19353926667997" lon="9.008728496610852"><ele>229.0</ele><time>2026-04-11T07:28:12Z</time></trkpt><trkpt lat="46.193781150333585" lon="9.008890123142177"><ele>229.0</ele><time>2026-04-11T07:28:13Z</time></trkpt><trkpt lat="46.19402212900555" lon="9.009053760917972"><ele>227.0</ele><time>2026-04-11T07:28:14Z</time></trkpt><trkpt lat="46.19426205679592" lon="9.009219351809566"><ele>225.0</ele><time>2026-04-11T07:28:15Z</time></trkpt><trkpt lat="46.19450242269876" lon="9.00938454246023"><ele>225.0</ele><time>2026-04-11T07:28:16Z</time></trkpt><trkpt lat="46.19474224881573" lon="9.009548767630356"><ele>225.0</ele><time>2026-04-11T07:28:17Z</time></trkpt><trkpt lat="46.19498300723635" lon="9.009711181606036"><ele>225.0</ele><time>2026-04-11T07:28:18Z</time></trkpt><trkpt lat="46.19522476146214" lon="9.009872285030646"><ele>225.0</ele><time>2026-04-11T07:28:19Z</time></trkpt><trkpt lat="46.19546615025545" lon="9.010033979459198"><ele>223.0</ele><time>2026-04-11T07:28:20Z</time></trkpt><trkpt lat="46.19570803481276" lon="9.0101956945189"><ele>221.0</ele><time>2026-04-11T07:28:21Z</time></trkpt><trkpt lat="46.195948520558716" lon="9.010361132588468"><ele>221.0</ele><time>2026-04-11T07:28:22Z</time></trkpt><trkpt lat="46.19618747131519" lon="9.010530664691908"><ele>221.0</ele><time>2026-04-11T07:28:23Z</time></trkpt><trkpt lat="46.19642540639902" lon="9.01070236093935"><ele>221.5</ele><time>2026-04-11T07:28:24Z</time></trkpt><trkpt lat="46.1966629080599" lon="9.01087541359401"><ele>222.0</ele><time>2026-04-11T07:28:25Z</time></trkpt><trkpt lat="46.19689983509925" lon="9.011048477749327"><ele>222.0</ele><time>2026-04-11T07:28:26Z</time></trkpt><trkpt lat="46.197136422826205" lon="9.011224270927098"><ele>222.0</ele><time>2026-04-11T07:28:27Z</time></trkpt><trkpt lat="46.19737159722048" lon="9.011405022776355"><ele>223.0</ele><time>2026-04-11T07:28:28Z</time></trkpt><trkpt lat="46.19760452223168" lon="9.011589759500758"><ele>224.0</ele><time>2026-04-11T07:28:29Z</time></trkpt><trkpt lat="46.19783612088129" lon="9.01177722529702"><ele>224.0</ele><time>2026-04-11T07:28:30Z</time></trkpt><trkpt lat="46.198067574045425" lon="9.011966922318642"><ele>224.0</ele><time>2026-04-11T07:28:31Z</time></trkpt><trkpt lat="46.19829982763509" lon="9.012158950203533"><ele>225.0</ele><time>2026-04-11T07:28:32Z</time></trkpt><trkpt lat="46.19852786917005" lon="9.012354491717163"><ele>226.0</ele><time>2026-04-11T07:28:33Z</time></trkpt><trkpt lat="46.19875568455795" lon="9.01255200607707"><ele>226.0</ele><time>2026-04-11T07:28:34Z</time></trkpt><trkpt lat="46.198983182869036" lon="9.012747933823869"><ele>226.0</ele><time>2026-04-11T07:28:35Z</time></trkpt><trkpt lat="46.19921035716246" lon="9.012943216887509"><ele>226.0</ele><time>2026-04-11T07:28:36Z</time></trkpt><trkpt lat="46.19943674430105" lon="9.013141855641818"><ele>226.0</ele><time>2026-04-11T07:28:37Z</time></trkpt><trkpt lat="46.199664097934814" lon="9.013339086401066"><ele>227.5</ele><time>2026-04-11T07:28:38Z</time></trkpt><trkpt lat="46.199890960594935" lon="9.013538699978456"><ele>229.0</ele><time>2026-04-11T07:28:39Z</time></trkpt><trkpt lat="46.200116663066446" lon="9.013739979944482"><ele>229.0</ele><time>2026-04-11T07:28:40Z</time></trkpt><trkpt lat="46.20034302909779" lon="9.013942457832584"><ele>229.0</ele><time>2026-04-11T07:28:41Z</time></trkpt><trkpt lat="46.20056903002302" lon="9.014148114189172"><ele>228.5</ele><time>2026-04-11T07:28:42Z</time></trkpt><trkpt lat="46.200795083196184" lon="9.014351630902391"><ele>228.0</ele><time>2026-04-11T07:28:43Z</time></trkpt><trkpt lat="46.201021046980735" lon="9.014555087846782"><ele>228.0</ele><time>2026-04-11T07:28:44Z</time></trkpt><trkpt lat="46.20124724251329" lon="9.0147571428384"><ele>228.0</ele><time>2026-04-11T07:28:45Z</time></trkpt><trkpt lat="46.201471813266586" lon="9.014962506600414"><ele>229.5</ele><time>2026-04-11T07:28:46Z</time></trkpt><trkpt lat="46.201695164910454" lon="9.015168860987647"><ele>231.0</ele><time>2026-04-11T07:28:47Z</time></trkpt><trkpt lat="46.20191873032099" lon="9.015373896963784"><ele>231.0</ele><time>2026-04-11T07:28:48Z</time></trkpt><trkpt lat="46.20214166652697" lon="9.015580173988397"><ele>231.0</ele><time>2026-04-11T07:28:49Z</time></trkpt><trkpt lat="46.20236569285086" lon="9.015787852958585"><ele>231.0</ele><time>2026-04-11T07:28:50Z</time></trkpt><trkpt lat="46.202590216758416" lon="9.015995235364993"><ele>231.0</ele><time>2026-04-11T07:28:51Z</time></trkpt><trkpt lat="46.202815596831805" lon="9.016204260889895"><ele>231.0</ele><time>2026-04-11T07:28:52Z</time></trkpt><trkpt lat="46.20303849975824" lon="9.016413038464883"><ele>231.0</ele><time>2026-04-11T07:28:53Z</time></trkpt><trkpt lat="46.20325823191843" lon="9.016629118442378"><ele>228.0</ele><time>2026-04-11T07:28:54Z</time></trkpt><trkpt lat="46.20347510027756" lon="9.016849924790083"><ele>225.0</ele><time>2026-04-11T07:28:55Z</time></trkpt><trkpt lat="46.20369006945818" lon="9.01707492525334"><ele>225.0</ele><time>2026-04-11T07:28:56Z</time></trkpt><trkpt lat="46.20390146171008" lon="9.017306907623135"><ele>225.0</ele><time>2026-04-11T07:28:57Z</time></trkpt><trkpt lat="46.20410704394108" lon="9.017551864086267"><ele>226.0</ele><time>2026-04-11T07:28:58Z</time></trkpt><trkpt lat="46.20430636573058" lon="9.017805685170382"><ele>227.0</ele><time>2026-04-11T07:28:59Z</time></trkpt><trkpt lat="46.2045001546732" lon="9.018065221466241"><ele>226.0</ele><time>2026-04-11T07:29:00Z</time></trkpt><trkpt lat="46.20469013373217" lon="9.018333414020685"><ele>225.0</ele><time>2026-04-11T07:29:01Z</time></trkpt><trkpt lat="46.20487543079975" lon="9.018611281384379"><ele>227.0</ele><time>2026-04-11T07:29:02Z</time></trkpt><trkpt lat="46.20505664963191" lon="9.018893305914615"><ele>229.0</ele><time>2026-04-11T07:29:03Z</time></trkpt><trkpt lat="46.205232907808636" lon="9.019182606653423"><ele>229.0</ele><time>2026-04-11T07:29:04Z</time></trkpt><trkpt lat="46.205401040007764" lon="9.019480772468357"><ele>229.0</ele><time>2026-04-11T07:29:05Z</time></trkpt><trkpt lat="46.205561954280725" lon="9.019788596735719"><ele>230.5</ele><time>2026-04-11T07:29:06Z</time></trkpt><trkpt lat="46.20571864732581" lon="9.020103385800615"><ele>232.0</ele><time>2026-04-11T07:29:07Z</time></trkpt><trkpt lat="46.205870460051564" lon="9.020417148291557"><ele>232.0</ele><time>2026-04-11T07:29:08Z</time></trkpt><trkpt lat="46.206017746845355" lon="9.020735900993472"><ele>232.0</ele><time>2026-04-11T07:29:09Z</time></trkpt><trkpt lat="46.20615412525294" lon="9.021063694258578"><ele>230.0</ele><time>2026-04-11T07:29:10Z</time></trkpt><trkpt lat="46.20628997734874" lon="9.02139346697408"><ele>228.0</ele><time>2026-04-11T07:29:11Z</time></trkpt><trkpt lat="46.20641721363621" lon="9.021728323075603"><ele>229.5</ele><time>2026-04-11T07:29:12Z</time></trkpt><trkpt lat="46.206543201640386" lon="9.02206473677799"><ele>231.0</ele><time>2026-04-11T07:29:13Z</time></trkpt><trkpt lat="46.206668908057665" lon="9.022402022208524"><ele>230.5</ele><time>2026-04-11T07:29:14Z</time></trkpt><trkpt lat="46.206798778384055" lon="9.022734271425989"><ele>230.0</ele><time>2026-04-11T07:29:15Z</time></trkpt><trkpt lat="46.20693334776491" lon="9.023065441691061"><ele>228.5</ele><time>2026-04-11T07:29:16Z</time></trkpt><trkpt lat="46.207067259913195" lon="9.02339644855956"><ele>227.0</ele><time>2026-04-11T07:29:17Z</time></trkpt><trkpt lat="46.207202457385584" lon="9.023726244185745"><ele>235.0</ele><time>2026-04-11T07:29:18Z</time></trkpt><trkpt lat="46.20733839228012" lon="9.024056516182162"><ele>243.0</ele><time>2026-04-11T07:29:19Z</time></trkpt><trkpt lat="46.20747476644684" lon="9.024386041596681"><ele>243.0</ele><time>2026-04-11T07:29:20Z</time></trkpt><trkpt lat="46.207612696575715" lon="9.024714554476887"><ele>243.0</ele><time>2026-04-11T07:29:21Z</time></trkpt><trkpt lat="46.20775215029047" lon="9.025041148849445"><ele>235.5</ele><time>2026-04-11T07:29:22Z</time></trkpt><trkpt lat="46.20789262430241" lon="9.02536811947893"><ele>228.0</ele><time>2026-04-11T07:29:23Z</time></trkpt><trkpt lat="46.208035400085095" lon="9.025693799492018"><ele>232.0</ele><time>2026-04-11T07:29:24Z</time></trkpt><trkpt lat="46.208179009631884" lon="9.026017195198074"><ele>236.0</ele><time>2026-04-11T07:29:25Z</time></trkpt><trkpt lat="46.20832390861538" lon="9.026338605493082"><ele>233.5</ele><time>2026-04-11T07:29:26Z</time></trkpt><trkpt lat="46.2084675456038" lon="9.026661968093492"><ele>231.0</ele><time>2026-04-11T07:29:27Z</time></trkpt><trkpt lat="46.20860366529556" lon="9.02699122820616"><ele>231.0</ele><time>2026-04-11T07:29:28Z</time></trkpt><trkpt lat="46.20873056192603" lon="9.027327522658764"><ele>231.0</ele><time>2026-04-11T07:29:29Z</time></trkpt><trkpt lat="46.20884916054768" lon="9.027670549734145"><ele>231.0</ele><time>2026-04-11T07:29:30Z</time></trkpt><trkpt lat="46.208962841819336" lon="9.02801650006661"><ele>231.0</ele><time>2026-04-11T07:29:31Z</time></trkpt><trkpt lat="46.209074115113886" lon="9.028365369073002"><ele>231.0</ele><time>2026-04-11T07:29:32Z</time></trkpt><trkpt lat="46.20917870143933" lon="9.028718099171444"><ele>231.0</ele><time>2026-04-11T07:29:33Z</time></trkpt><trkpt lat="46.20927501188218" lon="9.02907431247841"><ele>230.0</ele><time>2026-04-11T07:29:34Z</time></trkpt><trkpt lat="46.209365983104874" lon="9.029433617893133"><ele>229.0</ele><time>2026-04-11T07:29:35Z</time></trkpt><trkpt lat="46.209454179064124" lon="9.029793093839734"><ele>229.5</ele><time>2026-04-11T07:29:36Z</time></trkpt><trkpt lat="46.20953879702305" lon="9.030153451663471"><ele>230.0</ele><time>2026-04-11T07:29:37Z</time></trkpt><trkpt lat="46.20962392536819" lon="9.030514907168241"><ele>230.0</ele><time>2026-04-11T07:29:38Z</time></trkpt><trkpt lat="46.20970734690422" lon="9.030877039861108"><ele>230.0</ele><time>2026-04-11T07:29:39Z</time></trkpt><trkpt lat="46.20979733595545" lon="9.03123667067881"><ele>234.5</ele><time>2026-04-11T07:29:40Z</time></trkpt><trkpt lat="46.20989930455744" lon="9.031590741714929"><ele>239.0</ele><time>2026-04-11T07:29:41Z</time></trkpt><trkpt lat="46.21001182470739" lon="9.031938789909708"><ele>239.0</ele><time>2026-04-11T07:29:42Z</time></trkpt><trkpt lat="46.21013091206497" lon="9.032281580798205"><ele>239.0</ele><time>2026-04-11T07:29:43Z</time></trkpt><trkpt lat="46.210259884350876" lon="9.032617995557146"><ele>237.5</ele><time>2026-04-11T07:29:44Z</time></trkpt><trkpt lat="46.21039806897617" lon="9.032945743404062"><ele>236.0</ele><time>2026-04-11T07:29:45Z</time></trkpt><trkpt lat="46.21054664690949" lon="9.03326399864391"><ele>240.0</ele><time>2026-04-11T07:29:46Z</time></trkpt><trkpt lat="46.210704605176794" lon="9.033572507342749"><ele>244.0</ele><time>2026-04-11T07:29:47Z</time></trkpt><trkpt lat="46.21087228507983" lon="9.03386867446916"><ele>241.0</ele><time>2026-04-11T07:29:48Z</time></trkpt><trkpt lat="46.211048998116325" lon="9.034155027921559"><ele>238.0</ele><time>2026-04-11T07:29:49Z</time></trkpt><trkpt lat="46.211230456841754" lon="9.034435066017172"><ele>238.0</ele><time>2026-04-11T07:29:50Z</time></trkpt><trkpt lat="46.211420105117696" lon="9.034702265963677"><ele>238.0</ele><time>2026-04-11T07:29:51Z</time></trkpt><trkpt lat="46.21161786235255" lon="9.034958892349984"><ele>240.0</ele><time>2026-04-11T07:29:52Z</time></trkpt><trkpt lat="46.21182175461676" lon="9.035202724401648"><ele>242.0</ele><time>2026-04-11T07:29:53Z</time></trkpt><trkpt lat="46.21203237045886" lon="9.035433369293123"><ele>242.0</ele><time>2026-04-11T07:29:54Z</time></trkpt><trkpt lat="46.21225060941097" lon="9.035648519048644"><ele>242.0</ele><time>2026-04-11T07:29:55Z</time></trkpt><trkpt lat="46.212476275994305" lon="9.03584812802748"><ele>243.0</ele><time>2026-04-11T07:29:56Z</time></trkpt><trkpt lat="46.21270772951988" lon="9.036037377695113"><ele>244.0</ele><time>2026-04-11T07:29:57Z</time></trkpt><trkpt lat="46.212942924628344" lon="9.036215565909163"><ele>248.5</ele><time>2026-04-11T07:29:58Z</time></trkpt><trkpt lat="46.213171744490765" lon="9.036372186778877"><ele>253.0</ele><time>2026-04-11T07:29:59Z</time></trkpt><trkpt lat="46.213397035583114" lon="9.036509900048616"><ele>253.0</ele><time>2026-04-11T07:30:00Z</time></trkpt><trkpt lat="46.21362304593506" lon="9.036632806996906"><ele>253.0</ele><time>2026-04-11T07:30:01Z</time></trkpt><trkpt lat="46.21384616135407" lon="9.036740779391844"><ele>252.0</ele><time>2026-04-11T07:30:02Z</time></trkpt><trkpt lat="46.214068542691756" lon="9.036834734025176"><ele>251.0</ele><time>2026-04-11T07:30:03Z</time></trkpt><trkpt lat="46.21429146762602" lon="9.036919533184605"><ele>251.0</ele><time>2026-04-11T07:30:04Z</time></trkpt><trkpt lat="46.21451069668743" lon="9.03699336634366"><ele>251.0</ele><time>2026-04-11T07:30:05Z</time></trkpt><trkpt lat="46.21472441010158" lon="9.037052272363942"><ele>251.0</ele><time>2026-04-11T07:30:06Z</time></trkpt><trkpt lat="46.21494025337786" lon="9.037100137855104"><ele>250.66666666666669</ele><time>2026-04-11T07:30:07Z</time></trkpt><trkpt lat="46.21516116330584" lon="9.037138775753137"><ele>250.33333333333331</ele><time>2026-04-11T07:30:08Z</time></trkpt><trkpt lat="46.21538192427784" lon="9.037166109523763"><ele>250.0</ele><time>2026-04-11T07:30:09Z</time></trkpt><trkpt lat="46.215597334249225" lon="9.037183215043708"><ele>249.0</ele><time>2026-04-11T07:30:10Z</time></trkpt><trkpt lat="46.215800264402574" lon="9.037189565197536"><ele>248.0</ele><time>2026-04-11T07:30:11Z</time></trkpt><trkpt lat="46.216005999087606" lon="9.037197022376581"><ele>247.0</ele><time>2026-04-11T07:30:12Z</time></trkpt><trkpt lat="46.216216861139806" lon="9.03720145357637"><ele>247.0</ele><time>2026-04-11T07:30:13Z</time></trkpt><trkpt lat="46.216429199311094" lon="9.037208110086803"><ele>247.0</ele><time>2026-04-11T07:30:14Z</time></trkpt><trkpt lat="46.21663532344094" lon="9.037214301222344"><ele>247.0</ele><time>2026-04-11T07:30:15Z</time></trkpt><trkpt lat="46.21683874226433" lon="9.037217879298735"><ele>247.33333333333331</ele><time>2026-04-11T07:30:16Z</time></trkpt><trkpt lat="46.21704589381893" lon="9.037218501241776"><ele>247.66666666666669</ele><time>2026-04-11T07:30:17Z</time></trkpt><trkpt lat="46.217248190676706" lon="9.037222705280433"><ele>248.0</ele><time>2026-04-11T07:30:18Z</time></trkpt><trkpt lat="46.217449397472336" lon="9.037240383342846"><ele>249.0</ele><time>2026-04-11T07:30:19Z</time></trkpt><trkpt lat="46.21765420937318" lon="9.037270100146582"><ele>250.0</ele><time>2026-04-11T07:30:20Z</time></trkpt><trkpt lat="46.21785637287376" lon="9.037307979503968"><ele>251.0</ele><time>2026-04-11T07:30:21Z</time></trkpt><trkpt lat="46.218053775901566" lon="9.037362632546508"><ele>251.0</ele><time>2026-04-11T07:30:22Z</time></trkpt><trkpt lat="46.218252263647926" lon="9.037436970243236"><ele>251.0</ele><time>2026-04-11T07:30:23Z</time></trkpt><trkpt lat="46.218461347899456" lon="9.037521197497398"><ele>251.0</ele><time>2026-04-11T07:30:24Z</time></trkpt><trkpt lat="46.2186681958885" lon="9.03762848591716"><ele>249.66666666666669</ele><time>2026-04-11T07:30:25Z</time></trkpt><trkpt lat="46.21887241067374" lon="9.037756777532229"><ele>248.33333333333331</ele><time>2026-04-11T07:30:26Z</time></trkpt><trkpt lat="46.21907286092551" lon="9.037906608931367"><ele>247.0</ele><time>2026-04-11T07:30:27Z</time></trkpt><trkpt lat="46.21926730052309" lon="9.03808005296627"><ele>246.5</ele><time>2026-04-11T07:30:28Z</time></trkpt><trkpt lat="46.21945628303039" lon="9.038269015112638"><ele>246.0</ele><time>2026-04-11T07:30:29Z</time></trkpt><trkpt lat="46.21963826303046" lon="9.038479285921063"><ele>245.0</ele><time>2026-04-11T07:30:30Z</time></trkpt><trkpt lat="46.219810936264864" lon="9.03870464231668"><ele>244.0</ele><time>2026-04-11T07:30:31Z</time></trkpt><trkpt lat="46.21997562474738" lon="9.038945660965464"><ele>244.0</ele><time>2026-04-11T07:30:32Z</time></trkpt><trkpt lat="46.22013212403925" lon="9.039202134850777"><ele>244.0</ele><time>2026-04-11T07:30:33Z</time></trkpt><trkpt lat="46.22027953213088" lon="9.039472841739206"><ele>244.0</ele><time>2026-04-11T07:30:34Z</time></trkpt><trkpt lat="46.220418174176054" lon="9.039757224442797"><ele>244.0</ele><time>2026-04-11T07:30:35Z</time></trkpt><trkpt lat="46.22054202626018" lon="9.040056826991108"><ele>241.5</ele><time>2026-04-11T07:30:36Z</time></trkpt><trkpt lat="46.220656102112216" lon="9.040368886496422"><ele>239.0</ele><time>2026-04-11T07:30:37Z</time></trkpt><trkpt lat="46.22075969231711" lon="9.040688843687525"><ele>240.5</ele><time>2026-04-11T07:30:38Z</time></trkpt><trkpt lat="46.22085623785033" lon="9.041012487610695"><ele>242.0</ele><time>2026-04-11T07:30:39Z</time></trkpt><trkpt lat="46.2209445595188" lon="9.041340585456902"><ele>242.5</ele><time>2026-04-11T07:30:40Z</time></trkpt><trkpt lat="46.22102385970168" lon="9.041671698792292"><ele>243.0</ele><time>2026-04-11T07:30:41Z</time></trkpt><trkpt lat="46.221090942999986" lon="9.042006583868467"><ele>243.0</ele><time>2026-04-11T07:30:42Z</time></trkpt><trkpt lat="46.22114747145617" lon="9.042345578958164"><ele>243.0</ele><time>2026-04-11T07:30:43Z</time></trkpt><trkpt lat="46.2211975748694" lon="9.042685912451567"><ele>243.0</ele><time>2026-04-11T07:30:44Z</time></trkpt><trkpt lat="46.22124194490368" lon="9.043027387004454"><ele>243.0</ele><time>2026-04-11T07:30:45Z</time></trkpt><trkpt lat="46.2212811557303" lon="9.043370917643164"><ele>243.0</ele><time>2026-04-11T07:30:46Z</time></trkpt><trkpt lat="46.22131768455131" lon="9.04371634311814"><ele>243.0</ele><time>2026-04-11T07:30:47Z</time></trkpt><trkpt lat="46.221354167367984" lon="9.044061126056388"><ele>243.0</ele><time>2026-04-11T07:30:48Z</time></trkpt><trkpt lat="46.22138498267318" lon="9.044407343042746"><ele>243.0</ele><time>2026-04-11T07:30:49Z</time></trkpt><trkpt lat="46.22141127246694" lon="9.044755180621317"><ele>243.5</ele><time>2026-04-11T07:30:50Z</time></trkpt><trkpt lat="46.22143459584649" lon="9.04510237438893"><ele>244.0</ele><time>2026-04-11T07:30:51Z</time></trkpt><trkpt lat="46.221458114165685" lon="9.045450028938092"><ele>244.0</ele><time>2026-04-11T07:30:52Z</time></trkpt><trkpt lat="46.221481954260625" lon="9.045797920465338"><ele>244.0</ele><time>2026-04-11T07:30:53Z</time></trkpt><trkpt lat="46.2215070386635" lon="9.046143299848623"><ele>245.0</ele><time>2026-04-11T07:30:54Z</time></trkpt><trkpt lat="46.22153423068941" lon="9.046489045773267"><ele>246.0</ele><time>2026-04-11T07:30:55Z</time></trkpt><trkpt lat="46.22156193875979" lon="9.046835005760986"><ele>246.0</ele><time>2026-04-11T07:30:56Z</time></trkpt><trkpt lat="46.22159225471136" lon="9.04718135121922"><ele>246.0</ele><time>2026-04-11T07:30:57Z</time></trkpt><trkpt lat="46.221628041500765" lon="9.047525528282826"><ele>244.5</ele><time>2026-04-11T07:30:58Z</time></trkpt><trkpt lat="46.22166961766893" lon="9.047870859047402"><ele>243.0</ele><time>2026-04-11T07:30:59Z</time></trkpt><trkpt lat="46.22171372300053" lon="9.048214035791807"><ele>243.5</ele><time>2026-04-11T07:31:00Z</time></trkpt><trkpt lat="46.22176187575582" lon="9.048555643325157"><ele>244.0</ele><time>2026-04-11T07:31:01Z</time></trkpt><trkpt lat="46.22181681010387" lon="9.048895173274278"><ele>243.5</ele><time>2026-04-11T07:31:02Z</time></trkpt><trkpt lat="46.22187468652584" lon="9.049233584761526"><ele>243.0</ele><time>2026-04-11T07:31:03Z</time></trkpt><trkpt lat="46.221936418615485" lon="9.049571212722588"><ele>243.0</ele><time>2026-04-11T07:31:04Z</time></trkpt><trkpt lat="46.22200289851156" lon="9.04990801198577"><ele>243.0</ele><time>2026-04-11T07:31:05Z</time></trkpt><trkpt lat="46.222071797330564" lon="9.050240845211865"><ele>243.0</ele><time>2026-04-11T07:31:05.999Z</time></trkpt><trkpt lat="46.2221469614417" lon="9.050572332526606"><ele>243.0</ele><time>2026-04-11T07:31:06.999Z</time></trkpt><trkpt lat="46.222227476918796" lon="9.050902114991986"><ele>243.0</ele><time>2026-04-11T07:31:07.999Z</time></trkpt><trkpt lat="46.22230975191382" lon="9.051227245163679"><ele>243.0</ele><time>2026-04-11T07:31:08.999Z</time></trkpt><trkpt lat="46.222395769387255" lon="9.051553098667076"><ele>243.0</ele><time>2026-04-11T07:31:09.999Z</time></trkpt><trkpt lat="46.22248024408043" lon="9.051878825725927"><ele>243.0</ele><time>2026-04-11T07:31:10.999Z</time></trkpt><trkpt lat="46.22257242256748" lon="9.052200488989806"><ele>243.0</ele><time>2026-04-11T07:31:11.999Z</time></trkpt><trkpt lat="46.22267083462184" lon="9.052517464085359"><ele>243.0</ele><time>2026-04-11T07:31:13Z</time></trkpt><trkpt lat="46.22277032781495" lon="9.052834340464567"><ele>243.0</ele><time>2026-04-11T07:31:14Z</time></trkpt><trkpt lat="46.222869427704566" lon="9.053151897425316"><ele>243.0</ele><time>2026-04-11T07:31:15Z</time></trkpt><trkpt lat="46.22296770751614" lon="9.053469190847366"><ele>243.5</ele><time>2026-04-11T07:31:16Z</time></trkpt><trkpt lat="46.22306802633906" lon="9.05378587163312"><ele>244.0</ele><time>2026-04-11T07:31:17Z</time></trkpt><trkpt lat="46.223169864683676" lon="9.054101890399732"><ele>243.5</ele><time>2026-04-11T07:31:18Z</time></trkpt><trkpt lat="46.22327325249606" lon="9.054416747191112"><ele>243.0</ele><time>2026-04-11T07:31:19Z</time></trkpt><trkpt lat="46.22337771759316" lon="9.054730649973777"><ele>243.0</ele><time>2026-04-11T07:31:20Z</time></trkpt><trkpt lat="46.22347936946651" lon="9.055046279639871"><ele>243.0</ele><time>2026-04-11T07:31:21Z</time></trkpt><trkpt lat="46.223582792476606" lon="9.05536059730694"><ele>243.0</ele><time>2026-04-11T07:31:22Z</time></trkpt><trkpt lat="46.223685891726646" lon="9.055675649314113"><ele>243.0</ele><time>2026-04-11T07:31:23Z</time></trkpt><trkpt lat="46.22379065115728" lon="9.055990667090965"><ele>243.5</ele><time>2026-04-11T07:31:24Z</time></trkpt><trkpt lat="46.223896872777175" lon="9.056303311997315"><ele>244.0</ele><time>2026-04-11T07:31:25Z</time></trkpt><trkpt lat="46.22400069542724" lon="9.05661826942036"><ele>243.5</ele><time>2026-04-11T07:31:26Z</time></trkpt><trkpt lat="46.22410387207856" lon="9.056935617482072"><ele>243.0</ele><time>2026-04-11T07:31:27Z</time></trkpt><trkpt lat="46.2242066430321" lon="9.057251614073397"><ele>243.0</ele><time>2026-04-11T07:31:28Z</time></trkpt><trkpt lat="46.22430848591493" lon="9.057567395132871"><ele>243.0</ele><time>2026-04-11T07:31:29Z</time></trkpt><trkpt lat="46.22441180618333" lon="9.057880700514096"><ele>243.0</ele><time>2026-04-11T07:31:30Z</time></trkpt><trkpt lat="46.224516597044264" lon="9.058195045428292"><ele>243.0</ele><time>2026-04-11T07:31:31Z</time></trkpt><trkpt lat="46.2246222206461" lon="9.058508068888937"><ele>243.5</ele><time>2026-04-11T07:31:32Z</time></trkpt><trkpt lat="46.22472824232122" lon="9.058821390025859"><ele>244.0</ele><time>2026-04-11T07:31:33Z</time></trkpt><trkpt lat="46.22483292755213" lon="9.05913622210846"><ele>244.0</ele><time>2026-04-11T07:31:34Z</time></trkpt><trkpt lat="46.224937446728156" lon="9.059450147148407"><ele>244.0</ele><time>2026-04-11T07:31:35Z</time></trkpt><trkpt lat="46.22504210626912" lon="9.059765534595495"><ele>244.0</ele><time>2026-04-11T07:31:36Z</time></trkpt><trkpt lat="46.225147232913265" lon="9.060080055392627"><ele>244.0</ele><time>2026-04-11T07:31:37Z</time></trkpt><trkpt lat="46.22525431817361" lon="9.060393068492345"><ele>244.0</ele><time>2026-04-11T07:31:38Z</time></trkpt><trkpt lat="46.22536076212142" lon="9.060706979936732"><ele>244.0</ele><time>2026-04-11T07:31:39Z</time></trkpt><trkpt lat="46.22546748911982" lon="9.061020513128389"><ele>245.0</ele><time>2026-04-11T07:31:40Z</time></trkpt><trkpt lat="46.22556988536716" lon="9.061337656268131"><ele>246.0</ele><time>2026-04-11T07:31:41Z</time></trkpt><trkpt lat="46.22567362565383" lon="9.061652414442756"><ele>246.0</ele><time>2026-04-11T07:31:42Z</time></trkpt><trkpt lat="46.22577846039711" lon="9.061967932446985"><ele>246.0</ele><time>2026-04-11T07:31:43Z</time></trkpt><trkpt lat="46.225883672687964" lon="9.062282165264511"><ele>246.0</ele><time>2026-04-11T07:31:44Z</time></trkpt><trkpt lat="46.22598875319838" lon="9.062595845728145"><ele>246.0</ele><time>2026-04-11T07:31:45Z</time></trkpt><trkpt lat="46.22609456360138" lon="9.062910044053197"><ele>246.0</ele><time>2026-04-11T07:31:46Z</time></trkpt><trkpt lat="46.226200015206764" lon="9.063224370422487"><ele>246.0</ele><time>2026-04-11T07:31:47Z</time></trkpt><trkpt lat="46.22630410160462" lon="9.063539675575578"><ele>245.5</ele><time>2026-04-11T07:31:48Z</time></trkpt><trkpt lat="46.22640919030187" lon="9.063854552165674"><ele>245.0</ele><time>2026-04-11T07:31:49Z</time></trkpt><trkpt lat="46.2265154467529" lon="9.06416680110689"><ele>247.0</ele><time>2026-04-11T07:31:50Z</time></trkpt><trkpt lat="46.22662138849052" lon="9.064477528025913"><ele>249.0</ele><time>2026-04-11T07:31:51Z</time></trkpt><trkpt lat="46.22672725332784" lon="9.064788310836533"><ele>248.5</ele><time>2026-04-11T07:31:52Z</time></trkpt><trkpt lat="46.22683150688393" lon="9.065102272031005"><ele>248.0</ele><time>2026-04-11T07:31:53Z</time></trkpt><trkpt lat="46.22693298488111" lon="9.065420152031004"><ele>248.0</ele><time>2026-04-11T07:31:54Z</time></trkpt><trkpt lat="46.22703284504357" lon="9.065738428035052"><ele>248.0</ele><time>2026-04-11T07:31:55Z</time></trkpt><trkpt lat="46.22712778167142" lon="9.066059665812855"><ele>247.5</ele><time>2026-04-11T07:31:56Z</time></trkpt><trkpt lat="46.227216277556266" lon="9.066382725591154"><ele>247.0</ele><time>2026-04-11T07:31:57Z</time></trkpt><trkpt lat="46.22729803131993" lon="9.066711037302822"><ele>248.0</ele><time>2026-04-11T07:31:58Z</time></trkpt><trkpt lat="46.227374244488416" lon="9.067042758333562"><ele>249.0</ele><time>2026-04-11T07:31:59Z</time></trkpt><trkpt lat="46.22744476333703" lon="9.06737695975033"><ele>250.0</ele><time>2026-04-11T07:32:00Z</time></trkpt><trkpt lat="46.227509128800854" lon="9.067711897113528"><ele>251.0</ele><time>2026-04-11T07:32:01Z</time></trkpt><trkpt lat="46.22756597008952" lon="9.068050451136587"><ele>251.5</ele><time>2026-04-11T07:32:02Z</time></trkpt><trkpt lat="46.22761658441798" lon="9.06839009999356"><ele>252.0</ele><time>2026-04-11T07:32:03Z</time></trkpt><trkpt lat="46.227660201741465" lon="9.06873351767734"><ele>252.0</ele><time>2026-04-11T07:32:04Z</time></trkpt><trkpt lat="46.22769910176073" lon="9.069077396172556"><ele>252.0</ele><time>2026-04-11T07:32:05Z</time></trkpt><trkpt lat="46.22773552354975" lon="9.069419990548504"><ele>252.0</ele><time>2026-04-11T07:32:06Z</time></trkpt><trkpt lat="46.227770060483714" lon="9.069764134868"><ele>252.0</ele><time>2026-04-11T07:32:07Z</time></trkpt><trkpt lat="46.22780550777008" lon="9.070107354192233"><ele>252.0</ele><time>2026-04-11T07:32:08Z</time></trkpt><trkpt lat="46.22784444210008" lon="9.070447816734196"><ele>252.0</ele><time>2026-04-11T07:32:09Z</time></trkpt><trkpt lat="46.2278900961487" lon="9.070788931533157"><ele>251.5</ele><time>2026-04-11T07:32:10Z</time></trkpt><trkpt lat="46.22794113852211" lon="9.071129862023753"><ele>251.0</ele><time>2026-04-11T07:32:11Z</time></trkpt><trkpt lat="46.228001653688395" lon="9.071469098344371"><ele>251.0</ele><time>2026-04-11T07:32:12Z</time></trkpt><trkpt lat="46.228069567114915" lon="9.071806877599679"><ele>251.0</ele><time>2026-04-11T07:32:13Z</time></trkpt><trkpt lat="46.22814426328051" lon="9.072140900223243"><ele>252.5</ele><time>2026-04-11T07:32:14Z</time></trkpt><trkpt lat="46.22822707480246" lon="9.07247104745666"><ele>254.0</ele><time>2026-04-11T07:32:15Z</time></trkpt><trkpt lat="46.228318726878655" lon="9.072795162468465"><ele>254.0</ele><time>2026-04-11T07:32:16Z</time></trkpt><trkpt lat="46.22841917525751" lon="9.073112918347366"><ele>254.0</ele><time>2026-04-11T07:32:17Z</time></trkpt><trkpt lat="46.22852672457196" lon="9.073425662972241"><ele>254.0</ele><time>2026-04-11T07:32:18Z</time></trkpt><trkpt lat="46.228641126739994" lon="9.073734071832034"><ele>254.0</ele><time>2026-04-11T07:32:19Z</time></trkpt><trkpt lat="46.22876321298622" lon="9.074036822295044"><ele>253.5</ele><time>2026-04-11T07:32:20Z</time></trkpt><trkpt lat="46.228891760009525" lon="9.074334113790231"><ele>253.0</ele><time>2026-04-11T07:32:21Z</time></trkpt><trkpt lat="46.22902146298969" lon="9.07463023010497"><ele>253.5</ele><time>2026-04-11T07:32:22Z</time></trkpt><trkpt lat="46.229150156833335" lon="9.074924139956543"><ele>254.0</ele><time>2026-04-11T07:32:23Z</time></trkpt><trkpt lat="46.2292807623084" lon="9.07521792869391"><ele>254.0</ele><time>2026-04-11T07:32:24Z</time></trkpt><trkpt lat="46.22941320759132" lon="9.075509590046993"><ele>254.0</ele><time>2026-04-11T07:32:25Z</time></trkpt><trkpt lat="46.229545034985264" lon="9.07580144159846"><ele>253.5</ele><time>2026-04-11T07:32:26Z</time></trkpt><trkpt lat="46.22967525140068" lon="9.076093001820837"><ele>253.0</ele><time>2026-04-11T07:32:27Z</time></trkpt><trkpt lat="46.22980769434983" lon="9.076385972122559"><ele>254.0</ele><time>2026-04-11T07:32:28Z</time></trkpt><trkpt lat="46.22994036891425" lon="9.076678151135292"><ele>255.0</ele><time>2026-04-11T07:32:29Z</time></trkpt><trkpt lat="46.230072572854056" lon="9.07697144677209"><ele>255.0</ele><time>2026-04-11T07:32:30Z</time></trkpt><trkpt lat="46.2302007196039" lon="9.077265984886271"><ele>255.0</ele><time>2026-04-11T07:32:31Z</time></trkpt><trkpt lat="46.23033164604951" lon="9.07755879925523"><ele>255.0</ele><time>2026-04-11T07:32:32Z</time></trkpt><trkpt lat="46.23046251717461" lon="9.077852900419357"><ele>255.0</ele><time>2026-04-11T07:32:33Z</time></trkpt><trkpt lat="46.23059357250408" lon="9.078147657683989"><ele>255.5</ele><time>2026-04-11T07:32:34Z</time></trkpt><trkpt lat="46.23072174239067" lon="9.07844406565344"><ele>256.0</ele><time>2026-04-11T07:32:35Z</time></trkpt><trkpt lat="46.23084507176197" lon="9.078744327651505"><ele>256.0</ele><time>2026-04-11T07:32:36Z</time></trkpt><trkpt lat="46.23096089790871" lon="9.079050098364489"><ele>256.0</ele><time>2026-04-11T07:32:37Z</time></trkpt><trkpt lat="46.23107005262232" lon="9.079359826914612"><ele>255.5</ele><time>2026-04-11T07:32:38Z</time></trkpt><trkpt lat="46.23116696342119" lon="9.079677422843478"><ele>255.0</ele><time>2026-04-11T07:32:39Z</time></trkpt><trkpt lat="46.23126510756715" lon="9.079994721150449"><ele>256.5</ele><time>2026-04-11T07:32:40Z</time></trkpt><trkpt lat="46.23134633581963" lon="9.080322167034828"><ele>258.0</ele><time>2026-04-11T07:32:41Z</time></trkpt><trkpt lat="46.23142548436077" lon="9.080649778549652"><ele>258.5</ele><time>2026-04-11T07:32:42Z</time></trkpt><trkpt lat="46.23149483377458" lon="9.080985265619669"><ele>259.0</ele><time>2026-04-11T07:32:43Z</time></trkpt><trkpt lat="46.23154948035841" lon="9.081322285036594"><ele>258.5</ele><time>2026-04-11T07:32:44Z</time></trkpt><trkpt lat="46.23159234886821" lon="9.081665616958256"><ele>258.0</ele><time>2026-04-11T07:32:45Z</time></trkpt><trkpt lat="46.231627337604706" lon="9.082012175088657"><ele>258.0</ele><time>2026-04-11T07:32:46Z</time></trkpt><trkpt lat="46.23165181285811" lon="9.082357181720509"><ele>258.0</ele><time>2026-04-11T07:32:47Z</time></trkpt><trkpt lat="46.231666075577486" lon="9.082704912481631"><ele>258.5</ele><time>2026-04-11T07:32:48Z</time></trkpt><trkpt lat="46.23166869004938" lon="9.083054579470039"><ele>259.0</ele><time>2026-04-11T07:32:49Z</time></trkpt><trkpt lat="46.23166031717799" lon="9.083405595664832"><ele>259.0</ele><time>2026-04-11T07:32:50Z</time></trkpt><trkpt lat="46.23164290411995" lon="9.083752714084106"><ele>259.0</ele><time>2026-04-11T07:32:51Z</time></trkpt><trkpt lat="46.231618908211125" lon="9.084098422955204"><ele>259.5</ele><time>2026-04-11T07:32:52Z</time></trkpt><trkpt lat="46.23158314143314" lon="9.084443583367914"><ele>260.0</ele><time>2026-04-11T07:32:53Z</time></trkpt><trkpt lat="46.23154423446946" lon="9.08478882947929"><ele>260.0</ele><time>2026-04-11T07:32:54Z</time></trkpt><trkpt lat="46.231503282156176" lon="9.085131903932913"><ele>260.0</ele><time>2026-04-11T07:32:55Z</time></trkpt><trkpt lat="46.231463122602605" lon="9.085472397546953"><ele>260.5</ele><time>2026-04-11T07:32:56Z</time></trkpt><trkpt lat="46.23142145708696" lon="9.085814266535438"><ele>261.0</ele><time>2026-04-11T07:32:57Z</time></trkpt><trkpt lat="46.23137986684969" lon="9.086158636464907"><ele>261.0</ele><time>2026-04-11T07:32:58Z</time></trkpt><trkpt lat="46.23133328816664" lon="9.086501305276258"><ele>261.0</ele><time>2026-04-11T07:32:59Z</time></trkpt><trkpt lat="46.23128813618381" lon="9.086845757598788"><ele>260.5</ele><time>2026-04-11T07:33:00Z</time></trkpt><trkpt lat="46.231241831817705" lon="9.08718928083522"><ele>260.0</ele><time>2026-04-11T07:33:01Z</time></trkpt><trkpt lat="46.231197616495066" lon="9.08753366358262"><ele>260.0</ele><time>2026-04-11T07:33:02Z</time></trkpt><trkpt lat="46.231154747319934" lon="9.087874884597449"><ele>260.0</ele><time>2026-04-11T07:33:03Z</time></trkpt><trkpt lat="46.23111296888226" lon="9.088216547216405"><ele>261.0</ele><time>2026-04-11T07:33:03.999Z</time></trkpt><trkpt lat="46.23106934731224" lon="9.088560077960228"><ele>262.0</ele><time>2026-04-11T07:33:04.999Z</time></trkpt><trkpt lat="46.231025160732806" lon="9.08890407421189"><ele>262.5</ele><time>2026-04-11T07:33:05.999Z</time></trkpt><trkpt lat="46.23098466496605" lon="9.089247344487104"><ele>263.0</ele><time>2026-04-11T07:33:06.999Z</time></trkpt><trkpt lat="46.230949291972635" lon="9.089590814657788"><ele>262.5</ele><time>2026-04-11T07:33:07.999Z</time></trkpt><trkpt lat="46.230917491676166" lon="9.089936093585205"><ele>262.0</ele><time>2026-04-11T07:33:08.999Z</time></trkpt><trkpt lat="46.23089605372312" lon="9.09028254699311"><ele>262.0</ele><time>2026-04-11T07:33:09.999Z</time></trkpt><trkpt lat="46.230883248567274" lon="9.09063131759217"><ele>262.0</ele><time>2026-04-11T07:33:10.999Z</time></trkpt><trkpt lat="46.230874496927605" lon="9.090980954601735"><ele>262.0</ele><time>2026-04-11T07:33:11.999Z</time></trkpt><trkpt lat="46.230870398065576" lon="9.091330547401723"><ele>262.0</ele><time>2026-04-11T07:33:12.999Z</time></trkpt><trkpt lat="46.230873113942515" lon="9.09167950501164"><ele>261.5</ele><time>2026-04-11T07:33:13.999Z</time></trkpt><trkpt lat="46.23088341385421" lon="9.092028644777674"><ele>261.0</ele><time>2026-04-11T07:33:14.999Z</time></trkpt><trkpt lat="46.230901048108315" lon="9.092377803866537"><ele>261.5</ele><time>2026-04-11T07:33:15.999Z</time></trkpt><trkpt lat="46.23092401158991" lon="9.092723736108212"><ele>262.0</ele><time>2026-04-11T07:33:16.999Z</time></trkpt><trkpt lat="46.230949656216396" lon="9.09307071066893"><ele>262.0</ele><time>2026-04-11T07:33:17.999Z</time></trkpt><trkpt lat="46.230980959876234" lon="9.09341697204068"><ele>262.0</ele><time>2026-04-11T07:33:19Z</time></trkpt><trkpt lat="46.23101395798067" lon="9.093762875557934"><ele>262.5</ele><time>2026-04-11T07:33:20Z</time></trkpt><trkpt lat="46.23104870086018" lon="9.094108815264"><ele>263.0</ele><time>2026-04-11T07:33:21Z</time></trkpt><trkpt lat="46.231083604505045" lon="9.094455052162548"><ele>263.0</ele><time>2026-04-11T07:33:22Z</time></trkpt><trkpt lat="46.231116960043074" lon="9.09479878932978"><ele>263.0</ele><time>2026-04-11T07:33:23Z</time></trkpt><trkpt lat="46.231151184624935" lon="9.09514247935158"><ele>263.0</ele><time>2026-04-11T07:33:24Z</time></trkpt><trkpt lat="46.23118363546978" lon="9.095486167612632"><ele>263.0</ele><time>2026-04-11T07:33:25Z</time></trkpt><trkpt lat="46.23121573485603" lon="9.095830020811626"><ele>264.5</ele><time>2026-04-11T07:33:26Z</time></trkpt><trkpt lat="46.23124839326401" lon="9.096173661646391"><ele>266.0</ele><time>2026-04-11T07:33:27Z</time></trkpt><trkpt lat="46.23128278472537" lon="9.096517150889701"><ele>266.0</ele><time>2026-04-11T07:33:28Z</time></trkpt><trkpt lat="46.23131880592105" lon="9.096861189140542"><ele>266.0</ele><time>2026-04-11T07:33:29Z</time></trkpt><trkpt lat="46.231354100893746" lon="9.097207458464478"><ele>266.5</ele><time>2026-04-11T07:33:30Z</time></trkpt><trkpt lat="46.231387484373776" lon="9.097554482954568"><ele>267.0</ele><time>2026-04-11T07:33:31Z</time></trkpt><trkpt lat="46.231417042872295" lon="9.097896953452318"><ele>267.0</ele><time>2026-04-11T07:33:32Z</time></trkpt><trkpt lat="46.23144809829378" lon="9.098245501014059"><ele>267.0</ele><time>2026-04-11T07:33:33Z</time></trkpt><trkpt lat="46.231478616065765" lon="9.098592130543597"><ele>266.5</ele><time>2026-04-11T07:33:34Z</time></trkpt><trkpt lat="46.23151035756821" lon="9.098936759971098"><ele>266.0</ele><time>2026-04-11T07:33:35Z</time></trkpt><trkpt lat="46.23154363061768" lon="9.09928208716872"><ele>267.5</ele><time>2026-04-11T07:33:36Z</time></trkpt><trkpt lat="46.2315753068904" lon="9.099628432223911"><ele>269.0</ele><time>2026-04-11T07:33:37Z</time></trkpt><trkpt lat="46.231608347110935" lon="9.099975654775331"><ele>269.0</ele><time>2026-04-11T07:33:38Z</time></trkpt><trkpt lat="46.23164298599195" lon="9.100318715282592"><ele>269.0</ele><time>2026-04-11T07:33:39Z</time></trkpt><trkpt lat="46.23167873612991" lon="9.100663990990057"><ele>269.5</ele><time>2026-04-11T07:33:40Z</time></trkpt><trkpt lat="46.23171111374024" lon="9.101008879033385"><ele>270.0</ele><time>2026-04-11T07:33:41Z</time></trkpt><trkpt lat="46.23174299910234" lon="9.101352689771838"><ele>269.5</ele><time>2026-04-11T07:33:42Z</time></trkpt><trkpt lat="46.23177231079186" lon="9.10169626113158"><ele>269.0</ele><time>2026-04-11T07:33:43Z</time></trkpt><trkpt lat="46.23179769006339" lon="9.10202803796977"><ele>269.0</ele><time>2026-04-11T07:33:44Z</time></trkpt><trkpt lat="46.23181917159572" lon="9.102349372966627"><ele>269.0</ele><time>2026-04-11T07:33:45Z</time></trkpt><trkpt lat="46.2318382498355" lon="9.102664815873036"><ele>269.0</ele><time>2026-04-11T07:33:46Z</time></trkpt><trkpt lat="46.23185618341953" lon="9.102970239825304"><ele>269.0</ele><time>2026-04-11T07:33:47Z</time></trkpt><trkpt lat="46.231872739306745" lon="9.103273526973686"><ele>269.0</ele><time>2026-04-11T07:33:48Z</time></trkpt><trkpt lat="46.23187802147275" lon="9.103563905434847"><ele>269.0</ele><time>2026-04-11T07:33:49Z</time></trkpt><trkpt lat="46.231883732530044" lon="9.103846833832263"><ele>269.33333333333337</ele><time>2026-04-11T07:33:50Z</time></trkpt><trkpt lat="46.2318874085603" lon="9.104128776289746"><ele>269.6666666666667</ele><time>2026-04-11T07:33:51Z</time></trkpt><trkpt lat="46.23188710749587" lon="9.1044096344483"><ele>270.0</ele><time>2026-04-11T07:33:52Z</time></trkpt><trkpt lat="46.23187992445743" lon="9.1046921450853"><ele>271.3333333333333</ele><time>2026-04-11T07:33:53Z</time></trkpt><trkpt lat="46.23186987600901" lon="9.104976416327418"><ele>272.66666666666663</ele><time>2026-04-11T07:33:54Z</time></trkpt><trkpt lat="46.23185784168912" lon="9.1052607993988"><ele>274.0</ele><time>2026-04-11T07:33:55Z</time></trkpt><trkpt lat="46.23184231103318" lon="9.105542258648327"><ele>274.0</ele><time>2026-04-11T07:33:56Z</time></trkpt><trkpt lat="46.2318232889493" lon="9.10582744753019"><ele>274.0</ele><time>2026-04-11T07:33:57Z</time></trkpt><trkpt lat="46.23179911858103" lon="9.106108431801006"><ele>274.0</ele><time>2026-04-11T07:33:58Z</time></trkpt><trkpt lat="46.23177105850104" lon="9.106388887475411"><ele>274.0</ele><time>2026-04-11T07:33:59Z</time></trkpt><trkpt lat="46.23174133809226" lon="9.106671039584427"><ele>274.0</ele><time>2026-04-11T07:34:00Z</time></trkpt><trkpt lat="46.23170759528209" lon="9.10695271426615"><ele>274.0</ele><time>2026-04-11T07:34:01Z</time></trkpt><trkpt lat="46.231670280203566" lon="9.107232581939138"><ele>274.0</ele><time>2026-04-11T07:34:02Z</time></trkpt><trkpt lat="46.23162872434397" lon="9.107510796488034"><ele>274.0</ele><time>2026-04-11T07:34:03Z</time></trkpt><trkpt lat="46.23158493755752" lon="9.107787519737931"><ele>274.0</ele><time>2026-04-11T07:34:04Z</time></trkpt><trkpt lat="46.231536728344054" lon="9.108068900535383"><ele>273.3333333333333</ele><time>2026-04-11T07:34:05Z</time></trkpt><trkpt lat="46.23148623926797" lon="9.108344180301133"><ele>272.6666666666667</ele><time>2026-04-11T07:34:06Z</time></trkpt><trkpt lat="46.23143452702701" lon="9.108618792931066"><ele>272.0</ele><time>2026-04-11T07:34:07Z</time></trkpt><trkpt lat="46.23138183940914" lon="9.108892889089804"><ele>275.6666666666667</ele><time>2026-04-11T07:34:08Z</time></trkpt><trkpt lat="46.23132801490334" lon="9.109169208038328"><ele>279.3333333333333</ele><time>2026-04-11T07:34:09Z</time></trkpt><trkpt lat="46.231273525075814" lon="9.109443173409721"><ele>283.0</ele><time>2026-04-11T07:34:10Z</time></trkpt><trkpt lat="46.23121755571852" lon="9.109716032223506"><ele>284.0</ele><time>2026-04-11T07:34:11Z</time></trkpt><trkpt lat="46.23116267002073" lon="9.109987732101503"><ele>285.0</ele><time>2026-04-11T07:34:12Z</time></trkpt><trkpt lat="46.231108286833155" lon="9.110262386674995"><ele>286.0</ele><time>2026-04-11T07:34:13Z</time></trkpt><trkpt lat="46.23105369044677" lon="9.110536346923098"><ele>286.3333333333333</ele><time>2026-04-11T07:34:14Z</time></trkpt><trkpt lat="46.23099966109075" lon="9.110810896077103"><ele>286.6666666666667</ele><time>2026-04-11T07:34:15Z</time></trkpt><trkpt lat="46.230944433308025" lon="9.111085031897753"><ele>287.0</ele><time>2026-04-11T07:34:16Z</time></trkpt><trkpt lat="46.230890027662774" lon="9.111357930853861"><ele>285.6666666666667</ele><time>2026-04-11T07:34:17Z</time></trkpt><trkpt lat="46.23083716329038" lon="9.111632601390278"><ele>284.3333333333333</ele><time>2026-04-11T07:34:18Z</time></trkpt><trkpt lat="46.23078670621431" lon="9.111907897330006"><ele>283.0</ele><time>2026-04-11T07:34:19Z</time></trkpt><trkpt lat="46.23073776037621" lon="9.112185358221653"><ele>283.0</ele><time>2026-04-11T07:34:20Z</time></trkpt><trkpt lat="46.230688090075894" lon="9.11246168349146"><ele>283.0</ele><time>2026-04-11T07:34:21Z</time></trkpt><trkpt lat="46.230637965077285" lon="9.112737906101135"><ele>283.0</ele><time>2026-04-11T07:34:22Z</time></trkpt><trkpt lat="46.2305880612198" lon="9.113008972717594"><ele>288.0</ele><time>2026-04-11T07:34:23Z</time></trkpt><trkpt lat="46.230540970891234" lon="9.113262089622719"><ele>293.0</ele><time>2026-04-11T07:34:24Z</time></trkpt><trkpt lat="46.23049177656283" lon="9.113512969435801"><ele>298.0</ele><time>2026-04-11T07:34:25Z</time></trkpt><trkpt lat="46.23044100795703" lon="9.113762556327629"><ele>298.0</ele><time>2026-04-11T07:34:26Z</time></trkpt><trkpt lat="46.230391025515075" lon="9.114011222594229"><ele>298.0</ele><time>2026-04-11T07:34:27Z</time></trkpt><trkpt lat="46.23034278917355" lon="9.114257170142048"><ele>298.0</ele><time>2026-04-11T07:34:28Z</time></trkpt><trkpt lat="46.230297320355945" lon="9.114509431211973"><ele>298.3333333333333</ele><time>2026-04-11T07:34:29Z</time></trkpt><trkpt lat="46.230252653190284" lon="9.114766244724786"><ele>298.6666666666667</ele><time>2026-04-11T07:34:30Z</time></trkpt><trkpt lat="46.23020840773523" lon="9.11502885089997"><ele>299.0</ele><time>2026-04-11T07:34:31Z</time></trkpt><trkpt lat="46.230163441128305" lon="9.115295585641448"><ele>301.6666666666667</ele><time>2026-04-11T07:34:32Z</time></trkpt><trkpt lat="46.23011745611989" lon="9.115568660138406"><ele>304.3333333333333</ele><time>2026-04-11T07:34:33Z</time></trkpt><trkpt lat="46.23007176076912" lon="9.115847117284707"><ele>307.0</ele><time>2026-04-11T07:34:34Z</time></trkpt><trkpt lat="46.23002668797036" lon="9.11612919940462"><ele>310.66666666666663</ele><time>2026-04-11T07:34:35Z</time></trkpt><trkpt lat="46.229977510863726" lon="9.11630908499968"><ele>314.3333333333333</ele><time>2026-04-11T07:34:36Z</time></trkpt><trkpt lat="46.229921093172784" lon="9.116568106582363"><ele>318.0</ele><time>2026-04-11T07:34:37Z</time></trkpt><trkpt lat="46.229862240981056" lon="9.116823214722725"><ele>320.6666666666667</ele><time>2026-04-11T07:34:38Z</time></trkpt><trkpt lat="46.22981278455259" lon="9.117082213282185"><ele>323.33333333333337</ele><time>2026-04-11T07:34:39Z</time></trkpt><trkpt lat="46.22976386385787" lon="9.11733677486275"><ele>326.0</ele><time>2026-04-11T07:34:40Z</time></trkpt><trkpt lat="46.22971467280754" lon="9.117591404730286"><ele>335.6666666666667</ele><time>2026-04-11T07:34:41Z</time></trkpt><trkpt lat="46.22966132405454" lon="9.1178419846742"><ele>345.3333333333333</ele><time>2026-04-11T07:34:42Z</time></trkpt><trkpt lat="46.22959649177093" lon="9.118078761603117"><ele>355.0</ele><time>2026-04-11T07:34:43Z</time></trkpt><trkpt lat="46.22954341362484" lon="9.118328194031468"><ele>356.0</ele><time>2026-04-11T07:34:44Z</time></trkpt><trkpt lat="46.22949528707589" lon="9.118577963118847"><ele>357.0</ele><time>2026-04-11T07:34:45Z</time></trkpt><trkpt lat="46.22943891360183" lon="9.118820258309842"><ele>358.0</ele><time>2026-04-11T07:34:46Z</time></trkpt><trkpt lat="46.22938394152867" lon="9.11905908827725"><ele>359.3333333333333</ele><time>2026-04-11T07:34:47Z</time></trkpt><trkpt lat="46.229333598585626" lon="9.11929714320328"><ele>360.6666666666667</ele><time>2026-04-11T07:34:48Z</time></trkpt><trkpt lat="46.2292775719979" lon="9.119530472042765"><ele>362.0</ele><time>2026-04-11T07:34:49Z</time></trkpt><trkpt lat="46.22922487476839" lon="9.119764254994182"><ele>363.0</ele><time>2026-04-11T07:34:50Z</time></trkpt><trkpt lat="46.22918662567385" lon="9.119987006423951"><ele>364.0</ele><time>2026-04-11T07:34:51Z</time></trkpt><trkpt lat="46.22914973812367" lon="9.120196768151873"><ele>365.0</ele><time>2026-04-11T07:34:52Z</time></trkpt><trkpt lat="46.22912044257339" lon="9.120382707066566"><ele>366.0</ele><time>2026-04-11T07:34:53Z</time></trkpt><trkpt lat="46.22909174354302" lon="9.120569703663067"><ele>366.5</ele><time>2026-04-11T07:34:54Z</time></trkpt><trkpt lat="46.22905407979458" lon="9.120774123391683"><ele>367.0</ele><time>2026-04-11T07:34:55Z</time></trkpt><trkpt lat="46.229021709523614" lon="9.120969942588788"><ele>367.5</ele><time>2026-04-11T07:34:56Z</time></trkpt><trkpt lat="46.22898016820439" lon="9.12116481177355"><ele>368.0</ele><time>2026-04-11T07:34:57Z</time></trkpt><trkpt lat="46.228943344701186" lon="9.121359185274118"><ele>375.0</ele><time>2026-04-11T07:34:58Z</time></trkpt><trkpt lat="46.22891443320398" lon="9.121478610227369"><ele>382.0</ele><time>2026-04-11T07:34:59Z</time></trkpt><trkpt lat="46.22887921238495" lon="9.12164645626159"><ele>389.0</ele><time>2026-04-11T07:35:00.007Z</time></trkpt><trkpt lat="46.2287273042528" lon="9.122243815143426"><ele>388.5</ele><time>2026-04-11T07:35:03.213Z</time></trkpt><trkpt lat="46.22869367737899" lon="9.122435116264358"><ele>388.0</ele><time>2026-04-11T07:35:04.213Z</time></trkpt><trkpt lat="46.22865697292297" lon="9.122625111321963"><ele>387.5</ele><time>2026-04-11T07:35:05.213Z</time></trkpt><trkpt lat="46.22862224361412" lon="9.122815869970879"><ele>387.0</ele><time>2026-04-11T07:35:06.212Z</time></trkpt><trkpt lat="46.228591291919265" lon="9.123008197426191"><ele>387.0</ele><time>2026-04-11T07:35:07.213Z</time></trkpt><trkpt lat="46.22856298709215" lon="9.123201046293207"><ele>387.0</ele><time>2026-04-11T07:35:08.212Z</time></trkpt><trkpt lat="46.22853488867668" lon="9.12339416653569"><ele>387.0</ele><time>2026-04-11T07:35:09.212Z</time></trkpt><trkpt lat="46.22850834993705" lon="9.123587717312878"><ele>387.0</ele><time>2026-04-11T07:35:10.212Z</time></trkpt><trkpt lat="46.22848343327796" lon="9.123781742533744"><ele>387.5</ele><time>2026-04-11T07:35:11.213Z</time></trkpt><trkpt lat="46.22846004006588" lon="9.123976104645386"><ele>388.0</ele><time>2026-04-11T07:35:12.212Z</time></trkpt><trkpt lat="46.228437987689105" lon="9.124170801446141"><ele>388.5</ele><time>2026-04-11T07:35:13.212Z</time></trkpt><trkpt lat="46.22841788871656" lon="9.124366024760507"><ele>389.0</ele><time>2026-04-11T07:35:14.213Z</time></trkpt><trkpt lat="46.22839956465066" lon="9.124561468535365"><ele>390.5</ele><time>2026-04-11T07:35:15.213Z</time></trkpt><trkpt lat="46.22838306991611" lon="9.124757269341107"><ele>392.0</ele><time>2026-04-11T07:35:16.212Z</time></trkpt><trkpt lat="46.228368904211074" lon="9.124953498578785"><ele>393.5</ele><time>2026-04-11T07:35:17.212Z</time></trkpt><trkpt lat="46.22835779165891" lon="9.12515020874416"><ele>395.0</ele><time>2026-04-11T07:35:18.213Z</time></trkpt><trkpt lat="46.228349562480965" lon="9.125347086266132"><ele>398.0</ele><time>2026-04-11T07:35:19.213Z</time></trkpt><trkpt lat="46.228341333706325" lon="9.125543954139548"><ele>401.0</ele><time>2026-04-11T07:35:20.212Z</time></trkpt><trkpt lat="46.228337178929344" lon="9.125741144096873"><ele>404.0</ele><time>2026-04-11T07:35:21.212Z</time></trkpt><trkpt lat="46.228335157934666" lon="9.125938413358151"><ele>407.0</ele><time>2026-04-11T07:35:22.212Z</time></trkpt><trkpt lat="46.22833402340415" lon="9.126135659592764"><ele>411.25</ele><time>2026-04-11T07:35:23.212Z</time></trkpt><trkpt lat="46.22833345357061" lon="9.126333089200493"><ele>415.5</ele><time>2026-04-11T07:35:24.213Z</time></trkpt><trkpt lat="46.228335948878616" lon="9.126530225579137"><ele>419.75</ele><time>2026-04-11T07:35:25.212Z</time></trkpt><trkpt lat="46.22834224468091" lon="9.126727289433687"><ele>424.0</ele><time>2026-04-11T07:35:26.212Z</time></trkpt><trkpt lat="46.22834971330849" lon="9.126924313063638"><ele>427.25</ele><time>2026-04-11T07:35:27.213Z</time></trkpt><trkpt lat="46.22835874147482" lon="9.127121137492848"><ele>430.5</ele><time>2026-04-11T07:35:28.212Z</time></trkpt><trkpt lat="46.22836980916095" lon="9.127317761101025"><ele>433.75</ele><time>2026-04-11T07:35:29.212Z</time></trkpt><trkpt lat="46.22838426208315" lon="9.127513941695643"><ele>437.0</ele><time>2026-04-11T07:35:30.212Z</time></trkpt><trkpt lat="46.228399150633244" lon="9.127709939322163"><ele>438.75</ele><time>2026-04-11T07:35:31.212Z</time></trkpt><trkpt lat="46.22841591530255" lon="9.12790577314598"><ele>440.5</ele><time>2026-04-11T07:35:32.212Z</time></trkpt><trkpt lat="46.22843429999588" lon="9.128101340964678"><ele>442.25</ele><time>2026-04-11T07:35:33.212Z</time></trkpt><trkpt lat="46.22845687690852" lon="9.128295923980218"><ele>444.0</ele><time>2026-04-11T07:35:34.212Z</time></trkpt><trkpt lat="46.228481491635904" lon="9.12848999378433"><ele>446.5</ele><time>2026-04-11T07:35:35.212Z</time></trkpt><trkpt lat="46.22850738669819" lon="9.128683718435715"><ele>449.0</ele><time>2026-04-11T07:35:36.212Z</time></trkpt><trkpt lat="46.22853482973543" lon="9.128876922320606"><ele>451.5</ele><time>2026-04-11T07:35:37.212Z</time></trkpt><trkpt lat="46.22856257223686" lon="9.12907030784563"><ele>454.0</ele><time>2026-04-11T07:35:38.213Z</time></trkpt><trkpt lat="46.22859470702907" lon="9.129261957419528"><ele>453.75</ele><time>2026-04-11T07:35:39.212Z</time></trkpt><trkpt lat="46.228630416740636" lon="9.129452354849025"><ele>453.5</ele><time>2026-04-11T07:35:40.212Z</time></trkpt><trkpt lat="46.22866696789169" lon="9.129642525120234"><ele>453.25</ele><time>2026-04-11T07:35:41.212Z</time></trkpt><trkpt lat="46.22870502019586" lon="9.129832076120854"><ele>453.0</ele><time>2026-04-11T07:35:42.212Z</time></trkpt><trkpt lat="46.22874485736748" lon="9.13002078341571"><ele>453.0</ele><time>2026-04-11T07:35:43.212Z</time></trkpt><trkpt lat="46.228786346334815" lon="9.130208722528216"><ele>453.0</ele><time>2026-04-11T07:35:44.212Z</time></trkpt><trkpt lat="46.22883006378677" lon="9.130395838121423"><ele>453.0</ele><time>2026-04-11T07:35:45.213Z</time></trkpt><trkpt lat="46.22887582293156" lon="9.130581653138224"><ele>453.0</ele><time>2026-04-11T07:35:46.212Z</time></trkpt><trkpt lat="46.22892354525091" lon="9.130766587322736"><ele>446.5</ele><time>2026-04-11T07:35:47.212Z</time></trkpt><trkpt lat="46.22897410828185" lon="9.13094990437156"><ele>440.0</ele><time>2026-04-11T07:35:48.212Z</time></trkpt><trkpt lat="46.22902639827994" lon="9.131132252166339"><ele>433.5</ele><time>2026-04-11T07:35:49.212Z</time></trkpt><trkpt lat="46.229080498002226" lon="9.1313135223038"><ele>427.0</ele><time>2026-04-11T07:35:50.212Z</time></trkpt><trkpt lat="46.22913583959339" lon="9.131493974788153"><ele>419.75</ele><time>2026-04-11T07:35:51.212Z</time></trkpt><trkpt lat="46.229192013045264" lon="9.13167381357284"><ele>412.5</ele><time>2026-04-11T07:35:52.212Z</time></trkpt><trkpt lat="46.22925171509787" lon="9.131851365708533"><ele>405.25</ele><time>2026-04-11T07:35:53.212Z</time></trkpt><trkpt lat="46.22931336437801" lon="9.132027660197801"><ele>398.0</ele><time>2026-04-11T07:35:54.213Z</time></trkpt><trkpt lat="46.22937532853675" lon="9.132203567420747"><ele>398.0</ele><time>2026-04-11T07:35:55.213Z</time></trkpt><trkpt lat="46.22944072466271" lon="9.132376733557367"><ele>398.0</ele><time>2026-04-11T07:35:56.212Z</time></trkpt><trkpt lat="46.229508729917036" lon="9.132547948806277"><ele>398.0</ele><time>2026-04-11T07:35:57.212Z</time></trkpt><trkpt lat="46.22957745383144" lon="9.13271856642038"><ele>398.0</ele><time>2026-04-11T07:35:58.212Z</time></trkpt><trkpt lat="46.22964753913589" lon="9.132888135740279"><ele>409.0</ele><time>2026-04-11T07:35:59.212Z</time></trkpt><trkpt lat="46.229719859885414" lon="9.133055724017122"><ele>420.0</ele><time>2026-04-11T07:36:00.213Z</time></trkpt><trkpt lat="46.22979580173021" lon="9.133219707014788"><ele>431.0</ele><time>2026-04-11T07:36:01.212Z</time></trkpt><trkpt lat="46.2298739850124" lon="9.133381630724196"><ele>442.0</ele><time>2026-04-11T07:36:02.212Z</time></trkpt><trkpt lat="46.22995353826037" lon="9.13354224094156"><ele>452.25</ele><time>2026-04-11T07:36:03.212Z</time></trkpt><trkpt lat="46.23003334859557" lon="9.133702540656218"><ele>462.5</ele><time>2026-04-11T07:36:04.212Z</time></trkpt><trkpt lat="46.23011105457747" lon="9.133865091373444"><ele>472.75</ele><time>2026-04-11T07:36:05.213Z</time></trkpt><trkpt lat="46.23019119479697" lon="9.134024799303248"><ele>483.0</ele><time>2026-04-11T07:36:06.212Z</time></trkpt><trkpt lat="46.230280634075356" lon="9.134174081252334"><ele>487.75</ele><time>2026-04-11T07:36:07.212Z</time></trkpt><trkpt lat="46.230363935796284" lon="9.134330612699257"><ele>492.5</ele><time>2026-04-11T07:36:08.212Z</time></trkpt><trkpt lat="46.23045099994558" lon="9.134482823034638"><ele>497.25</ele><time>2026-04-11T07:36:09.212Z</time></trkpt><trkpt lat="46.230539996372464" lon="9.134632802023827"><ele>502.0</ele><time>2026-04-11T07:36:10.212Z</time></trkpt><trkpt lat="46.230630869943916" lon="9.134780490218311"><ele>505.25</ele><time>2026-04-11T07:36:11.213Z</time></trkpt><trkpt lat="46.23072348214271" lon="9.134925505482192"><ele>508.5</ele><time>2026-04-11T07:36:12.212Z</time></trkpt><trkpt lat="46.23081824333853" lon="9.13506804164476"><ele>511.75</ele><time>2026-04-11T07:36:13.212Z</time></trkpt><trkpt lat="46.230912951681105" lon="9.135210498307488"><ele>515.0</ele><time>2026-04-11T07:36:14.212Z</time></trkpt><trkpt lat="46.231009366872165" lon="9.135350660382597"><ele>515.0</ele><time>2026-04-11T07:36:15.212Z</time></trkpt><trkpt lat="46.231108386096274" lon="9.135486819007399"><ele>515.0</ele><time>2026-04-11T07:36:16.212Z</time></trkpt><trkpt lat="46.231209225076064" lon="9.1356202227543"><ele>515.0</ele><time>2026-04-11T07:36:17.212Z</time></trkpt><trkpt lat="46.231309324973665" lon="9.135754765870093"><ele>515.0</ele><time>2026-04-11T07:36:18.212Z</time></trkpt><trkpt lat="46.23140919250188" lon="9.135889667363879"><ele>528.3333333333333</ele><time>2026-04-11T07:36:19.211Z</time></trkpt><trkpt lat="46.231511237470286" lon="9.13602135633346"><ele>541.6666666666666</ele><time>2026-04-11T07:36:20.212Z</time></trkpt><trkpt lat="46.23161438932669" lon="9.136150976718806"><ele>555.0</ele><time>2026-04-11T07:36:21.212Z</time></trkpt><trkpt lat="46.23610750394338" lon="9.139285119319876"><ele>474.3333333333333</ele><time>2026-04-11T07:36:21.999Z</time></trkpt><trkpt lat="46.23628941827149" lon="9.139386191666793"><ele>393.66666666666663</ele><time>2026-04-11T07:36:22.999Z</time></trkpt><trkpt lat="46.236483661169835" lon="9.139450969709799"><ele>313.0</ele><time>2026-04-11T07:36:23.999Z</time></trkpt><trkpt lat="46.23665000734902" lon="9.139535625338754"><ele>308.3333333333333</ele><time>2026-04-11T07:36:24.999Z</time></trkpt><trkpt lat="46.23683158046959" lon="9.139623544393437"><ele>303.6666666666667</ele><time>2026-04-11T07:36:25.999Z</time></trkpt><trkpt lat="46.23701420500978" lon="9.139709937677258"><ele>299.0</ele><time>2026-04-11T07:36:26.999Z</time></trkpt><trkpt lat="46.23718691947051" lon="9.139808283809964"><ele>300.33333333333337</ele><time>2026-04-11T07:36:28Z</time></trkpt><trkpt lat="46.237367846700046" lon="9.13989489032348"><ele>301.6666666666667</ele><time>2026-04-11T07:36:29Z</time></trkpt><trkpt lat="46.23754840203982" lon="9.139985045026114"><ele>303.0</ele><time>2026-04-11T07:36:30Z</time></trkpt><trkpt lat="46.237729509276996" lon="9.140072187261602"><ele>303.0</ele><time>2026-04-11T07:36:31Z</time></trkpt><trkpt lat="46.23790939930292" lon="9.140158362601415"><ele>303.0</ele><time>2026-04-11T07:36:32Z</time></trkpt><trkpt lat="46.238088771890425" lon="9.140246229321109"><ele>303.0</ele><time>2026-04-11T07:36:33Z</time></trkpt><trkpt lat="46.23826701521824" lon="9.140330823498285"><ele>304.0</ele><time>2026-04-11T07:36:34Z</time></trkpt><trkpt lat="46.238445462879525" lon="9.14042021411055"><ele>305.0</ele><time>2026-04-11T07:36:35Z</time></trkpt><trkpt lat="46.23862302847376" lon="9.140512841098221"><ele>306.0</ele><time>2026-04-11T07:36:36Z</time></trkpt><trkpt lat="46.23880151529059" lon="9.140600730571595"><ele>306.3333333333333</ele><time>2026-04-11T07:36:37Z</time></trkpt><trkpt lat="46.238978058747584" lon="9.140695172979823"><ele>306.66666666666663</ele><time>2026-04-11T07:36:38Z</time></trkpt><trkpt lat="46.239154905725044" lon="9.140788177345202"><ele>307.0</ele><time>2026-04-11T07:36:39Z</time></trkpt><trkpt lat="46.23933363228845" lon="9.14088481676772"><ele>307.0</ele><time>2026-04-11T07:36:40Z</time></trkpt><trkpt lat="46.23951159548586" lon="9.140975968857369"><ele>307.0</ele><time>2026-04-11T07:36:41Z</time></trkpt><trkpt lat="46.23968475025545" lon="9.141081954723605"><ele>307.0</ele><time>2026-04-11T07:36:42Z</time></trkpt><trkpt lat="46.23985845352378" lon="9.141185289597745"><ele>308.66666666666663</ele><time>2026-04-11T07:36:43Z</time></trkpt><trkpt lat="46.24002328402711" lon="9.141291704072652"><ele>310.3333333333333</ele><time>2026-04-11T07:36:44Z</time></trkpt><trkpt lat="46.24019694300869" lon="9.141408309762584"><ele>312.0</ele><time>2026-04-11T07:36:45Z</time></trkpt><trkpt lat="46.240365165038774" lon="9.141531664990804"><ele>313.0</ele><time>2026-04-11T07:36:46Z</time></trkpt><trkpt lat="46.240520049382454" lon="9.141671304663967"><ele>314.0</ele><time>2026-04-11T07:36:47Z</time></trkpt><trkpt lat="46.24068718892515" lon="9.141803529501733"><ele>315.0</ele><time>2026-04-11T07:36:48Z</time></trkpt><trkpt lat="46.24085270260207" lon="9.14194569026914"><ele>315.3333333333333</ele><time>2026-04-11T07:36:49Z</time></trkpt><trkpt lat="46.24100732951224" lon="9.142091619050653"><ele>315.66666666666663</ele><time>2026-04-11T07:36:50Z</time></trkpt><trkpt lat="46.241164986111464" lon="9.142240618055752"><ele>316.0</ele><time>2026-04-11T07:36:51Z</time></trkpt><trkpt lat="46.2413231068134" lon="9.142391326752085"><ele>316.66666666666663</ele><time>2026-04-11T07:36:52Z</time></trkpt><trkpt lat="46.241477716522446" lon="9.14254660883853"><ele>317.3333333333333</ele><time>2026-04-11T07:36:53Z</time></trkpt><trkpt lat="46.24162891921585" lon="9.142702285811918"><ele>318.0</ele><time>2026-04-11T07:36:54Z</time></trkpt><trkpt lat="46.24178204537847" lon="9.142866226258654"><ele>318.0</ele><time>2026-04-11T07:36:55Z</time></trkpt><trkpt lat="46.241931093871834" lon="9.14303163782631"><ele>318.0</ele><time>2026-04-11T07:36:56Z</time></trkpt><trkpt lat="46.24207777715551" lon="9.143204243708185"><ele>318.0</ele><time>2026-04-11T07:36:57Z</time></trkpt><trkpt lat="46.242220260597726" lon="9.143380394384234"><ele>319.6666666666667</ele><time>2026-04-11T07:36:58Z</time></trkpt><trkpt lat="46.24236083449607" lon="9.143561207003025"><ele>321.33333333333337</ele><time>2026-04-11T07:36:59Z</time></trkpt><trkpt lat="46.2424993923722" lon="9.143747553523772"><ele>323.0</ele><time>2026-04-11T07:37:00Z</time></trkpt><trkpt lat="46.24263394242905" lon="9.143937304875784"><ele>323.0</ele><time>2026-04-11T07:37:01Z</time></trkpt><trkpt lat="46.24276811528791" lon="9.144129728762545"><ele>323.0</ele><time>2026-04-11T07:37:02Z</time></trkpt><trkpt lat="46.24289776548359" lon="9.144328237536516"><ele>323.0</ele><time>2026-04-11T07:37:03Z</time></trkpt><trkpt lat="46.243023764438036" lon="9.144531522687954"><ele>323.0</ele><time>2026-04-11T07:37:04Z</time></trkpt><trkpt lat="46.24314829579298" lon="9.144736110276876"><ele>323.0</ele><time>2026-04-11T07:37:05Z</time></trkpt><trkpt lat="46.24326944120272" lon="9.144944341361201"><ele>323.0</ele><time>2026-04-11T07:37:06Z</time></trkpt><trkpt lat="46.24338790478903" lon="9.145156856149047"><ele>322.33333333333337</ele><time>2026-04-11T07:37:07Z</time></trkpt><trkpt lat="46.243501692580374" lon="9.145372957927984"><ele>321.6666666666667</ele><time>2026-04-11T07:37:08Z</time></trkpt><trkpt lat="46.243613141370275" lon="9.145593252835933"><ele>321.0</ele><time>2026-04-11T07:37:09Z</time></trkpt><trkpt lat="46.24372520280922" lon="9.145812967287727"><ele>320.6666666666667</ele><time>2026-04-11T07:37:10Z</time></trkpt><trkpt lat="46.24383423298656" lon="9.146033905228174"><ele>320.33333333333337</ele><time>2026-04-11T07:37:11Z</time></trkpt><trkpt lat="46.2439404459121" lon="9.146256659680866"><ele>320.0</ele><time>2026-04-11T07:37:12Z</time></trkpt><trkpt lat="46.244045878752445" lon="9.146484036240023"><ele>320.33333333333337</ele><time>2026-04-11T07:37:13Z</time></trkpt><trkpt lat="46.24414942682252" lon="9.14671304761636"><ele>320.6666666666667</ele><time>2026-04-11T07:37:14Z</time></trkpt><trkpt lat="46.24425306393354" lon="9.146941025836025"><ele>321.0</ele><time>2026-04-11T07:37:15Z</time></trkpt><trkpt lat="46.24435650618469" lon="9.147169366520684"><ele>320.6666666666667</ele><time>2026-04-11T07:37:16Z</time></trkpt><trkpt lat="46.244458278340986" lon="9.147396188525056"><ele>320.33333333333337</ele><time>2026-04-11T07:37:17Z</time></trkpt><trkpt lat="46.244559084298224" lon="9.147626598063297"><ele>320.0</ele><time>2026-04-11T07:37:18Z</time></trkpt><trkpt lat="46.244658410720646" lon="9.147857894559928"><ele>320.0</ele><time>2026-04-11T07:37:19Z</time></trkpt><trkpt lat="46.24475884976767" lon="9.148090144563046"><ele>320.0</ele><time>2026-04-11T07:37:20Z</time></trkpt><trkpt lat="46.24485961191498" lon="9.148321512057151"><ele>320.0</ele><time>2026-04-11T07:37:21Z</time></trkpt><trkpt lat="46.2449632438448" lon="9.148547506802407"><ele>320.6666666666667</ele><time>2026-04-11T07:37:22Z</time></trkpt><trkpt lat="46.245065799402575" lon="9.148777880581475"><ele>321.3333333333333</ele><time>2026-04-11T07:37:23Z</time></trkpt><trkpt lat="46.245174099719584" lon="9.149016310212744"><ele>322.0</ele><time>2026-04-11T07:37:24Z</time></trkpt><trkpt lat="46.24528203340555" lon="9.149254370770567"><ele>322.0</ele><time>2026-04-11T07:37:25Z</time></trkpt><trkpt lat="46.24539051147667" lon="9.149494170315705"><ele>322.0</ele><time>2026-04-11T07:37:26Z</time></trkpt><trkpt lat="46.245501339269595" lon="9.149739914043993"><ele>322.0</ele><time>2026-04-11T07:37:27Z</time></trkpt><trkpt lat="46.24561486082155" lon="9.149982385923742"><ele>322.3333333333333</ele><time>2026-04-11T07:37:28Z</time></trkpt><trkpt lat="46.2457321171223" lon="9.150227682579585"><ele>322.6666666666667</ele><time>2026-04-11T07:37:29Z</time></trkpt><trkpt lat="46.24585137933814" lon="9.150473299157866"><ele>323.0</ele><time>2026-04-11T07:37:30Z</time></trkpt><trkpt lat="46.24597360066944" lon="9.150718080855986"><ele>322.33333333333337</ele><time>2026-04-11T07:37:31Z</time></trkpt><trkpt lat="46.24609495249028" lon="9.150959661739048"><ele>321.6666666666667</ele><time>2026-04-11T07:37:32Z</time></trkpt><trkpt lat="46.246219576739904" lon="9.151201230785917"><ele>321.0</ele><time>2026-04-11T07:37:33Z</time></trkpt><trkpt lat="46.246344394810706" lon="9.151440712310748"><ele>321.0</ele><time>2026-04-11T07:37:34Z</time></trkpt><trkpt lat="46.24647025962604" lon="9.151672842768109"><ele>321.0</ele><time>2026-04-11T07:37:35Z</time></trkpt><trkpt lat="46.246603804315335" lon="9.151907081630668"><ele>321.0</ele><time>2026-04-11T07:37:36Z</time></trkpt><trkpt lat="46.246735414859515" lon="9.152134757084633"><ele>321.0</ele><time>2026-04-11T07:37:37Z</time></trkpt><trkpt lat="46.246874099851404" lon="9.152358849457022"><ele>321.0</ele><time>2026-04-11T07:37:38Z</time></trkpt><trkpt lat="46.24701213894537" lon="9.152580096511365"><ele>321.0</ele><time>2026-04-11T07:37:39Z</time></trkpt><trkpt lat="46.24715253089219" lon="9.152800727462187"><ele>320.6666666666667</ele><time>2026-04-11T07:37:40Z</time></trkpt><trkpt lat="46.24729495832231" lon="9.153016511255727"><ele>320.33333333333337</ele><time>2026-04-11T07:37:41Z</time></trkpt><trkpt lat="46.24743763552177" lon="9.153231724178347"><ele>320.0</ele><time>2026-04-11T07:37:42Z</time></trkpt><trkpt lat="46.24758464621757" lon="9.153441114807697"><ele>319.6666666666667</ele><time>2026-04-11T07:37:43Z</time></trkpt><trkpt lat="46.24773358827132" lon="9.15364844512659"><ele>319.3333333333333</ele><time>2026-04-11T07:37:44Z</time></trkpt><trkpt lat="46.24788586074022" lon="9.153849715034402"><ele>319.0</ele><time>2026-04-11T07:37:45Z</time></trkpt><trkpt lat="46.24803931654001" lon="9.154050413161436"><ele>319.0</ele><time>2026-04-11T07:37:46Z</time></trkpt><trkpt lat="46.24819700756427" lon="9.154248474403735"><ele>319.0</ele><time>2026-04-11T07:37:47Z</time></trkpt><trkpt lat="46.248353943506714" lon="9.154441737978647"><ele>319.0</ele><time>2026-04-11T07:37:48Z</time></trkpt><trkpt lat="46.248513619286456" lon="9.154632885082792"><ele>319.0</ele><time>2026-04-11T07:37:49Z</time></trkpt><trkpt lat="46.24867342188586" lon="9.154821481995219"><ele>319.0</ele><time>2026-04-11T07:37:50Z</time></trkpt><trkpt lat="46.24883589423371" lon="9.15500990098445"><ele>319.0</ele><time>2026-04-11T07:37:51Z</time></trkpt><trkpt lat="46.248998680318124" lon="9.155196433318759"><ele>319.0</ele><time>2026-04-11T07:37:52Z</time></trkpt><trkpt lat="46.249159118674655" lon="9.15537526918349"><ele>319.0</ele><time>2026-04-11T07:37:53Z</time></trkpt><trkpt lat="46.249325639838624" lon="9.155559013718545"><ele>319.0</ele><time>2026-04-11T07:37:54Z</time></trkpt><trkpt lat="46.24948989525524" lon="9.155737356886261"><ele>319.0</ele><time>2026-04-11T07:37:55Z</time></trkpt><trkpt lat="46.2496560730437" lon="9.15591354861906"><ele>319.0</ele><time>2026-04-11T07:37:56Z</time></trkpt><trkpt lat="46.24982353733482" lon="9.156090090934226"><ele>319.0</ele><time>2026-04-11T07:37:57Z</time></trkpt><trkpt lat="46.24999144702042" lon="9.156266684153797"><ele>318.0</ele><time>2026-04-11T07:37:58Z</time></trkpt><trkpt lat="46.25015842104421" lon="9.156442020538623"><ele>317.0</ele><time>2026-04-11T07:37:59Z</time></trkpt><trkpt lat="46.250325760946666" lon="9.15661827736918"><ele>316.0</ele><time>2026-04-11T07:38:00Z</time></trkpt><trkpt lat="46.25049238916822" lon="9.15679490559188"><ele>317.3333333333333</ele><time>2026-04-11T07:38:01Z</time></trkpt><trkpt lat="46.25065844367892" lon="9.156969848851972"><ele>318.6666666666667</ele><time>2026-04-11T07:38:02Z</time></trkpt><trkpt lat="46.25082485464759" lon="9.157145751660615"><ele>320.0</ele><time>2026-04-11T07:38:03Z</time></trkpt><trkpt lat="46.25098667562388" lon="9.157321513506794"><ele>319.6666666666667</ele><time>2026-04-11T07:38:04Z</time></trkpt><trkpt lat="46.25115863484314" lon="9.157496735561613"><ele>319.3333333333333</ele><time>2026-04-11T07:38:05Z</time></trkpt><trkpt lat="46.251326140124036" lon="9.15767462394407"><ele>319.0</ele><time>2026-04-11T07:38:06Z</time></trkpt><trkpt lat="46.25149147245136" lon="9.157850513742229"><ele>319.0</ele><time>2026-04-11T07:38:07Z</time></trkpt><trkpt lat="46.25165735709185" lon="9.15802767542689"><ele>319.0</ele><time>2026-04-11T07:38:08Z</time></trkpt><trkpt lat="46.2518273562473" lon="9.158202349177701"><ele>319.0</ele><time>2026-04-11T07:38:08.999Z</time></trkpt><trkpt lat="46.25199444429618" lon="9.158376235914929"><ele>319.0</ele><time>2026-04-11T07:38:09.999Z</time></trkpt><trkpt lat="46.25216558807487" lon="9.158549254306926"><ele>319.0</ele><time>2026-04-11T07:38:10.999Z</time></trkpt><trkpt lat="46.252336515452924" lon="9.158719428504298"><ele>319.0</ele><time>2026-04-11T07:38:11.999Z</time></trkpt><trkpt lat="46.252508398097774" lon="9.158889721915923"><ele>320.0</ele><time>2026-04-11T07:38:12.999Z</time></trkpt><trkpt lat="46.25268024203867" lon="9.159052605905044"><ele>321.0</ele><time>2026-04-11T07:38:13.999Z</time></trkpt><trkpt lat="46.25285392659342" lon="9.159215859596014"><ele>322.0</ele><time>2026-04-11T07:38:14.999Z</time></trkpt><trkpt lat="46.25302921582436" lon="9.159373829778483"><ele>321.66666666666663</ele><time>2026-04-11T07:38:15.999Z</time></trkpt><trkpt lat="46.25320908905515" lon="9.15952704099829"><ele>321.3333333333333</ele><time>2026-04-11T07:38:16.999Z</time></trkpt><trkpt lat="46.253387895426194" lon="9.159671698182429"><ele>321.0</ele><time>2026-04-11T07:38:17.999Z</time></trkpt><trkpt lat="46.253572335672004" lon="9.15981716258104"><ele>321.0</ele><time>2026-04-11T07:38:18.999Z</time></trkpt><trkpt lat="46.253755637761515" lon="9.15995795213847"><ele>321.0</ele><time>2026-04-11T07:38:19.999Z</time></trkpt><trkpt lat="46.25393868906878" lon="9.160093871944834"><ele>321.0</ele><time>2026-04-11T07:38:20.999Z</time></trkpt><trkpt lat="46.254122927688" lon="9.160232386055394"><ele>321.3333333333333</ele><time>2026-04-11T07:38:21.999Z</time></trkpt><trkpt lat="46.25431003409649" lon="9.160361839528901"><ele>321.66666666666663</ele><time>2026-04-11T07:38:22.999Z</time></trkpt><trkpt lat="46.25449803710828" lon="9.16048849414289"><ele>322.0</ele><time>2026-04-11T07:38:23.999Z</time></trkpt><trkpt lat="46.2546854586632" lon="9.160616976487727"><ele>322.3333333333333</ele><time>2026-04-11T07:38:24.999Z</time></trkpt><trkpt lat="46.2548730287229" lon="9.160746101512407"><ele>322.6666666666667</ele><time>2026-04-11T07:38:25.999Z</time></trkpt><trkpt lat="46.25506258998705" lon="9.160872822399318"><ele>323.0</ele><time>2026-04-11T07:38:26.999Z</time></trkpt><trkpt lat="46.25525072038584" lon="9.160999151184159"><ele>323.0</ele><time>2026-04-11T07:38:27.999Z</time></trkpt><trkpt lat="46.255439092556806" lon="9.161123064461703"><ele>323.0</ele><time>2026-04-11T07:38:28.999Z</time></trkpt><trkpt lat="46.25562797334441" lon="9.161246524384463"><ele>323.0</ele><time>2026-04-11T07:38:29.999Z</time></trkpt><trkpt lat="46.2558159902161" lon="9.161371953010962"><ele>323.33333333333337</ele><time>2026-04-11T07:38:30.999Z</time></trkpt><trkpt lat="46.256003696709385" lon="9.161496994952913"><ele>323.6666666666667</ele><time>2026-04-11T07:38:31.999Z</time></trkpt><trkpt lat="46.256191674691166" lon="9.161622155248095"><ele>324.0</ele><time>2026-04-11T07:38:33Z</time></trkpt><trkpt lat="46.25637980828684" lon="9.161746886678987"><ele>323.3333333333333</ele><time>2026-04-11T07:38:34Z</time></trkpt><trkpt lat="46.25656828246047" lon="9.161871007242686"><ele>322.66666666666663</ele><time>2026-04-11T07:38:35Z</time></trkpt><trkpt lat="46.25675606051049" lon="9.161999137115114"><ele>322.0</ele><time>2026-04-11T07:38:36Z</time></trkpt><trkpt lat="46.256942642849495" lon="9.162126783066268"><ele>322.0</ele><time>2026-04-11T07:38:37Z</time></trkpt><trkpt lat="46.25713079520492" lon="9.16225301693917"><ele>322.0</ele><time>2026-04-11T07:38:38Z</time></trkpt><trkpt lat="46.25731830875149" lon="9.162378761073414"><ele>322.0</ele><time>2026-04-11T07:38:39Z</time></trkpt><trkpt lat="46.25750673189598" lon="9.162504786306883"><ele>322.66666666666663</ele><time>2026-04-11T07:38:40Z</time></trkpt><trkpt lat="46.25769468329378" lon="9.162631139566326"><ele>323.3333333333333</ele><time>2026-04-11T07:38:41Z</time></trkpt><trkpt lat="46.25788359607815" lon="9.162755649397056"><ele>324.0</ele><time>2026-04-11T07:38:42Z</time></trkpt><trkpt lat="46.25806988748628" lon="9.162879735232663"><ele>324.3333333333333</ele><time>2026-04-11T07:38:43Z</time></trkpt><trkpt lat="46.258257988110884" lon="9.163003789660989"><ele>324.66666666666663</ele><time>2026-04-11T07:38:44Z</time></trkpt><trkpt lat="46.258448242044224" lon="9.16312760268299"><ele>325.0</ele><time>2026-04-11T07:38:45Z</time></trkpt><trkpt lat="46.25863552188657" lon="9.163254279509918"><ele>325.66666666666663</ele><time>2026-04-11T07:38:46Z</time></trkpt><trkpt lat="46.258823287893286" lon="9.163380083599474"><ele>326.3333333333333</ele><time>2026-04-11T07:38:47Z</time></trkpt><trkpt lat="46.259012031107716" lon="9.16350552644379"><ele>327.0</ele><time>2026-04-11T07:38:48Z</time></trkpt><trkpt lat="46.259199811859126" lon="9.163630190864932"><ele>327.0</ele><time>2026-04-11T07:38:49Z</time></trkpt><trkpt lat="46.25938692503221" lon="9.163758290414584"><ele>327.0</ele><time>2026-04-11T07:38:50Z</time></trkpt><trkpt lat="46.259574714124646" lon="9.163884432029842"><ele>327.0</ele><time>2026-04-11T07:38:51Z</time></trkpt><trkpt lat="46.25976431385057" lon="9.164012835069869"><ele>327.3333333333333</ele><time>2026-04-11T07:38:52Z</time></trkpt><trkpt lat="46.25994786342365" lon="9.164140141423085"><ele>327.66666666666663</ele><time>2026-04-11T07:38:53Z</time></trkpt><trkpt lat="46.260136410568926" lon="9.164264595401917"><ele>328.0</ele><time>2026-04-11T07:38:54Z</time></trkpt><trkpt lat="46.26032712582725" lon="9.164386934822256"><ele>328.0</ele><time>2026-04-11T07:38:55Z</time></trkpt><trkpt lat="46.260513672164095" lon="9.164511074888448"><ele>328.0</ele><time>2026-04-11T07:38:56Z</time></trkpt><trkpt lat="46.260702057783064" lon="9.164636431413674"><ele>328.0</ele><time>2026-04-11T07:38:57Z</time></trkpt><trkpt lat="46.260890412691005" lon="9.16476184855872"><ele>328.0</ele><time>2026-04-11T07:38:58Z</time></trkpt><trkpt lat="46.26107921915008" lon="9.164887878756852"><ele>328.0</ele><time>2026-04-11T07:38:59Z</time></trkpt><trkpt lat="46.26126621203583" lon="9.165013658458745"><ele>328.0</ele><time>2026-04-11T07:39:00Z</time></trkpt><trkpt lat="46.26145033453527" lon="9.165139788325485"><ele>328.0</ele><time>2026-04-11T07:39:01Z</time></trkpt><trkpt lat="46.2616393209882" lon="9.16526408895231"><ele>328.0</ele><time>2026-04-11T07:39:02Z</time></trkpt><trkpt lat="46.26182789790636" lon="9.16538991877341"><ele>328.0</ele><time>2026-04-11T07:39:03Z</time></trkpt><trkpt lat="46.26201690094944" lon="9.16551948034561"><ele>328.0</ele><time>2026-04-11T07:39:04Z</time></trkpt><trkpt lat="46.26220473630391" lon="9.165643122613893"><ele>328.0</ele><time>2026-04-11T07:39:05Z</time></trkpt><trkpt lat="46.26239053526293" lon="9.165765905035663"><ele>328.0</ele><time>2026-04-11T07:39:06Z</time></trkpt><trkpt lat="46.26257748212645" lon="9.165889878312388"><ele>329.0</ele><time>2026-04-11T07:39:07Z</time></trkpt><trkpt lat="46.262766749756715" lon="9.166016287661906"><ele>330.0</ele><time>2026-04-11T07:39:08Z</time></trkpt><trkpt lat="46.262953960534325" lon="9.166144611174042"><ele>331.0</ele><time>2026-04-11T07:39:09Z</time></trkpt><trkpt lat="46.263140832933374" lon="9.166269527775382"><ele>332.0</ele><time>2026-04-11T07:39:10Z</time></trkpt><trkpt lat="46.263329289376415" lon="9.166394184206782"><ele>333.0</ele><time>2026-04-11T07:39:11Z</time></trkpt><trkpt lat="46.26351701523803" lon="9.16651410115253"><ele>334.0</ele><time>2026-04-11T07:39:12Z</time></trkpt><trkpt lat="46.26370501957668" lon="9.166639119873306"><ele>334.0</ele><time>2026-04-11T07:39:13Z</time></trkpt><trkpt lat="46.263892034461065" lon="9.166764722871852"><ele>334.0</ele><time>2026-04-11T07:39:14Z</time></trkpt><trkpt lat="46.264079196233084" lon="9.166892168178011"><ele>334.0</ele><time>2026-04-11T07:39:15Z</time></trkpt><trkpt lat="46.264264317386335" lon="9.167019215236984"><ele>333.66666666666663</ele><time>2026-04-11T07:39:16Z</time></trkpt><trkpt lat="46.26445314255351" lon="9.1671455242526"><ele>333.3333333333333</ele><time>2026-04-11T07:39:17Z</time></trkpt><trkpt lat="46.264638389045565" lon="9.167270384077575"><ele>333.0</ele><time>2026-04-11T07:39:18Z</time></trkpt><trkpt lat="46.26482525069604" lon="9.167395031138096"><ele>334.6666666666667</ele><time>2026-04-11T07:39:19Z</time></trkpt><trkpt lat="46.265015328175565" lon="9.167519848764476"><ele>336.33333333333337</ele><time>2026-04-11T07:39:20Z</time></trkpt><trkpt lat="46.26520288794366" lon="9.167646730128467"><ele>338.0</ele><time>2026-04-11T07:39:21Z</time></trkpt><trkpt lat="46.26539098468738" lon="9.167773492275717"><ele>338.0</ele><time>2026-04-11T07:39:22Z</time></trkpt><trkpt lat="46.26557768980259" lon="9.167897833035903"><ele>338.0</ele><time>2026-04-11T07:39:23Z</time></trkpt><trkpt lat="46.26576640145151" lon="9.168025908232005"><ele>338.0</ele><time>2026-04-11T07:39:24Z</time></trkpt><trkpt lat="46.26595379461443" lon="9.16815176066749"><ele>338.6666666666667</ele><time>2026-04-11T07:39:25Z</time></trkpt><trkpt lat="46.26614028190621" lon="9.168277888344946"><ele>339.3333333333333</ele><time>2026-04-11T07:39:26Z</time></trkpt><trkpt lat="46.26632691362956" lon="9.168403457225537"><ele>340.0</ele><time>2026-04-11T07:39:27Z</time></trkpt><trkpt lat="46.26651444027686" lon="9.168529861202355"><ele>340.3333333333333</ele><time>2026-04-11T07:39:28Z</time></trkpt><trkpt lat="46.266699783332655" lon="9.168660993937987"><ele>340.6666666666667</ele><time>2026-04-11T07:39:29Z</time></trkpt><trkpt lat="46.26688437561678" lon="9.168796070710972"><ele>341.0</ele><time>2026-04-11T07:39:30Z</time></trkpt><trkpt lat="46.26706576119243" lon="9.168938000980942"><ele>342.0</ele><time>2026-04-11T07:39:31Z</time></trkpt><trkpt lat="46.26724613233946" lon="9.169087171430505"><ele>343.0</ele><time>2026-04-11T07:39:32Z</time></trkpt><trkpt lat="46.26742553778739" lon="9.169241821289665"><ele>344.0</ele><time>2026-04-11T07:39:33Z</time></trkpt><trkpt lat="46.267600345987205" lon="9.169402695148454"><ele>344.0</ele><time>2026-04-11T07:39:34Z</time></trkpt><trkpt lat="46.26777032359475" lon="9.16957444820951"><ele>344.0</ele><time>2026-04-11T07:39:35Z</time></trkpt><trkpt lat="46.26793478667729" lon="9.169756790585042"><ele>344.0</ele><time>2026-04-11T07:39:36Z</time></trkpt><trkpt lat="46.268094375372755" lon="9.169948880870079"><ele>343.6666666666667</ele><time>2026-04-11T07:39:37Z</time></trkpt><trkpt lat="46.26824544229804" lon="9.170153309458685"><ele>343.3333333333333</ele><time>2026-04-11T07:39:38Z</time></trkpt><trkpt lat="46.26838906115767" lon="9.170367060962004"><ele>343.0</ele><time>2026-04-11T07:39:39Z</time></trkpt><trkpt lat="46.26852792670025" lon="9.170591952226175"><ele>344.3333333333333</ele><time>2026-04-11T07:39:40Z</time></trkpt><trkpt lat="46.268660412700456" lon="9.170822071626072"><ele>345.6666666666667</ele><time>2026-04-11T07:39:41Z</time></trkpt><trkpt lat="46.268783342500065" lon="9.171060655056602"><ele>347.0</ele><time>2026-04-11T07:39:42Z</time></trkpt><trkpt lat="46.26889939194549" lon="9.171305128329418"><ele>348.0</ele><time>2026-04-11T07:39:43Z</time></trkpt><trkpt lat="46.269011160749514" lon="9.171554918204217"><ele>349.0</ele><time>2026-04-11T07:39:44Z</time></trkpt><trkpt lat="46.269120959576" lon="9.171808985001352"><ele>350.0</ele><time>2026-04-11T07:39:45Z</time></trkpt><trkpt lat="46.269232078763395" lon="9.172060289808238"><ele>350.0</ele><time>2026-04-11T07:39:46Z</time></trkpt><trkpt lat="46.26934500533254" lon="9.172308772026453"><ele>350.0</ele><time>2026-04-11T07:39:47Z</time></trkpt><trkpt lat="46.26946256730304" lon="9.172554632361928"><ele>350.0</ele><time>2026-04-11T07:39:48Z</time></trkpt><trkpt lat="46.269585880673716" lon="9.172795459886292"><ele>350.33333333333337</ele><time>2026-04-11T07:39:49Z</time></trkpt><trkpt lat="46.26971650983411" lon="9.17302641017728"><ele>350.6666666666667</ele><time>2026-04-11T07:39:50Z</time></trkpt><trkpt lat="46.26985516465626" lon="9.173249167889537"><ele>351.0</ele><time>2026-04-11T07:39:51Z</time></trkpt><trkpt lat="46.269999770654316" lon="9.173461786523076"><ele>351.3333333333333</ele><time>2026-04-11T07:39:52Z</time></trkpt><trkpt lat="46.27015103695693" lon="9.173663860582698"><ele>351.66666666666663</ele><time>2026-04-11T07:39:53Z</time></trkpt><trkpt lat="46.27030809744464" lon="9.17385680212642"><ele>352.0</ele><time>2026-04-11T07:39:54Z</time></trkpt><trkpt lat="46.270473739702524" lon="9.17403890329842"><ele>351.3333333333333</ele><time>2026-04-11T07:39:55Z</time></trkpt><trkpt lat="46.27064586079219" lon="9.174210219801394"><ele>350.6666666666667</ele><time>2026-04-11T07:39:56Z</time></trkpt><trkpt lat="46.27081722247093" lon="9.174373535109773"><ele>350.0</ele><time>2026-04-11T07:39:57Z</time></trkpt><trkpt lat="46.27099463129227" lon="9.17452371915675"><ele>350.0</ele><time>2026-04-11T07:39:58Z</time></trkpt><trkpt lat="46.271178188371834" lon="9.174662694440086"><ele>350.0</ele><time>2026-04-11T07:39:59Z</time></trkpt><trkpt lat="46.27136567679143" lon="9.174789714944598"><ele>350.0</ele><time>2026-04-11T07:40:00Z</time></trkpt><trkpt lat="46.27155617520954" lon="9.174903850422858"><ele>353.33333333333337</ele><time>2026-04-11T07:40:01Z</time></trkpt><trkpt lat="46.27174935153467" lon="9.175011168667178"><ele>356.6666666666667</ele><time>2026-04-11T07:40:02Z</time></trkpt><trkpt lat="46.271944869704" lon="9.175111154059364"><ele>360.0</ele><time>2026-04-11T07:40:03Z</time></trkpt><trkpt lat="46.272141570950005" lon="9.175205775022818"><ele>356.3333333333333</ele><time>2026-04-11T07:40:04Z</time></trkpt><trkpt lat="46.272338409823625" lon="9.175294111998884"><ele>352.66666666666663</ele><time>2026-04-11T07:40:05Z</time></trkpt><trkpt lat="46.27253917419572" lon="9.17537457414365"><ele>349.0</ele><time>2026-04-11T07:40:06Z</time></trkpt><trkpt lat="46.27274111155569" lon="9.17544599504216"><ele>349.0</ele><time>2026-04-11T07:40:07Z</time></trkpt><trkpt lat="46.27294429053899" lon="9.175508321059084"><ele>349.0</ele><time>2026-04-11T07:40:08Z</time></trkpt><trkpt lat="46.27314740988772" lon="9.175560482007784"><ele>349.0</ele><time>2026-04-11T07:40:09Z</time></trkpt><trkpt lat="46.273351361008565" lon="9.175605414611905"><ele>348.66666666666663</ele><time>2026-04-11T07:40:10Z</time></trkpt><trkpt lat="46.273555708069985" lon="9.175643819483076"><ele>348.3333333333333</ele><time>2026-04-11T07:40:11Z</time></trkpt><trkpt lat="46.27376130344242" lon="9.17567363523742"><ele>348.0</ele><time>2026-04-11T07:40:12Z</time></trkpt><trkpt lat="46.27396998260434" lon="9.175694761768453"><ele>351.0</ele><time>2026-04-11T07:40:13Z</time></trkpt><trkpt lat="46.274177794458105" lon="9.175707073305439"><ele>354.0</ele><time>2026-04-11T07:40:14Z</time></trkpt><trkpt lat="46.27438256560058" lon="9.175716762245493"><ele>357.0</ele><time>2026-04-11T07:40:15Z</time></trkpt><trkpt lat="46.27458937803961" lon="9.175722283006865"><ele>357.0</ele><time>2026-04-11T07:40:16Z</time></trkpt><trkpt lat="46.27479570212022" lon="9.175725065426315"><ele>357.0</ele><time>2026-04-11T07:40:17Z</time></trkpt><trkpt lat="46.27500233862846" lon="9.175729187915321"><ele>357.0</ele><time>2026-04-11T07:40:18Z</time></trkpt><trkpt lat="46.27521080479558" lon="9.175734655735356"><ele>357.0</ele><time>2026-04-11T07:40:19Z</time></trkpt><trkpt lat="46.275418507688535" lon="9.17573638777309"><ele>357.0</ele><time>2026-04-11T07:40:20Z</time></trkpt><trkpt lat="46.27562433434639" lon="9.175738622080694"><ele>357.0</ele><time>2026-04-11T07:40:21Z</time></trkpt><trkpt lat="46.275831195539645" lon="9.175748614146782"><ele>357.0</ele><time>2026-04-11T07:40:22Z</time></trkpt><trkpt lat="46.276037398165904" lon="9.175770620740224"><ele>357.0</ele><time>2026-04-11T07:40:23Z</time></trkpt><trkpt lat="46.27624214449169" lon="9.175804579509732"><ele>357.0</ele><time>2026-04-11T07:40:24Z</time></trkpt><trkpt lat="46.2764488577204" lon="9.175844917430071"><ele>357.0</ele><time>2026-04-11T07:40:25Z</time></trkpt><trkpt lat="46.27665202882402" lon="9.17589992602287"><ele>357.0</ele><time>2026-04-11T07:40:26Z</time></trkpt><trkpt lat="46.27685131606631" lon="9.175965252983032"><ele>357.0</ele><time>2026-04-11T07:40:27Z</time></trkpt><trkpt lat="46.27704954006361" lon="9.176045969287069"><ele>357.0</ele><time>2026-04-11T07:40:28Z</time></trkpt><trkpt lat="46.27724579629173" lon="9.17614026717956"><ele>357.0</ele><time>2026-04-11T07:40:29Z</time></trkpt><trkpt lat="46.27743793061555" lon="9.17624802499834"><ele>357.0</ele><time>2026-04-11T07:40:30Z</time></trkpt><trkpt lat="46.27762813317409" lon="9.176371384131896"><ele>357.3333333333333</ele><time>2026-04-11T07:40:31Z</time></trkpt><trkpt lat="46.27781466010374" lon="9.176504262595506"><ele>357.66666666666663</ele><time>2026-04-11T07:40:32Z</time></trkpt><trkpt lat="46.27799888798032" lon="9.17664466702657"><ele>358.0</ele><time>2026-04-11T07:40:33Z</time></trkpt><trkpt lat="46.2781772563307" lon="9.176794004276408"><ele>359.0</ele><time>2026-04-11T07:40:34Z</time></trkpt><trkpt lat="46.27834866269451" lon="9.176956651390359"><ele>360.0</ele><time>2026-04-11T07:40:35Z</time></trkpt><trkpt lat="46.27852038698827" lon="9.177126343122262"><ele>361.0</ele><time>2026-04-11T07:40:36Z</time></trkpt><trkpt lat="46.27869258378348" lon="9.177291277213202"><ele>361.3333333333333</ele><time>2026-04-11T07:40:37Z</time></trkpt><trkpt lat="46.278861857035466" lon="9.177456042009803"><ele>361.6666666666667</ele><time>2026-04-11T07:40:38Z</time></trkpt><trkpt lat="46.27903027084798" lon="9.177623838724458"><ele>362.0</ele><time>2026-04-11T07:40:39Z</time></trkpt><trkpt lat="46.27919982334791" lon="9.177791753714983"><ele>361.33333333333337</ele><time>2026-04-11T07:40:40Z</time></trkpt><trkpt lat="46.279372275148084" lon="9.17795670500614"><ele>360.6666666666667</ele><time>2026-04-11T07:40:41Z</time></trkpt><trkpt lat="46.27954531681273" lon="9.178116154738508"><ele>360.0</ele><time>2026-04-11T07:40:42Z</time></trkpt><trkpt lat="46.27972220979146" lon="9.178270976534218"><ele>361.3333333333333</ele><time>2026-04-11T07:40:43Z</time></trkpt><trkpt lat="46.27990102294662" lon="9.178416440169498"><ele>362.66666666666663</ele><time>2026-04-11T07:40:44Z</time></trkpt><trkpt lat="46.28008110506607" lon="9.178558739810155"><ele>364.0</ele><time>2026-04-11T07:40:45Z</time></trkpt><trkpt lat="46.28026555012071" lon="9.178693734445055"><ele>364.0</ele><time>2026-04-11T07:40:46Z</time></trkpt><trkpt lat="46.28045272321445" lon="9.178820348418247"><ele>364.0</ele><time>2026-04-11T07:40:47Z</time></trkpt><trkpt lat="46.280642469435946" lon="9.178939981479573"><ele>364.0</ele><time>2026-04-11T07:40:48Z</time></trkpt><trkpt lat="46.28083235185708" lon="9.179050512686036"><ele>367.0</ele><time>2026-04-11T07:40:49Z</time></trkpt><trkpt lat="46.281023519588295" lon="9.17915581751377"><ele>370.0</ele><time>2026-04-11T07:40:50Z</time></trkpt><trkpt lat="46.28121708217752" lon="9.179254062656494"><ele>373.0</ele><time>2026-04-11T07:40:51Z</time></trkpt><trkpt lat="46.28141457598584" lon="9.179345041386366"><ele>372.66666666666663</ele><time>2026-04-11T07:40:52Z</time></trkpt><trkpt lat="46.28161519631888" lon="9.179427223972732"><ele>372.3333333333333</ele><time>2026-04-11T07:40:53Z</time></trkpt><trkpt lat="46.28181717353768" lon="9.179502354388251"><ele>372.0</ele><time>2026-04-11T07:40:54Z</time></trkpt><trkpt lat="46.282018202481865" lon="9.179572109012927"><ele>372.0</ele><time>2026-04-11T07:40:55Z</time></trkpt><trkpt lat="46.282222382231424" lon="9.179633775203827"><ele>372.0</ele><time>2026-04-11T07:40:56Z</time></trkpt><trkpt lat="46.28242634148433" lon="9.179689686252663"><ele>372.0</ele><time>2026-04-11T07:40:57Z</time></trkpt><trkpt lat="46.28263106020859" lon="9.179737244095204"><ele>374.0</ele><time>2026-04-11T07:40:58Z</time></trkpt><trkpt lat="46.28283667623312" lon="9.17977977282821"><ele>376.0</ele><time>2026-04-11T07:40:59Z</time></trkpt><trkpt lat="46.28304090773821" lon="9.179821260016569"><ele>378.0</ele><time>2026-04-11T07:41:00Z</time></trkpt><trkpt lat="46.2832464808271" lon="9.179864786083433"><ele>380.0</ele><time>2026-04-11T07:41:01Z</time></trkpt><trkpt lat="46.28345267460696" lon="9.17990796725881"><ele>382.0</ele><time>2026-04-11T07:41:02Z</time></trkpt><trkpt lat="46.283658737420296" lon="9.17994737916213"><ele>384.0</ele><time>2026-04-11T07:41:03Z</time></trkpt><trkpt lat="46.283863818267164" lon="9.179987030573924"><ele>384.66666666666663</ele><time>2026-04-11T07:41:04Z</time></trkpt><trkpt lat="46.28406740898878" lon="9.180025905473078"><ele>385.3333333333333</ele><time>2026-04-11T07:41:05Z</time></trkpt><trkpt lat="46.284271702795074" lon="9.180067494787444"><ele>386.0</ele><time>2026-04-11T07:41:06Z</time></trkpt><trkpt lat="46.2844784628715" lon="9.180110156305966"><ele>386.0</ele><time>2026-04-11T07:41:07Z</time></trkpt><trkpt lat="46.2846834639632" lon="9.180147972968056"><ele>386.0</ele><time>2026-04-11T07:41:08Z</time></trkpt><trkpt lat="46.28488985201351" lon="9.180186273880105"><ele>386.0</ele><time>2026-04-11T07:41:09Z</time></trkpt><trkpt lat="46.28509390361475" lon="9.18022627197287"><ele>386.0</ele><time>2026-04-11T07:41:10Z</time></trkpt><trkpt lat="46.285299942891015" lon="9.18026763731651"><ele>386.0</ele><time>2026-04-11T07:41:11Z</time></trkpt><trkpt lat="46.285503824200376" lon="9.18031009497312"><ele>386.0</ele><time>2026-04-11T07:41:12Z</time></trkpt><trkpt lat="46.285708711050205" lon="9.180351682981176"><ele>386.0</ele><time>2026-04-11T07:41:13Z</time></trkpt><trkpt lat="46.28591069434523" lon="9.180388342370419"><ele>386.0</ele><time>2026-04-11T07:41:14Z</time></trkpt><trkpt lat="46.28611690771929" lon="9.18043047395104"><ele>386.0</ele><time>2026-04-11T07:41:15Z</time></trkpt><trkpt lat="46.286321261506096" lon="9.180471889366082"><ele>388.0</ele><time>2026-04-11T07:41:16Z</time></trkpt><trkpt lat="46.28652745734094" lon="9.180514130308548"><ele>390.0</ele><time>2026-04-11T07:41:17Z</time></trkpt><trkpt lat="46.28673139413867" lon="9.180555167102762"><ele>392.0</ele><time>2026-04-11T07:41:18Z</time></trkpt><trkpt lat="46.28693605559915" lon="9.18059616363304"><ele>392.0</ele><time>2026-04-11T07:41:19Z</time></trkpt><trkpt lat="46.28713982625036" lon="9.180634697855732"><ele>392.0</ele><time>2026-04-11T07:41:20Z</time></trkpt><trkpt lat="46.28734612304079" lon="9.180678814246017"><ele>392.0</ele><time>2026-04-11T07:41:21Z</time></trkpt><trkpt lat="46.28755243949452" lon="9.180722404492467"><ele>393.0</ele><time>2026-04-11T07:41:22Z</time></trkpt><trkpt lat="46.28775882435085" lon="9.180761218828438"><ele>394.0</ele><time>2026-04-11T07:41:23Z</time></trkpt><trkpt lat="46.28796303123603" lon="9.180799570929226"><ele>395.0</ele><time>2026-04-11T07:41:24Z</time></trkpt><trkpt lat="46.28816758138179" lon="9.180839468443073"><ele>395.3333333333333</ele><time>2026-04-11T07:41:25Z</time></trkpt><trkpt lat="46.28837203122922" lon="9.180880208201978"><ele>395.66666666666663</ele><time>2026-04-11T07:41:26Z</time></trkpt><trkpt lat="46.288575510423115" lon="9.180919571458269"><ele>396.0</ele><time>2026-04-11T07:41:27Z</time></trkpt><trkpt lat="46.28877975501159" lon="9.18096378318261"><ele>396.66666666666663</ele><time>2026-04-11T07:41:28Z</time></trkpt><trkpt lat="46.28898262044945" lon="9.181008217587033"><ele>397.3333333333333</ele><time>2026-04-11T07:41:29Z</time></trkpt><trkpt lat="46.289187404766196" lon="9.181050271582832"><ele>398.0</ele><time>2026-04-11T07:41:30Z</time></trkpt><trkpt lat="46.28939393429113" lon="9.181090688432512"><ele>398.0</ele><time>2026-04-11T07:41:31Z</time></trkpt><trkpt lat="46.28959955185695" lon="9.181130856778482"><ele>398.0</ele><time>2026-04-11T07:41:32Z</time></trkpt><trkpt lat="46.28980473577716" lon="9.181169886552496"><ele>398.0</ele><time>2026-04-11T07:41:33Z</time></trkpt><trkpt lat="46.29000826785116" lon="9.181209330578909"><ele>397.3333333333333</ele><time>2026-04-11T07:41:34Z</time></trkpt><trkpt lat="46.29021461661184" lon="9.18125303310498"><ele>396.66666666666663</ele><time>2026-04-11T07:41:35Z</time></trkpt><trkpt lat="46.29041884477467" lon="9.18129733778592"><ele>396.0</ele><time>2026-04-11T07:41:36Z</time></trkpt><trkpt lat="46.290624396140856" lon="9.181342522373408"><ele>396.0</ele><time>2026-04-11T07:41:37Z</time></trkpt><trkpt lat="46.29082992506886" lon="9.181390597602753"><ele>396.0</ele><time>2026-04-11T07:41:38Z</time></trkpt><trkpt lat="46.29103506954906" lon="9.181436453404316"><ele>396.0</ele><time>2026-04-11T07:41:39Z</time></trkpt><trkpt lat="46.29123897469501" lon="9.181483994771847"><ele>401.33333333333337</ele><time>2026-04-11T07:41:40Z</time></trkpt><trkpt lat="46.291441576360185" lon="9.18153588975228"><ele>406.6666666666667</ele><time>2026-04-11T07:41:41Z</time></trkpt><trkpt lat="46.2916444365206" lon="9.18159394615397"><ele>412.0</ele><time>2026-04-11T07:41:42Z</time></trkpt><trkpt lat="46.29184596713231" lon="9.181657275346206"><ele>412.0</ele><time>2026-04-11T07:41:43Z</time></trkpt><trkpt lat="46.29204888636436" lon="9.18172542990035"><ele>412.0</ele><time>2026-04-11T07:41:44Z</time></trkpt><trkpt lat="46.29225078797166" lon="9.181795542546874"><ele>412.0</ele><time>2026-04-11T07:41:45Z</time></trkpt><trkpt lat="46.29245045649379" lon="9.181871601651542"><ele>410.6666666666667</ele><time>2026-04-11T07:41:46Z</time></trkpt><trkpt lat="46.29264618293205" lon="9.181962661578636"><ele>409.33333333333337</ele><time>2026-04-11T07:41:47Z</time></trkpt><trkpt lat="46.29284298738912" lon="9.182060103460973"><ele>408.0</ele><time>2026-04-11T07:41:48Z</time></trkpt><trkpt lat="46.29303812750199" lon="9.182163877129266"><ele>406.33333333333337</ele><time>2026-04-11T07:41:49Z</time></trkpt><trkpt lat="46.293230778559405" lon="9.182274851440988"><ele>404.6666666666667</ele><time>2026-04-11T07:41:50Z</time></trkpt><trkpt lat="46.2934207629943" lon="9.18239150614248"><ele>403.0</ele><time>2026-04-11T07:41:51Z</time></trkpt><trkpt lat="46.29360967649048" lon="9.182516234694814"><ele>403.0</ele><time>2026-04-11T07:41:52Z</time></trkpt><trkpt lat="46.293795673618405" lon="9.182651644529999"><ele>403.0</ele><time>2026-04-11T07:41:53Z</time></trkpt><trkpt lat="46.2939790376511" lon="9.182794559380183"><ele>403.0</ele><time>2026-04-11T07:41:54Z</time></trkpt><trkpt lat="46.29415961750126" lon="9.182943031582402"><ele>403.0</ele><time>2026-04-11T07:41:55Z</time></trkpt><trkpt lat="46.29433568844031" lon="9.183097014517587"><ele>403.0</ele><time>2026-04-11T07:41:56Z</time></trkpt><trkpt lat="46.29451271785371" lon="9.18326148055615"><ele>403.0</ele><time>2026-04-11T07:41:57Z</time></trkpt><trkpt lat="46.29468469654203" lon="9.183426945479948"><ele>403.33333333333337</ele><time>2026-04-11T07:41:58Z</time></trkpt><trkpt lat="46.29485551947038" lon="9.183595660224828"><ele>403.66666666666663</ele><time>2026-04-11T07:41:59Z</time></trkpt><trkpt lat="46.29502331310578" lon="9.183772385673029"><ele>404.0</ele><time>2026-04-11T07:42:00Z</time></trkpt><trkpt lat="46.29518859494841" lon="9.183954543712165"><ele>403.3333333333333</ele><time>2026-04-11T07:42:01Z</time></trkpt><trkpt lat="46.29535205654398" lon="9.184137439812327"><ele>402.66666666666663</ele><time>2026-04-11T07:42:02Z</time></trkpt><trkpt lat="46.29551540910756" lon="9.184322433497881"><ele>402.0</ele><time>2026-04-11T07:42:03Z</time></trkpt><trkpt lat="46.295675982004354" lon="9.184510705938548"><ele>402.0</ele><time>2026-04-11T07:42:04Z</time></trkpt><trkpt lat="46.295836191300204" lon="9.184698566731546"><ele>402.0</ele><time>2026-04-11T07:42:05Z</time></trkpt><trkpt lat="46.295996295880535" lon="9.184887765198745"><ele>402.0</ele><time>2026-04-11T07:42:06Z</time></trkpt><trkpt lat="46.296155453566264" lon="9.185081043360727"><ele>402.66666666666663</ele><time>2026-04-11T07:42:07Z</time></trkpt><trkpt lat="46.29631631297611" lon="9.185276033846224"><ele>403.3333333333333</ele><time>2026-04-11T07:42:08Z</time></trkpt><trkpt lat="46.29647438225205" lon="9.185470284300536"><ele>404.0</ele><time>2026-04-11T07:42:09Z</time></trkpt><trkpt lat="46.29663320693665" lon="9.185664645698228"><ele>405.0</ele><time>2026-04-11T07:42:10Z</time></trkpt><trkpt lat="46.29679233287153" lon="9.185853675866381"><ele>406.0</ele><time>2026-04-11T07:42:11Z</time></trkpt><trkpt lat="46.29695271800637" lon="9.186041895945683"><ele>407.0</ele><time>2026-04-11T07:42:12Z</time></trkpt><trkpt lat="46.297113849806955" lon="9.186227073512956"><ele>406.66666666666663</ele><time>2026-04-11T07:42:13Z</time></trkpt><trkpt lat="46.29727566431227" lon="9.18640984301614"><ele>406.33333333333337</ele><time>2026-04-11T07:42:14Z</time></trkpt><trkpt lat="46.29743878067271" lon="9.186593473255996"><ele>406.0</ele><time>2026-04-11T07:42:15Z</time></trkpt><trkpt lat="46.2976043586511" lon="9.186772265485178"><ele>405.6666666666667</ele><time>2026-04-11T07:42:16Z</time></trkpt><trkpt lat="46.297771593125255" lon="9.186949658814461"><ele>405.33333333333337</ele><time>2026-04-11T07:42:17Z</time></trkpt><trkpt lat="46.29793692623149" lon="9.187125600681927"><ele>405.0</ele><time>2026-04-11T07:42:18Z</time></trkpt><trkpt lat="46.29810415546948" lon="9.187304242771745"><ele>405.66666666666663</ele><time>2026-04-11T07:42:19Z</time></trkpt><trkpt lat="46.29827041731833" lon="9.187482599439994"><ele>406.3333333333333</ele><time>2026-04-11T07:42:20Z</time></trkpt><trkpt lat="46.298438819218326" lon="9.18765342680786"><ele>407.0</ele><time>2026-04-11T07:42:21Z</time></trkpt><trkpt lat="46.29861060887975" lon="9.187818350045818"><ele>407.0</ele><time>2026-04-11T07:42:22Z</time></trkpt><trkpt lat="46.2987840784093" lon="9.187981891222298"><ele>407.0</ele><time>2026-04-11T07:42:23Z</time></trkpt><trkpt lat="46.29895856040844" lon="9.188146011313279"><ele>407.0</ele><time>2026-04-11T07:42:24Z</time></trkpt><trkpt lat="46.29913054889106" lon="9.188308056600357"><ele>407.3333333333333</ele><time>2026-04-11T07:42:25Z</time></trkpt><trkpt lat="46.29930454568868" lon="9.18847029341002"><ele>407.66666666666663</ele><time>2026-04-11T07:42:26Z</time></trkpt><trkpt lat="46.29947878558538" lon="9.188630703428052"><ele>408.0</ele><time>2026-04-11T07:42:27Z</time></trkpt><trkpt lat="46.29965369718541" lon="9.188788888061861"><ele>407.66666666666663</ele><time>2026-04-11T07:42:28Z</time></trkpt><trkpt lat="46.29983163274001" lon="9.188944088841026"><ele>407.3333333333333</ele><time>2026-04-11T07:42:29Z</time></trkpt><trkpt lat="46.30001143184221" lon="9.18909528992331"><ele>407.0</ele><time>2026-04-11T07:42:30Z</time></trkpt><trkpt lat="46.30019170737785" lon="9.189245609915659"><ele>407.0</ele><time>2026-04-11T07:42:31Z</time></trkpt><trkpt lat="46.30037096318798" lon="9.189398034022723"><ele>407.0</ele><time>2026-04-11T07:42:32Z</time></trkpt><trkpt lat="46.30054882850131" lon="9.18954794773899"><ele>407.0</ele><time>2026-04-11T07:42:32.999Z</time></trkpt><trkpt lat="46.300728109621936" lon="9.189693032244962"><ele>407.0</ele><time>2026-04-11T07:42:33.999Z</time></trkpt><trkpt lat="46.30090816325186" lon="9.189836745848632"><ele>407.0</ele><time>2026-04-11T07:42:34.999Z</time></trkpt><trkpt lat="46.301089659424775" lon="9.189981288424951"><ele>407.0</ele><time>2026-04-11T07:42:35.999Z</time></trkpt><trkpt lat="46.301271465895034" lon="9.190126856501573"><ele>407.3333333333333</ele><time>2026-04-11T07:42:36.999Z</time></trkpt><trkpt lat="46.30145159965285" lon="9.19027321994117"><ele>407.66666666666663</ele><time>2026-04-11T07:42:37.999Z</time></trkpt><trkpt lat="46.301632531565545" lon="9.190419252297692"><ele>408.0</ele><time>2026-04-11T07:42:38.999Z</time></trkpt><trkpt lat="46.30181402002929" lon="9.190564332221955"><ele>408.0</ele><time>2026-04-11T07:42:39.999Z</time></trkpt><trkpt lat="46.301995394342775" lon="9.190708773043296"><ele>408.0</ele><time>2026-04-11T07:42:40.999Z</time></trkpt><trkpt lat="46.302177534631035" lon="9.190854855523112"><ele>408.0</ele><time>2026-04-11T07:42:41.999Z</time></trkpt><trkpt lat="46.30235811319852" lon="9.190999039431142"><ele>408.66666666666663</ele><time>2026-04-11T07:42:42.999Z</time></trkpt><trkpt lat="46.30253866940969" lon="9.191144753718053"><ele>409.3333333333333</ele><time>2026-04-11T07:42:43.999Z</time></trkpt><trkpt lat="46.30272031416407" lon="9.191290948526794"><ele>410.0</ele><time>2026-04-11T07:42:45Z</time></trkpt><trkpt lat="46.302901818331186" lon="9.191437819977244"><ele>410.3333333333333</ele><time>2026-04-11T07:42:46Z</time></trkpt><trkpt lat="46.3030847359871" lon="9.191579900824278"><ele>410.66666666666663</ele><time>2026-04-11T07:42:47Z</time></trkpt><trkpt lat="46.30326571591917" lon="9.191723775552317"><ele>411.0</ele><time>2026-04-11T07:42:48Z</time></trkpt><trkpt lat="46.303446078244804" lon="9.191869486732358"><ele>411.0</ele><time>2026-04-11T07:42:49Z</time></trkpt><trkpt lat="46.30362725886036" lon="9.192014814937428"><ele>411.0</ele><time>2026-04-11T07:42:50Z</time></trkpt><trkpt lat="46.30380817060096" lon="9.192157820200741"><ele>411.0</ele><time>2026-04-11T07:42:51Z</time></trkpt><trkpt lat="46.30398868604674" lon="9.192302077785804"><ele>411.33333333333337</ele><time>2026-04-11T07:42:52Z</time></trkpt><trkpt lat="46.30416862733183" lon="9.192447867821725"><ele>411.6666666666667</ele><time>2026-04-11T07:42:53Z</time></trkpt><trkpt lat="46.304350043190595" lon="9.19259265789691"><ele>412.0</ele><time>2026-04-11T07:42:54Z</time></trkpt><trkpt lat="46.30453195791628" lon="9.19273836889034"><ele>412.0</ele><time>2026-04-11T07:42:55Z</time></trkpt><trkpt lat="46.304712424424906" lon="9.192883291914052"><ele>412.0</ele><time>2026-04-11T07:42:56Z</time></trkpt><trkpt lat="46.30489454147675" lon="9.193025565587124"><ele>412.0</ele><time>2026-04-11T07:42:57Z</time></trkpt><trkpt lat="46.30507582084698" lon="9.193169610338323"><ele>412.6666666666667</ele><time>2026-04-11T07:42:58Z</time></trkpt><trkpt lat="46.30525641093096" lon="9.193313367645777"><ele>413.33333333333337</ele><time>2026-04-11T07:42:59Z</time></trkpt><trkpt lat="46.305437101419585" lon="9.193458733985151"><ele>414.0</ele><time>2026-04-11T07:43:00Z</time></trkpt><trkpt lat="46.30561829326381" lon="9.19360431366035"><ele>414.0</ele><time>2026-04-11T07:43:01Z</time></trkpt><trkpt lat="46.30579920263946" lon="9.193750514490697"><ele>414.0</ele><time>2026-04-11T07:43:02Z</time></trkpt><trkpt lat="46.30598001849234" lon="9.193895942453755"><ele>414.0</ele><time>2026-04-11T07:43:03Z</time></trkpt><trkpt lat="46.306161497579296" lon="9.19403975967086"><ele>414.33333333333337</ele><time>2026-04-11T07:43:04Z</time></trkpt><trkpt lat="46.30634204762726" lon="9.194186753876197"><ele>414.6666666666667</ele><time>2026-04-11T07:43:05Z</time></trkpt><trkpt lat="46.30652205921911" lon="9.194337495273208"><ele>415.0</ele><time>2026-04-11T07:43:06Z</time></trkpt><trkpt lat="46.30670371460418" lon="9.194481703049668"><ele>415.0</ele><time>2026-04-11T07:43:07Z</time></trkpt><trkpt lat="46.30688612421566" lon="9.194624548041734"><ele>415.0</ele><time>2026-04-11T07:43:08Z</time></trkpt><trkpt lat="46.30706739833323" lon="9.194766854644758"><ele>415.0</ele><time>2026-04-11T07:43:09Z</time></trkpt><trkpt lat="46.307247874218874" lon="9.194910205806302"><ele>415.33333333333337</ele><time>2026-04-11T07:43:10Z</time></trkpt><trkpt lat="46.30742953836183" lon="9.195055087855632"><ele>415.66666666666663</ele><time>2026-04-11T07:43:11Z</time></trkpt><trkpt lat="46.3076114757169" lon="9.195198783348163"><ele>416.0</ele><time>2026-04-11T07:43:12Z</time></trkpt><trkpt lat="46.30779218819609" lon="9.195342812046091"><ele>416.0</ele><time>2026-04-11T07:43:13Z</time></trkpt><trkpt lat="46.30797293385081" lon="9.195487951601468"><ele>416.0</ele><time>2026-04-11T07:43:14Z</time></trkpt><trkpt lat="46.30815289245034" lon="9.195633795109952"><ele>416.0</ele><time>2026-04-11T07:43:15Z</time></trkpt><trkpt lat="46.3083320012219" lon="9.195777627668745"><ele>415.66666666666663</ele><time>2026-04-11T07:43:16Z</time></trkpt><trkpt lat="46.30851313904467" lon="9.195924412430946"><ele>415.33333333333337</ele><time>2026-04-11T07:43:17Z</time></trkpt><trkpt lat="46.30869585941951" lon="9.196068158382491"><ele>415.0</ele><time>2026-04-11T07:43:18Z</time></trkpt><trkpt lat="46.30887686988655" lon="9.196213968409207"><ele>416.0</ele><time>2026-04-11T07:43:19Z</time></trkpt><trkpt lat="46.30905884648781" lon="9.196360643521002"><ele>417.0</ele><time>2026-04-11T07:43:20Z</time></trkpt><trkpt lat="46.30923940615593" lon="9.196506855445907"><ele>418.0</ele><time>2026-04-11T07:43:21Z</time></trkpt><trkpt lat="46.30941955155677" lon="9.196651537692855"><ele>418.0</ele><time>2026-04-11T07:43:22Z</time></trkpt><trkpt lat="46.309600341745806" lon="9.19679498501857"><ele>418.0</ele><time>2026-04-11T07:43:23Z</time></trkpt><trkpt lat="46.30978127572249" lon="9.196937511208562"><ele>418.0</ele><time>2026-04-11T07:43:24Z</time></trkpt><trkpt lat="46.30996350477546" lon="9.197084464901172"><ele>418.33333333333337</ele><time>2026-04-11T07:43:25Z</time></trkpt><trkpt lat="46.31014379715698" lon="9.197229643456778"><ele>418.66666666666663</ele><time>2026-04-11T07:43:26Z</time></trkpt><trkpt lat="46.31032521716996" lon="9.197374627454554"><ele>419.0</ele><time>2026-04-11T07:43:27Z</time></trkpt><trkpt lat="46.31050508476617" lon="9.197519586915961"><ele>419.66666666666663</ele><time>2026-04-11T07:43:28Z</time></trkpt><trkpt lat="46.31068524204289" lon="9.197665150672917"><ele>420.33333333333337</ele><time>2026-04-11T07:43:29Z</time></trkpt><trkpt lat="46.310865688774626" lon="9.19780962955038"><ele>421.0</ele><time>2026-04-11T07:43:30Z</time></trkpt><trkpt lat="46.31104738138535" lon="9.197953503217647"><ele>421.0</ele><time>2026-04-11T07:43:31Z</time></trkpt><trkpt lat="46.311229055734124" lon="9.198097407909989"><ele>421.0</ele><time>2026-04-11T07:43:32Z</time></trkpt><trkpt lat="46.31140910383519" lon="9.198243078333237"><ele>421.0</ele><time>2026-04-11T07:43:33Z</time></trkpt><trkpt lat="46.31158947427637" lon="9.198389245586748"><ele>421.33333333333337</ele><time>2026-04-11T07:43:34Z</time></trkpt><trkpt lat="46.31177120145179" lon="9.198533840971272"><ele>421.66666666666663</ele><time>2026-04-11T07:43:35Z</time></trkpt><trkpt lat="46.311952817240304" lon="9.198676902943046"><ele>422.0</ele><time>2026-04-11T07:43:36Z</time></trkpt><trkpt lat="46.312134224007956" lon="9.19882198128037"><ele>422.0</ele><time>2026-04-11T07:43:37Z</time></trkpt><trkpt lat="46.31231625314291" lon="9.198965403087701"><ele>422.0</ele><time>2026-04-11T07:43:38Z</time></trkpt><trkpt lat="46.31249856353342" lon="9.19910934259076"><ele>422.0</ele><time>2026-04-11T07:43:39Z</time></trkpt><trkpt lat="46.31268035623067" lon="9.199254422589513"><ele>422.0</ele><time>2026-04-11T07:43:40Z</time></trkpt><trkpt lat="46.31286080576829" lon="9.199400246044796"><ele>422.0</ele><time>2026-04-11T07:43:41Z</time></trkpt><trkpt lat="46.31304108638127" lon="9.199546906566038"><ele>422.0</ele><time>2026-04-11T07:43:42Z</time></trkpt><trkpt lat="46.31321987216955" lon="9.19969312002467"><ele>422.3333333333333</ele><time>2026-04-11T07:43:43Z</time></trkpt><trkpt lat="46.313400607837835" lon="9.19983837994185"><ele>422.66666666666663</ele><time>2026-04-11T07:43:44Z</time></trkpt><trkpt lat="46.313582015755216" lon="9.199981793865524"><ele>423.0</ele><time>2026-04-11T07:43:45Z</time></trkpt><trkpt lat="46.31376316976806" lon="9.200125921811535"><ele>424.66666666666663</ele><time>2026-04-11T07:43:46Z</time></trkpt><trkpt lat="46.31394385903977" lon="9.200270842493257"><ele>426.3333333333333</ele><time>2026-04-11T07:43:47Z</time></trkpt><trkpt lat="46.314124663039166" lon="9.20041525734791"><ele>428.0</ele><time>2026-04-11T07:43:48Z</time></trkpt><trkpt lat="46.31430456879718" lon="9.200562716291447"><ele>428.0</ele><time>2026-04-11T07:43:49Z</time></trkpt><trkpt lat="46.31448426467514" lon="9.20070972557554"><ele>428.0</ele><time>2026-04-11T07:43:50Z</time></trkpt><trkpt lat="46.31466465098532" lon="9.200856499165567"><ele>428.0</ele><time>2026-04-11T07:43:51Z</time></trkpt><trkpt lat="46.31484582467607" lon="9.201001759207431"><ele>428.0</ele><time>2026-04-11T07:43:52Z</time></trkpt><trkpt lat="46.31502789618175" lon="9.201144204247159"><ele>428.0</ele><time>2026-04-11T07:43:53Z</time></trkpt><trkpt lat="46.3152085128789" lon="9.20129046017546"><ele>428.0</ele><time>2026-04-11T07:43:54Z</time></trkpt><trkpt lat="46.31538925684254" lon="9.201435354459074"><ele>428.3333333333333</ele><time>2026-04-11T07:43:55Z</time></trkpt><trkpt lat="46.3155710876033" lon="9.201579138167"><ele>428.66666666666663</ele><time>2026-04-11T07:43:56Z</time></trkpt><trkpt lat="46.31575275720347" lon="9.201722129827994"><ele>429.0</ele><time>2026-04-11T07:43:57Z</time></trkpt><trkpt lat="46.31593567356071" lon="9.201862786893662"><ele>429.0</ele><time>2026-04-11T07:43:58Z</time></trkpt><trkpt lat="46.31611922343881" lon="9.201998655954691"><ele>429.0</ele><time>2026-04-11T07:43:59Z</time></trkpt><trkpt lat="46.31630229214933" lon="9.202138947655904"><ele>429.0</ele><time>2026-04-11T07:44:00Z</time></trkpt><trkpt lat="46.31648519864433" lon="9.202280513752198"><ele>429.66666666666663</ele><time>2026-04-11T07:44:01Z</time></trkpt><trkpt lat="46.31666816594497" lon="9.202424976254667"><ele>430.3333333333333</ele><time>2026-04-11T07:44:02Z</time></trkpt><trkpt lat="46.31685154024646" lon="9.202560217905706"><ele>431.0</ele><time>2026-04-11T07:44:03Z</time></trkpt><trkpt lat="46.317037113627094" lon="9.20269896619156"><ele>431.0</ele><time>2026-04-11T07:44:04Z</time></trkpt><trkpt lat="46.317219653647086" lon="9.202838740856158"><ele>431.0</ele><time>2026-04-11T07:44:05Z</time></trkpt><trkpt lat="46.317403247081316" lon="9.202974884734765"><ele>431.0</ele><time>2026-04-11T07:44:06Z</time></trkpt><trkpt lat="46.31758738492464" lon="9.203112362171176"><ele>431.3333333333333</ele><time>2026-04-11T07:44:07Z</time></trkpt><trkpt lat="46.3177711181803" lon="9.203248947946488"><ele>431.66666666666663</ele><time>2026-04-11T07:44:08Z</time></trkpt><trkpt lat="46.31795427476992" lon="9.203388702651035"><ele>432.0</ele><time>2026-04-11T07:44:09Z</time></trkpt><trkpt lat="46.318137935021305" lon="9.203526619318813"><ele>432.0</ele><time>2026-04-11T07:44:10Z</time></trkpt><trkpt lat="46.318321891677655" lon="9.203665422974387"><ele>432.0</ele><time>2026-04-11T07:44:11Z</time></trkpt><trkpt lat="46.318505402797484" lon="9.203802109465581"><ele>432.0</ele><time>2026-04-11T07:44:12Z</time></trkpt><trkpt lat="46.31868911260674" lon="9.203940692891742"><ele>433.33333333333337</ele><time>2026-04-11T07:44:13Z</time></trkpt><trkpt lat="46.31887278407891" lon="9.204079129567726"><ele>434.6666666666667</ele><time>2026-04-11T07:44:14Z</time></trkpt><trkpt lat="46.31905618602473" lon="9.204217672566795"><ele>436.0</ele><time>2026-04-11T07:44:15Z</time></trkpt><trkpt lat="46.31923956961218" lon="9.204355033390177"><ele>436.0</ele><time>2026-04-11T07:44:16Z</time></trkpt><trkpt lat="46.31942295286659" lon="9.20449379080716"><ele>436.0</ele><time>2026-04-11T07:44:17Z</time></trkpt><trkpt lat="46.31960612669197" lon="9.204631671682899"><ele>436.0</ele><time>2026-04-11T07:44:18Z</time></trkpt><trkpt lat="46.319788460137914" lon="9.2047728826964"><ele>434.6666666666667</ele><time>2026-04-11T07:44:19Z</time></trkpt><trkpt lat="46.319973015627276" lon="9.204909151086566"><ele>433.33333333333337</ele><time>2026-04-11T07:44:19.999Z</time></trkpt><trkpt lat="46.320156918988076" lon="9.205047231820199"><ele>432.0</ele><time>2026-04-11T07:44:20.999Z</time></trkpt><trkpt lat="46.32033878236709" lon="9.205185784307966"><ele>432.0</ele><time>2026-04-11T07:44:21.999Z</time></trkpt><trkpt lat="46.32052274970228" lon="9.205321414553934"><ele>432.0</ele><time>2026-04-11T07:44:22.999Z</time></trkpt><trkpt lat="46.320707102787125" lon="9.205457876679636"><ele>432.0</ele><time>2026-04-11T07:44:23.999Z</time></trkpt><trkpt lat="46.32089060615453" lon="9.20559726546033"><ele>433.0</ele><time>2026-04-11T07:44:24.999Z</time></trkpt><trkpt lat="46.32107335338599" lon="9.205739000650537"><ele>434.0</ele><time>2026-04-11T07:44:25.999Z</time></trkpt><trkpt lat="46.32125716996963" lon="9.205877747035984"><ele>435.0</ele><time>2026-04-11T07:44:26.999Z</time></trkpt><trkpt lat="46.32144093143163" lon="9.206016633176896"><ele>435.33333333333337</ele><time>2026-04-11T07:44:27.999Z</time></trkpt><trkpt lat="46.32162569302562" lon="9.206153099365931"><ele>435.6666666666667</ele><time>2026-04-11T07:44:28.999Z</time></trkpt><trkpt lat="46.32180909261159" lon="9.206290417847127"><ele>436.0</ele><time>2026-04-11T07:44:29.999Z</time></trkpt><trkpt lat="46.321993688697006" lon="9.206425036010481"><ele>436.0</ele><time>2026-04-11T07:44:30.999Z</time></trkpt><trkpt lat="46.32217887721702" lon="9.206559159176557"><ele>436.0</ele><time>2026-04-11T07:44:31.999Z</time></trkpt><trkpt lat="46.322363942203054" lon="9.206690149809042"><ele>436.0</ele><time>2026-04-11T07:44:32.999Z</time></trkpt><trkpt lat="46.322550627628935" lon="9.206818082679186"><ele>436.0</ele><time>2026-04-11T07:44:33.999Z</time></trkpt><trkpt lat="46.322738847949125" lon="9.206943721993184"><ele>436.0</ele><time>2026-04-11T07:44:34.999Z</time></trkpt><trkpt lat="46.32292831219057" lon="9.207064680871923"><ele>436.0</ele><time>2026-04-11T07:44:35.999Z</time></trkpt><trkpt lat="46.323118778886055" lon="9.207182839739293"><ele>436.0</ele><time>2026-04-11T07:44:36.999Z</time></trkpt><trkpt lat="46.32331116231716" lon="9.207296167705143"><ele>436.0</ele><time>2026-04-11T07:44:37.999Z</time></trkpt><trkpt lat="46.3235045473533" lon="9.207405652496952"><ele>436.0</ele><time>2026-04-11T07:44:38.999Z</time></trkpt><trkpt lat="46.323699491992585" lon="9.207508720284793"><ele>436.33333333333337</ele><time>2026-04-11T07:44:39.999Z</time></trkpt><trkpt lat="46.3238950969656" lon="9.207606480375707"><ele>436.66666666666663</ele><time>2026-04-11T07:44:40.999Z</time></trkpt><trkpt lat="46.32409197520514" lon="9.207700319945376"><ele>437.0</ele><time>2026-04-11T07:44:41.999Z</time></trkpt><trkpt lat="46.32428994735218" lon="9.207790652283242"><ele>437.0</ele><time>2026-04-11T07:44:42.999Z</time></trkpt><trkpt lat="46.32448752976727" lon="9.207878206539984"><ele>437.0</ele><time>2026-04-11T07:44:43.999Z</time></trkpt><trkpt lat="46.324686185915745" lon="9.207963590891291"><ele>437.0</ele><time>2026-04-11T07:44:44.999Z</time></trkpt><trkpt lat="46.32488620933809" lon="9.208041179074014"><ele>437.0</ele><time>2026-04-11T07:44:45.999Z</time></trkpt><trkpt lat="46.32508643213765" lon="9.208114301989326"><ele>437.0</ele><time>2026-04-11T07:44:46.999Z</time></trkpt><trkpt lat="46.32528821450246" lon="9.208181132824002"><ele>437.0</ele><time>2026-04-11T07:44:47.999Z</time></trkpt><trkpt lat="46.32548984374411" lon="9.208243958614977"><ele>436.0</ele><time>2026-04-11T07:44:48.999Z</time></trkpt><trkpt lat="46.32569275950796" lon="9.208303104569605"><ele>435.0</ele><time>2026-04-11T07:44:50Z</time></trkpt><trkpt lat="46.325895664830526" lon="9.208356890702891"><ele>434.0</ele><time>2026-04-11T07:44:51Z</time></trkpt><trkpt lat="46.32610027715479" lon="9.208407153723167"><ele>434.0</ele><time>2026-04-11T07:44:52Z</time></trkpt><trkpt lat="46.32630535956775" lon="9.208452710448114"><ele>434.0</ele><time>2026-04-11T07:44:53Z</time></trkpt><trkpt lat="46.326510740702595" lon="9.20849414160534"><ele>434.0</ele><time>2026-04-11T07:44:54Z</time></trkpt><trkpt lat="46.32671616358505" lon="9.20853197903537"><ele>438.0</ele><time>2026-04-11T07:44:55Z</time></trkpt><trkpt lat="46.326920922830986" lon="9.208566167535116"><ele>442.0</ele><time>2026-04-11T07:44:56Z</time></trkpt><trkpt lat="46.32712646937381" lon="9.208597865510702"><ele>446.0</ele><time>2026-04-11T07:44:57Z</time></trkpt><trkpt lat="46.32733206267662" lon="9.20862179398986"><ele>446.0</ele><time>2026-04-11T07:44:58Z</time></trkpt><trkpt lat="46.32753996450535" lon="9.208640204055227"><ele>446.0</ele><time>2026-04-11T07:44:59Z</time></trkpt><trkpt lat="46.32774750937291" lon="9.208650833154083"><ele>446.0</ele><time>2026-04-11T07:45:00Z</time></trkpt><trkpt lat="46.327954021204484" lon="9.20866184345372"><ele>446.0</ele><time>2026-04-11T07:45:01Z</time></trkpt><trkpt lat="46.328161564195526" lon="9.208670941229393"><ele>446.0</ele><time>2026-04-11T07:45:02Z</time></trkpt><trkpt lat="46.32836818174345" lon="9.208676389853393"><ele>446.0</ele><time>2026-04-11T07:45:03Z</time></trkpt><trkpt lat="46.32857455540894" lon="9.208678814623529"><ele>446.0</ele><time>2026-04-11T07:45:04Z</time></trkpt><trkpt lat="46.328781793912746" lon="9.208678798740243"><ele>446.0</ele><time>2026-04-11T07:45:05Z</time></trkpt><trkpt lat="46.32898869180444" lon="9.208676789350793"><ele>446.0</ele><time>2026-04-11T07:45:06Z</time></trkpt><trkpt lat="46.32919650062466" lon="9.20867678268721"><ele>446.66666666666663</ele><time>2026-04-11T07:45:07Z</time></trkpt><trkpt lat="46.32940398939363" lon="9.20867841747455"><ele>447.33333333333337</ele><time>2026-04-11T07:45:08Z</time></trkpt><trkpt lat="46.329610937182885" lon="9.208683225489393"><ele>448.0</ele><time>2026-04-11T07:45:09Z</time></trkpt><trkpt lat="46.32981783727879" lon="9.208690799051437"><ele>448.0</ele><time>2026-04-11T07:45:10Z</time></trkpt><trkpt lat="46.330024605186466" lon="9.208698220506532"><ele>448.0</ele><time>2026-04-11T07:45:11Z</time></trkpt><trkpt lat="46.33023128851704" lon="9.20871764547562"><ele>448.0</ele><time>2026-04-11T07:45:12Z</time></trkpt><trkpt lat="46.33043709219341" lon="9.208742820124153"><ele>447.6666666666667</ele><time>2026-04-11T07:45:13Z</time></trkpt><trkpt lat="46.33064305619509" lon="9.208775681901095"><ele>447.33333333333337</ele><time>2026-04-11T07:45:14Z</time></trkpt><trkpt lat="46.33084782149542" lon="9.208819801064042"><ele>447.0</ele><time>2026-04-11T07:45:15Z</time></trkpt><trkpt lat="46.331050952939385" lon="9.208880825487821"><ele>447.0</ele><time>2026-04-11T07:45:16Z</time></trkpt><trkpt lat="46.33125066523252" lon="9.208951476839493"><ele>447.0</ele><time>2026-04-11T07:45:17Z</time></trkpt><trkpt lat="46.33145151526373" lon="9.209024871236478"><ele>447.0</ele><time>2026-04-11T07:45:18Z</time></trkpt><trkpt lat="46.33165065509849" lon="9.209109038168059"><ele>448.33333333333337</ele><time>2026-04-11T07:45:19Z</time></trkpt><trkpt lat="46.331847743358615" lon="9.209197775327764"><ele>449.6666666666667</ele><time>2026-04-11T07:45:20Z</time></trkpt><trkpt lat="46.33204259218033" lon="9.209299064143062"><ele>451.0</ele><time>2026-04-11T07:45:21Z</time></trkpt><trkpt lat="46.33223303958073" lon="9.209413461734076"><ele>451.0</ele><time>2026-04-11T07:45:22Z</time></trkpt><trkpt lat="46.33242226315038" lon="9.209534066704776"><ele>451.0</ele><time>2026-04-11T07:45:23Z</time></trkpt><trkpt lat="46.332609146385366" lon="9.209659110759288"><ele>451.0</ele><time>2026-04-11T07:45:24Z</time></trkpt><trkpt lat="46.33279148541724" lon="9.209799873013033"><ele>452.0</ele><time>2026-04-11T07:45:25Z</time></trkpt><trkpt lat="46.33297176412663" lon="9.209944724774628"><ele>453.0</ele><time>2026-04-11T07:45:26Z</time></trkpt><trkpt lat="46.333149440348045" lon="9.210099435523412"><ele>454.0</ele><time>2026-04-11T07:45:27Z</time></trkpt><trkpt lat="46.333324165023775" lon="9.210263128274079"><ele>454.0</ele><time>2026-04-11T07:45:28Z</time></trkpt><trkpt lat="46.33349419278535" lon="9.210433361999884"><ele>454.0</ele><time>2026-04-11T07:45:29Z</time></trkpt><trkpt lat="46.33366111163894" lon="9.21060926423222"><ele>454.0</ele><time>2026-04-11T07:45:30Z</time></trkpt><trkpt lat="46.33382725844756" lon="9.210788643845454"><ele>455.0</ele><time>2026-04-11T07:45:31Z</time></trkpt><trkpt lat="46.333990917179385" lon="9.210972319196983"><ele>456.0</ele><time>2026-04-11T07:45:32Z</time></trkpt><trkpt lat="46.334154691970106" lon="9.21115694751091"><ele>457.0</ele><time>2026-04-11T07:45:33Z</time></trkpt><trkpt lat="46.33431948353935" lon="9.211338349107175"><ele>457.0</ele><time>2026-04-11T07:45:34Z</time></trkpt><trkpt lat="46.33448252690647" lon="9.211521443822205"><ele>457.0</ele><time>2026-04-11T07:45:35Z</time></trkpt><trkpt lat="46.334645861844244" lon="9.211706269904719"><ele>457.0</ele><time>2026-04-11T07:45:36Z</time></trkpt><trkpt lat="46.334808145931575" lon="9.211890744983675"><ele>457.6666666666667</ele><time>2026-04-11T07:45:37Z</time></trkpt><trkpt lat="46.33496788241871" lon="9.212080067027214"><ele>458.33333333333337</ele><time>2026-04-11T07:45:38Z</time></trkpt><trkpt lat="46.33512842684364" lon="9.212268945977849"><ele>459.0</ele><time>2026-04-11T07:45:39Z</time></trkpt><trkpt lat="46.335289360331515" lon="9.212455658713074"><ele>459.66666666666663</ele><time>2026-04-11T07:45:40Z</time></trkpt><trkpt lat="46.33545098896007" lon="9.212642159893836"><ele>460.3333333333333</ele><time>2026-04-11T07:45:41Z</time></trkpt><trkpt lat="46.3356093662669" lon="9.212832885873318"><ele>461.0</ele><time>2026-04-11T07:45:42Z</time></trkpt><trkpt lat="46.335768085755085" lon="9.213024574056348"><ele>463.0</ele><time>2026-04-11T07:45:43Z</time></trkpt><trkpt lat="46.33592914691" lon="9.213212867977576"><ele>465.0</ele><time>2026-04-11T07:45:44Z</time></trkpt><trkpt lat="46.336089229171996" lon="9.21340280907959"><ele>467.0</ele><time>2026-04-11T07:45:45Z</time></trkpt><trkpt lat="46.33624790124907" lon="9.213595335498615"><ele>465.66666666666663</ele><time>2026-04-11T07:45:46Z</time></trkpt><trkpt lat="46.336404203948824" lon="9.213788954650605"><ele>464.33333333333337</ele><time>2026-04-11T07:45:47Z</time></trkpt><trkpt lat="46.336560484859504" lon="9.213983866299792"><ele>463.0</ele><time>2026-04-11T07:45:48Z</time></trkpt><trkpt lat="46.33671722900004" lon="9.21417796408554"><ele>465.6666666666667</ele><time>2026-04-11T07:45:49Z</time></trkpt><trkpt lat="46.3368726359541" lon="9.214374683647803"><ele>468.33333333333337</ele><time>2026-04-11T07:45:50Z</time></trkpt><trkpt lat="46.33703002651511" lon="9.214566911061826"><ele>471.0</ele><time>2026-04-11T07:45:51Z</time></trkpt><trkpt lat="46.33718600331361" lon="9.214761916742317"><ele>470.33333333333337</ele><time>2026-04-11T07:45:52Z</time></trkpt><trkpt lat="46.337340855685824" lon="9.214958682691826"><ele>469.6666666666667</ele><time>2026-04-11T07:45:53Z</time></trkpt><trkpt lat="46.33749772212112" lon="9.215152708066087"><ele>469.0</ele><time>2026-04-11T07:45:54Z</time></trkpt><trkpt lat="46.33765361328259" lon="9.215349724477218"><ele>469.0</ele><time>2026-04-11T07:45:55Z</time></trkpt><trkpt lat="46.337807117959464" lon="9.215549954993373"><ele>469.0</ele><time>2026-04-11T07:45:56Z</time></trkpt><trkpt lat="46.337962913456714" lon="9.215747515819194"><ele>469.0</ele><time>2026-04-11T07:45:57Z</time></trkpt><trkpt lat="46.33811911324014" lon="9.215943518622623"><ele>470.0</ele><time>2026-04-11T07:45:58Z</time></trkpt><trkpt lat="46.33827275753834" lon="9.216145722205642"><ele>471.0</ele><time>2026-04-11T07:45:59Z</time></trkpt><trkpt lat="46.33843050636246" lon="9.216337913756584"><ele>472.0</ele><time>2026-04-11T07:46:00Z</time></trkpt><trkpt lat="46.33859263700262" lon="9.21652298575654"><ele>474.0</ele><time>2026-04-11T07:46:01Z</time></trkpt><trkpt lat="46.33875754547277" lon="9.216703529618373"><ele>476.0</ele><time>2026-04-11T07:46:02Z</time></trkpt><trkpt lat="46.33892551790067" lon="9.21687573187548"><ele>478.0</ele><time>2026-04-11T07:46:03Z</time></trkpt><trkpt lat="46.33909906685205" lon="9.217037833331096"><ele>478.0</ele><time>2026-04-11T07:46:04Z</time></trkpt><trkpt lat="46.339278013079735" lon="9.217187781996758"><ele>478.0</ele><time>2026-04-11T07:46:05Z</time></trkpt><trkpt lat="46.33946146301499" lon="9.217326485516175"><ele>478.0</ele><time>2026-04-11T07:46:06Z</time></trkpt><trkpt lat="46.33965023554848" lon="9.217450649115426"><ele>476.6666666666667</ele><time>2026-04-11T07:46:07Z</time></trkpt><trkpt lat="46.33984198064297" lon="9.21756072600973"><ele>475.33333333333337</ele><time>2026-04-11T07:46:08Z</time></trkpt><trkpt lat="46.34003808719233" lon="9.217657780710677"><ele>474.0</ele><time>2026-04-11T07:46:09Z</time></trkpt><trkpt lat="46.34023593998436" lon="9.21774677900625"><ele>474.0</ele><time>2026-04-11T07:46:10Z</time></trkpt><trkpt lat="46.34043629404909" lon="9.217822137499336"><ele>474.0</ele><time>2026-04-11T07:46:11Z</time></trkpt><trkpt lat="46.34063974006517" lon="9.217880220579143"><ele>474.0</ele><time>2026-04-11T07:46:12Z</time></trkpt><trkpt lat="46.34084371610078" lon="9.217926969338833"><ele>474.66666666666663</ele><time>2026-04-11T07:46:13Z</time></trkpt><trkpt lat="46.34104948903023" lon="9.21795865316193"><ele>475.3333333333333</ele><time>2026-04-11T07:46:14Z</time></trkpt><trkpt lat="46.34125547825759" lon="9.217981160517974"><ele>476.0</ele><time>2026-04-11T07:46:14.999Z</time></trkpt><trkpt lat="46.34146227671517" lon="9.217986636858987"><ele>476.0</ele><time>2026-04-11T07:46:15.999Z</time></trkpt><trkpt lat="46.341669131966064" lon="9.217980560307629"><ele>476.0</ele><time>2026-04-11T07:46:16.999Z</time></trkpt><trkpt lat="46.341875953874904" lon="9.21795835484974"><ele>476.0</ele><time>2026-04-11T07:46:17.999Z</time></trkpt><trkpt lat="46.34208023881125" lon="9.217924664029095"><ele>477.0</ele><time>2026-04-11T07:46:18.999Z</time></trkpt><trkpt lat="46.34228516111028" lon="9.217880416669813"><ele>478.0</ele><time>2026-04-11T07:46:19.999Z</time></trkpt><trkpt lat="46.34248884197796" lon="9.217822333552549"><ele>479.0</ele><time>2026-04-11T07:46:20.999Z</time></trkpt><trkpt lat="46.3426899720345" lon="9.217751086900497"><ele>479.0</ele><time>2026-04-11T07:46:21.999Z</time></trkpt><trkpt lat="46.34289024894317" lon="9.217671453346691"><ele>479.0</ele><time>2026-04-11T07:46:22.999Z</time></trkpt><trkpt lat="46.343089298626836" lon="9.21758743478996"><ele>479.0</ele><time>2026-04-11T07:46:23.999Z</time></trkpt><trkpt lat="46.34328912623741" lon="9.217502009124685"><ele>481.3333333333333</ele><time>2026-04-11T07:46:24.999Z</time></trkpt><trkpt lat="46.34348682264214" lon="9.21741708412392"><ele>483.66666666666663</ele><time>2026-04-11T07:46:25.999Z</time></trkpt><trkpt lat="46.343683616322636" lon="9.217324196546116"><ele>486.0</ele><time>2026-04-11T07:46:26.999Z</time></trkpt><trkpt lat="46.3438792899764" lon="9.217232603078758"><ele>487.0</ele><time>2026-04-11T07:46:27.999Z</time></trkpt><trkpt lat="46.34407445042044" lon="9.21713777394717"><ele>488.0</ele><time>2026-04-11T07:46:28.999Z</time></trkpt><trkpt lat="46.34427302876091" lon="9.217051856816408"><ele>489.0</ele><time>2026-04-11T07:46:29.999Z</time></trkpt><trkpt lat="46.34447159941081" lon="9.216966512151902"><ele>489.0</ele><time>2026-04-11T07:46:30.999Z</time></trkpt><trkpt lat="46.34467018693778" lon="9.216886424780778"><ele>489.0</ele><time>2026-04-11T07:46:31.999Z</time></trkpt><trkpt lat="46.34487152272104" lon="9.216815100677549"><ele>489.0</ele><time>2026-04-11T07:46:32.999Z</time></trkpt><trkpt lat="46.34507240666905" lon="9.216745730315946"><ele>489.66666666666663</ele><time>2026-04-11T07:46:33.999Z</time></trkpt><trkpt lat="46.34527546187446" lon="9.21668574046287"><ele>490.3333333333333</ele><time>2026-04-11T07:46:34.999Z</time></trkpt><trkpt lat="46.345479346114004" lon="9.216630270072873"><ele>491.0</ele><time>2026-04-11T07:46:35.999Z</time></trkpt><trkpt lat="46.34568323855781" lon="9.216580563503104"><ele>491.66666666666663</ele><time>2026-04-11T07:46:36.999Z</time></trkpt><trkpt lat="46.34588755817748" lon="9.216539944260399"><ele>492.33333333333337</ele><time>2026-04-11T07:46:37.999Z</time></trkpt><trkpt lat="46.346093791535594" lon="9.216505607703796"><ele>493.0</ele><time>2026-04-11T07:46:38.999Z</time></trkpt><trkpt lat="46.34629910918199" lon="9.216479320197996"><ele>492.33333333333337</ele><time>2026-04-11T07:46:39.999Z</time></trkpt><trkpt lat="46.34650610305602" lon="9.21646087425986"><ele>491.66666666666663</ele><time>2026-04-11T07:46:40.999Z</time></trkpt><trkpt lat="46.3467116927425" lon="9.216447016284228"><ele>491.0</ele><time>2026-04-11T07:46:41.999Z</time></trkpt><trkpt lat="46.346918000993384" lon="9.216434744662532"><ele>491.0</ele><time>2026-04-11T07:46:42.999Z</time></trkpt><trkpt lat="46.347125284522114" lon="9.216433180734136"><ele>491.0</ele><time>2026-04-11T07:46:43.999Z</time></trkpt><trkpt lat="46.34733197969989" lon="9.216436407856158"><ele>491.0</ele><time>2026-04-11T07:46:44.999Z</time></trkpt><trkpt lat="46.34753886496781" lon="9.216446968297818"><ele>491.66666666666663</ele><time>2026-04-11T07:46:45.999Z</time></trkpt><trkpt lat="46.34774648082941" lon="9.216467265304619"><ele>492.33333333333337</ele><time>2026-04-11T07:46:46.999Z</time></trkpt><trkpt lat="46.34795264110971" lon="9.216493077738946"><ele>493.0</ele><time>2026-04-11T07:46:47.999Z</time></trkpt><trkpt lat="46.34815798885009" lon="9.21652499874425"><ele>494.0</ele><time>2026-04-11T07:46:48.999Z</time></trkpt><trkpt lat="46.34836190738884" lon="9.216565915808697"><ele>495.0</ele><time>2026-04-11T07:46:49.999Z</time></trkpt><trkpt lat="46.34856513339657" lon="9.216612159598917"><ele>496.0</ele><time>2026-04-11T07:46:50.999Z</time></trkpt><trkpt lat="46.34876926914973" lon="9.216665848344691"><ele>496.33333333333337</ele><time>2026-04-11T07:46:51.999Z</time></trkpt><trkpt lat="46.348972240477195" lon="9.216726725284541"><ele>496.66666666666663</ele><time>2026-04-11T07:46:52.999Z</time></trkpt><trkpt lat="46.34917441341386" lon="9.216793415465316"><ele>497.0</ele><time>2026-04-11T07:46:53.999Z</time></trkpt><trkpt lat="46.34937452855609" lon="9.216868883881169"><ele>497.0</ele><time>2026-04-11T07:46:54.999Z</time></trkpt><trkpt lat="46.34957376408722" lon="9.216945738676008"><ele>497.0</ele><time>2026-04-11T07:46:56Z</time></trkpt><trkpt lat="46.34977128252123" lon="9.217034461250664"><ele>497.0</ele><time>2026-04-11T07:46:57Z</time></trkpt><trkpt lat="46.34996708961244" lon="9.21712968359571"><ele>497.0</ele><time>2026-04-11T07:46:58Z</time></trkpt><trkpt lat="46.35016239456375" lon="9.217226433997688"><ele>497.0</ele><time>2026-04-11T07:46:59Z</time></trkpt><trkpt lat="46.35035487991865" lon="9.21733187715865"><ele>497.0</ele><time>2026-04-11T07:47:00Z</time></trkpt><trkpt lat="46.350546430171036" lon="9.217444827687855"><ele>497.0</ele><time>2026-04-11T07:47:01Z</time></trkpt><trkpt lat="46.35073737494704" lon="9.217563325926202"><ele>497.0</ele><time>2026-04-11T07:47:02Z</time></trkpt><trkpt lat="46.35092554804911" lon="9.217687472883261"><ele>497.0</ele><time>2026-04-11T07:47:03Z</time></trkpt><trkpt lat="46.351109885975774" lon="9.217821234456915"><ele>497.0</ele><time>2026-04-11T07:47:04Z</time></trkpt><trkpt lat="46.35129104511566" lon="9.217960903116206"><ele>497.0</ele><time>2026-04-11T07:47:05Z</time></trkpt><trkpt lat="46.35147072797929" lon="9.218107185107206"><ele>497.0</ele><time>2026-04-11T07:47:06Z</time></trkpt><trkpt lat="46.35165121387912" lon="9.218250171444572"><ele>499.0</ele><time>2026-04-11T07:47:07Z</time></trkpt><trkpt lat="46.35183079310734" lon="9.21839683649631"><ele>501.0</ele><time>2026-04-11T07:47:08Z</time></trkpt><trkpt lat="46.35200853837008" lon="9.21854724459039"><ele>503.0</ele><time>2026-04-11T07:47:09Z</time></trkpt><trkpt lat="46.352184704890746" lon="9.218701426502061"><ele>504.3333333333333</ele><time>2026-04-11T07:47:10Z</time></trkpt><trkpt lat="46.35235822866393" lon="9.218860353544445"><ele>505.66666666666663</ele><time>2026-04-11T07:47:11Z</time></trkpt><trkpt lat="46.35253170811314" lon="9.219018958011223"><ele>507.0</ele><time>2026-04-11T07:47:12Z</time></trkpt><trkpt lat="46.35270620280887" lon="9.219177289655693"><ele>507.66666666666663</ele><time>2026-04-11T07:47:13Z</time></trkpt><trkpt lat="46.3528806462351" lon="9.21933340821179"><ele>508.3333333333333</ele><time>2026-04-11T07:47:14Z</time></trkpt><trkpt lat="46.35305377510485" lon="9.219493658897928"><ele>509.0</ele><time>2026-04-11T07:47:15Z</time></trkpt><trkpt lat="46.3532279040941" lon="9.219651859570336"><ele>509.66666666666663</ele><time>2026-04-11T07:47:16Z</time></trkpt><trkpt lat="46.353407433402225" lon="9.219801046010907"><ele>510.33333333333337</ele><time>2026-04-11T07:47:17Z</time></trkpt><trkpt lat="46.353592458496344" lon="9.219936271181759"><ele>511.0</ele><time>2026-04-11T07:47:18Z</time></trkpt><trkpt lat="46.353774571638205" lon="9.220067990712764"><ele>513.0</ele><time>2026-04-11T07:47:19Z</time></trkpt><trkpt lat="46.353956896900094" lon="9.22020431348863"><ele>515.0</ele><time>2026-04-11T07:47:20Z</time></trkpt><trkpt lat="46.354145112819616" lon="9.220331768968554"><ele>517.0</ele><time>2026-04-11T07:47:21Z</time></trkpt><trkpt lat="46.354336478325855" lon="9.22044645764126"><ele>517.0</ele><time>2026-04-11T07:47:22Z</time></trkpt><trkpt lat="46.35452955390383" lon="9.220553656112097"><ele>517.0</ele><time>2026-04-11T07:47:23Z</time></trkpt><trkpt lat="46.35472593912504" lon="9.220644150922709"><ele>517.0</ele><time>2026-04-11T07:47:24Z</time></trkpt><trkpt lat="46.3549239100344" lon="9.220731434068526"><ele>518.0</ele><time>2026-04-11T07:47:25Z</time></trkpt><trkpt lat="46.355124228427464" lon="9.220812356803075"><ele>519.0</ele><time>2026-04-11T07:47:26Z</time></trkpt><trkpt lat="46.35532460102381" lon="9.220880194267785"><ele>520.0</ele><time>2026-04-11T07:47:27Z</time></trkpt><trkpt lat="46.35552557285743" lon="9.220944242729496"><ele>524.3333333333334</ele><time>2026-04-11T07:47:28Z</time></trkpt><trkpt lat="46.35572996438563" lon="9.220993057424126"><ele>528.6666666666666</ele><time>2026-04-11T07:47:29Z</time></trkpt><trkpt lat="46.35593400610953" lon="9.22103618798245"><ele>533.0</ele><time>2026-04-11T07:47:30Z</time></trkpt><trkpt lat="46.3561379525585" lon="9.22107631660733"><ele>533.0</ele><time>2026-04-11T07:47:31Z</time></trkpt><trkpt lat="46.35634225160957" lon="9.221112770090246"><ele>533.0</ele><time>2026-04-11T07:47:32Z</time></trkpt><trkpt lat="46.35654777069164" lon="9.221145382684897"><ele>533.0</ele><time>2026-04-11T07:47:33Z</time></trkpt><trkpt lat="46.35675313291708" lon="9.221175525095012"><ele>534.3333333333333</ele><time>2026-04-11T07:47:34Z</time></trkpt><trkpt lat="46.356958025151094" lon="9.221210958309372"><ele>535.6666666666666</ele><time>2026-04-11T07:47:35Z</time></trkpt><trkpt lat="46.35716237541388" lon="9.22125096161601"><ele>537.0</ele><time>2026-04-11T07:47:36Z</time></trkpt><trkpt lat="46.35736747604771" lon="9.22129907832845"><ele>537.0</ele><time>2026-04-11T07:47:37Z</time></trkpt><trkpt lat="46.35756887776827" lon="9.221362893158153"><ele>537.0</ele><time>2026-04-11T07:47:38Z</time></trkpt><trkpt lat="46.35777011377914" lon="9.221436720561607"><ele>537.0</ele><time>2026-04-11T07:47:39Z</time></trkpt><trkpt lat="46.357969339689745" lon="9.221519950865014"><ele>540.0</ele><time>2026-04-11T07:47:40Z</time></trkpt><trkpt lat="46.35816461726918" lon="9.22161728944491"><ele>543.0</ele><time>2026-04-11T07:47:41Z</time></trkpt><trkpt lat="46.35835775202385" lon="9.221722867390435"><ele>546.0</ele><time>2026-04-11T07:47:42Z</time></trkpt><trkpt lat="46.35854716795109" lon="9.221840919216518"><ele>546.0</ele><time>2026-04-11T07:47:43Z</time></trkpt><trkpt lat="46.358733011254564" lon="9.221967583406775"><ele>546.0</ele><time>2026-04-11T07:47:44Z</time></trkpt><trkpt lat="46.35891492043447" lon="9.222106117474537"><ele>546.0</ele><time>2026-04-11T07:47:45Z</time></trkpt><trkpt lat="46.359095616314356" lon="9.22225137874419"><ele>547.0</ele><time>2026-04-11T07:47:46Z</time></trkpt><trkpt lat="46.35926937120155" lon="9.222412309618832"><ele>548.0</ele><time>2026-04-11T07:47:47Z</time></trkpt><trkpt lat="46.35943705354817" lon="9.222584051270706"><ele>549.0</ele><time>2026-04-11T07:47:48Z</time></trkpt><trkpt lat="46.359604126759" lon="9.222757101692002"><ele>547.6666666666666</ele><time>2026-04-11T07:47:49Z</time></trkpt><trkpt lat="46.35976687540501" lon="9.222938887243119"><ele>546.3333333333333</ele><time>2026-04-11T07:47:50Z</time></trkpt><trkpt lat="46.359922978582055" lon="9.22313337822254"><ele>545.0</ele><time>2026-04-11T07:47:51Z</time></trkpt><trkpt lat="46.36007355718902" lon="9.223338210599543"><ele>548.6666666666666</ele><time>2026-04-11T07:47:52Z</time></trkpt><trkpt lat="46.360220227483" lon="9.223550235019493"><ele>552.3333333333334</ele><time>2026-04-11T07:47:53Z</time></trkpt><trkpt lat="46.36036354959993" lon="9.22376665425086"><ele>556.0</ele><time>2026-04-11T07:47:54Z</time></trkpt><trkpt lat="46.360499405455755" lon="9.223991541118675"><ele>556.6666666666667</ele><time>2026-04-11T07:47:55Z</time></trkpt><trkpt lat="46.36063252188303" lon="9.224219056346238"><ele>557.3333333333334</ele><time>2026-04-11T07:47:56Z</time></trkpt><trkpt lat="46.360767925986906" lon="9.224443916154282"><ele>558.0</ele><time>2026-04-11T07:47:57Z</time></trkpt><trkpt lat="46.360903638303306" lon="9.224669671465886"><ele>559.3333333333334</ele><time>2026-04-11T07:47:58Z</time></trkpt><trkpt lat="46.36104233683057" lon="9.2248918693586"><ele>560.6666666666667</ele><time>2026-04-11T07:47:59Z</time></trkpt><trkpt lat="46.361185362985765" lon="9.225108813516034"><ele>562.0</ele><time>2026-04-11T07:48:00Z</time></trkpt><trkpt lat="46.36133464706482" lon="9.225318762861763"><ele>562.0</ele><time>2026-04-11T07:48:01Z</time></trkpt><trkpt lat="46.361495846133906" lon="9.225523813186456"><ele>562.0</ele><time>2026-04-11T07:48:02Z</time></trkpt><trkpt lat="46.36166521337624" lon="9.225727797862945"><ele>562.0</ele><time>2026-04-11T07:48:03Z</time></trkpt><trkpt lat="46.3618458452606" lon="9.225918873454237"><ele>562.0</ele><time>2026-04-11T07:48:04Z</time></trkpt><trkpt lat="46.362037019266225" lon="9.226101344770754"><ele>562.0</ele><time>2026-04-11T07:48:05Z</time></trkpt><trkpt lat="46.36223716474983" lon="9.226273023033205"><ele>567.0</ele><time>2026-04-11T07:48:06Z</time></trkpt><trkpt lat="46.36244577252788" lon="9.226435306962225"><ele>572.0</ele><time>2026-04-11T07:48:07Z</time></trkpt><trkpt lat="46.362662218612826" lon="9.226580967687976"><ele>572.0</ele><time>2026-04-11T07:48:08Z</time></trkpt><trkpt lat="46.36289134811809" lon="9.226706986284535"><ele>572.0</ele><time>2026-04-11T07:48:09Z</time></trkpt><trkpt lat="46.363128445173984" lon="9.22680409985663"><ele>568.0</ele><time>2026-04-11T07:48:10Z</time></trkpt><trkpt lat="46.363364707667905" lon="9.22689327551461"><ele>564.0</ele><time>2026-04-11T07:48:11Z</time></trkpt><trkpt lat="46.36359713970214" lon="9.226996561032676"><ele>564.0</ele><time>2026-04-11T07:48:11.999Z</time></trkpt><trkpt lat="46.36383712372615" lon="9.227073137229699"><ele>564.0</ele><time>2026-04-11T07:48:12.999Z</time></trkpt><trkpt lat="46.36407693223612" lon="9.227137738032182"><ele>563.0</ele><time>2026-04-11T07:48:13.999Z</time></trkpt><trkpt lat="46.36431695842241" lon="9.227187647465438"><ele>562.0</ele><time>2026-04-11T07:48:14.999Z</time></trkpt><trkpt lat="46.36455752792187" lon="9.227227295676064"><ele>563.5</ele><time>2026-04-11T07:48:15.999Z</time></trkpt><trkpt lat="46.36479696704137" lon="9.22725881472535"><ele>565.0</ele><time>2026-04-11T07:48:16.999Z</time></trkpt><trkpt lat="46.36503665764319" lon="9.2272830438289"><ele>565.0</ele><time>2026-04-11T07:48:17.999Z</time></trkpt><trkpt lat="46.36527697715147" lon="9.227297038793887"><ele>565.0</ele><time>2026-04-11T07:48:18.999Z</time></trkpt><trkpt lat="46.36551755964946" lon="9.22729744269862"><ele>567.0</ele><time>2026-04-11T07:48:19.999Z</time></trkpt><trkpt lat="46.365757398565556" lon="9.227287364759963"><ele>569.0</ele><time>2026-04-11T07:48:20.999Z</time></trkpt><trkpt lat="46.36599715545974" lon="9.227271349963281"><ele>569.0</ele><time>2026-04-11T07:48:21.999Z</time></trkpt><trkpt lat="46.36623259769432" lon="9.227249051914322"><ele>569.0</ele><time>2026-04-11T07:48:22.999Z</time></trkpt><trkpt lat="46.36645077337942" lon="9.227219806346131"><ele>567.6666666666666</ele><time>2026-04-11T07:48:23.999Z</time></trkpt><trkpt lat="46.366664643332605" lon="9.227181252454967"><ele>566.3333333333334</ele><time>2026-04-11T07:48:24.999Z</time></trkpt><trkpt lat="46.3668758829399" lon="9.227135375411667"><ele>565.0</ele><time>2026-04-11T07:48:25.999Z</time></trkpt><trkpt lat="46.3670795133623" lon="9.227086001150315"><ele>565.6666666666667</ele><time>2026-04-11T07:48:26.999Z</time></trkpt><trkpt lat="46.367277974829676" lon="9.227030987631766"><ele>566.3333333333334</ele><time>2026-04-11T07:48:27.999Z</time></trkpt><trkpt lat="46.36749406459158" lon="9.226991012685405"><ele>567.0</ele><time>2026-04-11T07:48:28.999Z</time></trkpt><trkpt lat="46.36769472674692" lon="9.226915184091572"><ele>567.0</ele><time>2026-04-11T07:48:29.999Z</time></trkpt><trkpt lat="46.367896030728744" lon="9.226838213962955"><ele>567.0</ele><time>2026-04-11T07:48:30.999Z</time></trkpt><trkpt lat="46.36810063225646" lon="9.22675820253942"><ele>567.0</ele><time>2026-04-11T07:48:31.999Z</time></trkpt><trkpt lat="46.3682950210337" lon="9.226667625345799"><ele>567.6666666666666</ele><time>2026-04-11T07:48:32.999Z</time></trkpt><trkpt lat="46.36849721065301" lon="9.22656985953281"><ele>568.3333333333333</ele><time>2026-04-11T07:48:33.999Z</time></trkpt><trkpt lat="46.36868535103553" lon="9.226460334318693"><ele>569.0</ele><time>2026-04-11T07:48:34.999Z</time></trkpt><trkpt lat="46.3688848556049" lon="9.226346266606535"><ele>572.0</ele><time>2026-04-11T07:48:35.999Z</time></trkpt><trkpt lat="46.369084145701336" lon="9.226222527017235"><ele>575.0</ele><time>2026-04-11T07:48:36.999Z</time></trkpt><trkpt lat="46.369278252730695" lon="9.22610229212115"><ele>578.0</ele><time>2026-04-11T07:48:37.999Z</time></trkpt><trkpt lat="46.36946867797687" lon="9.225973872795583"><ele>578.0</ele><time>2026-04-11T07:48:38.999Z</time></trkpt><trkpt lat="46.36965995228828" lon="9.225845780752728"><ele>578.0</ele><time>2026-04-11T07:48:39.999Z</time></trkpt><trkpt lat="46.36985201100211" lon="9.225711363303347"><ele>578.0</ele><time>2026-04-11T07:48:40.999Z</time></trkpt><trkpt lat="46.370035759740745" lon="9.22556904162233"><ele>583.3333333333333</ele><time>2026-04-11T07:48:41.999Z</time></trkpt><trkpt lat="46.37022445323392" lon="9.225434051328543"><ele>588.6666666666666</ele><time>2026-04-11T07:48:42.999Z</time></trkpt><trkpt lat="46.37041556270106" lon="9.225300920580782"><ele>594.0</ele><time>2026-04-11T07:48:43.999Z</time></trkpt><trkpt lat="46.370609778389024" lon="9.225188127703827"><ele>596.0</ele><time>2026-04-11T07:48:44.999Z</time></trkpt><trkpt lat="46.37080728069221" lon="9.22508344749727"><ele>598.0</ele><time>2026-04-11T07:48:45.999Z</time></trkpt><trkpt lat="46.37100838013864" lon="9.224995924140934"><ele>600.0</ele><time>2026-04-11T07:48:46.999Z</time></trkpt><trkpt lat="46.371213454600166" lon="9.224936334541592"><ele>601.6666666666666</ele><time>2026-04-11T07:48:47.999Z</time></trkpt><trkpt lat="46.371415977277664" lon="9.224890194995433"><ele>603.3333333333333</ele><time>2026-04-11T07:48:48.999Z</time></trkpt><trkpt lat="46.37162815571228" lon="9.224862972220883"><ele>605.0</ele><time>2026-04-11T07:48:49.999Z</time></trkpt><trkpt lat="46.371841282730735" lon="9.224886537274964"><ele>605.0</ele><time>2026-04-11T07:48:50.999Z</time></trkpt><trkpt lat="46.37205123945653" lon="9.224908026547338"><ele>605.0</ele><time>2026-04-11T07:48:51.999Z</time></trkpt><trkpt lat="46.37225922730668" lon="9.224946748094105"><ele>605.0</ele><time>2026-04-11T07:48:52.999Z</time></trkpt><trkpt lat="46.37246394969822" lon="9.225014478426441"><ele>610.0</ele><time>2026-04-11T07:48:53.999Z</time></trkpt><trkpt lat="46.37266608125092" lon="9.22509919460404"><ele>615.0</ele><time>2026-04-11T07:48:54.999Z</time></trkpt><trkpt lat="46.37286659440233" lon="9.225212806940915"><ele>620.0</ele><time>2026-04-11T07:48:55.999Z</time></trkpt><trkpt lat="46.37305938779496" lon="9.225330416276309"><ele>618.6666666666666</ele><time>2026-04-11T07:48:56.999Z</time></trkpt><trkpt lat="46.3732491128982" lon="9.22547141645748"><ele>617.3333333333334</ele><time>2026-04-11T07:48:57.999Z</time></trkpt><trkpt lat="46.37342906566597" lon="9.225630381385043"><ele>616.0</ele><time>2026-04-11T07:48:58.999Z</time></trkpt><trkpt lat="46.37360148192744" lon="9.22580530196538"><ele>616.0</ele><time>2026-04-11T07:48:59.999Z</time></trkpt><trkpt lat="46.37376593966216" lon="9.225993300905083"><ele>616.0</ele><time>2026-04-11T07:49:00.999Z</time></trkpt><trkpt lat="46.37392819271601" lon="9.226186883354575"><ele>616.0</ele><time>2026-04-11T07:49:02Z</time></trkpt><trkpt lat="46.374088371310584" lon="9.226382015910767"><ele>620.0</ele><time>2026-04-11T07:49:03Z</time></trkpt><trkpt lat="46.37425261046892" lon="9.226572726087277"><ele>624.0</ele><time>2026-04-11T07:49:04Z</time></trkpt><trkpt lat="46.374426275109826" lon="9.226752024132564"><ele>628.0</ele><time>2026-04-11T07:49:05Z</time></trkpt><trkpt lat="46.37460473564863" lon="9.226915398555136"><ele>630.6666666666667</ele><time>2026-04-11T07:49:06Z</time></trkpt><trkpt lat="46.37479120525862" lon="9.227058717921828"><ele>633.3333333333334</ele><time>2026-04-11T07:49:07Z</time></trkpt><trkpt lat="46.37498489829624" lon="9.227187554218313"><ele>636.0</ele><time>2026-04-11T07:49:08Z</time></trkpt><trkpt lat="46.37517569655169" lon="9.227312636564827"><ele>636.0</ele><time>2026-04-11T07:49:09Z</time></trkpt><trkpt lat="46.37536870602396" lon="9.227437410010715"><ele>636.0</ele><time>2026-04-11T07:49:10Z</time></trkpt><trkpt lat="46.37556145880083" lon="9.227563505481143"><ele>636.0</ele><time>2026-04-11T07:49:11Z</time></trkpt><trkpt lat="46.375746352668784" lon="9.227694589542994"><ele>634.3333333333334</ele><time>2026-04-11T07:49:12Z</time></trkpt><trkpt lat="46.37592935027844" lon="9.227852747118746"><ele>632.6666666666667</ele><time>2026-04-11T07:49:13Z</time></trkpt><trkpt lat="46.37610206221258" lon="9.228026750381563"><ele>631.0</ele><time>2026-04-11T07:49:14Z</time></trkpt><trkpt lat="46.376269512568435" lon="9.228210179857728"><ele>645.0</ele><time>2026-04-11T07:49:15Z</time></trkpt><trkpt lat="46.376431052351236" lon="9.228405460238228"><ele>659.0</ele><time>2026-04-11T07:49:16Z</time></trkpt><trkpt lat="46.376584333669214" lon="9.22861119438772"><ele>673.0</ele><time>2026-04-11T07:49:17Z</time></trkpt><trkpt lat="46.3767362071871" lon="9.22881976357226"><ele>678.3333333333334</ele><time>2026-04-11T07:49:18Z</time></trkpt><trkpt lat="46.37689066462258" lon="9.229023943668937"><ele>683.6666666666666</ele><time>2026-04-11T07:49:19Z</time></trkpt><trkpt lat="46.37704799440673" lon="9.229226401569258"><ele>689.0</ele><time>2026-04-11T07:49:20Z</time></trkpt><trkpt lat="46.37721019196888" lon="9.229423549094466"><ele>689.0</ele><time>2026-04-11T07:49:21Z</time></trkpt><trkpt lat="46.377378679674145" lon="9.229607510154377"><ele>689.0</ele><time>2026-04-11T07:49:22Z</time></trkpt><trkpt lat="46.377556950312226" lon="9.229772609376738"><ele>689.0</ele><time>2026-04-11T07:49:23Z</time></trkpt><trkpt lat="46.37773858402388" lon="9.229927030733885"><ele>686.0</ele><time>2026-04-11T07:49:24Z</time></trkpt><trkpt lat="46.377921893516586" lon="9.230073778713503"><ele>683.0</ele><time>2026-04-11T07:49:25Z</time></trkpt><trkpt lat="46.378111104426495" lon="9.230212825041491"><ele>680.0</ele><time>2026-04-11T07:49:26Z</time></trkpt><trkpt lat="46.37830239455807" lon="9.230340840221944"><ele>680.0</ele><time>2026-04-11T07:49:27Z</time></trkpt><trkpt lat="46.37849650453155" lon="9.230460491476919"><ele>680.0</ele><time>2026-04-11T07:49:28Z</time></trkpt><trkpt lat="46.3786919169007" lon="9.230576639887715"><ele>680.0</ele><time>2026-04-11T07:49:29Z</time></trkpt><trkpt lat="46.37888945104793" lon="9.230690817199138"><ele>677.3333333333333</ele><time>2026-04-11T07:49:30Z</time></trkpt><trkpt lat="46.37908451510498" lon="9.230804838115484"><ele>674.6666666666666</ele><time>2026-04-11T07:49:31Z</time></trkpt><trkpt lat="46.3792803799222" lon="9.230919942199803"><ele>672.0</ele><time>2026-04-11T07:49:32Z</time></trkpt><trkpt lat="46.379475711986885" lon="9.231035308285913"><ele>672.0</ele><time>2026-04-11T07:49:33Z</time></trkpt><trkpt lat="46.379670463349896" lon="9.231148415839632"><ele>672.0</ele><time>2026-04-11T07:49:34Z</time></trkpt><trkpt lat="46.37986498981094" lon="9.231264808820729"><ele>672.0</ele><time>2026-04-11T07:49:35Z</time></trkpt><trkpt lat="46.380059095039016" lon="9.231380020420708"><ele>680.3333333333334</ele><time>2026-04-11T07:49:36Z</time></trkpt><trkpt lat="46.380254393039436" lon="9.231493063144228"><ele>688.6666666666667</ele><time>2026-04-11T07:49:37Z</time></trkpt><trkpt lat="46.380454178074274" lon="9.231605736067888"><ele>697.0</ele><time>2026-04-11T07:49:38Z</time></trkpt><trkpt lat="46.38064837656474" lon="9.231717171847901"><ele>700.6666666666667</ele><time>2026-04-11T07:49:39Z</time></trkpt><trkpt lat="46.3808441959251" lon="9.231828793238988"><ele>704.3333333333334</ele><time>2026-04-11T07:49:40Z</time></trkpt><trkpt lat="46.381038472478274" lon="9.231940210475178"><ele>708.0</ele><time>2026-04-11T07:49:41Z</time></trkpt><trkpt lat="46.381234473658644" lon="9.232053882893236"><ele>709.6666666666666</ele><time>2026-04-11T07:49:42Z</time></trkpt><trkpt lat="46.38143129972416" lon="9.232166332454906"><ele>711.3333333333333</ele><time>2026-04-11T07:49:43Z</time></trkpt><trkpt lat="46.38162823501804" lon="9.23227815709835"><ele>713.0</ele><time>2026-04-11T07:49:44Z</time></trkpt><trkpt lat="46.38182279116629" lon="9.232390991080305"><ele>713.0</ele><time>2026-04-11T07:49:45Z</time></trkpt><trkpt lat="46.382018879123564" lon="9.232507720491762"><ele>713.0</ele><time>2026-04-11T07:49:46Z</time></trkpt><trkpt lat="46.38221336409833" lon="9.232622633507344"><ele>713.0</ele><time>2026-04-11T07:49:47Z</time></trkpt><trkpt lat="46.382409588441625" lon="9.23273384258407"><ele>713.3333333333333</ele><time>2026-04-11T07:49:48Z</time></trkpt><trkpt lat="46.38261003408763" lon="9.23285102997925"><ele>713.6666666666666</ele><time>2026-04-11T07:49:49Z</time></trkpt><trkpt lat="46.382808165600274" lon="9.232957160895838"><ele>714.0</ele><time>2026-04-11T07:49:50Z</time></trkpt><trkpt lat="46.38300249595973" lon="9.233066882166751"><ele>712.3333333333334</ele><time>2026-04-11T07:49:51Z</time></trkpt><trkpt lat="46.38319563304485" lon="9.233181531283083"><ele>710.6666666666667</ele><time>2026-04-11T07:49:52Z</time></trkpt><trkpt lat="46.38339322903956" lon="9.233294523773322"><ele>709.0</ele><time>2026-04-11T07:49:53Z</time></trkpt><trkpt lat="46.383590481202816" lon="9.233408394596948"><ele>709.0</ele><time>2026-04-11T07:49:54Z</time></trkpt><trkpt lat="46.383786026685016" lon="9.233523444498255"><ele>709.0</ele><time>2026-04-11T07:49:55Z</time></trkpt><trkpt lat="46.3839809976873" lon="9.233639812634395"><ele>709.0</ele><time>2026-04-11T07:49:56Z</time></trkpt><trkpt lat="46.38417508359431" lon="9.233758818601595"><ele>711.3333333333334</ele><time>2026-04-11T07:49:57Z</time></trkpt><trkpt lat="46.384370144674456" lon="9.233873945060683"><ele>713.6666666666666</ele><time>2026-04-11T07:49:58Z</time></trkpt><trkpt lat="46.38456486732955" lon="9.233990267853255"><ele>716.0</ele><time>2026-04-11T07:49:59Z</time></trkpt><trkpt lat="46.38475965075605" lon="9.234105779808367"><ele>718.6666666666666</ele><time>2026-04-11T07:50:00Z</time></trkpt><trkpt lat="46.384949369205934" lon="9.234242909847248"><ele>721.3333333333334</ele><time>2026-04-11T07:50:01Z</time></trkpt><trkpt lat="46.38514566578121" lon="9.234353675664183"><ele>724.0</ele><time>2026-04-11T07:50:02Z</time></trkpt><trkpt lat="46.385343245098696" lon="9.234460400558026"><ele>728.6666666666667</ele><time>2026-04-11T07:50:03Z</time></trkpt><trkpt lat="46.38554276958439" lon="9.234560709724905"><ele>733.3333333333334</ele><time>2026-04-11T07:50:04Z</time></trkpt><trkpt lat="46.38574390262375" lon="9.234651475592042"><ele>738.0</ele><time>2026-04-11T07:50:05Z</time></trkpt><trkpt lat="46.38594575022143" lon="9.23473565679786"><ele>735.3333333333334</ele><time>2026-04-11T07:50:06Z</time></trkpt><trkpt lat="46.38613364931227" lon="9.234811795401397"><ele>732.6666666666667</ele><time>2026-04-11T07:50:07Z</time></trkpt><trkpt lat="46.38631827692056" lon="9.23488482374263"><ele>730.0</ele><time>2026-04-11T07:50:08Z</time></trkpt><trkpt lat="46.38650469827141" lon="9.234958301187682"><ele>736.6666666666667</ele><time>2026-04-11T07:50:09Z</time></trkpt><trkpt lat="46.38669258596876" lon="9.23503354902619"><ele>743.3333333333334</ele><time>2026-04-11T07:50:10Z</time></trkpt><trkpt lat="46.38688597969944" lon="9.2351105493228"><ele>750.0</ele><time>2026-04-11T07:50:11Z</time></trkpt><trkpt lat="46.38707989580684" lon="9.235171679909918"><ele>753.3333333333334</ele><time>2026-04-11T07:50:12Z</time></trkpt><trkpt lat="46.38727470280543" lon="9.235253469710532"><ele>756.6666666666667</ele><time>2026-04-11T07:50:13Z</time></trkpt><trkpt lat="46.387466143062184" lon="9.235339369043377"><ele>760.0</ele><time>2026-04-11T07:50:14Z</time></trkpt><trkpt lat="46.387654066047816" lon="9.235422673596881"><ele>760.0</ele><time>2026-04-11T07:50:15Z</time></trkpt><trkpt lat="46.387841272590215" lon="9.235512183771887"><ele>760.0</ele><time>2026-04-11T07:50:15.999Z</time></trkpt><trkpt lat="46.38801371218234" lon="9.235493423222191"><ele>760.0</ele><time>2026-04-11T07:50:16.999Z</time></trkpt><trkpt lat="46.38817027971396" lon="9.235422143878683"><ele>756.0</ele><time>2026-04-11T07:50:17.999Z</time></trkpt><trkpt lat="46.38836728431938" lon="9.235213733087267"><ele>752.0</ele><time>2026-04-11T07:50:18.999Z</time></trkpt><trkpt lat="46.38855068358086" lon="9.235022138159577"><ele>755.3333333333333</ele><time>2026-04-11T07:50:19.999Z</time></trkpt><trkpt lat="46.38861090473112" lon="9.234803679127484"><ele>758.6666666666666</ele><time>2026-04-11T07:50:20.999Z</time></trkpt><trkpt lat="46.38866451396044" lon="9.234565046448514"><ele>762.0</ele><time>2026-04-11T07:50:21.999Z</time></trkpt><trkpt lat="46.388702591675596" lon="9.234317620774993"><ele>762.0</ele><time>2026-04-11T07:50:22.999Z</time></trkpt><trkpt lat="46.38871568868695" lon="9.234066116106531"><ele>762.0</ele><time>2026-04-11T07:50:23.999Z</time></trkpt><trkpt lat="46.3886979335945" lon="9.23381156307346"><ele>762.0</ele><time>2026-04-11T07:50:24.999Z</time></trkpt><trkpt lat="46.38865021043857" lon="9.233562010597785"><ele>766.3333333333333</ele><time>2026-04-11T07:50:25.999Z</time></trkpt><trkpt lat="46.388569252913605" lon="9.23333232531595"><ele>770.6666666666666</ele><time>2026-04-11T07:50:26.999Z</time></trkpt><trkpt lat="46.38845803346262" lon="9.233130774410238"><ele>775.0</ele><time>2026-04-11T07:50:27.999Z</time></trkpt><trkpt lat="46.38833597015145" lon="9.232955757559106"><ele>776.6666666666666</ele><time>2026-04-11T07:50:28.999Z</time></trkpt><trkpt lat="46.388219725384886" lon="9.232790121486854"><ele>778.3333333333333</ele><time>2026-04-11T07:50:29.999Z</time></trkpt><trkpt lat="46.388093619143845" lon="9.232653679164532"><ele>780.0</ele><time>2026-04-11T07:50:30.999Z</time></trkpt><trkpt lat="46.38794532298988" lon="9.232559672547271"><ele>780.0</ele><time>2026-04-11T07:50:31.999Z</time></trkpt><trkpt lat="46.38778648676409" lon="9.232458296649128"><ele>780.0</ele><time>2026-04-11T07:50:32.999Z</time></trkpt><trkpt lat="46.387637472670086" lon="9.232363190046872"><ele>780.0</ele><time>2026-04-11T07:50:33.999Z</time></trkpt><trkpt lat="46.38751309171096" lon="9.232284070616208"><ele>780.5</ele><time>2026-04-11T07:50:34.999Z</time></trkpt><trkpt lat="46.3872413965664" lon="9.232231114844241"><ele>781.0</ele><time>2026-04-11T07:50:35.999Z</time></trkpt><trkpt lat="46.387068926859605" lon="9.232107597855201"><ele>781.0</ele><time>2026-04-11T07:50:36.999Z</time></trkpt><trkpt lat="46.3869078215144" lon="9.232029859458677"><ele>781.0</ele><time>2026-04-11T07:50:37.999Z</time></trkpt><trkpt lat="46.38674629035901" lon="9.231958626261415"><ele>781.0</ele><time>2026-04-11T07:50:38.999Z</time></trkpt><trkpt lat="46.3865811531194" lon="9.231915068210395"><ele>781.0</ele><time>2026-04-11T07:50:39.999Z</time></trkpt><trkpt lat="46.38641028248354" lon="9.231891188381773"><ele>781.0</ele><time>2026-04-11T07:50:40.999Z</time></trkpt><trkpt lat="46.38624566213975" lon="9.231884668950189"><ele>781.0</ele><time>2026-04-11T07:50:41.999Z</time></trkpt><trkpt lat="46.38607612077208" lon="9.231895774832967"><ele>779.25</ele><time>2026-04-11T07:50:42.999Z</time></trkpt><trkpt lat="46.38591727819691" lon="9.231912199254191"><ele>777.5</ele><time>2026-04-11T07:50:43.999Z</time></trkpt><trkpt lat="46.38577459788091" lon="9.231897951469607"><ele>775.75</ele><time>2026-04-11T07:50:44.999Z</time></trkpt><trkpt lat="46.385646391538245" lon="9.23182421162993"><ele>774.0</ele><time>2026-04-11T07:50:45.999Z</time></trkpt><trkpt lat="46.385543934243515" lon="9.23167950218197"><ele>775.75</ele><time>2026-04-11T07:50:46.999Z</time></trkpt><trkpt lat="46.38548250799758" lon="9.231483611607008"><ele>777.5</ele><time>2026-04-11T07:50:47.999Z</time></trkpt><trkpt lat="46.38548684537521" lon="9.23125865335655"><ele>779.25</ele><time>2026-04-11T07:50:48.999Z</time></trkpt><trkpt lat="46.38553573476517" lon="9.23106099435377"><ele>781.0</ele><time>2026-04-11T07:50:49.999Z</time></trkpt><trkpt lat="46.38562977618983" lon="9.230908848741839"><ele>782.3333333333333</ele><time>2026-04-11T07:50:50.999Z</time></trkpt><trkpt lat="46.38575345674354" lon="9.230786741216395"><ele>783.6666666666667</ele><time>2026-04-11T07:50:51.999Z</time></trkpt><trkpt lat="46.38591680042889" lon="9.230766334157039"><ele>785.0</ele><time>2026-04-11T07:50:52.999Z</time></trkpt><trkpt lat="46.38607908638413" lon="9.230850511926905"><ele>785.0</ele><time>2026-04-11T07:50:53.999Z</time></trkpt><trkpt lat="46.38624051974697" lon="9.230935934872292"><ele>785.0</ele><time>2026-04-11T07:50:54.999Z</time></trkpt><trkpt lat="46.386406053476385" lon="9.231006987873329"><ele>785.0</ele><time>2026-04-11T07:50:55.999Z</time></trkpt><trkpt lat="46.3865734362814" lon="9.231085905862827"><ele>788.0</ele><time>2026-04-11T07:50:56.999Z</time></trkpt><trkpt lat="46.386757135359126" lon="9.231138017560532"><ele>791.0</ele><time>2026-04-11T07:50:57.999Z</time></trkpt><trkpt lat="46.386949363057376" lon="9.231171071244201"><ele>794.0</ele><time>2026-04-11T07:50:58.999Z</time></trkpt><trkpt lat="46.38714886354807" lon="9.23119075212757"><ele>797.0</ele><time>2026-04-11T07:50:59.999Z</time></trkpt><trkpt lat="46.38735062818819" lon="9.231198833603532"><ele>800.0</ele><time>2026-04-11T07:51:00.999Z</time></trkpt><trkpt lat="46.38755309021863" lon="9.231208126568383"><ele>803.0</ele><time>2026-04-11T07:51:01.999Z</time></trkpt><trkpt lat="46.38775537279995" lon="9.231214046865304"><ele>803.0</ele><time>2026-04-11T07:51:02.999Z</time></trkpt><trkpt lat="46.38795877010717" lon="9.231209797099899"><ele>803.0</ele><time>2026-04-11T07:51:03.999Z</time></trkpt><trkpt lat="46.388160691296456" lon="9.23119910436654"><ele>803.0</ele><time>2026-04-11T07:51:04.999Z</time></trkpt><trkpt lat="46.38836577444204" lon="9.231186426150112"><ele>806.0</ele><time>2026-04-11T07:51:05.999Z</time></trkpt><trkpt lat="46.38857237941687" lon="9.231170669800552"><ele>809.0</ele><time>2026-04-11T07:51:06.999Z</time></trkpt><trkpt lat="46.38877804640292" lon="9.231155358660784"><ele>812.0</ele><time>2026-04-11T07:51:08Z</time></trkpt><trkpt lat="46.38898455871256" lon="9.231130552768953"><ele>814.6666666666667</ele><time>2026-04-11T07:51:09Z</time></trkpt><trkpt lat="46.38919191431894" lon="9.23110379238772"><ele>817.3333333333333</ele><time>2026-04-11T07:51:10Z</time></trkpt><trkpt lat="46.389399159289624" lon="9.231076288917047"><ele>820.0</ele><time>2026-04-11T07:51:11Z</time></trkpt><trkpt lat="46.389606702473785" lon="9.231047813648061"><ele>819.3333333333333</ele><time>2026-04-11T07:51:12Z</time></trkpt><trkpt lat="46.38981414474461" lon="9.231020267858874"><ele>818.6666666666667</ele><time>2026-04-11T07:51:13Z</time></trkpt><trkpt lat="46.390018093445946" lon="9.230987200451754"><ele>818.0</ele><time>2026-04-11T07:51:14Z</time></trkpt><trkpt lat="46.39022228926277" lon="9.230900056587663"><ele>818.0</ele><time>2026-04-11T07:51:15Z</time></trkpt><trkpt lat="46.39043402964925" lon="9.230831048961761"><ele>818.0</ele><time>2026-04-11T07:51:16Z</time></trkpt><trkpt lat="46.39063853295039" lon="9.230766749267453"><ele>818.0</ele><time>2026-04-11T07:51:17Z</time></trkpt><trkpt lat="46.3908414488448" lon="9.23069972432959"><ele>820.6666666666667</ele><time>2026-04-11T07:51:18Z</time></trkpt><trkpt lat="46.39104299998791" lon="9.23063083705604"><ele>823.3333333333333</ele><time>2026-04-11T07:51:19Z</time></trkpt><trkpt lat="46.39124360503541" lon="9.230554990249383"><ele>826.0</ele><time>2026-04-11T07:51:20Z</time></trkpt><trkpt lat="46.3914430087057" lon="9.230472336846498"><ele>826.0</ele><time>2026-04-11T07:51:21Z</time></trkpt><trkpt lat="46.39164296093017" lon="9.23039167433084"><ele>826.0</ele><time>2026-04-11T07:51:22Z</time></trkpt><trkpt lat="46.3918427977552" lon="9.23030966916631"><ele>826.0</ele><time>2026-04-11T07:51:23Z</time></trkpt><trkpt lat="46.392044896954275" lon="9.230223572062018"><ele>826.0</ele><time>2026-04-11T07:51:24Z</time></trkpt><trkpt lat="46.39224589188712" lon="9.230138390061645"><ele>826.0</ele><time>2026-04-11T07:51:25Z</time></trkpt><trkpt lat="46.392444496790134" lon="9.230053114676185"><ele>826.0</ele><time>2026-04-11T07:51:26Z</time></trkpt><trkpt lat="46.39264334046154" lon="9.229970424909421"><ele>826.0</ele><time>2026-04-11T07:51:27Z</time></trkpt><trkpt lat="46.392844203277335" lon="9.229889260187353"><ele>826.0</ele><time>2026-04-11T07:51:28Z</time></trkpt><trkpt lat="46.39304589925974" lon="9.22980723186263"><ele>826.0</ele><time>2026-04-11T07:51:29Z</time></trkpt><trkpt lat="46.39324666942062" lon="9.229728719970336"><ele>832.6666666666666</ele><time>2026-04-11T07:51:30Z</time></trkpt><trkpt lat="46.39344920662093" lon="9.229654493144126"><ele>839.3333333333333</ele><time>2026-04-11T07:51:31Z</time></trkpt><trkpt lat="46.39365267528529" lon="9.229582813576926"><ele>846.0</ele><time>2026-04-11T07:51:32Z</time></trkpt><trkpt lat="46.39385612193966" lon="9.229513138681869"><ele>846.0</ele><time>2026-04-11T07:51:33Z</time></trkpt><trkpt lat="46.39405988302636" lon="9.229449891858769"><ele>846.0</ele><time>2026-04-11T07:51:34Z</time></trkpt><trkpt lat="46.39426370242712" lon="9.229390148713355"><ele>846.0</ele><time>2026-04-11T07:51:35Z</time></trkpt><trkpt lat="46.39446944476911" lon="9.22933474692752"><ele>847.0</ele><time>2026-04-11T07:51:36Z</time></trkpt><trkpt lat="46.39467425449614" lon="9.229281037570217"><ele>848.0</ele><time>2026-04-11T07:51:37Z</time></trkpt><trkpt lat="46.394879665482875" lon="9.229235528875591"><ele>849.0</ele><time>2026-04-11T07:51:38Z</time></trkpt><trkpt lat="46.39508641958557" lon="9.229196694200484"><ele>849.0</ele><time>2026-04-11T07:51:39Z</time></trkpt><trkpt lat="46.395295882372146" lon="9.229163093467085"><ele>849.0</ele><time>2026-04-11T07:51:40Z</time></trkpt><trkpt lat="46.395505354662525" lon="9.229131932648944"><ele>849.0</ele><time>2026-04-11T07:51:41Z</time></trkpt><trkpt lat="46.395712548508094" lon="9.229103011580209"><ele>850.3333333333333</ele><time>2026-04-11T07:51:42Z</time></trkpt><trkpt lat="46.39591840499121" lon="9.229077881703383"><ele>851.6666666666666</ele><time>2026-04-11T07:51:43Z</time></trkpt><trkpt lat="46.39612681707002" lon="9.229057412121216"><ele>853.0</ele><time>2026-04-11T07:51:44Z</time></trkpt><trkpt lat="46.39633589551936" lon="9.22904030571285"><ele>853.6666666666666</ele><time>2026-04-11T07:51:45Z</time></trkpt><trkpt lat="46.39654406356095" lon="9.229029023207602"><ele>854.3333333333333</ele><time>2026-04-11T07:51:46Z</time></trkpt><trkpt lat="46.39675232505408" lon="9.229020227803575"><ele>855.0</ele><time>2026-04-11T07:51:47Z</time></trkpt><trkpt lat="46.39696164313174" lon="9.229016647151381"><ele>857.3333333333333</ele><time>2026-04-11T07:51:48Z</time></trkpt><trkpt lat="46.39717001401639" lon="9.229015972097587"><ele>859.6666666666666</ele><time>2026-04-11T07:51:49Z</time></trkpt><trkpt lat="46.39737886884176" lon="9.229018553028968"><ele>862.0</ele><time>2026-04-11T07:51:50Z</time></trkpt><trkpt lat="46.397587322697674" lon="9.229024137329072"><ele>862.0</ele><time>2026-04-11T07:51:51Z</time></trkpt><trkpt lat="46.3977954986293" lon="9.229034400934303"><ele>862.0</ele><time>2026-04-11T07:51:52Z</time></trkpt><trkpt lat="46.39800331781717" lon="9.229047587745333"><ele>862.0</ele><time>2026-04-11T07:51:53Z</time></trkpt><trkpt lat="46.3982100347452" lon="9.229065950525056"><ele>863.0</ele><time>2026-04-11T07:51:54Z</time></trkpt><trkpt lat="46.39841616509111" lon="9.229092352200537"><ele>864.0</ele><time>2026-04-11T07:51:55Z</time></trkpt><trkpt lat="46.39862390976831" lon="9.229122440852539"><ele>865.0</ele><time>2026-04-11T07:51:56Z</time></trkpt><trkpt lat="46.398831941774986" lon="9.229154317209943"><ele>867.3333333333333</ele><time>2026-04-11T07:51:57Z</time></trkpt><trkpt lat="46.39903925476259" lon="9.229185537695882"><ele>869.6666666666667</ele><time>2026-04-11T07:51:58Z</time></trkpt><trkpt lat="46.39924607725153" lon="9.229217603850506"><ele>872.0</ele><time>2026-04-11T07:51:59Z</time></trkpt><trkpt lat="46.39945291719344" lon="9.229248122745206"><ele>872.0</ele><time>2026-04-11T07:52:00Z</time></trkpt><trkpt lat="46.39965952166559" lon="9.229279072138725"><ele>872.0</ele><time>2026-04-11T07:52:01Z</time></trkpt><trkpt lat="46.39986807966451" lon="9.229307001352607"><ele>872.0</ele><time>2026-04-11T07:52:02Z</time></trkpt><trkpt lat="46.40007714457268" lon="9.229329206281957"><ele>872.3333333333334</ele><time>2026-04-11T07:52:03Z</time></trkpt><trkpt lat="46.40028418629539" lon="9.229347472347778"><ele>872.6666666666667</ele><time>2026-04-11T07:52:04Z</time></trkpt><trkpt lat="46.40049071624476" lon="9.229362162166534"><ele>873.0</ele><time>2026-04-11T07:52:05Z</time></trkpt><trkpt lat="46.40069684369751" lon="9.229371718532358"><ele>874.3333333333333</ele><time>2026-04-11T07:52:06Z</time></trkpt><trkpt lat="46.40088935484633" lon="9.229376211562231"><ele>875.6666666666666</ele><time>2026-04-11T07:52:07Z</time></trkpt><trkpt lat="46.40106702425988" lon="9.229383671562987"><ele>877.0</ele><time>2026-04-11T07:52:08Z</time></trkpt><trkpt lat="46.4012369331909" lon="9.229387769507778"><ele>883.3333333333333</ele><time>2026-04-11T07:52:09Z</time></trkpt><trkpt lat="46.401406773567" lon="9.22938676779738"><ele>889.6666666666667</ele><time>2026-04-11T07:52:10Z</time></trkpt><trkpt lat="46.401565230351885" lon="9.229381335332814"><ele>896.0</ele><time>2026-04-11T07:52:11Z</time></trkpt><trkpt lat="46.40171062937542" lon="9.229379510197596"><ele>896.0</ele><time>2026-04-11T07:52:12Z</time></trkpt><trkpt lat="46.40184673827835" lon="9.229375395505954"><ele>896.0</ele><time>2026-04-11T07:52:13Z</time></trkpt><trkpt lat="46.401979331470656" lon="9.229372334696537"><ele>896.0</ele><time>2026-04-11T07:52:13.999Z</time></trkpt><trkpt lat="46.4021031150915" lon="9.229369444566"><ele>896.0</ele><time>2026-04-11T07:52:14.999Z</time></trkpt><trkpt lat="46.402224847192876" lon="9.229366408508461"><ele>897.8</ele><time>2026-04-11T07:52:15.999Z</time></trkpt><trkpt lat="46.402335231768554" lon="9.229365184455467"><ele>899.5999999999999</ele><time>2026-04-11T07:52:16.999Z</time></trkpt><trkpt lat="46.402435640076845" lon="9.22936632610674"><ele>901.4</ele><time>2026-04-11T07:52:17.999Z</time></trkpt><trkpt lat="46.40252531493409" lon="9.229366808310406"><ele>903.2</ele><time>2026-04-11T07:52:18.999Z</time></trkpt><trkpt lat="46.40260489160394" lon="9.229370721485573"><ele>905.0</ele><time>2026-04-11T07:52:19.999Z</time></trkpt><trkpt lat="46.40267794899819" lon="9.229378103110367"><ele>905.0</ele><time>2026-04-11T07:52:20.999Z</time></trkpt><trkpt lat="46.402756997409796" lon="9.22938467112554"><ele>905.0</ele><time>2026-04-11T07:52:21.999Z</time></trkpt><trkpt lat="46.40285208585283" lon="9.229396320544172"><ele>905.0</ele><time>2026-04-11T07:52:22.999Z</time></trkpt><trkpt lat="46.40295325098941" lon="9.229409353450487"><ele>905.0</ele><time>2026-04-11T07:52:23.999Z</time></trkpt><trkpt lat="46.403055596821204" lon="9.229426448930969"><ele>905.0</ele><time>2026-04-11T07:52:24.999Z</time></trkpt><trkpt lat="46.40316059805599" lon="9.229448398423807"><ele>908.6</ele><time>2026-04-11T07:52:25.999Z</time></trkpt><trkpt lat="46.40326746652946" lon="9.229472437960254"><ele>912.2</ele><time>2026-04-11T07:52:26.999Z</time></trkpt><trkpt lat="46.403365849990536" lon="9.229498274975589"><ele>915.8</ele><time>2026-04-11T07:52:27.999Z</time></trkpt><trkpt lat="46.4034604087892" lon="9.229525909497623"><ele>919.4</ele><time>2026-04-11T07:52:28.999Z</time></trkpt><trkpt lat="46.40355925757783" lon="9.229554531494799"><ele>923.0</ele><time>2026-04-11T07:52:29.999Z</time></trkpt><trkpt lat="46.40365741545496" lon="9.229590202400459"><ele>923.0000000000001</ele><time>2026-04-11T07:52:30.999Z</time></trkpt><trkpt lat="46.403748451873874" lon="9.229626410291"><ele>923.0</ele><time>2026-04-11T07:52:31.999Z</time></trkpt><trkpt lat="46.40383485223481" lon="9.229660345378353"><ele>923.0</ele><time>2026-04-11T07:52:32.999Z</time></trkpt><trkpt lat="46.403920224131774" lon="9.22969959127876"><ele>923.0</ele><time>2026-04-11T07:52:33.999Z</time></trkpt><trkpt lat="46.40400170477584" lon="9.229738866500957"><ele>923.0000000000001</ele><time>2026-04-11T07:52:34.999Z</time></trkpt><trkpt lat="46.40408635883557" lon="9.22977989606521"><ele>923.0</ele><time>2026-04-11T07:52:35.999Z</time></trkpt><trkpt lat="46.404173575319376" lon="9.229823256219403"><ele>924.8</ele><time>2026-04-11T07:52:36.999Z</time></trkpt><trkpt lat="46.40426874383916" lon="9.229877733035051"><ele>926.5999999999999</ele><time>2026-04-11T07:52:37.999Z</time></trkpt><trkpt lat="46.404370232947905" lon="9.229940652269736"><ele>928.4000000000001</ele><time>2026-04-11T07:52:38.999Z</time></trkpt><trkpt lat="46.40447551845433" lon="9.230008984586224"><ele>930.2</ele><time>2026-04-11T07:52:39.999Z</time></trkpt><trkpt lat="46.40458281335361" lon="9.230081587744507"><ele>932.0</ele><time>2026-04-11T07:52:40.999Z</time></trkpt><trkpt lat="46.40469266180996" lon="9.23016160680685"><ele>932.0</ele><time>2026-04-11T07:52:41.999Z</time></trkpt><trkpt lat="46.4048014192369" lon="9.230238035018536"><ele>932.0</ele><time>2026-04-11T07:52:42.999Z</time></trkpt><trkpt lat="46.40492173886643" lon="9.230291279825458"><ele>932.0</ele><time>2026-04-11T07:52:43.999Z</time></trkpt><trkpt lat="46.40504527978374" lon="9.230321348656565"><ele>932.0</ele><time>2026-04-11T07:52:44.999Z</time></trkpt><trkpt lat="46.405175268362875" lon="9.23033684159739"><ele>932.0</ele><time>2026-04-11T07:52:45.999Z</time></trkpt><trkpt lat="46.40531222821643" lon="9.23033705184672"><ele>932.0</ele><time>2026-04-11T07:52:46.999Z</time></trkpt><trkpt lat="46.40545062360056" lon="9.230320405989621"><ele>932.0</ele><time>2026-04-11T07:52:47.999Z</time></trkpt><trkpt lat="46.40559714241899" lon="9.230290233896659"><ele>932.0</ele><time>2026-04-11T07:52:48.999Z</time></trkpt><trkpt lat="46.40574574158985" lon="9.230227714559492"><ele>943.0</ele><time>2026-04-11T07:52:49.999Z</time></trkpt><trkpt lat="46.40589951890468" lon="9.230141070022883"><ele>954.0</ele><time>2026-04-11T07:52:50.999Z</time></trkpt><trkpt lat="46.406052162927374" lon="9.230044692661856"><ele>965.0</ele><time>2026-04-11T07:52:51.999Z</time></trkpt><trkpt lat="46.40621345348994" lon="9.229922813947688"><ele>947.5</ele><time>2026-04-11T07:52:52.999Z</time></trkpt><trkpt lat="46.40637523581218" lon="9.22979306186732"><ele>930.0</ele><time>2026-04-11T07:52:53.999Z</time></trkpt><trkpt lat="46.40607210366524" lon="9.231167062978056"><ele>930.0</ele><time>2026-04-11T07:52:54.999Z</time></trkpt><trkpt lat="46.40617592201342" lon="9.231188498755555"><ele>930.0</ele><time>2026-04-11T07:52:55.999Z</time></trkpt><trkpt lat="46.40628896014637" lon="9.231209905099924"><ele>930.0</ele><time>2026-04-11T07:52:56.999Z</time></trkpt><trkpt lat="46.406423780101015" lon="9.231214787897308"><ele>930.0</ele><time>2026-04-11T07:52:57.999Z</time></trkpt><trkpt lat="46.406559514225265" lon="9.231212390389954"><ele>933.5</ele><time>2026-04-11T07:52:58.999Z</time></trkpt><trkpt lat="46.406695644074716" lon="9.231196174495489"><ele>937.0</ele><time>2026-04-11T07:52:59.999Z</time></trkpt><trkpt lat="46.406838315625244" lon="9.231157403710446"><ele>940.5</ele><time>2026-04-11T07:53:00.999Z</time></trkpt><trkpt lat="46.406957567331375" lon="9.231111960311205"><ele>944.0</ele><time>2026-04-11T07:53:01.999Z</time></trkpt><trkpt lat="46.4070601348049" lon="9.231066160608915"><ele>942.3333333333334</ele><time>2026-04-11T07:53:02.999Z</time></trkpt><trkpt lat="46.40717471116596" lon="9.230996641197361"><ele>940.6666666666667</ele><time>2026-04-11T07:53:03.999Z</time></trkpt><trkpt lat="46.40731510408565" lon="9.230903157898714"><ele>939.0</ele><time>2026-04-11T07:53:04.999Z</time></trkpt><trkpt lat="46.40747822109463" lon="9.230795571484553"><ele>939.0</ele><time>2026-04-11T07:53:05.999Z</time></trkpt><trkpt lat="46.4076629180587" lon="9.23069181677878"><ele>939.0</ele><time>2026-04-11T07:53:06.999Z</time></trkpt><trkpt lat="46.40785428866008" lon="9.230646672732826"><ele>939.0</ele><time>2026-04-11T07:53:07.999Z</time></trkpt><trkpt lat="46.40801593203191" lon="9.230595924591798"><ele>947.0</ele><time>2026-04-11T07:53:08.999Z</time></trkpt><trkpt lat="46.408163695794926" lon="9.230566277305854"><ele>955.0</ele><time>2026-04-11T07:53:09.999Z</time></trkpt><trkpt lat="46.40831607325934" lon="9.230558255958456"><ele>963.0</ele><time>2026-04-11T07:53:10.999Z</time></trkpt><trkpt lat="46.40847675331872" lon="9.230568735079649"><ele>963.0</ele><time>2026-04-11T07:53:11.999Z</time></trkpt><trkpt lat="46.40864060511215" lon="9.230600174089549"><ele>963.0</ele><time>2026-04-11T07:53:12.999Z</time></trkpt><trkpt lat="46.408803648274606" lon="9.230655540260537"><ele>963.0</ele><time>2026-04-11T07:53:14Z</time></trkpt><trkpt lat="46.408963305492236" lon="9.230734086563025"><ele>961.6666666666667</ele><time>2026-04-11T07:53:15Z</time></trkpt><trkpt lat="46.40911564936373" lon="9.230827431312695"><ele>960.3333333333334</ele><time>2026-04-11T07:53:16Z</time></trkpt><trkpt lat="46.40926006578496" lon="9.230945314176855"><ele>959.0</ele><time>2026-04-11T07:53:17Z</time></trkpt><trkpt lat="46.40939839108585" lon="9.231094199844584"><ele>959.0</ele><time>2026-04-11T07:53:18Z</time></trkpt><trkpt lat="46.4095291314491" lon="9.231257230239612"><ele>959.0</ele><time>2026-04-11T07:53:19Z</time></trkpt><trkpt lat="46.40963442325848" lon="9.231417388537553"><ele>959.0</ele><time>2026-04-11T07:53:20Z</time></trkpt><trkpt lat="46.4097276612841" lon="9.23157856698029"><ele>958.6666666666667</ele><time>2026-04-11T07:53:21Z</time></trkpt><trkpt lat="46.409818190471526" lon="9.23177213833289"><ele>958.3333333333333</ele><time>2026-04-11T07:53:22Z</time></trkpt><trkpt lat="46.40989390985694" lon="9.231976704722335"><ele>958.0</ele><time>2026-04-11T07:53:23Z</time></trkpt><trkpt lat="46.40994968372373" lon="9.2321625507377"><ele>958.75</ele><time>2026-04-11T07:53:24Z</time></trkpt><trkpt lat="46.40998721875561" lon="9.232339776688413"><ele>959.5</ele><time>2026-04-11T07:53:25Z</time></trkpt><trkpt lat="46.41002718066065" lon="9.232519538836295"><ele>960.25</ele><time>2026-04-11T07:53:26Z</time></trkpt><trkpt lat="46.41004155219361" lon="9.232708717182597"><ele>961.0</ele><time>2026-04-11T07:53:27Z</time></trkpt><trkpt lat="46.410046700885715" lon="9.232887568280804"><ele>961.0</ele><time>2026-04-11T07:53:28Z</time></trkpt><trkpt lat="46.41004358850955" lon="9.233055151637544"><ele>961.0</ele><time>2026-04-11T07:53:29Z</time></trkpt><trkpt lat="46.41003157115454" lon="9.233222070092014"><ele>961.0</ele><time>2026-04-11T07:53:30Z</time></trkpt><trkpt lat="46.40998651819882" lon="9.233410557348275"><ele>961.0</ele><time>2026-04-11T07:53:31Z</time></trkpt><trkpt lat="46.409933948702864" lon="9.2336332281479"><ele>961.0</ele><time>2026-04-11T07:53:32Z</time></trkpt><trkpt lat="46.40985849410045" lon="9.233864834990499"><ele>961.0</ele><time>2026-04-11T07:53:33Z</time></trkpt><trkpt lat="46.40975612967723" lon="9.23408458113222"><ele>961.0</ele><time>2026-04-11T07:53:34Z</time></trkpt><trkpt lat="46.409645774933026" lon="9.234272305650807"><ele>961.0</ele><time>2026-04-11T07:53:35Z</time></trkpt><trkpt lat="46.409546382968394" lon="9.234437713928973"><ele>961.0</ele><time>2026-04-11T07:53:36Z</time></trkpt><trkpt lat="46.40943467086316" lon="9.234561574087191"><ele>961.0</ele><time>2026-04-11T07:53:37Z</time></trkpt><trkpt lat="46.409311304503134" lon="9.234681324706447"><ele>961.0</ele><time>2026-04-11T07:53:38Z</time></trkpt><trkpt lat="46.4091811362917" lon="9.234811665474675"><ele>960.5</ele><time>2026-04-11T07:53:39Z</time></trkpt><trkpt lat="46.4090605905929" lon="9.234935605175997"><ele>960.0</ele><time>2026-04-11T07:53:40Z</time></trkpt><trkpt lat="46.408958235539146" lon="9.235052081525154"><ele>959.5</ele><time>2026-04-11T07:53:41Z</time></trkpt><trkpt lat="46.408871448464964" lon="9.235165829078209"><ele>959.0</ele><time>2026-04-11T07:53:42Z</time></trkpt><trkpt lat="46.40879379400996" lon="9.235281608825698"><ele>959.0</ele><time>2026-04-11T07:53:43Z</time></trkpt><trkpt lat="46.408719507767415" lon="9.235405250828505"><ele>959.0000000000001</ele><time>2026-04-11T07:53:44Z</time></trkpt><trkpt lat="46.408656057162425" lon="9.235529570041614"><ele>959.0000000000001</ele><time>2026-04-11T07:53:45Z</time></trkpt><trkpt lat="46.40859843593467" lon="9.235659146354575"><ele>959.0</ele><time>2026-04-11T07:53:46Z</time></trkpt><trkpt lat="46.40854588249798" lon="9.235790328141938"><ele>959.0</ele><time>2026-04-11T07:53:47Z</time></trkpt><trkpt lat="46.40849839380872" lon="9.23592602539905"><ele>961.6</ele><time>2026-04-11T07:53:48Z</time></trkpt><trkpt lat="46.408457054427686" lon="9.236054432382273"><ele>964.2</ele><time>2026-04-11T07:53:49Z</time></trkpt><trkpt lat="46.40842377629115" lon="9.236193478097505"><ele>966.8000000000001</ele><time>2026-04-11T07:53:50Z</time></trkpt><trkpt lat="46.40838949848974" lon="9.236343222587173"><ele>969.4000000000001</ele><time>2026-04-11T07:53:51Z</time></trkpt><trkpt lat="46.408355821967696" lon="9.236496054852905"><ele>972.0</ele><time>2026-04-11T07:53:52Z</time></trkpt><trkpt lat="46.40832057163094" lon="9.23664633080695"><ele>975.6</ele><time>2026-04-11T07:53:53Z</time></trkpt><trkpt lat="46.40828459934566" lon="9.236789944399598"><ele>979.2</ele><time>2026-04-11T07:53:54Z</time></trkpt><trkpt lat="46.40824415551823" lon="9.23693154261179"><ele>982.8</ele><time>2026-04-11T07:53:55Z</time></trkpt><trkpt lat="46.408197397630396" lon="9.23706662806117"><ele>986.4</ele><time>2026-04-11T07:53:56Z</time></trkpt><trkpt lat="46.40814246445812" lon="9.237199032512793"><ele>990.0</ele><time>2026-04-11T07:53:57Z</time></trkpt><trkpt lat="46.40808043803976" lon="9.237327662192687"><ele>992.0</ele><time>2026-04-11T07:53:58Z</time></trkpt><trkpt lat="46.4080136829569" lon="9.237455160722824"><ele>994.0</ele><time>2026-04-11T07:53:59Z</time></trkpt><trkpt lat="46.407945450381035" lon="9.23758684429303"><ele>996.0</ele><time>2026-04-11T07:54:00Z</time></trkpt><trkpt lat="46.40788648155412" lon="9.237711141590388"><ele>998.0</ele><time>2026-04-11T07:54:01Z</time></trkpt><trkpt lat="46.40783352861055" lon="9.237829708335372"><ele>1000.0</ele><time>2026-04-11T07:54:02Z</time></trkpt><trkpt lat="46.40779469352834" lon="9.23797051057261"><ele>995.8</ele><time>2026-04-11T07:54:03Z</time></trkpt><trkpt lat="46.40777313774722" lon="9.23812286284806"><ele>991.6</ele><time>2026-04-11T07:54:04Z</time></trkpt><trkpt lat="46.40777397865638" lon="9.238258206453754"><ele>987.4000000000001</ele><time>2026-04-11T07:54:05Z</time></trkpt><trkpt lat="46.40779410751656" lon="9.238370062064893"><ele>983.2</ele><time>2026-04-11T07:54:06Z</time></trkpt><trkpt lat="46.407830317243175" lon="9.238478017724713"><ele>979.0</ele><time>2026-04-11T07:54:07Z</time></trkpt><trkpt lat="46.407884625608084" lon="9.238582988993919"><ele>979.0</ele><time>2026-04-11T07:54:08Z</time></trkpt><trkpt lat="46.407957974283114" lon="9.238670466154565"><ele>979.0000000000001</ele><time>2026-04-11T07:54:09Z</time></trkpt><trkpt lat="46.40804313873192" lon="9.238728344441295"><ele>979.0000000000001</ele><time>2026-04-11T07:54:10Z</time></trkpt><trkpt lat="46.408138269230626" lon="9.238750555433173"><ele>979.0</ele><time>2026-04-11T07:54:11Z</time></trkpt><trkpt lat="46.40823651447492" lon="9.238741180760972"><ele>979.0</ele><time>2026-04-11T07:54:12Z</time></trkpt><trkpt lat="46.408331127451106" lon="9.238702108551406"><ele>983.2</ele><time>2026-04-11T07:54:13Z</time></trkpt><trkpt lat="46.408411710924" lon="9.238633005558642"><ele>987.4000000000001</ele><time>2026-04-11T07:54:14Z</time></trkpt><trkpt lat="46.40848052183907" lon="9.238529776540616"><ele>991.6</ele><time>2026-04-11T07:54:15Z</time></trkpt><trkpt lat="46.408533372557706" lon="9.23840501369613"><ele>995.8</ele><time>2026-04-11T07:54:16Z</time></trkpt><trkpt lat="46.40856873363019" lon="9.238257016319592"><ele>1000.0</ele><time>2026-04-11T07:54:16.999Z</time></trkpt><trkpt lat="46.40857723761509" lon="9.2381005860932"><ele>1000.0</ele><time>2026-04-11T07:54:17.999Z</time></trkpt><trkpt lat="46.40856891587789" lon="9.23795469609432"><ele>1000.0</ele><time>2026-04-11T07:54:18.999Z</time></trkpt><trkpt lat="46.40855887787813" lon="9.237809812408107"><ele>1000.0</ele><time>2026-04-11T07:54:19.999Z</time></trkpt><trkpt lat="46.40856652528873" lon="9.237660321305894"><ele>1000.0</ele><time>2026-04-11T07:54:20.999Z</time></trkpt><trkpt lat="46.408564980751116" lon="9.237515475819912"><ele>1000.0</ele><time>2026-04-11T07:54:21.999Z</time></trkpt><trkpt lat="46.40857754680989" lon="9.237369705583294"><ele>998.0</ele><time>2026-04-11T07:54:22.999Z</time></trkpt><trkpt lat="46.40859446583913" lon="9.237219693478425"><ele>996.0</ele><time>2026-04-11T07:54:23.999Z</time></trkpt><trkpt lat="46.40862607274408" lon="9.237073016954124"><ele>994.0</ele><time>2026-04-11T07:54:24.999Z</time></trkpt><trkpt lat="46.40866644551509" lon="9.236927893424571"><ele>992.0</ele><time>2026-04-11T07:54:25.999Z</time></trkpt><trkpt lat="46.408717630600464" lon="9.236792142114968"><ele>990.0</ele><time>2026-04-11T07:54:26.999Z</time></trkpt><trkpt lat="46.40877701466676" lon="9.236666071024475"><ele>992.0</ele><time>2026-04-11T07:54:27.999Z</time></trkpt><trkpt lat="46.40884323362827" lon="9.236550408170272"><ele>994.0</ele><time>2026-04-11T07:54:28.999Z</time></trkpt><trkpt lat="46.408915651409565" lon="9.236441963628453"><ele>996.0</ele><time>2026-04-11T07:54:29.999Z</time></trkpt><trkpt lat="46.408996131987415" lon="9.23634301873877"><ele>998.0</ele><time>2026-04-11T07:54:30.999Z</time></trkpt><trkpt lat="46.40908745052042" lon="9.236259486579963"><ele>1000.0</ele><time>2026-04-11T07:54:31.999Z</time></trkpt><trkpt lat="46.40918321974447" lon="9.236184830832476"><ele>1000.0</ele><time>2026-04-11T07:54:32.999Z</time></trkpt><trkpt lat="46.409279555090436" lon="9.236121185032799"><ele>1000.0</ele><time>2026-04-11T07:54:33.999Z</time></trkpt><trkpt lat="46.40937882968038" lon="9.236076929987973"><ele>1000.0</ele><time>2026-04-11T07:54:34.999Z</time></trkpt><trkpt lat="46.409480497584426" lon="9.236057002009494"><ele>1000.0</ele><time>2026-04-11T07:54:35.999Z</time></trkpt><trkpt lat="46.409585871033165" lon="9.23604568208895"><ele>1000.0</ele><time>2026-04-11T07:54:36.999Z</time></trkpt><trkpt lat="46.40969116299049" lon="9.23604323043658"><ele>1002.2</ele><time>2026-04-11T07:54:37.999Z</time></trkpt><trkpt lat="46.40979872215289" lon="9.236058493660499"><ele>1004.4</ele><time>2026-04-11T07:54:38.999Z</time></trkpt><trkpt lat="46.4099112533558" lon="9.236083921948461"><ele>1006.5999999999999</ele><time>2026-04-11T07:54:39.999Z</time></trkpt><trkpt lat="46.410018314524216" lon="9.236113574956272"><ele>1008.8</ele><time>2026-04-11T07:54:40.999Z</time></trkpt><trkpt lat="46.41012887977958" lon="9.236150699838284"><ele>1011.0</ele><time>2026-04-11T07:54:41.999Z</time></trkpt><trkpt lat="46.41023129361061" lon="9.236185655300412"><ele>1011.0</ele><time>2026-04-11T07:54:42.999Z</time></trkpt><trkpt lat="46.41034640985381" lon="9.236224946296419"><ele>1011.0</ele><time>2026-04-11T07:54:43.999Z</time></trkpt><trkpt lat="46.4104842087338" lon="9.236269183861587"><ele>1011.0</ele><time>2026-04-11T07:54:44.999Z</time></trkpt><trkpt lat="46.41061164415818" lon="9.23629809538052"><ele>1011.0</ele><time>2026-04-11T07:54:45.999Z</time></trkpt><trkpt lat="46.410721393415216" lon="9.236312504231297"><ele>1012.4</ele><time>2026-04-11T07:54:46.999Z</time></trkpt><trkpt lat="46.41082872092308" lon="9.236318247560675"><ele>1013.8</ele><time>2026-04-11T07:54:47.999Z</time></trkpt><trkpt lat="46.410934920529805" lon="9.236316765457621"><ele>1015.1999999999999</ele><time>2026-04-11T07:54:48.999Z</time></trkpt><trkpt lat="46.41104151683197" lon="9.23631211271808"><ele>1016.5999999999999</ele><time>2026-04-11T07:54:49.999Z</time></trkpt><trkpt lat="46.411165164624556" lon="9.236295043562784"><ele>1018.0</ele><time>2026-04-11T07:54:50.999Z</time></trkpt><trkpt lat="46.41132106286777" lon="9.236257648403708"><ele>1020.6666666666666</ele><time>2026-04-11T07:54:51.999Z</time></trkpt><trkpt lat="46.4115076244136" lon="9.236201750355093"><ele>1023.3333333333333</ele><time>2026-04-11T07:54:52.999Z</time></trkpt><trkpt lat="46.41172023652402" lon="9.2361176862657"><ele>1026.0</ele><time>2026-04-11T07:54:53.999Z</time></trkpt><trkpt lat="46.41194035464031" lon="9.235991235663672"><ele>1026.0</ele><time>2026-04-11T07:54:54.999Z</time></trkpt><trkpt lat="46.412151086913866" lon="9.23587440398139"><ele>1026.0</ele><time>2026-04-11T07:54:55.999Z</time></trkpt><trkpt lat="46.41234264031414" lon="9.235730346246465"><ele>1026.0</ele><time>2026-04-11T07:54:56.999Z</time></trkpt><trkpt lat="46.41251900729294" lon="9.235567869069188"><ele>1028.3333333333333</ele><time>2026-04-11T07:54:57.999Z</time></trkpt><trkpt lat="46.41268829134535" lon="9.23538597172734"><ele>1030.6666666666665</ele><time>2026-04-11T07:54:58.999Z</time></trkpt><trkpt lat="46.412845592642604" lon="9.235166787169137"><ele>1033.0</ele><time>2026-04-11T07:54:59.999Z</time></trkpt><trkpt lat="46.412978674082694" lon="9.234915835242735"><ele>1038.3333333333333</ele><time>2026-04-11T07:55:00.999Z</time></trkpt><trkpt lat="46.4130939392999" lon="9.234640250869173"><ele>1043.6666666666667</ele><time>2026-04-11T07:55:01.999Z</time></trkpt><trkpt lat="46.41318453165445" lon="9.234349910124326"><ele>1049.0</ele><time>2026-04-11T07:55:02.999Z</time></trkpt><trkpt lat="46.41325230275377" lon="9.234051718692381"><ele>1050.0</ele><time>2026-04-11T07:55:03.999Z</time></trkpt><trkpt lat="46.4132978610781" lon="9.233747960346834"><ele>1051.0</ele><time>2026-04-11T07:55:04.999Z</time></trkpt><trkpt lat="46.413316574031434" lon="9.233435355556361"><ele>1052.0</ele><time>2026-04-11T07:55:05.999Z</time></trkpt><trkpt lat="46.413306841946714" lon="9.233118947219337"><ele>1054.6666666666667</ele><time>2026-04-11T07:55:06.999Z</time></trkpt><trkpt lat="46.41327593409176" lon="9.232804772268146"><ele>1057.3333333333333</ele><time>2026-04-11T07:55:07.999Z</time></trkpt><trkpt lat="46.41322498074086" lon="9.23249538601497"><ele>1060.0</ele><time>2026-04-11T07:55:08.999Z</time></trkpt><trkpt lat="46.4131567773014" lon="9.232191812463281"><ele>1063.0</ele><time>2026-04-11T07:55:09.999Z</time></trkpt><trkpt lat="46.41307742092711" lon="9.231893684322852"><ele>1066.0</ele><time>2026-04-11T07:55:10.999Z</time></trkpt><trkpt lat="46.412991806658" lon="9.23160224705132"><ele>1069.0</ele><time>2026-04-11T07:55:11.999Z</time></trkpt><trkpt lat="46.41290441021002" lon="9.231310976308373"><ele>1057.0</ele><time>2026-04-11T07:55:12.999Z</time></trkpt><trkpt lat="46.41281721706741" lon="9.231019964249038"><ele>1045.0</ele><time>2026-04-11T07:55:13.999Z</time></trkpt><trkpt lat="46.412732039183275" lon="9.230730970391283"><ele>1033.0</ele><time>2026-04-11T07:55:14.999Z</time></trkpt><trkpt lat="46.412649236300645" lon="9.230445334649604"><ele>1032.0</ele><time>2026-04-11T07:55:15.999Z</time></trkpt><trkpt lat="46.41259260011931" lon="9.230185833494975"><ele>1031.0</ele><time>2026-04-11T07:55:16.999Z</time></trkpt><trkpt lat="46.41249197543672" lon="9.229890470752162"><ele>1030.0</ele><time>2026-04-11T07:55:17.999Z</time></trkpt><trkpt lat="46.4124286938697" lon="9.229607769731599"><ele>1038.0</ele><time>2026-04-11T07:55:18.999Z</time></trkpt><trkpt lat="46.41235869043742" lon="9.229355224054109"><ele>1046.0</ele><time>2026-04-11T07:55:20Z</time></trkpt><trkpt lat="46.41229669474063" lon="9.229112966046984"><ele>1054.0</ele><time>2026-04-11T07:55:21Z</time></trkpt><trkpt lat="46.412244257701026" lon="9.228861012474583"><ele>1058.6666666666665</ele><time>2026-04-11T07:55:22Z</time></trkpt><trkpt lat="46.412215580243625" lon="9.22860193937819"><ele>1063.3333333333333</ele><time>2026-04-11T07:55:23Z</time></trkpt><trkpt lat="46.41221999646096" lon="9.228346441498495"><ele>1068.0</ele><time>2026-04-11T07:55:24Z</time></trkpt><trkpt lat="46.412265782648866" lon="9.22812053564292"><ele>1072.3333333333333</ele><time>2026-04-11T07:55:25Z</time></trkpt><trkpt lat="46.41233737592367" lon="9.227903729244586"><ele>1076.6666666666665</ele><time>2026-04-11T07:55:26Z</time></trkpt><trkpt lat="46.41245842358501" lon="9.227728072559916"><ele>1081.0</ele><time>2026-04-11T07:55:27Z</time></trkpt><trkpt lat="46.41261252658531" lon="9.227579646428616"><ele>1081.0</ele><time>2026-04-11T07:55:28Z</time></trkpt><trkpt lat="46.412799838515134" lon="9.227518669486571"><ele>1081.0</ele><time>2026-04-11T07:55:29Z</time></trkpt><trkpt lat="46.41299073932237" lon="9.22751648191053"><ele>1081.0</ele><time>2026-04-11T07:55:30Z</time></trkpt><trkpt lat="46.41316969229392" lon="9.227610786140604"><ele>1079.0</ele><time>2026-04-11T07:55:31Z</time></trkpt><trkpt lat="46.41333403061661" lon="9.22777747472568"><ele>1077.0</ele><time>2026-04-11T07:55:32Z</time></trkpt><trkpt lat="46.413475189466915" lon="9.227982275631174"><ele>1075.0</ele><time>2026-04-11T07:55:33Z</time></trkpt><trkpt lat="46.413595617319146" lon="9.22822583926828"><ele>1075.0</ele><time>2026-04-11T07:55:34Z</time></trkpt><trkpt lat="46.41370754733194" lon="9.228480797560913"><ele>1075.0</ele><time>2026-04-11T07:55:35Z</time></trkpt><trkpt lat="46.413810570114926" lon="9.228742617574834"><ele>1075.0</ele><time>2026-04-11T07:55:36Z</time></trkpt><trkpt lat="46.4139120552956" lon="9.229006713896387"><ele>1072.0</ele><time>2026-04-11T07:55:37Z</time></trkpt><trkpt lat="46.41401330829941" lon="9.229270391470132"><ele>1069.0</ele><time>2026-04-11T07:55:38Z</time></trkpt><trkpt lat="46.414115360669705" lon="9.229533824231122"><ele>1066.0</ele><time>2026-04-11T07:55:39Z</time></trkpt><trkpt lat="46.41421887728873" lon="9.229796418277903"><ele>1071.0</ele><time>2026-04-11T07:55:40Z</time></trkpt><trkpt lat="46.4143224574491" lon="9.23005869448208"><ele>1076.0</ele><time>2026-04-11T07:55:41Z</time></trkpt><trkpt lat="46.41442681546437" lon="9.23032148748319"><ele>1081.0</ele><time>2026-04-11T07:55:42Z</time></trkpt><trkpt lat="46.41452883974979" lon="9.230585884560535"><ele>1082.3333333333333</ele><time>2026-04-11T07:55:43Z</time></trkpt><trkpt lat="46.41463052503969" lon="9.230849552927035"><ele>1083.6666666666667</ele><time>2026-04-11T07:55:44Z</time></trkpt><trkpt lat="46.41473180687627" lon="9.231110952610667"><ele>1085.0</ele><time>2026-04-11T07:55:45Z</time></trkpt><trkpt lat="46.414833822531286" lon="9.231374675838152"><ele>1093.3333333333335</ele><time>2026-04-11T07:55:46Z</time></trkpt><trkpt lat="46.41493345510673" lon="9.231637970899117"><ele>1101.6666666666667</ele><time>2026-04-11T07:55:47Z</time></trkpt><trkpt lat="46.41502709175418" lon="9.23190436817251"><ele>1110.0</ele><time>2026-04-11T07:55:48Z</time></trkpt><trkpt lat="46.41510533640462" lon="9.232180921248435"><ele>1108.3333333333333</ele><time>2026-04-11T07:55:49Z</time></trkpt><trkpt lat="46.41515668466884" lon="9.232463445745726"><ele>1106.6666666666665</ele><time>2026-04-11T07:55:50Z</time></trkpt><trkpt lat="46.41517710078099" lon="9.232753200569348"><ele>1105.0</ele><time>2026-04-11T07:55:51Z</time></trkpt><trkpt lat="46.415162791837815" lon="9.233042222605434"><ele>1105.3333333333333</ele><time>2026-04-11T07:55:52Z</time></trkpt><trkpt lat="46.41512665869026" lon="9.23332113772871"><ele>1105.6666666666667</ele><time>2026-04-11T07:55:53Z</time></trkpt><trkpt lat="46.415087394592724" lon="9.233572918480364"><ele>1106.0</ele><time>2026-04-11T07:55:54Z</time></trkpt><trkpt lat="46.4150691832919" lon="9.233804974555088"><ele>1106.0</ele><time>2026-04-11T07:55:55Z</time></trkpt><trkpt lat="46.41507733361606" lon="9.234013898073453"><ele>1106.0</ele><time>2026-04-11T07:55:56Z</time></trkpt><trkpt lat="46.415126035096954" lon="9.234215863835988"><ele>1106.0</ele><time>2026-04-11T07:55:57Z</time></trkpt><trkpt lat="46.415221166210586" lon="9.234384231254168"><ele>1106.0</ele><time>2026-04-11T07:55:58Z</time></trkpt><trkpt lat="46.41534624009178" lon="9.234488812564516"><ele>1115.3333333333335</ele><time>2026-04-11T07:55:59Z</time></trkpt><trkpt lat="46.415487809906956" lon="9.234547667528105"><ele>1124.6666666666667</ele><time>2026-04-11T07:56:00Z</time></trkpt><trkpt lat="46.415644704942935" lon="9.234516775974646"><ele>1134.0</ele><time>2026-04-11T07:56:01Z</time></trkpt><trkpt lat="46.41577603489209" lon="9.23436713344112"><ele>1134.0</ele><time>2026-04-11T07:56:02Z</time></trkpt><trkpt lat="46.41587119740934" lon="9.23420212410565"><ele>1134.0</ele><time>2026-04-11T07:56:03Z</time></trkpt><trkpt lat="46.41592265119411" lon="9.233989942712762"><ele>1134.0</ele><time>2026-04-11T07:56:04Z</time></trkpt><trkpt lat="46.41591953321374" lon="9.233752531475371"><ele>1133.6666666666667</ele><time>2026-04-11T07:56:05Z</time></trkpt><trkpt lat="46.41590235257534" lon="9.233493632630008"><ele>1133.3333333333335</ele><time>2026-04-11T07:56:06Z</time></trkpt><trkpt lat="46.41586864337629" lon="9.233240761008574"><ele>1133.0</ele><time>2026-04-11T07:56:07Z</time></trkpt><trkpt lat="46.41583650263474" lon="9.232980961756281"><ele>1133.0</ele><time>2026-04-11T07:56:08Z</time></trkpt><trkpt lat="46.415790458064826" lon="9.23268559498467"><ele>1133.0</ele><time>2026-04-11T07:56:09Z</time></trkpt><trkpt lat="46.41575346150447" lon="9.23238308732935"><ele>1133.0</ele><time>2026-04-11T07:56:10Z</time></trkpt><trkpt lat="46.41571633452768" lon="9.232082105794776"><ele>1134.0</ele><time>2026-04-11T07:56:11Z</time></trkpt><trkpt lat="46.415680618532534" lon="9.231781887638979"><ele>1135.0</ele><time>2026-04-11T07:56:12Z</time></trkpt><trkpt lat="46.41565414228257" lon="9.23147846952291"><ele>1136.0</ele><time>2026-04-11T07:56:13Z</time></trkpt><trkpt lat="46.41565897260353" lon="9.231166262934153"><ele>1138.3333333333335</ele><time>2026-04-11T07:56:14Z</time></trkpt><trkpt lat="46.41567003735174" lon="9.230856825549465"><ele>1140.6666666666667</ele><time>2026-04-11T07:56:15Z</time></trkpt><trkpt lat="46.41569507207973" lon="9.230542468057804"><ele>1143.0</ele><time>2026-04-11T07:56:16Z</time></trkpt><trkpt lat="46.4157314950722" lon="9.230235251869537"><ele>1143.0</ele><time>2026-04-11T07:56:16.999Z</time></trkpt><trkpt lat="46.415779524210144" lon="9.229933877892089"><ele>1143.0</ele><time>2026-04-11T07:56:17.999Z</time></trkpt><trkpt lat="46.415832545364665" lon="9.229633456627791"><ele>1143.0</ele><time>2026-04-11T07:56:18.999Z</time></trkpt><trkpt lat="46.41587200207838" lon="9.229337894324868"><ele>1143.0</ele><time>2026-04-11T07:56:19.999Z</time></trkpt><trkpt lat="46.41593454253579" lon="9.229057039133219"><ele>1143.0</ele><time>2026-04-11T07:56:20.999Z</time></trkpt><trkpt lat="46.41599182983252" lon="9.228781411468741"><ele>1143.0</ele><time>2026-04-11T07:56:21.999Z</time></trkpt><trkpt lat="46.41605547586396" lon="9.228502881707959"><ele>1139.6666666666667</ele><time>2026-04-11T07:56:22.999Z</time></trkpt><trkpt lat="46.41611262734297" lon="9.22823468976946"><ele>1136.3333333333335</ele><time>2026-04-11T07:56:23.999Z</time></trkpt><trkpt lat="46.416172134892385" lon="9.227966261346161"><ele>1133.0</ele><time>2026-04-11T07:56:24.999Z</time></trkpt><trkpt lat="46.41626084219509" lon="9.227720190441932"><ele>1141.6666666666667</ele><time>2026-04-11T07:56:25.999Z</time></trkpt><trkpt lat="46.41635115349218" lon="9.227470746064176"><ele>1150.3333333333333</ele><time>2026-04-11T07:56:26.999Z</time></trkpt><trkpt lat="46.4164551546835" lon="9.227234956444345"><ele>1159.0</ele><time>2026-04-11T07:56:27.999Z</time></trkpt><trkpt lat="46.41658554894044" lon="9.227019798154556"><ele>1159.0</ele><time>2026-04-11T07:56:28.999Z</time></trkpt><trkpt lat="46.41672857608258" lon="9.226810073236036"><ele>1159.0</ele><time>2026-04-11T07:56:29.999Z</time></trkpt><trkpt lat="46.41689543628716" lon="9.2266472165421"><ele>1159.0</ele><time>2026-04-11T07:56:30.999Z</time></trkpt><trkpt lat="46.41707091818886" lon="9.226515679005061"><ele>1162.6666666666665</ele><time>2026-04-11T07:56:31.999Z</time></trkpt><trkpt lat="46.41725639080363" lon="9.226417619224216"><ele>1166.3333333333333</ele><time>2026-04-11T07:56:32.999Z</time></trkpt><trkpt lat="46.417453758522825" lon="9.226379515894802"><ele>1170.0</ele><time>2026-04-11T07:56:33.999Z</time></trkpt><trkpt lat="46.41765173648206" lon="9.226333578789804"><ele>1170.0</ele><time>2026-04-11T07:56:34.999Z</time></trkpt><trkpt lat="46.41785347348451" lon="9.226342901883086"><ele>1170.0</ele><time>2026-04-11T07:56:35.999Z</time></trkpt><trkpt lat="46.41805501553616" lon="9.226388801893016"><ele>1170.0</ele><time>2026-04-11T07:56:36.999Z</time></trkpt><trkpt lat="46.41825194633258" lon="9.226440058548455"><ele>1172.3333333333333</ele><time>2026-04-11T07:56:37.999Z</time></trkpt><trkpt lat="46.41845036244038" lon="9.22648187351218"><ele>1174.6666666666665</ele><time>2026-04-11T07:56:38.999Z</time></trkpt><trkpt lat="46.418652718050545" lon="9.226518560811051"><ele>1177.0</ele><time>2026-04-11T07:56:39.999Z</time></trkpt><trkpt lat="46.41885453365941" lon="9.226556025313588"><ele>1178.0</ele><time>2026-04-11T07:56:40.999Z</time></trkpt><trkpt lat="46.41905571734028" lon="9.226591078248571"><ele>1179.0</ele><time>2026-04-11T07:56:41.999Z</time></trkpt><trkpt lat="46.41926191219421" lon="9.226627703326697"><ele>1180.0</ele><time>2026-04-11T07:56:42.999Z</time></trkpt><trkpt lat="46.4194663281369" lon="9.226663146026539"><ele>1181.0</ele><time>2026-04-11T07:56:43.999Z</time></trkpt><trkpt lat="46.419678566118904" lon="9.226700345211507"><ele>1182.0</ele><time>2026-04-11T07:56:44.999Z</time></trkpt><trkpt lat="46.41989005393445" lon="9.22673208883325"><ele>1183.0</ele><time>2026-04-11T07:56:45.999Z</time></trkpt><trkpt lat="46.42009870491053" lon="9.226753127250475"><ele>1183.0</ele><time>2026-04-11T07:56:46.999Z</time></trkpt><trkpt lat="46.42030586176339" lon="9.226767496064138"><ele>1183.0</ele><time>2026-04-11T07:56:47.999Z</time></trkpt><trkpt lat="46.42051283175735" lon="9.226780799496675"><ele>1183.0</ele><time>2026-04-11T07:56:48.999Z</time></trkpt><trkpt lat="46.42072557830238" lon="9.226791967002677"><ele>1184.6666666666665</ele><time>2026-04-11T07:56:49.999Z</time></trkpt><trkpt lat="46.42093557876759" lon="9.226803878815355"><ele>1186.3333333333333</ele><time>2026-04-11T07:56:50.999Z</time></trkpt><trkpt lat="46.421145730333755" lon="9.2268078181774"><ele>1188.0</ele><time>2026-04-11T07:56:51.999Z</time></trkpt><trkpt lat="46.42135613729784" lon="9.226817399134768"><ele>1190.6666666666667</ele><time>2026-04-11T07:56:52.999Z</time></trkpt><trkpt lat="46.42156892799049" lon="9.22682297964986"><ele>1193.3333333333335</ele><time>2026-04-11T07:56:53.999Z</time></trkpt><trkpt lat="46.421781731277584" lon="9.226828947218856"><ele>1196.0</ele><time>2026-04-11T07:56:54.999Z</time></trkpt><trkpt lat="46.422002282283515" lon="9.226831486348058"><ele>1197.3333333333335</ele><time>2026-04-11T07:56:55.999Z</time></trkpt><trkpt lat="46.42222368626369" lon="9.226833091711878"><ele>1198.6666666666667</ele><time>2026-04-11T07:56:56.999Z</time></trkpt><trkpt lat="46.422448786980596" lon="9.226837904588747"><ele>1200.0</ele><time>2026-04-11T07:56:57.999Z</time></trkpt><trkpt lat="46.42267585052283" lon="9.22684185348371"><ele>1200.0</ele><time>2026-04-11T07:56:58.999Z</time></trkpt><trkpt lat="46.422904410328" lon="9.226844343884187"><ele>1200.0</ele><time>2026-04-11T07:56:59.999Z</time></trkpt><trkpt lat="46.42313032166438" lon="9.226842733268589"><ele>1204.0</ele><time>2026-04-11T07:57:00.999Z</time></trkpt><trkpt lat="46.42335834431099" lon="9.226835044538808"><ele>1208.0</ele><time>2026-04-11T07:57:01.999Z</time></trkpt><trkpt lat="46.423582204440855" lon="9.22679752711528"><ele>1208.0</ele><time>2026-04-11T07:57:02.999Z</time></trkpt><trkpt lat="46.42380430643117" lon="9.226714850252172"><ele>1208.0</ele><time>2026-04-11T07:57:03.999Z</time></trkpt><trkpt lat="46.424013529760806" lon="9.22659179662427"><ele>1205.6666666666667</ele><time>2026-04-11T07:57:04.999Z</time></trkpt><trkpt lat="46.424199223322155" lon="9.226454899943793"><ele>1203.3333333333333</ele><time>2026-04-11T07:57:05.999Z</time></trkpt><trkpt lat="46.42436457402462" lon="9.226321112949583"><ele>1201.0</ele><time>2026-04-11T07:57:06.999Z</time></trkpt><trkpt lat="46.424513699264466" lon="9.226206122070476"><ele>1203.3333333333333</ele><time>2026-04-11T07:57:07.999Z</time></trkpt><trkpt lat="46.424658914105926" lon="9.22612768724733"><ele>1205.6666666666667</ele><time>2026-04-11T07:57:08.999Z</time></trkpt><trkpt lat="46.424813407564336" lon="9.226093873237781"><ele>1208.0</ele><time>2026-04-11T07:57:09.999Z</time></trkpt><trkpt lat="46.42496350390221" lon="9.226128202193134"><ele>1208.0</ele><time>2026-04-11T07:57:10.999Z</time></trkpt><trkpt lat="46.425088415260625" lon="9.22622530799265"><ele>1208.0</ele><time>2026-04-11T07:57:11.999Z</time></trkpt><trkpt lat="46.42518199141968" lon="9.226381264744884"><ele>1208.0</ele><time>2026-04-11T07:57:12.999Z</time></trkpt><trkpt lat="46.425224817729486" lon="9.226579848250507"><ele>1208.0</ele><time>2026-04-11T07:57:13.999Z</time></trkpt><trkpt lat="46.425211068911494" lon="9.226802153150388"><ele>1212.6666666666667</ele><time>2026-04-11T07:57:14.999Z</time></trkpt><trkpt lat="46.425138045995865" lon="9.226992669135631"><ele>1217.3333333333333</ele><time>2026-04-11T07:57:15.999Z</time></trkpt><trkpt lat="46.42501256526089" lon="9.227139817666595"><ele>1222.0</ele><time>2026-04-11T07:57:16.999Z</time></trkpt><trkpt lat="46.424848396218145" lon="9.227228182549636"><ele>1222.0</ele><time>2026-04-11T07:57:17.999Z</time></trkpt><trkpt lat="46.42465933970384" lon="9.227254662708395"><ele>1222.0</ele><time>2026-04-11T07:57:18.999Z</time></trkpt><trkpt lat="46.42446761956664" lon="9.227244953065906"><ele>1222.0</ele><time>2026-04-11T07:57:19.999Z</time></trkpt><trkpt lat="46.424273974901546" lon="9.22724081957495"><ele>1220.6666666666665</ele><time>2026-04-11T07:57:20.999Z</time></trkpt><trkpt lat="46.42408087255375" lon="9.227279689756807"><ele>1219.3333333333333</ele><time>2026-04-11T07:57:21.999Z</time></trkpt><trkpt lat="46.42388817638558" lon="9.227348485752918"><ele>1218.0</ele><time>2026-04-11T07:57:22.999Z</time></trkpt><trkpt lat="46.4236958351967" lon="9.22745254846824"><ele>1222.6666666666667</ele><time>2026-04-11T07:57:23.999Z</time></trkpt><trkpt lat="46.42351161146264" lon="9.227590605956827"><ele>1227.3333333333335</ele><time>2026-04-11T07:57:24.999Z</time></trkpt><trkpt lat="46.42333812881144" lon="9.227756361883038"><ele>1232.0</ele><time>2026-04-11T07:57:26Z</time></trkpt><trkpt lat="46.42317183186528" lon="9.227952096727133"><ele>1235.0</ele><time>2026-04-11T07:57:27Z</time></trkpt><trkpt lat="46.42300711271304" lon="9.228162588293849"><ele>1238.0</ele><time>2026-04-11T07:57:28Z</time></trkpt><trkpt lat="46.42284069560108" lon="9.228370604539181"><ele>1241.0</ele><time>2026-04-11T07:57:29Z</time></trkpt><trkpt lat="46.42267002002536" lon="9.22858508449406"><ele>1241.0</ele><time>2026-04-11T07:57:30Z</time></trkpt><trkpt lat="46.422502429608016" lon="9.228801634123744"><ele>1241.0</ele><time>2026-04-11T07:57:31Z</time></trkpt><trkpt lat="46.42233272415718" lon="9.229020951398013"><ele>1240.0</ele><time>2026-04-11T07:57:32Z</time></trkpt><trkpt lat="46.42216518825655" lon="9.22923210216058"><ele>1239.0</ele><time>2026-04-11T07:57:33Z</time></trkpt><trkpt lat="46.42200259415893" lon="9.229438323834204"><ele>1238.0</ele><time>2026-04-11T07:57:34Z</time></trkpt><trkpt lat="46.42184432390075" lon="9.229639231580462"><ele>1243.0</ele><time>2026-04-11T07:57:35Z</time></trkpt><trkpt lat="46.4216861169196" lon="9.229830747659012"><ele>1248.0</ele><time>2026-04-11T07:57:36Z</time></trkpt><trkpt lat="46.421530959327406" lon="9.230026491513792"><ele>1253.0</ele><time>2026-04-11T07:57:37Z</time></trkpt><trkpt lat="46.421376245999696" lon="9.23022149131676"><ele>1255.6666666666667</ele><time>2026-04-11T07:57:38Z</time></trkpt><trkpt lat="46.42122215426269" lon="9.230415373548785"><ele>1258.3333333333333</ele><time>2026-04-11T07:57:39Z</time></trkpt><trkpt lat="46.421066958191254" lon="9.23060876276676"><ele>1261.0</ele><time>2026-04-11T07:57:40Z</time></trkpt><trkpt lat="46.42090982292508" lon="9.230803371745367"><ele>1261.0</ele><time>2026-04-11T07:57:41Z</time></trkpt><trkpt lat="46.420749934436195" lon="9.230984115005485"><ele>1261.0</ele><time>2026-04-11T07:57:42Z</time></trkpt><trkpt lat="46.42058622350756" lon="9.231144180488881"><ele>1261.0</ele><time>2026-04-11T07:57:43Z</time></trkpt><trkpt lat="46.42042677687023" lon="9.231268930096626"><ele>1262.0</ele><time>2026-04-11T07:57:44Z</time></trkpt><trkpt lat="46.42026974981422" lon="9.231366951156824"><ele>1263.0</ele><time>2026-04-11T07:57:45Z</time></trkpt><trkpt lat="46.420116939870866" lon="9.231445662771577"><ele>1264.0</ele><time>2026-04-11T07:57:46Z</time></trkpt><trkpt lat="46.41997618913755" lon="9.231512137048139"><ele>1264.0</ele><time>2026-04-11T07:57:47Z</time></trkpt><trkpt lat="46.419852146099004" lon="9.231572678092618"><ele>1264.0</ele><time>2026-04-11T07:57:48Z</time></trkpt><trkpt lat="46.419738973988345" lon="9.231648634589337"><ele>1264.0</ele><time>2026-04-11T07:57:49Z</time></trkpt><trkpt lat="46.41963998477639" lon="9.231748111307759"><ele>1264.0</ele><time>2026-04-11T07:57:50Z</time></trkpt><trkpt lat="46.41956276680202" lon="9.23186624713899"><ele>1261.1666666666665</ele><time>2026-04-11T07:57:51Z</time></trkpt><trkpt lat="46.41950964480038" lon="9.232000186659965"><ele>1258.3333333333333</ele><time>2026-04-11T07:57:52Z</time></trkpt><trkpt lat="46.41947982122789" lon="9.232140506571207"><ele>1255.5</ele><time>2026-04-11T07:57:53Z</time></trkpt><trkpt lat="46.4194779144559" lon="9.232265557969434"><ele>1252.6666666666667</ele><time>2026-04-11T07:57:54Z</time></trkpt><trkpt lat="46.41949623454183" lon="9.2323694918217"><ele>1249.8333333333335</ele><time>2026-04-11T07:57:55Z</time></trkpt><trkpt lat="46.41952549144469" lon="9.232460601392246"><ele>1247.0</ele><time>2026-04-11T07:57:56Z</time></trkpt><trkpt lat="46.41956528046902" lon="9.23254864571306"><ele>1247.0</ele><time>2026-04-11T07:57:57Z</time></trkpt><trkpt lat="46.41961561276498" lon="9.23262623667239"><ele>1247.0</ele><time>2026-04-11T07:57:58Z</time></trkpt><trkpt lat="46.41967713101879" lon="9.23269331043507"><ele>1247.0</ele><time>2026-04-11T07:57:59Z</time></trkpt><trkpt lat="46.41974946817908" lon="9.23274066298971"><ele>1247.0</ele><time>2026-04-11T07:58:00Z</time></trkpt><trkpt lat="46.41983007581367" lon="9.232761905295025"><ele>1247.0</ele><time>2026-04-11T07:58:01Z</time></trkpt><trkpt lat="46.41992061314723" lon="9.232756693576139"><ele>1247.0</ele><time>2026-04-11T07:58:02Z</time></trkpt><trkpt lat="46.42001698892821" lon="9.232722541521648"><ele>1250.4</ele><time>2026-04-11T07:58:03Z</time></trkpt><trkpt lat="46.42011621673097" lon="9.23265590280492"><ele>1253.8000000000002</ele><time>2026-04-11T07:58:04Z</time></trkpt><trkpt lat="46.4202160365115" lon="9.23259332606568"><ele>1257.2</ele><time>2026-04-11T07:58:05Z</time></trkpt><trkpt lat="46.420288801741606" lon="9.232472057613906"><ele>1260.6000000000001</ele><time>2026-04-11T07:58:06Z</time></trkpt><trkpt lat="46.420386360143354" lon="9.232372466489178"><ele>1264.0</ele><time>2026-04-11T07:58:07Z</time></trkpt><trkpt lat="46.42047456684584" lon="9.232252323348805"><ele>1270.0</ele><time>2026-04-11T07:58:08Z</time></trkpt><trkpt lat="46.420568668650965" lon="9.232135973189074"><ele>1276.0</ele><time>2026-04-11T07:58:09Z</time></trkpt><trkpt lat="46.420664521094004" lon="9.232022261437377"><ele>1282.0</ele><time>2026-04-11T07:58:10Z</time></trkpt><trkpt lat="46.4207692506689" lon="9.23191452892484"><ele>1288.0</ele><time>2026-04-11T07:58:11Z</time></trkpt><trkpt lat="46.42088212918408" lon="9.231818252298106"><ele>1288.0</ele><time>2026-04-11T07:58:12Z</time></trkpt><trkpt lat="46.42099856443182" lon="9.231736455736517"><ele>1288.0</ele><time>2026-04-11T07:58:13Z</time></trkpt><trkpt lat="46.42111739553517" lon="9.231666978511944"><ele>1288.0</ele><time>2026-04-11T07:58:14Z</time></trkpt><trkpt lat="46.4212258149426" lon="9.231615854041628"><ele>1288.0</ele><time>2026-04-11T07:58:15Z</time></trkpt><trkpt lat="46.42132292972833" lon="9.231582922689752"><ele>1290.0</ele><time>2026-04-11T07:58:16Z</time></trkpt><trkpt lat="46.42140802601543" lon="9.231555400519996"><ele>1292.0</ele><time>2026-04-11T07:58:17Z</time></trkpt><trkpt lat="46.42148260501173" lon="9.231530345968299"><ele>1294.0</ele><time>2026-04-11T07:58:18Z</time></trkpt><trkpt lat="46.42155324586248" lon="9.231506063742467"><ele>1296.0</ele><time>2026-04-11T07:58:18.999Z</time></trkpt><trkpt lat="46.42161295727595" lon="9.231466632600327"><ele>1298.0</ele><time>2026-04-11T07:58:19.999Z</time></trkpt><trkpt lat="46.421717907884805" lon="9.231433846052687"><ele>1300.0</ele><time>2026-04-11T07:58:21.999Z</time></trkpt><trkpt lat="46.421816390866326" lon="9.231400745732428"><ele>1299.0</ele><time>2026-04-11T07:58:23.999Z</time></trkpt><trkpt lat="46.4219221803558" lon="9.231368801216918"><ele>1298.0</ele><time>2026-04-11T07:58:25.999Z</time></trkpt><trkpt lat="46.422031263403696" lon="9.231324265625938"><ele>1297.0</ele><time>2026-04-11T07:58:27.999Z</time></trkpt><trkpt lat="46.42210484646594" lon="9.231291927657095"><ele>1296.0</ele><time>2026-04-11T07:58:31.999Z</time></trkpt><trkpt lat="46.422167461756246" lon="9.231270528318475"><ele>1295.0</ele><time>2026-04-11T07:58:33.999Z</time></trkpt><trkpt lat="46.422244385292665" lon="9.231233857687418"><ele>1294.0</ele><time>2026-04-11T07:58:35.999Z</time></trkpt><trkpt lat="46.42234992507479" lon="9.231181010104768"><ele>1294.0</ele><time>2026-04-11T07:58:37.999Z</time></trkpt><trkpt lat="46.42241520140422" lon="9.231147157463687"><ele>1294.0</ele><time>2026-04-11T07:58:38.999Z</time></trkpt><trkpt lat="46.422476499009434" lon="9.23111154560314"><ele>1294.0</ele><time>2026-04-11T07:58:39.999Z</time></trkpt><trkpt lat="46.42254322662712" lon="9.23107248002395"><ele>1294.0</ele><time>2026-04-11T07:58:40.999Z</time></trkpt><trkpt lat="46.42261365965674" lon="9.231030112559377"><ele>1294.0</ele><time>2026-04-11T07:58:41.999Z</time></trkpt><trkpt lat="46.422683020647156" lon="9.230982608443107"><ele>1294.0</ele><time>2026-04-11T07:58:42.999Z</time></trkpt><trkpt lat="46.4227532715591" lon="9.230933354423962"><ele>1294.0</ele><time>2026-04-11T07:58:43.999Z</time></trkpt><trkpt lat="46.42283461159493" lon="9.230889399645857"><ele>1294.0</ele><time>2026-04-11T07:58:44.999Z</time></trkpt><trkpt lat="46.42291780235693" lon="9.230824991367363"><ele>1294.0</ele><time>2026-04-11T07:58:45.999Z</time></trkpt><trkpt lat="46.42300206688659" lon="9.230758196856385"><ele>1294.0</ele><time>2026-04-11T07:58:46.999Z</time></trkpt><trkpt lat="46.42306508223835" lon="9.230708246130538"><ele>1294.0</ele><time>2026-04-11T07:58:47.999Z</time></trkpt><trkpt lat="46.42313052737299" lon="9.23065636934081"><ele>1294.0</ele><time>2026-04-11T07:58:48.999Z</time></trkpt><trkpt lat="46.423275171251696" lon="9.23054230485059"><ele>1293.4</ele><time>2026-04-11T07:58:50.999Z</time></trkpt><trkpt lat="46.42335841600209" lon="9.230478742324866"><ele>1292.8000000000002</ele><time>2026-04-11T07:58:51.999Z</time></trkpt><trkpt lat="46.423444901618694" lon="9.230414272258653"><ele>1292.1999999999998</ele><time>2026-04-11T07:58:52.999Z</time></trkpt><trkpt lat="46.423528170296144" lon="9.23035220007658"><ele>1291.6</ele><time>2026-04-11T07:58:53.999Z</time></trkpt><trkpt lat="46.423607599185324" lon="9.23029299024392"><ele>1291.0</ele><time>2026-04-11T07:58:54.999Z</time></trkpt><trkpt lat="46.42367610235474" lon="9.230218915624228"><ele>1291.0</ele><time>2026-04-11T07:58:55.999Z</time></trkpt><trkpt lat="46.423765966629816" lon="9.230196177570605"><ele>1291.0</ele><time>2026-04-11T07:58:56.999Z</time></trkpt><trkpt lat="46.42384808285891" lon="9.23015615803935"><ele>1291.0</ele><time>2026-04-11T07:58:57.999Z</time></trkpt><trkpt lat="46.42392526726752" lon="9.230076975542968"><ele>1291.0</ele><time>2026-04-11T07:58:58.999Z</time></trkpt><trkpt lat="46.4240171514034" lon="9.230011817655102"><ele>1291.0</ele><time>2026-04-11T07:58:59.999Z</time></trkpt><trkpt lat="46.42409323532033" lon="9.229975838731532"><ele>1291.0</ele><time>2026-04-11T07:59:00.999Z</time></trkpt><trkpt lat="46.42418963718502" lon="9.229916241674795"><ele>1291.0</ele><time>2026-04-11T07:59:01.999Z</time></trkpt><trkpt lat="46.42429996015621" lon="9.22986087037011"><ele>1291.0</ele><time>2026-04-11T07:59:02.999Z</time></trkpt><trkpt lat="46.42440914607751" lon="9.229808079749048"><ele>1291.0</ele><time>2026-04-11T07:59:03.999Z</time></trkpt><trkpt lat="46.42453208838526" lon="9.229754708584574"><ele>1291.0</ele><time>2026-04-11T07:59:04.999Z</time></trkpt><trkpt lat="46.42463953024491" lon="9.22970982478827"><ele>1291.0</ele><time>2026-04-11T07:59:05.999Z</time></trkpt><trkpt lat="46.42475596960834" lon="9.229664966846972"><ele>1291.0</ele><time>2026-04-11T07:59:06.999Z</time></trkpt><trkpt lat="46.424851982633975" lon="9.229630095286758"><ele>1291.0</ele><time>2026-04-11T07:59:07.999Z</time></trkpt><trkpt lat="46.42498074130634" lon="9.22958994253533"><ele>1294.25</ele><time>2026-04-11T07:59:08.999Z</time></trkpt><trkpt lat="46.4251154468816" lon="9.229564738238615"><ele>1297.5</ele><time>2026-04-11T07:59:09.999Z</time></trkpt><trkpt lat="46.42522649545682" lon="9.229561540921122"><ele>1300.75</ele><time>2026-04-11T07:59:10.999Z</time></trkpt><trkpt lat="46.4253244605112" lon="9.229573588898669"><ele>1304.0</ele><time>2026-04-11T07:59:11.999Z</time></trkpt><trkpt lat="46.42543097792014" lon="9.229586124952892"><ele>1306.4</ele><time>2026-04-11T07:59:12.999Z</time></trkpt><trkpt lat="46.425543487396546" lon="9.229595307298913"><ele>1308.8000000000002</ele><time>2026-04-11T07:59:13.999Z</time></trkpt><trkpt lat="46.42565226778831" lon="9.229576991454282"><ele>1311.1999999999998</ele><time>2026-04-11T07:59:14.999Z</time></trkpt><trkpt lat="46.42576502132822" lon="9.229591072183364"><ele>1313.6</ele><time>2026-04-11T07:59:15.999Z</time></trkpt><trkpt lat="46.42587407290983" lon="9.229587621411099"><ele>1316.0</ele><time>2026-04-11T07:59:16.999Z</time></trkpt><trkpt lat="46.42597671688888" lon="9.22958177732709"><ele>1316.0</ele><time>2026-04-11T07:59:17.999Z</time></trkpt><trkpt lat="46.42603803440911" lon="9.229545968452614"><ele>1316.0</ele><time>2026-04-11T07:59:18.999Z</time></trkpt><trkpt lat="46.426115024408276" lon="9.229474123516004"><ele>1316.0</ele><time>2026-04-11T07:59:19.999Z</time></trkpt><trkpt lat="46.42621130193692" lon="9.229467810669526"><ele>1316.0</ele><time>2026-04-11T07:59:20.999Z</time></trkpt><trkpt lat="46.426300027972715" lon="9.22946484307891"><ele>1316.0</ele><time>2026-04-11T07:59:21.999Z</time></trkpt><trkpt lat="46.42638034920469" lon="9.229464118962078"><ele>1316.0</ele><time>2026-04-11T07:59:22.999Z</time></trkpt><trkpt lat="46.42646210042403" lon="9.229464866566671"><ele>1323.142857142857</ele><time>2026-04-11T07:59:23.999Z</time></trkpt><trkpt lat="46.42653832800872" lon="9.229466304312465"><ele>1330.2857142857142</ele><time>2026-04-11T07:59:24.999Z</time></trkpt><trkpt lat="46.42661604309398" lon="9.229467770110926"><ele>1337.4285714285716</ele><time>2026-04-11T07:59:26.077Z</time></trkpt><trkpt lat="46.426681412606044" lon="9.229469237544874"><ele>1344.5714285714284</ele><time>2026-04-11T07:59:27.043Z</time></trkpt><trkpt lat="46.42675421110716" lon="9.229468587883188"><ele>1351.7142857142858</ele><time>2026-04-11T07:59:28.037Z</time></trkpt><trkpt lat="46.42683120509397" lon="9.229468102254652"><ele>1358.857142857143</ele><time>2026-04-11T07:59:29.033Z</time></trkpt><trkpt lat="46.42691152393153" lon="9.229463553322768"><ele>1366.0</ele><time>2026-04-11T07:59:30.035Z</time></trkpt><trkpt lat="46.426994984301146" lon="9.229458333843487"><ele>1468.0</ele><time>2026-04-11T07:59:31.032Z</time></trkpt><trkpt lat="46.42959463550606" lon="9.22835059787623"><ele>1422.0</ele><time>2026-04-11T07:59:35.202Z</time></trkpt><trkpt lat="46.43016433122887" lon="9.227716185963912"><ele>1422.0</ele><time>2026-04-11T07:59:36.202Z</time></trkpt><trkpt lat="46.4302769" lon="9.2275647"><ele>1422.0</ele><time>2026-04-11T07:59:37.202Z</time></trkpt><trkpt lat="46.437823053538935" lon="9.21447801251409"><ele>1420.75</ele><time>2026-04-11T08:02:08.998Z</time></trkpt><trkpt lat="46.43781954550462" lon="9.214225876742443"><ele>1419.5</ele><time>2026-04-11T08:02:09.998Z</time></trkpt><trkpt lat="46.43790899888929" lon="9.214152819362242"><ele>1418.25</ele><time>2026-04-11T08:02:10.998Z</time></trkpt><trkpt lat="46.43798587776657" lon="9.214069508738232"><ele>1417.0</ele><time>2026-04-11T08:02:11.998Z</time></trkpt><trkpt lat="46.43805426071754" lon="9.21396471455133"><ele>1419.75</ele><time>2026-04-11T08:02:12.998Z</time></trkpt><trkpt lat="46.438146904684935" lon="9.213877822959045"><ele>1422.5</ele><time>2026-04-11T08:02:13.998Z</time></trkpt><trkpt lat="46.43823357297674" lon="9.213769566647468"><ele>1425.25</ele><time>2026-04-11T08:02:15Z</time></trkpt><trkpt lat="46.43832489283312" lon="9.213655500136092"><ele>1428.0</ele><time>2026-04-11T08:02:16Z</time></trkpt><trkpt lat="46.4384184267765" lon="9.213538668028347"><ele>1428.0</ele><time>2026-04-11T08:02:17Z</time></trkpt><trkpt lat="46.43851218912488" lon="9.21342155062573"><ele>1428.0</ele><time>2026-04-11T08:02:18Z</time></trkpt><trkpt lat="46.438609057441646" lon="9.213299753142543"><ele>1428.0</ele><time>2026-04-11T08:02:19Z</time></trkpt><trkpt lat="46.43870934312031" lon="9.213169479633075"><ele>1428.0</ele><time>2026-04-11T08:02:20Z</time></trkpt><trkpt lat="46.43881089358854" lon="9.213027812201915"><ele>1434.0</ele><time>2026-04-11T08:02:21Z</time></trkpt><trkpt lat="46.4389053022523" lon="9.21288443462382"><ele>1440.0</ele><time>2026-04-11T08:02:22Z</time></trkpt><trkpt lat="46.43900593421128" lon="9.212706608198252"><ele>1446.0</ele><time>2026-04-11T08:02:23Z</time></trkpt><trkpt lat="46.439085316795634" lon="9.212540508523956"><ele>1452.0</ele><time>2026-04-11T08:02:24Z</time></trkpt><trkpt lat="46.43915521953365" lon="9.212356023496595"><ele>1445.0</ele><time>2026-04-11T08:02:25Z</time></trkpt><trkpt lat="46.43921411727089" lon="9.212163400624704"><ele>1438.0</ele><time>2026-04-11T08:02:26Z</time></trkpt><trkpt lat="46.43925335952113" lon="9.211955273812194"><ele>1431.0</ele><time>2026-04-11T08:02:27Z</time></trkpt><trkpt lat="46.4392754028598" lon="9.211737402720415"><ele>1424.0</ele><time>2026-04-11T08:02:28Z</time></trkpt><trkpt lat="46.439262863113825" lon="9.211522089866593"><ele>1427.5</ele><time>2026-04-11T08:02:29Z</time></trkpt><trkpt lat="46.43924831440397" lon="9.21130601388525"><ele>1431.0</ele><time>2026-04-11T08:02:30Z</time></trkpt><trkpt lat="46.4392157816425" lon="9.211099027806307"><ele>1434.5</ele><time>2026-04-11T08:02:31Z</time></trkpt><trkpt lat="46.43916391039313" lon="9.210901918126032"><ele>1438.0</ele><time>2026-04-11T08:02:32Z</time></trkpt><trkpt lat="46.43909326958373" lon="9.210713422566629"><ele>1440.75</ele><time>2026-04-11T08:02:33Z</time></trkpt><trkpt lat="46.43900691983533" lon="9.210538034838455"><ele>1443.5</ele><time>2026-04-11T08:02:34Z</time></trkpt><trkpt lat="46.438908289629005" lon="9.210374571626627"><ele>1446.25</ele><time>2026-04-11T08:02:35Z</time></trkpt><trkpt lat="46.43879851139069" lon="9.210226153986875"><ele>1449.0</ele><time>2026-04-11T08:02:36Z</time></trkpt><trkpt lat="46.438669176269336" lon="9.210101773877316"><ele>1449.0</ele><time>2026-04-11T08:02:37Z</time></trkpt><trkpt lat="46.43852745472785" lon="9.210004048412879"><ele>1449.0</ele><time>2026-04-11T08:02:38Z</time></trkpt><trkpt lat="46.438377180062005" lon="9.209931317456583"><ele>1449.0</ele><time>2026-04-11T08:02:39Z</time></trkpt><trkpt lat="46.43823501897108" lon="9.209891954965913"><ele>1449.0</ele><time>2026-04-11T08:02:40Z</time></trkpt><trkpt lat="46.43809187483271" lon="9.209883684998312"><ele>1449.0</ele><time>2026-04-11T08:02:41Z</time></trkpt><trkpt lat="46.43793920629626" lon="9.20989989665519"><ele>1449.0</ele><time>2026-04-11T08:02:42Z</time></trkpt><trkpt lat="46.43777647329265" lon="9.209938543711921"><ele>1452.3333333333333</ele><time>2026-04-11T08:02:43Z</time></trkpt><trkpt lat="46.43759561702512" lon="9.210004793938566"><ele>1455.6666666666665</ele><time>2026-04-11T08:02:44Z</time></trkpt><trkpt lat="46.43740594108" lon="9.210077367414677"><ele>1459.0</ele><time>2026-04-11T08:02:45Z</time></trkpt><trkpt lat="46.437203927686106" lon="9.21015393691541"><ele>1463.0</ele><time>2026-04-11T08:02:46Z</time></trkpt><trkpt lat="46.43699418060035" lon="9.210235893249713"><ele>1467.0</ele><time>2026-04-11T08:02:47Z</time></trkpt><trkpt lat="46.43677557328038" lon="9.210325382654865"><ele>1471.0</ele><time>2026-04-11T08:02:48Z</time></trkpt><trkpt lat="46.43655282717872" lon="9.210402543169785"><ele>1471.0</ele><time>2026-04-11T08:02:49Z</time></trkpt><trkpt lat="46.43632245824746" lon="9.210433570271459"><ele>1471.0</ele><time>2026-04-11T08:02:50Z</time></trkpt><trkpt lat="46.436096876728925" lon="9.210402791740124"><ele>1472.3333333333333</ele><time>2026-04-11T08:02:51Z</time></trkpt><trkpt lat="46.435895355588166" lon="9.210313837336432"><ele>1473.6666666666667</ele><time>2026-04-11T08:02:52Z</time></trkpt><trkpt lat="46.43571506162668" lon="9.210159301144127"><ele>1475.0</ele><time>2026-04-11T08:02:53Z</time></trkpt><trkpt lat="46.43558992270928" lon="9.209968813654589"><ele>1470.6666666666667</ele><time>2026-04-11T08:02:54Z</time></trkpt><trkpt lat="46.43549385106002" lon="9.20972196257033"><ele>1466.3333333333333</ele><time>2026-04-11T08:02:55Z</time></trkpt><trkpt lat="46.435422707388895" lon="9.209470901625522"><ele>1462.0</ele><time>2026-04-11T08:02:56Z</time></trkpt><trkpt lat="46.43536950921533" lon="9.209207210914045"><ele>1465.6666666666665</ele><time>2026-04-11T08:02:57Z</time></trkpt><trkpt lat="46.43528597285924" lon="9.208925722274367"><ele>1469.3333333333333</ele><time>2026-04-11T08:02:58Z</time></trkpt><trkpt lat="46.43519270982039" lon="9.208667486958953"><ele>1473.0</ele><time>2026-04-11T08:02:58.999Z</time></trkpt><trkpt lat="46.43513195394313" lon="9.208455108417905"><ele>1473.0</ele><time>2026-04-11T08:02:59.999Z</time></trkpt><trkpt lat="46.435077383681495" lon="9.208293202798783"><ele>1473.0</ele><time>2026-04-11T08:03:00.999Z</time></trkpt><trkpt lat="46.43503336600061" lon="9.208173775898477"><ele>1473.0</ele><time>2026-04-11T08:03:01.999Z</time></trkpt><trkpt lat="46.43501087585038" lon="9.208074546949831"><ele>1473.0</ele><time>2026-04-11T08:03:02.999Z</time></trkpt><trkpt lat="46.434964388044804" lon="9.207964750383319"><ele>1473.0</ele><time>2026-04-11T08:03:04.999Z</time></trkpt><trkpt lat="46.43491496119213" lon="9.207895966536233"><ele>1473.0</ele><time>2026-04-11T08:03:06.999Z</time></trkpt><trkpt lat="46.43487210540459" lon="9.207785371617579"><ele>1475.4285714285713</ele><time>2026-04-11T08:03:08.999Z</time></trkpt><trkpt lat="46.43483797955245" lon="9.207707337410707"><ele>1477.857142857143</ele><time>2026-04-11T08:03:09.999Z</time></trkpt><trkpt lat="46.43480053561613" lon="9.207617880993757"><ele>1480.2857142857142</ele><time>2026-04-11T08:03:10.999Z</time></trkpt><trkpt lat="46.434758584458066" lon="9.207523061588486"><ele>1482.7142857142858</ele><time>2026-04-11T08:03:11.999Z</time></trkpt><trkpt lat="46.43471387202217" lon="9.207436761820146"><ele>1485.142857142857</ele><time>2026-04-11T08:03:12.999Z</time></trkpt><trkpt lat="46.434665508799924" lon="9.20734578062428"><ele>1487.5714285714284</ele><time>2026-04-11T08:03:13.999Z</time></trkpt><trkpt lat="46.43461658790459" lon="9.207254033557433"><ele>1490.0</ele><time>2026-04-11T08:03:14.999Z</time></trkpt><trkpt lat="46.43456947780173" lon="9.207171612054607"><ele>1490.0</ele><time>2026-04-11T08:03:15.999Z</time></trkpt><trkpt lat="46.43452251855647" lon="9.20709010320983"><ele>1490.0</ele><time>2026-04-11T08:03:16.999Z</time></trkpt><trkpt lat="46.43448016726551" lon="9.207020381374326"><ele>1490.0</ele><time>2026-04-11T08:03:17.999Z</time></trkpt><trkpt lat="46.43443854845437" lon="9.20695178302179"><ele>1490.0</ele><time>2026-04-11T08:03:18.999Z</time></trkpt><trkpt lat="46.43439276599026" lon="9.206872717154466"><ele>1490.0</ele><time>2026-04-11T08:03:19.999Z</time></trkpt><trkpt lat="46.43434671284242" lon="9.206786536035185"><ele>1490.0</ele><time>2026-04-11T08:03:20.999Z</time></trkpt><trkpt lat="46.43430083397306" lon="9.206699235301336"><ele>1490.0</ele><time>2026-04-11T08:03:21.999Z</time></trkpt><trkpt lat="46.43425565009713" lon="9.206611894913353"><ele>1490.0</ele><time>2026-04-11T08:03:22.999Z</time></trkpt><trkpt lat="46.43421426712724" lon="9.206537129365703"><ele>1490.0</ele><time>2026-04-11T08:03:23.999Z</time></trkpt><trkpt lat="46.43417586164273" lon="9.206458000445451"><ele>1490.0</ele><time>2026-04-11T08:03:24.999Z</time></trkpt><trkpt lat="46.4341378353305" lon="9.206380111837671"><ele>1490.0</ele><time>2026-04-11T08:03:25.999Z</time></trkpt><trkpt lat="46.434072350996104" lon="9.206238357613596"><ele>1490.0</ele><time>2026-04-11T08:03:27.999Z</time></trkpt><trkpt lat="46.43400162036216" lon="9.206079510487625"><ele>1490.0</ele><time>2026-04-11T08:03:29.999Z</time></trkpt><trkpt lat="46.43395745289119" lon="9.205976185805293"><ele>1494.6</ele><time>2026-04-11T08:03:30.999Z</time></trkpt><trkpt lat="46.43391129045766" lon="9.205872471916637"><ele>1499.2</ele><time>2026-04-11T08:03:31.999Z</time></trkpt><trkpt lat="46.43386503705486" lon="9.205770912254946"><ele>1503.8000000000002</ele><time>2026-04-11T08:03:32.999Z</time></trkpt><trkpt lat="46.433813709044784" lon="9.205661575480537"><ele>1508.4</ele><time>2026-04-11T08:03:34.07Z</time></trkpt><trkpt lat="46.433767795985716" lon="9.20556841858798"><ele>1513.0</ele><time>2026-04-11T08:03:35.052Z</time></trkpt><trkpt lat="46.43322142588205" lon="9.200882167232546"><ele>1524.0</ele><time>2026-04-11T08:04:07.999Z</time></trkpt><trkpt lat="46.43325097547286" lon="9.200721273233537"><ele>1535.0</ele><time>2026-04-11T08:04:08.999Z</time></trkpt><trkpt lat="46.433195878077456" lon="9.200431562230769"><ele>1546.0</ele><time>2026-04-11T08:04:09.999Z</time></trkpt><trkpt lat="46.43323405627876" lon="9.200216299909263"><ele>1546.0</ele><time>2026-04-11T08:04:10.999Z</time></trkpt><trkpt lat="46.43324527444984" lon="9.199988797909027"><ele>1546.0</ele><time>2026-04-11T08:04:11.999Z</time></trkpt><trkpt lat="46.43328278460065" lon="9.199750860100535"><ele>1546.0</ele><time>2026-04-11T08:04:12.999Z</time></trkpt><trkpt lat="46.433351485356674" lon="9.199506261008478"><ele>1539.3333333333335</ele><time>2026-04-11T08:04:13.999Z</time></trkpt><trkpt lat="46.433407199393145" lon="9.199247676385209"><ele>1532.6666666666667</ele><time>2026-04-11T08:04:14.999Z</time></trkpt><trkpt lat="46.43346964766422" lon="9.1989787648717"><ele>1526.0</ele><time>2026-04-11T08:04:15.999Z</time></trkpt><trkpt lat="46.43353722372243" lon="9.198714101690035"><ele>1523.3333333333335</ele><time>2026-04-11T08:04:16.999Z</time></trkpt><trkpt lat="46.43361822282456" lon="9.198446245384883"><ele>1520.6666666666667</ele><time>2026-04-11T08:04:17.999Z</time></trkpt><trkpt lat="46.433706204946" lon="9.198183124471614"><ele>1518.0</ele><time>2026-04-11T08:04:18.999Z</time></trkpt><trkpt lat="46.43380623317388" lon="9.19792218893548"><ele>1517.6666666666667</ele><time>2026-04-11T08:04:19.999Z</time></trkpt><trkpt lat="46.433922690998045" lon="9.197665919211753"><ele>1517.3333333333335</ele><time>2026-04-11T08:04:21Z</time></trkpt><trkpt lat="46.43405037549837" lon="9.197422595558407"><ele>1517.0</ele><time>2026-04-11T08:04:22Z</time></trkpt><trkpt lat="46.43419555424602" lon="9.197189419119164"><ele>1517.0</ele><time>2026-04-11T08:04:23Z</time></trkpt><trkpt lat="46.43435635784688" lon="9.196966984536793"><ele>1517.0</ele><time>2026-04-11T08:04:24Z</time></trkpt><trkpt lat="46.434529303517984" lon="9.196763028827853"><ele>1517.0</ele><time>2026-04-11T08:04:25Z</time></trkpt><trkpt lat="46.43471074124423" lon="9.196584166053619"><ele>1521.0</ele><time>2026-04-11T08:04:26Z</time></trkpt><trkpt lat="46.434956211622634" lon="9.196374755293357"><ele>1525.0</ele><time>2026-04-11T08:04:27Z</time></trkpt><trkpt lat="46.43517698066316" lon="9.196233710155521"><ele>1525.0</ele><time>2026-04-11T08:04:28Z</time></trkpt><trkpt lat="46.43537988784472" lon="9.196148089195473"><ele>1525.0</ele><time>2026-04-11T08:04:29Z</time></trkpt><trkpt lat="46.43561833737276" lon="9.196032120762904"><ele>1531.5</ele><time>2026-04-11T08:04:30Z</time></trkpt><trkpt lat="46.43585594680202" lon="9.195900285820992"><ele>1538.0</ele><time>2026-04-11T08:04:31Z</time></trkpt><trkpt lat="46.436076957427986" lon="9.19572588529262"><ele>1538.5</ele><time>2026-04-11T08:04:32Z</time></trkpt><trkpt lat="46.436294296632006" lon="9.19554027756851"><ele>1539.0</ele><time>2026-04-11T08:04:33Z</time></trkpt><trkpt lat="46.436490826965716" lon="9.195327228502876"><ele>1539.0</ele><time>2026-04-11T08:04:34Z</time></trkpt><trkpt lat="46.43666459526652" lon="9.195063878666915"><ele>1539.0</ele><time>2026-04-11T08:04:35Z</time></trkpt><trkpt lat="46.43681292428027" lon="9.194786571843924"><ele>1533.5</ele><time>2026-04-11T08:04:36Z</time></trkpt><trkpt lat="46.43694855630054" lon="9.194499587040262"><ele>1528.0</ele><time>2026-04-11T08:04:37Z</time></trkpt><trkpt lat="46.43707240988534" lon="9.194198517192683"><ele>1539.5</ele><time>2026-04-11T08:04:38Z</time></trkpt><trkpt lat="46.437236049187185" lon="9.19394200326902"><ele>1551.0</ele><time>2026-04-11T08:04:39Z</time></trkpt><trkpt lat="46.43740502166845" lon="9.19369180384591"><ele>1551.0</ele><time>2026-04-11T08:04:40Z</time></trkpt><trkpt lat="46.43759965342226" lon="9.193468134962696"><ele>1551.0</ele><time>2026-04-11T08:04:41Z</time></trkpt><trkpt lat="46.43781449386763" lon="9.193285040146831"><ele>1548.0</ele><time>2026-04-11T08:04:42Z</time></trkpt><trkpt lat="46.438038695983394" lon="9.19313941377913"><ele>1545.0</ele><time>2026-04-11T08:04:43Z</time></trkpt><trkpt lat="46.4382617413372" lon="9.193046268985508"><ele>1545.0</ele><time>2026-04-11T08:04:44Z</time></trkpt><trkpt lat="46.43848855831679" lon="9.192981128031073"><ele>1545.0</ele><time>2026-04-11T08:04:45Z</time></trkpt><trkpt lat="46.43872023991627" lon="9.192946544942831"><ele>1557.0</ele><time>2026-04-11T08:04:46Z</time></trkpt><trkpt lat="46.4389612727078" lon="9.192919417125852"><ele>1569.0</ele><time>2026-04-11T08:04:47Z</time></trkpt><trkpt lat="46.43920384485163" lon="9.192885724306551"><ele>1569.0</ele><time>2026-04-11T08:04:48Z</time></trkpt><trkpt lat="46.43943976034199" lon="9.19279900333148"><ele>1569.0</ele><time>2026-04-11T08:04:49Z</time></trkpt><trkpt lat="46.43966831239931" lon="9.192704493035276"><ele>1579.5</ele><time>2026-04-11T08:04:50Z</time></trkpt><trkpt lat="46.43987981992145" lon="9.19255258101214"><ele>1590.0</ele><time>2026-04-11T08:04:51Z</time></trkpt><trkpt lat="46.4400729347572" lon="9.192363555469743"><ele>1584.0</ele><time>2026-04-11T08:04:52Z</time></trkpt><trkpt lat="46.440249128864075" lon="9.192181537039517"><ele>1578.0</ele><time>2026-04-11T08:04:53Z</time></trkpt><trkpt lat="46.44041281973418" lon="9.192038937766714"><ele>1572.0</ele><time>2026-04-11T08:04:54Z</time></trkpt><trkpt lat="46.440577608111674" lon="9.191927943404771"><ele>1572.0</ele><time>2026-04-11T08:04:55Z</time></trkpt><trkpt lat="46.44076042526731" lon="9.191849284262151"><ele>1572.0</ele><time>2026-04-11T08:04:56Z</time></trkpt><trkpt lat="46.44094333706157" lon="9.191823252191446"><ele>1572.0</ele><time>2026-04-11T08:04:57Z</time></trkpt><trkpt lat="46.44112122998764" lon="9.191847907176122"><ele>1572.0</ele><time>2026-04-11T08:04:58Z</time></trkpt><trkpt lat="46.441298638758155" lon="9.191919122470008"><ele>1572.0</ele><time>2026-04-11T08:04:59Z</time></trkpt><trkpt lat="46.44148363447224" lon="9.192027990494495"><ele>1572.0</ele><time>2026-04-11T08:05:00Z</time></trkpt><trkpt lat="46.441683745646124" lon="9.192155562294952"><ele>1580.5</ele><time>2026-04-11T08:05:00.999Z</time></trkpt><trkpt lat="46.441902264622136" lon="9.192289552719405"><ele>1589.0</ele><time>2026-04-11T08:05:01.999Z</time></trkpt><trkpt lat="46.44213620266323" lon="9.192376726323635"><ele>1595.0</ele><time>2026-04-11T08:05:02.999Z</time></trkpt><trkpt lat="46.44236702875498" lon="9.192428369104947"><ele>1601.0</ele><time>2026-04-11T08:05:03.999Z</time></trkpt><trkpt lat="46.442594136239194" lon="9.19242920485279"><ele>1601.0</ele><time>2026-04-11T08:05:04.999Z</time></trkpt><trkpt lat="46.44282541574831" lon="9.192402534010512"><ele>1601.0</ele><time>2026-04-11T08:05:05.999Z</time></trkpt><trkpt lat="46.44305674170479" lon="9.192326113392562"><ele>1600.5</ele><time>2026-04-11T08:05:06.999Z</time></trkpt><trkpt lat="46.44327873515456" lon="9.1922119728529"><ele>1600.0</ele><time>2026-04-11T08:05:07.999Z</time></trkpt><trkpt lat="46.44350055037776" lon="9.19209173055545"><ele>1600.0</ele><time>2026-04-11T08:05:08.999Z</time></trkpt><trkpt lat="46.4437267521875" lon="9.191998979448433"><ele>1600.0</ele><time>2026-04-11T08:05:09.999Z</time></trkpt><trkpt lat="46.44395830392477" lon="9.191950454572408"><ele>1603.5</ele><time>2026-04-11T08:05:10.999Z</time></trkpt><trkpt lat="46.44419672707159" lon="9.191915527299903"><ele>1607.0</ele><time>2026-04-11T08:05:11.999Z</time></trkpt><trkpt lat="46.44443993881908" lon="9.191907591233349"><ele>1609.5</ele><time>2026-04-11T08:05:12.999Z</time></trkpt><trkpt lat="46.444683809296" lon="9.191905909364516"><ele>1612.0</ele><time>2026-04-11T08:05:13.999Z</time></trkpt><trkpt lat="46.44493728584876" lon="9.191889219880153"><ele>1612.0</ele><time>2026-04-11T08:05:14.999Z</time></trkpt><trkpt lat="46.4451917528653" lon="9.191882595673276"><ele>1612.0</ele><time>2026-04-11T08:05:15.999Z</time></trkpt><trkpt lat="46.44544754182605" lon="9.191887295469364"><ele>1609.5</ele><time>2026-04-11T08:05:16.999Z</time></trkpt><trkpt lat="46.44570247606075" lon="9.191885836983529"><ele>1607.0</ele><time>2026-04-11T08:05:17.999Z</time></trkpt><trkpt lat="46.4459358863827" lon="9.19188570268103"><ele>1607.0</ele><time>2026-04-11T08:05:18.999Z</time></trkpt><trkpt lat="46.44616606650108" lon="9.191885807360912"><ele>1607.0</ele><time>2026-04-11T08:05:19.999Z</time></trkpt><trkpt lat="46.44639575594781" lon="9.191888770711314"><ele>1607.6666666666665</ele><time>2026-04-11T08:05:20.999Z</time></trkpt><trkpt lat="46.44660912982081" lon="9.191881909820962"><ele>1608.3333333333335</ele><time>2026-04-11T08:05:21.999Z</time></trkpt><trkpt lat="46.446827505151994" lon="9.191870198298234"><ele>1609.0</ele><time>2026-04-11T08:05:22.999Z</time></trkpt><trkpt lat="46.44704635717312" lon="9.19185075896581"><ele>1610.3333333333335</ele><time>2026-04-11T08:05:23.999Z</time></trkpt><trkpt lat="46.44726874129264" lon="9.191823598819607"><ele>1611.6666666666665</ele><time>2026-04-11T08:05:24.999Z</time></trkpt><trkpt lat="46.44749212189133" lon="9.191788878379894"><ele>1613.0</ele><time>2026-04-11T08:05:25.999Z</time></trkpt><trkpt lat="46.44771597769614" lon="9.191746134158878"><ele>1613.0</ele><time>2026-04-11T08:05:26.999Z</time></trkpt><trkpt lat="46.44793710111548" lon="9.19169073653898"><ele>1613.0</ele><time>2026-04-11T08:05:27.999Z</time></trkpt><trkpt lat="46.44815347550827" lon="9.191615118251368"><ele>1613.0</ele><time>2026-04-11T08:05:28.999Z</time></trkpt><trkpt lat="46.44836440535276" lon="9.19151490857778"><ele>1613.6666666666665</ele><time>2026-04-11T08:05:29.999Z</time></trkpt><trkpt lat="46.44856033562021" lon="9.191397318518604"><ele>1614.3333333333335</ele><time>2026-04-11T08:05:30.999Z</time></trkpt><trkpt lat="46.44875173599133" lon="9.191273106616086"><ele>1615.0</ele><time>2026-04-11T08:05:31.999Z</time></trkpt><trkpt lat="46.448937490503276" lon="9.19114357256264"><ele>1615.0</ele><time>2026-04-11T08:05:32.999Z</time></trkpt><trkpt lat="46.449117399495194" lon="9.191017772450202"><ele>1615.0</ele><time>2026-04-11T08:05:33.999Z</time></trkpt><trkpt lat="46.4492900104096" lon="9.190901008655876"><ele>1615.0</ele><time>2026-04-11T08:05:34.999Z</time></trkpt><trkpt lat="46.449467700091844" lon="9.190793129350913"><ele>1613.0</ele><time>2026-04-11T08:05:35.999Z</time></trkpt><trkpt lat="46.44965256008548" lon="9.190688485638038"><ele>1611.0</ele><time>2026-04-11T08:05:36.999Z</time></trkpt><trkpt lat="46.44984268345479" lon="9.190594327716052"><ele>1609.0</ele><time>2026-04-11T08:05:37.999Z</time></trkpt><trkpt lat="46.450026489752716" lon="9.190526329337667"><ele>1609.0</ele><time>2026-04-11T08:05:38.999Z</time></trkpt><trkpt lat="46.4502116658365" lon="9.190472520933739"><ele>1609.0</ele><time>2026-04-11T08:05:39.999Z</time></trkpt><trkpt lat="46.45039740805837" lon="9.190430710470547"><ele>1609.0</ele><time>2026-04-11T08:05:40.999Z</time></trkpt><trkpt lat="46.450585217121116" lon="9.190402900369419"><ele>1611.3333333333335</ele><time>2026-04-11T08:05:41.999Z</time></trkpt><trkpt lat="46.450775256616176" lon="9.190389015006641"><ele>1613.6666666666665</ele><time>2026-04-11T08:05:42.999Z</time></trkpt><trkpt lat="46.45096293589284" lon="9.190388980540284"><ele>1616.0</ele><time>2026-04-11T08:05:43.999Z</time></trkpt><trkpt lat="46.451152796095364" lon="9.190398507568313"><ele>1616.6666666666665</ele><time>2026-04-11T08:05:44.999Z</time></trkpt><trkpt lat="46.45133975105041" lon="9.190422040073631"><ele>1617.3333333333335</ele><time>2026-04-11T08:05:45.999Z</time></trkpt><trkpt lat="46.45151755337402" lon="9.19045239896687"><ele>1618.0</ele><time>2026-04-11T08:05:46.999Z</time></trkpt><trkpt lat="46.451682951236144" lon="9.19048281438571"><ele>1618.0</ele><time>2026-04-11T08:05:47.999Z</time></trkpt><trkpt lat="46.45184902225314" lon="9.190512546274151"><ele>1618.0</ele><time>2026-04-11T08:05:48.999Z</time></trkpt><trkpt lat="46.452020737653974" lon="9.190540893002417"><ele>1618.0</ele><time>2026-04-11T08:05:49.999Z</time></trkpt><trkpt lat="46.452196403078645" lon="9.190564051302891"><ele>1615.6666666666667</ele><time>2026-04-11T08:05:50.999Z</time></trkpt><trkpt lat="46.45237498317539" lon="9.190589790887044"><ele>1613.3333333333335</ele><time>2026-04-11T08:05:51.999Z</time></trkpt><trkpt lat="46.45255657343016" lon="9.190607007670318"><ele>1611.0</ele><time>2026-04-11T08:05:52.999Z</time></trkpt><trkpt lat="46.45274098543758" lon="9.190615467027477"><ele>1611.0</ele><time>2026-04-11T08:05:53.999Z</time></trkpt><trkpt lat="46.452932570745325" lon="9.190610111789987"><ele>1611.0</ele><time>2026-04-11T08:05:54.999Z</time></trkpt><trkpt lat="46.453124903110414" lon="9.19057731099388"><ele>1611.0</ele><time>2026-04-11T08:05:55.999Z</time></trkpt><trkpt lat="46.45329154420447" lon="9.190522704411444"><ele>1616.6666666666665</ele><time>2026-04-11T08:05:56.999Z</time></trkpt><trkpt lat="46.453490176268794" lon="9.190444225104404"><ele>1622.3333333333333</ele><time>2026-04-11T08:05:57.999Z</time></trkpt><trkpt lat="46.45367037657486" lon="9.190364398400234"><ele>1628.0</ele><time>2026-04-11T08:05:58.999Z</time></trkpt><trkpt lat="46.45385111380328" lon="9.190283654796637"><ele>1628.3333333333333</ele><time>2026-04-11T08:05:59.999Z</time></trkpt><trkpt lat="46.454031774384966" lon="9.190207990443582"><ele>1628.6666666666665</ele><time>2026-04-11T08:06:00.999Z</time></trkpt><trkpt lat="46.45421871080212" lon="9.190141669159752"><ele>1629.0</ele><time>2026-04-11T08:06:01.999Z</time></trkpt><trkpt lat="46.45440279140772" lon="9.19009855124075"><ele>1629.0</ele><time>2026-04-11T08:06:02.999Z</time></trkpt><trkpt lat="46.45459431488252" lon="9.190077032453415"><ele>1629.0</ele><time>2026-04-11T08:06:03.999Z</time></trkpt><trkpt lat="46.45479313799995" lon="9.190071767367096"><ele>1629.0</ele><time>2026-04-11T08:06:04.999Z</time></trkpt><trkpt lat="46.45499610054225" lon="9.190090269510897"><ele>1629.0</ele><time>2026-04-11T08:06:05.999Z</time></trkpt><trkpt lat="46.45520026784635" lon="9.19012612590273"><ele>1629.0</ele><time>2026-04-11T08:06:06.999Z</time></trkpt><trkpt lat="46.45540168103856" lon="9.190177462528169"><ele>1629.0</ele><time>2026-04-11T08:06:07.999Z</time></trkpt><trkpt lat="46.45560056137034" lon="9.190243549978957"><ele>1630.6666666666665</ele><time>2026-04-11T08:06:08.999Z</time></trkpt><trkpt lat="46.45579623506363" lon="9.190314931179463"><ele>1632.3333333333333</ele><time>2026-04-11T08:06:09.999Z</time></trkpt><trkpt lat="46.45598265280724" lon="9.190382396630657"><ele>1634.0</ele><time>2026-04-11T08:06:10.999Z</time></trkpt><trkpt lat="46.45615906701236" lon="9.190445135882833"><ele>1637.6666666666665</ele><time>2026-04-11T08:06:11.999Z</time></trkpt><trkpt lat="46.45633475811295" lon="9.190506422033433"><ele>1641.3333333333335</ele><time>2026-04-11T08:06:12.999Z</time></trkpt><trkpt lat="46.45651338539577" lon="9.190569127627441"><ele>1645.0</ele><time>2026-04-11T08:06:13.999Z</time></trkpt><trkpt lat="46.45669390343971" lon="9.190632159861543"><ele>1641.6666666666667</ele><time>2026-04-11T08:06:14.999Z</time></trkpt><trkpt lat="46.45687821759346" lon="9.190695380555503"><ele>1638.3333333333335</ele><time>2026-04-11T08:06:15.999Z</time></trkpt><trkpt lat="46.45706744616546" lon="9.190760928147753"><ele>1635.0</ele><time>2026-04-11T08:06:16.999Z</time></trkpt><trkpt lat="46.45725675104256" lon="9.190826147790307"><ele>1635.0</ele><time>2026-04-11T08:06:17.999Z</time></trkpt><trkpt lat="46.45744024402302" lon="9.190882835044771"><ele>1635.0</ele><time>2026-04-11T08:06:18.999Z</time></trkpt><trkpt lat="46.45761971088421" lon="9.19093021565946"><ele>1635.0</ele><time>2026-04-11T08:06:19.999Z</time></trkpt><trkpt lat="46.45780320660113" lon="9.19095175717162"><ele>1633.0</ele><time>2026-04-11T08:06:20.999Z</time></trkpt><trkpt lat="46.45798007827886" lon="9.19093566633242"><ele>1631.0</ele><time>2026-04-11T08:06:21.999Z</time></trkpt><trkpt lat="46.45815279746775" lon="9.190887270335736"><ele>1629.0</ele><time>2026-04-11T08:06:22.999Z</time></trkpt><trkpt lat="46.458316279851815" lon="9.190810854744377"><ele>1629.0</ele><time>2026-04-11T08:06:23.999Z</time></trkpt><trkpt lat="46.45847792742412" lon="9.190700518854097"><ele>1629.0</ele><time>2026-04-11T08:06:24.999Z</time></trkpt><trkpt lat="46.45863901068729" lon="9.19058289882635"><ele>1629.0</ele><time>2026-04-11T08:06:26Z</time></trkpt><trkpt lat="46.4587724473023" lon="9.19042284349119"><ele>1628.6666666666665</ele><time>2026-04-11T08:06:27Z</time></trkpt><trkpt lat="46.45889741515764" lon="9.190240154241554"><ele>1628.3333333333333</ele><time>2026-04-11T08:06:28Z</time></trkpt><trkpt lat="46.45901927941228" lon="9.190044861508587"><ele>1628.0</ele><time>2026-04-11T08:06:29Z</time></trkpt><trkpt lat="46.45914159060897" lon="9.189841316663399"><ele>1634.0</ele><time>2026-04-11T08:06:30Z</time></trkpt><trkpt lat="46.45927018449474" lon="9.189645543813382"><ele>1640.0</ele><time>2026-04-11T08:06:31Z</time></trkpt><trkpt lat="46.459403772678584" lon="9.189460091370078"><ele>1646.0</ele><time>2026-04-11T08:06:32Z</time></trkpt><trkpt lat="46.459551314103024" lon="9.189293319718274"><ele>1646.3333333333333</ele><time>2026-04-11T08:06:33Z</time></trkpt><trkpt lat="46.45971107109241" lon="9.18915208830282"><ele>1646.6666666666665</ele><time>2026-04-11T08:06:34Z</time></trkpt><trkpt lat="46.45988005881999" lon="9.189033051112629"><ele>1647.0</ele><time>2026-04-11T08:06:35Z</time></trkpt><trkpt lat="46.46004576522536" lon="9.188931420447622"><ele>1647.0</ele><time>2026-04-11T08:06:36Z</time></trkpt><trkpt lat="46.46020950655975" lon="9.188845102745256"><ele>1647.0</ele><time>2026-04-11T08:06:37Z</time></trkpt><trkpt lat="46.46037475442199" lon="9.188759172471782"><ele>1647.0</ele><time>2026-04-11T08:06:38Z</time></trkpt><trkpt lat="46.46054452034898" lon="9.188670892782566"><ele>1644.3333333333335</ele><time>2026-04-11T08:06:39Z</time></trkpt><trkpt lat="46.460715421058495" lon="9.188581446599375"><ele>1641.6666666666667</ele><time>2026-04-11T08:06:40Z</time></trkpt><trkpt lat="46.460886398628325" lon="9.188491288870619"><ele>1639.0</ele><time>2026-04-11T08:06:41Z</time></trkpt><trkpt lat="46.461055196495984" lon="9.188401463981196"><ele>1639.0</ele><time>2026-04-11T08:06:42Z</time></trkpt><trkpt lat="46.46121633305978" lon="9.18831571605293"><ele>1639.0</ele><time>2026-04-11T08:06:43Z</time></trkpt><trkpt lat="46.46136496735229" lon="9.188204505318467"><ele>1639.0</ele><time>2026-04-11T08:06:44Z</time></trkpt><trkpt lat="46.46152464941285" lon="9.18810407638097"><ele>1640.0</ele><time>2026-04-11T08:06:45Z</time></trkpt><trkpt lat="46.46168077267142" lon="9.18799929922901"><ele>1641.0</ele><time>2026-04-11T08:06:46Z</time></trkpt><trkpt lat="46.461837739344624" lon="9.187895176484854"><ele>1642.0</ele><time>2026-04-11T08:06:47Z</time></trkpt><trkpt lat="46.46199023858812" lon="9.187784442961984"><ele>1638.0</ele><time>2026-04-11T08:06:48Z</time></trkpt><trkpt lat="46.46213701294894" lon="9.187672596789646"><ele>1634.0</ele><time>2026-04-11T08:06:49Z</time></trkpt><trkpt lat="46.462279999353214" lon="9.187559279747104"><ele>1630.0</ele><time>2026-04-11T08:06:50Z</time></trkpt><trkpt lat="46.462420251549176" lon="9.187449017463228"><ele>1630.3333333333335</ele><time>2026-04-11T08:06:51Z</time></trkpt><trkpt lat="46.462563610372015" lon="9.18733886847858"><ele>1630.6666666666665</ele><time>2026-04-11T08:06:52Z</time></trkpt><trkpt lat="46.46270980876284" lon="9.187226928241243"><ele>1631.0</ele><time>2026-04-11T08:06:53Z</time></trkpt><trkpt lat="46.46285587728643" lon="9.187119902905843"><ele>1631.0</ele><time>2026-04-11T08:06:54Z</time></trkpt><trkpt lat="46.46299291590113" lon="9.187011287913986"><ele>1631.0</ele><time>2026-04-11T08:06:55Z</time></trkpt><trkpt lat="46.463131169894076" lon="9.186898277668014"><ele>1631.0</ele><time>2026-04-11T08:06:56Z</time></trkpt><trkpt lat="46.46327287457587" lon="9.18678618886226"><ele>1631.0</ele><time>2026-04-11T08:06:57Z</time></trkpt><trkpt lat="46.463426743742026" lon="9.186693740649886"><ele>1631.0</ele><time>2026-04-11T08:06:58Z</time></trkpt><trkpt lat="46.4635683199145" lon="9.186563770920204"><ele>1631.0</ele><time>2026-04-11T08:06:59Z</time></trkpt><trkpt lat="46.46371848432213" lon="9.186445485427793"><ele>1631.6666666666665</ele><time>2026-04-11T08:07:00Z</time></trkpt><trkpt lat="46.46386982442353" lon="9.186326860479161"><ele>1632.3333333333335</ele><time>2026-04-11T08:07:01Z</time></trkpt><trkpt lat="46.4640222357197" lon="9.186211140697456"><ele>1633.0</ele><time>2026-04-11T08:07:02Z</time></trkpt><trkpt lat="46.464170977846095" lon="9.186095573007222"><ele>1633.0</ele><time>2026-04-11T08:07:03Z</time></trkpt><trkpt lat="46.46432205091758" lon="9.185977001875086"><ele>1633.0</ele><time>2026-04-11T08:07:04Z</time></trkpt><trkpt lat="46.46447384787992" lon="9.18585743674374"><ele>1633.0</ele><time>2026-04-11T08:07:04.999Z</time></trkpt><trkpt lat="46.46462495607002" lon="9.185736489846049"><ele>1639.6666666666667</ele><time>2026-04-11T08:07:05.999Z</time></trkpt><trkpt lat="46.46478948137846" lon="9.185636385735823"><ele>1646.3333333333335</ele><time>2026-04-11T08:07:06.999Z</time></trkpt><trkpt lat="46.46494952542838" lon="9.185511607434007"><ele>1653.0</ele><time>2026-04-11T08:07:07.999Z</time></trkpt><trkpt lat="46.46509816914773" lon="9.18537867622922"><ele>1653.0</ele><time>2026-04-11T08:07:08.999Z</time></trkpt><trkpt lat="46.465258850259765" lon="9.185276701623682"><ele>1653.0</ele><time>2026-04-11T08:07:09.999Z</time></trkpt><trkpt lat="46.46542519275362" lon="9.185176096615015"><ele>1653.0</ele><time>2026-04-11T08:07:10.999Z</time></trkpt><trkpt lat="46.46559825547917" lon="9.185114287780298"><ele>1661.3333333333335</ele><time>2026-04-11T08:07:11.999Z</time></trkpt><trkpt lat="46.465764682798905" lon="9.185045183942306"><ele>1669.6666666666667</ele><time>2026-04-11T08:07:12.999Z</time></trkpt><trkpt lat="46.46593153499786" lon="9.184988201308865"><ele>1678.0</ele><time>2026-04-11T08:07:13.999Z</time></trkpt><trkpt lat="46.46610080308446" lon="9.18494166434488"><ele>1678.0</ele><time>2026-04-11T08:07:14.999Z</time></trkpt><trkpt lat="46.46626579227863" lon="9.184901735639967"><ele>1678.0</ele><time>2026-04-11T08:07:15.999Z</time></trkpt><trkpt lat="46.466524669854536" lon="9.18485032669002"><ele>1678.0</ele><time>2026-04-11T08:07:16.999Z</time></trkpt><trkpt lat="46.466701765149956" lon="9.184818710168585"><ele>1703.5</ele><time>2026-04-11T08:07:17.999Z</time></trkpt><trkpt lat="46.46688325851768" lon="9.184774295286928"><ele>1729.0</ele><time>2026-04-11T08:07:19.051Z</time></trkpt><trkpt lat="46.46760984027815" lon="9.184606818750947"><ele>1737.3333333333335</ele><time>2026-04-11T08:07:23.199Z</time></trkpt><trkpt lat="46.46778638964402" lon="9.184569605260817"><ele>1745.6666666666665</ele><time>2026-04-11T08:07:24.199Z</time></trkpt><trkpt lat="46.467965347903586" lon="9.184558282817719"><ele>1754.0</ele><time>2026-04-11T08:07:25.199Z</time></trkpt><trkpt lat="46.468141997769145" lon="9.18452309167795"><ele>1756.3333333333333</ele><time>2026-04-11T08:07:26.198Z</time></trkpt><trkpt lat="46.468316519140714" lon="9.18446344525991"><ele>1758.6666666666665</ele><time>2026-04-11T08:07:27.199Z</time></trkpt><trkpt lat="46.46849534706349" lon="9.184451553643813"><ele>1761.0</ele><time>2026-04-11T08:07:28.198Z</time></trkpt><trkpt lat="46.46867195458531" lon="9.184415798193768"><ele>1755.6666666666665</ele><time>2026-04-11T08:07:29.198Z</time></trkpt><trkpt lat="46.46884635000763" lon="9.18435617727644"><ele>1750.3333333333333</ele><time>2026-04-11T08:07:30.199Z</time></trkpt><trkpt lat="46.469023034372505" lon="9.184320406284764"><ele>1745.0</ele><time>2026-04-11T08:07:31.199Z</time></trkpt><trkpt lat="46.46920198699991" lon="9.184308489396992"><ele>1745.0</ele><time>2026-04-11T08:07:32.199Z</time></trkpt><trkpt lat="46.469378725947564" lon="9.184272707352541"><ele>1745.0</ele><time>2026-04-11T08:07:33.199Z</time></trkpt><trkpt lat="46.46955295993837" lon="9.18421311912883"><ele>1745.0</ele><time>2026-04-11T08:07:34.199Z</time></trkpt><trkpt lat="46.4697319277463" lon="9.184201201204274"><ele>1737.3333333333333</ele><time>2026-04-11T08:07:35.199Z</time></trkpt><trkpt lat="46.469906275138044" lon="9.184141587983015"><ele>1729.6666666666665</ele><time>2026-04-11T08:07:36.199Z</time></trkpt><trkpt lat="46.470082924224016" lon="9.184106303765164"><ele>1722.0</ele><time>2026-04-11T08:07:37.198Z</time></trkpt><trkpt lat="46.470261974726434" lon="9.184094919942657"><ele>1722.0</ele><time>2026-04-11T08:07:38.199Z</time></trkpt><trkpt lat="46.47043862057713" lon="9.184059137663459"><ele>1722.0</ele><time>2026-04-11T08:07:39.199Z</time></trkpt><trkpt lat="46.47061526447783" lon="9.18402183502243"><ele>1722.0</ele><time>2026-04-11T08:07:40.199Z</time></trkpt><trkpt lat="46.470789220052275" lon="9.183959832621598"><ele>1721.3333333333335</ele><time>2026-04-11T08:07:41.199Z</time></trkpt><trkpt lat="46.47096586913514" lon="9.183924112792907"><ele>1720.6666666666667</ele><time>2026-04-11T08:07:42.199Z</time></trkpt><trkpt lat="46.47114257078637" lon="9.183888901089885"><ele>1720.0</ele><time>2026-04-11T08:07:43.199Z</time></trkpt><trkpt lat="46.47131928453725" lon="9.183852709698142"><ele>1724.3333333333335</ele><time>2026-04-11T08:07:44.199Z</time></trkpt><trkpt lat="46.471495672943284" lon="9.18381654751308"><ele>1728.6666666666665</ele><time>2026-04-11T08:07:45.198Z</time></trkpt><trkpt lat="46.47167237748292" lon="9.183780320516037"><ele>1733.0</ele><time>2026-04-11T08:07:46.199Z</time></trkpt><trkpt lat="46.47184906594835" lon="9.183744194849114"><ele>1733.0</ele><time>2026-04-11T08:07:47.199Z</time></trkpt><trkpt lat="46.47202796963971" lon="9.18373221572142"><ele>1733.0</ele><time>2026-04-11T08:07:48.199Z</time></trkpt><trkpt lat="46.47220228342474" lon="9.183672535109555"><ele>1733.0</ele><time>2026-04-11T08:07:49.199Z</time></trkpt><trkpt lat="46.47237899153288" lon="9.18363668507989"><ele>1738.3333333333333</ele><time>2026-04-11T08:07:50.199Z</time></trkpt><trkpt lat="46.472555654241226" lon="9.183600844260802"><ele>1743.6666666666665</ele><time>2026-04-11T08:07:51.199Z</time></trkpt><trkpt lat="46.47273452293516" lon="9.183588872233209"><ele>1749.0</ele><time>2026-04-11T08:07:52.199Z</time></trkpt><trkpt lat="46.47291114165456" lon="9.183553040338294"><ele>1756.3333333333335</ele><time>2026-04-11T08:07:53.198Z</time></trkpt><trkpt lat="46.47308770476908" lon="9.183517005097276"><ele>1763.6666666666667</ele><time>2026-04-11T08:07:54.198Z</time></trkpt><trkpt lat="46.473264403690706" lon="9.18348057948819"><ele>1771.0</ele><time>2026-04-11T08:07:55.199Z</time></trkpt><trkpt lat="46.473441056342686" lon="9.183444163418207"><ele>1771.0</ele><time>2026-04-11T08:07:56.199Z</time></trkpt><trkpt lat="46.4735795" lon="9.1833913"><ele>1771.0</ele><time>2026-04-11T08:07:57.199Z</time></trkpt><trkpt lat="46.524085610529305" lon="9.186882836927836"><ele>1692.5</ele><time>2026-04-11T08:12:36.997Z</time></trkpt><trkpt lat="46.52425868113653" lon="9.18702776508663"><ele>1614.0</ele><time>2026-04-11T08:12:37.997Z</time></trkpt><trkpt lat="46.52451477408283" lon="9.187083711667103"><ele>1613.0</ele><time>2026-04-11T08:12:38.997Z</time></trkpt><trkpt lat="46.524689958456925" lon="9.187198831929916"><ele>1612.0</ele><time>2026-04-11T08:12:39.997Z</time></trkpt><trkpt lat="46.52486308901163" lon="9.187325473189706"><ele>1611.0</ele><time>2026-04-11T08:12:40.997Z</time></trkpt><trkpt lat="46.52503169200018" lon="9.187459290154381"><ele>1610.6666666666665</ele><time>2026-04-11T08:12:41.997Z</time></trkpt><trkpt lat="46.52520346756555" lon="9.187589915725319"><ele>1610.3333333333333</ele><time>2026-04-11T08:12:43Z</time></trkpt><trkpt lat="46.52537830136606" lon="9.18772490453503"><ele>1610.0</ele><time>2026-04-11T08:12:44Z</time></trkpt><trkpt lat="46.52554889163233" lon="9.187862089228716"><ele>1610.0</ele><time>2026-04-11T08:12:45Z</time></trkpt><trkpt lat="46.52572037050626" lon="9.188005095669515"><ele>1610.0</ele><time>2026-04-11T08:12:46Z</time></trkpt><trkpt lat="46.52589423054648" lon="9.1881445410454"><ele>1610.0</ele><time>2026-04-11T08:12:47Z</time></trkpt><trkpt lat="46.52606985283162" lon="9.188283630928531"><ele>1609.3333333333333</ele><time>2026-04-11T08:12:48Z</time></trkpt><trkpt lat="46.5262411354268" lon="9.188430779488364"><ele>1608.6666666666665</ele><time>2026-04-11T08:12:49Z</time></trkpt><trkpt lat="46.526412524539815" lon="9.18857015940772"><ele>1608.0</ele><time>2026-04-11T08:12:50Z</time></trkpt><trkpt lat="46.52658479953686" lon="9.18871125553669"><ele>1608.0</ele><time>2026-04-11T08:12:51Z</time></trkpt><trkpt lat="46.52675519602225" lon="9.188851568206431"><ele>1608.0</ele><time>2026-04-11T08:12:52Z</time></trkpt><trkpt lat="46.526925971430785" lon="9.188993508013281"><ele>1608.0</ele><time>2026-04-11T08:12:53Z</time></trkpt><trkpt lat="46.5270980708457" lon="9.189135402877884"><ele>1608.3333333333335</ele><time>2026-04-11T08:12:54Z</time></trkpt><trkpt lat="46.52727189215841" lon="9.189277327429824"><ele>1608.6666666666667</ele><time>2026-04-11T08:12:55Z</time></trkpt><trkpt lat="46.52744441445105" lon="9.189414054080387"><ele>1609.0</ele><time>2026-04-11T08:12:56Z</time></trkpt><trkpt lat="46.527612791686856" lon="9.189557545329892"><ele>1609.0</ele><time>2026-04-11T08:12:57Z</time></trkpt><trkpt lat="46.52778416131404" lon="9.189705106866446"><ele>1609.0</ele><time>2026-04-11T08:12:58Z</time></trkpt><trkpt lat="46.52793737351427" lon="9.189841779008816"><ele>1609.0</ele><time>2026-04-11T08:12:59Z</time></trkpt><trkpt lat="46.52809838734261" lon="9.190017532706865"><ele>1610.6666666666667</ele><time>2026-04-11T08:13:00Z</time></trkpt><trkpt lat="46.528232830947715" lon="9.190220324840327"><ele>1612.3333333333335</ele><time>2026-04-11T08:13:01Z</time></trkpt><trkpt lat="46.528385194892884" lon="9.19041481380871"><ele>1614.0</ele><time>2026-04-11T08:13:02Z</time></trkpt><trkpt lat="46.52852021378713" lon="9.190613195008138"><ele>1614.3333333333335</ele><time>2026-04-11T08:13:03Z</time></trkpt><trkpt lat="46.52865452617792" lon="9.19082707134139"><ele>1614.6666666666667</ele><time>2026-04-11T08:13:04Z</time></trkpt><trkpt lat="46.5287762329177" lon="9.191051226845985"><ele>1615.0</ele><time>2026-04-11T08:13:05Z</time></trkpt><trkpt lat="46.528884711255905" lon="9.19128043473766"><ele>1615.6666666666667</ele><time>2026-04-11T08:13:06Z</time></trkpt><trkpt lat="46.5289976443534" lon="9.191521975578967"><ele>1616.3333333333335</ele><time>2026-04-11T08:13:07Z</time></trkpt><trkpt lat="46.52910761127554" lon="9.19176123935724"><ele>1617.0</ele><time>2026-04-11T08:13:08Z</time></trkpt><trkpt lat="46.52921791668614" lon="9.192001880026702"><ele>1617.0</ele><time>2026-04-11T08:13:08.999Z</time></trkpt><trkpt lat="46.52933158954538" lon="9.192246021513164"><ele>1617.0</ele><time>2026-04-11T08:13:09.999Z</time></trkpt><trkpt lat="46.52943929270654" lon="9.192485582411537"><ele>1617.0</ele><time>2026-04-11T08:13:10.999Z</time></trkpt><trkpt lat="46.529542870897465" lon="9.192730645439246"><ele>1618.0</ele><time>2026-04-11T08:13:11.999Z</time></trkpt><trkpt lat="46.52963867626266" lon="9.192988354511954"><ele>1619.0</ele><time>2026-04-11T08:13:12.999Z</time></trkpt><trkpt lat="46.52972375021542" lon="9.193242720824797"><ele>1620.0</ele><time>2026-04-11T08:13:13.999Z</time></trkpt><trkpt lat="46.52980349311305" lon="9.193505533687814"><ele>1620.0</ele><time>2026-04-11T08:13:14.999Z</time></trkpt><trkpt lat="46.52987571792661" lon="9.193775335957145"><ele>1620.0</ele><time>2026-04-11T08:13:15.999Z</time></trkpt><trkpt lat="46.529939925219765" lon="9.194045878856675"><ele>1620.0</ele><time>2026-04-11T08:13:16.999Z</time></trkpt><trkpt lat="46.52999506506895" lon="9.194319739997919"><ele>1618.6666666666665</ele><time>2026-04-11T08:13:17.999Z</time></trkpt><trkpt lat="46.53004485350872" lon="9.194596688736176"><ele>1617.3333333333333</ele><time>2026-04-11T08:13:18.999Z</time></trkpt><trkpt lat="46.53008277194794" lon="9.194857798504822"><ele>1616.0</ele><time>2026-04-11T08:13:19.999Z</time></trkpt><trkpt lat="46.53011014432918" lon="9.195118720927448"><ele>1615.6666666666665</ele><time>2026-04-11T08:13:20.999Z</time></trkpt><trkpt lat="46.53013278368811" lon="9.195382246366718"><ele>1615.3333333333335</ele><time>2026-04-11T08:13:21.999Z</time></trkpt><trkpt lat="46.530146394502985" lon="9.195650650279314"><ele>1615.0</ele><time>2026-04-11T08:13:22.999Z</time></trkpt><trkpt lat="46.530155415153" lon="9.19592163444101"><ele>1614.3333333333335</ele><time>2026-04-11T08:13:23.999Z</time></trkpt><trkpt lat="46.53015935296382" lon="9.19619648530985"><ele>1613.6666666666665</ele><time>2026-04-11T08:13:24.999Z</time></trkpt><trkpt lat="46.530158854898744" lon="9.196466585495191"><ele>1613.0</ele><time>2026-04-11T08:13:25.999Z</time></trkpt><trkpt lat="46.53015487717467" lon="9.196737380538575"><ele>1612.0</ele><time>2026-04-11T08:13:26.999Z</time></trkpt><trkpt lat="46.53015028043816" lon="9.197012475328428"><ele>1611.0</ele><time>2026-04-11T08:13:27.999Z</time></trkpt><trkpt lat="46.53014580528182" lon="9.197283832620865"><ele>1610.0</ele><time>2026-04-11T08:13:28.999Z</time></trkpt><trkpt lat="46.530140077230136" lon="9.197557544566644"><ele>1609.0</ele><time>2026-04-11T08:13:29.999Z</time></trkpt><trkpt lat="46.53013486182966" lon="9.19783743642245"><ele>1608.0</ele><time>2026-04-11T08:13:30.999Z</time></trkpt><trkpt lat="46.530132810444854" lon="9.19811679389873"><ele>1607.0</ele><time>2026-04-11T08:13:31.999Z</time></trkpt><trkpt lat="46.530130287413726" lon="9.198393860775823"><ele>1606.6666666666665</ele><time>2026-04-11T08:13:32.999Z</time></trkpt><trkpt lat="46.530126928240705" lon="9.198674976069825"><ele>1606.3333333333335</ele><time>2026-04-11T08:13:33.999Z</time></trkpt><trkpt lat="46.53012880795543" lon="9.198953943385911"><ele>1606.0</ele><time>2026-04-11T08:13:34.999Z</time></trkpt><trkpt lat="46.5301272051624" lon="9.199232480787682"><ele>1606.0</ele><time>2026-04-11T08:13:35.999Z</time></trkpt><trkpt lat="46.530128452692686" lon="9.199512738674771"><ele>1606.0</ele><time>2026-04-11T08:13:36.999Z</time></trkpt><trkpt lat="46.530133098611884" lon="9.199795287827015"><ele>1606.0</ele><time>2026-04-11T08:13:37.999Z</time></trkpt><trkpt lat="46.53013168164037" lon="9.200077806411496"><ele>1606.0</ele><time>2026-04-11T08:13:38.999Z</time></trkpt><trkpt lat="46.530136311239026" lon="9.200363249979217"><ele>1606.0</ele><time>2026-04-11T08:13:39.999Z</time></trkpt><trkpt lat="46.530139414631954" lon="9.200648848435213"><ele>1606.0</ele><time>2026-04-11T08:13:40.999Z</time></trkpt><trkpt lat="46.530146761260255" lon="9.200930553792094"><ele>1605.6666666666667</ele><time>2026-04-11T08:13:41.999Z</time></trkpt><trkpt lat="46.53015392548937" lon="9.201211757127263"><ele>1605.3333333333335</ele><time>2026-04-11T08:13:42.999Z</time></trkpt><trkpt lat="46.53016559358639" lon="9.201491145439965"><ele>1605.0</ele><time>2026-04-11T08:13:43.999Z</time></trkpt><trkpt lat="46.5301823731498" lon="9.201768307802109"><ele>1605.0</ele><time>2026-04-11T08:13:44.999Z</time></trkpt><trkpt lat="46.530206034241246" lon="9.202045751217414"><ele>1605.0</ele><time>2026-04-11T08:13:45.999Z</time></trkpt><trkpt lat="46.53023495798552" lon="9.202321785474085"><ele>1605.0</ele><time>2026-04-11T08:13:46.999Z</time></trkpt><trkpt lat="46.53027083770821" lon="9.20259824139618"><ele>1605.6666666666665</ele><time>2026-04-11T08:13:47.999Z</time></trkpt><trkpt lat="46.530315891552995" lon="9.202875946282541"><ele>1606.3333333333333</ele><time>2026-04-11T08:13:48.999Z</time></trkpt><trkpt lat="46.530365612186266" lon="9.203142112942276"><ele>1607.0</ele><time>2026-04-11T08:13:49.999Z</time></trkpt><trkpt lat="46.53042767855113" lon="9.203410636688078"><ele>1608.6666666666665</ele><time>2026-04-11T08:13:50.999Z</time></trkpt><trkpt lat="46.53049739052298" lon="9.203673783986313"><ele>1610.3333333333335</ele><time>2026-04-11T08:13:51.999Z</time></trkpt><trkpt lat="46.53057691935709" lon="9.203940570062228"><ele>1612.0</ele><time>2026-04-11T08:13:52.999Z</time></trkpt><trkpt lat="46.530672472791686" lon="9.204191658815832"><ele>1612.0</ele><time>2026-04-11T08:13:53.999Z</time></trkpt><trkpt lat="46.53077288307125" lon="9.204447009957793"><ele>1612.0</ele><time>2026-04-11T08:13:54.999Z</time></trkpt><trkpt lat="46.530881060445736" lon="9.204690504129635"><ele>1612.0</ele><time>2026-04-11T08:13:55.999Z</time></trkpt><trkpt lat="46.53099529020573" lon="9.204918385343756"><ele>1612.3333333333335</ele><time>2026-04-11T08:13:56.999Z</time></trkpt><trkpt lat="46.53110507160427" lon="9.205144569939598"><ele>1612.6666666666665</ele><time>2026-04-11T08:13:57.999Z</time></trkpt><trkpt lat="46.531217681518626" lon="9.205376079749698"><ele>1613.0</ele><time>2026-04-11T08:13:58.999Z</time></trkpt><trkpt lat="46.53133135671988" lon="9.205609672095472"><ele>1613.6666666666665</ele><time>2026-04-11T08:13:59.999Z</time></trkpt><trkpt lat="46.531439563026794" lon="9.205846635147179"><ele>1614.3333333333335</ele><time>2026-04-11T08:14:00.999Z</time></trkpt><trkpt lat="46.531537766870436" lon="9.206110352783694"><ele>1615.0</ele><time>2026-04-11T08:14:01.999Z</time></trkpt><trkpt lat="46.5316115194296" lon="9.206383817271389"><ele>1613.0</ele><time>2026-04-11T08:14:02.999Z</time></trkpt><trkpt lat="46.53165893829264" lon="9.206668762988153"><ele>1611.0</ele><time>2026-04-11T08:14:03.999Z</time></trkpt><trkpt lat="46.531682604384194" lon="9.206956031217166"><ele>1609.0</ele><time>2026-04-11T08:14:04.999Z</time></trkpt><trkpt lat="46.531685855118944" lon="9.207247701250747"><ele>1608.3333333333335</ele><time>2026-04-11T08:14:05.999Z</time></trkpt><trkpt lat="46.53166521034308" lon="9.207538350557309"><ele>1607.6666666666665</ele><time>2026-04-11T08:14:06.999Z</time></trkpt><trkpt lat="46.53162548570652" lon="9.207819086368785"><ele>1607.0</ele><time>2026-04-11T08:14:07.999Z</time></trkpt><trkpt lat="46.53156415823289" lon="9.208082927103156"><ele>1610.3333333333333</ele><time>2026-04-11T08:14:08.999Z</time></trkpt><trkpt lat="46.53148640863103" lon="9.20834118377551"><ele>1613.6666666666665</ele><time>2026-04-11T08:14:09.999Z</time></trkpt><trkpt lat="46.5314075214063" lon="9.208601335741827"><ele>1617.0</ele><time>2026-04-11T08:14:10.999Z</time></trkpt><trkpt lat="46.53133519195011" lon="9.20886471054311"><ele>1619.0</ele><time>2026-04-11T08:14:11.999Z</time></trkpt><trkpt lat="46.53127139678296" lon="9.20912833253795"><ele>1621.0</ele><time>2026-04-11T08:14:12.999Z</time></trkpt><trkpt lat="46.531222986068364" lon="9.209397131308405"><ele>1623.0</ele><time>2026-04-11T08:14:13.999Z</time></trkpt><trkpt lat="46.5311917268033" lon="9.209670513148962"><ele>1613.3333333333335</ele><time>2026-04-11T08:14:14.999Z</time></trkpt><trkpt lat="46.531178149243594" lon="9.209947936453933"><ele>1603.6666666666667</ele><time>2026-04-11T08:14:15.999Z</time></trkpt><trkpt lat="46.53118830280259" lon="9.210226350611805"><ele>1594.0</ele><time>2026-04-11T08:14:16.999Z</time></trkpt><trkpt lat="46.53122110859167" lon="9.21050020857655"><ele>1600.0</ele><time>2026-04-11T08:14:17.999Z</time></trkpt><trkpt lat="46.53127462752546" lon="9.210765674498491"><ele>1606.0</ele><time>2026-04-11T08:14:18.999Z</time></trkpt><trkpt lat="46.53134680906308" lon="9.211024758157029"><ele>1612.0</ele><time>2026-04-11T08:14:19.999Z</time></trkpt><trkpt lat="46.53143792266568" lon="9.211280587728702"><ele>1606.0</ele><time>2026-04-11T08:14:20.999Z</time></trkpt><trkpt lat="46.53154265954888" lon="9.211526070202178"><ele>1600.0</ele><time>2026-04-11T08:14:21.999Z</time></trkpt><trkpt lat="46.531649762120146" lon="9.211765627933895"><ele>1594.0</ele><time>2026-04-11T08:14:22.999Z</time></trkpt><trkpt lat="46.53175439394938" lon="9.21200534531217"><ele>1594.0</ele><time>2026-04-11T08:14:23.999Z</time></trkpt><trkpt lat="46.53185700265628" lon="9.21224330177466"><ele>1594.0</ele><time>2026-04-11T08:14:24.999Z</time></trkpt><trkpt lat="46.53195724646039" lon="9.212487077031025"><ele>1594.0</ele><time>2026-04-11T08:14:25.999Z</time></trkpt><trkpt lat="46.53204244675748" lon="9.212740306619299"><ele>1597.6666666666667</ele><time>2026-04-11T08:14:26.999Z</time></trkpt><trkpt lat="46.53211845357991" lon="9.213001974751538"><ele>1601.3333333333335</ele><time>2026-04-11T08:14:27.999Z</time></trkpt><trkpt lat="46.53218668808972" lon="9.213270228282036"><ele>1605.0</ele><time>2026-04-11T08:14:28.999Z</time></trkpt><trkpt lat="46.53224365495146" lon="9.213537065237634"><ele>1605.0</ele><time>2026-04-11T08:14:29.999Z</time></trkpt><trkpt lat="46.5322957829686" lon="9.213806300217216"><ele>1605.0</ele><time>2026-04-11T08:14:30.999Z</time></trkpt><trkpt lat="46.53233699317639" lon="9.214080858581974"><ele>1605.0</ele><time>2026-04-11T08:14:31.999Z</time></trkpt><trkpt lat="46.53237126243491" lon="9.214354008151117"><ele>1601.3333333333335</ele><time>2026-04-11T08:14:32.999Z</time></trkpt><trkpt lat="46.532406165744455" lon="9.214624044204308"><ele>1597.6666666666667</ele><time>2026-04-11T08:14:33.999Z</time></trkpt><trkpt lat="46.53244231701743" lon="9.214894202289038"><ele>1594.0</ele><time>2026-04-11T08:14:34.999Z</time></trkpt><trkpt lat="46.53248143530544" lon="9.215162855540662"><ele>1593.0</ele><time>2026-04-11T08:14:35.999Z</time></trkpt><trkpt lat="46.53252710222642" lon="9.215434354712466"><ele>1592.0</ele><time>2026-04-11T08:14:36.999Z</time></trkpt><trkpt lat="46.53257538198015" lon="9.215705790300603"><ele>1591.0</ele><time>2026-04-11T08:14:37.999Z</time></trkpt><trkpt lat="46.53263133366933" lon="9.215978196411395"><ele>1588.6666666666667</ele><time>2026-04-11T08:14:38.999Z</time></trkpt><trkpt lat="46.5326951243788" lon="9.216244775500202"><ele>1586.3333333333335</ele><time>2026-04-11T08:14:39.999Z</time></trkpt><trkpt lat="46.53276768540353" lon="9.216510165096109"><ele>1584.0</ele><time>2026-04-11T08:14:40.999Z</time></trkpt><trkpt lat="46.53284683193094" lon="9.216772014477337"><ele>1588.6666666666665</ele><time>2026-04-11T08:14:41.999Z</time></trkpt><trkpt lat="46.53293204140138" lon="9.21702655181243"><ele>1593.3333333333333</ele><time>2026-04-11T08:14:42.999Z</time></trkpt><trkpt lat="46.5330234844469" lon="9.217271494345102"><ele>1598.0</ele><time>2026-04-11T08:14:43.999Z</time></trkpt><trkpt lat="46.533123040119634" lon="9.217508507083881"><ele>1598.0</ele><time>2026-04-11T08:14:44.999Z</time></trkpt><trkpt lat="46.533225226320155" lon="9.217741750798238"><ele>1598.0</ele><time>2026-04-11T08:14:45.999Z</time></trkpt><trkpt lat="46.53332965217049" lon="9.217974131640132"><ele>1598.0</ele><time>2026-04-11T08:14:46.999Z</time></trkpt><trkpt lat="46.533434967282666" lon="9.218206200999056"><ele>1592.3333333333333</ele><time>2026-04-11T08:14:47.999Z</time></trkpt><trkpt lat="46.53352993643499" lon="9.218429400093553"><ele>1586.6666666666665</ele><time>2026-04-11T08:14:49Z</time></trkpt><trkpt lat="46.53363099676389" lon="9.21865813077294"><ele>1581.0</ele><time>2026-04-11T08:14:49.999Z</time></trkpt><trkpt lat="46.53372941352409" lon="9.218886368354635"><ele>1588.3333333333335</ele><time>2026-04-11T08:14:50.999Z</time></trkpt><trkpt lat="46.53382717551038" lon="9.21911288913865"><ele>1595.6666666666667</ele><time>2026-04-11T08:14:52Z</time></trkpt><trkpt lat="46.5339250472312" lon="9.21933847937888"><ele>1603.0</ele><time>2026-04-11T08:14:53Z</time></trkpt><trkpt lat="46.534023296179456" lon="9.219568226149544"><ele>1603.0</ele><time>2026-04-11T08:14:54Z</time></trkpt><trkpt lat="46.53412072731415" lon="9.219796556470486"><ele>1603.0</ele><time>2026-04-11T08:14:55Z</time></trkpt><trkpt lat="46.534213689201216" lon="9.220021428157928"><ele>1603.0</ele><time>2026-04-11T08:14:56Z</time></trkpt><trkpt lat="46.53431391846881" lon="9.220245629058477"><ele>1601.6666666666667</ele><time>2026-04-11T08:14:57Z</time></trkpt><trkpt lat="46.534410476810315" lon="9.220468950035603"><ele>1600.3333333333335</ele><time>2026-04-11T08:14:58Z</time></trkpt><trkpt lat="46.53450962579679" lon="9.220696072915809"><ele>1599.0</ele><time>2026-04-11T08:14:59Z</time></trkpt><trkpt lat="46.534721439916595" lon="9.221095446158564"><ele>1599.0</ele><time>2026-04-11T08:15:00Z</time></trkpt><trkpt lat="46.53482663556613" lon="9.221347409731038"><ele>1599.0</ele><time>2026-04-11T08:15:01Z</time></trkpt><trkpt lat="46.534932562255825" lon="9.221603521477306"><ele>1599.0</ele><time>2026-04-11T08:15:02Z</time></trkpt><trkpt lat="46.535052165408096" lon="9.22185005447379"><ele>1599.6666666666665</ele><time>2026-04-11T08:15:02.999Z</time></trkpt><trkpt lat="46.535168183755445" lon="9.222106889302177"><ele>1600.3333333333333</ele><time>2026-04-11T08:15:03.999Z</time></trkpt><trkpt lat="46.53528718661266" lon="9.22236006435291"><ele>1601.0</ele><time>2026-04-11T08:15:04.999Z</time></trkpt><trkpt lat="46.53540795705087" lon="9.222610750392464"><ele>1601.0</ele><time>2026-04-11T08:15:05.999Z</time></trkpt><trkpt lat="46.53550050125128" lon="9.222868619929114"><ele>1601.0</ele><time>2026-04-11T08:15:06.999Z</time></trkpt><trkpt lat="46.535603070575036" lon="9.223121480896035"><ele>1601.0</ele><time>2026-04-11T08:15:07.999Z</time></trkpt><trkpt lat="46.53571369431714" lon="9.223397636988075"><ele>1596.3333333333333</ele><time>2026-04-11T08:15:08.999Z</time></trkpt><trkpt lat="46.53582208176204" lon="9.223679124255401"><ele>1591.6666666666665</ele><time>2026-04-11T08:15:09.999Z</time></trkpt><trkpt lat="46.5359197468654" lon="9.223934771167562"><ele>1587.0</ele><time>2026-04-11T08:15:10.999Z</time></trkpt><trkpt lat="46.53600986106328" lon="9.224181866380182"><ele>1588.6666666666665</ele><time>2026-04-11T08:15:11.999Z</time></trkpt><trkpt lat="46.53608995476341" lon="9.224404883299256"><ele>1590.3333333333333</ele><time>2026-04-11T08:15:12.999Z</time></trkpt><trkpt lat="46.5361902766693" lon="9.22468400605432"><ele>1592.0</ele><time>2026-04-11T08:15:13.999Z</time></trkpt><trkpt lat="46.53629907140825" lon="9.224976449017007"><ele>1592.0</ele><time>2026-04-11T08:15:14.999Z</time></trkpt><trkpt lat="46.536413288384786" lon="9.225259457796227"><ele>1592.0</ele><time>2026-04-11T08:15:15.999Z</time></trkpt><trkpt lat="46.53653518625859" lon="9.225541664530647"><ele>1581.0</ele><time>2026-04-11T08:15:16.999Z</time></trkpt><trkpt lat="46.53666982557901" lon="9.225818829129258"><ele>1570.0</ele><time>2026-04-11T08:15:17.999Z</time></trkpt><trkpt lat="46.536844316305505" lon="9.226139499126601"><ele>1570.0</ele><time>2026-04-11T08:15:18.999Z</time></trkpt><trkpt lat="46.53705263426385" lon="9.226560523454483"><ele>1570.0</ele><time>2026-04-11T08:15:19.999Z</time></trkpt><trkpt lat="46.53733119574039" lon="9.227088483557782"><ele>1560.0</ele><time>2026-04-11T08:15:20.999Z</time></trkpt><trkpt lat="46.53765028363704" lon="9.227565133229096"><ele>1585.0</ele><time>2026-04-11T08:15:21.999Z</time></trkpt><trkpt lat="46.53796765320044" lon="9.228079908601314"><ele>1570.0</ele><time>2026-04-11T08:15:22.999Z</time></trkpt><trkpt lat="46.53828273148441" lon="9.228729323088467"><ele>1564.0</ele><time>2026-04-11T08:15:23.999Z</time></trkpt><trkpt lat="46.53849607898282" lon="9.229330112623078"><ele>1564.0</ele><time>2026-04-11T08:15:24.999Z</time></trkpt><trkpt lat="46.538655132829064" lon="9.229686395062666"><ele>1564.0</ele><time>2026-04-11T08:15:26.015Z</time></trkpt><trkpt lat="46.53859608975767" lon="9.232115976626929"><ele>1565.3333333333335</ele><time>2026-04-11T08:15:46.999Z</time></trkpt><trkpt lat="46.538553158944104" lon="9.232391732347628"><ele>1566.6666666666665</ele><time>2026-04-11T08:15:47.999Z</time></trkpt><trkpt lat="46.538522528523025" lon="9.232664434427317"><ele>1568.0</ele><time>2026-04-11T08:15:48.999Z</time></trkpt><trkpt lat="46.538453958519526" lon="9.232940285010423"><ele>1568.3333333333333</ele><time>2026-04-11T08:15:49.999Z</time></trkpt><trkpt lat="46.538401781775974" lon="9.233218555076009"><ele>1568.6666666666665</ele><time>2026-04-11T08:15:50.999Z</time></trkpt><trkpt lat="46.53834390496691" lon="9.233499596614207"><ele>1569.0</ele><time>2026-04-11T08:15:51.999Z</time></trkpt><trkpt lat="46.53827147089052" lon="9.233769999190901"><ele>1570.3333333333335</ele><time>2026-04-11T08:15:52.999Z</time></trkpt><trkpt lat="46.5382167494395" lon="9.234055709049462"><ele>1571.6666666666667</ele><time>2026-04-11T08:15:53.999Z</time></trkpt><trkpt lat="46.53816422172308" lon="9.234340960651075"><ele>1573.0</ele><time>2026-04-11T08:15:54.999Z</time></trkpt><trkpt lat="46.5381166284057" lon="9.234633676692582"><ele>1573.6666666666667</ele><time>2026-04-11T08:15:55.999Z</time></trkpt><trkpt lat="46.53807537251531" lon="9.234924519958488"><ele>1574.3333333333335</ele><time>2026-04-11T08:15:56.999Z</time></trkpt><trkpt lat="46.5380365148338" lon="9.235220123229109"><ele>1575.0</ele><time>2026-04-11T08:15:57.999Z</time></trkpt><trkpt lat="46.53800627761973" lon="9.235517498984908"><ele>1575.0</ele><time>2026-04-11T08:15:58.999Z</time></trkpt><trkpt lat="46.53797959678984" lon="9.235814831011004"><ele>1575.0</ele><time>2026-04-11T08:15:59.999Z</time></trkpt><trkpt lat="46.53795583342964" lon="9.236118640685342"><ele>1575.0</ele><time>2026-04-11T08:16:00.999Z</time></trkpt><trkpt lat="46.53794081633168" lon="9.236423478799177"><ele>1574.6666666666665</ele><time>2026-04-11T08:16:01.999Z</time></trkpt><trkpt lat="46.53793045479592" lon="9.236732464997477"><ele>1574.3333333333333</ele><time>2026-04-11T08:16:02.999Z</time></trkpt><trkpt lat="46.537924454090614" lon="9.237044854577789"><ele>1574.0</ele><time>2026-04-11T08:16:03.999Z</time></trkpt><trkpt lat="46.537924491231244" lon="9.237353640784505"><ele>1573.6666666666665</ele><time>2026-04-11T08:16:04.999Z</time></trkpt><trkpt lat="46.53793139402328" lon="9.237659021447715"><ele>1573.3333333333335</ele><time>2026-04-11T08:16:05.999Z</time></trkpt><trkpt lat="46.53794232570137" lon="9.237956432332878"><ele>1573.0</ele><time>2026-04-11T08:16:06.999Z</time></trkpt><trkpt lat="46.537957714196125" lon="9.238249584692223"><ele>1571.6666666666667</ele><time>2026-04-11T08:16:07.999Z</time></trkpt><trkpt lat="46.53798017921827" lon="9.238543798910609"><ele>1570.3333333333335</ele><time>2026-04-11T08:16:08.999Z</time></trkpt><trkpt lat="46.53800553437896" lon="9.238836942432489"><ele>1569.0</ele><time>2026-04-11T08:16:09.999Z</time></trkpt><trkpt lat="46.53803817147896" lon="9.239129926902585"><ele>1567.6666666666665</ele><time>2026-04-11T08:16:10.999Z</time></trkpt><trkpt lat="46.538076993705076" lon="9.239425145456456"><ele>1566.3333333333333</ele><time>2026-04-11T08:16:11.999Z</time></trkpt><trkpt lat="46.538119001653406" lon="9.239719752796493"><ele>1565.0</ele><time>2026-04-11T08:16:12.999Z</time></trkpt><trkpt lat="46.53816353477889" lon="9.240013546256467"><ele>1563.6666666666665</ele><time>2026-04-11T08:16:13.999Z</time></trkpt><trkpt lat="46.53821429967818" lon="9.240304152345836"><ele>1562.3333333333335</ele><time>2026-04-11T08:16:14.999Z</time></trkpt><trkpt lat="46.53826579033788" lon="9.240592872225315"><ele>1561.0</ele><time>2026-04-11T08:16:15.999Z</time></trkpt><trkpt lat="46.53831249487929" lon="9.240872299728021"><ele>1559.3333333333335</ele><time>2026-04-11T08:16:16.999Z</time></trkpt><trkpt lat="46.53835949600537" lon="9.241137352859793"><ele>1557.6666666666665</ele><time>2026-04-11T08:16:17.999Z</time></trkpt><trkpt lat="46.538402728506824" lon="9.24139686162733"><ele>1556.0</ele><time>2026-04-11T08:16:19Z</time></trkpt><trkpt lat="46.53843978883483" lon="9.241656882576322"><ele>1555.6666666666665</ele><time>2026-04-11T08:16:20Z</time></trkpt><trkpt lat="46.53846674890139" lon="9.241927361988374"><ele>1555.3333333333335</ele><time>2026-04-11T08:16:21Z</time></trkpt><trkpt lat="46.538487704474896" lon="9.242206406869606"><ele>1555.0</ele><time>2026-04-11T08:16:22Z</time></trkpt><trkpt lat="46.53850467568462" lon="9.242491768444792"><ele>1555.0</ele><time>2026-04-11T08:16:23Z</time></trkpt><trkpt lat="46.5385115216382" lon="9.24278388822041"><ele>1555.0</ele><time>2026-04-11T08:16:24Z</time></trkpt><trkpt lat="46.53850834883166" lon="9.243083573951145"><ele>1555.0</ele><time>2026-04-11T08:16:25Z</time></trkpt><trkpt lat="46.538497864707075" lon="9.243383922003138"><ele>1555.0</ele><time>2026-04-11T08:16:26Z</time></trkpt><trkpt lat="46.53848605158353" lon="9.243686750616659"><ele>1555.0</ele><time>2026-04-11T08:16:27Z</time></trkpt><trkpt lat="46.53847773248207" lon="9.243989216723845"><ele>1555.0</ele><time>2026-04-11T08:16:28Z</time></trkpt><trkpt lat="46.53846907759357" lon="9.244292395356696"><ele>1555.0</ele><time>2026-04-11T08:16:29Z</time></trkpt><trkpt lat="46.538458332397646" lon="9.244584716430898"><ele>1555.0</ele><time>2026-04-11T08:16:30Z</time></trkpt><trkpt lat="46.538451643499556" lon="9.244868615197415"><ele>1555.0</ele><time>2026-04-11T08:16:31Z</time></trkpt><trkpt lat="46.53845222819505" lon="9.245150236066108"><ele>1554.6666666666667</ele><time>2026-04-11T08:16:32Z</time></trkpt><trkpt lat="46.53846519883311" lon="9.245431316472716"><ele>1554.3333333333335</ele><time>2026-04-11T08:16:33Z</time></trkpt><trkpt lat="46.53849061821709" lon="9.245713968907957"><ele>1554.0</ele><time>2026-04-11T08:16:34Z</time></trkpt><trkpt lat="46.53852509287724" lon="9.24599471572873"><ele>1552.3333333333335</ele><time>2026-04-11T08:16:35Z</time></trkpt><trkpt lat="46.53856889389548" lon="9.24627442623817"><ele>1550.6666666666667</ele><time>2026-04-11T08:16:36Z</time></trkpt><trkpt lat="46.53861763860748" lon="9.246547662031004"><ele>1549.0</ele><time>2026-04-11T08:16:37Z</time></trkpt><trkpt lat="46.5386662800828" lon="9.246821462524297"><ele>1548.0</ele><time>2026-04-11T08:16:38Z</time></trkpt><trkpt lat="46.53870618973033" lon="9.247107010902603"><ele>1547.0</ele><time>2026-04-11T08:16:39Z</time></trkpt><trkpt lat="46.53873160781015" lon="9.247398853619567"><ele>1546.0</ele><time>2026-04-11T08:16:40Z</time></trkpt><trkpt lat="46.53874615096647" lon="9.247694589587317"><ele>1551.0</ele><time>2026-04-11T08:16:41Z</time></trkpt><trkpt lat="46.53874889760619" lon="9.247991576849467"><ele>1556.0</ele><time>2026-04-11T08:16:42Z</time></trkpt><trkpt lat="46.53873734934299" lon="9.248285044260358"><ele>1561.0</ele><time>2026-04-11T08:16:43Z</time></trkpt><trkpt lat="46.53871809124401" lon="9.24857291658739"><ele>1555.3333333333335</ele><time>2026-04-11T08:16:44Z</time></trkpt><trkpt lat="46.53869463718653" lon="9.248858693675901"><ele>1549.6666666666665</ele><time>2026-04-11T08:16:45Z</time></trkpt><trkpt lat="46.53867024605962" lon="9.249148934678312"><ele>1544.0</ele><time>2026-04-11T08:16:46Z</time></trkpt><trkpt lat="46.5386491815411" lon="9.249440642146215"><ele>1544.0</ele><time>2026-04-11T08:16:47Z</time></trkpt><trkpt lat="46.53863364954918" lon="9.249733738004434"><ele>1544.0</ele><time>2026-04-11T08:16:48Z</time></trkpt><trkpt lat="46.53862852513481" lon="9.25003295164799"><ele>1544.0</ele><time>2026-04-11T08:16:49Z</time></trkpt><trkpt lat="46.53863806737943" lon="9.250330160759866"><ele>1544.3333333333333</ele><time>2026-04-11T08:16:50Z</time></trkpt><trkpt lat="46.538664360713156" lon="9.250622513998149"><ele>1544.6666666666665</ele><time>2026-04-11T08:16:51Z</time></trkpt><trkpt lat="46.538703263758286" lon="9.25090938552403"><ele>1545.0</ele><time>2026-04-11T08:16:52Z</time></trkpt><trkpt lat="46.53875566879261" lon="9.251191349438933"><ele>1546.3333333333335</ele><time>2026-04-11T08:16:53Z</time></trkpt><trkpt lat="46.5388236310173" lon="9.25146800977953"><ele>1547.6666666666667</ele><time>2026-04-11T08:16:54Z</time></trkpt><trkpt lat="46.53890702685589" lon="9.251732537582997"><ele>1549.0</ele><time>2026-04-11T08:16:55.001Z</time></trkpt><trkpt lat="46.53900108174912" lon="9.251990243842798"><ele>1549.0</ele><time>2026-04-11T08:16:56Z</time></trkpt><trkpt lat="46.53910017810596" lon="9.252244002459834"><ele>1549.0</ele><time>2026-04-11T08:16:57Z</time></trkpt><trkpt lat="46.53919973954501" lon="9.252490171928311"><ele>1549.0</ele><time>2026-04-11T08:16:58.001Z</time></trkpt><trkpt lat="46.53929551830969" lon="9.252737361722703"><ele>1550.3333333333335</ele><time>2026-04-11T08:16:59Z</time></trkpt><trkpt lat="46.539391486364906" lon="9.252984850222356"><ele>1551.6666666666665</ele><time>2026-04-11T08:17:00Z</time></trkpt><trkpt lat="46.5394840478779" lon="9.253238279397927"><ele>1553.0</ele><time>2026-04-11T08:17:01Z</time></trkpt><trkpt lat="46.53956684752028" lon="9.2534918725783"><ele>1553.0</ele><time>2026-04-11T08:17:02Z</time></trkpt><trkpt lat="46.53963047222352" lon="9.253751196519573"><ele>1553.0</ele><time>2026-04-11T08:17:03Z</time></trkpt><trkpt lat="46.539668305305405" lon="9.254029020652741"><ele>1553.0</ele><time>2026-04-11T08:17:04Z</time></trkpt><trkpt lat="46.5396901151559" lon="9.254315961974752"><ele>1551.3333333333333</ele><time>2026-04-11T08:17:05Z</time></trkpt><trkpt lat="46.53969151397689" lon="9.254602202185014"><ele>1549.6666666666665</ele><time>2026-04-11T08:17:06Z</time></trkpt><trkpt lat="46.539675831206736" lon="9.25488348520455"><ele>1548.0</ele><time>2026-04-11T08:17:07Z</time></trkpt><trkpt lat="46.53965699700924" lon="9.255168005210304"><ele>1546.3333333333335</ele><time>2026-04-11T08:17:08Z</time></trkpt><trkpt lat="46.53963300935738" lon="9.2554529489188"><ele>1544.6666666666667</ele><time>2026-04-11T08:17:09Z</time></trkpt><trkpt lat="46.53961054628768" lon="9.255736419211164"><ele>1543.0</ele><time>2026-04-11T08:17:10Z</time></trkpt><trkpt lat="46.53953518607514" lon="9.256008629372145"><ele>1538.6666666666667</ele><time>2026-04-11T08:17:11Z</time></trkpt><trkpt lat="46.539498254914314" lon="9.256287953423849"><ele>1534.3333333333335</ele><time>2026-04-11T08:17:12Z</time></trkpt><trkpt lat="46.53947860542053" lon="9.256577657858097"><ele>1530.0</ele><time>2026-04-11T08:17:13Z</time></trkpt><trkpt lat="46.539472176027985" lon="9.256870181853845"><ele>1530.0</ele><time>2026-04-11T08:17:14Z</time></trkpt><trkpt lat="46.5394826419287" lon="9.257180526984264"><ele>1530.0</ele><time>2026-04-11T08:17:15Z</time></trkpt><trkpt lat="46.53951059585204" lon="9.25746659150696"><ele>1530.0</ele><time>2026-04-11T08:17:16Z</time></trkpt><trkpt lat="46.539550238162796" lon="9.257744046530341"><ele>1531.0</ele><time>2026-04-11T08:17:17Z</time></trkpt><trkpt lat="46.53960461051567" lon="9.258013393306625"><ele>1532.0</ele><time>2026-04-11T08:17:18Z</time></trkpt><trkpt lat="46.539669171814104" lon="9.258280880093512"><ele>1533.0</ele><time>2026-04-11T08:17:19Z</time></trkpt><trkpt lat="46.53974964502698" lon="9.258545518951095"><ele>1531.0</ele><time>2026-04-11T08:17:20Z</time></trkpt><trkpt lat="46.5398381239184" lon="9.258805735594894"><ele>1529.0</ele><time>2026-04-11T08:17:21Z</time></trkpt><trkpt lat="46.539923453958444" lon="9.259065445886836"><ele>1527.0</ele><time>2026-04-11T08:17:22Z</time></trkpt><trkpt lat="46.54001220423237" lon="9.25933265888475"><ele>1525.3333333333333</ele><time>2026-04-11T08:17:23Z</time></trkpt><trkpt lat="46.5401003771954" lon="9.259610691907168"><ele>1523.6666666666665</ele><time>2026-04-11T08:17:24Z</time></trkpt><trkpt lat="46.540198341312696" lon="9.25989011278591"><ele>1522.0</ele><time>2026-04-11T08:17:25Z</time></trkpt><trkpt lat="46.54028730188275" lon="9.260171889315986"><ele>1521.3333333333333</ele><time>2026-04-11T08:17:26Z</time></trkpt><trkpt lat="46.54037852501276" lon="9.26046753058426"><ele>1520.6666666666667</ele><time>2026-04-11T08:17:27Z</time></trkpt><trkpt lat="46.54046838135009" lon="9.26076386088665"><ele>1520.0</ele><time>2026-04-11T08:17:28Z</time></trkpt><trkpt lat="46.54055671867244" lon="9.261071812606735"><ele>1519.0</ele><time>2026-04-11T08:17:29Z</time></trkpt><trkpt lat="46.54063774714638" lon="9.261383369170249"><ele>1518.0</ele><time>2026-04-11T08:17:30Z</time></trkpt><trkpt lat="46.54072034202106" lon="9.26170137192438"><ele>1518.0</ele><time>2026-04-11T08:17:31Z</time></trkpt><trkpt lat="46.540794323390365" lon="9.262026462012054"><ele>1518.0</ele><time>2026-04-11T08:17:32Z</time></trkpt><trkpt lat="46.54086065535509" lon="9.262358123256806"><ele>1517.0</ele><time>2026-04-11T08:17:33Z</time></trkpt><trkpt lat="46.540925268522244" lon="9.26269382116465"><ele>1516.0</ele><time>2026-04-11T08:17:34Z</time></trkpt><trkpt lat="46.54098528769006" lon="9.263028146301963"><ele>1517.5</ele><time>2026-04-11T08:17:35Z</time></trkpt><trkpt lat="46.541040905732665" lon="9.263366740209369"><ele>1519.0</ele><time>2026-04-11T08:17:36Z</time></trkpt><trkpt lat="46.541089010523734" lon="9.263704623013842"><ele>1518.5</ele><time>2026-04-11T08:17:37Z</time></trkpt><trkpt lat="46.54113298251676" lon="9.264045882962392"><ele>1518.0</ele><time>2026-04-11T08:17:38Z</time></trkpt><trkpt lat="46.54116853597525" lon="9.264387633015279"><ele>1518.0</ele><time>2026-04-11T08:17:39Z</time></trkpt><trkpt lat="46.5411986263443" lon="9.264729095043213"><ele>1518.0</ele><time>2026-04-11T08:17:40Z</time></trkpt><trkpt lat="46.54122426662557" lon="9.265066793841576"><ele>1519.0</ele><time>2026-04-11T08:17:41Z</time></trkpt><trkpt lat="46.54123902178796" lon="9.26540101732866"><ele>1520.0</ele><time>2026-04-11T08:17:42Z</time></trkpt><trkpt lat="46.541251885310075" lon="9.265740295535004"><ele>1520.0</ele><time>2026-04-11T08:17:43Z</time></trkpt><trkpt lat="46.541261885733206" lon="9.266080067829604"><ele>1520.0</ele><time>2026-04-11T08:17:44Z</time></trkpt><trkpt lat="46.54126372754382" lon="9.266426545303917"><ele>1520.5</ele><time>2026-04-11T08:17:45Z</time></trkpt><trkpt lat="46.54126336728164" lon="9.266776068299304"><ele>1521.0</ele><time>2026-04-11T08:17:46Z</time></trkpt><trkpt lat="46.541258596793455" lon="9.267123267225553"><ele>1522.5</ele><time>2026-04-11T08:17:47Z</time></trkpt><trkpt lat="46.54125102420945" lon="9.267473286444911"><ele>1524.0</ele><time>2026-04-11T08:17:48Z</time></trkpt><trkpt lat="46.54124543180171" lon="9.267823490350375"><ele>1525.0</ele><time>2026-04-11T08:17:49Z</time></trkpt><trkpt lat="46.54123660533132" lon="9.26817885991245"><ele>1526.0</ele><time>2026-04-11T08:17:50Z</time></trkpt><trkpt lat="46.541226770552605" lon="9.268534161796618"><ele>1526.0</ele><time>2026-04-11T08:17:51Z</time></trkpt><trkpt lat="46.541216978251924" lon="9.268887792464897"><ele>1526.0</ele><time>2026-04-11T08:17:52Z</time></trkpt><trkpt lat="46.541209537227175" lon="9.269238134615309"><ele>1520.5</ele><time>2026-04-11T08:17:53Z</time></trkpt><trkpt lat="46.541200935202816" lon="9.26958484545163"><ele>1515.0</ele><time>2026-04-11T08:17:54Z</time></trkpt><trkpt lat="46.541190760991725" lon="9.269927506132554"><ele>1514.0</ele><time>2026-04-11T08:17:55Z</time></trkpt><trkpt lat="46.54118299430274" lon="9.270264740452658"><ele>1513.0</ele><time>2026-04-11T08:17:56Z</time></trkpt><trkpt lat="46.54117392649782" lon="9.270602316656701"><ele>1511.5</ele><time>2026-04-11T08:17:57Z</time></trkpt><trkpt lat="46.54116824785834" lon="9.270944169722462"><ele>1510.0</ele><time>2026-04-11T08:17:58Z</time></trkpt><trkpt lat="46.541158904709576" lon="9.27129006387612"><ele>1510.5</ele><time>2026-04-11T08:17:59Z</time></trkpt><trkpt lat="46.5411516377529" lon="9.271638706032267"><ele>1511.0</ele><time>2026-04-11T08:18:00Z</time></trkpt><trkpt lat="46.54114761994924" lon="9.271987681361338"><ele>1511.0</ele><time>2026-04-11T08:18:01Z</time></trkpt><trkpt lat="46.54114925289827" lon="9.272344112158486"><ele>1511.0</ele><time>2026-04-11T08:18:02Z</time></trkpt><trkpt lat="46.54116472482288" lon="9.272698144152596"><ele>1511.0</ele><time>2026-04-11T08:18:03Z</time></trkpt><trkpt lat="46.54118802024935" lon="9.273051157759573"><ele>1511.0</ele><time>2026-04-11T08:18:04Z</time></trkpt><trkpt lat="46.541222615045086" lon="9.273400199551343"><ele>1510.0</ele><time>2026-04-11T08:18:05Z</time></trkpt><trkpt lat="46.541269102766144" lon="9.273749550168906"><ele>1509.0</ele><time>2026-04-11T08:18:06Z</time></trkpt><trkpt lat="46.54132474942442" lon="9.274100862134603"><ele>1509.0</ele><time>2026-04-11T08:18:07Z</time></trkpt><trkpt lat="46.54139538245341" lon="9.274449697436426"><ele>1509.0</ele><time>2026-04-11T08:18:08Z</time></trkpt><trkpt lat="46.54147453525682" lon="9.274801897310367"><ele>1507.5</ele><time>2026-04-11T08:18:09Z</time></trkpt><trkpt lat="46.54155996331968" lon="9.275149020695741"><ele>1506.0</ele><time>2026-04-11T08:18:10Z</time></trkpt><trkpt lat="46.54164422118726" lon="9.275493288816788"><ele>1505.5</ele><time>2026-04-11T08:18:11Z</time></trkpt><trkpt lat="46.541723795665256" lon="9.275837025207878"><ele>1505.0</ele><time>2026-04-11T08:18:12Z</time></trkpt><trkpt lat="46.54180109647336" lon="9.276181724201491"><ele>1506.0</ele><time>2026-04-11T08:18:13Z</time></trkpt><trkpt lat="46.541877936607406" lon="9.276524432003264"><ele>1507.0</ele><time>2026-04-11T08:18:14Z</time></trkpt><trkpt lat="46.54195419493052" lon="9.276859235144057"><ele>1507.0</ele><time>2026-04-11T08:18:15Z</time></trkpt><trkpt lat="46.54203072714402" lon="9.277188347473153"><ele>1507.0</ele><time>2026-04-11T08:18:16Z</time></trkpt><trkpt lat="46.542112693780595" lon="9.277515770010282"><ele>1507.0</ele><time>2026-04-11T08:18:17Z</time></trkpt><trkpt lat="46.542207136894014" lon="9.277838888605102"><ele>1507.0</ele><time>2026-04-11T08:18:18Z</time></trkpt><trkpt lat="46.542310146993415" lon="9.27814830049384"><ele>1507.0</ele><time>2026-04-11T08:18:19Z</time></trkpt><trkpt lat="46.54241836591466" lon="9.278444562277366"><ele>1507.0</ele><time>2026-04-11T08:18:20Z</time></trkpt><trkpt lat="46.54253153940335" lon="9.278726424805932"><ele>1506.5</ele><time>2026-04-11T08:18:21Z</time></trkpt><trkpt lat="46.54264898196514" lon="9.279010534823195"><ele>1506.0</ele><time>2026-04-11T08:18:22Z</time></trkpt><trkpt lat="46.54276717392446" lon="9.279299791086418"><ele>1507.5</ele><time>2026-04-11T08:18:23Z</time></trkpt><trkpt lat="46.54288333495187" lon="9.27959023477947"><ele>1509.0</ele><time>2026-04-11T08:18:24Z</time></trkpt><trkpt lat="46.54299804522472" lon="9.27988227550542"><ele>1509.0</ele><time>2026-04-11T08:18:25Z</time></trkpt><trkpt lat="46.54311452335824" lon="9.280173016964413"><ele>1509.0</ele><time>2026-04-11T08:18:26Z</time></trkpt><trkpt lat="46.54323092870412" lon="9.280461135397402"><ele>1505.5</ele><time>2026-04-11T08:18:27Z</time></trkpt><trkpt lat="46.54334919858057" lon="9.280747152862709"><ele>1502.0</ele><time>2026-04-11T08:18:28Z</time></trkpt><trkpt lat="46.543470126625294" lon="9.281032771758282"><ele>1502.0</ele><time>2026-04-11T08:18:29Z</time></trkpt><trkpt lat="46.54359773862293" lon="9.281309626096188"><ele>1502.0</ele><time>2026-04-11T08:18:30Z</time></trkpt><trkpt lat="46.54373284381289" lon="9.281581843553294"><ele>1506.0</ele><time>2026-04-11T08:18:31Z</time></trkpt><trkpt lat="46.54386516616513" lon="9.281855327406499"><ele>1510.0</ele><time>2026-04-11T08:18:32Z</time></trkpt><trkpt lat="46.54398660277998" lon="9.282141713085947"><ele>1508.5</ele><time>2026-04-11T08:18:33Z</time></trkpt><trkpt lat="46.544092654125784" lon="9.282439922537337"><ele>1507.0</ele><time>2026-04-11T08:18:34Z</time></trkpt><trkpt lat="46.54418607079639" lon="9.282746851799539"><ele>1507.0</ele><time>2026-04-11T08:18:35Z</time></trkpt><trkpt lat="46.54426652232054" lon="9.28306154123035"><ele>1507.0</ele><time>2026-04-11T08:18:36Z</time></trkpt><trkpt lat="46.54433758715594" lon="9.283378786822817"><ele>1506.0</ele><time>2026-04-11T08:18:37Z</time></trkpt><trkpt lat="46.5444090558867" lon="9.283698584181904"><ele>1505.0</ele><time>2026-04-11T08:18:38Z</time></trkpt><trkpt lat="46.54448243021522" lon="9.284015751453195"><ele>1509.5</ele><time>2026-04-11T08:18:39Z</time></trkpt><trkpt lat="46.544557208719766" lon="9.284330555086768"><ele>1514.0</ele><time>2026-04-11T08:18:40Z</time></trkpt><trkpt lat="46.544632005901924" lon="9.284647130022476"><ele>1510.0</ele><time>2026-04-11T08:18:41Z</time></trkpt><trkpt lat="46.54470750734648" lon="9.28496404700729"><ele>1506.0</ele><time>2026-04-11T08:18:42Z</time></trkpt><trkpt lat="46.54478074758318" lon="9.28528059793762"><ele>1502.5</ele><time>2026-04-11T08:18:43Z</time></trkpt><trkpt lat="46.5448528751729" lon="9.285599063779205"><ele>1499.0</ele><time>2026-04-11T08:18:44Z</time></trkpt><trkpt lat="46.544925104819" lon="9.285915008156389"><ele>1499.0</ele><time>2026-04-11T08:18:45Z</time></trkpt><trkpt lat="46.54499677555005" lon="9.286230094033193"><ele>1499.0</ele><time>2026-04-11T08:18:46Z</time></trkpt><trkpt lat="46.54506792162347" lon="9.28654607002059"><ele>1498.6666666666667</ele><time>2026-04-11T08:18:47Z</time></trkpt><trkpt lat="46.54513688318351" lon="9.28686184089919"><ele>1498.3333333333333</ele><time>2026-04-11T08:18:48Z</time></trkpt><trkpt lat="46.545196414417056" lon="9.287165956128433"><ele>1498.0</ele><time>2026-04-11T08:18:49Z</time></trkpt><trkpt lat="46.54524441027164" lon="9.287466593753381"><ele>1498.0</ele><time>2026-04-11T08:18:50Z</time></trkpt><trkpt lat="46.54527421506282" lon="9.28777369991267"><ele>1498.0</ele><time>2026-04-11T08:18:51Z</time></trkpt><trkpt lat="46.54528974700236" lon="9.288079676681463"><ele>1498.0</ele><time>2026-04-11T08:18:52Z</time></trkpt><trkpt lat="46.54528851282363" lon="9.28838997962195"><ele>1497.6666666666665</ele><time>2026-04-11T08:18:53Z</time></trkpt><trkpt lat="46.54527197276634" lon="9.288701547980635"><ele>1497.3333333333333</ele><time>2026-04-11T08:18:54Z</time></trkpt><trkpt lat="46.54523837980158" lon="9.28901274298668"><ele>1497.0</ele><time>2026-04-11T08:18:55Z</time></trkpt><trkpt lat="46.54518948654165" lon="9.289319609251795"><ele>1496.6666666666667</ele><time>2026-04-11T08:18:56Z</time></trkpt><trkpt lat="46.545130732411955" lon="9.289623402387665"><ele>1496.3333333333335</ele><time>2026-04-11T08:18:57Z</time></trkpt><trkpt lat="46.54506762866713" lon="9.289920169738885"><ele>1496.0</ele><time>2026-04-11T08:18:58Z</time></trkpt><trkpt lat="46.54500381578409" lon="9.290209690450313"><ele>1496.0</ele><time>2026-04-11T08:18:59Z</time></trkpt><trkpt lat="46.544937642895576" lon="9.290496533348827"><ele>1496.0</ele><time>2026-04-11T08:19:00Z</time></trkpt><trkpt lat="46.54486846317634" lon="9.290786409951256"><ele>1496.0</ele><time>2026-04-11T08:19:01Z</time></trkpt><trkpt lat="46.54480304859151" lon="9.291082300747625"><ele>1497.3333333333335</ele><time>2026-04-11T08:19:02Z</time></trkpt><trkpt lat="46.54474047221715" lon="9.291381294239892"><ele>1498.6666666666667</ele><time>2026-04-11T08:19:03Z</time></trkpt><trkpt lat="46.54467571029845" lon="9.291676684529746"><ele>1500.0</ele><time>2026-04-11T08:19:04Z</time></trkpt><trkpt lat="46.544611374892035" lon="9.291973588687167"><ele>1501.6666666666667</ele><time>2026-04-11T08:19:05Z</time></trkpt><trkpt lat="46.54454861507012" lon="9.29227059481892"><ele>1503.3333333333335</ele><time>2026-04-11T08:19:06Z</time></trkpt><trkpt lat="46.544491807324334" lon="9.292572072993721"><ele>1505.0</ele><time>2026-04-11T08:19:07Z</time></trkpt><trkpt lat="46.54444675281109" lon="9.292877925216485"><ele>1500.0</ele><time>2026-04-11T08:19:08Z</time></trkpt><trkpt lat="46.544416136425184" lon="9.293177201578422"><ele>1495.0</ele><time>2026-04-11T08:19:09Z</time></trkpt><trkpt lat="46.54439589570942" lon="9.293483458459031"><ele>1490.0</ele><time>2026-04-11T08:19:10Z</time></trkpt><trkpt lat="46.54438237730004" lon="9.293789446816472"><ele>1490.3333333333335</ele><time>2026-04-11T08:19:11Z</time></trkpt><trkpt lat="46.54437380932496" lon="9.294089591573107"><ele>1490.6666666666667</ele><time>2026-04-11T08:19:12Z</time></trkpt><trkpt lat="46.54436400187425" lon="9.294381574844"><ele>1491.0</ele><time>2026-04-11T08:19:13Z</time></trkpt><trkpt lat="46.54435190307273" lon="9.294675742111359"><ele>1492.0</ele><time>2026-04-11T08:19:14Z</time></trkpt><trkpt lat="46.5443419498457" lon="9.294968460266295"><ele>1493.0</ele><time>2026-04-11T08:19:15Z</time></trkpt><trkpt lat="46.544339832858455" lon="9.295263072642204"><ele>1494.0</ele><time>2026-04-11T08:19:16Z</time></trkpt><trkpt lat="46.54434537323314" lon="9.295562562402948"><ele>1494.0</ele><time>2026-04-11T08:19:17Z</time></trkpt><trkpt lat="46.544365754150064" lon="9.295858265457221"><ele>1494.0</ele><time>2026-04-11T08:19:18Z</time></trkpt><trkpt lat="46.54440093348504" lon="9.296152039654709"><ele>1494.0</ele><time>2026-04-11T08:19:19Z</time></trkpt><trkpt lat="46.54445300747366" lon="9.296434093858606"><ele>1493.3333333333333</ele><time>2026-04-11T08:19:20Z</time></trkpt><trkpt lat="46.5445276744077" lon="9.296707724415365"><ele>1492.6666666666665</ele><time>2026-04-11T08:19:21Z</time></trkpt><trkpt lat="46.544600466783415" lon="9.296989110106537"><ele>1492.0</ele><time>2026-04-11T08:19:22Z</time></trkpt><trkpt lat="46.544690169169506" lon="9.29725405749202"><ele>1494.0</ele><time>2026-04-11T08:19:23Z</time></trkpt><trkpt lat="46.54478961108424" lon="9.297510714809736"><ele>1496.0</ele><time>2026-04-11T08:19:24Z</time></trkpt><trkpt lat="46.544890628734414" lon="9.297761294895128"><ele>1498.0</ele><time>2026-04-11T08:19:25Z</time></trkpt><trkpt lat="46.544994957394096" lon="9.29800944939088"><ele>1496.0</ele><time>2026-04-11T08:19:26Z</time></trkpt><trkpt lat="46.54510057349407" lon="9.298265863399282"><ele>1494.0</ele><time>2026-04-11T08:19:27Z</time></trkpt><trkpt lat="46.545207114485635" lon="9.298526227053543"><ele>1492.0</ele><time>2026-04-11T08:19:28Z</time></trkpt><trkpt lat="46.545312865887006" lon="9.298789656097048"><ele>1495.3333333333333</ele><time>2026-04-11T08:19:29Z</time></trkpt><trkpt lat="46.545417534453" lon="9.299047397765074"><ele>1498.6666666666667</ele><time>2026-04-11T08:19:30Z</time></trkpt><trkpt lat="46.545518019126526" lon="9.29930170957348"><ele>1502.0</ele><time>2026-04-11T08:19:31Z</time></trkpt><trkpt lat="46.545618599945286" lon="9.299545548449952"><ele>1499.3333333333335</ele><time>2026-04-11T08:19:32Z</time></trkpt><trkpt lat="46.545718778587705" lon="9.29979120392111"><ele>1496.6666666666667</ele><time>2026-04-11T08:19:33Z</time></trkpt><trkpt lat="46.545818645071755" lon="9.300036744554463"><ele>1494.0</ele><time>2026-04-11T08:19:34Z</time></trkpt><trkpt lat="46.54592161936844" lon="9.300285471138377"><ele>1494.0</ele><time>2026-04-11T08:19:35Z</time></trkpt><trkpt lat="46.546026428744085" lon="9.300530694816315"><ele>1494.0</ele><time>2026-04-11T08:19:36Z</time></trkpt><trkpt lat="46.546128494805835" lon="9.300775566789296"><ele>1494.0</ele><time>2026-04-11T08:19:37Z</time></trkpt><trkpt lat="46.54622878632472" lon="9.301023645620326"><ele>1492.3333333333333</ele><time>2026-04-11T08:19:38Z</time></trkpt><trkpt lat="46.54633377879323" lon="9.301276647138907"><ele>1490.6666666666665</ele><time>2026-04-11T08:19:39Z</time></trkpt><trkpt lat="46.54643929551708" lon="9.301534324007028"><ele>1489.0</ele><time>2026-04-11T08:19:40Z</time></trkpt><trkpt lat="46.54654566290917" lon="9.301797584216159"><ele>1489.0</ele><time>2026-04-11T08:19:41Z</time></trkpt><trkpt lat="46.54665063623304" lon="9.30206054242387"><ele>1489.0</ele><time>2026-04-11T08:19:42Z</time></trkpt><trkpt lat="46.546744593877655" lon="9.30232028795045"><ele>1489.0</ele><time>2026-04-11T08:19:43Z</time></trkpt><trkpt lat="46.54683147346852" lon="9.302588397481841"><ele>1486.6666666666665</ele><time>2026-04-11T08:19:44Z</time></trkpt><trkpt lat="46.54690371272686" lon="9.302862760028924"><ele>1484.3333333333333</ele><time>2026-04-11T08:19:45Z</time></trkpt><trkpt lat="46.54696502146926" lon="9.303142323803023"><ele>1482.0</ele><time>2026-04-11T08:19:46Z</time></trkpt><trkpt lat="46.54701524079595" lon="9.303422652979455"><ele>1485.6666666666667</ele><time>2026-04-11T08:19:47Z</time></trkpt><trkpt lat="46.547055841641374" lon="9.30370699249452"><ele>1489.3333333333335</ele><time>2026-04-11T08:19:48Z</time></trkpt><trkpt lat="46.54708655008035" lon="9.303994339344976"><ele>1493.0</ele><time>2026-04-11T08:19:49Z</time></trkpt><trkpt lat="46.547108958019216" lon="9.304281183511568"><ele>1493.3333333333335</ele><time>2026-04-11T08:19:50Z</time></trkpt><trkpt lat="46.54712335670032" lon="9.304567885578106"><ele>1493.6666666666667</ele><time>2026-04-11T08:19:51Z</time></trkpt><trkpt lat="46.54713467273957" lon="9.304853425270412"><ele>1494.0</ele><time>2026-04-11T08:19:52Z</time></trkpt><trkpt lat="46.54713988466232" lon="9.305139988113256"><ele>1491.6666666666667</ele><time>2026-04-11T08:19:53Z</time></trkpt><trkpt lat="46.54714185869292" lon="9.305428036282802"><ele>1489.3333333333335</ele><time>2026-04-11T08:19:54Z</time></trkpt><trkpt lat="46.547142490930526" lon="9.305718390257871"><ele>1487.0</ele><time>2026-04-11T08:19:55Z</time></trkpt><trkpt lat="46.54714659286332" lon="9.306011448200966"><ele>1486.0</ele><time>2026-04-11T08:19:56Z</time></trkpt><trkpt lat="46.54714741218092" lon="9.306302653356608"><ele>1485.0</ele><time>2026-04-11T08:19:57Z</time></trkpt><trkpt lat="46.547147666912636" lon="9.3065911181332"><ele>1484.0</ele><time>2026-04-11T08:19:58Z</time></trkpt><trkpt lat="46.547145701282595" lon="9.306872084633692"><ele>1483.0</ele><time>2026-04-11T08:19:59Z</time></trkpt><trkpt lat="46.547145354971775" lon="9.307153597310577"><ele>1482.0</ele><time>2026-04-11T08:20:00Z</time></trkpt><trkpt lat="46.547142723184855" lon="9.307439030751897"><ele>1481.0</ele><time>2026-04-11T08:20:01Z</time></trkpt><trkpt lat="46.54713472383837" lon="9.30772597865277"><ele>1479.3333333333335</ele><time>2026-04-11T08:20:02Z</time></trkpt><trkpt lat="46.54712000992445" lon="9.308016185218213"><ele>1477.6666666666667</ele><time>2026-04-11T08:20:03Z</time></trkpt><trkpt lat="46.54709859412038" lon="9.30830853143769"><ele>1476.0</ele><time>2026-04-11T08:20:04Z</time></trkpt><trkpt lat="46.547067975771775" lon="9.308596328327821"><ele>1474.0</ele><time>2026-04-11T08:20:05Z</time></trkpt><trkpt lat="46.54703197476222" lon="9.308879880940616"><ele>1472.0</ele><time>2026-04-11T08:20:06Z</time></trkpt><trkpt lat="46.54699271011013" lon="9.309157780979444"><ele>1470.0</ele><time>2026-04-11T08:20:07Z</time></trkpt><trkpt lat="46.54695411911183" lon="9.30943544550102"><ele>1469.6666666666667</ele><time>2026-04-11T08:20:08Z</time></trkpt><trkpt lat="46.54691478992491" lon="9.309721907634954"><ele>1469.3333333333335</ele><time>2026-04-11T08:20:09Z</time></trkpt><trkpt lat="46.54687572985599" lon="9.310008992038789"><ele>1469.0</ele><time>2026-04-11T08:20:10Z</time></trkpt><trkpt lat="46.546836986985056" lon="9.310297685853914"><ele>1467.3333333333335</ele><time>2026-04-11T08:20:11Z</time></trkpt><trkpt lat="46.54680231936025" lon="9.31058996321662"><ele>1465.6666666666667</ele><time>2026-04-11T08:20:12Z</time></trkpt><trkpt lat="46.546774318800146" lon="9.31088559206788"><ele>1464.0</ele><time>2026-04-11T08:20:13Z</time></trkpt><trkpt lat="46.54675892608525" lon="9.311179999938366"><ele>1464.0</ele><time>2026-04-11T08:20:14Z</time></trkpt><trkpt lat="46.5467580367295" lon="9.311479326978711"><ele>1464.0</ele><time>2026-04-11T08:20:15Z</time></trkpt><trkpt lat="46.54677277432558" lon="9.31177302577394"><ele>1464.0</ele><time>2026-04-11T08:20:16Z</time></trkpt><trkpt lat="46.54680182624497" lon="9.312062375639504"><ele>1464.6666666666667</ele><time>2026-04-11T08:20:17Z</time></trkpt><trkpt lat="46.54684362423024" lon="9.312347017960613"><ele>1465.3333333333335</ele><time>2026-04-11T08:20:18Z</time></trkpt><trkpt lat="46.54689513086947" lon="9.312626461929156"><ele>1466.0</ele><time>2026-04-11T08:20:19Z</time></trkpt><trkpt lat="46.546963584189704" lon="9.31290297991659"><ele>1466.0</ele><time>2026-04-11T08:20:20Z</time></trkpt><trkpt lat="46.54704547664385" lon="9.313177116057082"><ele>1466.0</ele><time>2026-04-11T08:20:21Z</time></trkpt><trkpt lat="46.54714168262932" lon="9.313443435104784"><ele>1466.0</ele><time>2026-04-11T08:20:22Z</time></trkpt><trkpt lat="46.54725414633155" lon="9.313699333907897"><ele>1466.6666666666667</ele><time>2026-04-11T08:20:23Z</time></trkpt><trkpt lat="46.54737870110693" lon="9.313940016297268"><ele>1467.3333333333333</ele><time>2026-04-11T08:20:24Z</time></trkpt><trkpt lat="46.54750894285876" lon="9.314169552140836"><ele>1468.0</ele><time>2026-04-11T08:20:25Z</time></trkpt><trkpt lat="46.54763967572438" lon="9.314390949555555"><ele>1468.0</ele><time>2026-04-11T08:20:26Z</time></trkpt><trkpt lat="46.54777522103737" lon="9.314602543381719"><ele>1468.0</ele><time>2026-04-11T08:20:27Z</time></trkpt><trkpt lat="46.54791438103599" lon="9.314816333005943"><ele>1468.0</ele><time>2026-04-11T08:20:28Z</time></trkpt><trkpt lat="46.54805372966621" lon="9.315035568201624"><ele>1466.3333333333333</ele><time>2026-04-11T08:20:29Z</time></trkpt><trkpt lat="46.54819349753392" lon="9.315256620885474"><ele>1464.6666666666667</ele><time>2026-04-11T08:20:30Z</time></trkpt><trkpt lat="46.548332598587656" lon="9.315474577211736"><ele>1463.0</ele><time>2026-04-11T08:20:31Z</time></trkpt><trkpt lat="46.54847051394525" lon="9.31568949347952"><ele>1462.6666666666667</ele><time>2026-04-11T08:20:32Z</time></trkpt><trkpt lat="46.54860648878084" lon="9.315901787630413"><ele>1462.3333333333333</ele><time>2026-04-11T08:20:33Z</time></trkpt><trkpt lat="46.548742832585326" lon="9.316114439157253"><ele>1462.0</ele><time>2026-04-11T08:20:34Z</time></trkpt><trkpt lat="46.548876420408895" lon="9.316329950365018"><ele>1462.6666666666665</ele><time>2026-04-11T08:20:35Z</time></trkpt><trkpt lat="46.549007042007766" lon="9.316545449501136"><ele>1463.3333333333333</ele><time>2026-04-11T08:20:36Z</time></trkpt><trkpt lat="46.549136028313384" lon="9.316758726828613"><ele>1464.0</ele><time>2026-04-11T08:20:37Z</time></trkpt><trkpt lat="46.54926433248079" lon="9.31697888009918"><ele>1464.0</ele><time>2026-04-11T08:20:38Z</time></trkpt><trkpt lat="46.54939280159556" lon="9.317208748593739"><ele>1464.0</ele><time>2026-04-11T08:20:39Z</time></trkpt><trkpt lat="46.5495174600258" lon="9.317438494881179"><ele>1464.0</ele><time>2026-04-11T08:20:40Z</time></trkpt><trkpt lat="46.549639890647995" lon="9.317665925274312"><ele>1463.0</ele><time>2026-04-11T08:20:41Z</time></trkpt><trkpt lat="46.54976071842351" lon="9.31789474108352"><ele>1462.0</ele><time>2026-04-11T08:20:42Z</time></trkpt><trkpt lat="46.549878681857415" lon="9.31813159350064"><ele>1461.0</ele><time>2026-04-11T08:20:43Z</time></trkpt><trkpt lat="46.549989880039064" lon="9.318373117331557"><ele>1461.0</ele><time>2026-04-11T08:20:44Z</time></trkpt><trkpt lat="46.55009127030769" lon="9.31860808358955"><ele>1461.0</ele><time>2026-04-11T08:20:45Z</time></trkpt><trkpt lat="46.5501893442585" lon="9.318838600217045"><ele>1461.0</ele><time>2026-04-11T08:20:46Z</time></trkpt><trkpt lat="46.55028524680786" lon="9.319075114132206"><ele>1461.0</ele><time>2026-04-11T08:20:47Z</time></trkpt><trkpt lat="46.55037979217161" lon="9.319317819896611"><ele>1461.0</ele><time>2026-04-11T08:20:48Z</time></trkpt><trkpt lat="46.55047427985075" lon="9.319562476579714"><ele>1461.0</ele><time>2026-04-11T08:20:49Z</time></trkpt><trkpt lat="46.55056242768658" lon="9.319816296801738"><ele>1461.0</ele><time>2026-04-11T08:20:50Z</time></trkpt><trkpt lat="46.55064731350177" lon="9.320075745945793"><ele>1461.0</ele><time>2026-04-11T08:20:51Z</time></trkpt><trkpt lat="46.550727876239286" lon="9.32033575434891"><ele>1461.0</ele><time>2026-04-11T08:20:52Z</time></trkpt><trkpt lat="46.55080985340724" lon="9.320596325445061"><ele>1461.3333333333333</ele><time>2026-04-11T08:20:53Z</time></trkpt><trkpt lat="46.55088523600368" lon="9.320866149494272"><ele>1461.6666666666665</ele><time>2026-04-11T08:20:54Z</time></trkpt><trkpt lat="46.55095800726527" lon="9.321140532507563"><ele>1462.0</ele><time>2026-04-11T08:20:55Z</time></trkpt><trkpt lat="46.55103193617497" lon="9.32142009925143"><ele>1462.0</ele><time>2026-04-11T08:20:56Z</time></trkpt><trkpt lat="46.551103484372426" lon="9.321695370399565"><ele>1462.0</ele><time>2026-04-11T08:20:57Z</time></trkpt><trkpt lat="46.55117282430281" lon="9.321964589313492"><ele>1462.0</ele><time>2026-04-11T08:20:58Z</time></trkpt><trkpt lat="46.5512422517687" lon="9.322239649442677"><ele>1462.0</ele><time>2026-04-11T08:20:59Z</time></trkpt><trkpt lat="46.551309009402765" lon="9.322512996005166"><ele>1462.0</ele><time>2026-04-11T08:21:00Z</time></trkpt><trkpt lat="46.55137077916604" lon="9.322771285494612"><ele>1462.0</ele><time>2026-04-11T08:21:01Z</time></trkpt><trkpt lat="46.55143373662319" lon="9.323028967328291"><ele>1462.3333333333333</ele><time>2026-04-11T08:21:02Z</time></trkpt><trkpt lat="46.55149771678638" lon="9.323291674954957"><ele>1462.6666666666667</ele><time>2026-04-11T08:21:03Z</time></trkpt><trkpt lat="46.55156285978485" lon="9.323554432204324"><ele>1463.0</ele><time>2026-04-11T08:21:04Z</time></trkpt><trkpt lat="46.551627660082524" lon="9.32381035768711"><ele>1463.3333333333335</ele><time>2026-04-11T08:21:05Z</time></trkpt><trkpt lat="46.55169223840498" lon="9.324073131127507"><ele>1463.6666666666667</ele><time>2026-04-11T08:21:06Z</time></trkpt><trkpt lat="46.551755136370936" lon="9.324330525421392"><ele>1464.0</ele><time>2026-04-11T08:21:07Z</time></trkpt><trkpt lat="46.551822150986126" lon="9.324594676091781"><ele>1463.0</ele><time>2026-04-11T08:21:08Z</time></trkpt><trkpt lat="46.55188900899335" lon="9.324863760496461"><ele>1462.0</ele><time>2026-04-11T08:21:09Z</time></trkpt><trkpt lat="46.5519559265054" lon="9.325132487257655"><ele>1461.0</ele><time>2026-04-11T08:21:10Z</time></trkpt><trkpt lat="46.55202221925097" lon="9.325404415106046"><ele>1458.0</ele><time>2026-04-11T08:21:11Z</time></trkpt><trkpt lat="46.55208875030928" lon="9.32567473789406"><ele>1455.0</ele><time>2026-04-11T08:21:12Z</time></trkpt><trkpt lat="46.55215571642754" lon="9.325942264392635"><ele>1452.0</ele><time>2026-04-11T08:21:13Z</time></trkpt><trkpt lat="46.552223449964444" lon="9.32621541498622"><ele>1452.3333333333333</ele><time>2026-04-11T08:21:14Z</time></trkpt><trkpt lat="46.552295703067095" lon="9.326487851136992"><ele>1452.6666666666665</ele><time>2026-04-11T08:21:15Z</time></trkpt><trkpt lat="46.552371732206794" lon="9.32674794185548"><ele>1453.0</ele><time>2026-04-11T08:21:16Z</time></trkpt><trkpt lat="46.55246651980464" lon="9.326989462240313"><ele>1453.0</ele><time>2026-04-11T08:21:17Z</time></trkpt><trkpt lat="46.55257192878753" lon="9.327222846449942"><ele>1453.0</ele><time>2026-04-11T08:21:18Z</time></trkpt><trkpt lat="46.55268689543567" lon="9.327447135554934"><ele>1453.0</ele><time>2026-04-11T08:21:19Z</time></trkpt><trkpt lat="46.55281326918526" lon="9.3276633423659"><ele>1452.3333333333333</ele><time>2026-04-11T08:21:20Z</time></trkpt><trkpt lat="46.55294693450365" lon="9.327868490058814"><ele>1451.6666666666667</ele><time>2026-04-11T08:21:21Z</time></trkpt><trkpt lat="46.553094343806464" lon="9.328061241929591"><ele>1451.0</ele><time>2026-04-11T08:21:22Z</time></trkpt><trkpt lat="46.55324952142768" lon="9.328242581296983"><ele>1451.0</ele><time>2026-04-11T08:21:23Z</time></trkpt><trkpt lat="46.5534111283799" lon="9.32841363090487"><ele>1451.0</ele><time>2026-04-11T08:21:24Z</time></trkpt><trkpt lat="46.55357221682711" lon="9.328584181393046"><ele>1451.0</ele><time>2026-04-11T08:21:25Z</time></trkpt><trkpt lat="46.55372720016448" lon="9.328750350446668"><ele>1450.3333333333335</ele><time>2026-04-11T08:21:26Z</time></trkpt><trkpt lat="46.55388037975076" lon="9.328919299752696"><ele>1449.6666666666667</ele><time>2026-04-11T08:21:27Z</time></trkpt><trkpt lat="46.55403371753574" lon="9.329087440543802"><ele>1449.0</ele><time>2026-04-11T08:21:28Z</time></trkpt><trkpt lat="46.55418618022855" lon="9.3292641178132"><ele>1449.0</ele><time>2026-04-11T08:21:29Z</time></trkpt><trkpt lat="46.554332853237" lon="9.3294618823023"><ele>1449.0</ele><time>2026-04-11T08:21:30Z</time></trkpt><trkpt lat="46.55446684942594" lon="9.329675072377533"><ele>1449.0</ele><time>2026-04-11T08:21:31Z</time></trkpt><trkpt lat="46.55459578795348" lon="9.329898932472986"><ele>1449.0</ele><time>2026-04-11T08:21:32Z</time></trkpt><trkpt lat="46.55471310724656" lon="9.330138120278477"><ele>1449.0</ele><time>2026-04-11T08:21:33Z</time></trkpt><trkpt lat="46.55482209158709" lon="9.330377670525737"><ele>1449.0</ele><time>2026-04-11T08:21:34Z</time></trkpt><trkpt lat="46.55492885241607" lon="9.330648556456714"><ele>1449.0</ele><time>2026-04-11T08:21:35Z</time></trkpt><trkpt lat="46.555007642762966" lon="9.330920517144985"><ele>1449.0</ele><time>2026-04-11T08:21:36Z</time></trkpt><trkpt lat="46.55507338172188" lon="9.331199686363478"><ele>1449.0</ele><time>2026-04-11T08:21:37Z</time></trkpt><trkpt lat="46.55514066551033" lon="9.331481376682424"><ele>1449.3333333333333</ele><time>2026-04-11T08:21:38Z</time></trkpt><trkpt lat="46.55520323471442" lon="9.33175908094219"><ele>1449.6666666666665</ele><time>2026-04-11T08:21:39Z</time></trkpt><trkpt lat="46.5552686116366" lon="9.332035705610465"><ele>1450.0</ele><time>2026-04-11T08:21:40Z</time></trkpt><trkpt lat="46.55533524551735" lon="9.332315556332695"><ele>1456.0</ele><time>2026-04-11T08:21:41Z</time></trkpt><trkpt lat="46.55539741173539" lon="9.332586119754538"><ele>1462.0</ele><time>2026-04-11T08:21:42Z</time></trkpt><trkpt lat="46.555464813550685" lon="9.332853305174094"><ele>1468.0</ele><time>2026-04-11T08:21:43Z</time></trkpt><trkpt lat="46.55552719387977" lon="9.333124332803289"><ele>1468.0</ele><time>2026-04-11T08:21:44Z</time></trkpt><trkpt lat="46.55558722691413" lon="9.33339968360369"><ele>1468.0</ele><time>2026-04-11T08:21:45Z</time></trkpt><trkpt lat="46.55564107773912" lon="9.333672358819022"><ele>1468.0</ele><time>2026-04-11T08:21:46Z</time></trkpt><trkpt lat="46.55569564242751" lon="9.333941858680166"><ele>1467.6666666666665</ele><time>2026-04-11T08:21:47Z</time></trkpt><trkpt lat="46.555744700386974" lon="9.334213299691951"><ele>1467.3333333333333</ele><time>2026-04-11T08:21:48Z</time></trkpt><trkpt lat="46.5558043293861" lon="9.334481737962696"><ele>1467.0</ele><time>2026-04-11T08:21:49Z</time></trkpt><trkpt lat="46.555859978544966" lon="9.334747944739249"><ele>1466.3333333333333</ele><time>2026-04-11T08:21:50Z</time></trkpt><trkpt lat="46.55591806702234" lon="9.335018867547733"><ele>1465.6666666666665</ele><time>2026-04-11T08:21:51Z</time></trkpt><trkpt lat="46.55597394950166" lon="9.335291737896446"><ele>1465.0</ele><time>2026-04-11T08:21:52Z</time></trkpt><trkpt lat="46.55603537535313" lon="9.335560409691363"><ele>1465.0</ele><time>2026-04-11T08:21:53Z</time></trkpt><trkpt lat="46.556101306175535" lon="9.335834772303338"><ele>1465.0</ele><time>2026-04-11T08:21:54Z</time></trkpt><trkpt lat="46.55617181344371" lon="9.336109389102852"><ele>1465.0</ele><time>2026-04-11T08:21:55Z</time></trkpt><trkpt lat="46.55625010747064" lon="9.336367641104571"><ele>1470.3333333333333</ele><time>2026-04-11T08:21:56Z</time></trkpt><trkpt lat="46.55634810156273" lon="9.336612860117596"><ele>1475.6666666666667</ele><time>2026-04-11T08:21:57Z</time></trkpt><trkpt lat="46.556446412480945" lon="9.336860185672021"><ele>1481.0</ele><time>2026-04-11T08:21:58Z</time></trkpt><trkpt lat="46.55655291820735" lon="9.337105044216433"><ele>1477.0</ele><time>2026-04-11T08:21:59Z</time></trkpt><trkpt lat="46.55666508011626" lon="9.337338444375524"><ele>1473.0</ele><time>2026-04-11T08:22:00Z</time></trkpt><trkpt lat="46.556782410106436" lon="9.337561824651956"><ele>1469.0</ele><time>2026-04-11T08:22:01Z</time></trkpt><trkpt lat="46.55690128811782" lon="9.337781975604935"><ele>1469.0</ele><time>2026-04-11T08:22:02Z</time></trkpt><trkpt lat="46.55701751894764" lon="9.338003022527"><ele>1469.0</ele><time>2026-04-11T08:22:03Z</time></trkpt><trkpt lat="46.5571363405657" lon="9.338227456337973"><ele>1469.0</ele><time>2026-04-11T08:22:04Z</time></trkpt><trkpt lat="46.55725885130858" lon="9.338454492756089"><ele>1467.0</ele><time>2026-04-11T08:22:05Z</time></trkpt><trkpt lat="46.55738542584801" lon="9.338686625494947"><ele>1465.0</ele><time>2026-04-11T08:22:06Z</time></trkpt><trkpt lat="46.55750806896721" lon="9.338916854380761"><ele>1463.0</ele><time>2026-04-11T08:22:07Z</time></trkpt><trkpt lat="46.55763355228491" lon="9.339155974872147"><ele>1460.6666666666667</ele><time>2026-04-11T08:22:08Z</time></trkpt><trkpt lat="46.557763741468" lon="9.339393089112654"><ele>1458.3333333333333</ele><time>2026-04-11T08:22:09Z</time></trkpt><trkpt lat="46.55789401454801" lon="9.339631470539812"><ele>1456.0</ele><time>2026-04-11T08:22:10Z</time></trkpt><trkpt lat="46.558017252804994" lon="9.339865886653635"><ele>1456.0</ele><time>2026-04-11T08:22:11Z</time></trkpt><trkpt lat="46.55813695539579" lon="9.340100871733448"><ele>1456.0</ele><time>2026-04-11T08:22:12Z</time></trkpt><trkpt lat="46.558247140678084" lon="9.34032735856063"><ele>1456.0</ele><time>2026-04-11T08:22:13Z</time></trkpt><trkpt lat="46.55834993056805" lon="9.340564402372376"><ele>1456.3333333333333</ele><time>2026-04-11T08:22:14Z</time></trkpt><trkpt lat="46.55844751268887" lon="9.34079399596299"><ele>1456.6666666666667</ele><time>2026-04-11T08:22:15Z</time></trkpt><trkpt lat="46.558552299470726" lon="9.341022763484677"><ele>1457.0</ele><time>2026-04-11T08:22:16Z</time></trkpt><trkpt lat="46.55868218678872" lon="9.341236978732741"><ele>1453.3333333333335</ele><time>2026-04-11T08:22:17Z</time></trkpt><trkpt lat="46.55883247694673" lon="9.341437426104807"><ele>1449.6666666666667</ele><time>2026-04-11T08:22:18Z</time></trkpt><trkpt lat="46.55899572324239" lon="9.341625661346784"><ele>1446.0</ele><time>2026-04-11T08:22:19Z</time></trkpt><trkpt lat="46.55916049131639" lon="9.341791543420458"><ele>1446.0</ele><time>2026-04-11T08:22:20Z</time></trkpt><trkpt lat="46.55932151600418" lon="9.341940674213543"><ele>1446.0</ele><time>2026-04-11T08:22:21Z</time></trkpt><trkpt lat="46.559455825238174" lon="9.342121266008943"><ele>1446.0</ele><time>2026-04-11T08:22:22Z</time></trkpt><trkpt lat="46.559578915174114" lon="9.342305758040842"><ele>1448.0</ele><time>2026-04-11T08:22:23Z</time></trkpt><trkpt lat="46.55968496168498" lon="9.342523462513366"><ele>1450.0</ele><time>2026-04-11T08:22:24Z</time></trkpt><trkpt lat="46.55977123106653" lon="9.342766680017007"><ele>1452.0</ele><time>2026-04-11T08:22:25Z</time></trkpt><trkpt lat="46.55985253383363" lon="9.343029888350078"><ele>1453.3333333333333</ele><time>2026-04-11T08:22:26Z</time></trkpt><trkpt lat="46.559897365814564" lon="9.343312821046986"><ele>1454.6666666666665</ele><time>2026-04-11T08:22:27Z</time></trkpt><trkpt lat="46.559933785857716" lon="9.343596085653159"><ele>1456.0</ele><time>2026-04-11T08:22:28Z</time></trkpt><trkpt lat="46.55996752963553" lon="9.343864059491438"><ele>1456.6666666666665</ele><time>2026-04-11T08:22:29Z</time></trkpt><trkpt lat="46.56000466094877" lon="9.344124258276054"><ele>1457.3333333333333</ele><time>2026-04-11T08:22:30Z</time></trkpt><trkpt lat="46.56004384178397" lon="9.344380851019263"><ele>1458.0</ele><time>2026-04-11T08:22:31Z</time></trkpt><trkpt lat="46.56009168104381" lon="9.344630814857535"><ele>1457.6666666666667</ele><time>2026-04-11T08:22:32Z</time></trkpt><trkpt lat="46.560141431979474" lon="9.344875126680114"><ele>1457.3333333333335</ele><time>2026-04-11T08:22:33Z</time></trkpt><trkpt lat="46.56019420839805" lon="9.345117032826131"><ele>1457.0</ele><time>2026-04-11T08:22:34Z</time></trkpt><trkpt lat="46.56024363451135" lon="9.34535030424788"><ele>1459.3333333333335</ele><time>2026-04-11T08:22:35Z</time></trkpt><trkpt lat="46.56029446052007" lon="9.34557029743331"><ele>1461.6666666666667</ele><time>2026-04-11T08:22:36Z</time></trkpt><trkpt lat="46.56035151137868" lon="9.345779544706613"><ele>1464.0</ele><time>2026-04-11T08:22:37Z</time></trkpt><trkpt lat="46.56039974866837" lon="9.345990328966197"><ele>1464.0</ele><time>2026-04-11T08:22:38Z</time></trkpt><trkpt lat="46.560451897635595" lon="9.346215162710447"><ele>1464.0</ele><time>2026-04-11T08:22:39Z</time></trkpt><trkpt lat="46.56050923323729" lon="9.346436409727286"><ele>1464.0</ele><time>2026-04-11T08:22:40Z</time></trkpt><trkpt lat="46.560547817700886" lon="9.346663041377965"><ele>1462.0</ele><time>2026-04-11T08:22:41Z</time></trkpt><trkpt lat="46.560600090094525" lon="9.346877512986945"><ele>1460.0</ele><time>2026-04-11T08:22:42Z</time></trkpt><trkpt lat="46.56066480222408" lon="9.34710381007197"><ele>1458.0</ele><time>2026-04-11T08:22:43Z</time></trkpt><trkpt lat="46.560721518171746" lon="9.347320808793501"><ele>1458.0</ele><time>2026-04-11T08:22:44Z</time></trkpt><trkpt lat="46.560778396220684" lon="9.347541587100944"><ele>1458.0</ele><time>2026-04-11T08:22:45Z</time></trkpt><trkpt lat="46.560835914324905" lon="9.347755910894715"><ele>1458.0</ele><time>2026-04-11T08:22:46Z</time></trkpt><trkpt lat="46.5609052615966" lon="9.347956455177302"><ele>1460.0</ele><time>2026-04-11T08:22:47Z</time></trkpt><trkpt lat="46.56099019609171" lon="9.348164119855266"><ele>1462.0</ele><time>2026-04-11T08:22:48Z</time></trkpt><trkpt lat="46.56109024204842" lon="9.34835406405428"><ele>1464.0</ele><time>2026-04-11T08:22:49Z</time></trkpt><trkpt lat="46.5612133771491" lon="9.34851662426441"><ele>1459.0</ele><time>2026-04-11T08:22:50Z</time></trkpt><trkpt lat="46.561357642294304" lon="9.348645438924533"><ele>1454.0</ele><time>2026-04-11T08:22:51Z</time></trkpt><trkpt lat="46.56151773416795" lon="9.348731637667461"><ele>1449.0</ele><time>2026-04-11T08:22:52Z</time></trkpt><trkpt lat="46.56168227804424" lon="9.348792287297826"><ele>1449.0</ele><time>2026-04-11T08:22:53Z</time></trkpt><trkpt lat="46.5618475937422" lon="9.348828842655564"><ele>1449.0</ele><time>2026-04-11T08:22:54Z</time></trkpt><trkpt lat="46.562014271459255" lon="9.348840309911052"><ele>1449.0</ele><time>2026-04-11T08:22:55Z</time></trkpt><trkpt lat="46.56218305573097" lon="9.34885571379247"><ele>1444.6666666666667</ele><time>2026-04-11T08:22:56Z</time></trkpt><trkpt lat="46.56234271501708" lon="9.348905137947506"><ele>1440.3333333333335</ele><time>2026-04-11T08:22:57Z</time></trkpt><trkpt lat="46.5625095819402" lon="9.348934022814625"><ele>1436.0</ele><time>2026-04-11T08:22:58Z</time></trkpt><trkpt lat="46.56266939835257" lon="9.348963442914807"><ele>1436.0</ele><time>2026-04-11T08:22:59Z</time></trkpt><trkpt lat="46.562831583427915" lon="9.349006243441597"><ele>1436.0</ele><time>2026-04-11T08:23:00Z</time></trkpt><trkpt lat="46.562989559218" lon="9.34907736383045"><ele>1436.0</ele><time>2026-04-11T08:23:01Z</time></trkpt><trkpt lat="46.56314888034961" lon="9.349194023128193"><ele>1436.0</ele><time>2026-04-11T08:23:02Z</time></trkpt><trkpt lat="46.563297601659116" lon="9.349348237652643"><ele>1436.0</ele><time>2026-04-11T08:23:03Z</time></trkpt><trkpt lat="46.56342675654597" lon="9.34954650427859"><ele>1436.0</ele><time>2026-04-11T08:23:04Z</time></trkpt><trkpt lat="46.563546695999634" lon="9.349776919268333"><ele>1436.0</ele><time>2026-04-11T08:23:05Z</time></trkpt><trkpt lat="46.56363232967956" lon="9.350031328211276"><ele>1436.0</ele><time>2026-04-11T08:23:06Z</time></trkpt><trkpt lat="46.56370909225871" lon="9.350280916727984"><ele>1436.0</ele><time>2026-04-11T08:23:07Z</time></trkpt><trkpt lat="46.56378723985396" lon="9.3505292808046"><ele>1439.0</ele><time>2026-04-11T08:23:08Z</time></trkpt><trkpt lat="46.56387347300798" lon="9.350780567813366"><ele>1442.0</ele><time>2026-04-11T08:23:09Z</time></trkpt><trkpt lat="46.563960996067905" lon="9.35103060052714"><ele>1445.0</ele><time>2026-04-11T08:23:10Z</time></trkpt><trkpt lat="46.564051371221005" lon="9.351283528407139"><ele>1440.3333333333335</ele><time>2026-04-11T08:23:11Z</time></trkpt><trkpt lat="46.56414123296983" lon="9.35154207618506"><ele>1435.6666666666667</ele><time>2026-04-11T08:23:12Z</time></trkpt><trkpt lat="46.56423800029866" lon="9.351804164552462"><ele>1431.0</ele><time>2026-04-11T08:23:13Z</time></trkpt><trkpt lat="46.564349251277044" lon="9.352057321478119"><ele>1431.6666666666667</ele><time>2026-04-11T08:23:14Z</time></trkpt><trkpt lat="46.564467443481405" lon="9.352308271118693"><ele>1432.3333333333335</ele><time>2026-04-11T08:23:15Z</time></trkpt><trkpt lat="46.5645889500118" lon="9.352553200623372"><ele>1433.0</ele><time>2026-04-11T08:23:16Z</time></trkpt><trkpt lat="46.56470716747252" lon="9.352796615191986"><ele>1433.0</ele><time>2026-04-11T08:23:17Z</time></trkpt><trkpt lat="46.564825504906864" lon="9.353034960412431"><ele>1433.0</ele><time>2026-04-11T08:23:18Z</time></trkpt><trkpt lat="46.56494627281432" lon="9.353273284371406"><ele>1433.0</ele><time>2026-04-11T08:23:19Z</time></trkpt><trkpt lat="46.565060014164" lon="9.353522653772915"><ele>1429.0</ele><time>2026-04-11T08:23:20Z</time></trkpt><trkpt lat="46.56516412804904" lon="9.353782235330863"><ele>1425.0</ele><time>2026-04-11T08:23:21Z</time></trkpt><trkpt lat="46.56525660612029" lon="9.354049850601086"><ele>1421.0</ele><time>2026-04-11T08:23:22Z</time></trkpt><trkpt lat="46.56533497694247" lon="9.354313904725226"><ele>1420.3333333333335</ele><time>2026-04-11T08:23:23Z</time></trkpt><trkpt lat="46.56541433683724" lon="9.354591773332345"><ele>1419.6666666666667</ele><time>2026-04-11T08:23:24Z</time></trkpt><trkpt lat="46.56548364509898" lon="9.35488301285362"><ele>1419.0</ele><time>2026-04-11T08:23:25Z</time></trkpt><trkpt lat="46.56553926387084" lon="9.355176791537257"><ele>1419.0</ele><time>2026-04-11T08:23:26Z</time></trkpt><trkpt lat="46.56558488836888" lon="9.355462992514363"><ele>1419.0</ele><time>2026-04-11T08:23:27Z</time></trkpt><trkpt lat="46.56562161863407" lon="9.355745086672565"><ele>1419.0</ele><time>2026-04-11T08:23:28Z</time></trkpt><trkpt lat="46.5656512431681" lon="9.356037967670042"><ele>1416.6666666666667</ele><time>2026-04-11T08:23:29Z</time></trkpt><trkpt lat="46.565676615602364" lon="9.356335913113819"><ele>1414.3333333333335</ele><time>2026-04-11T08:23:30Z</time></trkpt><trkpt lat="46.5656973878081" lon="9.356632493555143"><ele>1412.0</ele><time>2026-04-11T08:23:31Z</time></trkpt><trkpt lat="46.565715737586906" lon="9.356917117327153"><ele>1411.6666666666667</ele><time>2026-04-11T08:23:32Z</time></trkpt><trkpt lat="46.5657430923388" lon="9.357188059932346"><ele>1411.3333333333333</ele><time>2026-04-11T08:23:33Z</time></trkpt><trkpt lat="46.565779775876045" lon="9.357457347433837"><ele>1411.0</ele><time>2026-04-11T08:23:34Z</time></trkpt><trkpt lat="46.565820345647595" lon="9.357734021343557"><ele>1410.0</ele><time>2026-04-11T08:23:35Z</time></trkpt><trkpt lat="46.56587657188446" lon="9.358010830264488"><ele>1409.0</ele><time>2026-04-11T08:23:36Z</time></trkpt><trkpt lat="46.56594304557455" lon="9.358282250638522"><ele>1408.0</ele><time>2026-04-11T08:23:37Z</time></trkpt><trkpt lat="46.56601873870928" lon="9.358552522126908"><ele>1407.3333333333333</ele><time>2026-04-11T08:23:38Z</time></trkpt><trkpt lat="46.566104780636955" lon="9.358823967486954"><ele>1406.6666666666667</ele><time>2026-04-11T08:23:39Z</time></trkpt><trkpt lat="46.56620303547262" lon="9.359090365256616"><ele>1406.0</ele><time>2026-04-11T08:23:40Z</time></trkpt><trkpt lat="46.56631260694608" lon="9.359343438083181"><ele>1405.3333333333335</ele><time>2026-04-11T08:23:41Z</time></trkpt><trkpt lat="46.56642635133549" lon="9.359590799603485"><ele>1404.6666666666667</ele><time>2026-04-11T08:23:42Z</time></trkpt><trkpt lat="46.566538882101284" lon="9.359831854905634"><ele>1404.0</ele><time>2026-04-11T08:23:43Z</time></trkpt><trkpt lat="46.56665199955825" lon="9.360074878472435"><ele>1404.0</ele><time>2026-04-11T08:23:44Z</time></trkpt><trkpt lat="46.566760849880694" lon="9.360322531417358"><ele>1404.0</ele><time>2026-04-11T08:23:45Z</time></trkpt><trkpt lat="46.56686001364636" lon="9.360579051874346"><ele>1404.0</ele><time>2026-04-11T08:23:46Z</time></trkpt><trkpt lat="46.566948527033816" lon="9.360843463122224"><ele>1403.0</ele><time>2026-04-11T08:23:47Z</time></trkpt><trkpt lat="46.56702526709458" lon="9.361115715721864"><ele>1402.0</ele><time>2026-04-11T08:23:48Z</time></trkpt><trkpt lat="46.567094253520565" lon="9.361396237226144"><ele>1401.0</ele><time>2026-04-11T08:23:49Z</time></trkpt><trkpt lat="46.567155984729574" lon="9.36168069181836"><ele>1402.0</ele><time>2026-04-11T08:23:50Z</time></trkpt><trkpt lat="46.567206851511166" lon="9.361967431471193"><ele>1403.0</ele><time>2026-04-11T08:23:51Z</time></trkpt><trkpt lat="46.567246363885005" lon="9.362243348444458"><ele>1404.0</ele><time>2026-04-11T08:23:52Z</time></trkpt><trkpt lat="46.56728478954229" lon="9.3625196534703"><ele>1404.0</ele><time>2026-04-11T08:23:53Z</time></trkpt><trkpt lat="46.567321983598426" lon="9.362789458067038"><ele>1404.0</ele><time>2026-04-11T08:23:54Z</time></trkpt><trkpt lat="46.56735913245024" lon="9.363052720498768"><ele>1404.0</ele><time>2026-04-11T08:23:55Z</time></trkpt><trkpt lat="46.56739889071037" lon="9.363326355385137"><ele>1402.3333333333333</ele><time>2026-04-11T08:23:56Z</time></trkpt><trkpt lat="46.56743884895706" lon="9.36360302266012"><ele>1400.6666666666665</ele><time>2026-04-11T08:23:57Z</time></trkpt><trkpt lat="46.56748008407698" lon="9.363886649154844"><ele>1399.0</ele><time>2026-04-11T08:23:58Z</time></trkpt><trkpt lat="46.56751911995009" lon="9.364174082196172"><ele>1399.0</ele><time>2026-04-11T08:23:59Z</time></trkpt><trkpt lat="46.567559715414106" lon="9.364465956436476"><ele>1399.0</ele><time>2026-04-11T08:24:00Z</time></trkpt><trkpt lat="46.567600191478355" lon="9.364756382436"><ele>1399.0</ele><time>2026-04-11T08:24:01Z</time></trkpt><trkpt lat="46.567642009180254" lon="9.365038565647081"><ele>1399.6666666666665</ele><time>2026-04-11T08:24:02Z</time></trkpt><trkpt lat="46.56768582870879" lon="9.365310454117653"><ele>1400.3333333333333</ele><time>2026-04-11T08:24:03Z</time></trkpt><trkpt lat="46.567734106102236" lon="9.365584565678892"><ele>1401.0</ele><time>2026-04-11T08:24:04Z</time></trkpt><trkpt lat="46.567800026824386" lon="9.36586111287981"><ele>1403.0</ele><time>2026-04-11T08:24:05Z</time></trkpt><trkpt lat="46.56788237117817" lon="9.366139716823993"><ele>1405.0</ele><time>2026-04-11T08:24:06Z</time></trkpt><trkpt lat="46.5679750396712" lon="9.366405707970609"><ele>1407.0</ele><time>2026-04-11T08:24:07Z</time></trkpt><trkpt lat="46.568082306496294" lon="9.366665847532506"><ele>1407.0</ele><time>2026-04-11T08:24:08Z</time></trkpt><trkpt lat="46.56819693054245" lon="9.366907134463592"><ele>1407.0</ele><time>2026-04-11T08:24:09Z</time></trkpt><trkpt lat="46.5683220233518" lon="9.36714442836071"><ele>1407.0</ele><time>2026-04-11T08:24:10Z</time></trkpt><trkpt lat="46.568460334504664" lon="9.36737411975617"><ele>1405.6666666666667</ele><time>2026-04-11T08:24:11Z</time></trkpt><trkpt lat="46.568608261892756" lon="9.367590849106621"><ele>1404.3333333333335</ele><time>2026-04-11T08:24:12Z</time></trkpt><trkpt lat="46.568761735005964" lon="9.36778731817917"><ele>1403.0</ele><time>2026-04-11T08:24:13Z</time></trkpt><trkpt lat="46.568921869011376" lon="9.367977797037318"><ele>1405.6666666666667</ele><time>2026-04-11T08:24:14Z</time></trkpt><trkpt lat="46.56907702247607" lon="9.36816298284046"><ele>1408.3333333333333</ele><time>2026-04-11T08:24:15Z</time></trkpt><trkpt lat="46.569240098053704" lon="9.368358421567704"><ele>1411.0</ele><time>2026-04-11T08:24:16Z</time></trkpt><trkpt lat="46.56938940409286" lon="9.368554112684311"><ele>1411.3333333333333</ele><time>2026-04-11T08:24:17Z</time></trkpt><trkpt lat="46.56953998843402" lon="9.36875838096703"><ele>1411.6666666666667</ele><time>2026-04-11T08:24:18Z</time></trkpt><trkpt lat="46.56967896785241" lon="9.368965442260805"><ele>1412.0</ele><time>2026-04-11T08:24:19Z</time></trkpt><trkpt lat="46.569808745940136" lon="9.369178674791602"><ele>1412.0</ele><time>2026-04-11T08:24:20Z</time></trkpt><trkpt lat="46.56993515497274" lon="9.369404934870575"><ele>1412.0</ele><time>2026-04-11T08:24:21Z</time></trkpt><trkpt lat="46.570054374471255" lon="9.369642550298796"><ele>1412.0</ele><time>2026-04-11T08:24:22Z</time></trkpt><trkpt lat="46.570169146318506" lon="9.3698880967751"><ele>1412.0</ele><time>2026-04-11T08:24:23Z</time></trkpt><trkpt lat="46.570278057480934" lon="9.370143617312332"><ele>1412.0</ele><time>2026-04-11T08:24:24Z</time></trkpt><trkpt lat="46.570377973056765" lon="9.370407458978645"><ele>1412.0</ele><time>2026-04-11T08:24:25Z</time></trkpt><trkpt lat="46.570468495889386" lon="9.370675732963107"><ele>1412.0</ele><time>2026-04-11T08:24:26Z</time></trkpt><trkpt lat="46.5705509241167" lon="9.370948176743259"><ele>1412.0</ele><time>2026-04-11T08:24:27Z</time></trkpt><trkpt lat="46.57051216588631" lon="9.3712832456656"><ele>1412.0</ele><time>2026-04-11T08:24:28Z</time></trkpt><trkpt lat="46.57058264851835" lon="9.371553652592278"><ele>1412.0</ele><time>2026-04-11T08:24:29Z</time></trkpt><trkpt lat="46.57065227426112" lon="9.371820776433147"><ele>1412.0</ele><time>2026-04-11T08:24:30Z</time></trkpt><trkpt lat="46.570720811760026" lon="9.372083725151759"><ele>1412.0</ele><time>2026-04-11T08:24:31Z</time></trkpt><trkpt lat="46.570819758801974" lon="9.372321538893212"><ele>1410.3333333333335</ele><time>2026-04-11T08:24:32Z</time></trkpt><trkpt lat="46.57085440908711" lon="9.372591125434283"><ele>1408.6666666666667</ele><time>2026-04-11T08:24:33Z</time></trkpt><trkpt lat="46.57088806049908" lon="9.372859058726444"><ele>1407.0</ele><time>2026-04-11T08:24:34Z</time></trkpt><trkpt lat="46.57092616018469" lon="9.373130816600192"><ele>1407.0</ele><time>2026-04-11T08:24:35Z</time></trkpt><trkpt lat="46.570961846128064" lon="9.373403361252956"><ele>1407.0</ele><time>2026-04-11T08:24:36Z</time></trkpt><trkpt lat="46.57099864481466" lon="9.373685030882475"><ele>1407.0</ele><time>2026-04-11T08:24:37Z</time></trkpt><trkpt lat="46.57103744290818" lon="9.373970307698023"><ele>1407.0</ele><time>2026-04-11T08:24:38Z</time></trkpt><trkpt lat="46.571076105370544" lon="9.37425534496809"><ele>1407.0</ele><time>2026-04-11T08:24:39Z</time></trkpt><trkpt lat="46.57111266565021" lon="9.374538907095921"><ele>1407.0</ele><time>2026-04-11T08:24:40Z</time></trkpt><trkpt lat="46.57114905081007" lon="9.374826330780259"><ele>1407.0</ele><time>2026-04-11T08:24:41Z</time></trkpt><trkpt lat="46.57118481131949" lon="9.375113499387131"><ele>1407.0</ele><time>2026-04-11T08:24:42Z</time></trkpt><trkpt lat="46.57121654135227" lon="9.375398649370107"><ele>1407.0</ele><time>2026-04-11T08:24:43Z</time></trkpt><trkpt lat="46.57124078294738" lon="9.375690354905755"><ele>1411.3333333333333</ele><time>2026-04-11T08:24:44Z</time></trkpt><trkpt lat="46.57126335518719" lon="9.375983060285156"><ele>1415.6666666666665</ele><time>2026-04-11T08:24:45Z</time></trkpt><trkpt lat="46.571279244962156" lon="9.376281171474657"><ele>1420.0</ele><time>2026-04-11T08:24:46Z</time></trkpt><trkpt lat="46.57128459878729" lon="9.37657298792505"><ele>1422.6666666666665</ele><time>2026-04-11T08:24:47Z</time></trkpt><trkpt lat="46.571281669388505" lon="9.376868118208478"><ele>1425.3333333333333</ele><time>2026-04-11T08:24:48Z</time></trkpt><trkpt lat="46.57127212382844" lon="9.377161882343685"><ele>1428.0</ele><time>2026-04-11T08:24:49Z</time></trkpt><trkpt lat="46.5712553125102" lon="9.377450422923044"><ele>1429.6666666666667</ele><time>2026-04-11T08:24:50Z</time></trkpt><trkpt lat="46.57123193984929" lon="9.3777353942592"><ele>1431.3333333333335</ele><time>2026-04-11T08:24:51Z</time></trkpt><trkpt lat="46.57120238960943" lon="9.378014853420378"><ele>1433.0</ele><time>2026-04-11T08:24:52Z</time></trkpt><trkpt lat="46.571167410944206" lon="9.378290111749163"><ele>1426.0</ele><time>2026-04-11T08:24:53Z</time></trkpt><trkpt lat="46.5711234545971" lon="9.378564415181627"><ele>1419.0</ele><time>2026-04-11T08:24:54Z</time></trkpt><trkpt lat="46.57107608358157" lon="9.378836825277608"><ele>1412.0</ele><time>2026-04-11T08:24:55Z</time></trkpt><trkpt lat="46.571028738553856" lon="9.379106323665772"><ele>1412.0</ele><time>2026-04-11T08:24:56Z</time></trkpt><trkpt lat="46.57097951060492" lon="9.379373672466237"><ele>1412.0</ele><time>2026-04-11T08:24:57Z</time></trkpt><trkpt lat="46.570929147109496" lon="9.379636103908753"><ele>1412.0</ele><time>2026-04-11T08:24:58Z</time></trkpt><trkpt lat="46.570880503725874" lon="9.379888776786782"><ele>1412.6666666666667</ele><time>2026-04-11T08:24:59Z</time></trkpt><trkpt lat="46.5708309459335" lon="9.380135440608953"><ele>1413.3333333333333</ele><time>2026-04-11T08:25:00Z</time></trkpt><trkpt lat="46.57077054300134" lon="9.380380359408475"><ele>1414.0</ele><time>2026-04-11T08:25:01Z</time></trkpt><trkpt lat="46.57069366072862" lon="9.380617219909109"><ele>1416.0</ele><time>2026-04-11T08:25:02Z</time></trkpt><trkpt lat="46.57059907322904" lon="9.380851534734004"><ele>1418.0</ele><time>2026-04-11T08:25:03Z</time></trkpt><trkpt lat="46.570485060779916" lon="9.38107312655647"><ele>1420.0</ele><time>2026-04-11T08:25:04Z</time></trkpt><trkpt lat="46.57035421009725" lon="9.381263608688704"><ele>1415.6666666666665</ele><time>2026-04-11T08:25:05Z</time></trkpt><trkpt lat="46.57021759314316" lon="9.38143567361889"><ele>1411.3333333333333</ele><time>2026-04-11T08:25:06Z</time></trkpt><trkpt lat="46.570068741570275" lon="9.381587276665133"><ele>1407.0</ele><time>2026-04-11T08:25:07Z</time></trkpt><trkpt lat="46.569905777657446" lon="9.381718910527487"><ele>1407.0</ele><time>2026-04-11T08:25:08Z</time></trkpt><trkpt lat="46.56973472400586" lon="9.381812635484266"><ele>1407.0</ele><time>2026-04-11T08:25:09Z</time></trkpt><trkpt lat="46.56954999144575" lon="9.381884305747873"><ele>1407.0</ele><time>2026-04-11T08:25:10Z</time></trkpt><trkpt lat="46.56935507202852" lon="9.381931522500293"><ele>1406.3333333333333</ele><time>2026-04-11T08:25:11Z</time></trkpt><trkpt lat="46.56915839244071" lon="9.381972273077729"><ele>1405.6666666666665</ele><time>2026-04-11T08:25:12Z</time></trkpt><trkpt lat="46.568965853921426" lon="9.3820141773778"><ele>1405.0</ele><time>2026-04-11T08:25:13Z</time></trkpt><trkpt lat="46.5687783194348" lon="9.382058764978149"><ele>1404.6666666666665</ele><time>2026-04-11T08:25:14Z</time></trkpt><trkpt lat="46.568593375864225" lon="9.382109757032536"><ele>1404.3333333333333</ele><time>2026-04-11T08:25:15Z</time></trkpt><trkpt lat="46.56841001276233" lon="9.382161835330043"><ele>1404.0</ele><time>2026-04-11T08:25:16Z</time></trkpt><trkpt lat="46.56822985794246" lon="9.382204703301662"><ele>1396.0</ele><time>2026-04-11T08:25:17Z</time></trkpt><trkpt lat="46.56804843142053" lon="9.382250125131538"><ele>1388.0</ele><time>2026-04-11T08:25:18Z</time></trkpt><trkpt lat="46.56787140867995" lon="9.382291570343963"><ele>1380.0</ele><time>2026-04-11T08:25:19Z</time></trkpt><trkpt lat="46.56769064123394" lon="9.382333367262307"><ele>1378.3333333333333</ele><time>2026-04-11T08:25:20Z</time></trkpt><trkpt lat="46.56750936159237" lon="9.382377676373698"><ele>1376.6666666666665</ele><time>2026-04-11T08:25:21Z</time></trkpt><trkpt lat="46.56732831294261" lon="9.382426745807601"><ele>1375.0</ele><time>2026-04-11T08:25:22Z</time></trkpt><trkpt lat="46.56713881309942" lon="9.38247159166875"><ele>1380.6666666666665</ele><time>2026-04-11T08:25:23Z</time></trkpt><trkpt lat="46.56694668649196" lon="9.382525982785515"><ele>1386.3333333333333</ele><time>2026-04-11T08:25:24Z</time></trkpt><trkpt lat="46.56675411765484" lon="9.382601165049232"><ele>1392.0</ele><time>2026-04-11T08:25:25Z</time></trkpt><trkpt lat="46.56656432065096" lon="9.382711178069565"><ele>1392.0</ele><time>2026-04-11T08:25:26Z</time></trkpt><trkpt lat="46.566385571681984" lon="9.382867739229846"><ele>1392.0</ele><time>2026-04-11T08:25:27Z</time></trkpt><trkpt lat="46.56622173290581" lon="9.383050554213694"><ele>1392.0</ele><time>2026-04-11T08:25:28Z</time></trkpt><trkpt lat="46.5660776313161" lon="9.383245947834329"><ele>1393.6666666666667</ele><time>2026-04-11T08:25:29Z</time></trkpt><trkpt lat="46.56595367980185" lon="9.383465585077039"><ele>1395.3333333333335</ele><time>2026-04-11T08:25:30Z</time></trkpt><trkpt lat="46.56585870394998" lon="9.383708870677365"><ele>1397.0</ele><time>2026-04-11T08:25:31Z</time></trkpt><trkpt lat="46.565784786988694" lon="9.383951681924664"><ele>1391.0</ele><time>2026-04-11T08:25:32Z</time></trkpt><trkpt lat="46.56573018360278" lon="9.384203893574298"><ele>1385.0</ele><time>2026-04-11T08:25:33Z</time></trkpt><trkpt lat="46.56569230017602" lon="9.384460070997816"><ele>1379.0</ele><time>2026-04-11T08:25:34Z</time></trkpt><trkpt lat="46.565668195761845" lon="9.384729363772863"><ele>1375.0</ele><time>2026-04-11T08:25:35Z</time></trkpt><trkpt lat="46.565646282962085" lon="9.385026453694376"><ele>1371.0</ele><time>2026-04-11T08:25:36Z</time></trkpt><trkpt lat="46.5656657733026" lon="9.385307905364343"><ele>1367.0</ele><time>2026-04-11T08:25:37Z</time></trkpt><trkpt lat="46.56569545937107" lon="9.385592172452416"><ele>1366.3333333333335</ele><time>2026-04-11T08:25:38Z</time></trkpt><trkpt lat="46.56577755740242" lon="9.385859182997411"><ele>1365.6666666666667</ele><time>2026-04-11T08:25:39Z</time></trkpt><trkpt lat="46.56586802520224" lon="9.386120529110402"><ele>1365.0</ele><time>2026-04-11T08:25:40Z</time></trkpt><trkpt lat="46.56597952015589" lon="9.386353540628063"><ele>1366.3333333333333</ele><time>2026-04-11T08:25:41Z</time></trkpt><trkpt lat="46.566106065055386" lon="9.386567689019275"><ele>1367.6666666666665</ele><time>2026-04-11T08:25:42Z</time></trkpt><trkpt lat="46.56625122570186" lon="9.386766767213713"><ele>1369.0</ele><time>2026-04-11T08:25:43Z</time></trkpt><trkpt lat="46.56641182568007" lon="9.386947266010791"><ele>1365.0</ele><time>2026-04-11T08:25:44Z</time></trkpt><trkpt lat="46.56657861254326" lon="9.387125750243321"><ele>1361.0</ele><time>2026-04-11T08:25:45Z</time></trkpt><trkpt lat="46.56673740428504" lon="9.387295785420173"><ele>1357.0</ele><time>2026-04-11T08:25:46Z</time></trkpt><trkpt lat="46.56688350321996" lon="9.387487122276765"><ele>1352.3333333333333</ele><time>2026-04-11T08:25:47Z</time></trkpt><trkpt lat="46.56704542103581" lon="9.387651716581662"><ele>1347.6666666666667</ele><time>2026-04-11T08:25:48Z</time></trkpt><trkpt lat="46.56718980304018" lon="9.38785054285254"><ele>1343.0</ele><time>2026-04-11T08:25:49Z</time></trkpt><trkpt lat="46.56732054873846" lon="9.388067529202596"><ele>1343.0</ele><time>2026-04-11T08:25:50Z</time></trkpt><trkpt lat="46.56743373365792" lon="9.388300116185102"><ele>1343.0</ele><time>2026-04-11T08:25:51Z</time></trkpt><trkpt lat="46.56753796598743" lon="9.38853240129719"><ele>1343.0</ele><time>2026-04-11T08:25:52Z</time></trkpt><trkpt lat="46.56762955701605" lon="9.388783003751774"><ele>1342.6666666666667</ele><time>2026-04-11T08:25:53Z</time></trkpt><trkpt lat="46.56771023197986" lon="9.389052882814346"><ele>1342.3333333333333</ele><time>2026-04-11T08:25:54Z</time></trkpt><trkpt lat="46.56777245159218" lon="9.389334395435526"><ele>1342.0</ele><time>2026-04-11T08:25:55Z</time></trkpt><trkpt lat="46.56781867190226" lon="9.38961836928376"><ele>1343.0</ele><time>2026-04-11T08:25:56Z</time></trkpt><trkpt lat="46.567850725123066" lon="9.3899011805465"><ele>1344.0</ele><time>2026-04-11T08:25:57Z</time></trkpt><trkpt lat="46.56786582277488" lon="9.390182311061446"><ele>1345.0</ele><time>2026-04-11T08:25:58Z</time></trkpt><trkpt lat="46.56786266559363" lon="9.390460134058014"><ele>1346.3333333333333</ele><time>2026-04-11T08:25:59Z</time></trkpt><trkpt lat="46.56784426617637" lon="9.390732813212907"><ele>1347.6666666666667</ele><time>2026-04-11T08:26:00Z</time></trkpt><trkpt lat="46.567816355477646" lon="9.391000060288073"><ele>1349.0</ele><time>2026-04-11T08:26:01Z</time></trkpt><trkpt lat="46.56777023450888" lon="9.391259836455664"><ele>1348.0</ele><time>2026-04-11T08:26:02Z</time></trkpt><trkpt lat="46.56771062854564" lon="9.391522246778123"><ele>1347.0</ele><time>2026-04-11T08:26:03Z</time></trkpt><trkpt lat="46.567642017979914" lon="9.391781357204295"><ele>1346.0</ele><time>2026-04-11T08:26:04Z</time></trkpt><trkpt lat="46.56756503914106" lon="9.392034216016388"><ele>1343.0</ele><time>2026-04-11T08:26:05Z</time></trkpt><trkpt lat="46.567482502006264" lon="9.392286636755223"><ele>1340.0</ele><time>2026-04-11T08:26:06Z</time></trkpt><trkpt lat="46.567398425429346" lon="9.392535980495115"><ele>1337.0</ele><time>2026-04-11T08:26:07Z</time></trkpt><trkpt lat="46.567312545856225" lon="9.392778379878308"><ele>1335.3333333333335</ele><time>2026-04-11T08:26:08Z</time></trkpt><trkpt lat="46.56722770830717" lon="9.39301536111669"><ele>1333.6666666666667</ele><time>2026-04-11T08:26:09Z</time></trkpt><trkpt lat="46.567138977286454" lon="9.393251304826522"><ele>1332.0</ele><time>2026-04-11T08:26:10Z</time></trkpt><trkpt lat="46.56705186702639" lon="9.393479872068845"><ele>1336.6666666666667</ele><time>2026-04-11T08:26:11Z</time></trkpt><trkpt lat="46.56696743985197" lon="9.393707055195295"><ele>1341.3333333333335</ele><time>2026-04-11T08:26:12Z</time></trkpt><trkpt lat="46.56688586683585" lon="9.393934045066235"><ele>1346.0</ele><time>2026-04-11T08:26:13Z</time></trkpt><trkpt lat="46.56680377836197" lon="9.394159214883727"><ele>1346.0</ele><time>2026-04-11T08:26:14Z</time></trkpt><trkpt lat="46.566721625753914" lon="9.394380629730028"><ele>1346.0</ele><time>2026-04-11T08:26:15Z</time></trkpt><trkpt lat="46.56664022274419" lon="9.394600970173633"><ele>1346.0</ele><time>2026-04-11T08:26:16Z</time></trkpt><trkpt lat="46.56655765503971" lon="9.394825958619396"><ele>1342.3333333333335</ele><time>2026-04-11T08:26:17Z</time></trkpt><trkpt lat="46.56647654823183" lon="9.395046935731584"><ele>1338.6666666666667</ele><time>2026-04-11T08:26:18Z</time></trkpt><trkpt lat="46.5663988901117" lon="9.39526601476128"><ele>1335.0</ele><time>2026-04-11T08:26:19Z</time></trkpt><trkpt lat="46.56633010580858" lon="9.395490650549013"><ele>1333.6666666666667</ele><time>2026-04-11T08:26:20Z</time></trkpt><trkpt lat="46.56626962896657" lon="9.395720047794116"><ele>1332.3333333333335</ele><time>2026-04-11T08:26:21Z</time></trkpt><trkpt lat="46.56622244012407" lon="9.395952343155981"><ele>1331.0</ele><time>2026-04-11T08:26:22Z</time></trkpt><trkpt lat="46.56618789628527" lon="9.396180898206751"><ele>1334.0</ele><time>2026-04-11T08:26:23Z</time></trkpt><trkpt lat="46.56616452236777" lon="9.396404310156896"><ele>1337.0</ele><time>2026-04-11T08:26:24Z</time></trkpt><trkpt lat="46.566146383103884" lon="9.39662313871679"><ele>1340.0</ele><time>2026-04-11T08:26:25Z</time></trkpt><trkpt lat="46.56612694581005" lon="9.39683545956979"><ele>1340.0</ele><time>2026-04-11T08:26:26Z</time></trkpt><trkpt lat="46.56610963265886" lon="9.397039998870575"><ele>1340.0</ele><time>2026-04-11T08:26:27Z</time></trkpt><trkpt lat="46.56609391597716" lon="9.397248956873806"><ele>1340.0</ele><time>2026-04-11T08:26:28Z</time></trkpt><trkpt lat="46.56607916926727" lon="9.397453420629292"><ele>1340.0</ele><time>2026-04-11T08:26:29Z</time></trkpt><trkpt lat="46.56606455559865" lon="9.397656040451677"><ele>1339.0</ele><time>2026-04-11T08:26:30Z</time></trkpt><trkpt lat="46.56604305844775" lon="9.397809719127281"><ele>1338.0</ele><time>2026-04-11T08:26:31Z</time></trkpt><trkpt lat="46.566032995887916" lon="9.397980488836604"><ele>1337.0</ele><time>2026-04-11T08:26:32Z</time></trkpt><trkpt lat="46.56601612288452" lon="9.398153763974102"><ele>1336.0</ele><time>2026-04-11T08:26:33Z</time></trkpt><trkpt lat="46.566000358442615" lon="9.398333138226567"><ele>1338.5</ele><time>2026-04-11T08:26:34Z</time></trkpt><trkpt lat="46.56598427927465" lon="9.398531824359262"><ele>1341.0</ele><time>2026-04-11T08:26:35Z</time></trkpt><trkpt lat="46.565969396318174" lon="9.398729837628673"><ele>1343.5</ele><time>2026-04-11T08:26:36Z</time></trkpt><trkpt lat="46.56595451261513" lon="9.398915952626586"><ele>1346.0</ele><time>2026-04-11T08:26:37Z</time></trkpt><trkpt lat="46.56593784647191" lon="9.399098955766725"><ele>1349.0</ele><time>2026-04-11T08:26:38Z</time></trkpt><trkpt lat="46.56591938987097" lon="9.399273603711006"><ele>1352.0</ele><time>2026-04-11T08:26:39Z</time></trkpt><trkpt lat="46.56590451780486" lon="9.399457890304943"><ele>1355.0</ele><time>2026-04-11T08:26:40Z</time></trkpt><trkpt lat="46.56588629344039" lon="9.399666829952828"><ele>1358.0</ele><time>2026-04-11T08:26:41Z</time></trkpt><trkpt lat="46.56586865090645" lon="9.399862141263519"><ele>1364.5</ele><time>2026-04-11T08:26:42Z</time></trkpt><trkpt lat="46.56585120195044" lon="9.40005700649839"><ele>1371.0</ele><time>2026-04-11T08:26:43Z</time></trkpt><trkpt lat="46.5658337425288" lon="9.400252065337085"><ele>1377.5</ele><time>2026-04-11T08:26:44Z</time></trkpt><trkpt lat="46.56581628296983" lon="9.400447124015297"><ele>1384.0</ele><time>2026-04-11T08:26:45Z</time></trkpt><trkpt lat="46.56579882315895" lon="9.40064218267849"><ele>1386.6666666666665</ele><time>2026-04-11T08:26:46Z</time></trkpt><trkpt lat="46.56578761375549" lon="9.4010548474387"><ele>1389.3333333333333</ele><time>2026-04-11T08:26:47Z</time></trkpt><trkpt lat="46.565786501699144" lon="9.401281990758353"><ele>1392.0</ele><time>2026-04-11T08:26:48Z</time></trkpt><trkpt lat="46.56578977728976" lon="9.401498069029643"><ele>1392.0</ele><time>2026-04-11T08:26:49Z</time></trkpt><trkpt lat="46.56579760612106" lon="9.401684414224736"><ele>1392.0</ele><time>2026-04-11T08:26:50Z</time></trkpt><trkpt lat="46.56580729890427" lon="9.401789501712358"><ele>1392.0</ele><time>2026-04-11T08:26:51Z</time></trkpt><trkpt lat="46.56582923855557" lon="9.401980491274719"><ele>1392.0</ele><time>2026-04-11T08:26:52Z</time></trkpt><trkpt lat="46.56584793944564" lon="9.402112648040264"><ele>1392.0</ele><time>2026-04-11T08:26:55.03Z</time></trkpt><trkpt lat="46.566831718816836" lon="9.403999195656397"><ele>1352.5</ele><time>2026-04-11T08:27:02Z</time></trkpt><trkpt lat="46.56699769941664" lon="9.404172758325828"><ele>1313.0</ele><time>2026-04-11T08:27:03Z</time></trkpt><trkpt lat="46.56702101053739" lon="9.404539407201582"><ele>1306.3333333333335</ele><time>2026-04-11T08:27:04Z</time></trkpt><trkpt lat="46.567161876806026" lon="9.404682758590985"><ele>1299.6666666666667</ele><time>2026-04-11T08:27:05Z</time></trkpt><trkpt lat="46.56732723674768" lon="9.404811777135977"><ele>1293.0</ele><time>2026-04-11T08:27:06Z</time></trkpt><trkpt lat="46.56750918988994" lon="9.404909235151713"><ele>1293.0</ele><time>2026-04-11T08:27:07Z</time></trkpt><trkpt lat="46.56767283396319" lon="9.40499803202559"><ele>1293.0</ele><time>2026-04-11T08:27:08Z</time></trkpt><trkpt lat="46.56784312516073" lon="9.405084543406497"><ele>1293.0</ele><time>2026-04-11T08:27:09Z</time></trkpt><trkpt lat="46.56801791105126" lon="9.405179879939592"><ele>1311.6666666666667</ele><time>2026-04-11T08:27:10Z</time></trkpt><trkpt lat="46.568173945445544" lon="9.405274417820195"><ele>1330.3333333333335</ele><time>2026-04-11T08:27:11Z</time></trkpt><trkpt lat="46.56833929191041" lon="9.405365996797018"><ele>1349.0</ele><time>2026-04-11T08:27:12Z</time></trkpt><trkpt lat="46.56995818603835" lon="9.407765903001584"><ele>1349.0</ele><time>2026-04-11T08:27:20.19Z</time></trkpt><trkpt lat="46.5702279169681" lon="9.408733467325595"><ele>1496.0</ele><time>2026-04-11T08:27:21.191Z</time></trkpt><trkpt lat="46.57049666984" lon="9.409701643993857"><ele>1487.0</ele><time>2026-04-11T08:27:22.191Z</time></trkpt><trkpt lat="46.57076622819713" lon="9.410668585080858"><ele>1463.0</ele><time>2026-04-11T08:27:23.19Z</time></trkpt><trkpt lat="46.57103407056306" lon="9.41163707875545"><ele>1485.0</ele><time>2026-04-11T08:27:24.19Z</time></trkpt><trkpt lat="46.57130161777612" lon="9.412605766480464"><ele>1439.0</ele><time>2026-04-11T08:27:25.19Z</time></trkpt><trkpt lat="46.5715695062258" lon="9.413574250414593"><ele>1388.0</ele><time>2026-04-11T08:27:26.19Z</time></trkpt><trkpt lat="46.571889988048525" lon="9.414507085245784"><ele>1342.0</ele><time>2026-04-11T08:27:27.19Z</time></trkpt><trkpt lat="46.5723505" lon="9.4152832"><ele>1236.0</ele><time>2026-04-11T08:27:28.19Z</time></trkpt><trkpt lat="46.573884794027734" lon="9.41621130819457"><ele>1236.0</ele><time>2026-04-11T08:28:10.999Z</time></trkpt><trkpt lat="46.57403943987594" lon="9.416239680726951"><ele>1236.0</ele><time>2026-04-11T08:28:11.999Z</time></trkpt><trkpt lat="46.57424799942365" lon="9.416271044351298"><ele>1236.0</ele><time>2026-04-11T08:28:12.999Z</time></trkpt><trkpt lat="46.5744429380598" lon="9.416268786609308"><ele>1237.0</ele><time>2026-04-11T08:28:13.999Z</time></trkpt><trkpt lat="46.57464471810741" lon="9.416241840168494"><ele>1238.0</ele><time>2026-04-11T08:28:14.999Z</time></trkpt><trkpt lat="46.57483452978659" lon="9.416220305287974"><ele>1239.0</ele><time>2026-04-11T08:28:15.999Z</time></trkpt><trkpt lat="46.57501429588189" lon="9.416199765729097"><ele>1239.0</ele><time>2026-04-11T08:28:17Z</time></trkpt><trkpt lat="46.575228273087056" lon="9.416287040346578"><ele>1239.0</ele><time>2026-04-11T08:28:18Z</time></trkpt><trkpt lat="46.575451949318065" lon="9.416350539593546"><ele>1230.0</ele><time>2026-04-11T08:28:19Z</time></trkpt><trkpt lat="46.57569057405859" lon="9.416412974831369"><ele>1221.0</ele><time>2026-04-11T08:28:20Z</time></trkpt><trkpt lat="46.57578497272313" lon="9.416618739107482"><ele>1212.0</ele><time>2026-04-11T08:28:21Z</time></trkpt><trkpt lat="46.575925162095224" lon="9.416827916826735"><ele>1212.0</ele><time>2026-04-11T08:28:22Z</time></trkpt><trkpt lat="46.576086504371624" lon="9.416989313898627"><ele>1212.0</ele><time>2026-04-11T08:28:23Z</time></trkpt><trkpt lat="46.5762446251386" lon="9.417147359268446"><ele>1212.0</ele><time>2026-04-11T08:28:24Z</time></trkpt><trkpt lat="46.57641234945404" lon="9.417304279993543"><ele>1215.0</ele><time>2026-04-11T08:28:25Z</time></trkpt><trkpt lat="46.576587035942495" lon="9.417433079468159"><ele>1218.0</ele><time>2026-04-11T08:28:26Z</time></trkpt><trkpt lat="46.576767022015034" lon="9.41755941884565"><ele>1221.0</ele><time>2026-04-11T08:28:27Z</time></trkpt><trkpt lat="46.57695617470004" lon="9.417656936864773"><ele>1214.3333333333333</ele><time>2026-04-11T08:28:28Z</time></trkpt><trkpt lat="46.57715224092451" lon="9.417719528267003"><ele>1207.6666666666665</ele><time>2026-04-11T08:28:29Z</time></trkpt><trkpt lat="46.57734704402672" lon="9.417736501644836"><ele>1201.0</ele><time>2026-04-11T08:28:30Z</time></trkpt><trkpt lat="46.577539692896615" lon="9.41775793601766"><ele>1201.0</ele><time>2026-04-11T08:28:31Z</time></trkpt><trkpt lat="46.57771842437203" lon="9.417828406230774"><ele>1201.0</ele><time>2026-04-11T08:28:32Z</time></trkpt><trkpt lat="46.57789572923987" lon="9.417870158669565"><ele>1201.0</ele><time>2026-04-11T08:28:33Z</time></trkpt><trkpt lat="46.57806455714308" lon="9.417959709389075"><ele>1206.0</ele><time>2026-04-11T08:28:34Z</time></trkpt><trkpt lat="46.578247804684516" lon="9.418094020095118"><ele>1211.0</ele><time>2026-04-11T08:28:35Z</time></trkpt><trkpt lat="46.57840215318971" lon="9.418235052674618"><ele>1216.0</ele><time>2026-04-11T08:28:36Z</time></trkpt><trkpt lat="46.57852136511309" lon="9.418373174669018"><ele>1216.0</ele><time>2026-04-11T08:28:37Z</time></trkpt><trkpt lat="46.57861831054404" lon="9.418496838309922"><ele>1216.0</ele><time>2026-04-11T08:28:38Z</time></trkpt><trkpt lat="46.578677113834416" lon="9.41858725643582"><ele>1216.0</ele><time>2026-04-11T08:28:39Z</time></trkpt><trkpt lat="46.57876414849616" lon="9.41872436593354"><ele>1216.0</ele><time>2026-04-11T08:28:40Z</time></trkpt><trkpt lat="46.5788334776832" lon="9.418850253159134"><ele>1216.0</ele><time>2026-04-11T08:28:41Z</time></trkpt><trkpt lat="46.578915117692205" lon="9.419000192304091"><ele>1216.0</ele><time>2026-04-11T08:28:42.07Z</time></trkpt><trkpt lat="46.578684380249896" lon="9.418542697738117"><ele>1159.0</ele><time>2026-04-11T08:28:43.041Z</time></trkpt><trkpt lat="46.58009116956927" lon="9.418599426617416"><ele>1159.0</ele><time>2026-04-11T08:28:46Z</time></trkpt><trkpt lat="46.58019686899285" lon="9.418747547530879"><ele>1159.0</ele><time>2026-04-11T08:28:47Z</time></trkpt><trkpt lat="46.57999744804121" lon="9.419833378082089"><ele>1157.0</ele><time>2026-04-11T08:28:48Z</time></trkpt><trkpt lat="46.58005835511608" lon="9.420065352865478"><ele>1155.0</ele><time>2026-04-11T08:28:49Z</time></trkpt><trkpt lat="46.57989563584054" lon="9.4218118561197"><ele>1167.0</ele><time>2026-04-11T08:28:50Z</time></trkpt><trkpt lat="46.57991446979354" lon="9.422150172290397"><ele>1179.0</ele><time>2026-04-11T08:28:51Z</time></trkpt><trkpt lat="46.57990783379664" lon="9.422472505100224"><ele>1179.0</ele><time>2026-04-11T08:28:52Z</time></trkpt><trkpt lat="46.57988128562075" lon="9.422790243688667"><ele>1179.0</ele><time>2026-04-11T08:28:53Z</time></trkpt><trkpt lat="46.57983165572984" lon="9.423083572304536"><ele>1179.0</ele><time>2026-04-11T08:28:54Z</time></trkpt><trkpt lat="46.57976319466985" lon="9.42336582748257"><ele>1181.0</ele><time>2026-04-11T08:28:55Z</time></trkpt><trkpt lat="46.579674477334066" lon="9.423633981195099"><ele>1183.0</ele><time>2026-04-11T08:28:56Z</time></trkpt><trkpt lat="46.5795691707222" lon="9.423888387754518"><ele>1185.0</ele><time>2026-04-11T08:28:57Z</time></trkpt><trkpt lat="46.57943610021498" lon="9.424130295828792"><ele>1185.0</ele><time>2026-04-11T08:28:58Z</time></trkpt><trkpt lat="46.579303012840825" lon="9.424360359888023"><ele>1185.0</ele><time>2026-04-11T08:28:59Z</time></trkpt><trkpt lat="46.579178845578866" lon="9.42459321778012"><ele>1185.0</ele><time>2026-04-11T08:29:00Z</time></trkpt><trkpt lat="46.579055256239556" lon="9.424816500026676"><ele>1177.3333333333333</ele><time>2026-04-11T08:29:01Z</time></trkpt><trkpt lat="46.578939132449825" lon="9.425043765916303"><ele>1169.6666666666665</ele><time>2026-04-11T08:29:02Z</time></trkpt><trkpt lat="46.57881610030936" lon="9.425268159060256"><ele>1162.0</ele><time>2026-04-11T08:29:03Z</time></trkpt><trkpt lat="46.5787031379589" lon="9.425492196250403"><ele>1169.0</ele><time>2026-04-11T08:29:04Z</time></trkpt><trkpt lat="46.57860209027428" lon="9.425722908109016"><ele>1176.0</ele><time>2026-04-11T08:29:05Z</time></trkpt><trkpt lat="46.578522530369455" lon="9.425965702410826"><ele>1183.0</ele><time>2026-04-11T08:29:06Z</time></trkpt><trkpt lat="46.57844497047398" lon="9.426204184007599"><ele>1176.3333333333333</ele><time>2026-04-11T08:29:07Z</time></trkpt><trkpt lat="46.57839343920604" lon="9.426472309321747"><ele>1169.6666666666667</ele><time>2026-04-11T08:29:08Z</time></trkpt><trkpt lat="46.57846143326917" lon="9.426763977026594"><ele>1163.0</ele><time>2026-04-11T08:29:09Z</time></trkpt><trkpt lat="46.57849987956383" lon="9.427048309133097"><ele>1163.0</ele><time>2026-04-11T08:29:10Z</time></trkpt><trkpt lat="46.57857245769047" lon="9.427309208002818"><ele>1163.0</ele><time>2026-04-11T08:29:11Z</time></trkpt><trkpt lat="46.57867672345469" lon="9.427539283920218"><ele>1163.0</ele><time>2026-04-11T08:29:12Z</time></trkpt><trkpt lat="46.578807772535676" lon="9.427739145761576"><ele>1159.0</ele><time>2026-04-11T08:29:13Z</time></trkpt><trkpt lat="46.57895438258111" lon="9.427901445652685"><ele>1155.0</ele><time>2026-04-11T08:29:14Z</time></trkpt><trkpt lat="46.57911655478198" lon="9.428016682794864"><ele>1151.0</ele><time>2026-04-11T08:29:15Z</time></trkpt><trkpt lat="46.579287848945356" lon="9.42809656540913"><ele>1151.0</ele><time>2026-04-11T08:29:16Z</time></trkpt><trkpt lat="46.57946372930887" lon="9.428141390213268"><ele>1151.0</ele><time>2026-04-11T08:29:17Z</time></trkpt><trkpt lat="46.57964097486335" lon="9.428160871190789"><ele>1151.0</ele><time>2026-04-11T08:29:18Z</time></trkpt><trkpt lat="46.57981137753835" lon="9.428146320082694"><ele>1156.0</ele><time>2026-04-11T08:29:19Z</time></trkpt><trkpt lat="46.579972847070174" lon="9.428116326146906"><ele>1161.0</ele><time>2026-04-11T08:29:20Z</time></trkpt><trkpt lat="46.58013196226113" lon="9.428084861102107"><ele>1166.0</ele><time>2026-04-11T08:29:21Z</time></trkpt><trkpt lat="46.5826827021147" lon="9.427463442892327"><ele>1365.0</ele><time>2026-04-11T08:29:28.19Z</time></trkpt><trkpt lat="46.583392731546795" lon="9.427295658249227"><ele>1316.0</ele><time>2026-04-11T08:29:29.189Z</time></trkpt><trkpt lat="46.58410292700398" lon="9.42712704860323"><ele>1318.0</ele><time>2026-04-11T08:29:30.189Z</time></trkpt><trkpt lat="46.584813302975675" lon="9.426960498708546"><ele>1290.0</ele><time>2026-04-11T08:29:31.189Z</time></trkpt><trkpt lat="46.58552384931635" lon="9.426794853828635"><ele>1253.0</ele><time>2026-04-11T08:29:32.189Z</time></trkpt><trkpt lat="46.58623474281955" lon="9.426631048837535"><ele>1253.0</ele><time>2026-04-11T08:29:33.19Z</time></trkpt><trkpt lat="46.5869447048647" lon="9.426460409165372"><ele>1177.0</ele><time>2026-04-11T08:29:34.19Z</time></trkpt><trkpt lat="46.58765463280134" lon="9.426289777691208"><ele>1177.0</ele><time>2026-04-11T08:29:35.189Z</time></trkpt><trkpt lat="46.587739" lon="9.4262695"><ele>1177.0</ele><time>2026-04-11T08:29:36.189Z</time></trkpt><trkpt lat="46.589157535179694" lon="9.426849704249936"><ele>1139.0</ele><time>2026-04-11T08:30:14Z</time></trkpt><trkpt lat="46.58948924992801" lon="9.426642457579076"><ele>1101.0</ele><time>2026-04-11T08:30:15Z</time></trkpt><trkpt lat="46.58966960974721" lon="9.426831395971268"><ele>1098.0</ele><time>2026-04-11T08:30:16Z</time></trkpt><trkpt lat="46.589829989988786" lon="9.426982030197733"><ele>1095.0</ele><time>2026-04-11T08:30:17Z</time></trkpt><trkpt lat="46.589993933567385" lon="9.427150364880342"><ele>1092.0</ele><time>2026-04-11T08:30:17.999Z</time></trkpt><trkpt lat="46.59015380773369" lon="9.42731618413853"><ele>1092.0</ele><time>2026-04-11T08:30:18.999Z</time></trkpt><trkpt lat="46.59031384295806" lon="9.427467990646042"><ele>1092.0</ele><time>2026-04-11T08:30:19.999Z</time></trkpt><trkpt lat="46.59047400864879" lon="9.427605431086723"><ele>1092.0</ele><time>2026-04-11T08:30:20.999Z</time></trkpt><trkpt lat="46.590641958263355" lon="9.427726143022365"><ele>1083.0</ele><time>2026-04-11T08:30:21.999Z</time></trkpt><trkpt lat="46.59081280607535" lon="9.427826680845348"><ele>1074.0</ele><time>2026-04-11T08:30:23Z</time></trkpt><trkpt lat="46.59098930270709" lon="9.42790260863188"><ele>1065.0</ele><time>2026-04-11T08:30:24Z</time></trkpt><trkpt lat="46.59116980623193" lon="9.427953116867192"><ele>1065.0</ele><time>2026-04-11T08:30:25Z</time></trkpt><trkpt lat="46.59134793285175" lon="9.427978553069936"><ele>1065.0</ele><time>2026-04-11T08:30:26Z</time></trkpt><trkpt lat="46.5915228598729" lon="9.42798708647856"><ele>1065.0</ele><time>2026-04-11T08:30:27Z</time></trkpt><trkpt lat="46.591702243773085" lon="9.42797802141818"><ele>1062.3333333333333</ele><time>2026-04-11T08:30:28Z</time></trkpt><trkpt lat="46.59187841209001" lon="9.42793959410519"><ele>1059.6666666666665</ele><time>2026-04-11T08:30:29Z</time></trkpt><trkpt lat="46.59205576203258" lon="9.427872896569566"><ele>1057.0</ele><time>2026-04-11T08:30:30Z</time></trkpt><trkpt lat="46.59223521357169" lon="9.427784837007724"><ele>1055.6666666666665</ele><time>2026-04-11T08:30:31Z</time></trkpt><trkpt lat="46.59240525291637" lon="9.427676782657693"><ele>1054.3333333333333</ele><time>2026-04-11T08:30:32Z</time></trkpt><trkpt lat="46.59256838643207" lon="9.427554566599461"><ele>1053.0</ele><time>2026-04-11T08:30:33Z</time></trkpt><trkpt lat="46.592729456531856" lon="9.427432632019636"><ele>1053.3333333333333</ele><time>2026-04-11T08:30:34Z</time></trkpt><trkpt lat="46.592886894660126" lon="9.427313696698297"><ele>1053.6666666666665</ele><time>2026-04-11T08:30:35Z</time></trkpt><trkpt lat="46.59303862365546" lon="9.427208988772152"><ele>1054.0</ele><time>2026-04-11T08:30:36Z</time></trkpt><trkpt lat="46.59319013904289" lon="9.427120464507626"><ele>1054.0</ele><time>2026-04-11T08:30:37Z</time></trkpt><trkpt lat="46.59335331474395" lon="9.427048143720063"><ele>1054.0</ele><time>2026-04-11T08:30:38Z</time></trkpt><trkpt lat="46.59352424795144" lon="9.426989472611229"><ele>1054.0</ele><time>2026-04-11T08:30:39Z</time></trkpt><trkpt lat="46.59370196884962" lon="9.42694947217881"><ele>1048.3333333333333</ele><time>2026-04-11T08:30:40Z</time></trkpt><trkpt lat="46.59388824461831" lon="9.42694836634015"><ele>1042.6666666666667</ele><time>2026-04-11T08:30:41Z</time></trkpt><trkpt lat="46.59406957020649" lon="9.427003290904452"><ele>1037.0</ele><time>2026-04-11T08:30:42Z</time></trkpt><trkpt lat="46.59425043970315" lon="9.427044491567267"><ele>1037.0</ele><time>2026-04-11T08:30:43Z</time></trkpt><trkpt lat="46.59441981997973" lon="9.42712899185177"><ele>1037.0</ele><time>2026-04-11T08:30:44Z</time></trkpt><trkpt lat="46.59458322844124" lon="9.427235115993925"><ele>1037.0</ele><time>2026-04-11T08:30:45Z</time></trkpt><trkpt lat="46.59473706475535" lon="9.42736203862683"><ele>1035.0</ele><time>2026-04-11T08:30:46Z</time></trkpt><trkpt lat="46.59488833830412" lon="9.427504097917447"><ele>1033.0</ele><time>2026-04-11T08:30:47Z</time></trkpt><trkpt lat="46.59504304387075" lon="9.427652436724731"><ele>1031.0</ele><time>2026-04-11T08:30:48Z</time></trkpt><trkpt lat="46.59519473290429" lon="9.427803851367113"><ele>1029.3333333333335</ele><time>2026-04-11T08:30:49Z</time></trkpt><trkpt lat="46.59533850106283" lon="9.427953995871816"><ele>1027.6666666666667</ele><time>2026-04-11T08:30:50Z</time></trkpt><trkpt lat="46.59547443432145" lon="9.42809367676678"><ele>1026.0</ele><time>2026-04-11T08:30:51Z</time></trkpt><trkpt lat="46.59560786727273" lon="9.42822502830597"><ele>1026.0</ele><time>2026-04-11T08:30:52Z</time></trkpt><trkpt lat="46.59573223813707" lon="9.428382179853164"><ele>1026.0</ele><time>2026-04-11T08:30:53Z</time></trkpt><trkpt lat="46.595865722514596" lon="9.428520460486206"><ele>1026.0</ele><time>2026-04-11T08:30:54Z</time></trkpt><trkpt lat="46.59600000018749" lon="9.428659563024164"><ele>1026.0</ele><time>2026-04-11T08:30:55Z</time></trkpt><trkpt lat="46.59614790220799" lon="9.428783439351339"><ele>1026.0</ele><time>2026-04-11T08:30:56Z</time></trkpt><trkpt lat="46.59628767181647" lon="9.428925886822952"><ele>1026.0</ele><time>2026-04-11T08:30:57Z</time></trkpt><trkpt lat="46.5964304420835" lon="9.429068119669216"><ele>1023.6666666666667</ele><time>2026-04-11T08:30:58Z</time></trkpt><trkpt lat="46.59657775418654" lon="9.429207734147289"><ele>1021.3333333333334</ele><time>2026-04-11T08:30:59Z</time></trkpt><trkpt lat="46.5967334163321" lon="9.429348300012686"><ele>1019.0</ele><time>2026-04-11T08:31:00Z</time></trkpt><trkpt lat="46.596894455459044" lon="9.429486379749342"><ele>1018.3333333333334</ele><time>2026-04-11T08:31:01Z</time></trkpt><trkpt lat="46.59705595338311" lon="9.429617911622483"><ele>1017.6666666666667</ele><time>2026-04-11T08:31:02Z</time></trkpt><trkpt lat="46.59721546560147" lon="9.429745895408553"><ele>1017.0</ele><time>2026-04-11T08:31:03Z</time></trkpt><trkpt lat="46.59737428407536" lon="9.429869789240058"><ele>1017.0</ele><time>2026-04-11T08:31:04Z</time></trkpt><trkpt lat="46.597539334243066" lon="9.429991960650776"><ele>1017.0</ele><time>2026-04-11T08:31:05Z</time></trkpt><trkpt lat="46.597708627483605" lon="9.430112035883687"><ele>1017.0</ele><time>2026-04-11T08:31:06Z</time></trkpt><trkpt lat="46.597873153287026" lon="9.430253997633727"><ele>1017.6666666666667</ele><time>2026-04-11T08:31:07Z</time></trkpt><trkpt lat="46.59805074045451" lon="9.430385805304292"><ele>1018.3333333333334</ele><time>2026-04-11T08:31:08Z</time></trkpt><trkpt lat="46.59822919971929" lon="9.430512581930437"><ele>1019.0</ele><time>2026-04-11T08:31:09Z</time></trkpt><trkpt lat="46.598412660339214" lon="9.430637101434495"><ele>1019.0</ele><time>2026-04-11T08:31:10Z</time></trkpt><trkpt lat="46.59860151047188" lon="9.430759279006304"><ele>1019.0</ele><time>2026-04-11T08:31:11Z</time></trkpt><trkpt lat="46.59880157560405" lon="9.430851681011818"><ele>1019.0</ele><time>2026-04-11T08:31:12Z</time></trkpt><trkpt lat="46.59899685871202" lon="9.430952547361644"><ele>1015.0</ele><time>2026-04-11T08:31:13Z</time></trkpt><trkpt lat="46.59919462795125" lon="9.43103763006251"><ele>1011.0</ele><time>2026-04-11T08:31:14Z</time></trkpt><trkpt lat="46.59939719580729" lon="9.431104667860115"><ele>1007.0</ele><time>2026-04-11T08:31:15Z</time></trkpt><trkpt lat="46.59960056472433" lon="9.431141071430554"><ele>1005.3333333333334</ele><time>2026-04-11T08:31:16Z</time></trkpt><trkpt lat="46.5998003852431" lon="9.431167670659509"><ele>1003.6666666666667</ele><time>2026-04-11T08:31:17Z</time></trkpt><trkpt lat="46.600001543033954" lon="9.431174543327634"><ele>1002.0</ele><time>2026-04-11T08:31:18Z</time></trkpt><trkpt lat="46.60019683101126" lon="9.431160874644453"><ele>1002.3333333333333</ele><time>2026-04-11T08:31:19Z</time></trkpt><trkpt lat="46.60039138273626" lon="9.431125777535733"><ele>1002.6666666666666</ele><time>2026-04-11T08:31:20Z</time></trkpt><trkpt lat="46.60059925289131" lon="9.43111196769724"><ele>1003.0</ele><time>2026-04-11T08:31:21Z</time></trkpt><trkpt lat="46.6008089775043" lon="9.431045124549174"><ele>1003.0</ele><time>2026-04-11T08:31:22Z</time></trkpt><trkpt lat="46.60101631620334" lon="9.430953699303759"><ele>1003.0</ele><time>2026-04-11T08:31:23Z</time></trkpt><trkpt lat="46.60122257712008" lon="9.43085720460315"><ele>1003.0</ele><time>2026-04-11T08:31:24Z</time></trkpt><trkpt lat="46.60142460939383" lon="9.430734934638261"><ele>1005.0</ele><time>2026-04-11T08:31:25Z</time></trkpt><trkpt lat="46.60162997111474" lon="9.430634196146235"><ele>1007.0</ele><time>2026-04-11T08:31:26Z</time></trkpt><trkpt lat="46.60183797038686" lon="9.43053693134315"><ele>1009.0</ele><time>2026-04-11T08:31:27Z</time></trkpt><trkpt lat="46.60205341624119" lon="9.430477128700707"><ele>1007.0</ele><time>2026-04-11T08:31:28Z</time></trkpt><trkpt lat="46.60226603745786" lon="9.430406763860278"><ele>1005.0</ele><time>2026-04-11T08:31:29Z</time></trkpt><trkpt lat="46.602483555988435" lon="9.430351045737176"><ele>1003.0</ele><time>2026-04-11T08:31:30Z</time></trkpt><trkpt lat="46.60269696190384" lon="9.430309387980076"><ele>1003.3333333333333</ele><time>2026-04-11T08:31:31Z</time></trkpt><trkpt lat="46.60289863095598" lon="9.43027848571763"><ele>1003.6666666666667</ele><time>2026-04-11T08:31:32Z</time></trkpt><trkpt lat="46.603096346810766" lon="9.430255944940596"><ele>1004.0</ele><time>2026-04-11T08:31:33Z</time></trkpt><trkpt lat="46.60328683618557" lon="9.430224284820818"><ele>1004.0</ele><time>2026-04-11T08:31:34Z</time></trkpt><trkpt lat="46.60347654600282" lon="9.430251813421608"><ele>1004.0</ele><time>2026-04-11T08:31:35Z</time></trkpt><trkpt lat="46.60366530781481" lon="9.430263347817489"><ele>1004.0</ele><time>2026-04-11T08:31:36Z</time></trkpt><trkpt lat="46.603847608851254" lon="9.430280524114378"><ele>1003.6666666666667</ele><time>2026-04-11T08:31:37Z</time></trkpt><trkpt lat="46.604020151713826" lon="9.430304286363292"><ele>1003.3333333333333</ele><time>2026-04-11T08:31:38Z</time></trkpt><trkpt lat="46.604187508319335" lon="9.430336022407104"><ele>1003.0</ele><time>2026-04-11T08:31:39Z</time></trkpt><trkpt lat="46.604348427250805" lon="9.430377539495169"><ele>1003.0</ele><time>2026-04-11T08:31:40Z</time></trkpt><trkpt lat="46.60449125416644" lon="9.43041885108692"><ele>1003.0</ele><time>2026-04-11T08:31:41Z</time></trkpt><trkpt lat="46.60461608716625" lon="9.430458468290999"><ele>1003.0</ele><time>2026-04-11T08:31:42Z</time></trkpt><trkpt lat="46.604742578101984" lon="9.430503059535472"><ele>1003.0</ele><time>2026-04-11T08:31:43Z</time></trkpt><trkpt lat="46.60487690965848" lon="9.430553987453683"><ele>1002.75</ele><time>2026-04-11T08:31:44Z</time></trkpt><trkpt lat="46.60500606958238" lon="9.430610525796647"><ele>1002.5</ele><time>2026-04-11T08:31:45Z</time></trkpt><trkpt lat="46.605133202282026" lon="9.430670098970053"><ele>1002.25</ele><time>2026-04-11T08:31:46Z</time></trkpt><trkpt lat="46.60526561585312" lon="9.430738158314675"><ele>1002.0</ele><time>2026-04-11T08:31:47Z</time></trkpt><trkpt lat="46.60540047425934" lon="9.430812656441026"><ele>1002.0</ele><time>2026-04-11T08:31:48Z</time></trkpt><trkpt lat="46.605529009894326" lon="9.430889211275478"><ele>1002.0</ele><time>2026-04-11T08:31:49Z</time></trkpt><trkpt lat="46.60565008508372" lon="9.430965729416663"><ele>1002.0</ele><time>2026-04-11T08:31:50Z</time></trkpt><trkpt lat="46.60577223365189" lon="9.431048685842383"><ele>1002.0</ele><time>2026-04-11T08:31:51Z</time></trkpt><trkpt lat="46.60589692696379" lon="9.431139864795702"><ele>1002.0</ele><time>2026-04-11T08:31:52Z</time></trkpt><trkpt lat="46.60603860335803" lon="9.431223683384667"><ele>1002.0</ele><time>2026-04-11T08:31:53Z</time></trkpt><trkpt lat="46.606175197987255" lon="9.431337641849273"><ele>1002.0</ele><time>2026-04-11T08:31:54Z</time></trkpt><trkpt lat="46.606311887885866" lon="9.43148236321167"><ele>1002.0</ele><time>2026-04-11T08:31:55Z</time></trkpt><trkpt lat="46.60646983334363" lon="9.431606219267792"><ele>1002.0</ele><time>2026-04-11T08:31:56Z</time></trkpt><trkpt lat="46.60661832070302" lon="9.431761461211435"><ele>1002.0</ele><time>2026-04-11T08:31:57Z</time></trkpt><trkpt lat="46.60676941959362" lon="9.431926502941774"><ele>1002.0</ele><time>2026-04-11T08:31:58Z</time></trkpt><trkpt lat="46.6069168254053" lon="9.432095836183109"><ele>1002.0</ele><time>2026-04-11T08:31:59Z</time></trkpt><trkpt lat="46.607062545202666" lon="9.432270572873515"><ele>1002.0</ele><time>2026-04-11T08:32:00Z</time></trkpt><trkpt lat="46.60721215317568" lon="9.432450407034525"><ele>1001.6666666666667</ele><time>2026-04-11T08:32:01Z</time></trkpt><trkpt lat="46.60737274109578" lon="9.432632064947057"><ele>1001.3333333333334</ele><time>2026-04-11T08:32:02Z</time></trkpt><trkpt lat="46.607548814196306" lon="9.432816642422925"><ele>1001.0</ele><time>2026-04-11T08:32:03Z</time></trkpt><trkpt lat="46.60773824646123" lon="9.432995049140004"><ele>1000.0</ele><time>2026-04-11T08:32:04Z</time></trkpt><trkpt lat="46.60794603416196" lon="9.433165222377607"><ele>999.0</ele><time>2026-04-11T08:32:05Z</time></trkpt><trkpt lat="46.6081619684112" lon="9.433331764734685"><ele>999.0</ele><time>2026-04-11T08:32:06Z</time></trkpt><trkpt lat="46.608387627835945" lon="9.433488041743322"><ele>999.0</ele><time>2026-04-11T08:32:07Z</time></trkpt><trkpt lat="46.60861719278301" lon="9.433623334191383"><ele>998.0</ele><time>2026-04-11T08:32:08Z</time></trkpt><trkpt lat="46.608853493408574" lon="9.433737219749718"><ele>997.0</ele><time>2026-04-11T08:32:09Z</time></trkpt><trkpt lat="46.60909535269544" lon="9.433834546032424"><ele>1000.0</ele><time>2026-04-11T08:32:10Z</time></trkpt><trkpt lat="46.60934129649617" lon="9.43391586226374"><ele>1003.0</ele><time>2026-04-11T08:32:11Z</time></trkpt><trkpt lat="46.60959168724384" lon="9.433975975623584"><ele>1003.5</ele><time>2026-04-11T08:32:12Z</time></trkpt><trkpt lat="46.60984484579149" lon="9.434013267506089"><ele>1004.0</ele><time>2026-04-11T08:32:13Z</time></trkpt><trkpt lat="46.610099239282704" lon="9.43403093322347"><ele>1004.5</ele><time>2026-04-11T08:32:14Z</time></trkpt><trkpt lat="46.61035620587248" lon="9.434028446027341"><ele>1005.0</ele><time>2026-04-11T08:32:15Z</time></trkpt><trkpt lat="46.61061620400706" lon="9.434003810369399"><ele>1005.0</ele><time>2026-04-11T08:32:16Z</time></trkpt><trkpt lat="46.61087795058674" lon="9.433980999134484"><ele>1005.0</ele><time>2026-04-11T08:32:17Z</time></trkpt><trkpt lat="46.611134513555754" lon="9.43389339840227"><ele>1006.5</ele><time>2026-04-11T08:32:18Z</time></trkpt><trkpt lat="46.611393874992906" lon="9.433813923908891"><ele>1008.0</ele><time>2026-04-11T08:32:19Z</time></trkpt><trkpt lat="46.611652204742526" lon="9.433717442340589"><ele>1004.0</ele><time>2026-04-11T08:32:20Z</time></trkpt><trkpt lat="46.61191110503147" lon="9.433613044719799"><ele>1000.0</ele><time>2026-04-11T08:32:21Z</time></trkpt><trkpt lat="46.61216658788531" lon="9.433507457673205"><ele>1000.0</ele><time>2026-04-11T08:32:21.999Z</time></trkpt><trkpt lat="46.61242195779173" lon="9.433397000347407"><ele>1000.0</ele><time>2026-04-11T08:32:22.999Z</time></trkpt><trkpt lat="46.6126814874477" lon="9.433286641682885"><ele>1000.5</ele><time>2026-04-11T08:32:23.999Z</time></trkpt><trkpt lat="46.612944396979834" lon="9.433182195454776"><ele>1001.0</ele><time>2026-04-11T08:32:24.999Z</time></trkpt><trkpt lat="46.61320874776555" lon="9.433087442765176"><ele>1001.0</ele><time>2026-04-11T08:32:25.999Z</time></trkpt><trkpt lat="46.61347749111807" lon="9.43300389726708"><ele>1001.0</ele><time>2026-04-11T08:32:26.999Z</time></trkpt><trkpt lat="46.61374987829528" lon="9.432937423103024"><ele>996.0</ele><time>2026-04-11T08:32:28Z</time></trkpt><trkpt lat="46.61402064606524" lon="9.432896778704649"><ele>991.0</ele><time>2026-04-11T08:32:29Z</time></trkpt><trkpt lat="46.61429424728044" lon="9.432885461430482"><ele>988.5</ele><time>2026-04-11T08:32:30Z</time></trkpt><trkpt lat="46.61457381871274" lon="9.43289974434144"><ele>986.0</ele><time>2026-04-11T08:32:31Z</time></trkpt><trkpt lat="46.614856600449976" lon="9.432941126251016"><ele>987.5</ele><time>2026-04-11T08:32:32Z</time></trkpt><trkpt lat="46.61513784778496" lon="9.433005192223959"><ele>989.0</ele><time>2026-04-11T08:32:33Z</time></trkpt><trkpt lat="46.61540753085829" lon="9.433078109196318"><ele>989.0</ele><time>2026-04-11T08:32:34Z</time></trkpt><trkpt lat="46.615669500653944" lon="9.43315570689194"><ele>989.0</ele><time>2026-04-11T08:32:35Z</time></trkpt><trkpt lat="46.615932601193954" lon="9.433236953944215"><ele>986.0</ele><time>2026-04-11T08:32:36Z</time></trkpt><trkpt lat="46.61619262204447" lon="9.433305206647004"><ele>983.0</ele><time>2026-04-11T08:32:37Z</time></trkpt><trkpt lat="46.616459124785806" lon="9.43335163898951"><ele>983.0</ele><time>2026-04-11T08:32:38Z</time></trkpt><trkpt lat="46.616731241642" lon="9.433375078237653"><ele>983.0</ele><time>2026-04-11T08:32:39Z</time></trkpt><trkpt lat="46.617005449897135" lon="9.433368624186215"><ele>982.0</ele><time>2026-04-11T08:32:40Z</time></trkpt><trkpt lat="46.617280687779505" lon="9.433344341195268"><ele>981.0</ele><time>2026-04-11T08:32:41Z</time></trkpt><trkpt lat="46.617556852065704" lon="9.43329386303775"><ele>982.5</ele><time>2026-04-11T08:32:42Z</time></trkpt><trkpt lat="46.61783125073357" lon="9.433224854078958"><ele>984.0</ele><time>2026-04-11T08:32:43Z</time></trkpt><trkpt lat="46.618095096726385" lon="9.433154237956897"><ele>984.0</ele><time>2026-04-11T08:32:44Z</time></trkpt><trkpt lat="46.618351285851915" lon="9.433086755248212"><ele>984.0</ele><time>2026-04-11T08:32:45Z</time></trkpt><trkpt lat="46.618612483020804" lon="9.43302242061212"><ele>983.5</ele><time>2026-04-11T08:32:46Z</time></trkpt><trkpt lat="46.61888018071186" lon="9.432986579359284"><ele>983.0</ele><time>2026-04-11T08:32:47Z</time></trkpt><trkpt lat="46.619147288740486" lon="9.432972254721514"><ele>983.0</ele><time>2026-04-11T08:32:48Z</time></trkpt><trkpt lat="46.619416293608374" lon="9.432979212205389"><ele>983.0</ele><time>2026-04-11T08:32:49Z</time></trkpt><trkpt lat="46.619684029831156" lon="9.433010593357745"><ele>979.0</ele><time>2026-04-11T08:32:50Z</time></trkpt><trkpt lat="46.61994938386913" lon="9.433062245174025"><ele>975.0</ele><time>2026-04-11T08:32:51Z</time></trkpt><trkpt lat="46.620204068751285" lon="9.43313421821729"><ele>968.0</ele><time>2026-04-11T08:32:52Z</time></trkpt><trkpt lat="46.620451597767655" lon="9.433236151822912"><ele>961.0</ele><time>2026-04-11T08:32:53Z</time></trkpt><trkpt lat="46.62069776875711" lon="9.433355279338908"><ele>961.0</ele><time>2026-04-11T08:32:54Z</time></trkpt><trkpt lat="46.620943577324034" lon="9.433489091179641"><ele>961.0</ele><time>2026-04-11T08:32:55Z</time></trkpt><trkpt lat="46.621191746679116" lon="9.433633732397015"><ele>963.5</ele><time>2026-04-11T08:32:56Z</time></trkpt><trkpt lat="46.621427220324115" lon="9.43379237011842"><ele>966.0</ele><time>2026-04-11T08:32:57Z</time></trkpt><trkpt lat="46.621656617088796" lon="9.4339509727447"><ele>966.0</ele><time>2026-04-11T08:32:58Z</time></trkpt><trkpt lat="46.621891308784626" lon="9.43410054524055"><ele>966.0</ele><time>2026-04-11T08:32:59Z</time></trkpt><trkpt lat="46.62212881277039" lon="9.434228662457265"><ele>961.0</ele><time>2026-04-11T08:33:00Z</time></trkpt><trkpt lat="46.62237127248788" lon="9.434330519024808"><ele>956.0</ele><time>2026-04-11T08:33:01Z</time></trkpt><trkpt lat="46.6226155776154" lon="9.434400139627819"><ele>952.5</ele><time>2026-04-11T08:33:02Z</time></trkpt><trkpt lat="46.622861575953806" lon="9.434454941044793"><ele>949.0</ele><time>2026-04-11T08:33:03Z</time></trkpt><trkpt lat="46.62310437326985" lon="9.434492620175451"><ele>949.0</ele><time>2026-04-11T08:33:04Z</time></trkpt><trkpt lat="46.62333976473091" lon="9.434525799245817"><ele>949.0</ele><time>2026-04-11T08:33:05Z</time></trkpt><trkpt lat="46.62357886379808" lon="9.434560064597932"><ele>948.5</ele><time>2026-04-11T08:33:06Z</time></trkpt><trkpt lat="46.62380263408594" lon="9.434616721062804"><ele>948.0</ele><time>2026-04-11T08:33:07Z</time></trkpt><trkpt lat="46.6240374592833" lon="9.434681960172878"><ele>948.0</ele><time>2026-04-11T08:33:08Z</time></trkpt><trkpt lat="46.62425681794689" lon="9.434751386346354"><ele>948.0</ele><time>2026-04-11T08:33:09Z</time></trkpt><trkpt lat="46.624457880638346" lon="9.43482306139937"><ele>948.0</ele><time>2026-04-11T08:33:10Z</time></trkpt><trkpt lat="46.62464995793143" lon="9.434910935086055"><ele>948.0</ele><time>2026-04-11T08:33:11Z</time></trkpt><trkpt lat="46.62483658626326" lon="9.435009725459965"><ele>948.0</ele><time>2026-04-11T08:33:12Z</time></trkpt><trkpt lat="46.625000799932316" lon="9.435110309544346"><ele>948.0</ele><time>2026-04-11T08:33:13Z</time></trkpt><trkpt lat="46.62516197322955" lon="9.43522074446237"><ele>948.0</ele><time>2026-04-11T08:33:14Z</time></trkpt><trkpt lat="46.62530972983774" lon="9.435334585842108"><ele>948.0</ele><time>2026-04-11T08:33:15Z</time></trkpt><trkpt lat="46.62544993025376" lon="9.435455189529497"><ele>948.0</ele><time>2026-04-11T08:33:16Z</time></trkpt><trkpt lat="46.62559124367688" lon="9.435573337872581"><ele>948.6666666666667</ele><time>2026-04-11T08:33:17Z</time></trkpt><trkpt lat="46.625733985712884" lon="9.435694849414002"><ele>949.3333333333334</ele><time>2026-04-11T08:33:18Z</time></trkpt><trkpt lat="46.62587968564661" lon="9.435830733697328"><ele>950.0</ele><time>2026-04-11T08:33:19Z</time></trkpt><trkpt lat="46.62603666533344" lon="9.43592839853237"><ele>954.0</ele><time>2026-04-11T08:33:20Z</time></trkpt><trkpt lat="46.62618537304196" lon="9.436048108827997"><ele>958.0</ele><time>2026-04-11T08:33:21Z</time></trkpt><trkpt lat="46.62633212845928" lon="9.436162814762023"><ele>962.0</ele><time>2026-04-11T08:33:22Z</time></trkpt><trkpt lat="46.62647727056549" lon="9.436275437526634"><ele>955.6666666666667</ele><time>2026-04-11T08:33:23Z</time></trkpt><trkpt lat="46.62662088659808" lon="9.436390234493597"><ele>949.3333333333333</ele><time>2026-04-11T08:33:24Z</time></trkpt><trkpt lat="46.62676492039136" lon="9.43650605796164"><ele>943.0</ele><time>2026-04-11T08:33:25Z</time></trkpt><trkpt lat="46.62690797618096" lon="9.436621509300656"><ele>944.0</ele><time>2026-04-11T08:33:26Z</time></trkpt><trkpt lat="46.62705484883435" lon="9.436739045994157"><ele>945.0</ele><time>2026-04-11T08:33:27Z</time></trkpt><trkpt lat="46.627204754282" lon="9.436858488029749"><ele>946.0</ele><time>2026-04-11T08:33:28Z</time></trkpt><trkpt lat="46.62735505298268" lon="9.436976538871228"><ele>946.0</ele><time>2026-04-11T08:33:29Z</time></trkpt><trkpt lat="46.627498522777984" lon="9.437093840946751"><ele>946.0</ele><time>2026-04-11T08:33:30Z</time></trkpt><trkpt lat="46.62763990513653" lon="9.437207906524732"><ele>946.0</ele><time>2026-04-11T08:33:31Z</time></trkpt><trkpt lat="46.62777923354425" lon="9.437320286782308"><ele>944.6666666666666</ele><time>2026-04-11T08:33:32Z</time></trkpt><trkpt lat="46.62791146241302" lon="9.437444034586001"><ele>943.3333333333333</ele><time>2026-04-11T08:33:33Z</time></trkpt><trkpt lat="46.62803934955177" lon="9.437574848866612"><ele>942.0</ele><time>2026-04-11T08:33:34Z</time></trkpt><trkpt lat="46.6281673917624" lon="9.437710744493922"><ele>942.0</ele><time>2026-04-11T08:33:35Z</time></trkpt><trkpt lat="46.62830552823697" lon="9.437721427581439"><ele>942.0</ele><time>2026-04-11T08:33:36Z</time></trkpt><trkpt lat="46.628440680156956" lon="9.43781467946938"><ele>942.0</ele><time>2026-04-11T08:33:37Z</time></trkpt><trkpt lat="46.628589921036934" lon="9.437907419625898"><ele>941.6666666666667</ele><time>2026-04-11T08:33:38Z</time></trkpt><trkpt lat="46.628741840484466" lon="9.437998938370892"><ele>941.3333333333334</ele><time>2026-04-11T08:33:39Z</time></trkpt><trkpt lat="46.62890031294423" lon="9.438090372124844"><ele>941.0</ele><time>2026-04-11T08:33:40Z</time></trkpt><trkpt lat="46.62905981238937" lon="9.438169998344122"><ele>941.0</ele><time>2026-04-11T08:33:41Z</time></trkpt><trkpt lat="46.62922772657723" lon="9.438250244871853"><ele>941.0</ele><time>2026-04-11T08:33:42Z</time></trkpt><trkpt lat="46.629401395105866" lon="9.438322109930075"><ele>941.0</ele><time>2026-04-11T08:33:43Z</time></trkpt><trkpt lat="46.62957734198247" lon="9.43838868421119"><ele>940.6666666666667</ele><time>2026-04-11T08:33:44Z</time></trkpt><trkpt lat="46.62975593962694" lon="9.438449233541109"><ele>940.3333333333333</ele><time>2026-04-11T08:33:45Z</time></trkpt><trkpt lat="46.629942567923344" lon="9.43850633640989"><ele>940.0</ele><time>2026-04-11T08:33:46Z</time></trkpt><trkpt lat="46.63012496033805" lon="9.438555763304109"><ele>940.6666666666666</ele><time>2026-04-11T08:33:47Z</time></trkpt><trkpt lat="46.63032070211789" lon="9.438604244853924"><ele>941.3333333333333</ele><time>2026-04-11T08:33:48Z</time></trkpt><trkpt lat="46.630510611632744" lon="9.438631885630327"><ele>942.0</ele><time>2026-04-11T08:33:49Z</time></trkpt><trkpt lat="46.63070113064591" lon="9.438654716677073"><ele>942.0</ele><time>2026-04-11T08:33:50Z</time></trkpt><trkpt lat="46.630899215988315" lon="9.438667345394489"><ele>942.0</ele><time>2026-04-11T08:33:51Z</time></trkpt><trkpt lat="46.631097245212416" lon="9.43866931394474"><ele>942.0</ele><time>2026-04-11T08:33:52Z</time></trkpt><trkpt lat="46.631294142495335" lon="9.438662743425304"><ele>943.0</ele><time>2026-04-11T08:33:53Z</time></trkpt><trkpt lat="46.63148531000842" lon="9.438645814387195"><ele>944.0</ele><time>2026-04-11T08:33:54Z</time></trkpt><trkpt lat="46.63167281104375" lon="9.43863578626135"><ele>945.0</ele><time>2026-04-11T08:33:55Z</time></trkpt><trkpt lat="46.63185949049152" lon="9.43860823361587"><ele>944.6666666666667</ele><time>2026-04-11T08:33:56Z</time></trkpt><trkpt lat="46.63204091011539" lon="9.438567675938746"><ele>944.3333333333334</ele><time>2026-04-11T08:33:57Z</time></trkpt><trkpt lat="46.632212035662945" lon="9.438514566767477"><ele>944.0</ele><time>2026-04-11T08:33:58Z</time></trkpt><trkpt lat="46.632376698764176" lon="9.438468744126085"><ele>944.0</ele><time>2026-04-11T08:33:59Z</time></trkpt><trkpt lat="46.63253807233334" lon="9.438423335420788"><ele>944.0</ele><time>2026-04-11T08:34:00Z</time></trkpt><trkpt lat="46.63269926978031" lon="9.438377745234005"><ele>944.0</ele><time>2026-04-11T08:34:01Z</time></trkpt><trkpt lat="46.632855559215834" lon="9.438334663754594"><ele>943.0</ele><time>2026-04-11T08:34:02Z</time></trkpt><trkpt lat="46.633011899748304" lon="9.438299710351274"><ele>942.0</ele><time>2026-04-11T08:34:03Z</time></trkpt><trkpt lat="46.63317566297586" lon="9.438273852288065"><ele>941.0</ele><time>2026-04-11T08:34:04Z</time></trkpt><trkpt lat="46.63334268409179" lon="9.438246858195448"><ele>941.0</ele><time>2026-04-11T08:34:05Z</time></trkpt><trkpt lat="46.63351646730589" lon="9.43823190654188"><ele>941.0</ele><time>2026-04-11T08:34:06Z</time></trkpt><trkpt lat="46.63369276823687" lon="9.438230776726733"><ele>941.0</ele><time>2026-04-11T08:34:07Z</time></trkpt><trkpt lat="46.63386035921982" lon="9.438233993077038"><ele>941.6666666666667</ele><time>2026-04-11T08:34:08Z</time></trkpt><trkpt lat="46.634021095626046" lon="9.438249641824697"><ele>942.3333333333333</ele><time>2026-04-11T08:34:09Z</time></trkpt><trkpt lat="46.63418541182274" lon="9.438272758947837"><ele>943.0</ele><time>2026-04-11T08:34:10Z</time></trkpt><trkpt lat="46.634353008231955" lon="9.4383044379665"><ele>942.3333333333333</ele><time>2026-04-11T08:34:11Z</time></trkpt><trkpt lat="46.6345279088145" lon="9.438344097197911"><ele>941.6666666666667</ele><time>2026-04-11T08:34:12Z</time></trkpt><trkpt lat="46.63470784209703" lon="9.438397248361657"><ele>941.0</ele><time>2026-04-11T08:34:13Z</time></trkpt><trkpt lat="46.63489117861847" lon="9.43846383499071"><ele>941.0</ele><time>2026-04-11T08:34:14Z</time></trkpt><trkpt lat="46.635075995420394" lon="9.438540694150431"><ele>941.0</ele><time>2026-04-11T08:34:15Z</time></trkpt><trkpt lat="46.63526323324943" lon="9.438632919267826"><ele>941.0</ele><time>2026-04-11T08:34:16Z</time></trkpt><trkpt lat="46.63545373275271" lon="9.438741484843648"><ele>938.0</ele><time>2026-04-11T08:34:17Z</time></trkpt><trkpt lat="46.63564762959867" lon="9.438868367073582"><ele>935.0</ele><time>2026-04-11T08:34:18Z</time></trkpt><trkpt lat="46.635839648551496" lon="9.43901578163635"><ele>932.0</ele><time>2026-04-11T08:34:19Z</time></trkpt><trkpt lat="46.636029934640426" lon="9.439171922033287"><ele>932.3333333333334</ele><time>2026-04-11T08:34:20Z</time></trkpt><trkpt lat="46.636218504924244" lon="9.439339577975058"><ele>932.6666666666667</ele><time>2026-04-11T08:34:21Z</time></trkpt><trkpt lat="46.636407683564805" lon="9.43951008900202"><ele>933.0</ele><time>2026-04-11T08:34:21.999Z</time></trkpt><trkpt lat="46.636586754892036" lon="9.439679134438315"><ele>931.6666666666667</ele><time>2026-04-11T08:34:22.999Z</time></trkpt><trkpt lat="46.63676487467122" lon="9.439840354552148"><ele>930.3333333333334</ele><time>2026-04-11T08:34:23.999Z</time></trkpt><trkpt lat="46.63694265776049" lon="9.43998984516445"><ele>929.0</ele><time>2026-04-11T08:34:24.999Z</time></trkpt><trkpt lat="46.63711939201452" lon="9.440125746533703"><ele>929.0</ele><time>2026-04-11T08:34:25.999Z</time></trkpt><trkpt lat="46.63729607499862" lon="9.440246623182704"><ele>929.0</ele><time>2026-04-11T08:34:26.999Z</time></trkpt><trkpt lat="46.63746896873246" lon="9.440355428244898"><ele>929.0</ele><time>2026-04-11T08:34:27.999Z</time></trkpt><trkpt lat="46.63764211720705" lon="9.440445446606011"><ele>928.6666666666667</ele><time>2026-04-11T08:34:28.999Z</time></trkpt><trkpt lat="46.637815143362" lon="9.440525853757963"><ele>928.3333333333333</ele><time>2026-04-11T08:34:29.999Z</time></trkpt><trkpt lat="46.63799177731042" lon="9.440590693273524"><ele>928.0</ele><time>2026-04-11T08:34:30.999Z</time></trkpt><trkpt lat="46.638172154899365" lon="9.440648219149061"><ele>928.0</ele><time>2026-04-11T08:34:31.999Z</time></trkpt><trkpt lat="46.63835209822061" lon="9.440693890925672"><ele>928.0</ele><time>2026-04-11T08:34:33Z</time></trkpt><trkpt lat="46.6385313985513" lon="9.440722896170257"><ele>928.0</ele><time>2026-04-11T08:34:34Z</time></trkpt><trkpt lat="46.63871058591128" lon="9.44074497976952"><ele>927.3333333333333</ele><time>2026-04-11T08:34:35Z</time></trkpt><trkpt lat="46.63888803722932" lon="9.440761616822995"><ele>926.6666666666667</ele><time>2026-04-11T08:34:36Z</time></trkpt><trkpt lat="46.63906189421356" lon="9.440771608439038"><ele>926.0</ele><time>2026-04-11T08:34:37Z</time></trkpt><trkpt lat="46.63923725982518" lon="9.440778306251717"><ele>926.0</ele><time>2026-04-11T08:34:38Z</time></trkpt><trkpt lat="46.639414485900744" lon="9.440787290824725"><ele>926.0</ele><time>2026-04-11T08:34:39Z</time></trkpt><trkpt lat="46.63959109766467" lon="9.440805545799588"><ele>926.0</ele><time>2026-04-11T08:34:40Z</time></trkpt><trkpt lat="46.63977026270585" lon="9.440833801870426"><ele>926.0</ele><time>2026-04-11T08:34:41Z</time></trkpt><trkpt lat="46.6399506691241" lon="9.440871079621504"><ele>926.0</ele><time>2026-04-11T08:34:42Z</time></trkpt><trkpt lat="46.64012931231176" lon="9.440922487754344"><ele>926.0</ele><time>2026-04-11T08:34:43Z</time></trkpt><trkpt lat="46.64030866165381" lon="9.440979595214404"><ele>925.3333333333334</ele><time>2026-04-11T08:34:44Z</time></trkpt><trkpt lat="46.64048313146959" lon="9.441059472587702"><ele>924.6666666666667</ele><time>2026-04-11T08:34:45Z</time></trkpt><trkpt lat="46.64065414289899" lon="9.441149340138304"><ele>924.0</ele><time>2026-04-11T08:34:46Z</time></trkpt><trkpt lat="46.640821423302846" lon="9.44125178185941"><ele>922.6666666666667</ele><time>2026-04-11T08:34:47Z</time></trkpt><trkpt lat="46.64098662569931" lon="9.441364567053837"><ele>921.3333333333334</ele><time>2026-04-11T08:34:48Z</time></trkpt><trkpt lat="46.64114960988812" lon="9.4414933212654"><ele>920.0</ele><time>2026-04-11T08:34:49Z</time></trkpt><trkpt lat="46.6413099348967" lon="9.441633121620782"><ele>919.0</ele><time>2026-04-11T08:34:50Z</time></trkpt><trkpt lat="46.64146305170505" lon="9.441791059004634"><ele>918.0</ele><time>2026-04-11T08:34:51Z</time></trkpt><trkpt lat="46.641616278071695" lon="9.441962153533373"><ele>917.0</ele><time>2026-04-11T08:34:52Z</time></trkpt><trkpt lat="46.641763602967956" lon="9.442144108318661"><ele>917.3333333333334</ele><time>2026-04-11T08:34:53Z</time></trkpt><trkpt lat="46.64190042815149" lon="9.44233462360922"><ele>917.6666666666667</ele><time>2026-04-11T08:34:54Z</time></trkpt><trkpt lat="46.642034882303435" lon="9.442538034188308"><ele>918.0</ele><time>2026-04-11T08:34:55Z</time></trkpt><trkpt lat="46.64216294838538" lon="9.4427562349352"><ele>920.3333333333333</ele><time>2026-04-11T08:34:56Z</time></trkpt><trkpt lat="46.64228398595176" lon="9.442982581887119"><ele>922.6666666666666</ele><time>2026-04-11T08:34:57Z</time></trkpt><trkpt lat="46.64239585554265" lon="9.443220350658452"><ele>925.0</ele><time>2026-04-11T08:34:58Z</time></trkpt><trkpt lat="46.64250861324169" lon="9.443465047549216"><ele>925.0</ele><time>2026-04-11T08:34:59Z</time></trkpt><trkpt lat="46.64261692234279" lon="9.443717551991602"><ele>925.0</ele><time>2026-04-11T08:35:00Z</time></trkpt><trkpt lat="46.64271970852969" lon="9.443969266009642"><ele>925.0</ele><time>2026-04-11T08:35:01Z</time></trkpt><trkpt lat="46.642821659227565" lon="9.444209072775498"><ele>922.6666666666666</ele><time>2026-04-11T08:35:02Z</time></trkpt><trkpt lat="46.64292332796983" lon="9.444442447090115"><ele>920.3333333333333</ele><time>2026-04-11T08:35:03Z</time></trkpt><trkpt lat="46.64302193507634" lon="9.44467590171976"><ele>918.0</ele><time>2026-04-11T08:35:04Z</time></trkpt><trkpt lat="46.64312215856921" lon="9.444907348347964"><ele>917.3333333333333</ele><time>2026-04-11T08:35:05Z</time></trkpt><trkpt lat="46.64322641825094" lon="9.445134332471667"><ele>916.6666666666666</ele><time>2026-04-11T08:35:06Z</time></trkpt><trkpt lat="46.6433325605941" lon="9.445349425549436"><ele>916.0</ele><time>2026-04-11T08:35:07Z</time></trkpt><trkpt lat="46.64344160612754" lon="9.44555423982284"><ele>914.3333333333333</ele><time>2026-04-11T08:35:08Z</time></trkpt><trkpt lat="46.643552524248705" lon="9.445761112405993"><ele>912.6666666666667</ele><time>2026-04-11T08:35:09Z</time></trkpt><trkpt lat="46.64367154933473" lon="9.44595842797143"><ele>911.0</ele><time>2026-04-11T08:35:10Z</time></trkpt><trkpt lat="46.64379595141237" lon="9.44615007183952"><ele>915.0</ele><time>2026-04-11T08:35:11Z</time></trkpt><trkpt lat="46.64392744167994" lon="9.446335719393067"><ele>919.0</ele><time>2026-04-11T08:35:12Z</time></trkpt><trkpt lat="46.644057800516784" lon="9.446514315688963"><ele>923.0</ele><time>2026-04-11T08:35:13Z</time></trkpt><trkpt lat="46.644194347839004" lon="9.446683007462893"><ele>923.0</ele><time>2026-04-11T08:35:14Z</time></trkpt><trkpt lat="46.64432907132694" lon="9.446836155118131"><ele>923.0</ele><time>2026-04-11T08:35:15Z</time></trkpt><trkpt lat="46.6444653575366" lon="9.446984604658033"><ele>923.0</ele><time>2026-04-11T08:35:16Z</time></trkpt><trkpt lat="46.64460713584026" lon="9.447128349461478"><ele>924.3333333333334</ele><time>2026-04-11T08:35:17Z</time></trkpt><trkpt lat="46.644754695189285" lon="9.447259590307526"><ele>925.6666666666667</ele><time>2026-04-11T08:35:18Z</time></trkpt><trkpt lat="46.64490125597442" lon="9.447387099477954"><ele>927.0</ele><time>2026-04-11T08:35:19Z</time></trkpt><trkpt lat="46.64505042206696" lon="9.447507973557414"><ele>927.0</ele><time>2026-04-11T08:35:20Z</time></trkpt><trkpt lat="46.645190988552145" lon="9.447645113640023"><ele>927.0</ele><time>2026-04-11T08:35:21Z</time></trkpt><trkpt lat="46.64533999693915" lon="9.44774973097215"><ele>927.0</ele><time>2026-04-11T08:35:22Z</time></trkpt><trkpt lat="46.64549619596878" lon="9.447846577418728"><ele>925.0</ele><time>2026-04-11T08:35:23Z</time></trkpt><trkpt lat="46.645642869348954" lon="9.44792695963578"><ele>923.0</ele><time>2026-04-11T08:35:24Z</time></trkpt><trkpt lat="46.6457791949977" lon="9.44802176338389"><ele>921.0</ele><time>2026-04-11T08:35:25Z</time></trkpt><trkpt lat="46.64592616443484" lon="9.448119719641417"><ele>931.0</ele><time>2026-04-11T08:35:26Z</time></trkpt><trkpt lat="46.64606682194769" lon="9.44822062317123"><ele>941.0</ele><time>2026-04-11T08:35:27Z</time></trkpt><trkpt lat="46.64622457271946" lon="9.44833208754097"><ele>951.0</ele><time>2026-04-11T08:35:28Z</time></trkpt><trkpt lat="46.646407651923084" lon="9.448371617572793"><ele>951.0</ele><time>2026-04-11T08:35:29.068Z</time></trkpt><trkpt lat="46.64656054537148" lon="9.448413052113144"><ele>951.0</ele><time>2026-04-11T08:35:30.054Z</time></trkpt><trkpt lat="46.64671729490309" lon="9.448450101894672"><ele>951.0</ele><time>2026-04-11T08:35:31.054Z</time></trkpt><trkpt lat="46.64686537069225" lon="9.448473330920969"><ele>900.0</ele><time>2026-04-11T08:35:32.053Z</time></trkpt><trkpt lat="46.64884835856545" lon="9.448684547909076"><ele>900.0</ele><time>2026-04-11T08:35:35.187Z</time></trkpt><trkpt lat="46.64854551371263" lon="9.448417909221448"><ele>900.0</ele><time>2026-04-11T08:35:41.027Z</time></trkpt><trkpt lat="46.648680864539394" lon="9.448543310825324"><ele>900.0</ele><time>2026-04-11T08:35:42.024Z</time></trkpt><trkpt lat="46.64881114821355" lon="9.44868961135783"><ele>900.0</ele><time>2026-04-11T08:35:43.024Z</time></trkpt><trkpt lat="46.64896200533956" lon="9.448776307965101"><ele>900.0</ele><time>2026-04-11T08:35:44Z</time></trkpt><trkpt lat="46.64921613905799" lon="9.448960011482598"><ele>903.6666666666667</ele><time>2026-04-11T08:35:45Z</time></trkpt><trkpt lat="46.64939171923327" lon="9.449027945597978"><ele>907.3333333333334</ele><time>2026-04-11T08:35:46Z</time></trkpt><trkpt lat="46.64955123208177" lon="9.44913092787438"><ele>911.0</ele><time>2026-04-11T08:35:47Z</time></trkpt><trkpt lat="46.64970457667282" lon="9.44920396179115"><ele>911.0</ele><time>2026-04-11T08:35:48Z</time></trkpt><trkpt lat="46.64985425678928" lon="9.449285358163756"><ele>911.0</ele><time>2026-04-11T08:35:49Z</time></trkpt><trkpt lat="46.649999672222854" lon="9.449395906192303"><ele>911.0</ele><time>2026-04-11T08:35:50Z</time></trkpt><trkpt lat="46.65014542589406" lon="9.449464692948371"><ele>911.0</ele><time>2026-04-11T08:35:51Z</time></trkpt><trkpt lat="46.65027612162911" lon="9.449550221454148"><ele>911.0</ele><time>2026-04-11T08:35:52Z</time></trkpt><trkpt lat="46.650414138244926" lon="9.44967731409668"><ele>911.0</ele><time>2026-04-11T08:35:53Z</time></trkpt><trkpt lat="46.65054078779995" lon="9.449781471426123"><ele>912.5</ele><time>2026-04-11T08:35:54Z</time></trkpt><trkpt lat="46.650668388104656" lon="9.449898079334625"><ele>914.0</ele><time>2026-04-11T08:35:55Z</time></trkpt><trkpt lat="46.65078993547873" lon="9.450019612317496"><ele>915.5</ele><time>2026-04-11T08:35:56Z</time></trkpt><trkpt lat="46.65090849992115" lon="9.450156233746315"><ele>917.0</ele><time>2026-04-11T08:35:57Z</time></trkpt><trkpt lat="46.65103009375187" lon="9.450312383298312"><ele>919.0</ele><time>2026-04-11T08:35:58Z</time></trkpt><trkpt lat="46.651150586694186" lon="9.45046301160478"><ele>921.0</ele><time>2026-04-11T08:35:59Z</time></trkpt><trkpt lat="46.65128447700764" lon="9.450582746018487"><ele>923.0</ele><time>2026-04-11T08:36:00Z</time></trkpt><trkpt lat="46.651410277806214" lon="9.450718676829803"><ele>923.0</ele><time>2026-04-11T08:36:01Z</time></trkpt><trkpt lat="46.651548280294605" lon="9.450852435075355"><ele>923.0</ele><time>2026-04-11T08:36:02Z</time></trkpt><trkpt lat="46.65170008304906" lon="9.450972549932342"><ele>923.0</ele><time>2026-04-11T08:36:03Z</time></trkpt><trkpt lat="46.65186476250857" lon="9.451076814560789"><ele>928.0</ele><time>2026-04-11T08:36:04Z</time></trkpt><trkpt lat="46.65202998092828" lon="9.451170604224641"><ele>933.0</ele><time>2026-04-11T08:36:05Z</time></trkpt><trkpt lat="46.6522010873404" lon="9.45124613192526"><ele>938.0</ele><time>2026-04-11T08:36:06Z</time></trkpt><trkpt lat="46.65237806384562" lon="9.451311992686277"><ele>938.0</ele><time>2026-04-11T08:36:07Z</time></trkpt><trkpt lat="46.65255844555227" lon="9.45137558137565"><ele>938.0</ele><time>2026-04-11T08:36:08Z</time></trkpt><trkpt lat="46.652716285700784" lon="9.451434289498396"><ele>938.0</ele><time>2026-04-11T08:36:09Z</time></trkpt><trkpt lat="46.65287736126292" lon="9.451493518666084"><ele>932.3333333333334</ele><time>2026-04-11T08:36:10Z</time></trkpt><trkpt lat="46.653034323283386" lon="9.45157481026813"><ele>926.6666666666667</ele><time>2026-04-11T08:36:11Z</time></trkpt><trkpt lat="46.65320184801015" lon="9.45161465632004"><ele>921.0</ele><time>2026-04-11T08:36:12Z</time></trkpt><trkpt lat="46.65336842323889" lon="9.451682491356125"><ele>921.0</ele><time>2026-04-11T08:36:13Z</time></trkpt><trkpt lat="46.65353169362388" lon="9.45174870356603"><ele>921.0</ele><time>2026-04-11T08:36:14Z</time></trkpt><trkpt lat="46.65369898835288" lon="9.451808683618172"><ele>921.0</ele><time>2026-04-11T08:36:15Z</time></trkpt><trkpt lat="46.65385526756408" lon="9.451891073961816"><ele>928.6666666666667</ele><time>2026-04-11T08:36:16Z</time></trkpt><trkpt lat="46.65401775590486" lon="9.451949546550365"><ele>936.3333333333334</ele><time>2026-04-11T08:36:17Z</time></trkpt><trkpt lat="46.65418035340834" lon="9.452012832978113"><ele>944.0</ele><time>2026-04-11T08:36:18Z</time></trkpt><trkpt lat="46.65434422527349" lon="9.45207866059435"><ele>973.6666666666667</ele><time>2026-04-11T08:36:19Z</time></trkpt><trkpt lat="46.65450810703564" lon="9.452140494630477"><ele>1003.3333333333333</ele><time>2026-04-11T08:36:20Z</time></trkpt><trkpt lat="46.65467860885592" lon="9.452200581205204"><ele>1033.0</ele><time>2026-04-11T08:36:21Z</time></trkpt><trkpt lat="46.654864368126205" lon="9.452261459759008"><ele>1033.0</ele><time>2026-04-11T08:36:22.07Z</time></trkpt><trkpt lat="46.655037478118125" lon="9.452303011564746"><ele>1033.0</ele><time>2026-04-11T08:36:23.054Z</time></trkpt><trkpt lat="46.65677194515606" lon="9.451095394783632"><ele>1033.0</ele><time>2026-04-11T08:36:26.186Z</time></trkpt><trkpt lat="46.65705084144066" lon="9.450171210040157"><ele>1033.0</ele><time>2026-04-11T08:36:36.999Z</time></trkpt><trkpt lat="46.65713596629779" lon="9.44979887898164"><ele>1033.0</ele><time>2026-04-11T08:36:37.999Z</time></trkpt><trkpt lat="46.65723493534867" lon="9.449586987096197"><ele>1033.0</ele><time>2026-04-11T08:36:38.999Z</time></trkpt><trkpt lat="46.657276836110384" lon="9.449466903227824"><ele>1033.0</ele><time>2026-04-11T08:36:39.999Z</time></trkpt><trkpt lat="46.65736985029047" lon="9.449256839171307"><ele>1033.0</ele><time>2026-04-11T08:36:40.999Z</time></trkpt><trkpt lat="46.65747711936634" lon="9.44905371650907"><ele>1033.0</ele><time>2026-04-11T08:36:41.999Z</time></trkpt><trkpt lat="46.6575971806961" lon="9.448868665732816"><ele>1033.0</ele><time>2026-04-11T08:36:43Z</time></trkpt><trkpt lat="46.65773535766657" lon="9.448720788027671"><ele>1033.0</ele><time>2026-04-11T08:36:44Z</time></trkpt><trkpt lat="46.65788325343234" lon="9.448595549115595"><ele>1033.0</ele><time>2026-04-11T08:36:45Z</time></trkpt><trkpt lat="46.65803776981663" lon="9.448491009214298"><ele>1033.0</ele><time>2026-04-11T08:36:46Z</time></trkpt><trkpt lat="46.65819657932236" lon="9.448421773784506"><ele>1033.0</ele><time>2026-04-11T08:36:47Z</time></trkpt><trkpt lat="46.65835932012443" lon="9.448373627499224"><ele>1033.0</ele><time>2026-04-11T08:36:48Z</time></trkpt><trkpt lat="46.65852512899137" lon="9.448345095548527"><ele>1033.0</ele><time>2026-04-11T08:36:49Z</time></trkpt><trkpt lat="46.658698241519716" lon="9.448324954349628"><ele>1033.0</ele><time>2026-04-11T08:36:50Z</time></trkpt><trkpt lat="46.65887423331545" lon="9.448303976755756"><ele>1033.0</ele><time>2026-04-11T08:36:51Z</time></trkpt><trkpt lat="46.65904232983661" lon="9.448259176824164"><ele>1033.0</ele><time>2026-04-11T08:36:52Z</time></trkpt><trkpt lat="46.659213325664076" lon="9.448254425831072"><ele>1033.0</ele><time>2026-04-11T08:36:53Z</time></trkpt><trkpt lat="46.65938847558373" lon="9.448209217020864"><ele>1033.0</ele><time>2026-04-11T08:36:54Z</time></trkpt><trkpt lat="46.659566078238115" lon="9.448149047768348"><ele>1033.0</ele><time>2026-04-11T08:36:55Z</time></trkpt><trkpt lat="46.65972756462088" lon="9.448072946461794"><ele>1033.0</ele><time>2026-04-11T08:36:56Z</time></trkpt><trkpt lat="46.65988600685981" lon="9.447986867688506"><ele>1033.0</ele><time>2026-04-11T08:36:57Z</time></trkpt><trkpt lat="46.66004188952018" lon="9.447882299814259"><ele>1033.0</ele><time>2026-04-11T08:36:58Z</time></trkpt><trkpt lat="46.66019887808098" lon="9.447764352513701"><ele>1033.0</ele><time>2026-04-11T08:36:59Z</time></trkpt><trkpt lat="46.66035457098592" lon="9.44762671334173"><ele>1033.0</ele><time>2026-04-11T08:37:00Z</time></trkpt><trkpt lat="46.660499529188805" lon="9.44747640854881"><ele>1033.0</ele><time>2026-04-11T08:37:01Z</time></trkpt><trkpt lat="46.66064452803827" lon="9.447302204443686"><ele>1033.0</ele><time>2026-04-11T08:37:02.072Z</time></trkpt><trkpt lat="46.6607709569173" lon="9.447140196662163"><ele>1033.0</ele><time>2026-04-11T08:37:03.05Z</time></trkpt><trkpt lat="46.660900025781345" lon="9.446970371178038"><ele>1033.0</ele><time>2026-04-11T08:37:04.049Z</time></trkpt><trkpt lat="46.66267502762062" lon="9.445704551345585"><ele>885.0</ele><time>2026-04-11T08:37:07.186Z</time></trkpt><trkpt lat="46.665749758674565" lon="9.448140447621162"><ele>885.0</ele><time>2026-04-11T08:37:34Z</time></trkpt><trkpt lat="46.66585080871873" lon="9.448310305866919"><ele>885.0</ele><time>2026-04-11T08:37:35Z</time></trkpt><trkpt lat="46.66597757799551" lon="9.448414248415116"><ele>885.0</ele><time>2026-04-11T08:37:36Z</time></trkpt><trkpt lat="46.66609342160839" lon="9.44856239372164"><ele>885.6666666666667</ele><time>2026-04-11T08:37:37Z</time></trkpt><trkpt lat="46.6662127028442" lon="9.448753979120792"><ele>886.3333333333334</ele><time>2026-04-11T08:37:38Z</time></trkpt><trkpt lat="46.66637072697051" lon="9.448890133286667"><ele>887.0</ele><time>2026-04-11T08:37:39Z</time></trkpt><trkpt lat="46.66650447650114" lon="9.448997067302088"><ele>887.0</ele><time>2026-04-11T08:37:40Z</time></trkpt><trkpt lat="46.666610939179755" lon="9.449079107154812"><ele>887.0</ele><time>2026-04-11T08:37:41Z</time></trkpt><trkpt lat="46.666736456469614" lon="9.449175830482341"><ele>887.0</ele><time>2026-04-11T08:37:42Z</time></trkpt><trkpt lat="46.6668566954787" lon="9.44926848624838"><ele>887.0</ele><time>2026-04-11T08:37:43Z</time></trkpt><trkpt lat="46.666984573773135" lon="9.449367028858655"><ele>881.6666666666667</ele><time>2026-04-11T08:37:44Z</time></trkpt><trkpt lat="46.667114801931824" lon="9.449447131830741"><ele>876.3333333333333</ele><time>2026-04-11T08:37:45Z</time></trkpt><trkpt lat="46.66725143870297" lon="9.449549064956893"><ele>871.0</ele><time>2026-04-11T08:37:46Z</time></trkpt><trkpt lat="46.66738700560739" lon="9.449678268321366"><ele>871.0</ele><time>2026-04-11T08:37:47Z</time></trkpt><trkpt lat="46.66752479992176" lon="9.449784861494487"><ele>871.0</ele><time>2026-04-11T08:37:48Z</time></trkpt><trkpt lat="46.66766592212394" lon="9.449890935587133"><ele>871.0</ele><time>2026-04-11T08:37:49Z</time></trkpt><trkpt lat="46.667795359835644" lon="9.449980413391053"><ele>875.0</ele><time>2026-04-11T08:37:50Z</time></trkpt><trkpt lat="46.66792815989983" lon="9.450095910655499"><ele>879.0</ele><time>2026-04-11T08:37:51Z</time></trkpt><trkpt lat="46.66806981718079" lon="9.450245591399298"><ele>883.0</ele><time>2026-04-11T08:37:52Z</time></trkpt><trkpt lat="46.66820574089307" lon="9.450285075903288"><ele>883.0</ele><time>2026-04-11T08:37:53Z</time></trkpt><trkpt lat="46.66834512609648" lon="9.450299768383239"><ele>883.0</ele><time>2026-04-11T08:37:54Z</time></trkpt><trkpt lat="46.66857472695001" lon="9.450192573888376"><ele>883.0</ele><time>2026-04-11T08:37:55Z</time></trkpt><trkpt lat="46.66873327359339" lon="9.450162837749115"><ele>885.25</ele><time>2026-04-11T08:37:56Z</time></trkpt><trkpt lat="46.66888886804786" lon="9.450165644045068"><ele>887.5</ele><time>2026-04-11T08:37:57Z</time></trkpt><trkpt lat="46.66903587389868" lon="9.45017199129045"><ele>889.75</ele><time>2026-04-11T08:37:58Z</time></trkpt><trkpt lat="46.66917569554619" lon="9.45016475250155"><ele>892.0</ele><time>2026-04-11T08:37:59Z</time></trkpt><trkpt lat="46.669311232495815" lon="9.45016445949871"><ele>893.75</ele><time>2026-04-11T08:38:00Z</time></trkpt><trkpt lat="46.66944684935029" lon="9.450163923450544"><ele>895.5</ele><time>2026-04-11T08:38:01Z</time></trkpt><trkpt lat="46.6695812993616" lon="9.450132001885558"><ele>897.25</ele><time>2026-04-11T08:38:02Z</time></trkpt><trkpt lat="46.66971911300913" lon="9.450100904107623"><ele>899.0</ele><time>2026-04-11T08:38:03Z</time></trkpt><trkpt lat="46.66985810580772" lon="9.450067522894722"><ele>899.0</ele><time>2026-04-11T08:38:04Z</time></trkpt><trkpt lat="46.66999729128643" lon="9.450053805645352"><ele>899.0</ele><time>2026-04-11T08:38:05Z</time></trkpt><trkpt lat="46.670126545005544" lon="9.449999189089773"><ele>899.0</ele><time>2026-04-11T08:38:06Z</time></trkpt><trkpt lat="46.67026117834687" lon="9.449965045556874"><ele>899.0</ele><time>2026-04-11T08:38:07Z</time></trkpt><trkpt lat="46.670408082293974" lon="9.449921534628922"><ele>892.0</ele><time>2026-04-11T08:38:08Z</time></trkpt><trkpt lat="46.670556946642726" lon="9.449863854465333"><ele>885.0</ele><time>2026-04-11T08:38:09Z</time></trkpt><trkpt lat="46.670701695337456" lon="9.449792674244623"><ele>878.0</ele><time>2026-04-11T08:38:10Z</time></trkpt><trkpt lat="46.670834178121204" lon="9.449732843755227"><ele>871.0</ele><time>2026-04-11T08:38:11Z</time></trkpt><trkpt lat="46.67097867144403" lon="9.449652925793718"><ele>876.6666666666666</ele><time>2026-04-11T08:38:12Z</time></trkpt><trkpt lat="46.6711206852207" lon="9.449582525607207"><ele>882.3333333333333</ele><time>2026-04-11T08:38:13Z</time></trkpt><trkpt lat="46.67126255371681" lon="9.449508057061761"><ele>888.0</ele><time>2026-04-11T08:38:14Z</time></trkpt><trkpt lat="46.671409187042414" lon="9.449436431696066"><ele>888.0</ele><time>2026-04-11T08:38:15Z</time></trkpt><trkpt lat="46.671557150592434" lon="9.449359603628622"><ele>888.0</ele><time>2026-04-11T08:38:16Z</time></trkpt><trkpt lat="46.671703535752016" lon="9.449291488201352"><ele>888.0</ele><time>2026-04-11T08:38:17Z</time></trkpt><trkpt lat="46.67185312831124" lon="9.449215391580966"><ele>882.3333333333333</ele><time>2026-04-11T08:38:18Z</time></trkpt><trkpt lat="46.67199761239742" lon="9.449138945116566"><ele>876.6666666666666</ele><time>2026-04-11T08:38:19Z</time></trkpt><trkpt lat="46.67214139437539" lon="9.449059111421542"><ele>871.0</ele><time>2026-04-11T08:38:20Z</time></trkpt><trkpt lat="46.67228793571712" lon="9.448983980183417"><ele>871.0</ele><time>2026-04-11T08:38:21Z</time></trkpt><trkpt lat="46.67243480453064" lon="9.448905608136203"><ele>871.0</ele><time>2026-04-11T08:38:22Z</time></trkpt><trkpt lat="46.67258024620702" lon="9.44882190924713"><ele>871.0</ele><time>2026-04-11T08:38:23Z</time></trkpt><trkpt lat="46.67272213405379" lon="9.44873643610449"><ele>875.6666666666666</ele><time>2026-04-11T08:38:24Z</time></trkpt><trkpt lat="46.672863884845846" lon="9.448639239565694"><ele>880.3333333333333</ele><time>2026-04-11T08:38:25Z</time></trkpt><trkpt lat="46.67300637338968" lon="9.44854283683737"><ele>885.0</ele><time>2026-04-11T08:38:26Z</time></trkpt><trkpt lat="46.67313890043168" lon="9.448446766421837"><ele>885.0</ele><time>2026-04-11T08:38:27Z</time></trkpt><trkpt lat="46.673271067212205" lon="9.448353775561754"><ele>885.0</ele><time>2026-04-11T08:38:28Z</time></trkpt><trkpt lat="46.67340299947597" lon="9.448266008372622"><ele>885.0</ele><time>2026-04-11T08:38:29Z</time></trkpt><trkpt lat="46.67353402856499" lon="9.448183400564318"><ele>885.0</ele><time>2026-04-11T08:38:29.999Z</time></trkpt><trkpt lat="46.67367142307855" lon="9.44810589358673"><ele>883.3333333333333</ele><time>2026-04-11T08:38:30.999Z</time></trkpt><trkpt lat="46.67382036184997" lon="9.448038869252903"><ele>881.6666666666666</ele><time>2026-04-11T08:38:31.999Z</time></trkpt><trkpt lat="46.673987929580164" lon="9.447984381989881"><ele>880.0</ele><time>2026-04-11T08:38:32.999Z</time></trkpt><trkpt lat="46.67416696276999" lon="9.447944223739839"><ele>873.6666666666666</ele><time>2026-04-11T08:38:33.999Z</time></trkpt><trkpt lat="46.674351320950684" lon="9.447952474102012"><ele>867.3333333333333</ele><time>2026-04-11T08:38:34.999Z</time></trkpt><trkpt lat="46.67452949866497" lon="9.447977657603957"><ele>861.0</ele><time>2026-04-11T08:38:35.999Z</time></trkpt><trkpt lat="46.67469554852258" lon="9.448017791366022"><ele>861.0</ele><time>2026-04-11T08:38:36.999Z</time></trkpt><trkpt lat="46.674847039782705" lon="9.448064366287912"><ele>861.0</ele><time>2026-04-11T08:38:37.999Z</time></trkpt><trkpt lat="46.67500172196914" lon="9.4481157793672"><ele>861.0</ele><time>2026-04-11T08:38:38.999Z</time></trkpt><trkpt lat="46.67522326997069" lon="9.448189505635925"><ele>861.0</ele><time>2026-04-11T08:38:39.999Z</time></trkpt><trkpt lat="46.67541043335675" lon="9.448241276008195"><ele>861.0</ele><time>2026-04-11T08:38:40.999Z</time></trkpt><trkpt lat="46.67563028199151" lon="9.448338714598217"><ele>861.0</ele><time>2026-04-11T08:38:41.999Z</time></trkpt><trkpt lat="46.67582022289756" lon="9.448393700687314"><ele>861.0</ele><time>2026-04-11T08:38:42.999Z</time></trkpt><trkpt lat="46.67600752882803" lon="9.448442751955785"><ele>861.0</ele><time>2026-04-11T08:38:43.999Z</time></trkpt><trkpt lat="46.67619181355786" lon="9.448486007335186"><ele>861.0</ele><time>2026-04-11T08:38:44.999Z</time></trkpt><trkpt lat="46.67637575667687" lon="9.448518470371141"><ele>866.6666666666667</ele><time>2026-04-11T08:38:45.999Z</time></trkpt><trkpt lat="46.676561874664166" lon="9.448548102397408"><ele>872.3333333333334</ele><time>2026-04-11T08:38:46.999Z</time></trkpt><trkpt lat="46.67674599541163" lon="9.448570007234359"><ele>878.0</ele><time>2026-04-11T08:38:48Z</time></trkpt><trkpt lat="46.67692951690722" lon="9.448589631201385"><ele>886.6666666666667</ele><time>2026-04-11T08:38:49Z</time></trkpt><trkpt lat="46.6771124758822" lon="9.448594609630753"><ele>895.3333333333333</ele><time>2026-04-11T08:38:50Z</time></trkpt><trkpt lat="46.67728944792971" lon="9.448594220116181"><ele>904.0</ele><time>2026-04-11T08:38:51Z</time></trkpt><trkpt lat="46.677465037439994" lon="9.44858198237311"><ele>904.0</ele><time>2026-04-11T08:38:52.052Z</time></trkpt><trkpt lat="46.67762154818611" lon="9.448558426084919"><ele>904.0</ele><time>2026-04-11T08:38:53.048Z</time></trkpt><trkpt lat="46.677779086976145" lon="9.448527013854957"><ele>904.0</ele><time>2026-04-11T08:38:54.053Z</time></trkpt><trkpt lat="46.677930648556156" lon="9.448492685535864"><ele>1074.0</ele><time>2026-04-11T08:38:55.05Z</time></trkpt><trkpt lat="46.680375580960636" lon="9.44671132888508"><ele>1089.0</ele><time>2026-04-11T08:38:59.185Z</time></trkpt><trkpt lat="46.680896260984305" lon="9.445990208436205"><ele>1044.0</ele><time>2026-04-11T08:39:00.185Z</time></trkpt><trkpt lat="46.68134450661721" lon="9.445173104115398"><ele>1062.0</ele><time>2026-04-11T08:39:01.186Z</time></trkpt><trkpt lat="46.681719339333064" lon="9.444281898278103"><ele>1033.0</ele><time>2026-04-11T08:39:02.185Z</time></trkpt><trkpt lat="46.68202713947379" lon="9.443336950387636"><ele>1043.0</ele><time>2026-04-11T08:39:03.185Z</time></trkpt><trkpt lat="46.682205" lon="9.4427497"><ele>1053.0</ele><time>2026-04-11T08:39:04.186Z</time></trkpt><trkpt lat="46.69210125443698" lon="9.443902110014424"><ele>701.0</ele><time>2026-04-11T08:40:26.999Z</time></trkpt><trkpt lat="46.69191522490771" lon="9.440799872550677"><ele>702.3333333333333</ele><time>2026-04-11T08:40:27.999Z</time></trkpt><trkpt lat="46.69205353706321" lon="9.440908418756214"><ele>703.6666666666666</ele><time>2026-04-11T08:40:28.999Z</time></trkpt><trkpt lat="46.69217770057268" lon="9.441079180997882"><ele>705.0</ele><time>2026-04-11T08:40:29.999Z</time></trkpt><trkpt lat="46.692300466252135" lon="9.441209706526145"><ele>701.6666666666666</ele><time>2026-04-11T08:40:30.999Z</time></trkpt><trkpt lat="46.69241377380862" lon="9.441369120560497"><ele>698.3333333333333</ele><time>2026-04-11T08:40:31.999Z</time></trkpt><trkpt lat="46.69253527897073" lon="9.441534413463504"><ele>695.0</ele><time>2026-04-11T08:40:32.999Z</time></trkpt><trkpt lat="46.69264692516568" lon="9.441697705382138"><ele>695.0</ele><time>2026-04-11T08:40:33.999Z</time></trkpt><trkpt lat="46.6927512769022" lon="9.441884790413205"><ele>695.0</ele><time>2026-04-11T08:40:34.999Z</time></trkpt><trkpt lat="46.69286398169038" lon="9.442054509723807"><ele>695.0</ele><time>2026-04-11T08:40:35.999Z</time></trkpt><trkpt lat="46.69297204578953" lon="9.442246350299955"><ele>695.6666666666666</ele><time>2026-04-11T08:40:36.999Z</time></trkpt><trkpt lat="46.693083056525" lon="9.442458195818634"><ele>696.3333333333334</ele><time>2026-04-11T08:40:37.999Z</time></trkpt><trkpt lat="46.69321301468759" lon="9.442655265608224"><ele>697.0</ele><time>2026-04-11T08:40:38.999Z</time></trkpt><trkpt lat="46.69335563866081" lon="9.442845737621349"><ele>697.0</ele><time>2026-04-11T08:40:39.999Z</time></trkpt><trkpt lat="46.69348960845845" lon="9.442900350133424"><ele>697.0</ele><time>2026-04-11T08:40:40.999Z</time></trkpt><trkpt lat="46.693599848552665" lon="9.443066585333122"><ele>697.0</ele><time>2026-04-11T08:40:41.999Z</time></trkpt><trkpt lat="46.69371357611813" lon="9.443227584543898"><ele>694.6666666666667</ele><time>2026-04-11T08:40:42.999Z</time></trkpt><trkpt lat="46.693834312858165" lon="9.443402420313701"><ele>692.3333333333334</ele><time>2026-04-11T08:40:43.999Z</time></trkpt><trkpt lat="46.69395895751249" lon="9.44356800172266"><ele>690.0</ele><time>2026-04-11T08:40:44.999Z</time></trkpt><trkpt lat="46.69407932995658" lon="9.443735351814194"><ele>690.3333333333334</ele><time>2026-04-11T08:40:45.999Z</time></trkpt><trkpt lat="46.69420140290834" lon="9.443893132107448"><ele>690.6666666666667</ele><time>2026-04-11T08:40:46.999Z</time></trkpt><trkpt lat="46.694327311221556" lon="9.444059828779011"><ele>691.0</ele><time>2026-04-11T08:40:47.999Z</time></trkpt><trkpt lat="46.69445743831402" lon="9.444228323764314"><ele>691.0</ele><time>2026-04-11T08:40:48.999Z</time></trkpt><trkpt lat="46.694590650361754" lon="9.444382279451885"><ele>691.0</ele><time>2026-04-11T08:40:49.999Z</time></trkpt><trkpt lat="46.69473937329403" lon="9.444547580551616"><ele>691.0</ele><time>2026-04-11T08:40:50.999Z</time></trkpt><trkpt lat="46.694888939914" lon="9.444709908972145"><ele>692.3333333333334</ele><time>2026-04-11T08:40:51.999Z</time></trkpt><trkpt lat="46.69504638718984" lon="9.444870842345312"><ele>693.6666666666666</ele><time>2026-04-11T08:40:52.999Z</time></trkpt><trkpt lat="46.69520986093099" lon="9.445028961963999"><ele>695.0</ele><time>2026-04-11T08:40:54Z</time></trkpt><trkpt lat="46.69537401886531" lon="9.445182027556735"><ele>695.0</ele><time>2026-04-11T08:40:55Z</time></trkpt><trkpt lat="46.69553784476987" lon="9.445347269969874"><ele>695.0</ele><time>2026-04-11T08:40:56Z</time></trkpt><trkpt lat="46.695697315875265" lon="9.44550759872789"><ele>695.0</ele><time>2026-04-11T08:40:57Z</time></trkpt><trkpt lat="46.69585350622741" lon="9.44566934363001"><ele>693.3333333333333</ele><time>2026-04-11T08:40:58Z</time></trkpt><trkpt lat="46.696004354355246" lon="9.445820488522822"><ele>691.6666666666666</ele><time>2026-04-11T08:40:59Z</time></trkpt><trkpt lat="46.69614673351405" lon="9.445968606871723"><ele>690.0</ele><time>2026-04-11T08:41:00Z</time></trkpt><trkpt lat="46.696278297420335" lon="9.446108147044711"><ele>689.25</ele><time>2026-04-11T08:41:01Z</time></trkpt><trkpt lat="46.69639750507626" lon="9.446234762671443"><ele>688.5</ele><time>2026-04-11T08:41:02Z</time></trkpt><trkpt lat="46.6965007015959" lon="9.44633063511879"><ele>687.75</ele><time>2026-04-11T08:41:03Z</time></trkpt><trkpt lat="46.69658203293255" lon="9.446427804738752"><ele>687.0</ele><time>2026-04-11T08:41:04Z</time></trkpt><trkpt lat="46.69663817069335" lon="9.446527427247952"><ele>687.0</ele><time>2026-04-11T08:41:05Z</time></trkpt><trkpt lat="46.69667574805213" lon="9.446629127302483"><ele>687.0</ele><time>2026-04-11T08:41:06Z</time></trkpt><trkpt lat="46.69668147839378" lon="9.446811263391293"><ele>687.0</ele><time>2026-04-11T08:41:08Z</time></trkpt><trkpt lat="46.696691716713005" lon="9.44692692561296"><ele>687.0</ele><time>2026-04-11T08:41:09Z</time></trkpt><trkpt lat="46.69662030049291" lon="9.447089995609536"><ele>687.0</ele><time>2026-04-11T08:41:10Z</time></trkpt><trkpt lat="46.69656665311279" lon="9.447264492625756"><ele>687.0</ele><time>2026-04-11T08:41:11Z</time></trkpt><trkpt lat="46.69651988674642" lon="9.447442736395722"><ele>687.0</ele><time>2026-04-11T08:41:12Z</time></trkpt><trkpt lat="46.69646924060127" lon="9.447629744599212"><ele>687.0</ele><time>2026-04-11T08:41:13Z</time></trkpt><trkpt lat="46.696415890554924" lon="9.447827925027125"><ele>687.0</ele><time>2026-04-11T08:41:14Z</time></trkpt><trkpt lat="46.696355497636624" lon="9.448038998996841"><ele>687.6666666666666</ele><time>2026-04-11T08:41:15Z</time></trkpt><trkpt lat="46.69629266361369" lon="9.448260861615355"><ele>688.3333333333333</ele><time>2026-04-11T08:41:16Z</time></trkpt><trkpt lat="46.6962275582666" lon="9.448486451515254"><ele>689.0</ele><time>2026-04-11T08:41:17Z</time></trkpt><trkpt lat="46.69615749640988" lon="9.448714553169003"><ele>691.6666666666666</ele><time>2026-04-11T08:41:18Z</time></trkpt><trkpt lat="46.69608820355072" lon="9.448943922786821"><ele>694.3333333333334</ele><time>2026-04-11T08:41:19Z</time></trkpt><trkpt lat="46.696019965194004" lon="9.449172355660215"><ele>697.0</ele><time>2026-04-11T08:41:20Z</time></trkpt><trkpt lat="46.69594991577482" lon="9.449405327408837"><ele>718.6666666666667</ele><time>2026-04-11T08:41:21Z</time></trkpt><trkpt lat="46.69588009380376" lon="9.449640603865193"><ele>740.3333333333334</ele><time>2026-04-11T08:41:22Z</time></trkpt><trkpt lat="46.69581087551829" lon="9.4498844701198"><ele>762.0</ele><time>2026-04-11T08:41:23Z</time></trkpt><trkpt lat="46.69574290096693" lon="9.450116267358942"><ele>762.0</ele><time>2026-04-11T08:41:24Z</time></trkpt><trkpt lat="46.69567048307297" lon="9.450350706337192"><ele>762.0</ele><time>2026-04-11T08:41:25Z</time></trkpt><trkpt lat="46.69559853131927" lon="9.450590656849982"><ele>762.0</ele><time>2026-04-11T08:41:26Z</time></trkpt><trkpt lat="46.69553061748423" lon="9.450903545279644"><ele>769.3333333333333</ele><time>2026-04-11T08:41:27.07Z</time></trkpt><trkpt lat="46.69550517497587" lon="9.45116200648181"><ele>776.6666666666666</ele><time>2026-04-11T08:41:28.054Z</time></trkpt><trkpt lat="46.69547324676897" lon="9.451420139446505"><ele>784.0</ele><time>2026-04-11T08:41:29.056Z</time></trkpt><trkpt lat="46.69560026149301" lon="9.454355854182845"><ele>806.0</ele><time>2026-04-11T08:41:32.184Z</time></trkpt><trkpt lat="46.69564838929581" lon="9.454614133068771"><ele>828.0</ele><time>2026-04-11T08:41:33.184Z</time></trkpt><trkpt lat="46.69570161425023" lon="9.454870191382097"><ele>850.0</ele><time>2026-04-11T08:41:34.184Z</time></trkpt><trkpt lat="46.695759312181735" lon="9.455124274719994"><ele>854.6666666666666</ele><time>2026-04-11T08:41:35.184Z</time></trkpt><trkpt lat="46.69582520869721" lon="9.455374202207766"><ele>859.3333333333333</ele><time>2026-04-11T08:41:36.184Z</time></trkpt><trkpt lat="46.69589701642161" lon="9.455620597884835"><ele>864.0</ele><time>2026-04-11T08:41:37.184Z</time></trkpt><trkpt lat="46.69597395567976" lon="9.45586368550723"><ele>868.6666666666667</ele><time>2026-04-11T08:41:38.184Z</time></trkpt><trkpt lat="46.69605620222492" lon="9.456103247033239"><ele>873.3333333333334</ele><time>2026-04-11T08:41:39.185Z</time></trkpt><trkpt lat="46.69614654167797" lon="9.456336147277456"><ele>878.0</ele><time>2026-04-11T08:41:40.184Z</time></trkpt><trkpt lat="46.696242901927576" lon="9.456564069839292"><ele>875.0</ele><time>2026-04-11T08:41:41.184Z</time></trkpt><trkpt lat="46.69634517402838" lon="9.456786690723924"><ele>872.0</ele><time>2026-04-11T08:41:42.184Z</time></trkpt><trkpt lat="46.69645213850359" lon="9.457004434479737"><ele>869.0</ele><time>2026-04-11T08:41:43.184Z</time></trkpt><trkpt lat="46.69656411026249" lon="9.457216823965128"><ele>869.0</ele><time>2026-04-11T08:41:44.184Z</time></trkpt><trkpt lat="46.69668102708716" lon="9.457423408303947"><ele>869.0</ele><time>2026-04-11T08:41:45.184Z</time></trkpt><trkpt lat="46.696803265740925" lon="9.45762355096186"><ele>869.0</ele><time>2026-04-11T08:41:46.184Z</time></trkpt><trkpt lat="46.69693094810904" lon="9.457816362578939"><ele>867.3333333333334</ele><time>2026-04-11T08:41:47.184Z</time></trkpt><trkpt lat="46.697061079285696" lon="9.458005655850936"><ele>865.6666666666667</ele><time>2026-04-11T08:41:48.184Z</time></trkpt><trkpt lat="46.69719537665453" lon="9.458188806066852"><ele>864.0</ele><time>2026-04-11T08:41:49.184Z</time></trkpt><trkpt lat="46.69733152919014" lon="9.458368947841988"><ele>864.0</ele><time>2026-04-11T08:41:50.184Z</time></trkpt><trkpt lat="46.697469577631914" lon="9.4585461328921"><ele>864.0</ele><time>2026-04-11T08:41:51.185Z</time></trkpt><trkpt lat="46.69760807349553" lon="9.458722183524852"><ele>864.0</ele><time>2026-04-11T08:41:52.184Z</time></trkpt><trkpt lat="46.69774737374931" lon="9.45889714104488"><ele>878.3333333333333</ele><time>2026-04-11T08:41:53.184Z</time></trkpt><trkpt lat="46.697886721649276" lon="9.45907215840729"><ele>892.6666666666666</ele><time>2026-04-11T08:41:54.184Z</time></trkpt><trkpt lat="46.6980112" lon="9.4592285"><ele>907.0</ele><time>2026-04-11T08:41:55.185Z</time></trkpt><trkpt lat="46.69928706487964" lon="9.46961109006092"><ele>867.6666666666666</ele><time>2026-04-11T08:42:30.999Z</time></trkpt><trkpt lat="46.69919043349983" lon="9.469892988500364"><ele>828.3333333333333</ele><time>2026-04-11T08:42:31.999Z</time></trkpt><trkpt lat="46.699068940424546" lon="9.470111132531173"><ele>789.0</ele><time>2026-04-11T08:42:32.999Z</time></trkpt><trkpt lat="46.69894497693088" lon="9.470347956004385"><ele>783.0</ele><time>2026-04-11T08:42:33.999Z</time></trkpt><trkpt lat="46.69889496319489" lon="9.470589796251389"><ele>777.0</ele><time>2026-04-11T08:42:34.999Z</time></trkpt><trkpt lat="46.69878948031057" lon="9.47081298188049"><ele>771.0</ele><time>2026-04-11T08:42:35.999Z</time></trkpt><trkpt lat="46.69868473171627" lon="9.471024243742246"><ele>776.3333333333333</ele><time>2026-04-11T08:42:36.999Z</time></trkpt><trkpt lat="46.69857193654785" lon="9.471218926035375"><ele>781.6666666666666</ele><time>2026-04-11T08:42:37.999Z</time></trkpt><trkpt lat="46.69846106475856" lon="9.471403423549846"><ele>787.0</ele><time>2026-04-11T08:42:38.999Z</time></trkpt><trkpt lat="46.6983551149954" lon="9.471555178597054"><ele>787.0</ele><time>2026-04-11T08:42:39.999Z</time></trkpt><trkpt lat="46.69822369607161" lon="9.471622624144054"><ele>787.0</ele><time>2026-04-11T08:42:40.999Z</time></trkpt><trkpt lat="46.69808891486764" lon="9.471744375277666"><ele>787.0</ele><time>2026-04-11T08:42:41.999Z</time></trkpt><trkpt lat="46.69791288155877" lon="9.471797954479253"><ele>798.0</ele><time>2026-04-11T08:42:42.999Z</time></trkpt><trkpt lat="46.697749436993746" lon="9.471757032843234"><ele>809.0</ele><time>2026-04-11T08:42:43.999Z</time></trkpt><trkpt lat="46.69758933502306" lon="9.471700905499423"><ele>820.0</ele><time>2026-04-11T08:42:44.999Z</time></trkpt><trkpt lat="46.69744421991276" lon="9.471696209612748"><ele>820.0</ele><time>2026-04-11T08:42:45.999Z</time></trkpt><trkpt lat="46.69725366436092" lon="9.47151602547108"><ele>820.0</ele><time>2026-04-11T08:42:46.999Z</time></trkpt><trkpt lat="46.697097000734395" lon="9.471580215041284"><ele>820.0</ele><time>2026-04-11T08:42:47.999Z</time></trkpt><trkpt lat="46.69696111128938" lon="9.471645358830981"><ele>822.75</ele><time>2026-04-11T08:42:48.999Z</time></trkpt><trkpt lat="46.69683793172792" lon="9.471726128129502"><ele>825.5</ele><time>2026-04-11T08:42:49.999Z</time></trkpt><trkpt lat="46.69673694254762" lon="9.471837305280093"><ele>828.25</ele><time>2026-04-11T08:42:50.999Z</time></trkpt><trkpt lat="46.69665626578813" lon="9.471990851982756"><ele>831.0</ele><time>2026-04-11T08:42:51.999Z</time></trkpt><trkpt lat="46.696586702654436" lon="9.472179464095708"><ele>831.0</ele><time>2026-04-11T08:42:52.999Z</time></trkpt><trkpt lat="46.69655366474757" lon="9.472383170470659"><ele>831.0</ele><time>2026-04-11T08:42:53.999Z</time></trkpt><trkpt lat="46.69653602677062" lon="9.472606475005033"><ele>831.0</ele><time>2026-04-11T08:42:54.999Z</time></trkpt><trkpt lat="46.69652594696263" lon="9.472842647563017"><ele>826.6666666666667</ele><time>2026-04-11T08:42:55.999Z</time></trkpt><trkpt lat="46.69647956289161" lon="9.473087467834155"><ele>822.3333333333334</ele><time>2026-04-11T08:42:56.999Z</time></trkpt><trkpt lat="46.69643186122877" lon="9.473336404480552"><ele>818.0</ele><time>2026-04-11T08:42:57.999Z</time></trkpt><trkpt lat="46.6963797149094" lon="9.473587144612603"><ele>819.6666666666667</ele><time>2026-04-11T08:42:58.999Z</time></trkpt><trkpt lat="46.69633887377565" lon="9.473837330200363"><ele>821.3333333333333</ele><time>2026-04-11T08:43:00Z</time></trkpt><trkpt lat="46.696306155235035" lon="9.474063045526165"><ele>823.0</ele><time>2026-04-11T08:43:01Z</time></trkpt><trkpt lat="46.69632331984566" lon="9.474304541304791"><ele>823.0</ele><time>2026-04-11T08:43:02Z</time></trkpt><trkpt lat="46.69636347875997" lon="9.474510255328873"><ele>823.0</ele><time>2026-04-11T08:43:03Z</time></trkpt><trkpt lat="46.69642428901812" lon="9.47473304823369"><ele>823.0</ele><time>2026-04-11T08:43:04Z</time></trkpt><trkpt lat="46.69647204698869" lon="9.474944117666304"><ele>826.6666666666666</ele><time>2026-04-11T08:43:05Z</time></trkpt><trkpt lat="46.696489710547404" lon="9.475180934318669"><ele>830.3333333333333</ele><time>2026-04-11T08:43:06Z</time></trkpt><trkpt lat="46.6965143800536" lon="9.475416766445052"><ele>834.0</ele><time>2026-04-11T08:43:07Z</time></trkpt><trkpt lat="46.69653879896804" lon="9.475651519821316"><ele>835.0</ele><time>2026-04-11T08:43:08Z</time></trkpt><trkpt lat="46.69653965629824" lon="9.475896216091567"><ele>836.0</ele><time>2026-04-11T08:43:09Z</time></trkpt><trkpt lat="46.696506910560224" lon="9.476145331214719"><ele>837.0</ele><time>2026-04-11T08:43:10Z</time></trkpt><trkpt lat="46.69648046710384" lon="9.476390766015955"><ele>834.6666666666667</ele><time>2026-04-11T08:43:11Z</time></trkpt><trkpt lat="46.69645384352422" lon="9.476639700797925"><ele>832.3333333333334</ele><time>2026-04-11T08:43:12Z</time></trkpt><trkpt lat="46.696424788787745" lon="9.476893255209369"><ele>830.0</ele><time>2026-04-11T08:43:13Z</time></trkpt><trkpt lat="46.696395653202536" lon="9.477134713835584"><ele>827.25</ele><time>2026-04-11T08:43:14Z</time></trkpt><trkpt lat="46.69636200223787" lon="9.477358683570559"><ele>824.5</ele><time>2026-04-11T08:43:15Z</time></trkpt><trkpt lat="46.69632460923834" lon="9.477561831155747"><ele>821.75</ele><time>2026-04-11T08:43:16Z</time></trkpt><trkpt lat="46.696275969039775" lon="9.477754428154412"><ele>819.0</ele><time>2026-04-11T08:43:17Z</time></trkpt><trkpt lat="46.69620237144886" lon="9.477947816474256"><ele>815.6666666666667</ele><time>2026-04-11T08:43:18Z</time></trkpt><trkpt lat="46.69610750300914" lon="9.478143867726466"><ele>812.3333333333334</ele><time>2026-04-11T08:43:19Z</time></trkpt><trkpt lat="46.69599813696192" lon="9.478348727651534"><ele>809.0</ele><time>2026-04-11T08:43:20Z</time></trkpt><trkpt lat="46.69589065530192" lon="9.47855676479055"><ele>819.6666666666667</ele><time>2026-04-11T08:43:21Z</time></trkpt><trkpt lat="46.69578413658351" lon="9.478767229348612"><ele>830.3333333333333</ele><time>2026-04-11T08:43:22Z</time></trkpt><trkpt lat="46.69567513362341" lon="9.478971742318945"><ele>841.0</ele><time>2026-04-11T08:43:23Z</time></trkpt><trkpt lat="46.69557551273636" lon="9.47916305997754"><ele>841.0</ele><time>2026-04-11T08:43:24Z</time></trkpt><trkpt lat="46.69548131743574" lon="9.479343364531212"><ele>841.0</ele><time>2026-04-11T08:43:25Z</time></trkpt><trkpt lat="46.69537832712091" lon="9.4794990235204"><ele>841.0</ele><time>2026-04-11T08:43:26Z</time></trkpt><trkpt lat="46.69525017872254" lon="9.479609598058454"><ele>842.3333333333333</ele><time>2026-04-11T08:43:27Z</time></trkpt><trkpt lat="46.69510646347544" lon="9.479635005619793"><ele>843.6666666666667</ele><time>2026-04-11T08:43:28Z</time></trkpt><trkpt lat="46.694952331008274" lon="9.479666729365931"><ele>845.0</ele><time>2026-04-11T08:43:29Z</time></trkpt><trkpt lat="46.69478985340801" lon="9.479663854706503"><ele>845.0</ele><time>2026-04-11T08:43:30Z</time></trkpt><trkpt lat="46.694621689451765" lon="9.479666282730236"><ele>845.0</ele><time>2026-04-11T08:43:31Z</time></trkpt><trkpt lat="46.694472459036106" lon="9.47967785571757"><ele>845.0</ele><time>2026-04-11T08:43:32Z</time></trkpt><trkpt lat="46.69434017534878" lon="9.479697064220296"><ele>847.0</ele><time>2026-04-11T08:43:33Z</time></trkpt><trkpt lat="46.694221289067485" lon="9.479759408036564"><ele>849.0</ele><time>2026-04-11T08:43:34Z</time></trkpt><trkpt lat="46.69411569077622" lon="9.479873141385855"><ele>851.0</ele><time>2026-04-11T08:43:35Z</time></trkpt><trkpt lat="46.694029259336325" lon="9.480013010997537"><ele>853.0</ele><time>2026-04-11T08:43:36Z</time></trkpt><trkpt lat="46.69397979470942" lon="9.480193780528335"><ele>853.0</ele><time>2026-04-11T08:43:37Z</time></trkpt><trkpt lat="46.693949187840076" lon="9.480396287803673"><ele>853.0</ele><time>2026-04-11T08:43:38Z</time></trkpt><trkpt lat="46.693919825771005" lon="9.480613130251532"><ele>853.0</ele><time>2026-04-11T08:43:39Z</time></trkpt><trkpt lat="46.69388778564735" lon="9.480812660744558"><ele>853.0</ele><time>2026-04-11T08:43:40Z</time></trkpt><trkpt lat="46.69382825513779" lon="9.48098036370934"><ele>857.0</ele><time>2026-04-11T08:43:41Z</time></trkpt><trkpt lat="46.69373369094864" lon="9.481118948891458"><ele>861.0</ele><time>2026-04-11T08:43:42Z</time></trkpt><trkpt lat="46.69361524432386" lon="9.481233073194716"><ele>865.0</ele><time>2026-04-11T08:43:43Z</time></trkpt><trkpt lat="46.69350276505698" lon="9.481336644660857"><ele>869.0</ele><time>2026-04-11T08:43:44Z</time></trkpt><trkpt lat="46.69341326319446" lon="9.481459727612759"><ele>869.0</ele><time>2026-04-11T08:43:45Z</time></trkpt><trkpt lat="46.69334418842775" lon="9.481610955729847"><ele>869.0</ele><time>2026-04-11T08:43:46Z</time></trkpt><trkpt lat="46.69329961195845" lon="9.481786299991613"><ele>869.0</ele><time>2026-04-11T08:43:47Z</time></trkpt><trkpt lat="46.69328988991297" lon="9.481964277120369"><ele>869.0</ele><time>2026-04-11T08:43:48Z</time></trkpt><trkpt lat="46.69330545399446" lon="9.482148116295091"><ele>864.75</ele><time>2026-04-11T08:43:49Z</time></trkpt><trkpt lat="46.6933442007127" lon="9.482341999841061"><ele>860.5</ele><time>2026-04-11T08:43:50Z</time></trkpt><trkpt lat="46.693377034218386" lon="9.482524359341136"><ele>856.25</ele><time>2026-04-11T08:43:51Z</time></trkpt><trkpt lat="46.69338637242924" lon="9.482702411718272"><ele>852.0</ele><time>2026-04-11T08:43:52Z</time></trkpt><trkpt lat="46.69337584256601" lon="9.482888675908223"><ele>851.0</ele><time>2026-04-11T08:43:53Z</time></trkpt><trkpt lat="46.6933394637961" lon="9.483078813633451"><ele>850.0</ele><time>2026-04-11T08:43:54Z</time></trkpt><trkpt lat="46.69328336225011" lon="9.48326274615535"><ele>849.0</ele><time>2026-04-11T08:43:55Z</time></trkpt><trkpt lat="46.693205622187016" lon="9.483438480653467"><ele>848.0</ele><time>2026-04-11T08:43:56Z</time></trkpt><trkpt lat="46.69311610993556" lon="9.48362784511836"><ele>844.6666666666667</ele><time>2026-04-11T08:43:57Z</time></trkpt><trkpt lat="46.6930192495242" lon="9.483861619680349"><ele>841.3333333333333</ele><time>2026-04-11T08:43:58Z</time></trkpt><trkpt lat="46.69289266794801" lon="9.484132295877462"><ele>838.0</ele><time>2026-04-11T08:43:59Z</time></trkpt><trkpt lat="46.69279321167177" lon="9.48445497480876"><ele>856.0</ele><time>2026-04-11T08:44:00Z</time></trkpt><trkpt lat="46.69268743299854" lon="9.484775290765464"><ele>874.0</ele><time>2026-04-11T08:44:01Z</time></trkpt><trkpt lat="46.692644590673126" lon="9.485083966267492"><ele>874.0</ele><time>2026-04-11T08:44:02Z</time></trkpt><trkpt lat="46.69264307185908" lon="9.485396202799516"><ele>874.0</ele><time>2026-04-11T08:44:03Z</time></trkpt><trkpt lat="46.692690785007876" lon="9.48570592378882"><ele>874.0</ele><time>2026-04-11T08:44:04Z</time></trkpt><trkpt lat="46.69276488071624" lon="9.486009335524528"><ele>859.0</ele><time>2026-04-11T08:44:05Z</time></trkpt><trkpt lat="46.692869026924036" lon="9.486279567670227"><ele>844.0</ele><time>2026-04-11T08:44:06Z</time></trkpt><trkpt lat="46.69293469512398" lon="9.486544347094407"><ele>829.0</ele><time>2026-04-11T08:44:07Z</time></trkpt><trkpt lat="46.69295214042717" lon="9.48681680097948"><ele>827.6666666666666</ele><time>2026-04-11T08:44:08Z</time></trkpt><trkpt lat="46.69293591943341" lon="9.487107010524461"><ele>826.3333333333333</ele><time>2026-04-11T08:44:09Z</time></trkpt><trkpt lat="46.692914745949366" lon="9.487415467518199"><ele>825.0</ele><time>2026-04-11T08:44:10Z</time></trkpt><trkpt lat="46.692867575152874" lon="9.487724471592553"><ele>825.0</ele><time>2026-04-11T08:44:11Z</time></trkpt><trkpt lat="46.69282799901899" lon="9.488033645056131"><ele>825.0</ele><time>2026-04-11T08:44:12Z</time></trkpt><trkpt lat="46.69278834044501" lon="9.488339208934413"><ele>825.0</ele><time>2026-04-11T08:44:13Z</time></trkpt><trkpt lat="46.69275686712091" lon="9.488647028459978"><ele>843.6666666666667</ele><time>2026-04-11T08:44:14Z</time></trkpt><trkpt lat="46.692720966813525" lon="9.488960931987435"><ele>862.3333333333334</ele><time>2026-04-11T08:44:15Z</time></trkpt><trkpt lat="46.69268303538335" lon="9.48927361392891"><ele>881.0</ele><time>2026-04-11T08:44:16Z</time></trkpt><trkpt lat="46.69265249082527" lon="9.48957925728418"><ele>882.6666666666667</ele><time>2026-04-11T08:44:17Z</time></trkpt><trkpt lat="46.69263086802439" lon="9.489882459324777"><ele>884.3333333333333</ele><time>2026-04-11T08:44:18Z</time></trkpt><trkpt lat="46.69263214172582" lon="9.490189282935143"><ele>886.0</ele><time>2026-04-11T08:44:19Z</time></trkpt><trkpt lat="46.69265744328202" lon="9.490501768778081"><ele>887.3333333333333</ele><time>2026-04-11T08:44:20Z</time></trkpt><trkpt lat="46.69270591744669" lon="9.490812639395937"><ele>888.6666666666667</ele><time>2026-04-11T08:44:21Z</time></trkpt><trkpt lat="46.69276404952478" lon="9.49112787453146"><ele>890.0</ele><time>2026-04-11T08:44:22Z</time></trkpt><trkpt lat="46.692821226406984" lon="9.491448232742984"><ele>869.3333333333334</ele><time>2026-04-11T08:44:23Z</time></trkpt><trkpt lat="46.69287192498455" lon="9.491763174734475"><ele>848.6666666666667</ele><time>2026-04-11T08:44:24Z</time></trkpt><trkpt lat="46.69291536301433" lon="9.492057070031784"><ele>828.0</ele><time>2026-04-11T08:44:25Z</time></trkpt><trkpt lat="46.692916560311076" lon="9.49233760111347"><ele>827.6666666666667</ele><time>2026-04-11T08:44:26Z</time></trkpt><trkpt lat="46.69291356557417" lon="9.492602682782485"><ele>827.3333333333334</ele><time>2026-04-11T08:44:27Z</time></trkpt><trkpt lat="46.69285061205657" lon="9.492849121618974"><ele>827.0</ele><time>2026-04-11T08:44:28Z</time></trkpt><trkpt lat="46.692728881507946" lon="9.493061904915626"><ele>842.3333333333334</ele><time>2026-04-11T08:44:29Z</time></trkpt><trkpt lat="46.69258168717588" lon="9.493253510356078"><ele>857.6666666666667</ele><time>2026-04-11T08:44:29.999Z</time></trkpt><trkpt lat="46.69240909581861" lon="9.493431894013762"><ele>873.0</ele><time>2026-04-11T08:44:30.999Z</time></trkpt><trkpt lat="46.69222693415007" lon="9.493593481082796"><ele>874.6666666666667</ele><time>2026-04-11T08:44:31.999Z</time></trkpt><trkpt lat="46.69204318340424" lon="9.493769240752489"><ele>876.3333333333334</ele><time>2026-04-11T08:44:32.999Z</time></trkpt><trkpt lat="46.6918652741113" lon="9.493941844938375"><ele>878.0</ele><time>2026-04-11T08:44:33.999Z</time></trkpt><trkpt lat="46.69169531262974" lon="9.494111817318641"><ele>878.0</ele><time>2026-04-11T08:44:34.999Z</time></trkpt><trkpt lat="46.69153358307452" lon="9.494280530699841"><ele>878.0</ele><time>2026-04-11T08:44:35.999Z</time></trkpt><trkpt lat="46.69138373023228" lon="9.4944715872609"><ele>878.0</ele><time>2026-04-11T08:44:36.999Z</time></trkpt><trkpt lat="46.69125999522406" lon="9.494707632604982"><ele>871.6666666666667</ele><time>2026-04-11T08:44:37.999Z</time></trkpt><trkpt lat="46.69117273896356" lon="9.494969442407834"><ele>865.3333333333333</ele><time>2026-04-11T08:44:38.999Z</time></trkpt><trkpt lat="46.69111671422144" lon="9.495249873748756"><ele>859.0</ele><time>2026-04-11T08:44:39.999Z</time></trkpt><trkpt lat="46.69109688486905" lon="9.495546857580843"><ele>854.6666666666666</ele><time>2026-04-11T08:44:40.999Z</time></trkpt><trkpt lat="46.69110996922488" lon="9.49584977110291"><ele>850.3333333333333</ele><time>2026-04-11T08:44:41.999Z</time></trkpt><trkpt lat="46.69112444381654" lon="9.496145644037927"><ele>846.0</ele><time>2026-04-11T08:44:42.999Z</time></trkpt><trkpt lat="46.69112208242755" lon="9.4964219756114"><ele>852.0</ele><time>2026-04-11T08:44:43.999Z</time></trkpt><trkpt lat="46.69109186702365" lon="9.496692986267412"><ele>858.0</ele><time>2026-04-11T08:44:44.999Z</time></trkpt><trkpt lat="46.69101422310485" lon="9.496947696917827"><ele>864.0</ele><time>2026-04-11T08:44:45.999Z</time></trkpt><trkpt lat="46.690931488657654" lon="9.497186270787552"><ele>864.0</ele><time>2026-04-11T08:44:46.999Z</time></trkpt><trkpt lat="46.69082549386282" lon="9.497388685561619"><ele>864.0</ele><time>2026-04-11T08:44:47.999Z</time></trkpt><trkpt lat="46.6907232882317" lon="9.497571576445113"><ele>864.0</ele><time>2026-04-11T08:44:48.999Z</time></trkpt><trkpt lat="46.69062554247083" lon="9.497750724184815"><ele>864.0</ele><time>2026-04-11T08:44:49.999Z</time></trkpt><trkpt lat="46.69051234455241" lon="9.497898391685775"><ele>864.0</ele><time>2026-04-11T08:44:50.999Z</time></trkpt><trkpt lat="46.69038241533147" lon="9.498011188725776"><ele>864.0</ele><time>2026-04-11T08:44:51.999Z</time></trkpt><trkpt lat="46.690230211124735" lon="9.498079091717441"><ele>865.3333333333333</ele><time>2026-04-11T08:44:52.999Z</time></trkpt><trkpt lat="46.69007844114832" lon="9.498133118597682"><ele>866.6666666666666</ele><time>2026-04-11T08:44:53.999Z</time></trkpt><trkpt lat="46.68993387745696" lon="9.498189541288633"><ele>868.0</ele><time>2026-04-11T08:44:54.999Z</time></trkpt><trkpt lat="46.6897826820385" lon="9.498256375892547"><ele>868.0</ele><time>2026-04-11T08:44:55.999Z</time></trkpt><trkpt lat="46.6896334209115" lon="9.49833763409852"><ele>868.0</ele><time>2026-04-11T08:44:56.999Z</time></trkpt><trkpt lat="46.68949424722205" lon="9.498439170307623"><ele>868.0</ele><time>2026-04-11T08:44:57.999Z</time></trkpt><trkpt lat="46.68935888249326" lon="9.498565918748826"><ele>868.6666666666666</ele><time>2026-04-11T08:44:58.999Z</time></trkpt><trkpt lat="46.68923088015326" lon="9.498712889782281"><ele>869.3333333333333</ele><time>2026-04-11T08:44:59.999Z</time></trkpt><trkpt lat="46.68910627398021" lon="9.49886494980826"><ele>870.0</ele><time>2026-04-11T08:45:00.999Z</time></trkpt><trkpt lat="46.688980556402086" lon="9.49902507034514"><ele>870.0</ele><time>2026-04-11T08:45:01.999Z</time></trkpt><trkpt lat="46.68884267366046" lon="9.499161374551713"><ele>870.0</ele><time>2026-04-11T08:45:02.999Z</time></trkpt><trkpt lat="46.68869468105263" lon="9.499319565667621"><ele>870.0</ele><time>2026-04-11T08:45:03.999Z</time></trkpt><trkpt lat="46.68855447740652" lon="9.4994694840384"><ele>898.6666666666667</ele><time>2026-04-11T08:45:04.999Z</time></trkpt><trkpt lat="46.68841433269521" lon="9.49961671217893"><ele>927.3333333333334</ele><time>2026-04-11T08:45:06Z</time></trkpt><trkpt lat="46.6882718950195" lon="9.499781153056006"><ele>956.0</ele><time>2026-04-11T08:45:07.06Z</time></trkpt><trkpt lat="46.688128505978064" lon="9.499931139693718"><ele>956.0</ele><time>2026-04-11T08:45:08.059Z</time></trkpt><trkpt lat="46.68798489973182" lon="9.500081604236385"><ele>956.0</ele><time>2026-04-11T08:45:09.058Z</time></trkpt><trkpt lat="46.68727942842813" lon="9.504390002779887"><ele>922.6666666666667</ele><time>2026-04-11T08:45:28Z</time></trkpt><trkpt lat="46.68721367614486" lon="9.504510443252656"><ele>889.3333333333333</ele><time>2026-04-11T08:45:29Z</time></trkpt><trkpt lat="46.68714759592324" lon="9.504821287969062"><ele>856.0</ele><time>2026-04-11T08:45:30Z</time></trkpt><trkpt lat="46.687084410277805" lon="9.505028838617273"><ele>857.5</ele><time>2026-04-11T08:45:31Z</time></trkpt><trkpt lat="46.6870201551141" lon="9.505214040062523"><ele>859.0</ele><time>2026-04-11T08:45:32Z</time></trkpt><trkpt lat="46.68693694987317" lon="9.505377057889488"><ele>860.5</ele><time>2026-04-11T08:45:33Z</time></trkpt><trkpt lat="46.68686287664424" lon="9.505522867905515"><ele>862.0</ele><time>2026-04-11T08:45:34Z</time></trkpt><trkpt lat="46.686775611108175" lon="9.505668106329345"><ele>862.0</ele><time>2026-04-11T08:45:35Z</time></trkpt><trkpt lat="46.686678697337086" lon="9.505807628130386"><ele>862.0</ele><time>2026-04-11T08:45:36Z</time></trkpt><trkpt lat="46.686575875806405" lon="9.50594301286116"><ele>862.0</ele><time>2026-04-11T08:45:37Z</time></trkpt><trkpt lat="46.68647073699032" lon="9.506052310812656"><ele>862.0</ele><time>2026-04-11T08:45:38Z</time></trkpt><trkpt lat="46.686360010527345" lon="9.506151458962597"><ele>866.75</ele><time>2026-04-11T08:45:39Z</time></trkpt><trkpt lat="46.68625781190945" lon="9.506267277346995"><ele>871.5</ele><time>2026-04-11T08:45:40Z</time></trkpt><trkpt lat="46.686156361759465" lon="9.506387113947088"><ele>876.25</ele><time>2026-04-11T08:45:41Z</time></trkpt><trkpt lat="46.68606321344732" lon="9.506533950561149"><ele>881.0</ele><time>2026-04-11T08:45:42Z</time></trkpt><trkpt lat="46.68597914348372" lon="9.506699043884415"><ele>881.0</ele><time>2026-04-11T08:45:43Z</time></trkpt><trkpt lat="46.685905339596566" lon="9.506885647558725"><ele>881.0</ele><time>2026-04-11T08:45:44Z</time></trkpt><trkpt lat="46.685856524096465" lon="9.507088810343907"><ele>881.0</ele><time>2026-04-11T08:45:45Z</time></trkpt><trkpt lat="46.68583963980402" lon="9.507314552307772"><ele>879.3333333333334</ele><time>2026-04-11T08:45:46Z</time></trkpt><trkpt lat="46.68584094963106" lon="9.507550257016192"><ele>877.6666666666667</ele><time>2026-04-11T08:45:47Z</time></trkpt><trkpt lat="46.68587118238579" lon="9.507775408524642"><ele>876.0</ele><time>2026-04-11T08:45:48Z</time></trkpt><trkpt lat="46.685880218456354" lon="9.507984829051553"><ele>879.3333333333333</ele><time>2026-04-11T08:45:49Z</time></trkpt><trkpt lat="46.685944340604905" lon="9.508197011887477"><ele>882.6666666666666</ele><time>2026-04-11T08:45:50Z</time></trkpt><trkpt lat="46.68602048272653" lon="9.508412342833855"><ele>886.0</ele><time>2026-04-11T08:45:51Z</time></trkpt><trkpt lat="46.68609978116911" lon="9.50862194883403"><ele>872.0</ele><time>2026-04-11T08:45:52Z</time></trkpt><trkpt lat="46.68619139221237" lon="9.50880563289367"><ele>858.0</ele><time>2026-04-11T08:45:53Z</time></trkpt><trkpt lat="46.686238384951224" lon="9.509020177946708"><ele>844.0</ele><time>2026-04-11T08:45:54Z</time></trkpt><trkpt lat="46.686248502756996" lon="9.509239316689571"><ele>844.0</ele><time>2026-04-11T08:45:55Z</time></trkpt><trkpt lat="46.68626675343433" lon="9.509462231530389"><ele>844.0</ele><time>2026-04-11T08:45:56Z</time></trkpt><trkpt lat="46.6862463095807" lon="9.509682593096755"><ele>844.0</ele><time>2026-04-11T08:45:57Z</time></trkpt><trkpt lat="46.6862045295683" lon="9.509897568942312"><ele>844.6666666666666</ele><time>2026-04-11T08:45:58Z</time></trkpt><trkpt lat="46.686142670004195" lon="9.51010267858843"><ele>845.3333333333333</ele><time>2026-04-11T08:45:59Z</time></trkpt><trkpt lat="46.68606377788444" lon="9.510287938329704"><ele>846.0</ele><time>2026-04-11T08:46:00Z</time></trkpt><trkpt lat="46.6859705615471" lon="9.510458043568635"><ele>851.6666666666667</ele><time>2026-04-11T08:46:01Z</time></trkpt><trkpt lat="46.68586670918692" lon="9.51062628063114"><ele>857.3333333333334</ele><time>2026-04-11T08:46:02Z</time></trkpt><trkpt lat="46.68576107851474" lon="9.510789254547344"><ele>863.0</ele><time>2026-04-11T08:46:03Z</time></trkpt><trkpt lat="46.68565417248484" lon="9.51094799195281"><ele>863.0</ele><time>2026-04-11T08:46:04Z</time></trkpt><trkpt lat="46.68554727993778" lon="9.511101303668356"><ele>863.0</ele><time>2026-04-11T08:46:05Z</time></trkpt><trkpt lat="46.68544347011397" lon="9.511257590948913"><ele>863.0</ele><time>2026-04-11T08:46:06Z</time></trkpt><trkpt lat="46.68533812388292" lon="9.511415814322795"><ele>878.0</ele><time>2026-04-11T08:46:07Z</time></trkpt><trkpt lat="46.685227951451644" lon="9.511576827353647"><ele>893.0</ele><time>2026-04-11T08:46:08Z</time></trkpt><trkpt lat="46.685120353056725" lon="9.511744105965258"><ele>908.0</ele><time>2026-04-11T08:46:09Z</time></trkpt><trkpt lat="46.685019025997235" lon="9.51191818991053"><ele>908.0</ele><time>2026-04-11T08:46:10Z</time></trkpt><trkpt lat="46.68490670823835" lon="9.512068596363"><ele>908.0</ele><time>2026-04-11T08:46:11Z</time></trkpt><trkpt lat="46.68480826313824" lon="9.51224049901906"><ele>908.0</ele><time>2026-04-11T08:46:12Z</time></trkpt><trkpt lat="46.68473361607436" lon="9.512409960566453"><ele>908.0</ele><time>2026-04-11T08:46:13Z</time></trkpt><trkpt lat="46.68463689240484" lon="9.512581870689555"><ele>908.75</ele><time>2026-04-11T08:46:14Z</time></trkpt><trkpt lat="46.684534966074125" lon="9.512745973608954"><ele>909.5</ele><time>2026-04-11T08:46:15Z</time></trkpt><trkpt lat="46.68446204417488" lon="9.512948455652761"><ele>910.25</ele><time>2026-04-11T08:46:16.057Z</time></trkpt><trkpt lat="46.68440273610288" lon="9.513133419313805"><ele>911.0</ele><time>2026-04-11T08:46:17.046Z</time></trkpt><trkpt lat="46.68434559711156" lon="9.513318131400977"><ele>947.3333333333334</ele><time>2026-04-11T08:46:18.046Z</time></trkpt><trkpt lat="46.68428784626345" lon="9.513507195472792"><ele>983.6666666666667</ele><time>2026-04-11T08:46:19.041Z</time></trkpt><trkpt lat="46.684230392659195" lon="9.513695286103347"><ele>1020.0</ele><time>2026-04-11T08:46:20.027Z</time></trkpt><trkpt lat="46.68346770838025" lon="9.516400442981475"><ele>1015.0</ele><time>2026-04-11T08:46:23.182Z</time></trkpt><trkpt lat="46.683184910490255" lon="9.517361898487634"><ele>969.0</ele><time>2026-04-11T08:46:24.182Z</time></trkpt><trkpt lat="46.68289570557518" lon="9.51831980784078"><ele>1002.0</ele><time>2026-04-11T08:46:25.182Z</time></trkpt><trkpt lat="46.6826045781248" lon="9.519276181535156"><ele>975.0</ele><time>2026-04-11T08:46:26.182Z</time></trkpt><trkpt lat="46.6823137263655" lon="9.52023227675177"><ele>964.0</ele><time>2026-04-11T08:46:27.182Z</time></trkpt><trkpt lat="46.6822133" lon="9.5205607"><ele>953.0</ele><time>2026-04-11T08:46:28.182Z</time></trkpt><trkpt lat="46.6812478297931" lon="9.525580506473752"><ele>926.25</ele><time>2026-04-11T08:47:08.999Z</time></trkpt><trkpt lat="46.68121662811982" lon="9.525788731400356"><ele>899.5</ele><time>2026-04-11T08:47:09.999Z</time></trkpt><trkpt lat="46.68117585900764" lon="9.525975486761741"><ele>872.75</ele><time>2026-04-11T08:47:10.999Z</time></trkpt><trkpt lat="46.681099129026364" lon="9.52619182338509"><ele>846.0</ele><time>2026-04-11T08:47:11.999Z</time></trkpt><trkpt lat="46.68102345304033" lon="9.526395180767347"><ele>846.0</ele><time>2026-04-11T08:47:12.999Z</time></trkpt><trkpt lat="46.68093343122982" lon="9.526588224620408"><ele>846.0</ele><time>2026-04-11T08:47:13.999Z</time></trkpt><trkpt lat="46.68082916998188" lon="9.526754339611907"><ele>846.0</ele><time>2026-04-11T08:47:15Z</time></trkpt><trkpt lat="46.68072092821021" lon="9.526906454285074"><ele>846.0</ele><time>2026-04-11T08:47:16Z</time></trkpt><trkpt lat="46.68059927301579" lon="9.527044333074475"><ele>846.0</ele><time>2026-04-11T08:47:17Z</time></trkpt><trkpt lat="46.68047204998359" lon="9.527173736237486"><ele>846.0</ele><time>2026-04-11T08:47:18Z</time></trkpt><trkpt lat="46.68034889296787" lon="9.527302696829722"><ele>849.5</ele><time>2026-04-11T08:47:19Z</time></trkpt><trkpt lat="46.68023327282335" lon="9.527430080521402"><ele>853.0</ele><time>2026-04-11T08:47:20Z</time></trkpt><trkpt lat="46.68011602043529" lon="9.52756284824772"><ele>856.5</ele><time>2026-04-11T08:47:21Z</time></trkpt><trkpt lat="46.67999260224447" lon="9.527695003123481"><ele>860.0</ele><time>2026-04-11T08:47:22Z</time></trkpt><trkpt lat="46.67986578096936" lon="9.527828748050487"><ele>861.5</ele><time>2026-04-11T08:47:23Z</time></trkpt><trkpt lat="46.67974709361403" lon="9.527956623496795"><ele>863.0</ele><time>2026-04-11T08:47:24Z</time></trkpt><trkpt lat="46.67963332990241" lon="9.528078813321281"><ele>864.5</ele><time>2026-04-11T08:47:25Z</time></trkpt><trkpt lat="46.67952504682853" lon="9.528200541360054"><ele>866.0</ele><time>2026-04-11T08:47:26Z</time></trkpt><trkpt lat="46.67941963667113" lon="9.528347261939258"><ele>866.0</ele><time>2026-04-11T08:47:27Z</time></trkpt><trkpt lat="46.67933222804806" lon="9.528506981179426"><ele>866.0</ele><time>2026-04-11T08:47:28Z</time></trkpt><trkpt lat="46.679265572470584" lon="9.528676055120965"><ele>866.0</ele><time>2026-04-11T08:47:29Z</time></trkpt><trkpt lat="46.67921796448953" lon="9.528843067352483"><ele>866.0</ele><time>2026-04-11T08:47:30Z</time></trkpt><trkpt lat="46.67919075098243" lon="9.52899371067557"><ele>862.8</ele><time>2026-04-11T08:47:31Z</time></trkpt><trkpt lat="46.67917693518714" lon="9.529127563390386"><ele>859.5999999999999</ele><time>2026-04-11T08:47:32Z</time></trkpt><trkpt lat="46.67917008471767" lon="9.529246149211362"><ele>856.4</ele><time>2026-04-11T08:47:33Z</time></trkpt><trkpt lat="46.6791747977318" lon="9.529376623128517"><ele>853.2</ele><time>2026-04-11T08:47:34Z</time></trkpt><trkpt lat="46.679196020076745" lon="9.529540587492665"><ele>850.0</ele><time>2026-04-11T08:47:35Z</time></trkpt><trkpt lat="46.67922392221712" lon="9.5296997346081"><ele>847.75</ele><time>2026-04-11T08:47:36Z</time></trkpt><trkpt lat="46.67926133080337" lon="9.529852055081344"><ele>845.5</ele><time>2026-04-11T08:47:37Z</time></trkpt><trkpt lat="46.67930889407407" lon="9.530016085672989"><ele>843.25</ele><time>2026-04-11T08:47:38Z</time></trkpt><trkpt lat="46.67936567127791" lon="9.530180301759936"><ele>841.0</ele><time>2026-04-11T08:47:39Z</time></trkpt><trkpt lat="46.67942144279277" lon="9.53035311496339"><ele>838.5</ele><time>2026-04-11T08:47:40Z</time></trkpt><trkpt lat="46.67948450593367" lon="9.530536056469801"><ele>836.0</ele><time>2026-04-11T08:47:41Z</time></trkpt><trkpt lat="46.6795455641649" lon="9.530727591173678"><ele>833.5</ele><time>2026-04-11T08:47:42Z</time></trkpt><trkpt lat="46.67961005775321" lon="9.53093603052804"><ele>831.0</ele><time>2026-04-11T08:47:43Z</time></trkpt><trkpt lat="46.67967002287538" lon="9.531144953693897"><ele>837.0</ele><time>2026-04-11T08:47:44Z</time></trkpt><trkpt lat="46.67972752656834" lon="9.531364532272537"><ele>843.0</ele><time>2026-04-11T08:47:45Z</time></trkpt><trkpt lat="46.67978010749383" lon="9.531595231765934"><ele>849.0</ele><time>2026-04-11T08:47:46Z</time></trkpt><trkpt lat="46.67981211834385" lon="9.531847765987363"><ele>853.0</ele><time>2026-04-11T08:47:47Z</time></trkpt><trkpt lat="46.67982801370186" lon="9.532105886392237"><ele>857.0</ele><time>2026-04-11T08:47:48Z</time></trkpt><trkpt lat="46.679822574880184" lon="9.532367965812373"><ele>861.0</ele><time>2026-04-11T08:47:49Z</time></trkpt><trkpt lat="46.679803594933794" lon="9.532623983594839"><ele>861.0</ele><time>2026-04-11T08:47:50Z</time></trkpt><trkpt lat="46.679769046694325" lon="9.532887277303178"><ele>861.0</ele><time>2026-04-11T08:47:51Z</time></trkpt><trkpt lat="46.67971650444154" lon="9.533139980056802"><ele>861.0</ele><time>2026-04-11T08:47:52Z</time></trkpt><trkpt lat="46.67965077072706" lon="9.53338227572565"><ele>861.0</ele><time>2026-04-11T08:47:53Z</time></trkpt><trkpt lat="46.6795871146179" lon="9.53361704219119"><ele>861.0</ele><time>2026-04-11T08:47:54Z</time></trkpt><trkpt lat="46.679527982029406" lon="9.533849001507901"><ele>861.0</ele><time>2026-04-11T08:47:55Z</time></trkpt><trkpt lat="46.67948029280196" lon="9.534085647045345"><ele>861.0</ele><time>2026-04-11T08:47:56Z</time></trkpt><trkpt lat="46.67944397236477" lon="9.534350574757257"><ele>861.0</ele><time>2026-04-11T08:47:57Z</time></trkpt><trkpt lat="46.67941477814308" lon="9.534640350420414"><ele>861.0</ele><time>2026-04-11T08:47:58Z</time></trkpt><trkpt lat="46.67938535653172" lon="9.534957770497778"><ele>861.5</ele><time>2026-04-11T08:47:59Z</time></trkpt><trkpt lat="46.67935316440179" lon="9.535283403875368"><ele>862.0</ele><time>2026-04-11T08:48:00Z</time></trkpt><trkpt lat="46.67931870013952" lon="9.535617706308734"><ele>862.0</ele><time>2026-04-11T08:48:01Z</time></trkpt><trkpt lat="46.679285794491726" lon="9.535952054379038"><ele>862.0</ele><time>2026-04-11T08:48:02Z</time></trkpt><trkpt lat="46.67925504738173" lon="9.536284940955392"><ele>868.5</ele><time>2026-04-11T08:48:03Z</time></trkpt><trkpt lat="46.679222943527655" lon="9.536619811389743"><ele>875.0</ele><time>2026-04-11T08:48:04Z</time></trkpt><trkpt lat="46.6791892804127" lon="9.53697477825687"><ele>878.5</ele><time>2026-04-11T08:48:05Z</time></trkpt><trkpt lat="46.67915267014415" lon="9.53733463320449"><ele>882.0</ele><time>2026-04-11T08:48:06Z</time></trkpt><trkpt lat="46.67911626843778" lon="9.537703327954079"><ele>886.0</ele><time>2026-04-11T08:48:07Z</time></trkpt><trkpt lat="46.67907824002534" lon="9.538070775372459"><ele>890.0</ele><time>2026-04-11T08:48:08Z</time></trkpt><trkpt lat="46.67904047616214" lon="9.538445874852819"><ele>893.5</ele><time>2026-04-11T08:48:09Z</time></trkpt><trkpt lat="46.67900434908596" lon="9.538820977229474"><ele>897.0</ele><time>2026-04-11T08:48:10Z</time></trkpt><trkpt lat="46.67896613442479" lon="9.539198462961217"><ele>903.5</ele><time>2026-04-11T08:48:11Z</time></trkpt><trkpt lat="46.67892640183552" lon="9.53957676145485"><ele>910.0</ele><time>2026-04-11T08:48:12Z</time></trkpt><trkpt lat="46.67888610924982" lon="9.539955468977324"><ele>910.0</ele><time>2026-04-11T08:48:13Z</time></trkpt><trkpt lat="46.67884542508974" lon="9.540329320040822"><ele>910.0</ele><time>2026-04-11T08:48:14Z</time></trkpt><trkpt lat="46.6787989244566" lon="9.540684328389162"><ele>912.5</ele><time>2026-04-11T08:48:15Z</time></trkpt><trkpt lat="46.678743016119164" lon="9.541017002446866"><ele>915.0</ele><time>2026-04-11T08:48:16Z</time></trkpt><trkpt lat="46.678659120757956" lon="9.541347817253122"><ele>899.0</ele><time>2026-04-11T08:48:17Z</time></trkpt><trkpt lat="46.67855160592847" lon="9.541665857878257"><ele>883.0</ele><time>2026-04-11T08:48:18Z</time></trkpt><trkpt lat="46.67841178291387" lon="9.541958464976647"><ele>888.6666666666666</ele><time>2026-04-11T08:48:19Z</time></trkpt><trkpt lat="46.67825125754908" lon="9.542203505645942"><ele>894.3333333333333</ele><time>2026-04-11T08:48:20Z</time></trkpt><trkpt lat="46.67808700003382" lon="9.5424083669923"><ele>900.0</ele><time>2026-04-11T08:48:21Z</time></trkpt><trkpt lat="46.67791069129487" lon="9.542587519554553"><ele>897.3333333333333</ele><time>2026-04-11T08:48:22Z</time></trkpt><trkpt lat="46.67772446554758" lon="9.542749387544578"><ele>894.6666666666666</ele><time>2026-04-11T08:48:23Z</time></trkpt><trkpt lat="46.67753389279746" lon="9.54289811954658"><ele>892.0</ele><time>2026-04-11T08:48:24Z</time></trkpt><trkpt lat="46.67734059049438" lon="9.543051752094946"><ele>899.3333333333333</ele><time>2026-04-11T08:48:25Z</time></trkpt><trkpt lat="46.67715202132976" lon="9.54321133969905"><ele>906.6666666666667</ele><time>2026-04-11T08:48:26Z</time></trkpt><trkpt lat="46.67696641818408" lon="9.54337737120032"><ele>914.0</ele><time>2026-04-11T08:48:27Z</time></trkpt><trkpt lat="46.6767898167137" lon="9.543556610440188"><ele>930.6666666666667</ele><time>2026-04-11T08:48:28Z</time></trkpt><trkpt lat="46.67663310133396" lon="9.543738006409267"><ele>947.3333333333333</ele><time>2026-04-11T08:48:29Z</time></trkpt><trkpt lat="46.67649061261748" lon="9.543919634071614"><ele>964.0</ele><time>2026-04-11T08:48:30Z</time></trkpt><trkpt lat="46.67635205432847" lon="9.54411162334937"><ele>964.0</ele><time>2026-04-11T08:48:31Z</time></trkpt><trkpt lat="46.67622270686897" lon="9.544317897974317"><ele>964.0</ele><time>2026-04-11T08:48:32Z</time></trkpt><trkpt lat="46.67609105746345" lon="9.544549069704916"><ele>964.0</ele><time>2026-04-11T08:48:33.058Z</time></trkpt><trkpt lat="46.67596039331658" lon="9.544759620172716"><ele>969.3333333333333</ele><time>2026-04-11T08:48:34.056Z</time></trkpt><trkpt lat="46.675846614756274" lon="9.544981886595947"><ele>974.6666666666667</ele><time>2026-04-11T08:48:35.053Z</time></trkpt><trkpt lat="46.675732990559844" lon="9.54520490466537"><ele>980.0</ele><time>2026-04-11T08:48:36.055Z</time></trkpt><trkpt lat="46.67527585670746" lon="9.546136943603381"><ele>984.0</ele><time>2026-04-11T08:48:40.181Z</time></trkpt><trkpt lat="46.675161566174836" lon="9.546359115104933"><ele>988.0</ele><time>2026-04-11T08:48:41.181Z</time></trkpt><trkpt lat="46.67503377074379" lon="9.546567147273713"><ele>992.0</ele><time>2026-04-11T08:48:42.181Z</time></trkpt><trkpt lat="46.67493342015584" lon="9.546804695780516"><ele>992.0</ele><time>2026-04-11T08:48:43.182Z</time></trkpt><trkpt lat="46.67481981834424" lon="9.547027619598808"><ele>992.0</ele><time>2026-04-11T08:48:44.181Z</time></trkpt><trkpt lat="46.6747732" lon="9.5471191"><ele>992.0</ele><time>2026-04-11T08:48:45.181Z</time></trkpt><trkpt lat="46.673206198315434" lon="9.5540558258145"><ele>973.6666666666667</ele><time>2026-04-11T08:49:15.999Z</time></trkpt><trkpt lat="46.673274808847175" lon="9.55433968142655"><ele>955.3333333333333</ele><time>2026-04-11T08:49:16.999Z</time></trkpt><trkpt lat="46.67334259399536" lon="9.554654073568187"><ele>937.0</ele><time>2026-04-11T08:49:17.999Z</time></trkpt><trkpt lat="46.67341972800312" lon="9.554984807229252"><ele>936.5</ele><time>2026-04-11T08:49:18.999Z</time></trkpt><trkpt lat="46.67350968762112" lon="9.555343290587711"><ele>936.0</ele><time>2026-04-11T08:49:19.999Z</time></trkpt><trkpt lat="46.673603448751145" lon="9.555721814525413"><ele>941.0</ele><time>2026-04-11T08:49:20.999Z</time></trkpt><trkpt lat="46.67369554659878" lon="9.556154407806286"><ele>946.0</ele><time>2026-04-11T08:49:22Z</time></trkpt><trkpt lat="46.67375640247409" lon="9.556552397770943"><ele>946.0</ele><time>2026-04-11T08:49:23Z</time></trkpt><trkpt lat="46.67381030095661" lon="9.556946841466546"><ele>946.0</ele><time>2026-04-11T08:49:24Z</time></trkpt><trkpt lat="46.67384923094732" lon="9.557317485288944"><ele>949.5</ele><time>2026-04-11T08:49:25Z</time></trkpt><trkpt lat="46.67385534427209" lon="9.557664680901189"><ele>953.0</ele><time>2026-04-11T08:49:26Z</time></trkpt><trkpt lat="46.673852524265726" lon="9.55802733638716"><ele>959.0</ele><time>2026-04-11T08:49:27Z</time></trkpt><trkpt lat="46.67383344163927" lon="9.55837005176904"><ele>965.0</ele><time>2026-04-11T08:49:28Z</time></trkpt><trkpt lat="46.67379999498428" lon="9.558714247919125"><ele>973.5</ele><time>2026-04-11T08:49:29Z</time></trkpt><trkpt lat="46.673754665279006" lon="9.55904493898362"><ele>982.0</ele><time>2026-04-11T08:49:30Z</time></trkpt><trkpt lat="46.67369830492518" lon="9.559361237399884"><ele>986.5</ele><time>2026-04-11T08:49:31Z</time></trkpt><trkpt lat="46.67362499717824" lon="9.55967747290456"><ele>991.0</ele><time>2026-04-11T08:49:32Z</time></trkpt><trkpt lat="46.67354135600762" lon="9.559991800297253"><ele>976.5</ele><time>2026-04-11T08:49:33Z</time></trkpt><trkpt lat="46.673435629079115" lon="9.560288848601536"><ele>962.0</ele><time>2026-04-11T08:49:34Z</time></trkpt><trkpt lat="46.67332449186133" lon="9.560592092927182"><ele>962.0</ele><time>2026-04-11T08:49:35Z</time></trkpt><trkpt lat="46.67319616250198" lon="9.560878021909174"><ele>962.0</ele><time>2026-04-11T08:49:36Z</time></trkpt><trkpt lat="46.67305986443847" lon="9.561155656077437"><ele>966.0</ele><time>2026-04-11T08:49:37Z</time></trkpt><trkpt lat="46.67291636921394" lon="9.561417248285633"><ele>970.0</ele><time>2026-04-11T08:49:38Z</time></trkpt><trkpt lat="46.67276841337481" lon="9.561683274821839"><ele>970.0</ele><time>2026-04-11T08:49:39Z</time></trkpt><trkpt lat="46.67261420471431" lon="9.561953030194388"><ele>970.0</ele><time>2026-04-11T08:49:40Z</time></trkpt><trkpt lat="46.67245834982262" lon="9.5622159124085"><ele>965.5</ele><time>2026-04-11T08:49:41Z</time></trkpt><trkpt lat="46.672309312394454" lon="9.562475825765144"><ele>961.0</ele><time>2026-04-11T08:49:42Z</time></trkpt><trkpt lat="46.67216623151244" lon="9.56272208127196"><ele>962.6666666666666</ele><time>2026-04-11T08:49:43Z</time></trkpt><trkpt lat="46.67202805488614" lon="9.562960636051837"><ele>964.3333333333333</ele><time>2026-04-11T08:49:44Z</time></trkpt><trkpt lat="46.671872683617764" lon="9.56321622146178"><ele>966.0</ele><time>2026-04-11T08:49:45Z</time></trkpt><trkpt lat="46.671710639092986" lon="9.563464535152834"><ele>959.5</ele><time>2026-04-11T08:49:46Z</time></trkpt><trkpt lat="46.67154863761765" lon="9.563690990477609"><ele>953.0</ele><time>2026-04-11T08:49:47Z</time></trkpt><trkpt lat="46.67137456391377" lon="9.56390634842511"><ele>953.0</ele><time>2026-04-11T08:49:48Z</time></trkpt><trkpt lat="46.67119468397968" lon="9.5641087366632"><ele>953.0</ele><time>2026-04-11T08:49:49Z</time></trkpt><trkpt lat="46.670991032916" lon="9.56429072470126"><ele>953.5</ele><time>2026-04-11T08:49:50Z</time></trkpt><trkpt lat="46.67079082807301" lon="9.56447142247523"><ele>954.0</ele><time>2026-04-11T08:49:51Z</time></trkpt><trkpt lat="46.67058800108612" lon="9.564635636773236"><ele>954.0</ele><time>2026-04-11T08:49:52Z</time></trkpt><trkpt lat="46.67038867800281" lon="9.564781834675895"><ele>954.0</ele><time>2026-04-11T08:49:53Z</time></trkpt><trkpt lat="46.67019613396969" lon="9.564919434609681"><ele>954.0</ele><time>2026-04-11T08:49:54Z</time></trkpt><trkpt lat="46.67000462387646" lon="9.565055955875009"><ele>950.3333333333333</ele><time>2026-04-11T08:49:55Z</time></trkpt><trkpt lat="46.66980728355034" lon="9.565199084019094"><ele>946.6666666666666</ele><time>2026-04-11T08:49:56Z</time></trkpt><trkpt lat="46.66961457193499" lon="9.5653445401865"><ele>943.0</ele><time>2026-04-11T08:49:57Z</time></trkpt><trkpt lat="46.66944001520021" lon="9.56550996617954"><ele>942.0</ele><time>2026-04-11T08:49:58Z</time></trkpt><trkpt lat="46.66928491608321" lon="9.56571011002397"><ele>941.0</ele><time>2026-04-11T08:49:59Z</time></trkpt><trkpt lat="46.669152274646706" lon="9.565941633526524"><ele>940.0</ele><time>2026-04-11T08:50:00Z</time></trkpt><trkpt lat="46.669043079434275" lon="9.56620321065759"><ele>944.0</ele><time>2026-04-11T08:50:01Z</time></trkpt><trkpt lat="46.66895055656937" lon="9.566485579761826"><ele>948.0</ele><time>2026-04-11T08:50:02Z</time></trkpt><trkpt lat="46.66886514035089" lon="9.56676948345163"><ele>952.0</ele><time>2026-04-11T08:50:03Z</time></trkpt><trkpt lat="46.66876866221381" lon="9.567043335592533"><ele>960.0</ele><time>2026-04-11T08:50:04Z</time></trkpt><trkpt lat="46.66863710304378" lon="9.567298437014996"><ele>968.0</ele><time>2026-04-11T08:50:05Z</time></trkpt><trkpt lat="46.66848492353498" lon="9.567537371851582"><ele>976.0</ele><time>2026-04-11T08:50:06Z</time></trkpt><trkpt lat="46.66833050358147" lon="9.567768133378259"><ele>963.3333333333333</ele><time>2026-04-11T08:50:07Z</time></trkpt><trkpt lat="46.66819313270086" lon="9.568003025591684"><ele>950.6666666666667</ele><time>2026-04-11T08:50:08Z</time></trkpt><trkpt lat="46.66807097445685" lon="9.568256012244404"><ele>938.0</ele><time>2026-04-11T08:50:09Z</time></trkpt><trkpt lat="46.66795238388553" lon="9.568505727600149"><ele>947.0</ele><time>2026-04-11T08:50:10Z</time></trkpt><trkpt lat="46.667835705550175" lon="9.56875166428057"><ele>956.0</ele><time>2026-04-11T08:50:11Z</time></trkpt><trkpt lat="46.66773479125212" lon="9.569006859413346"><ele>965.0</ele><time>2026-04-11T08:50:12Z</time></trkpt><trkpt lat="46.66762446805674" lon="9.569250773390737"><ele>955.6666666666667</ele><time>2026-04-11T08:50:13Z</time></trkpt><trkpt lat="46.66748553050641" lon="9.56945463599392"><ele>946.3333333333333</ele><time>2026-04-11T08:50:14Z</time></trkpt><trkpt lat="46.667332568885094" lon="9.569637124409558"><ele>937.0</ele><time>2026-04-11T08:50:15Z</time></trkpt><trkpt lat="46.667183815081295" lon="9.569818471402435"><ele>937.0</ele><time>2026-04-11T08:50:16Z</time></trkpt><trkpt lat="46.667073183836685" lon="9.570036098010949"><ele>937.0</ele><time>2026-04-11T08:50:17Z</time></trkpt><trkpt lat="46.66698502337408" lon="9.570244141373369"><ele>937.0</ele><time>2026-04-11T08:50:18Z</time></trkpt><trkpt lat="46.666890558754446" lon="9.570405374620458"><ele>932.75</ele><time>2026-04-11T08:50:19Z</time></trkpt><trkpt lat="46.66677406035855" lon="9.570516213509055"><ele>928.5</ele><time>2026-04-11T08:50:20Z</time></trkpt><trkpt lat="46.66664751333338" lon="9.5705984298606"><ele>924.25</ele><time>2026-04-11T08:50:21Z</time></trkpt><trkpt lat="46.66650886719013" lon="9.570661804687925"><ele>920.0</ele><time>2026-04-11T08:50:22Z</time></trkpt><trkpt lat="46.66636537172018" lon="9.570714301417402"><ele>920.0</ele><time>2026-04-11T08:50:23Z</time></trkpt><trkpt lat="46.66622540812264" lon="9.570767361622552"><ele>920.0</ele><time>2026-04-11T08:50:24Z</time></trkpt><trkpt lat="46.666089217229604" lon="9.570819461467243"><ele>920.0</ele><time>2026-04-11T08:50:25Z</time></trkpt><trkpt lat="46.66596519959807" lon="9.570863484768875"><ele>920.0</ele><time>2026-04-11T08:50:26Z</time></trkpt><trkpt lat="46.6658575487233" lon="9.570910385309727"><ele>919.8</ele><time>2026-04-11T08:50:27Z</time></trkpt><trkpt lat="46.66575167297551" lon="9.57096793056786"><ele>919.6</ele><time>2026-04-11T08:50:28Z</time></trkpt><trkpt lat="46.66565286771784" lon="9.57103239502007"><ele>919.4000000000001</ele><time>2026-04-11T08:50:29Z</time></trkpt><trkpt lat="46.66556324272367" lon="9.57109187525507"><ele>919.2</ele><time>2026-04-11T08:50:30Z</time></trkpt><trkpt lat="46.66548125801904" lon="9.571151371460369"><ele>919.0</ele><time>2026-04-11T08:50:31Z</time></trkpt><trkpt lat="46.66540245753802" lon="9.571205130512809"><ele>919.0</ele><time>2026-04-11T08:50:32Z</time></trkpt><trkpt lat="46.66532097977545" lon="9.571236147849458"><ele>919.0000000000001</ele><time>2026-04-11T08:50:33Z</time></trkpt><trkpt lat="46.66522910049573" lon="9.571258526551988"><ele>919.0000000000001</ele><time>2026-04-11T08:50:34Z</time></trkpt><trkpt lat="46.6651291466023" lon="9.571279232975266"><ele>919.0</ele><time>2026-04-11T08:50:35Z</time></trkpt><trkpt lat="46.6650328768166" lon="9.571294535994774"><ele>919.0</ele><time>2026-04-11T08:50:36Z</time></trkpt><trkpt lat="46.66495383486218" lon="9.571301736317688"><ele>914.2</ele><time>2026-04-11T08:50:36.999Z</time></trkpt><trkpt lat="46.66489018182058" lon="9.571312554238288"><ele>909.4000000000001</ele><time>2026-04-11T08:50:37.999Z</time></trkpt><trkpt lat="46.664781501239354" lon="9.571281498371626"><ele>904.6</ele><time>2026-04-11T08:50:39.999Z</time></trkpt><trkpt lat="46.66473442203859" lon="9.571468086761064"><ele>899.8</ele><time>2026-04-11T08:50:40.999Z</time></trkpt><trkpt lat="46.66471208103505" lon="9.571582876666946"><ele>895.0</ele><time>2026-04-11T08:50:41.999Z</time></trkpt><trkpt lat="46.664701622708435" lon="9.571693859241327"><ele>894.9999999999999</ele><time>2026-04-11T08:50:42.999Z</time></trkpt><trkpt lat="46.66468369757392" lon="9.571794217933117"><ele>895.0</ele><time>2026-04-11T08:50:43.999Z</time></trkpt><trkpt lat="46.6646438126844" lon="9.571895842614213"><ele>895.0</ele><time>2026-04-11T08:50:45.999Z</time></trkpt><trkpt lat="46.66475129857839" lon="9.571812509215443"><ele>895.0</ele><time>2026-04-11T08:51:41Z</time></trkpt><trkpt lat="46.66480949858184" lon="9.571742394568993"><ele>894.9999999999999</ele><time>2026-04-11T08:51:42Z</time></trkpt><trkpt lat="46.664856444036516" lon="9.571674016516392"><ele>895.0</ele><time>2026-04-11T08:51:43Z</time></trkpt><trkpt lat="46.66492852770145" lon="9.571569021673596"><ele>895.0</ele><time>2026-04-11T08:51:45Z</time></trkpt><trkpt lat="46.664741413701684" lon="9.571241603593801"><ele>895.0</ele><time>2026-04-11T08:51:48Z</time></trkpt><trkpt lat="46.66465273560831" lon="9.571201025787222"><ele>895.0</ele><time>2026-04-11T08:51:49Z</time></trkpt><trkpt lat="46.664549484582494" lon="9.57118427299688"><ele>892.2</ele><time>2026-04-11T08:51:50Z</time></trkpt><trkpt lat="46.66445477937345" lon="9.571179677632928"><ele>889.4</ele><time>2026-04-11T08:51:51Z</time></trkpt><trkpt lat="46.664369289629704" lon="9.571198737497493"><ele>886.5999999999999</ele><time>2026-04-11T08:51:52Z</time></trkpt><trkpt lat="46.66429731472296" lon="9.57126119302763"><ele>883.8</ele><time>2026-04-11T08:51:53Z</time></trkpt><trkpt lat="46.664229541633425" lon="9.571351615782378"><ele>881.0</ele><time>2026-04-11T08:51:54Z</time></trkpt><trkpt lat="46.66415095914993" lon="9.5714914840471"><ele>880.8</ele><time>2026-04-11T08:51:55Z</time></trkpt><trkpt lat="46.664112658465946" lon="9.571587967854079"><ele>880.5999999999999</ele><time>2026-04-11T08:51:56Z</time></trkpt><trkpt lat="46.664063420988604" lon="9.571712380463511"><ele>880.4</ele><time>2026-04-11T08:51:57Z</time></trkpt><trkpt lat="46.664007404999516" lon="9.571838943341659"><ele>880.2</ele><time>2026-04-11T08:51:58Z</time></trkpt><trkpt lat="46.66395170422599" lon="9.571971494213988"><ele>880.0</ele><time>2026-04-11T08:51:59Z</time></trkpt><trkpt lat="46.66389409778821" lon="9.572097363387792"><ele>880.8</ele><time>2026-04-11T08:52:00Z</time></trkpt><trkpt lat="46.66384062453963" lon="9.572238000094236"><ele>881.6</ele><time>2026-04-11T08:52:01Z</time></trkpt><trkpt lat="46.66381383294029" lon="9.57240491031885"><ele>882.4000000000001</ele><time>2026-04-11T08:52:02Z</time></trkpt><trkpt lat="46.66375657490521" lon="9.572547848306158"><ele>883.2</ele><time>2026-04-11T08:52:03Z</time></trkpt><trkpt lat="46.66367331050772" lon="9.57261354386121"><ele>884.0</ele><time>2026-04-11T08:52:04Z</time></trkpt><trkpt lat="46.66361167915383" lon="9.572755045973922"><ele>879.75</ele><time>2026-04-11T08:52:05Z</time></trkpt><trkpt lat="46.663548870190986" lon="9.572901483877276"><ele>875.5</ele><time>2026-04-11T08:52:06Z</time></trkpt><trkpt lat="46.66348131387939" lon="9.57305725418108"><ele>871.25</ele><time>2026-04-11T08:52:07Z</time></trkpt><trkpt lat="46.66341265214568" lon="9.57321528012342"><ele>867.0</ele><time>2026-04-11T08:52:08Z</time></trkpt><trkpt lat="46.66334183023773" lon="9.573376385668123"><ele>867.0</ele><time>2026-04-11T08:52:09Z</time></trkpt><trkpt lat="46.663273005246374" lon="9.573533025459406"><ele>867.0</ele><time>2026-04-11T08:52:10Z</time></trkpt><trkpt lat="46.66320446189093" lon="9.573694746156571"><ele>867.0</ele><time>2026-04-11T08:52:11Z</time></trkpt><trkpt lat="46.66314091776886" lon="9.573849537849652"><ele>867.0</ele><time>2026-04-11T08:52:12Z</time></trkpt><trkpt lat="46.66308484639963" lon="9.574005749723417"><ele>869.25</ele><time>2026-04-11T08:52:13Z</time></trkpt><trkpt lat="46.66304281783248" lon="9.574176719877986"><ele>871.5</ele><time>2026-04-11T08:52:14Z</time></trkpt><trkpt lat="46.663003338262435" lon="9.574349416650705"><ele>873.75</ele><time>2026-04-11T08:52:15Z</time></trkpt><trkpt lat="46.66296892133778" lon="9.574522866334757"><ele>876.0</ele><time>2026-04-11T08:52:16Z</time></trkpt><trkpt lat="46.66293469793017" lon="9.574697955018511"><ele>878.25</ele><time>2026-04-11T08:52:17Z</time></trkpt><trkpt lat="46.662897695103794" lon="9.574844993214843"><ele>880.5</ele><time>2026-04-11T08:52:18Z</time></trkpt><trkpt lat="46.66286104899244" lon="9.575030011096327"><ele>882.75</ele><time>2026-04-11T08:52:19Z</time></trkpt><trkpt lat="46.66281964297582" lon="9.575202749590154"><ele>885.0</ele><time>2026-04-11T08:52:20Z</time></trkpt><trkpt lat="46.662767880393474" lon="9.575375779515301"><ele>877.75</ele><time>2026-04-11T08:52:21Z</time></trkpt><trkpt lat="46.6627133993896" lon="9.575541679362336"><ele>870.5</ele><time>2026-04-11T08:52:22Z</time></trkpt><trkpt lat="46.662662365223525" lon="9.575689016983922"><ele>863.25</ele><time>2026-04-11T08:52:23Z</time></trkpt><trkpt lat="46.66261849021484" lon="9.5758394147823"><ele>856.0</ele><time>2026-04-11T08:52:24Z</time></trkpt><trkpt lat="46.662590616331165" lon="9.575984128816222"><ele>855.9999999999999</ele><time>2026-04-11T08:52:25Z</time></trkpt><trkpt lat="46.66258690353914" lon="9.576122339544964"><ele>856.0</ele><time>2026-04-11T08:52:26Z</time></trkpt><trkpt lat="46.662613909045554" lon="9.576232029736115"><ele>856.0</ele><time>2026-04-11T08:52:27Z</time></trkpt><trkpt lat="46.66263539785501" lon="9.576345666027342"><ele>856.0</ele><time>2026-04-11T08:52:28Z</time></trkpt><trkpt lat="46.66262311948918" lon="9.576442201872736"><ele>855.9999999999999</ele><time>2026-04-11T08:52:29Z</time></trkpt><trkpt lat="46.6625846553875" lon="9.576520292996603"><ele>856.0</ele><time>2026-04-11T08:52:30Z</time></trkpt><trkpt lat="46.6625324717288" lon="9.576580396361697"><ele>855.4</ele><time>2026-04-11T08:52:31Z</time></trkpt><trkpt lat="46.66243298798872" lon="9.57664621999198"><ele>854.8</ele><time>2026-04-11T08:52:33Z</time></trkpt><trkpt lat="46.66233914101726" lon="9.576689733094556"><ele>854.1999999999999</ele><time>2026-04-11T08:52:35Z</time></trkpt><trkpt lat="46.66224013067672" lon="9.576633679169648"><ele>853.5999999999999</ele><time>2026-04-11T08:52:37Z</time></trkpt><trkpt lat="46.66219453305215" lon="9.576564270949726"><ele>853.0</ele><time>2026-04-11T08:52:38Z</time></trkpt><trkpt lat="46.66212373462327" lon="9.576424203132298"><ele>852.9999999999999</ele><time>2026-04-11T08:52:40Z</time></trkpt><trkpt lat="46.6620596109745" lon="9.57625090599794"><ele>853.0</ele><time>2026-04-11T08:52:41.999Z</time></trkpt><trkpt lat="46.66203080195115" lon="9.5761654450781"><ele>853.0</ele><time>2026-04-11T08:52:42.999Z</time></trkpt><trkpt lat="46.66200456290423" lon="9.57606726792338"><ele>853.0</ele><time>2026-04-11T08:52:43.999Z</time></trkpt><trkpt lat="46.66198720951052" lon="9.575957859785294"><ele>852.9999999999999</ele><time>2026-04-11T08:52:44.999Z</time></trkpt><trkpt lat="46.66198848484617" lon="9.575852524276591"><ele>853.0</ele><time>2026-04-11T08:52:45.999Z</time></trkpt><trkpt lat="46.66199019783618" lon="9.575756451169244"><ele>853.4999999999999</ele><time>2026-04-11T08:52:46.999Z</time></trkpt><trkpt lat="46.661952079050984" lon="9.575622621992972"><ele>854.0</ele><time>2026-04-11T08:52:48.999Z</time></trkpt><trkpt lat="46.66187756585664" lon="9.575619384949785"><ele>854.5</ele><time>2026-04-11T08:52:49.999Z</time></trkpt><trkpt lat="46.661802973846584" lon="9.575675004894908"><ele>855.0</ele><time>2026-04-11T08:52:50.999Z</time></trkpt><trkpt lat="46.661774804868315" lon="9.575827936814408"><ele>855.4999999999999</ele><time>2026-04-11T08:52:51.999Z</time></trkpt><trkpt lat="46.661727623833215" lon="9.575909010381801"><ele>856.0</ele><time>2026-04-11T08:52:52.999Z</time></trkpt><trkpt lat="46.661680876412525" lon="9.575984063817204"><ele>857.3333333333333</ele><time>2026-04-11T08:52:53.999Z</time></trkpt><trkpt lat="46.661631718403775" lon="9.57604742859245"><ele>858.6666666666666</ele><time>2026-04-11T08:52:54.999Z</time></trkpt><trkpt lat="46.66154847821545" lon="9.576148272159575"><ele>860.0</ele><time>2026-04-11T08:52:56.999Z</time></trkpt><trkpt lat="46.66146682658873" lon="9.576194475426053"><ele>861.3333333333333</ele><time>2026-04-11T08:52:58.999Z</time></trkpt><trkpt lat="46.66142480391057" lon="9.57626558759164"><ele>862.6666666666666</ele><time>2026-04-11T08:53:01.999Z</time></trkpt><trkpt lat="46.661392227333494" lon="9.576385634124476"><ele>864.0</ele><time>2026-04-11T08:53:04.999Z</time></trkpt><trkpt lat="46.661460375771554" lon="9.576533057984228"><ele>864.0</ele><time>2026-04-11T08:53:29.999Z</time></trkpt><trkpt lat="46.6615323934735" lon="9.576584096877708"><ele>864.0</ele><time>2026-04-11T08:53:31.999Z</time></trkpt><trkpt lat="46.66157610449032" lon="9.576424483572875"><ele>864.0</ele><time>2026-04-11T08:53:47Z</time></trkpt><trkpt lat="46.661524904159144" lon="9.576502197720783"><ele>864.0</ele><time>2026-04-11T08:53:58.997Z</time></trkpt><trkpt lat="46.66145078434734" lon="9.576497427214571"><ele>864.0</ele><time>2026-04-11T08:54:01.997Z</time></trkpt><trkpt lat="46.66139258008347" lon="9.576431035493345"><ele>864.0</ele><time>2026-04-11T08:54:03.997Z</time></trkpt><trkpt lat="46.66129146974189" lon="9.576470822451594"><ele>864.0</ele><time>2026-04-11T08:54:06.997Z</time></trkpt><trkpt lat="46.6611923706453" lon="9.576543927205622"><ele>864.0000000000001</ele><time>2026-04-11T08:54:08.996Z</time></trkpt><trkpt lat="46.66108466227785" lon="9.576561221944687"><ele>864.0000000000001</ele><time>2026-04-11T08:54:10.996Z</time></trkpt><trkpt lat="46.66099045792432" lon="9.576567778122689"><ele>864.0</ele><time>2026-04-11T08:54:12.996Z</time></trkpt><trkpt lat="46.66088566943057" lon="9.57656497960654"><ele>864.0</ele><time>2026-04-11T08:54:14.996Z</time></trkpt><trkpt lat="46.66077273289572" lon="9.576578225572545"><ele>866.1666666666666</ele><time>2026-04-11T08:54:16.996Z</time></trkpt><trkpt lat="46.66064718604407" lon="9.57659070630161"><ele>868.3333333333333</ele><time>2026-04-11T08:54:18.996Z</time></trkpt><trkpt lat="46.6605824818619" lon="9.576587115384562"><ele>870.5</ele><time>2026-04-11T08:54:19.996Z</time></trkpt><trkpt lat="46.66051245167367" lon="9.576591171720876"><ele>872.6666666666666</ele><time>2026-04-11T08:54:20.996Z</time></trkpt><trkpt lat="46.660443524448276" lon="9.576592631587843"><ele>874.8333333333333</ele><time>2026-04-11T08:54:21.996Z</time></trkpt><trkpt lat="46.66037779292417" lon="9.576600755898328"><ele>877.0</ele><time>2026-04-11T08:54:22.996Z</time></trkpt><trkpt lat="46.66025106869879" lon="9.576600327217824"><ele>877.8571428571429</ele><time>2026-04-11T08:54:24.996Z</time></trkpt><trkpt lat="46.6601860191866" lon="9.576608562627431"><ele>878.7142857142858</ele><time>2026-04-11T08:54:25.996Z</time></trkpt><trkpt lat="46.660116989418626" lon="9.576615721586126"><ele>879.5714285714287</ele><time>2026-04-11T08:54:26.996Z</time></trkpt><trkpt lat="46.660045434712714" lon="9.576613851000028"><ele>880.4285714285714</ele><time>2026-04-11T08:54:27.996Z</time></trkpt><trkpt lat="46.65996964343888" lon="9.576615830388938"><ele>881.2857142857142</ele><time>2026-04-11T08:54:28.996Z</time></trkpt><trkpt lat="46.65989026531403" lon="9.576616830560969"><ele>882.1428571428572</ele><time>2026-04-11T08:54:29.996Z</time></trkpt><trkpt lat="46.659808429945535" lon="9.576606090124248"><ele>883.0</ele><time>2026-04-11T08:54:30.995Z</time></trkpt><trkpt lat="46.659729832786006" lon="9.576596549548162"><ele>882.9999999999999</ele><time>2026-04-11T08:54:31.995Z</time></trkpt><trkpt lat="46.65963825743402" lon="9.576585298974456"><ele>883.0</ele><time>2026-04-11T08:54:32.995Z</time></trkpt><trkpt lat="46.65954797127835" lon="9.576573093439965"><ele>883.0</ele><time>2026-04-11T08:54:33.995Z</time></trkpt><trkpt lat="46.659458739921305" lon="9.576563500945191"><ele>883.0</ele><time>2026-04-11T08:54:34.995Z</time></trkpt><trkpt lat="46.65937120047664" lon="9.57656313616059"><ele>882.9999999999999</ele><time>2026-04-11T08:54:35.995Z</time></trkpt><trkpt lat="46.65929318205335" lon="9.576569693177234"><ele>883.0</ele><time>2026-04-11T08:54:36.995Z</time></trkpt><trkpt lat="46.65917930828705" lon="9.576573179432243"><ele>884.8333333333333</ele><time>2026-04-11T08:54:38.995Z</time></trkpt><trkpt lat="46.65911980243561" lon="9.576620648426479"><ele>886.6666666666666</ele><time>2026-04-11T08:54:40.995Z</time></trkpt><trkpt lat="46.65906278717963" lon="9.57666131614591"><ele>888.5</ele><time>2026-04-11T08:54:42.995Z</time></trkpt><trkpt lat="46.659006438282866" lon="9.576712957332544"><ele>890.3333333333333</ele><time>2026-04-11T08:54:44.995Z</time></trkpt><trkpt lat="46.65907815728989" lon="9.576702406600127"><ele>892.1666666666666</ele><time>2026-04-11T08:54:51.995Z</time></trkpt><trkpt lat="46.659136959458344" lon="9.576661088004144"><ele>894.0</ele><time>2026-04-11T08:54:53.995Z</time></trkpt><trkpt lat="46.65890690459145" lon="9.57682849643332"><ele>894.0</ele><time>2026-04-11T08:54:54.995Z</time></trkpt><trkpt lat="46.65943218531652" lon="9.576862875495182"><ele>891.8000000000001</ele><time>2026-04-11T08:54:55.995Z</time></trkpt><trkpt lat="46.65947180415287" lon="9.576784964936364"><ele>889.6000000000001</ele><time>2026-04-11T08:54:56.995Z</time></trkpt><trkpt lat="46.65954014586204" lon="9.57668733525303"><ele>887.4</ele><time>2026-04-11T08:54:58.995Z</time></trkpt><trkpt lat="46.65962793853954" lon="9.576614117055927"><ele>885.2</ele><time>2026-04-11T08:55:00.995Z</time></trkpt><trkpt lat="46.659723613434096" lon="9.576621984159774"><ele>883.0</ele><time>2026-04-11T08:55:01.995Z</time></trkpt><trkpt lat="46.659821326978424" lon="9.57662131975271"><ele>883.0</ele><time>2026-04-11T08:55:02.995Z</time></trkpt><trkpt lat="46.65991278292215" lon="9.576622196989495"><ele>883.0</ele><time>2026-04-11T08:55:03.995Z</time></trkpt><trkpt lat="46.660002282674434" lon="9.576620883814748"><ele>883.0</ele><time>2026-04-11T08:55:04.995Z</time></trkpt><trkpt lat="46.660100710402666" lon="9.576620515819753"><ele>883.0</ele><time>2026-04-11T08:55:05.995Z</time></trkpt><trkpt lat="46.660198737808564" lon="9.576616117739528"><ele>883.0</ele><time>2026-04-11T08:55:06.995Z</time></trkpt><trkpt lat="46.66030016119841" lon="9.576615725762963"><ele>881.8</ele><time>2026-04-11T08:55:07.995Z</time></trkpt><trkpt lat="46.660399771055175" lon="9.576610985413776"><ele>880.5999999999999</ele><time>2026-04-11T08:55:08.995Z</time></trkpt><trkpt lat="46.6605022490056" lon="9.576608669488786"><ele>879.4000000000001</ele><time>2026-04-11T08:55:09.995Z</time></trkpt><trkpt lat="46.66060308567173" lon="9.57660015747322"><ele>878.2</ele><time>2026-04-11T08:55:10.995Z</time></trkpt><trkpt lat="46.66070376775666" lon="9.57658750239832"><ele>877.0</ele><time>2026-04-11T08:55:11.995Z</time></trkpt><trkpt lat="46.660802454178615" lon="9.576575236231609"><ele>877.0</ele><time>2026-04-11T08:55:12.995Z</time></trkpt><trkpt lat="46.66090150581956" lon="9.576567871878831"><ele>877.0</ele><time>2026-04-11T08:55:13.995Z</time></trkpt><trkpt lat="46.66099281652014" lon="9.576570292978829"><ele>877.0</ele><time>2026-04-11T08:55:14.995Z</time></trkpt><trkpt lat="46.661080329877805" lon="9.576573450118156"><ele>877.0</ele><time>2026-04-11T08:55:15.995Z</time></trkpt><trkpt lat="46.66117190488213" lon="9.576554596417294"><ele>877.0</ele><time>2026-04-11T08:55:16.995Z</time></trkpt><trkpt lat="46.66125381411641" lon="9.57651786435698"><ele>875.6666666666666</ele><time>2026-04-11T08:55:17.995Z</time></trkpt><trkpt lat="46.66133517042406" lon="9.576472624961438"><ele>874.3333333333333</ele><time>2026-04-11T08:55:18.995Z</time></trkpt><trkpt lat="46.66140515167854" lon="9.576397999124795"><ele>873.0</ele><time>2026-04-11T08:55:19.995Z</time></trkpt><trkpt lat="46.66147611499539" lon="9.57633055994999"><ele>871.6666666666667</ele><time>2026-04-11T08:55:20.995Z</time></trkpt><trkpt lat="46.66152412745307" lon="9.576217398105939"><ele>870.3333333333334</ele><time>2026-04-11T08:55:21.995Z</time></trkpt><trkpt lat="46.66158397296215" lon="9.576135119499845"><ele>869.0</ele><time>2026-04-11T08:55:22.995Z</time></trkpt><trkpt lat="46.661648868772076" lon="9.576052850992532"><ele>869.0</ele><time>2026-04-11T08:55:23.995Z</time></trkpt><trkpt lat="46.66171656626413" lon="9.575965958970254"><ele>869.0000000000001</ele><time>2026-04-11T08:55:24.995Z</time></trkpt><trkpt lat="46.66177093816003" lon="9.575874496804635"><ele>869.0000000000001</ele><time>2026-04-11T08:55:25.995Z</time></trkpt><trkpt lat="46.66183002517966" lon="9.575798792484683"><ele>869.0</ele><time>2026-04-11T08:55:26.995Z</time></trkpt><trkpt lat="46.66188743990578" lon="9.575669001255061"><ele>869.0</ele><time>2026-04-11T08:55:28.995Z</time></trkpt><trkpt lat="46.66198148813262" lon="9.575781082060733"><ele>866.8333333333334</ele><time>2026-04-11T08:55:30.995Z</time></trkpt><trkpt lat="46.661959663533146" lon="9.575896106972316"><ele>864.6666666666667</ele><time>2026-04-11T08:55:31.995Z</time></trkpt><trkpt lat="46.66198310501868" lon="9.576007540478379"><ele>862.5</ele><time>2026-04-11T08:55:32.995Z</time></trkpt><trkpt lat="46.66200252294268" lon="9.576128971140074"><ele>860.3333333333333</ele><time>2026-04-11T08:55:33.995Z</time></trkpt><trkpt lat="46.66204015871811" lon="9.576244076176664"><ele>858.1666666666666</ele><time>2026-04-11T08:55:34.995Z</time></trkpt><trkpt lat="46.66208460476486" lon="9.576348297936752"><ele>856.0</ele><time>2026-04-11T08:55:35.995Z</time></trkpt><trkpt lat="46.66211863014759" lon="9.576461355859344"><ele>855.4999999999999</ele><time>2026-04-11T08:55:36.995Z</time></trkpt><trkpt lat="46.66217289321769" lon="9.576541356698577"><ele>855.0</ele><time>2026-04-11T08:55:37.996Z</time></trkpt><trkpt lat="46.66220611164802" lon="9.576619542724453"><ele>854.5</ele><time>2026-04-11T08:55:38.996Z</time></trkpt><trkpt lat="46.662250158306556" lon="9.576687534220858"><ele>854.0</ele><time>2026-04-11T08:55:39.996Z</time></trkpt><trkpt lat="46.66236606342859" lon="9.576733321152677"><ele>853.4999999999999</ele><time>2026-04-11T08:55:41.996Z</time></trkpt><trkpt lat="46.66247772972513" lon="9.576673936326717"><ele>853.0</ele><time>2026-04-11T08:55:43.997Z</time></trkpt><trkpt lat="46.662570578861825" lon="9.576604622274608"><ele>852.9999999999999</ele><time>2026-04-11T08:55:45.997Z</time></trkpt><trkpt lat="46.662641884679445" lon="9.576595845469658"><ele>853.0</ele><time>2026-04-11T08:55:48.998Z</time></trkpt><trkpt lat="46.6627150451103" lon="9.576542908731556"><ele>853.0</ele><time>2026-04-11T08:55:51.998Z</time></trkpt><trkpt lat="46.6626993066821" lon="9.57637676030038"><ele>853.0</ele><time>2026-04-11T08:55:52.998Z</time></trkpt><trkpt lat="46.66267660209474" lon="9.576260369359339"><ele>852.9999999999999</ele><time>2026-04-11T08:55:53.998Z</time></trkpt><trkpt lat="46.66265609560671" lon="9.576151426268424"><ele>853.0</ele><time>2026-04-11T08:55:54.998Z</time></trkpt><trkpt lat="46.66264229716425" lon="9.576025546338036"><ele>853.5999999999999</ele><time>2026-04-11T08:55:55.998Z</time></trkpt><trkpt lat="46.66264482162581" lon="9.57588678475736"><ele>854.1999999999999</ele><time>2026-04-11T08:55:56.999Z</time></trkpt><trkpt lat="46.66266508303687" lon="9.575753743183604"><ele>854.8</ele><time>2026-04-11T08:55:57.999Z</time></trkpt><trkpt lat="46.66270317096503" lon="9.575626737927834"><ele>855.4</ele><time>2026-04-11T08:55:58.999Z</time></trkpt><trkpt lat="46.662751235272964" lon="9.575495974966145"><ele>856.0</ele><time>2026-04-11T08:55:59.999Z</time></trkpt><trkpt lat="46.662798592643156" lon="9.57535248599161"><ele>863.25</ele><time>2026-04-11T08:56:00.999Z</time></trkpt><trkpt lat="46.66284537125294" lon="9.575196190369024"><ele>870.5</ele><time>2026-04-11T08:56:01.999Z</time></trkpt><trkpt lat="46.66288152571484" lon="9.575040247082237"><ele>877.75</ele><time>2026-04-11T08:56:02.999Z</time></trkpt><trkpt lat="46.66291387371635" lon="9.574883978051616"><ele>885.0</ele><time>2026-04-11T08:56:03.999Z</time></trkpt><trkpt lat="46.662947551223674" lon="9.574716703949942"><ele>885.0</ele><time>2026-04-11T08:56:04.999Z</time></trkpt><trkpt lat="46.66298328567151" lon="9.574546197343622"><ele>885.0</ele><time>2026-04-11T08:56:05.999Z</time></trkpt><trkpt lat="46.663017197134046" lon="9.574365435588113"><ele>885.0</ele><time>2026-04-11T08:56:06.999Z</time></trkpt><trkpt lat="46.66306836106206" lon="9.574201555604589"><ele>885.0</ele><time>2026-04-11T08:56:07.999Z</time></trkpt><trkpt lat="46.66311674144349" lon="9.574026112433208"><ele>882.75</ele><time>2026-04-11T08:56:08.999Z</time></trkpt><trkpt lat="46.66317192526353" lon="9.573854987442463"><ele>880.5</ele><time>2026-04-11T08:56:09.999Z</time></trkpt><trkpt lat="46.663234891394865" lon="9.57369116391018"><ele>878.25</ele><time>2026-04-11T08:56:10.999Z</time></trkpt><trkpt lat="46.66330185062502" lon="9.573533417968301"><ele>876.0</ele><time>2026-04-11T08:56:11.999Z</time></trkpt><trkpt lat="46.66336838785229" lon="9.57338013577472"><ele>878.0</ele><time>2026-04-11T08:56:12.999Z</time></trkpt><trkpt lat="46.663434666485585" lon="9.573225576194751"><ele>880.0</ele><time>2026-04-11T08:56:13.999Z</time></trkpt><trkpt lat="46.66350182657896" lon="9.573071720741492"><ele>882.0</ele><time>2026-04-11T08:56:14.999Z</time></trkpt><trkpt lat="46.66356511298734" lon="9.572925048760125"><ele>884.0</ele><time>2026-04-11T08:56:15.999Z</time></trkpt><trkpt lat="46.66362599635826" lon="9.572784450577311"><ele>884.0</ele><time>2026-04-11T08:56:16.999Z</time></trkpt><trkpt lat="46.66368682110997" lon="9.57265187585699"><ele>884.0000000000001</ele><time>2026-04-11T08:56:17.999Z</time></trkpt><trkpt lat="46.663743396908956" lon="9.57251835135817"><ele>884.0000000000001</ele><time>2026-04-11T08:56:18.999Z</time></trkpt><trkpt lat="46.66379933083403" lon="9.572384250491453"><ele>884.0</ele><time>2026-04-11T08:56:19.999Z</time></trkpt><trkpt lat="46.6638540921422" lon="9.572248034602167"><ele>884.0</ele><time>2026-04-11T08:56:20.999Z</time></trkpt><trkpt lat="46.66390893310607" lon="9.572114356781398"><ele>883.2</ele><time>2026-04-11T08:56:21.999Z</time></trkpt><trkpt lat="46.66397848442416" lon="9.571998670939662"><ele>882.4000000000001</ele><time>2026-04-11T08:56:23Z</time></trkpt><trkpt lat="46.66402828022998" lon="9.571883897699491"><ele>881.6</ele><time>2026-04-11T08:56:24Z</time></trkpt><trkpt lat="46.664071929316265" lon="9.571783289632256"><ele>880.8</ele><time>2026-04-11T08:56:25Z</time></trkpt><trkpt lat="46.664097797483734" lon="9.571679273221992"><ele>880.0</ele><time>2026-04-11T08:56:26Z</time></trkpt><trkpt lat="46.66416387462932" lon="9.571569910746607"><ele>880.0</ele><time>2026-04-11T08:56:28Z</time></trkpt><trkpt lat="46.664210299429946" lon="9.571467668167916"><ele>880.0</ele><time>2026-04-11T08:56:31Z</time></trkpt><trkpt lat="46.66416013507842" lon="9.57128907100813"><ele>880.0</ele><time>2026-04-11T08:58:29Z</time></trkpt><trkpt lat="46.66408324469161" lon="9.57136908524958"><ele>880.0</ele><time>2026-04-11T09:01:21.367Z</time></trkpt><trkpt lat="46.66412031840885" lon="9.5714873108171"><ele>880.0</ele><time>2026-04-11T09:11:14.005Z</time></trkpt><trkpt lat="46.66417075441195" lon="9.571314917439553"><ele>879.9999999999999</ele><time>2026-04-11T09:24:12.991Z</time></trkpt><trkpt lat="46.66417440568087" lon="9.57116527352582"><ele>880.0</ele><time>2026-04-11T09:24:13.991Z</time></trkpt><trkpt lat="46.664178464062935" lon="9.57128135603519"><ele>880.0</ele><time>2026-04-11T09:24:56Z</time></trkpt><trkpt lat="46.664093316458185" lon="9.571305544211732"><ele>880.0</ele><time>2026-04-11T09:25:29Z</time></trkpt><trkpt lat="46.66401036593227" lon="9.571280140498486"><ele>879.9999999999999</ele><time>2026-04-11T09:25:37Z</time></trkpt><trkpt lat="46.6639399017022" lon="9.571289891748304"><ele>880.0</ele><time>2026-04-11T09:25:39Z</time></trkpt><trkpt lat="46.66393163128797" lon="9.571197519414145"><ele>880.0</ele><time>2026-04-11T09:25:53Z</time></trkpt><trkpt lat="46.664011506749546" lon="9.571161920816637"><ele>880.0</ele><time>2026-04-11T09:26:10Z</time></trkpt><trkpt lat="46.66408420138309" lon="9.571219855108412"><ele>880.0</ele><time>2026-04-11T09:26:14Z</time></trkpt><trkpt lat="46.66402533492735" lon="9.571340369957689"><ele>880.0</ele><time>2026-04-11T09:26:27Z</time></trkpt><trkpt lat="46.66395112139433" lon="9.571363117571142"><ele>880.0</ele><time>2026-04-11T09:26:53Z</time></trkpt><trkpt lat="46.664065233608326" lon="9.571645957667196"><ele>879.9999999999999</ele><time>2026-04-11T09:27:17Z</time></trkpt><trkpt lat="46.66399780758534" lon="9.57167655168828"><ele>880.0</ele><time>2026-04-11T09:27:20Z</time></trkpt><trkpt lat="46.66399054333035" lon="9.571537953565956"><ele>880.0</ele><time>2026-04-11T09:27:59Z</time></trkpt><trkpt lat="46.664034133445746" lon="9.571448830704972"><ele>880.0</ele><time>2026-04-11T09:28:03Z</time></trkpt><trkpt lat="46.664063402376335" lon="9.571347731330324"><ele>879.9999999999999</ele><time>2026-04-11T09:28:09Z</time></trkpt><trkpt lat="46.66400263281298" lon="9.571294875025108"><ele>880.0</ele><time>2026-04-11T09:29:05.999Z</time></trkpt><trkpt lat="46.663950853317445" lon="9.571351666027436"><ele>879.9999999999999</ele><time>2026-04-11T09:29:09Z</time></trkpt><trkpt lat="46.66392660395398" lon="9.571439031131405"><ele>880.0</ele><time>2026-04-11T09:29:13Z</time></trkpt><trkpt lat="46.6639503533136" lon="9.571594946108958"><ele>880.0</ele><time>2026-04-11T09:34:35Z</time></trkpt><trkpt lat="46.66399700383544" lon="9.57165983026996"><ele>880.0</ele><time>2026-04-11T09:34:37Z</time></trkpt><trkpt lat="46.66401202366233" lon="9.571782910291942"><ele>879.9999999999999</ele><time>2026-04-11T09:34:39Z</time></trkpt><trkpt lat="46.663964574175836" lon="9.571922950706739"><ele>880.0</ele><time>2026-04-11T09:34:41Z</time></trkpt><trkpt lat="46.66390102803863" lon="9.572064000652874"><ele>880.6666666666666</ele><time>2026-04-11T09:34:43Z</time></trkpt><trkpt lat="46.66386834497693" lon="9.572143144214404"><ele>881.3333333333333</ele><time>2026-04-11T09:34:44Z</time></trkpt><trkpt lat="46.66382779377692" lon="9.572238716368044"><ele>882.0</ele><time>2026-04-11T09:34:45Z</time></trkpt><trkpt lat="46.66378027175991" lon="9.572346547321565"><ele>882.6666666666667</ele><time>2026-04-11T09:34:46Z</time></trkpt><trkpt lat="46.66372971105803" lon="9.572459185335353"><ele>883.3333333333334</ele><time>2026-04-11T09:34:47Z</time></trkpt><trkpt lat="46.66367928758555" lon="9.572583203254961"><ele>884.0</ele><time>2026-04-11T09:34:48Z</time></trkpt><trkpt lat="46.66362512373757" lon="9.572721623151553"><ele>879.75</ele><time>2026-04-11T09:34:49Z</time></trkpt><trkpt lat="46.66356141295389" lon="9.572875085276566"><ele>875.5</ele><time>2026-04-11T09:34:50Z</time></trkpt><trkpt lat="46.66348756780833" lon="9.573035620973494"><ele>871.25</ele><time>2026-04-11T09:34:51Z</time></trkpt><trkpt lat="46.663414292448444" lon="9.57319605260683"><ele>867.0</ele><time>2026-04-11T09:34:52Z</time></trkpt><trkpt lat="46.66334123054834" lon="9.573361355139209"><ele>867.0</ele><time>2026-04-11T09:34:53Z</time></trkpt><trkpt lat="46.663271076333615" lon="9.573530512030239"><ele>867.0</ele><time>2026-04-11T09:34:54Z</time></trkpt><trkpt lat="46.663203202661975" lon="9.573699487627543"><ele>867.0</ele><time>2026-04-11T09:34:55Z</time></trkpt><trkpt lat="46.66313859151277" lon="9.573862825261143"><ele>867.0</ele><time>2026-04-11T09:34:56Z</time></trkpt><trkpt lat="46.66308100893457" lon="9.5740319000447"><ele>869.25</ele><time>2026-04-11T09:34:57Z</time></trkpt><trkpt lat="46.66302916293004" lon="9.574215599355824"><ele>871.5</ele><time>2026-04-11T09:34:58Z</time></trkpt><trkpt lat="46.662985762905414" lon="9.574407593928902"><ele>873.75</ele><time>2026-04-11T09:34:59Z</time></trkpt><trkpt lat="46.662948115364706" lon="9.574602537332812"><ele>876.0</ele><time>2026-04-11T09:35:00Z</time></trkpt><trkpt lat="46.66290841745068" lon="9.574797209400637"><ele>878.25</ele><time>2026-04-11T09:35:01Z</time></trkpt><trkpt lat="46.662865457685946" lon="9.574982292773456"><ele>880.5</ele><time>2026-04-11T09:35:02Z</time></trkpt><trkpt lat="46.66281826819531" lon="9.575166796754631"><ele>882.75</ele><time>2026-04-11T09:35:03Z</time></trkpt><trkpt lat="46.66276756896782" lon="9.575345145734758"><ele>885.0</ele><time>2026-04-11T09:35:04Z</time></trkpt><trkpt lat="46.662712800025915" lon="9.575507304653037"><ele>877.75</ele><time>2026-04-11T09:35:05Z</time></trkpt><trkpt lat="46.662658627336725" lon="9.575661167441588"><ele>870.5</ele><time>2026-04-11T09:35:06Z</time></trkpt><trkpt lat="46.66261982398061" lon="9.575830597342833"><ele>863.25</ele><time>2026-04-11T09:35:07Z</time></trkpt><trkpt lat="46.662609643488" lon="9.576032478103537"><ele>856.0</ele><time>2026-04-11T09:35:08Z</time></trkpt><trkpt lat="46.66259077679742" lon="9.576166156320001"><ele>855.25</ele><time>2026-04-11T09:35:09Z</time></trkpt><trkpt lat="46.6626129446354" lon="9.576332040976773"><ele>854.5</ele><time>2026-04-11T09:35:10Z</time></trkpt><trkpt lat="46.662643737041094" lon="9.576492218719187"><ele>853.75</ele><time>2026-04-11T09:35:11Z</time></trkpt><trkpt lat="46.662668652944824" lon="9.57666023068891"><ele>853.0</ele><time>2026-04-11T09:35:12Z</time></trkpt><trkpt lat="46.66269261381152" lon="9.57683137363459"><ele>853.0</ele><time>2026-04-11T09:35:13Z</time></trkpt><trkpt lat="46.662692314296294" lon="9.577001044176548"><ele>853.0</ele><time>2026-04-11T09:35:14Z</time></trkpt><trkpt lat="46.662669030535575" lon="9.577162432894564"><ele>853.0</ele><time>2026-04-11T09:35:15Z</time></trkpt><trkpt lat="46.66259488153611" lon="9.577308083218703"><ele>853.0</ele><time>2026-04-11T09:35:16Z</time></trkpt><trkpt lat="46.66252596136944" lon="9.57746462296028"><ele>852.75</ele><time>2026-04-11T09:35:17Z</time></trkpt><trkpt lat="46.66246583088641" lon="9.577620883211395"><ele>852.5</ele><time>2026-04-11T09:35:18Z</time></trkpt><trkpt lat="46.6623958376844" lon="9.577764612498834"><ele>852.25</ele><time>2026-04-11T09:35:19Z</time></trkpt><trkpt lat="46.6623230195706" lon="9.577912357921981"><ele>852.0</ele><time>2026-04-11T09:35:20Z</time></trkpt><trkpt lat="46.662247035761055" lon="9.578060640271106"><ele>857.5</ele><time>2026-04-11T09:35:21Z</time></trkpt><trkpt lat="46.662179423096624" lon="9.578201958947895"><ele>863.0</ele><time>2026-04-11T09:35:22Z</time></trkpt><trkpt lat="46.66210636376028" lon="9.578338978794601"><ele>868.5</ele><time>2026-04-11T09:35:23Z</time></trkpt><trkpt lat="46.662040403047754" lon="9.578482082632652"><ele>874.0</ele><time>2026-04-11T09:35:24Z</time></trkpt><trkpt lat="46.66197934007951" lon="9.578621573602486"><ele>871.1666666666666</ele><time>2026-04-11T09:35:25Z</time></trkpt><trkpt lat="46.66192202235541" lon="9.578746134588739"><ele>868.3333333333333</ele><time>2026-04-11T09:35:26Z</time></trkpt><trkpt lat="46.66187164611553" lon="9.578855224778163"><ele>865.5</ele><time>2026-04-11T09:35:27Z</time></trkpt><trkpt lat="46.66182658256622" lon="9.578956430584942"><ele>862.6666666666667</ele><time>2026-04-11T09:35:28Z</time></trkpt><trkpt lat="46.66177795441027" lon="9.579039168098534"><ele>859.8333333333334</ele><time>2026-04-11T09:35:29Z</time></trkpt><trkpt lat="46.66170539564752" lon="9.579085821056557"><ele>857.0</ele><time>2026-04-11T09:35:30Z</time></trkpt><trkpt lat="46.661608339279326" lon="9.579107631159157"><ele>857.0</ele><time>2026-04-11T09:35:31Z</time></trkpt><trkpt lat="46.66152802949379" lon="9.579172294203952"><ele>857.0</ele><time>2026-04-11T09:35:32Z</time></trkpt><trkpt lat="46.661464517932245" lon="9.579302571807878"><ele>857.0</ele><time>2026-04-11T09:35:33Z</time></trkpt><trkpt lat="46.66139350983034" lon="9.579439264475363"><ele>857.0</ele><time>2026-04-11T09:35:34Z</time></trkpt><trkpt lat="46.66131260037943" lon="9.579573985412704"><ele>857.0</ele><time>2026-04-11T09:35:35Z</time></trkpt><trkpt lat="46.66122756434121" lon="9.579718427292077"><ele>858.3333333333334</ele><time>2026-04-11T09:35:36Z</time></trkpt><trkpt lat="46.66114988074721" lon="9.579887374879489"><ele>859.6666666666667</ele><time>2026-04-11T09:35:37Z</time></trkpt><trkpt lat="46.66108696725516" lon="9.58008965824899"><ele>861.0</ele><time>2026-04-11T09:35:38Z</time></trkpt><trkpt lat="46.661042096747764" lon="9.58031137448004"><ele>862.0</ele><time>2026-04-11T09:35:39Z</time></trkpt><trkpt lat="46.66101559282615" lon="9.580541440927759"><ele>863.0</ele><time>2026-04-11T09:35:40Z</time></trkpt><trkpt lat="46.66101028626645" lon="9.580775567230127"><ele>864.0</ele><time>2026-04-11T09:35:41Z</time></trkpt><trkpt lat="46.66101191556245" lon="9.581001134028766"><ele>866.6666666666667</ele><time>2026-04-11T09:35:42Z</time></trkpt><trkpt lat="46.66100734217158" lon="9.58122593205623"><ele>869.3333333333334</ele><time>2026-04-11T09:35:43Z</time></trkpt><trkpt lat="46.66097867697489" lon="9.58145204984149"><ele>872.0</ele><time>2026-04-11T09:35:44Z</time></trkpt><trkpt lat="46.66092050976512" lon="9.581660003912697"><ele>872.0</ele><time>2026-04-11T09:35:45Z</time></trkpt><trkpt lat="46.66083784978577" lon="9.581840775701403"><ele>872.0</ele><time>2026-04-11T09:35:46Z</time></trkpt><trkpt lat="46.66074776978926" lon="9.582009783301164"><ele>872.0</ele><time>2026-04-11T09:35:47Z</time></trkpt><trkpt lat="46.66063862118222" lon="9.582162041326065"><ele>872.0</ele><time>2026-04-11T09:35:48Z</time></trkpt><trkpt lat="46.66051113080606" lon="9.582298827433702"><ele>874.0</ele><time>2026-04-11T09:35:49Z</time></trkpt><trkpt lat="46.660366498652664" lon="9.58242191251833"><ele>876.0</ele><time>2026-04-11T09:35:50Z</time></trkpt><trkpt lat="46.66022157044204" lon="9.58255230529533"><ele>878.0</ele><time>2026-04-11T09:35:51Z</time></trkpt><trkpt lat="46.6600751257397" lon="9.582680797076847"><ele>878.0</ele><time>2026-04-11T09:35:52Z</time></trkpt><trkpt lat="46.65994392025432" lon="9.582797450358953"><ele>878.0</ele><time>2026-04-11T09:35:53Z</time></trkpt><trkpt lat="46.65981586568234" lon="9.58291009643211"><ele>878.0</ele><time>2026-04-11T09:35:54Z</time></trkpt><trkpt lat="46.659674362938766" lon="9.583018434971851"><ele>876.25</ele><time>2026-04-11T09:35:55Z</time></trkpt><trkpt lat="46.659526032224996" lon="9.583092413284476"><ele>874.5</ele><time>2026-04-11T09:35:56Z</time></trkpt><trkpt lat="46.65938218650297" lon="9.583120775539921"><ele>872.75</ele><time>2026-04-11T09:35:57Z</time></trkpt><trkpt lat="46.659237868964645" lon="9.583110280087071"><ele>871.0</ele><time>2026-04-11T09:35:58Z</time></trkpt><trkpt lat="46.659098367789205" lon="9.583046545103844"><ele>876.6666666666666</ele><time>2026-04-11T09:35:59Z</time></trkpt><trkpt lat="46.65895502576392" lon="9.582936655493262"><ele>882.3333333333333</ele><time>2026-04-11T09:36:00Z</time></trkpt><trkpt lat="46.658832394607515" lon="9.58276559818888"><ele>888.0</ele><time>2026-04-11T09:36:01Z</time></trkpt><trkpt lat="46.65874651421667" lon="9.582538737785221"><ele>888.0</ele><time>2026-04-11T09:36:02Z</time></trkpt><trkpt lat="46.658662956097785" lon="9.582281065246299"><ele>888.0</ele><time>2026-04-11T09:36:03Z</time></trkpt><trkpt lat="46.65858204485668" lon="9.582002403630444"><ele>888.0</ele><time>2026-04-11T09:36:04Z</time></trkpt><trkpt lat="46.65849810542187" lon="9.581709304834344"><ele>897.0</ele><time>2026-04-11T09:36:05Z</time></trkpt><trkpt lat="46.65841163815552" lon="9.581407291212942"><ele>906.0</ele><time>2026-04-11T09:36:06Z</time></trkpt><trkpt lat="46.65832142702429" lon="9.581094227381382"><ele>906.5</ele><time>2026-04-11T09:36:07Z</time></trkpt><trkpt lat="46.658225381657154" lon="9.580774768960211"><ele>907.0</ele><time>2026-04-11T09:36:08Z</time></trkpt><trkpt lat="46.65814225938169" lon="9.580449445337637"><ele>905.5</ele><time>2026-04-11T09:36:09Z</time></trkpt><trkpt lat="46.658059509840946" lon="9.580132939052763"><ele>904.0</ele><time>2026-04-11T09:36:10Z</time></trkpt><trkpt lat="46.65797836334383" lon="9.579816585657518"><ele>904.0</ele><time>2026-04-11T09:36:11Z</time></trkpt><trkpt lat="46.65790035383227" lon="9.579497633022186"><ele>904.0</ele><time>2026-04-11T09:36:12Z</time></trkpt><trkpt lat="46.65782396611744" lon="9.579176166323235"><ele>915.0</ele><time>2026-04-11T09:36:13Z</time></trkpt><trkpt lat="46.65774623579581" lon="9.578857289921867"><ele>926.0</ele><time>2026-04-11T09:36:14Z</time></trkpt><trkpt lat="46.65767010831935" lon="9.578539717698433"><ele>926.0</ele><time>2026-04-11T09:36:15Z</time></trkpt><trkpt lat="46.657591277707446" lon="9.578226759501133"><ele>926.0</ele><time>2026-04-11T09:36:16Z</time></trkpt><trkpt lat="46.657505883252576" lon="9.5779186666447"><ele>924.5</ele><time>2026-04-11T09:36:17Z</time></trkpt><trkpt lat="46.657403854013644" lon="9.577623830728319"><ele>923.0</ele><time>2026-04-11T09:36:18Z</time></trkpt><trkpt lat="46.657277472465566" lon="9.577341842895729"><ele>923.0</ele><time>2026-04-11T09:36:19Z</time></trkpt><trkpt lat="46.65713443119146" lon="9.577077056107148"><ele>923.0</ele><time>2026-04-11T09:36:20Z</time></trkpt><trkpt lat="46.65697997629643" lon="9.576822464783978"><ele>928.5</ele><time>2026-04-11T09:36:21Z</time></trkpt><trkpt lat="46.65681301531948" lon="9.576592669441663"><ele>934.0</ele><time>2026-04-11T09:36:22Z</time></trkpt><trkpt lat="46.656630110162254" lon="9.57637858701006"><ele>933.0</ele><time>2026-04-11T09:36:23Z</time></trkpt><trkpt lat="46.6564476070324" lon="9.576171954673594"><ele>932.0</ele><time>2026-04-11T09:36:24Z</time></trkpt><trkpt lat="46.65627262089648" lon="9.575950994881124"><ele>932.0</ele><time>2026-04-11T09:36:25Z</time></trkpt><trkpt lat="46.65612752980919" lon="9.57568534405816"><ele>932.0</ele><time>2026-04-11T09:36:26Z</time></trkpt><trkpt lat="46.65599534267395" lon="9.575413702956181"><ele>936.6666666666667</ele><time>2026-04-11T09:36:27Z</time></trkpt><trkpt lat="46.65586471966284" lon="9.575174662623121"><ele>941.3333333333333</ele><time>2026-04-11T09:36:28Z</time></trkpt><trkpt lat="46.655750550117695" lon="9.574954235379664"><ele>946.0</ele><time>2026-04-11T09:36:29Z</time></trkpt><trkpt lat="46.65560984992412" lon="9.574817790051478"><ele>946.0</ele><time>2026-04-11T09:36:30Z</time></trkpt><trkpt lat="46.65541235217787" lon="9.574738569148353"><ele>946.0</ele><time>2026-04-11T09:36:31Z</time></trkpt><trkpt lat="46.65521707604937" lon="9.574663222483668"><ele>946.0</ele><time>2026-04-11T09:36:32Z</time></trkpt><trkpt lat="46.65501742160616" lon="9.57461662216488"><ele>950.0</ele><time>2026-04-11T09:36:33Z</time></trkpt><trkpt lat="46.654824997666495" lon="9.574587238806966"><ele>954.0</ele><time>2026-04-11T09:36:34Z</time></trkpt><trkpt lat="46.65464833991677" lon="9.574605781502175"><ele>958.0</ele><time>2026-04-11T09:36:35Z</time></trkpt><trkpt lat="46.65447801329505" lon="9.574688205095413"><ele>963.3333333333333</ele><time>2026-04-11T09:36:36Z</time></trkpt><trkpt lat="46.65433347341052" lon="9.574852532196193"><ele>968.6666666666667</ele><time>2026-04-11T09:36:37Z</time></trkpt><trkpt lat="46.65422269126634" lon="9.575066252454333"><ele>974.0</ele><time>2026-04-11T09:36:38Z</time></trkpt><trkpt lat="46.65414693472535" lon="9.575319262219876"><ele>973.3333333333334</ele><time>2026-04-11T09:36:39Z</time></trkpt><trkpt lat="46.654096640243395" lon="9.575592029141786"><ele>972.6666666666667</ele><time>2026-04-11T09:36:40Z</time></trkpt><trkpt lat="46.654042156184" lon="9.575866413151607"><ele>972.0</ele><time>2026-04-11T09:36:41Z</time></trkpt><trkpt lat="46.65397538662652" lon="9.57610148330393"><ele>971.0</ele><time>2026-04-11T09:36:42Z</time></trkpt><trkpt lat="46.6538831444569" lon="9.576278414752709"><ele>970.0</ele><time>2026-04-11T09:36:43Z</time></trkpt><trkpt lat="46.65375215844671" lon="9.576403831202338"><ele>969.0</ele><time>2026-04-11T09:36:44Z</time></trkpt><trkpt lat="46.653589057021044" lon="9.576459096555237"><ele>975.6666666666667</ele><time>2026-04-11T09:36:45Z</time></trkpt><trkpt lat="46.653406880366305" lon="9.57645933071929"><ele>982.3333333333334</ele><time>2026-04-11T09:36:46Z</time></trkpt><trkpt lat="46.653211373314385" lon="9.57643777900167"><ele>989.0</ele><time>2026-04-11T09:36:47Z</time></trkpt><trkpt lat="46.65300777225099" lon="9.576430032053112"><ele>989.0</ele><time>2026-04-11T09:36:48Z</time></trkpt><trkpt lat="46.65279830415431" lon="9.576437735889824"><ele>989.0</ele><time>2026-04-11T09:36:49Z</time></trkpt><trkpt lat="46.65258558396495" lon="9.576470581551579"><ele>989.0</ele><time>2026-04-11T09:36:50Z</time></trkpt><trkpt lat="46.652385362963976" lon="9.576545510597793"><ele>992.0</ele><time>2026-04-11T09:36:51Z</time></trkpt><trkpt lat="46.65219859621374" lon="9.576664176926377"><ele>995.0</ele><time>2026-04-11T09:36:52Z</time></trkpt><trkpt lat="46.652016638826645" lon="9.576792766789234"><ele>998.0</ele><time>2026-04-11T09:36:53Z</time></trkpt><trkpt lat="46.65183406127302" lon="9.576916490484036"><ele>1007.0</ele><time>2026-04-11T09:36:54Z</time></trkpt><trkpt lat="46.65164255311445" lon="9.577030897364954"><ele>1016.0</ele><time>2026-04-11T09:36:55Z</time></trkpt><trkpt lat="46.6514479007361" lon="9.577118752981558"><ele>1025.0</ele><time>2026-04-11T09:36:56Z</time></trkpt><trkpt lat="46.65124520011071" lon="9.577158803874989"><ele>1028.6666666666667</ele><time>2026-04-11T09:36:57Z</time></trkpt><trkpt lat="46.65103735156053" lon="9.577144026304508"><ele>1032.3333333333333</ele><time>2026-04-11T09:36:58Z</time></trkpt><trkpt lat="46.65084286219991" lon="9.577055900648537"><ele>1036.0</ele><time>2026-04-11T09:36:59Z</time></trkpt><trkpt lat="46.65067064008499" lon="9.576974463304905"><ele>1027.3333333333333</ele><time>2026-04-11T09:37:00Z</time></trkpt><trkpt lat="46.6505257428917" lon="9.576863259082687"><ele>1018.6666666666667</ele><time>2026-04-11T09:37:01Z</time></trkpt><trkpt lat="46.65038963375717" lon="9.57679348155488"><ele>1010.0</ele><time>2026-04-11T09:37:02Z</time></trkpt><trkpt lat="46.65024765107728" lon="9.576810125793928"><ele>1007.5</ele><time>2026-04-11T09:37:03Z</time></trkpt><trkpt lat="46.65011016947212" lon="9.576910550724579"><ele>1005.0</ele><time>2026-04-11T09:37:04Z</time></trkpt><trkpt lat="46.65001144522482" lon="9.577031543783555"><ele>1002.5</ele><time>2026-04-11T09:37:05Z</time></trkpt><trkpt lat="46.649927459787314" lon="9.577205709186279"><ele>1000.0</ele><time>2026-04-11T09:37:06Z</time></trkpt><trkpt lat="46.649882327593645" lon="9.577402146738507"><ele>1008.3333333333333</ele><time>2026-04-11T09:37:07Z</time></trkpt><trkpt lat="46.649870833811995" lon="9.577618640972036"><ele>1016.6666666666667</ele><time>2026-04-11T09:37:08Z</time></trkpt><trkpt lat="46.64984989831703" lon="9.577843566977462"><ele>1025.0</ele><time>2026-04-11T09:37:09Z</time></trkpt><trkpt lat="46.649795188561455" lon="9.578053805230578"><ele>1032.3333333333335</ele><time>2026-04-11T09:37:10Z</time></trkpt><trkpt lat="46.649708840404735" lon="9.578247113847336"><ele>1039.6666666666667</ele><time>2026-04-11T09:37:11Z</time></trkpt><trkpt lat="46.64960373272079" lon="9.578431790761236"><ele>1047.0</ele><time>2026-04-11T09:37:12Z</time></trkpt><trkpt lat="46.649484358291005" lon="9.578602969423208"><ele>1045.6666666666667</ele><time>2026-04-11T09:37:13Z</time></trkpt><trkpt lat="46.64936253209904" lon="9.578763138884892"><ele>1044.3333333333335</ele><time>2026-04-11T09:37:14Z</time></trkpt><trkpt lat="46.64925098880204" lon="9.578929799033775"><ele>1043.0</ele><time>2026-04-11T09:37:15Z</time></trkpt><trkpt lat="46.64915696555691" lon="9.57912151172984"><ele>1043.0</ele><time>2026-04-11T09:37:16Z</time></trkpt><trkpt lat="46.64907192908443" lon="9.579330731072455"><ele>1043.0</ele><time>2026-04-11T09:37:17Z</time></trkpt><trkpt lat="46.64898764790568" lon="9.579537226810352"><ele>1043.0</ele><time>2026-04-11T09:37:18Z</time></trkpt><trkpt lat="46.648901579572794" lon="9.579701306735247"><ele>1044.5</ele><time>2026-04-11T09:37:19Z</time></trkpt><trkpt lat="46.648797003387656" lon="9.579807898706479"><ele>1046.0</ele><time>2026-04-11T09:37:20Z</time></trkpt><trkpt lat="46.648673167070626" lon="9.57982067959887"><ele>1047.5</ele><time>2026-04-11T09:37:21Z</time></trkpt><trkpt lat="46.648548273949906" lon="9.5797881015031"><ele>1049.0</ele><time>2026-04-11T09:37:22Z</time></trkpt><trkpt lat="46.64844412643783" lon="9.579743005546666"><ele>1049.0</ele><time>2026-04-11T09:37:23Z</time></trkpt><trkpt lat="46.64836917144165" lon="9.579787172924561"><ele>1049.0</ele><time>2026-04-11T09:37:24Z</time></trkpt><trkpt lat="46.64827964597813" lon="9.579888961393564"><ele>1049.0</ele><time>2026-04-11T09:37:25Z</time></trkpt><trkpt lat="46.64823347191682" lon="9.580024120238212"><ele>1049.0</ele><time>2026-04-11T09:37:26Z</time></trkpt><trkpt lat="46.64822382259603" lon="9.580195395008095"><ele>1049.0</ele><time>2026-04-11T09:37:27Z</time></trkpt><trkpt lat="46.648237903555355" lon="9.580375525389428"><ele>1054.8</ele><time>2026-04-11T09:37:28Z</time></trkpt><trkpt lat="46.64822116759442" lon="9.580526398205171"><ele>1060.6000000000001</ele><time>2026-04-11T09:37:29Z</time></trkpt><trkpt lat="46.648161669277606" lon="9.580644745282536"><ele>1066.4</ele><time>2026-04-11T09:37:30Z</time></trkpt><trkpt lat="46.64805872456501" lon="9.580731632325344"><ele>1072.2</ele><time>2026-04-11T09:37:31Z</time></trkpt><trkpt lat="46.64794215855006" lon="9.580785215769449"><ele>1078.0</ele><time>2026-04-11T09:37:32Z</time></trkpt><trkpt lat="46.64781028282447" lon="9.580806196922651"><ele>1074.25</ele><time>2026-04-11T09:37:33Z</time></trkpt><trkpt lat="46.64767073274177" lon="9.580835193033774"><ele>1070.5</ele><time>2026-04-11T09:37:34Z</time></trkpt><trkpt lat="46.64753022255165" lon="9.580899879138185"><ele>1066.75</ele><time>2026-04-11T09:37:35Z</time></trkpt><trkpt lat="46.6473935425975" lon="9.581002552681747"><ele>1063.0</ele><time>2026-04-11T09:37:36Z</time></trkpt><trkpt lat="46.64726461453476" lon="9.581140446743506"><ele>1064.6666666666665</ele><time>2026-04-11T09:37:37Z</time></trkpt><trkpt lat="46.64714188705258" lon="9.58129589076265"><ele>1066.3333333333333</ele><time>2026-04-11T09:37:38Z</time></trkpt><trkpt lat="46.64703104964287" lon="9.581466431321939"><ele>1068.0</ele><time>2026-04-11T09:37:39Z</time></trkpt><trkpt lat="46.64692267821204" lon="9.581642265541197"><ele>1068.0</ele><time>2026-04-11T09:37:40Z</time></trkpt><trkpt lat="46.646810284783385" lon="9.581816021471512"><ele>1068.0</ele><time>2026-04-11T09:37:41Z</time></trkpt><trkpt lat="46.646691930509576" lon="9.581979330266119"><ele>1068.0</ele><time>2026-04-11T09:37:42Z</time></trkpt><trkpt lat="46.64657337194349" lon="9.582144945898337"><ele>1076.0</ele><time>2026-04-11T09:37:43Z</time></trkpt><trkpt lat="46.64645218088684" lon="9.582315438253467"><ele>1084.0</ele><time>2026-04-11T09:37:44Z</time></trkpt><trkpt lat="46.64633122125687" lon="9.582483875511096"><ele>1092.0</ele><time>2026-04-11T09:37:45Z</time></trkpt><trkpt lat="46.64621310216267" lon="9.58264707697643"><ele>1092.3333333333333</ele><time>2026-04-11T09:37:46Z</time></trkpt><trkpt lat="46.646102500314434" lon="9.582807205130981"><ele>1092.6666666666665</ele><time>2026-04-11T09:37:47Z</time></trkpt><trkpt lat="46.64598338562851" lon="9.582977672920201"><ele>1093.0</ele><time>2026-04-11T09:37:48Z</time></trkpt><trkpt lat="46.645857904448256" lon="9.583155524310488"><ele>1093.0</ele><time>2026-04-11T09:37:49Z</time></trkpt><trkpt lat="46.645718360367425" lon="9.583315657171573"><ele>1093.0</ele><time>2026-04-11T09:37:50Z</time></trkpt><trkpt lat="46.64555606767537" lon="9.583449137498066"><ele>1093.0</ele><time>2026-04-11T09:37:51Z</time></trkpt><trkpt lat="46.6453757038688" lon="9.583536581469314"><ele>1096.6666666666665</ele><time>2026-04-11T09:37:52Z</time></trkpt><trkpt lat="46.64518512879206" lon="9.583608374054018"><ele>1100.3333333333333</ele><time>2026-04-11T09:37:53Z</time></trkpt><trkpt lat="46.644993547795" lon="9.583678614464237"><ele>1104.0</ele><time>2026-04-11T09:37:54Z</time></trkpt><trkpt lat="46.644817443937534" lon="9.583780606523044"><ele>1104.0</ele><time>2026-04-11T09:37:55Z</time></trkpt><trkpt lat="46.64465023520333" lon="9.583918197919203"><ele>1104.0</ele><time>2026-04-11T09:37:56Z</time></trkpt><trkpt lat="46.6445012518333" lon="9.584080286970273"><ele>1104.0</ele><time>2026-04-11T09:37:57Z</time></trkpt><trkpt lat="46.64437557100912" lon="9.584243314317218"><ele>1100.6666666666667</ele><time>2026-04-11T09:37:58Z</time></trkpt><trkpt lat="46.644255052775044" lon="9.584393017739686"><ele>1097.3333333333335</ele><time>2026-04-11T09:37:59Z</time></trkpt><trkpt lat="46.644134488985856" lon="9.584543371219956"><ele>1094.0</ele><time>2026-04-11T09:38:00Z</time></trkpt><trkpt lat="46.644031418728744" lon="9.58468006658602"><ele>1100.0</ele><time>2026-04-11T09:38:01Z</time></trkpt><trkpt lat="46.64392994932174" lon="9.584798210369879"><ele>1106.0</ele><time>2026-04-11T09:38:02Z</time></trkpt><trkpt lat="46.64381858052972" lon="9.58489618021293"><ele>1112.0</ele><time>2026-04-11T09:38:03Z</time></trkpt><trkpt lat="46.64368600641595" lon="9.584952681381115"><ele>1118.0</ele><time>2026-04-11T09:38:04Z</time></trkpt><trkpt lat="46.643548368808844" lon="9.584960608840078"><ele>1119.0</ele><time>2026-04-11T09:38:05Z</time></trkpt><trkpt lat="46.64340911863252" lon="9.584924549685509"><ele>1120.0</ele><time>2026-04-11T09:38:06Z</time></trkpt><trkpt lat="46.643275372783044" lon="9.584840566959617"><ele>1121.0</ele><time>2026-04-11T09:38:07Z</time></trkpt><trkpt lat="46.64314758474315" lon="9.584731702436125"><ele>1122.0</ele><time>2026-04-11T09:38:08Z</time></trkpt><trkpt lat="46.64301740692835" lon="9.584612155396538"><ele>1116.75</ele><time>2026-04-11T09:38:09Z</time></trkpt><trkpt lat="46.642890144154016" lon="9.584501053789532"><ele>1111.5</ele><time>2026-04-11T09:38:10Z</time></trkpt><trkpt lat="46.64277666558317" lon="9.584404888173244"><ele>1106.25</ele><time>2026-04-11T09:38:11Z</time></trkpt><trkpt lat="46.64267265679095" lon="9.584321954742691"><ele>1101.0</ele><time>2026-04-11T09:38:12Z</time></trkpt><trkpt lat="46.64257522785822" lon="9.584263862361228"><ele>1101.0</ele><time>2026-04-11T09:38:13Z</time></trkpt><trkpt lat="46.64246908127335" lon="9.584262970267833"><ele>1101.0</ele><time>2026-04-11T09:38:14Z</time></trkpt><trkpt lat="46.64236707832076" lon="9.584316000720882"><ele>1101.0</ele><time>2026-04-11T09:38:15Z</time></trkpt><trkpt lat="46.642295543772825" lon="9.584424895360868"><ele>1101.0</ele><time>2026-04-11T09:38:16Z</time></trkpt><trkpt lat="46.642254725991386" lon="9.58455594621754"><ele>1101.0</ele><time>2026-04-11T09:38:17Z</time></trkpt><trkpt lat="46.64224330640487" lon="9.584708496859552"><ele>1106.8</ele><time>2026-04-11T09:38:18Z</time></trkpt><trkpt lat="46.642274874259094" lon="9.584863037211065"><ele>1112.6</ele><time>2026-04-11T09:38:19Z</time></trkpt><trkpt lat="46.64229475552941" lon="9.585000592693149"><ele>1118.4</ele><time>2026-04-11T09:38:20Z</time></trkpt><trkpt lat="46.64233138691308" lon="9.585123752622431"><ele>1124.2</ele><time>2026-04-11T09:38:21Z</time></trkpt><trkpt lat="46.64232579251512" lon="9.585236980475827"><ele>1130.0</ele><time>2026-04-11T09:38:22Z</time></trkpt><trkpt lat="46.64226968957011" lon="9.585418986660315"><ele>1134.25</ele><time>2026-04-11T09:38:23Z</time></trkpt><trkpt lat="46.64218368581235" lon="9.585501750130215"><ele>1138.5</ele><time>2026-04-11T09:38:24Z</time></trkpt><trkpt lat="46.642074371753964" lon="9.58552875955739"><ele>1142.75</ele><time>2026-04-11T09:38:25Z</time></trkpt><trkpt lat="46.641960339605944" lon="9.585536478418945"><ele>1147.0</ele><time>2026-04-11T09:38:26Z</time></trkpt><trkpt lat="46.64182815253706" lon="9.58553483433574"><ele>1147.0</ele><time>2026-04-11T09:38:27Z</time></trkpt><trkpt lat="46.64170045241013" lon="9.585532966858105"><ele>1147.0</ele><time>2026-04-11T09:38:28Z</time></trkpt><trkpt lat="46.641575241842325" lon="9.58555918343875"><ele>1147.0</ele><time>2026-04-11T09:38:29Z</time></trkpt><trkpt lat="46.64143794700475" lon="9.585630376038628"><ele>1147.0</ele><time>2026-04-11T09:38:30Z</time></trkpt><trkpt lat="46.641309518953655" lon="9.585709798076042"><ele>1147.0</ele><time>2026-04-11T09:38:31Z</time></trkpt><trkpt lat="46.641189051126894" lon="9.585775127385393"><ele>1147.0</ele><time>2026-04-11T09:38:32Z</time></trkpt><trkpt lat="46.641055692489516" lon="9.585821283965053"><ele>1147.0</ele><time>2026-04-11T09:38:33Z</time></trkpt><trkpt lat="46.64091925302895" lon="9.585833440958629"><ele>1147.0</ele><time>2026-04-11T09:38:34Z</time></trkpt><trkpt lat="46.640768962060164" lon="9.585832859432543"><ele>1144.0</ele><time>2026-04-11T09:38:35Z</time></trkpt><trkpt lat="46.64063574986354" lon="9.585761762856446"><ele>1141.0</ele><time>2026-04-11T09:38:36Z</time></trkpt><trkpt lat="46.64046118871005" lon="9.585684019659576"><ele>1138.0</ele><time>2026-04-11T09:38:37Z</time></trkpt><trkpt lat="46.64031773023953" lon="9.585623009726014"><ele>1143.3333333333333</ele><time>2026-04-11T09:38:38Z</time></trkpt><trkpt lat="46.640175170987064" lon="9.585534089779822"><ele>1148.6666666666667</ele><time>2026-04-11T09:38:39Z</time></trkpt><trkpt lat="46.64000070453065" lon="9.585449242372796"><ele>1154.0</ele><time>2026-04-11T09:38:40Z</time></trkpt><trkpt lat="46.63982248610052" lon="9.585358541087345"><ele>1155.6666666666667</ele><time>2026-04-11T09:38:41Z</time></trkpt><trkpt lat="46.639643107928194" lon="9.585266182708729"><ele>1157.3333333333333</ele><time>2026-04-11T09:38:42Z</time></trkpt><trkpt lat="46.639460977114496" lon="9.585194034468707"><ele>1159.0</ele><time>2026-04-11T09:38:43Z</time></trkpt><trkpt lat="46.6392707840508" lon="9.585143865078907"><ele>1159.0</ele><time>2026-04-11T09:38:44Z</time></trkpt><trkpt lat="46.63908033094893" lon="9.58510535414685"><ele>1159.0</ele><time>2026-04-11T09:38:45Z</time></trkpt><trkpt lat="46.6388883947702" lon="9.585055526696058"><ele>1159.0</ele><time>2026-04-11T09:38:46Z</time></trkpt><trkpt lat="46.6386989843361" lon="9.585030956164033"><ele>1191.0</ele><time>2026-04-11T09:38:47Z</time></trkpt><trkpt lat="46.63851823014274" lon="9.585060447905473"><ele>1223.0</ele><time>2026-04-11T09:38:48Z</time></trkpt><trkpt lat="46.63833997694607" lon="9.585097657060869"><ele>1255.0</ele><time>2026-04-11T09:38:49Z</time></trkpt><trkpt lat="46.63815883086671" lon="9.585146126258355"><ele>1255.0</ele><time>2026-04-11T09:38:50.069Z</time></trkpt><trkpt lat="46.63799099303872" lon="9.585201197385775"><ele>1255.0</ele><time>2026-04-11T09:38:51.06Z</time></trkpt><trkpt lat="46.636087974379734" lon="9.58607105934526"><ele>1334.0</ele><time>2026-04-11T09:38:54.164Z</time></trkpt><trkpt lat="46.635386494313614" lon="9.586303850192783"><ele>1268.0</ele><time>2026-04-11T09:38:55.164Z</time></trkpt><trkpt lat="46.63467455693463" lon="9.586454033921378"><ele>1241.0</ele><time>2026-04-11T09:38:56.164Z</time></trkpt><trkpt lat="46.6343507" lon="9.5864921"><ele>1214.0</ele><time>2026-04-11T09:38:57.164Z</time></trkpt><trkpt lat="46.63282798445674" lon="9.58665613873018"><ele>1195.0</ele><time>2026-04-11T09:39:16Z</time></trkpt><trkpt lat="46.63264404356126" lon="9.586708455605486"><ele>1176.0</ele><time>2026-04-11T09:39:17Z</time></trkpt><trkpt lat="46.632447281243756" lon="9.586769968973824"><ele>1157.0</ele><time>2026-04-11T09:39:18Z</time></trkpt><trkpt lat="46.63227215999615" lon="9.586827882162181"><ele>1157.0</ele><time>2026-04-11T09:39:19Z</time></trkpt><trkpt lat="46.63208836466325" lon="9.58688888218755"><ele>1157.0</ele><time>2026-04-11T09:39:20Z</time></trkpt><trkpt lat="46.63190711832798" lon="9.586936968782503"><ele>1157.0</ele><time>2026-04-11T09:39:21Z</time></trkpt><trkpt lat="46.63171594168023" lon="9.586940821949455"><ele>1158.0</ele><time>2026-04-11T09:39:22Z</time></trkpt><trkpt lat="46.63154819862664" lon="9.586988899854559"><ele>1159.0</ele><time>2026-04-11T09:39:23Z</time></trkpt><trkpt lat="46.63139360915176" lon="9.587048298513857"><ele>1160.0</ele><time>2026-04-11T09:39:24Z</time></trkpt><trkpt lat="46.631243608961604" lon="9.587144137332006"><ele>1170.0</ele><time>2026-04-11T09:39:25Z</time></trkpt><trkpt lat="46.63109619490295" lon="9.587271863211793"><ele>1180.0</ele><time>2026-04-11T09:39:26Z</time></trkpt><trkpt lat="46.630972033845445" lon="9.587398296930047"><ele>1190.0</ele><time>2026-04-11T09:39:27Z</time></trkpt><trkpt lat="46.63085618715756" lon="9.587510034918749"><ele>1190.0</ele><time>2026-04-11T09:39:28Z</time></trkpt><trkpt lat="46.63074562354083" lon="9.587594008455206"><ele>1190.0</ele><time>2026-04-11T09:39:29Z</time></trkpt><trkpt lat="46.63063337196567" lon="9.58764532030635"><ele>1190.0</ele><time>2026-04-11T09:39:30Z</time></trkpt><trkpt lat="46.63051699098784" lon="9.587641939195706"><ele>1190.0</ele><time>2026-04-11T09:39:31Z</time></trkpt><trkpt lat="46.63043210660329" lon="9.587544766318512"><ele>1190.0</ele><time>2026-04-11T09:39:32Z</time></trkpt><trkpt lat="46.63034395951562" lon="9.587447678033787"><ele>1190.0</ele><time>2026-04-11T09:39:33Z</time></trkpt><trkpt lat="46.63028621620823" lon="9.587324132340564"><ele>1190.0</ele><time>2026-04-11T09:39:34Z</time></trkpt><trkpt lat="46.630274319944846" lon="9.587165354829542"><ele>1190.0</ele><time>2026-04-11T09:39:35Z</time></trkpt><trkpt lat="46.63028265158512" lon="9.586995864729406"><ele>1190.0</ele><time>2026-04-11T09:39:36Z</time></trkpt><trkpt lat="46.63031856191188" lon="9.586834262729933"><ele>1187.5</ele><time>2026-04-11T09:39:37Z</time></trkpt><trkpt lat="46.6303840640559" lon="9.586678992807819"><ele>1185.0</ele><time>2026-04-11T09:39:38Z</time></trkpt><trkpt lat="46.630459047424715" lon="9.586513587004875"><ele>1182.5</ele><time>2026-04-11T09:39:39Z</time></trkpt><trkpt lat="46.630538667065046" lon="9.586354901355445"><ele>1180.0</ele><time>2026-04-11T09:39:40Z</time></trkpt><trkpt lat="46.63061571611938" lon="9.58619294662372"><ele>1181.2</ele><time>2026-04-11T09:39:41Z</time></trkpt><trkpt lat="46.63068002034133" lon="9.586047609096443"><ele>1182.4</ele><time>2026-04-11T09:39:42Z</time></trkpt><trkpt lat="46.63071675091195" lon="9.585903390679057"><ele>1183.6</ele><time>2026-04-11T09:39:43Z</time></trkpt><trkpt lat="46.630748572608525" lon="9.58576371557977"><ele>1184.8</ele><time>2026-04-11T09:39:44Z</time></trkpt><trkpt lat="46.63075852117596" lon="9.585604610369987"><ele>1186.0</ele><time>2026-04-11T09:39:45Z</time></trkpt><trkpt lat="46.63073714763028" lon="9.585443264810298"><ele>1184.5</ele><time>2026-04-11T09:39:46Z</time></trkpt><trkpt lat="46.63068376723032" lon="9.585294507198277"><ele>1183.0</ele><time>2026-04-11T09:39:47Z</time></trkpt><trkpt lat="46.63060197618001" lon="9.585167434868358"><ele>1181.5</ele><time>2026-04-11T09:39:48Z</time></trkpt><trkpt lat="46.63049406256095" lon="9.58506243397566"><ele>1180.0</ele><time>2026-04-11T09:39:49Z</time></trkpt><trkpt lat="46.63035957035597" lon="9.584998349829482"><ele>1182.5</ele><time>2026-04-11T09:39:50Z</time></trkpt><trkpt lat="46.63022220024802" lon="9.584957276815102"><ele>1185.0</ele><time>2026-04-11T09:39:51Z</time></trkpt><trkpt lat="46.63007794013035" lon="9.584904446550475"><ele>1187.5</ele><time>2026-04-11T09:39:52Z</time></trkpt><trkpt lat="46.62992944215844" lon="9.584848608850164"><ele>1190.0</ele><time>2026-04-11T09:39:53Z</time></trkpt><trkpt lat="46.62978123573674" lon="9.584788416364031"><ele>1190.0</ele><time>2026-04-11T09:39:54Z</time></trkpt><trkpt lat="46.62963624596594" lon="9.584722515530474"><ele>1190.0</ele><time>2026-04-11T09:39:55Z</time></trkpt><trkpt lat="46.629497570874136" lon="9.584645688031799"><ele>1190.0</ele><time>2026-04-11T09:39:56Z</time></trkpt><trkpt lat="46.62936471265298" lon="9.584541190161444"><ele>1188.5</ele><time>2026-04-11T09:39:57Z</time></trkpt><trkpt lat="46.62923753515292" lon="9.58441175239528"><ele>1187.0</ele><time>2026-04-11T09:39:58Z</time></trkpt><trkpt lat="46.62911589320794" lon="9.584288143456153"><ele>1185.5</ele><time>2026-04-11T09:39:59Z</time></trkpt><trkpt lat="46.62899351478994" lon="9.584199649173376"><ele>1184.0</ele><time>2026-04-11T09:40:00Z</time></trkpt><trkpt lat="46.628874217033236" lon="9.58414097315949"><ele>1184.0</ele><time>2026-04-11T09:40:01Z</time></trkpt><trkpt lat="46.62877015369734" lon="9.58410914141239"><ele>1184.0</ele><time>2026-04-11T09:40:02Z</time></trkpt><trkpt lat="46.62868011742334" lon="9.584094178724978"><ele>1184.0</ele><time>2026-04-11T09:40:03Z</time></trkpt><trkpt lat="46.6285647497568" lon="9.584079851940984"><ele>1184.0</ele><time>2026-04-11T09:40:04Z</time></trkpt><trkpt lat="46.628412118122604" lon="9.584076778603361"><ele>1186.0</ele><time>2026-04-11T09:40:05Z</time></trkpt><trkpt lat="46.62824777429499" lon="9.584103591670184"><ele>1188.0</ele><time>2026-04-11T09:40:06Z</time></trkpt><trkpt lat="46.62805924825444" lon="9.5841927252211"><ele>1190.0</ele><time>2026-04-11T09:40:07Z</time></trkpt><trkpt lat="46.62785390067558" lon="9.584324442817156"><ele>1189.0</ele><time>2026-04-11T09:40:08Z</time></trkpt><trkpt lat="46.627642234146904" lon="9.58449155056355"><ele>1188.0</ele><time>2026-04-11T09:40:09Z</time></trkpt><trkpt lat="46.62742276295893" lon="9.584675907768375"><ele>1188.0</ele><time>2026-04-11T09:40:10Z</time></trkpt><trkpt lat="46.62718571108568" lon="9.584853784899021"><ele>1188.0</ele><time>2026-04-11T09:40:11Z</time></trkpt><trkpt lat="46.626946657076694" lon="9.585032960199493"><ele>1189.0</ele><time>2026-04-11T09:40:12Z</time></trkpt><trkpt lat="46.62671673144465" lon="9.585214562686508"><ele>1190.0</ele><time>2026-04-11T09:40:13Z</time></trkpt><trkpt lat="46.62649059894122" lon="9.585395801269431"><ele>1190.0</ele><time>2026-04-11T09:40:14Z</time></trkpt><trkpt lat="46.62626215980807" lon="9.585567398269891"><ele>1190.0</ele><time>2026-04-11T09:40:15Z</time></trkpt><trkpt lat="46.626040686931745" lon="9.585731757714393"><ele>1184.0</ele><time>2026-04-11T09:40:16Z</time></trkpt><trkpt lat="46.62583145344308" lon="9.585890464411037"><ele>1178.0</ele><time>2026-04-11T09:40:17Z</time></trkpt><trkpt lat="46.62563207689354" lon="9.586046101663275"><ele>1177.6666666666667</ele><time>2026-04-11T09:40:18Z</time></trkpt><trkpt lat="46.62544972669964" lon="9.58621434699716"><ele>1177.3333333333333</ele><time>2026-04-11T09:40:19Z</time></trkpt><trkpt lat="46.625294706583205" lon="9.586420105802306"><ele>1177.0</ele><time>2026-04-11T09:40:20Z</time></trkpt><trkpt lat="46.62517020009653" lon="9.58667477079491"><ele>1177.0</ele><time>2026-04-11T09:40:21Z</time></trkpt><trkpt lat="46.62507495891404" lon="9.586934599802701"><ele>1177.0</ele><time>2026-04-11T09:40:22Z</time></trkpt><trkpt lat="46.62499524925567" lon="9.58718155705506"><ele>1177.0</ele><time>2026-04-11T09:40:23Z</time></trkpt><trkpt lat="46.624890443880865" lon="9.58739646048135"><ele>1176.3333333333333</ele><time>2026-04-11T09:40:24Z</time></trkpt><trkpt lat="46.62473059505466" lon="9.587566814713988"><ele>1175.6666666666667</ele><time>2026-04-11T09:40:25Z</time></trkpt><trkpt lat="46.624529360107886" lon="9.587658902848561"><ele>1175.0</ele><time>2026-04-11T09:40:26Z</time></trkpt><trkpt lat="46.62432289954836" lon="9.587755709989452"><ele>1175.0</ele><time>2026-04-11T09:40:27Z</time></trkpt><trkpt lat="46.62412335103816" lon="9.58784162408366"><ele>1175.0</ele><time>2026-04-11T09:40:28Z</time></trkpt><trkpt lat="46.62394738177903" lon="9.588009138666024"><ele>1175.0</ele><time>2026-04-11T09:40:29Z</time></trkpt><trkpt lat="46.623780328041974" lon="9.588215505433283"><ele>1174.3333333333335</ele><time>2026-04-11T09:40:30Z</time></trkpt><trkpt lat="46.62361841274146" lon="9.588437405984633"><ele>1173.6666666666667</ele><time>2026-04-11T09:40:31Z</time></trkpt><trkpt lat="46.62345703322136" lon="9.588660483769413"><ele>1173.0</ele><time>2026-04-11T09:40:32Z</time></trkpt><trkpt lat="46.62329141815858" lon="9.588888411935622"><ele>1172.6666666666667</ele><time>2026-04-11T09:40:33Z</time></trkpt><trkpt lat="46.62312433746215" lon="9.589106346035187"><ele>1172.3333333333335</ele><time>2026-04-11T09:40:34Z</time></trkpt><trkpt lat="46.62295874169002" lon="9.589307528470265"><ele>1172.0</ele><time>2026-04-11T09:40:35Z</time></trkpt><trkpt lat="46.622777306869146" lon="9.589480043800911"><ele>1181.6666666666667</ele><time>2026-04-11T09:40:36Z</time></trkpt><trkpt lat="46.622571929094846" lon="9.589603237182734"><ele>1191.3333333333333</ele><time>2026-04-11T09:40:37Z</time></trkpt><trkpt lat="46.62235242536889" lon="9.589671707978527"><ele>1201.0</ele><time>2026-04-11T09:40:38Z</time></trkpt><trkpt lat="46.62213121168609" lon="9.589692915709398"><ele>1200.6666666666665</ele><time>2026-04-11T09:40:39Z</time></trkpt><trkpt lat="46.621911353916296" lon="9.589677309938073"><ele>1200.3333333333333</ele><time>2026-04-11T09:40:40Z</time></trkpt><trkpt lat="46.621698249368485" lon="9.58965280661257"><ele>1200.0</ele><time>2026-04-11T09:40:41Z</time></trkpt><trkpt lat="46.62148641110893" lon="9.589670250705442"><ele>1200.0</ele><time>2026-04-11T09:40:42Z</time></trkpt><trkpt lat="46.62126903658407" lon="9.589746355788929"><ele>1200.0</ele><time>2026-04-11T09:40:43Z</time></trkpt><trkpt lat="46.621047055148125" lon="9.589856106648707"><ele>1193.5</ele><time>2026-04-11T09:40:44Z</time></trkpt><trkpt lat="46.62082787258642" lon="9.589983813902549"><ele>1187.0</ele><time>2026-04-11T09:40:45Z</time></trkpt><trkpt lat="46.62060798169119" lon="9.590117027994445"><ele>1187.0</ele><time>2026-04-11T09:40:46Z</time></trkpt><trkpt lat="46.62038547958498" lon="9.590241684863845"><ele>1187.0</ele><time>2026-04-11T09:40:47Z</time></trkpt><trkpt lat="46.620158614849615" lon="9.590361475694532"><ele>1194.0</ele><time>2026-04-11T09:40:48Z</time></trkpt><trkpt lat="46.61993457708762" lon="9.590489179862868"><ele>1201.0</ele><time>2026-04-11T09:40:49Z</time></trkpt><trkpt lat="46.619712289958414" lon="9.590620727285458"><ele>1201.0</ele><time>2026-04-11T09:40:50Z</time></trkpt><trkpt lat="46.6194904817482" lon="9.590769699792947"><ele>1201.0</ele><time>2026-04-11T09:40:51Z</time></trkpt><trkpt lat="46.619275894940365" lon="9.590933693399991"><ele>1204.0</ele><time>2026-04-11T09:40:52Z</time></trkpt><trkpt lat="46.619063077101245" lon="9.591104583687349"><ele>1207.0</ele><time>2026-04-11T09:40:53Z</time></trkpt><trkpt lat="46.61885208688052" lon="9.591279588274574"><ele>1197.0</ele><time>2026-04-11T09:40:54Z</time></trkpt><trkpt lat="46.618635991223016" lon="9.591444242156804"><ele>1187.0</ele><time>2026-04-11T09:40:55Z</time></trkpt><trkpt lat="46.61842028400906" lon="9.5916030585018"><ele>1187.0</ele><time>2026-04-11T09:40:56Z</time></trkpt><trkpt lat="46.61820023220081" lon="9.59175020822596"><ele>1187.0</ele><time>2026-04-11T09:40:57Z</time></trkpt><trkpt lat="46.61797624645904" lon="9.591878607750317"><ele>1177.5</ele><time>2026-04-11T09:40:58Z</time></trkpt><trkpt lat="46.61774654842838" lon="9.59198538071466"><ele>1168.0</ele><time>2026-04-11T09:40:59Z</time></trkpt><trkpt lat="46.61751433450495" lon="9.592079486417342"><ele>1187.5</ele><time>2026-04-11T09:41:00Z</time></trkpt><trkpt lat="46.617281280705406" lon="9.592171741260403"><ele>1207.0</ele><time>2026-04-11T09:41:01Z</time></trkpt><trkpt lat="46.61704754356114" lon="9.59227182440916"><ele>1197.5</ele><time>2026-04-11T09:41:02Z</time></trkpt><trkpt lat="46.61681752358712" lon="9.592375203147961"><ele>1188.0</ele><time>2026-04-11T09:41:03Z</time></trkpt><trkpt lat="46.616599073336545" lon="9.592497266320018"><ele>1188.0</ele><time>2026-04-11T09:41:04Z</time></trkpt><trkpt lat="46.616398967728074" lon="9.592662397160657"><ele>1188.0</ele><time>2026-04-11T09:41:05Z</time></trkpt><trkpt lat="46.61620344204064" lon="9.592865144160712"><ele>1190.5</ele><time>2026-04-11T09:41:06Z</time></trkpt><trkpt lat="46.616006548196644" lon="9.593080000307229"><ele>1193.0</ele><time>2026-04-11T09:41:07Z</time></trkpt><trkpt lat="46.61581402407755" lon="9.593286371117577"><ele>1193.0</ele><time>2026-04-11T09:41:08Z</time></trkpt><trkpt lat="46.61561906935071" lon="9.593454466112817"><ele>1193.0</ele><time>2026-04-11T09:41:09Z</time></trkpt><trkpt lat="46.61541700510422" lon="9.593569893787121"><ele>1193.0</ele><time>2026-04-11T09:41:10Z</time></trkpt><trkpt lat="46.61521435949094" lon="9.593639635829042"><ele>1188.3333333333335</ele><time>2026-04-11T09:41:11Z</time></trkpt><trkpt lat="46.61501799268893" lon="9.593658706373366"><ele>1183.6666666666667</ele><time>2026-04-11T09:41:12Z</time></trkpt><trkpt lat="46.6148298751425" lon="9.593638152032671"><ele>1179.0</ele><time>2026-04-11T09:41:13Z</time></trkpt><trkpt lat="46.614643748191035" lon="9.593595212940777"><ele>1179.6666666666667</ele><time>2026-04-11T09:41:14Z</time></trkpt><trkpt lat="46.61446400752179" lon="9.593529037163945"><ele>1180.3333333333335</ele><time>2026-04-11T09:41:15Z</time></trkpt><trkpt lat="46.6142901809761" lon="9.593433951355252"><ele>1181.0</ele><time>2026-04-11T09:41:16Z</time></trkpt><trkpt lat="46.61412806539586" lon="9.5933179415726"><ele>1181.0</ele><time>2026-04-11T09:41:17Z</time></trkpt><trkpt lat="46.61397475070699" lon="9.593186839073915"><ele>1181.0</ele><time>2026-04-11T09:41:18Z</time></trkpt><trkpt lat="46.61382851717216" lon="9.593061491181208"><ele>1181.0</ele><time>2026-04-11T09:41:19Z</time></trkpt><trkpt lat="46.61368224697408" lon="9.592945426495326"><ele>1179.3333333333335</ele><time>2026-04-11T09:41:20Z</time></trkpt><trkpt lat="46.61351475018419" lon="9.592823281350766"><ele>1177.6666666666667</ele><time>2026-04-11T09:41:21Z</time></trkpt><trkpt lat="46.61333541116041" lon="9.592683485213744"><ele>1176.0</ele><time>2026-04-11T09:41:22Z</time></trkpt><trkpt lat="46.61315015533569" lon="9.592518681574091"><ele>1176.0</ele><time>2026-04-11T09:41:23Z</time></trkpt><trkpt lat="46.61295930041529" lon="9.59235208011045"><ele>1176.0</ele><time>2026-04-11T09:41:24Z</time></trkpt><trkpt lat="46.61276881799505" lon="9.592195091149067"><ele>1176.0</ele><time>2026-04-11T09:41:25Z</time></trkpt><trkpt lat="46.612562623490376" lon="9.592060962133184"><ele>1175.6666666666667</ele><time>2026-04-11T09:41:26Z</time></trkpt><trkpt lat="46.612346691961164" lon="9.59196399404466"><ele>1175.3333333333335</ele><time>2026-04-11T09:41:27Z</time></trkpt><trkpt lat="46.6121361374527" lon="9.591903916870915"><ele>1175.0</ele><time>2026-04-11T09:41:28Z</time></trkpt><trkpt lat="46.61193711542023" lon="9.59186952779745"><ele>1175.0</ele><time>2026-04-11T09:41:29Z</time></trkpt><trkpt lat="46.61174571020663" lon="9.591847355717356"><ele>1175.0</ele><time>2026-04-11T09:41:30Z</time></trkpt><trkpt lat="46.61156318032205" lon="9.591834501619694"><ele>1175.0</ele><time>2026-04-11T09:41:31Z</time></trkpt><trkpt lat="46.611391885416424" lon="9.591826885768628"><ele>1175.0</ele><time>2026-04-11T09:41:32Z</time></trkpt><trkpt lat="46.61123085646798" lon="9.5918145176804"><ele>1175.0</ele><time>2026-04-11T09:41:33Z</time></trkpt><trkpt lat="46.61108337246667" lon="9.591796857333097"><ele>1175.0</ele><time>2026-04-11T09:41:34Z</time></trkpt><trkpt lat="46.610949372124956" lon="9.591771530860981"><ele>1175.0</ele><time>2026-04-11T09:41:35Z</time></trkpt><trkpt lat="46.610819299147295" lon="9.591740355397901"><ele>1175.5</ele><time>2026-04-11T09:41:36Z</time></trkpt><trkpt lat="46.61069329588256" lon="9.591710557468739"><ele>1176.0</ele><time>2026-04-11T09:41:37Z</time></trkpt><trkpt lat="46.61056907494031" lon="9.591683608676588"><ele>1176.5</ele><time>2026-04-11T09:41:38Z</time></trkpt><trkpt lat="46.61044641957629" lon="9.591651584238118"><ele>1177.0</ele><time>2026-04-11T09:41:39Z</time></trkpt><trkpt lat="46.61032280546159" lon="9.591618009723803"><ele>1178.0</ele><time>2026-04-11T09:41:40Z</time></trkpt><trkpt lat="46.61020386056292" lon="9.591586959240411"><ele>1179.0</ele><time>2026-04-11T09:41:41Z</time></trkpt><trkpt lat="46.61008261276792" lon="9.591557011940088"><ele>1180.0</ele><time>2026-04-11T09:41:42.001Z</time></trkpt><trkpt lat="46.609960749477985" lon="9.591530257784788"><ele>1181.0</ele><time>2026-04-11T09:41:43.001Z</time></trkpt><trkpt lat="46.60984118870571" lon="9.591526801179802"><ele>1181.0</ele><time>2026-04-11T09:41:44.001Z</time></trkpt><trkpt lat="46.60971917962676" lon="9.59155297652933"><ele>1181.0</ele><time>2026-04-11T09:41:45.001Z</time></trkpt><trkpt lat="46.60960024223869" lon="9.591601998209104"><ele>1181.0</ele><time>2026-04-11T09:41:46.001Z</time></trkpt><trkpt lat="46.60948124415526" lon="9.5916370343793"><ele>1181.0</ele><time>2026-04-11T09:41:47.001Z</time></trkpt><trkpt lat="46.60935714797542" lon="9.591632824551075"><ele>1181.6</ele><time>2026-04-11T09:41:48.001Z</time></trkpt><trkpt lat="46.60924200526301" lon="9.591597877415525"><ele>1182.1999999999998</ele><time>2026-04-11T09:41:49.001Z</time></trkpt><trkpt lat="46.60914541417739" lon="9.591551132018688"><ele>1182.8000000000002</ele><time>2026-04-11T09:41:50.001Z</time></trkpt><trkpt lat="46.609048268709245" lon="9.59152058917718"><ele>1183.4</ele><time>2026-04-11T09:41:51.001Z</time></trkpt><trkpt lat="46.6089541055338" lon="9.591473067100168"><ele>1184.0</ele><time>2026-04-11T09:41:52.001Z</time></trkpt><trkpt lat="46.60885872097468" lon="9.591450226032805"><ele>1184.0</ele><time>2026-04-11T09:41:53.001Z</time></trkpt><trkpt lat="46.60875518234539" lon="9.591455681767695"><ele>1184.0</ele><time>2026-04-11T09:41:54.001Z</time></trkpt><trkpt lat="46.60865409526182" lon="9.591479312405253"><ele>1184.0</ele><time>2026-04-11T09:41:55Z</time></trkpt><trkpt lat="46.608554057222605" lon="9.591522769658722"><ele>1184.0</ele><time>2026-04-11T09:41:56Z</time></trkpt><trkpt lat="46.608445556738864" lon="9.591576770832631"><ele>1184.0</ele><time>2026-04-11T09:41:57Z</time></trkpt><trkpt lat="46.608329767596416" lon="9.591633165892013"><ele>1184.75</ele><time>2026-04-11T09:41:58Z</time></trkpt><trkpt lat="46.60820306351559" lon="9.591676206783557"><ele>1185.5</ele><time>2026-04-11T09:41:59Z</time></trkpt><trkpt lat="46.608070452835825" lon="9.591700038043106"><ele>1186.25</ele><time>2026-04-11T09:42:00Z</time></trkpt><trkpt lat="46.6079332935089" lon="9.591709090739542"><ele>1187.0</ele><time>2026-04-11T09:42:01Z</time></trkpt><trkpt lat="46.60779216240273" lon="9.591696661354675"><ele>1188.0</ele><time>2026-04-11T09:42:02Z</time></trkpt><trkpt lat="46.60764982064641" lon="9.59165737636617"><ele>1189.0</ele><time>2026-04-11T09:42:03Z</time></trkpt><trkpt lat="46.607512256726665" lon="9.591678339036294"><ele>1190.0</ele><time>2026-04-11T09:42:04Z</time></trkpt><trkpt lat="46.6073780950966" lon="9.591660664793455"><ele>1191.0</ele><time>2026-04-11T09:42:05Z</time></trkpt><trkpt lat="46.60724882358842" lon="9.591651265671604"><ele>1191.0</ele><time>2026-04-11T09:42:06Z</time></trkpt><trkpt lat="46.60711328556698" lon="9.5916556178647"><ele>1191.0</ele><time>2026-04-11T09:42:07Z</time></trkpt><trkpt lat="46.60697502105599" lon="9.591681043802943"><ele>1191.0</ele><time>2026-04-11T09:42:08Z</time></trkpt><trkpt lat="46.60682681054299" lon="9.591727208011207"><ele>1191.0</ele><time>2026-04-11T09:42:09Z</time></trkpt><trkpt lat="46.606684300920364" lon="9.59177180539986"><ele>1191.6666666666667</ele><time>2026-04-11T09:42:10Z</time></trkpt><trkpt lat="46.60652970250872" lon="9.591815560372577"><ele>1192.3333333333335</ele><time>2026-04-11T09:42:11Z</time></trkpt><trkpt lat="46.606369494730636" lon="9.59185815528325"><ele>1193.0</ele><time>2026-04-11T09:42:12Z</time></trkpt><trkpt lat="46.60621337583204" lon="9.591899073584042"><ele>1192.6666666666667</ele><time>2026-04-11T09:42:13Z</time></trkpt><trkpt lat="46.606053168677555" lon="9.591942096015055"><ele>1192.3333333333333</ele><time>2026-04-11T09:42:14Z</time></trkpt><trkpt lat="46.60589175043578" lon="9.591984737500198"><ele>1192.0</ele><time>2026-04-11T09:42:15Z</time></trkpt><trkpt lat="46.60573433289461" lon="9.592028318730305"><ele>1194.3333333333333</ele><time>2026-04-11T09:42:16Z</time></trkpt><trkpt lat="46.605571487861305" lon="9.592073590687903"><ele>1196.6666666666667</ele><time>2026-04-11T09:42:17Z</time></trkpt><trkpt lat="46.60540760284386" lon="9.592115961551656"><ele>1199.0</ele><time>2026-04-11T09:42:18Z</time></trkpt><trkpt lat="46.60524631659788" lon="9.59215593049706"><ele>1199.0</ele><time>2026-04-11T09:42:19Z</time></trkpt><trkpt lat="46.60507726783954" lon="9.592198511278871"><ele>1199.0</ele><time>2026-04-11T09:42:20Z</time></trkpt><trkpt lat="46.604893088603596" lon="9.592244648576834"><ele>1199.0</ele><time>2026-04-11T09:42:21Z</time></trkpt><trkpt lat="46.60470639122346" lon="9.59229092335508"><ele>1199.0</ele><time>2026-04-11T09:42:22Z</time></trkpt><trkpt lat="46.60451741610177" lon="9.592342408642615"><ele>1199.0</ele><time>2026-04-11T09:42:23Z</time></trkpt><trkpt lat="46.6043297769304" lon="9.592385941315"><ele>1199.0</ele><time>2026-04-11T09:42:24Z</time></trkpt><trkpt lat="46.604132574008375" lon="9.592436693989523"><ele>1200.0</ele><time>2026-04-11T09:42:25Z</time></trkpt><trkpt lat="46.60393070735715" lon="9.59248299919296"><ele>1201.0</ele><time>2026-04-11T09:42:26Z</time></trkpt><trkpt lat="46.60372838958083" lon="9.592535075298116"><ele>1202.0</ele><time>2026-04-11T09:42:27Z</time></trkpt><trkpt lat="46.60351578370454" lon="9.592593725283809"><ele>1202.6666666666667</ele><time>2026-04-11T09:42:28Z</time></trkpt><trkpt lat="46.60330178257962" lon="9.592650059484855"><ele>1203.3333333333333</ele><time>2026-04-11T09:42:29Z</time></trkpt><trkpt lat="46.60308565115487" lon="9.592705573849608"><ele>1204.0</ele><time>2026-04-11T09:42:30Z</time></trkpt><trkpt lat="46.60286914028105" lon="9.592760831103268"><ele>1203.6666666666665</ele><time>2026-04-11T09:42:31Z</time></trkpt><trkpt lat="46.6026521958242" lon="9.592816595969618"><ele>1203.3333333333333</ele><time>2026-04-11T09:42:32Z</time></trkpt><trkpt lat="46.60243527527126" lon="9.592871656647816"><ele>1203.0</ele><time>2026-04-11T09:42:33Z</time></trkpt><trkpt lat="46.60221826954233" lon="9.5929260950377"><ele>1204.6666666666667</ele><time>2026-04-11T09:42:34Z</time></trkpt><trkpt lat="46.60200079442915" lon="9.592981670985331"><ele>1206.3333333333335</ele><time>2026-04-11T09:42:35Z</time></trkpt><trkpt lat="46.60178912037115" lon="9.593038473712758"><ele>1208.0</ele><time>2026-04-11T09:42:36Z</time></trkpt><trkpt lat="46.60157992038077" lon="9.593099733829346"><ele>1208.0</ele><time>2026-04-11T09:42:37Z</time></trkpt><trkpt lat="46.60137329203045" lon="9.593175263497791"><ele>1208.0</ele><time>2026-04-11T09:42:38Z</time></trkpt><trkpt lat="46.601158118968996" lon="9.593259416395089"><ele>1208.0</ele><time>2026-04-11T09:42:39Z</time></trkpt><trkpt lat="46.600949660527455" lon="9.593357752421737"><ele>1206.6666666666667</ele><time>2026-04-11T09:42:40Z</time></trkpt><trkpt lat="46.60075087025604" lon="9.593459253387413"><ele>1205.3333333333333</ele><time>2026-04-11T09:42:41Z</time></trkpt><trkpt lat="46.60057698576416" lon="9.593591074564232"><ele>1204.0</ele><time>2026-04-11T09:42:42Z</time></trkpt><trkpt lat="46.60040649248645" lon="9.59374233291502"><ele>1205.6666666666665</ele><time>2026-04-11T09:42:43Z</time></trkpt><trkpt lat="46.60024228515211" lon="9.593903248659764"><ele>1207.3333333333333</ele><time>2026-04-11T09:42:44Z</time></trkpt><trkpt lat="46.60007905058308" lon="9.59407050109134"><ele>1209.0</ele><time>2026-04-11T09:42:45Z</time></trkpt><trkpt lat="46.5999234449291" lon="9.594238655062878"><ele>1209.0</ele><time>2026-04-11T09:42:46Z</time></trkpt><trkpt lat="46.59977676247558" lon="9.59439578208619"><ele>1209.0</ele><time>2026-04-11T09:42:47Z</time></trkpt><trkpt lat="46.59963022012752" lon="9.59454901093066"><ele>1209.0</ele><time>2026-04-11T09:42:48Z</time></trkpt><trkpt lat="46.5994880050836" lon="9.594693858766057"><ele>1208.3333333333333</ele><time>2026-04-11T09:42:49Z</time></trkpt><trkpt lat="46.599351032762" lon="9.594831679663868"><ele>1207.6666666666665</ele><time>2026-04-11T09:42:50Z</time></trkpt><trkpt lat="46.5992256315149" lon="9.594954142250268"><ele>1207.0</ele><time>2026-04-11T09:42:51Z</time></trkpt><trkpt lat="46.59911698021321" lon="9.595066335416961"><ele>1207.0</ele><time>2026-04-11T09:42:52Z</time></trkpt><trkpt lat="46.59901084286441" lon="9.595173671395045"><ele>1207.0</ele><time>2026-04-11T09:42:53Z</time></trkpt><trkpt lat="46.59890881454988" lon="9.595283633287375"><ele>1207.0</ele><time>2026-04-11T09:42:54Z</time></trkpt><trkpt lat="46.5988082004449" lon="9.59539346937714"><ele>1207.0</ele><time>2026-04-11T09:42:55Z</time></trkpt><trkpt lat="46.59870664138985" lon="9.595500141470772"><ele>1207.0</ele><time>2026-04-11T09:42:56Z</time></trkpt><trkpt lat="46.59860340062077" lon="9.595608900411811"><ele>1207.0</ele><time>2026-04-11T09:42:57Z</time></trkpt><trkpt lat="46.59849977227394" lon="9.595723840715753"><ele>1207.0</ele><time>2026-04-11T09:42:58Z</time></trkpt><trkpt lat="46.59840143755372" lon="9.595843067262832"><ele>1207.0</ele><time>2026-04-11T09:42:59Z</time></trkpt><trkpt lat="46.59830510010439" lon="9.595959757824488"><ele>1207.0</ele><time>2026-04-11T09:43:00Z</time></trkpt><trkpt lat="46.5982072213796" lon="9.59607061242167"><ele>1207.0</ele><time>2026-04-11T09:43:01Z</time></trkpt><trkpt lat="46.59810828081526" lon="9.596174508873828"><ele>1207.0</ele><time>2026-04-11T09:43:02Z</time></trkpt><trkpt lat="46.59801160732295" lon="9.596275117378362"><ele>1207.0</ele><time>2026-04-11T09:43:03Z</time></trkpt><trkpt lat="46.59791420205764" lon="9.596375278660602"><ele>1207.0</ele><time>2026-04-11T09:43:04Z</time></trkpt><trkpt lat="46.597816038492674" lon="9.596476100933678"><ele>1207.0</ele><time>2026-04-11T09:43:05Z</time></trkpt><trkpt lat="46.59772035049394" lon="9.596580592403221"><ele>1207.0</ele><time>2026-04-11T09:43:06Z</time></trkpt><trkpt lat="46.59763251739837" lon="9.59667624205042"><ele>1207.0</ele><time>2026-04-11T09:43:07Z</time></trkpt><trkpt lat="46.59754395601704" lon="9.596767833113946"><ele>1207.0</ele><time>2026-04-11T09:43:08Z</time></trkpt><trkpt lat="46.59745123448476" lon="9.596862694031707"><ele>1207.0</ele><time>2026-04-11T09:43:09Z</time></trkpt><trkpt lat="46.597354701315645" lon="9.596963765345969"><ele>1207.0</ele><time>2026-04-11T09:43:10Z</time></trkpt><trkpt lat="46.59725601462701" lon="9.597068651419923"><ele>1207.0</ele><time>2026-04-11T09:43:11Z</time></trkpt><trkpt lat="46.59715673231117" lon="9.597183076559947"><ele>1206.0</ele><time>2026-04-11T09:43:12Z</time></trkpt><trkpt lat="46.597063609287325" lon="9.597300952247652"><ele>1205.0</ele><time>2026-04-11T09:43:13Z</time></trkpt><trkpt lat="46.59697627865823" lon="9.59741976813924"><ele>1204.0</ele><time>2026-04-11T09:43:14Z</time></trkpt><trkpt lat="46.59689632685412" lon="9.597545615925966"><ele>1203.0</ele><time>2026-04-11T09:43:15Z</time></trkpt><trkpt lat="46.59681854987362" lon="9.59768037331463"><ele>1203.0</ele><time>2026-04-11T09:43:16Z</time></trkpt><trkpt lat="46.596740555104645" lon="9.597814842887024"><ele>1203.0</ele><time>2026-04-11T09:43:17Z</time></trkpt><trkpt lat="46.596657269012624" lon="9.59795120971482"><ele>1203.0</ele><time>2026-04-11T09:43:18Z</time></trkpt><trkpt lat="46.59657970615686" lon="9.598091068379004"><ele>1203.0</ele><time>2026-04-11T09:43:19Z</time></trkpt><trkpt lat="46.59650662215565" lon="9.598235460140947"><ele>1204.5</ele><time>2026-04-11T09:43:20Z</time></trkpt><trkpt lat="46.59644496405235" lon="9.598382602138706"><ele>1206.0</ele><time>2026-04-11T09:43:21Z</time></trkpt><trkpt lat="46.596382010900676" lon="9.598526426700879"><ele>1207.5</ele><time>2026-04-11T09:43:22Z</time></trkpt><trkpt lat="46.59631787244692" lon="9.59866666149259"><ele>1209.0</ele><time>2026-04-11T09:43:23Z</time></trkpt><trkpt lat="46.596252591406376" lon="9.598805312427329"><ele>1208.6000000000001</ele><time>2026-04-11T09:43:24Z</time></trkpt><trkpt lat="46.596193086691045" lon="9.598938955692201"><ele>1208.2</ele><time>2026-04-11T09:43:25Z</time></trkpt><trkpt lat="46.59612993288442" lon="9.59907170259872"><ele>1207.8000000000002</ele><time>2026-04-11T09:43:26Z</time></trkpt><trkpt lat="46.596068107734055" lon="9.599208583549792"><ele>1207.4</ele><time>2026-04-11T09:43:27Z</time></trkpt><trkpt lat="46.59600488739711" lon="9.599345561152425"><ele>1207.0</ele><time>2026-04-11T09:43:28Z</time></trkpt><trkpt lat="46.5959407443882" lon="9.599477886780885"><ele>1207.8</ele><time>2026-04-11T09:43:29Z</time></trkpt><trkpt lat="46.595884175252124" lon="9.599605392148254"><ele>1208.6</ele><time>2026-04-11T09:43:30Z</time></trkpt><trkpt lat="46.59583141814339" lon="9.599726766092859"><ele>1209.3999999999999</ele><time>2026-04-11T09:43:31Z</time></trkpt><trkpt lat="46.59577731747187" lon="9.599839870575982"><ele>1210.2</ele><time>2026-04-11T09:43:32Z</time></trkpt><trkpt lat="46.59572996091457" lon="9.599951840171164"><ele>1211.0</ele><time>2026-04-11T09:43:33Z</time></trkpt><trkpt lat="46.595677817301436" lon="9.600064360330078"><ele>1211.0</ele><time>2026-04-11T09:43:34Z</time></trkpt><trkpt lat="46.59562559975926" lon="9.600184757762504"><ele>1211.0</ele><time>2026-04-11T09:43:35Z</time></trkpt><trkpt lat="46.59557205811799" lon="9.60030105215066"><ele>1211.0</ele><time>2026-04-11T09:43:36Z</time></trkpt><trkpt lat="46.59552464815082" lon="9.600406638454261"><ele>1211.0</ele><time>2026-04-11T09:43:37Z</time></trkpt><trkpt lat="46.59547436271405" lon="9.600509804372711"><ele>1211.0</ele><time>2026-04-11T09:43:38Z</time></trkpt><trkpt lat="46.59542201713244" lon="9.600618859646524"><ele>1210.8</ele><time>2026-04-11T09:43:39Z</time></trkpt><trkpt lat="46.595369028215586" lon="9.600732775633913"><ele>1210.6</ele><time>2026-04-11T09:43:40Z</time></trkpt><trkpt lat="46.5953146102476" lon="9.600853891646194"><ele>1210.4</ele><time>2026-04-11T09:43:41Z</time></trkpt><trkpt lat="46.59526038318341" lon="9.600971424821271"><ele>1210.2</ele><time>2026-04-11T09:43:42Z</time></trkpt><trkpt lat="46.595210625795886" lon="9.60108286279413"><ele>1210.0</ele><time>2026-04-11T09:43:43Z</time></trkpt><trkpt lat="46.595157625317114" lon="9.601199561842453"><ele>1210.0</ele><time>2026-04-11T09:43:44Z</time></trkpt><trkpt lat="46.5951012092563" lon="9.60131870476259"><ele>1210.0</ele><time>2026-04-11T09:43:45Z</time></trkpt><trkpt lat="46.59504381749635" lon="9.60144614800805"><ele>1210.0</ele><time>2026-04-11T09:43:46Z</time></trkpt><trkpt lat="46.59498645241137" lon="9.601569187321344"><ele>1210.0</ele><time>2026-04-11T09:43:47Z</time></trkpt><trkpt lat="46.59492632186837" lon="9.601694441000395"><ele>1210.0</ele><time>2026-04-11T09:43:48Z</time></trkpt><trkpt lat="46.594866149744504" lon="9.601827058869814"><ele>1210.0</ele><time>2026-04-11T09:43:49Z</time></trkpt><trkpt lat="46.594808221708135" lon="9.601959650117417"><ele>1210.0</ele><time>2026-04-11T09:43:50Z</time></trkpt><trkpt lat="46.594744101945494" lon="9.602089550178697"><ele>1210.0</ele><time>2026-04-11T09:43:51Z</time></trkpt><trkpt lat="46.59467888359452" lon="9.602232402783208"><ele>1210.0</ele><time>2026-04-11T09:43:52Z</time></trkpt><trkpt lat="46.59460658583781" lon="9.602376301922314"><ele>1210.25</ele><time>2026-04-11T09:43:53Z</time></trkpt><trkpt lat="46.59452437910887" lon="9.602527789603615"><ele>1210.5</ele><time>2026-04-11T09:43:54Z</time></trkpt><trkpt lat="46.594444613804725" lon="9.60268151155691"><ele>1210.75</ele><time>2026-04-11T09:43:55Z</time></trkpt><trkpt lat="46.59436517897069" lon="9.602847237546134"><ele>1211.0</ele><time>2026-04-11T09:43:56Z</time></trkpt><trkpt lat="46.594283938195325" lon="9.603022263737532"><ele>1210.0</ele><time>2026-04-11T09:43:57Z</time></trkpt><trkpt lat="46.59420630819782" lon="9.603200817656928"><ele>1209.0</ele><time>2026-04-11T09:43:58Z</time></trkpt><trkpt lat="46.59412692706376" lon="9.603387507217702"><ele>1208.0</ele><time>2026-04-11T09:43:59Z</time></trkpt><trkpt lat="46.59403931860693" lon="9.60358405844985"><ele>1208.3333333333335</ele><time>2026-04-11T09:44:00Z</time></trkpt><trkpt lat="46.59394863285616" lon="9.603791767934213"><ele>1208.6666666666667</ele><time>2026-04-11T09:44:01Z</time></trkpt><trkpt lat="46.59385405894738" lon="9.604006838804084"><ele>1209.0</ele><time>2026-04-11T09:44:02Z</time></trkpt><trkpt lat="46.59375715799535" lon="9.604218681983204"><ele>1208.6666666666667</ele><time>2026-04-11T09:44:03Z</time></trkpt><trkpt lat="46.59365659762975" lon="9.604438448312083"><ele>1208.3333333333335</ele><time>2026-04-11T09:44:04Z</time></trkpt><trkpt lat="46.593551477851655" lon="9.60467001913835"><ele>1208.0</ele><time>2026-04-11T09:44:05Z</time></trkpt><trkpt lat="46.593440326597985" lon="9.604910992689724"><ele>1208.0</ele><time>2026-04-11T09:44:06Z</time></trkpt><trkpt lat="46.593327355028165" lon="9.605159011481039"><ele>1208.0</ele><time>2026-04-11T09:44:07Z</time></trkpt><trkpt lat="46.5932152661804" lon="9.605411395018708"><ele>1208.0</ele><time>2026-04-11T09:44:08Z</time></trkpt><trkpt lat="46.59310107190591" lon="9.605655433701918"><ele>1209.0</ele><time>2026-04-11T09:44:09Z</time></trkpt><trkpt lat="46.592989881213725" lon="9.605898059787068"><ele>1210.0</ele><time>2026-04-11T09:44:10Z</time></trkpt><trkpt lat="46.592880401401125" lon="9.606134949637186"><ele>1211.0</ele><time>2026-04-11T09:44:11Z</time></trkpt><trkpt lat="46.592769919657826" lon="9.606367955021511"><ele>1214.0</ele><time>2026-04-11T09:44:12Z</time></trkpt><trkpt lat="46.592650635432214" lon="9.60659597685279"><ele>1217.0</ele><time>2026-04-11T09:44:13Z</time></trkpt><trkpt lat="46.592518682085625" lon="9.606815072536511"><ele>1220.0</ele><time>2026-04-11T09:44:14Z</time></trkpt><trkpt lat="46.592375886672656" lon="9.607022881767863"><ele>1220.0</ele><time>2026-04-11T09:44:15Z</time></trkpt><trkpt lat="46.592225607435836" lon="9.60721919927813"><ele>1220.0</ele><time>2026-04-11T09:44:16Z</time></trkpt><trkpt lat="46.592065651932664" lon="9.607399866348302"><ele>1220.0</ele><time>2026-04-11T09:44:17Z</time></trkpt><trkpt lat="46.59190795835211" lon="9.607585985417069"><ele>1220.0</ele><time>2026-04-11T09:44:18Z</time></trkpt><trkpt lat="46.591745290555195" lon="9.60777518755139"><ele>1220.0</ele><time>2026-04-11T09:44:19Z</time></trkpt><trkpt lat="46.59158445549194" lon="9.607976419427214"><ele>1220.0</ele><time>2026-04-11T09:44:20Z</time></trkpt><trkpt lat="46.591426209687555" lon="9.608184087027277"><ele>1218.6666666666667</ele><time>2026-04-11T09:44:21Z</time></trkpt><trkpt lat="46.59127891737376" lon="9.608396472522582"><ele>1217.3333333333333</ele><time>2026-04-11T09:44:22Z</time></trkpt><trkpt lat="46.591126557532355" lon="9.608611116317755"><ele>1216.0</ele><time>2026-04-11T09:44:23Z</time></trkpt><trkpt lat="46.59096788520781" lon="9.608820492670521"><ele>1218.6666666666665</ele><time>2026-04-11T09:44:24Z</time></trkpt><trkpt lat="46.59079327977756" lon="9.609013686185076"><ele>1221.3333333333333</ele><time>2026-04-11T09:44:25Z</time></trkpt><trkpt lat="46.59060351155013" lon="9.609184350863277"><ele>1224.0</ele><time>2026-04-11T09:44:26Z</time></trkpt><trkpt lat="46.590397277869805" lon="9.609334775225047"><ele>1227.0</ele><time>2026-04-11T09:44:27Z</time></trkpt><trkpt lat="46.59018339849635" lon="9.609463483157027"><ele>1230.0</ele><time>2026-04-11T09:44:28Z</time></trkpt><trkpt lat="46.58996565095711" lon="9.609577509614331"><ele>1230.0</ele><time>2026-04-11T09:44:29Z</time></trkpt><trkpt lat="46.58974628238588" lon="9.60969076180869"><ele>1230.0</ele><time>2026-04-11T09:44:30Z</time></trkpt><trkpt lat="46.58952803575089" lon="9.609808447058573"><ele>1225.5</ele><time>2026-04-11T09:44:31Z</time></trkpt><trkpt lat="46.58931112604195" lon="9.609932619431484"><ele>1221.0</ele><time>2026-04-11T09:44:32Z</time></trkpt><trkpt lat="46.5890987241532" lon="9.610051866852274"><ele>1221.0</ele><time>2026-04-11T09:44:33Z</time></trkpt><trkpt lat="46.58889071781414" lon="9.61018519217893"><ele>1221.0</ele><time>2026-04-11T09:44:34Z</time></trkpt><trkpt lat="46.588687837989305" lon="9.610347740904198"><ele>1223.0</ele><time>2026-04-11T09:44:35Z</time></trkpt><trkpt lat="46.588492594443444" lon="9.61052808975655"><ele>1225.0</ele><time>2026-04-11T09:44:36Z</time></trkpt><trkpt lat="46.58830517768388" lon="9.610705940472142"><ele>1225.0</ele><time>2026-04-11T09:44:37Z</time></trkpt><trkpt lat="46.58812077769226" lon="9.610870713059787"><ele>1225.0</ele><time>2026-04-11T09:44:38Z</time></trkpt><trkpt lat="46.58792499233524" lon="9.611042919527444"><ele>1225.0</ele><time>2026-04-11T09:44:39Z</time></trkpt><trkpt lat="46.58773051619166" lon="9.61121854429302"><ele>1223.0</ele><time>2026-04-11T09:44:40Z</time></trkpt><trkpt lat="46.58753815054466" lon="9.61139577440287"><ele>1221.0</ele><time>2026-04-11T09:44:41Z</time></trkpt><trkpt lat="46.58734370069263" lon="9.611571005603203"><ele>1221.0</ele><time>2026-04-11T09:44:42Z</time></trkpt><trkpt lat="46.587148802634566" lon="9.611738909830663"><ele>1221.0</ele><time>2026-04-11T09:44:43Z</time></trkpt><trkpt lat="46.58695281313927" lon="9.611910808826083"><ele>1221.6666666666667</ele><time>2026-04-11T09:44:44Z</time></trkpt><trkpt lat="46.58676288810894" lon="9.612084243572461"><ele>1222.3333333333335</ele><time>2026-04-11T09:44:45Z</time></trkpt><trkpt lat="46.58657850987884" lon="9.612252174215524"><ele>1223.0</ele><time>2026-04-11T09:44:46Z</time></trkpt><trkpt lat="46.58640424207336" lon="9.612408290827732"><ele>1223.0</ele><time>2026-04-11T09:44:47Z</time></trkpt><trkpt lat="46.586238262948676" lon="9.61255787229002"><ele>1223.0</ele><time>2026-04-11T09:44:48Z</time></trkpt><trkpt lat="46.58609017038793" lon="9.612691441314883"><ele>1223.0</ele><time>2026-04-11T09:44:49Z</time></trkpt><trkpt lat="46.58596491173398" lon="9.612805957369057"><ele>1224.75</ele><time>2026-04-11T09:44:50Z</time></trkpt><trkpt lat="46.58585843640758" lon="9.612907116525752"><ele>1226.5</ele><time>2026-04-11T09:44:51Z</time></trkpt><trkpt lat="46.5857608207296" lon="9.613013220547064"><ele>1228.25</ele><time>2026-04-11T09:44:52Z</time></trkpt><trkpt lat="46.585676397363535" lon="9.613123632220416"><ele>1230.0</ele><time>2026-04-11T09:44:53Z</time></trkpt><trkpt lat="46.58559964375686" lon="9.613240042199774"><ele>1230.0</ele><time>2026-04-11T09:44:54Z</time></trkpt><trkpt lat="46.5855226696448" lon="9.613354505196781"><ele>1230.0</ele><time>2026-04-11T09:44:55Z</time></trkpt><trkpt lat="46.58544433100147" lon="9.613466522082295"><ele>1230.0</ele><time>2026-04-11T09:44:56Z</time></trkpt><trkpt lat="46.58536440221869" lon="9.613585139135218"><ele>1230.0</ele><time>2026-04-11T09:44:57Z</time></trkpt><trkpt lat="46.58528072721618" lon="9.613702530411562"><ele>1229.25</ele><time>2026-04-11T09:44:58Z</time></trkpt><trkpt lat="46.58519812018004" lon="9.6138241745369"><ele>1228.5</ele><time>2026-04-11T09:44:59Z</time></trkpt><trkpt lat="46.585114633644665" lon="9.613944589951018"><ele>1227.75</ele><time>2026-04-11T09:45:00Z</time></trkpt><trkpt lat="46.58502254780341" lon="9.614064309897747"><ele>1227.0</ele><time>2026-04-11T09:45:01Z</time></trkpt><trkpt lat="46.58493239438438" lon="9.614180743250468"><ele>1227.0</ele><time>2026-04-11T09:45:02Z</time></trkpt><trkpt lat="46.58483852946834" lon="9.614308686358275"><ele>1227.0</ele><time>2026-04-11T09:45:03Z</time></trkpt><trkpt lat="46.58474962106619" lon="9.61443738449493"><ele>1227.0</ele><time>2026-04-11T09:45:04Z</time></trkpt><trkpt lat="46.58465694105518" lon="9.614566040887249"><ele>1227.0</ele><time>2026-04-11T09:45:05Z</time></trkpt><trkpt lat="46.584566220299095" lon="9.614702307553056"><ele>1225.75</ele><time>2026-04-11T09:45:06Z</time></trkpt><trkpt lat="46.5844788782071" lon="9.614831702912042"><ele>1224.5</ele><time>2026-04-11T09:45:07Z</time></trkpt><trkpt lat="46.584391297381764" lon="9.614950733479454"><ele>1223.25</ele><time>2026-04-11T09:45:08Z</time></trkpt><trkpt lat="46.58430033520663" lon="9.615068303064179"><ele>1222.0</ele><time>2026-04-11T09:45:09Z</time></trkpt><trkpt lat="46.584228802123576" lon="9.615183048203171"><ele>1222.0</ele><time>2026-04-11T09:45:10Z</time></trkpt><trkpt lat="46.58415760587434" lon="9.615288341819813"><ele>1222.0</ele><time>2026-04-11T09:45:11Z</time></trkpt><trkpt lat="46.584085627035044" lon="9.615383757740716"><ele>1222.0</ele><time>2026-04-11T09:45:12Z</time></trkpt><trkpt lat="46.58402226684456" lon="9.61549085241743"><ele>1222.0</ele><time>2026-04-11T09:45:13Z</time></trkpt><trkpt lat="46.58395934403798" lon="9.61558758524508"><ele>1222.0</ele><time>2026-04-11T09:45:14Z</time></trkpt><trkpt lat="46.583880378081304" lon="9.615637614702603"><ele>1222.4</ele><time>2026-04-11T09:45:15Z</time></trkpt><trkpt lat="46.58380143000209" lon="9.615705036573413"><ele>1222.8000000000002</ele><time>2026-04-11T09:45:16Z</time></trkpt><trkpt lat="46.58371622709588" lon="9.61578378018828"><ele>1223.2</ele><time>2026-04-11T09:45:17Z</time></trkpt><trkpt lat="46.58363384758884" lon="9.615899736359054"><ele>1223.6000000000001</ele><time>2026-04-11T09:45:18Z</time></trkpt><trkpt lat="46.583562732030614" lon="9.616029321690052"><ele>1224.0</ele><time>2026-04-11T09:45:19Z</time></trkpt><trkpt lat="46.583497940427534" lon="9.616155641197887"><ele>1226.4</ele><time>2026-04-11T09:45:20Z</time></trkpt><trkpt lat="46.58342687943096" lon="9.616270360889727"><ele>1228.8000000000002</ele><time>2026-04-11T09:45:21Z</time></trkpt><trkpt lat="46.58336588038338" lon="9.616397366306218"><ele>1231.1999999999998</ele><time>2026-04-11T09:45:22Z</time></trkpt><trkpt lat="46.58330782582577" lon="9.616538506751612"><ele>1233.6</ele><time>2026-04-11T09:45:23Z</time></trkpt><trkpt lat="46.58324193765912" lon="9.61662178137559"><ele>1236.0</ele><time>2026-04-11T09:45:24Z</time></trkpt><trkpt lat="46.583175811966946" lon="9.616671843903813"><ele>1236.0</ele><time>2026-04-11T09:45:25Z</time></trkpt><trkpt lat="46.58312105491672" lon="9.616732021261308"><ele>1236.0</ele><time>2026-04-11T09:45:26Z</time></trkpt><trkpt lat="46.583064805473" lon="9.616849064455389"><ele>1236.0</ele><time>2026-04-11T09:45:27Z</time></trkpt><trkpt lat="46.58301580015435" lon="9.616993964014156"><ele>1236.0</ele><time>2026-04-11T09:45:28Z</time></trkpt><trkpt lat="46.582957981064474" lon="9.617151147558465"><ele>1236.0</ele><time>2026-04-11T09:45:29Z</time></trkpt><trkpt lat="46.5828851988016" lon="9.617297221244135"><ele>1237.25</ele><time>2026-04-11T09:45:30Z</time></trkpt><trkpt lat="46.582801480321905" lon="9.61742918330945"><ele>1238.5</ele><time>2026-04-11T09:45:31Z</time></trkpt><trkpt lat="46.58271607406082" lon="9.61755660022158"><ele>1239.75</ele><time>2026-04-11T09:45:32Z</time></trkpt><trkpt lat="46.58264057026089" lon="9.61769693701852"><ele>1241.0</ele><time>2026-04-11T09:45:33Z</time></trkpt><trkpt lat="46.58256695285205" lon="9.617833996132777"><ele>1242.25</ele><time>2026-04-11T09:45:34Z</time></trkpt><trkpt lat="46.58248430484641" lon="9.617960328087003"><ele>1243.5</ele><time>2026-04-11T09:45:35Z</time></trkpt><trkpt lat="46.58241071703891" lon="9.618092327986565"><ele>1244.75</ele><time>2026-04-11T09:45:36Z</time></trkpt><trkpt lat="46.58233052603873" lon="9.618220827172808"><ele>1246.0</ele><time>2026-04-11T09:45:37Z</time></trkpt><trkpt lat="46.582245394048016" lon="9.618343954188168"><ele>1246.0</ele><time>2026-04-11T09:45:38Z</time></trkpt><trkpt lat="46.58215004762132" lon="9.618453296856462"><ele>1246.0</ele><time>2026-04-11T09:45:39Z</time></trkpt><trkpt lat="46.58205105325278" lon="9.618562037868502"><ele>1246.0</ele><time>2026-04-11T09:45:40Z</time></trkpt><trkpt lat="46.58194809408345" lon="9.61865978652091"><ele>1246.0</ele><time>2026-04-11T09:45:41Z</time></trkpt><trkpt lat="46.58184100717716" lon="9.618754630087892"><ele>1246.5</ele><time>2026-04-11T09:45:42Z</time></trkpt><trkpt lat="46.58172710894822" lon="9.618844348602128"><ele>1247.0</ele><time>2026-04-11T09:45:43Z</time></trkpt><trkpt lat="46.58161515207509" lon="9.61893903963981"><ele>1247.5</ele><time>2026-04-11T09:45:44Z</time></trkpt><trkpt lat="46.58150466060198" lon="9.619043101339411"><ele>1248.0</ele><time>2026-04-11T09:45:45Z</time></trkpt><trkpt lat="46.581396198392824" lon="9.619146173628081"><ele>1248.0</ele><time>2026-04-11T09:45:46Z</time></trkpt><trkpt lat="46.58129011821386" lon="9.619251962017172"><ele>1248.0</ele><time>2026-04-11T09:45:47Z</time></trkpt><trkpt lat="46.581184406198446" lon="9.619354783132007"><ele>1248.0</ele><time>2026-04-11T09:45:48Z</time></trkpt><trkpt lat="46.58107161896953" lon="9.619449105439891"><ele>1248.0</ele><time>2026-04-11T09:45:49Z</time></trkpt><trkpt lat="46.58095349618795" lon="9.61953826441614"><ele>1249.25</ele><time>2026-04-11T09:45:50Z</time></trkpt><trkpt lat="46.58084307387109" lon="9.61963615187296"><ele>1250.5</ele><time>2026-04-11T09:45:51Z</time></trkpt><trkpt lat="46.58073108856502" lon="9.61973282895363"><ele>1251.75</ele><time>2026-04-11T09:45:52Z</time></trkpt><trkpt lat="46.580616550077885" lon="9.61983007770456"><ele>1253.0</ele><time>2026-04-11T09:45:53Z</time></trkpt><trkpt lat="46.580502635895535" lon="9.619929369355212"><ele>1253.0</ele><time>2026-04-11T09:45:54Z</time></trkpt><trkpt lat="46.58038861756485" lon="9.620030213001446"><ele>1253.0</ele><time>2026-04-11T09:45:55Z</time></trkpt><trkpt lat="46.58027747878706" lon="9.620140190419836"><ele>1253.0</ele><time>2026-04-11T09:45:56Z</time></trkpt><trkpt lat="46.58017259675619" lon="9.620271855029563"><ele>1253.0</ele><time>2026-04-11T09:45:57Z</time></trkpt><trkpt lat="46.58006842079772" lon="9.620414002771675"><ele>1254.0</ele><time>2026-04-11T09:45:58Z</time></trkpt><trkpt lat="46.57996480556579" lon="9.620569422890073"><ele>1255.0</ele><time>2026-04-11T09:45:59Z</time></trkpt><trkpt lat="46.579858275354404" lon="9.620724264873038"><ele>1256.0</ele><time>2026-04-11T09:46:00Z</time></trkpt><trkpt lat="46.57974961201112" lon="9.620876969453096"><ele>1256.0</ele><time>2026-04-11T09:46:01Z</time></trkpt><trkpt lat="46.57964347973683" lon="9.621037406578676"><ele>1256.0</ele><time>2026-04-11T09:46:02Z</time></trkpt><trkpt lat="46.57954162185874" lon="9.621205017792592"><ele>1256.0</ele><time>2026-04-11T09:46:03Z</time></trkpt><trkpt lat="46.57943839057641" lon="9.621376079200209"><ele>1254.0</ele><time>2026-04-11T09:46:04Z</time></trkpt><trkpt lat="46.57932729639301" lon="9.621562514107902"><ele>1252.0</ele><time>2026-04-11T09:46:05Z</time></trkpt><trkpt lat="46.57920687294585" lon="9.621760423544762"><ele>1250.0</ele><time>2026-04-11T09:46:06Z</time></trkpt><trkpt lat="46.579080656602294" lon="9.621965486068463"><ele>1254.3333333333335</ele><time>2026-04-11T09:46:07Z</time></trkpt><trkpt lat="46.578953101525" lon="9.622172787300357"><ele>1258.6666666666667</ele><time>2026-04-11T09:46:08Z</time></trkpt><trkpt lat="46.578826838591766" lon="9.622379342365692"><ele>1263.0</ele><time>2026-04-11T09:46:09Z</time></trkpt><trkpt lat="46.57868874981686" lon="9.622592086274715"><ele>1261.6666666666667</ele><time>2026-04-11T09:46:10Z</time></trkpt><trkpt lat="46.57854097039787" lon="9.622796957237837"><ele>1260.3333333333335</ele><time>2026-04-11T09:46:11Z</time></trkpt><trkpt lat="46.57838308167131" lon="9.62300296056889"><ele>1259.0</ele><time>2026-04-11T09:46:12Z</time></trkpt><trkpt lat="46.57821863026357" lon="9.623201641859064"><ele>1259.0</ele><time>2026-04-11T09:46:13Z</time></trkpt><trkpt lat="46.57804469016142" lon="9.623403981023907"><ele>1259.0</ele><time>2026-04-11T09:46:14Z</time></trkpt><trkpt lat="46.57786433738427" lon="9.623599123742478"><ele>1259.0</ele><time>2026-04-11T09:46:15Z</time></trkpt><trkpt lat="46.577682742699004" lon="9.623790735965317"><ele>1259.0</ele><time>2026-04-11T09:46:16Z</time></trkpt><trkpt lat="46.57751086519336" lon="9.623973164758382"><ele>1259.0</ele><time>2026-04-11T09:46:17Z</time></trkpt><trkpt lat="46.57734260577476" lon="9.624152592545038"><ele>1259.0</ele><time>2026-04-11T09:46:18Z</time></trkpt><trkpt lat="46.57719221902162" lon="9.624316875285157"><ele>1258.3333333333335</ele><time>2026-04-11T09:46:19Z</time></trkpt><trkpt lat="46.57706473239346" lon="9.624491100049063"><ele>1257.6666666666667</ele><time>2026-04-11T09:46:20Z</time></trkpt><trkpt lat="46.576983867846174" lon="9.62470148312978"><ele>1257.0</ele><time>2026-04-11T09:46:21Z</time></trkpt><trkpt lat="46.576923120765784" lon="9.624911614721473"><ele>1257.0</ele><time>2026-04-11T09:46:22Z</time></trkpt><trkpt lat="46.57687600086113" lon="9.625126304456305"><ele>1257.0</ele><time>2026-04-11T09:46:23Z</time></trkpt><trkpt lat="46.57682810327182" lon="9.625282724481337"><ele>1257.0</ele><time>2026-04-11T09:46:24Z</time></trkpt><trkpt lat="46.576764650362335" lon="9.625402991413475"><ele>1257.0</ele><time>2026-04-11T09:46:25Z</time></trkpt><trkpt lat="46.57666149338538" lon="9.625476814614725"><ele>1257.0</ele><time>2026-04-11T09:46:26Z</time></trkpt><trkpt lat="46.57654230604337" lon="9.625490122534572"><ele>1257.0</ele><time>2026-04-11T09:46:27Z</time></trkpt><trkpt lat="46.57643147583891" lon="9.625404544821963"><ele>1257.0</ele><time>2026-04-11T09:46:28Z</time></trkpt><trkpt lat="46.576356976803716" lon="9.625263494207891"><ele>1257.0</ele><time>2026-04-11T09:46:29Z</time></trkpt><trkpt lat="46.57632429267927" lon="9.625062263917918"><ele>1257.0</ele><time>2026-04-11T09:46:30Z</time></trkpt><trkpt lat="46.576282055202505" lon="9.62485184612085"><ele>1257.0</ele><time>2026-04-11T09:46:31Z</time></trkpt><trkpt lat="46.576238502347756" lon="9.624646930639214"><ele>1257.0</ele><time>2026-04-11T09:46:32Z</time></trkpt><trkpt lat="46.576159569821854" lon="9.624456458555331"><ele>1263.0</ele><time>2026-04-11T09:46:33Z</time></trkpt><trkpt lat="46.57604598279348" lon="9.624276565934363"><ele>1269.0</ele><time>2026-04-11T09:46:34Z</time></trkpt><trkpt lat="46.57591280899971" lon="9.62410462037233"><ele>1275.0</ele><time>2026-04-11T09:46:35Z</time></trkpt><trkpt lat="46.57578249256507" lon="9.62393668134907"><ele>1275.0</ele><time>2026-04-11T09:46:36Z</time></trkpt><trkpt lat="46.57565223348241" lon="9.623769462543903"><ele>1275.0</ele><time>2026-04-11T09:46:37Z</time></trkpt><trkpt lat="46.57552054698547" lon="9.623595252880731"><ele>1275.0</ele><time>2026-04-11T09:46:38Z</time></trkpt><trkpt lat="46.57538416080913" lon="9.623418926169817"><ele>1278.3333333333333</ele><time>2026-04-11T09:46:39Z</time></trkpt><trkpt lat="46.57524521027981" lon="9.623240186844502"><ele>1281.6666666666665</ele><time>2026-04-11T09:46:40Z</time></trkpt><trkpt lat="46.57510631990422" lon="9.623058687735893"><ele>1285.0</ele><time>2026-04-11T09:46:40.999Z</time></trkpt><trkpt lat="46.574982347587" lon="9.622885672761786"><ele>1280.0</ele><time>2026-04-11T09:46:41.999Z</time></trkpt><trkpt lat="46.57487579136044" lon="9.622732352936941"><ele>1275.0</ele><time>2026-04-11T09:46:42.999Z</time></trkpt><trkpt lat="46.57478132143075" lon="9.622617367639657"><ele>1270.0</ele><time>2026-04-11T09:46:43.999Z</time></trkpt><trkpt lat="46.57469157734814" lon="9.62256156241654"><ele>1265.0</ele><time>2026-04-11T09:46:44.999Z</time></trkpt><trkpt lat="46.57460532687363" lon="9.62256971264674"><ele>1265.0</ele><time>2026-04-11T09:46:45.999Z</time></trkpt><trkpt lat="46.57452172887986" lon="9.622659836892629"><ele>1265.0</ele><time>2026-04-11T09:46:46.999Z</time></trkpt><trkpt lat="46.57443620341981" lon="9.622807048672398"><ele>1265.0</ele><time>2026-04-11T09:46:47.999Z</time></trkpt><trkpt lat="46.57434862102615" lon="9.622941105752837"><ele>1265.0</ele><time>2026-04-11T09:46:48.999Z</time></trkpt><trkpt lat="46.57422447269881" lon="9.623011370360384"><ele>1276.3333333333335</ele><time>2026-04-11T09:46:49.999Z</time></trkpt><trkpt lat="46.5740770217275" lon="9.623036445560913"><ele>1287.6666666666667</ele><time>2026-04-11T09:46:50.999Z</time></trkpt><trkpt lat="46.573914226093464" lon="9.622995217549878"><ele>1299.0</ele><time>2026-04-11T09:46:51.999Z</time></trkpt><trkpt lat="46.57375552532155" lon="9.622896857720999"><ele>1293.0</ele><time>2026-04-11T09:46:52.999Z</time></trkpt><trkpt lat="46.5735960575292" lon="9.622791528314231"><ele>1287.0</ele><time>2026-04-11T09:46:53.999Z</time></trkpt><trkpt lat="46.573430263204216" lon="9.622718519066646"><ele>1281.0</ele><time>2026-04-11T09:46:54.999Z</time></trkpt><trkpt lat="46.5732746381381" lon="9.622681541919903"><ele>1281.0</ele><time>2026-04-11T09:46:55.999Z</time></trkpt><trkpt lat="46.57313676275315" lon="9.622659915397524"><ele>1281.0</ele><time>2026-04-11T09:46:56.999Z</time></trkpt><trkpt lat="46.57300929005693" lon="9.622705606580576"><ele>1281.0</ele><time>2026-04-11T09:46:57.999Z</time></trkpt><trkpt lat="46.57289208468356" lon="9.62282062845206"><ele>1281.0</ele><time>2026-04-11T09:46:58.999Z</time></trkpt><trkpt lat="46.57278021942958" lon="9.622996513298682"><ele>1291.6666666666667</ele><time>2026-04-11T09:46:59.999Z</time></trkpt><trkpt lat="46.57268433498487" lon="9.623197208681399"><ele>1302.3333333333335</ele><time>2026-04-11T09:47:00.999Z</time></trkpt><trkpt lat="46.572548918417276" lon="9.62336430496328"><ele>1313.0</ele><time>2026-04-11T09:47:01.999Z</time></trkpt><trkpt lat="46.57236599020869" lon="9.623435856092122"><ele>1313.0</ele><time>2026-04-11T09:47:02.999Z</time></trkpt><trkpt lat="46.57218332390584" lon="9.623519531395138"><ele>1313.0</ele><time>2026-04-11T09:47:03.999Z</time></trkpt><trkpt lat="46.571996966967994" lon="9.623585265177812"><ele>1313.0</ele><time>2026-04-11T09:47:04.999Z</time></trkpt><trkpt lat="46.57181203546972" lon="9.623667251597153"><ele>1323.3333333333335</ele><time>2026-04-11T09:47:05.999Z</time></trkpt><trkpt lat="46.57163312920798" lon="9.623766626542997"><ele>1333.6666666666667</ele><time>2026-04-11T09:47:06.999Z</time></trkpt><trkpt lat="46.571451836886254" lon="9.623842752017708"><ele>1344.0</ele><time>2026-04-11T09:47:07.999Z</time></trkpt><trkpt lat="46.57125725629365" lon="9.623865493220233"><ele>1346.3333333333333</ele><time>2026-04-11T09:47:08.999Z</time></trkpt><trkpt lat="46.571056893704146" lon="9.623832503360212"><ele>1348.6666666666665</ele><time>2026-04-11T09:47:09.999Z</time></trkpt><trkpt lat="46.57086150325184" lon="9.6237450783177"><ele>1351.0</ele><time>2026-04-11T09:47:10.999Z</time></trkpt><trkpt lat="46.57067937624697" lon="9.623622073483181"><ele>1352.6666666666665</ele><time>2026-04-11T09:47:11.999Z</time></trkpt><trkpt lat="46.570520950671316" lon="9.623444485796142"><ele>1354.3333333333333</ele><time>2026-04-11T09:47:12.999Z</time></trkpt><trkpt lat="46.57036360868288" lon="9.62327666333509"><ele>1356.0</ele><time>2026-04-11T09:47:13.999Z</time></trkpt><trkpt lat="46.5702291534" lon="9.623121336814796"><ele>1356.0</ele><time>2026-04-11T09:47:14.999Z</time></trkpt><trkpt lat="46.57005979755729" lon="9.62302346158084"><ele>1356.0</ele><time>2026-04-11T09:47:15.999Z</time></trkpt><trkpt lat="46.5698715527678" lon="9.622944120439628"><ele>1356.0</ele><time>2026-04-11T09:47:16.999Z</time></trkpt><trkpt lat="46.569676165621466" lon="9.62286950555746"><ele>1351.3333333333333</ele><time>2026-04-11T09:47:17.999Z</time></trkpt><trkpt lat="46.5694814254596" lon="9.622793344559646"><ele>1346.6666666666665</ele><time>2026-04-11T09:47:18.999Z</time></trkpt><trkpt lat="46.569283427489324" lon="9.622715809927405"><ele>1342.0</ele><time>2026-04-11T09:47:19.999Z</time></trkpt><trkpt lat="46.56909496851081" lon="9.622640446391163"><ele>1342.0</ele><time>2026-04-11T09:47:20.999Z</time></trkpt><trkpt lat="46.56890601660662" lon="9.622597311874465"><ele>1342.0</ele><time>2026-04-11T09:47:21.999Z</time></trkpt><trkpt lat="46.5687077205586" lon="9.622611279911522"><ele>1342.0</ele><time>2026-04-11T09:47:22.999Z</time></trkpt><trkpt lat="46.56851091374434" lon="9.622655931063552"><ele>1345.3333333333333</ele><time>2026-04-11T09:47:23.999Z</time></trkpt><trkpt lat="46.56833558471659" lon="9.622684510386284"><ele>1348.6666666666667</ele><time>2026-04-11T09:47:24.999Z</time></trkpt><trkpt lat="46.568177519834784" lon="9.622593542950566"><ele>1352.0</ele><time>2026-04-11T09:47:25.999Z</time></trkpt><trkpt lat="46.568014211183375" lon="9.622471084952688"><ele>1352.0</ele><time>2026-04-11T09:47:26.999Z</time></trkpt><trkpt lat="46.56787350467487" lon="9.622283862640991"><ele>1352.0</ele><time>2026-04-11T09:47:27.999Z</time></trkpt><trkpt lat="46.567728974699065" lon="9.622091018901243"><ele>1352.0</ele><time>2026-04-11T09:47:28.999Z</time></trkpt><trkpt lat="46.56759617707283" lon="9.621880776543703"><ele>1354.0</ele><time>2026-04-11T09:47:29.999Z</time></trkpt><trkpt lat="46.56745692403905" lon="9.6217077198628"><ele>1356.0</ele><time>2026-04-11T09:47:30.999Z</time></trkpt><trkpt lat="46.56729730645499" lon="9.621604585324665"><ele>1358.0</ele><time>2026-04-11T09:47:31.999Z</time></trkpt><trkpt lat="46.56712006966952" lon="9.62156720120624"><ele>1363.0</ele><time>2026-04-11T09:47:32.999Z</time></trkpt><trkpt lat="46.56693198008802" lon="9.621582326008495"><ele>1368.0</ele><time>2026-04-11T09:47:33.999Z</time></trkpt><trkpt lat="46.566744649500336" lon="9.621635035318072"><ele>1373.0</ele><time>2026-04-11T09:47:34.999Z</time></trkpt><trkpt lat="46.56654756342387" lon="9.62170913069923"><ele>1373.0</ele><time>2026-04-11T09:47:35.999Z</time></trkpt><trkpt lat="46.56634854822154" lon="9.6217748083999"><ele>1373.0</ele><time>2026-04-11T09:47:36.999Z</time></trkpt><trkpt lat="46.56614893932047" lon="9.621833700958787"><ele>1373.0</ele><time>2026-04-11T09:47:37.999Z</time></trkpt><trkpt lat="46.56594975987138" lon="9.621897917782372"><ele>1375.6666666666667</ele><time>2026-04-11T09:47:38.999Z</time></trkpt><trkpt lat="46.5657597717072" lon="9.621961451213814"><ele>1378.3333333333333</ele><time>2026-04-11T09:47:39.999Z</time></trkpt><trkpt lat="46.56558865627607" lon="9.622013360427804"><ele>1381.0</ele><time>2026-04-11T09:47:40.999Z</time></trkpt><trkpt lat="46.56540005051981" lon="9.622037730304195"><ele>1382.3333333333333</ele><time>2026-04-11T09:47:41.999Z</time></trkpt><trkpt lat="46.56520465920193" lon="9.622027501364585"><ele>1383.6666666666667</ele><time>2026-04-11T09:47:42.999Z</time></trkpt><trkpt lat="46.565010196388045" lon="9.6219522260582"><ele>1385.0</ele><time>2026-04-11T09:47:43.999Z</time></trkpt><trkpt lat="46.564828002557164" lon="9.621835952304536"><ele>1385.0</ele><time>2026-04-11T09:47:44.999Z</time></trkpt><trkpt lat="46.56465043196141" lon="9.621703612884682"><ele>1385.0</ele><time>2026-04-11T09:47:45.999Z</time></trkpt><trkpt lat="46.56447611917712" lon="9.621566311520363"><ele>1385.0</ele><time>2026-04-11T09:47:46.999Z</time></trkpt><trkpt lat="46.564308586829654" lon="9.62143942556706"><ele>1392.0</ele><time>2026-04-11T09:47:47.999Z</time></trkpt><trkpt lat="46.564148436677314" lon="9.621342002416702"><ele>1399.0</ele><time>2026-04-11T09:47:48.999Z</time></trkpt><trkpt lat="46.56396607408037" lon="9.621287169192367"><ele>1406.0</ele><time>2026-04-11T09:47:49.999Z</time></trkpt><trkpt lat="46.56378268556979" lon="9.621282384696501"><ele>1404.3333333333335</ele><time>2026-04-11T09:47:50.999Z</time></trkpt><trkpt lat="46.56360481236179" lon="9.621331063757106"><ele>1402.6666666666667</ele><time>2026-04-11T09:47:51.999Z</time></trkpt><trkpt lat="46.563435563233334" lon="9.62144415970528"><ele>1401.0</ele><time>2026-04-11T09:47:52.999Z</time></trkpt><trkpt lat="46.563287826726345" lon="9.621617611021788"><ele>1401.0</ele><time>2026-04-11T09:47:53.999Z</time></trkpt><trkpt lat="46.56316449261475" lon="9.621808104494296"><ele>1401.0</ele><time>2026-04-11T09:47:54.999Z</time></trkpt><trkpt lat="46.56305798540182" lon="9.6219881201619"><ele>1401.0</ele><time>2026-04-11T09:47:55.999Z</time></trkpt><trkpt lat="46.56295763834245" lon="9.622149402452326"><ele>1403.5</ele><time>2026-04-11T09:47:56.999Z</time></trkpt><trkpt lat="46.56286875329708" lon="9.622299180037967"><ele>1406.0</ele><time>2026-04-11T09:47:57.999Z</time></trkpt><trkpt lat="46.562802879095635" lon="9.622444109928777"><ele>1408.5</ele><time>2026-04-11T09:47:58.999Z</time></trkpt><trkpt lat="46.562776675046656" lon="9.622595947830547"><ele>1411.0</ele><time>2026-04-11T09:48:00Z</time></trkpt><trkpt lat="46.56279128200706" lon="9.622746979859846"><ele>1410.75</ele><time>2026-04-11T09:48:01Z</time></trkpt><trkpt lat="46.56282438645715" lon="9.622894911778587"><ele>1410.5</ele><time>2026-04-11T09:48:02Z</time></trkpt><trkpt lat="46.56286562070846" lon="9.623050026261254"><ele>1410.25</ele><time>2026-04-11T09:48:03Z</time></trkpt><trkpt lat="46.562899456445415" lon="9.623204957257526"><ele>1410.0</ele><time>2026-04-11T09:48:04Z</time></trkpt><trkpt lat="46.562863230087416" lon="9.62338034568516"><ele>1410.0</ele><time>2026-04-11T09:48:05Z</time></trkpt><trkpt lat="46.562807940846895" lon="9.623555249663891"><ele>1410.0</ele><time>2026-04-11T09:48:06Z</time></trkpt><trkpt lat="46.562726999848934" lon="9.623717938015508"><ele>1410.0</ele><time>2026-04-11T09:48:07Z</time></trkpt><trkpt lat="46.562616840143086" lon="9.623836243906796"><ele>1410.0</ele><time>2026-04-11T09:48:08Z</time></trkpt><trkpt lat="46.56247911690008" lon="9.62389150936808"><ele>1414.3333333333333</ele><time>2026-04-11T09:48:09Z</time></trkpt><trkpt lat="46.56233100616021" lon="9.623927107366582"><ele>1418.6666666666665</ele><time>2026-04-11T09:48:10Z</time></trkpt><trkpt lat="46.562177536725166" lon="9.623969292447697"><ele>1423.0</ele><time>2026-04-11T09:48:11Z</time></trkpt><trkpt lat="46.562032007899056" lon="9.624026604725685"><ele>1421.0</ele><time>2026-04-11T09:48:12Z</time></trkpt><trkpt lat="46.561898665505865" lon="9.624109599137908"><ele>1419.0</ele><time>2026-04-11T09:48:13Z</time></trkpt><trkpt lat="46.56177680004026" lon="9.624212035748243"><ele>1417.0</ele><time>2026-04-11T09:48:14Z</time></trkpt><trkpt lat="46.561664673891364" lon="9.624315844280675"><ele>1415.0</ele><time>2026-04-11T09:48:15Z</time></trkpt><trkpt lat="46.561550207156316" lon="9.624418533861482"><ele>1414.75</ele><time>2026-04-11T09:48:16Z</time></trkpt><trkpt lat="46.561420739091055" lon="9.624497856463485"><ele>1414.5</ele><time>2026-04-11T09:48:17Z</time></trkpt><trkpt lat="46.561281877863294" lon="9.624532306101123"><ele>1414.25</ele><time>2026-04-11T09:48:18Z</time></trkpt><trkpt lat="46.5611445915245" lon="9.624548389276226"><ele>1414.0</ele><time>2026-04-11T09:48:19Z</time></trkpt><trkpt lat="46.56102880262252" lon="9.624571685925599"><ele>1414.0</ele><time>2026-04-11T09:48:20Z</time></trkpt><trkpt lat="46.560908586770516" lon="9.624568025956565"><ele>1414.0</ele><time>2026-04-11T09:48:21Z</time></trkpt><trkpt lat="46.56078281660354" lon="9.624566384311214"><ele>1414.0</ele><time>2026-04-11T09:48:22Z</time></trkpt><trkpt lat="46.56065036304645" lon="9.624567790185251"><ele>1414.0</ele><time>2026-04-11T09:48:23Z</time></trkpt><trkpt lat="46.560514124757916" lon="9.62457289675329"><ele>1414.0</ele><time>2026-04-11T09:48:24Z</time></trkpt><trkpt lat="46.56038102897732" lon="9.624583740572058"><ele>1414.0</ele><time>2026-04-11T09:48:25Z</time></trkpt><trkpt lat="46.560248641210066" lon="9.624585370108935"><ele>1414.0</ele><time>2026-04-11T09:48:26Z</time></trkpt><trkpt lat="46.56011296047461" lon="9.624589675171213"><ele>1414.0</ele><time>2026-04-11T09:48:27Z</time></trkpt><trkpt lat="46.55998223239364" lon="9.62459550225886"><ele>1413.0</ele><time>2026-04-11T09:48:28Z</time></trkpt><trkpt lat="46.55984949487507" lon="9.624601529612283"><ele>1412.0</ele><time>2026-04-11T09:48:29Z</time></trkpt><trkpt lat="46.5597183060604" lon="9.62460959100977"><ele>1411.0</ele><time>2026-04-11T09:48:30Z</time></trkpt><trkpt lat="46.55958049435116" lon="9.624619297618253"><ele>1410.0</ele><time>2026-04-11T09:48:31Z</time></trkpt><trkpt lat="46.55944101692213" lon="9.624624501190459"><ele>1409.75</ele><time>2026-04-11T09:48:32Z</time></trkpt><trkpt lat="46.55930431356967" lon="9.624629372015736"><ele>1409.5</ele><time>2026-04-11T09:48:33Z</time></trkpt><trkpt lat="46.559166564321686" lon="9.62463448731511"><ele>1409.25</ele><time>2026-04-11T09:48:34Z</time></trkpt><trkpt lat="46.559032770103784" lon="9.624641141727361"><ele>1409.0</ele><time>2026-04-11T09:48:35Z</time></trkpt><trkpt lat="46.5588961552041" lon="9.624649864692048"><ele>1409.0</ele><time>2026-04-11T09:48:36Z</time></trkpt><trkpt lat="46.55875806614035" lon="9.624654955645184"><ele>1409.0</ele><time>2026-04-11T09:48:37Z</time></trkpt><trkpt lat="46.55861974698658" lon="9.624662267889569"><ele>1409.0</ele><time>2026-04-11T09:48:38Z</time></trkpt><trkpt lat="46.55848297101725" lon="9.624664592608603"><ele>1409.0</ele><time>2026-04-11T09:48:39Z</time></trkpt><trkpt lat="46.55834684464458" lon="9.624663931654679"><ele>1409.25</ele><time>2026-04-11T09:48:40Z</time></trkpt><trkpt lat="46.558208096377086" lon="9.624667309560353"><ele>1409.5</ele><time>2026-04-11T09:48:41Z</time></trkpt><trkpt lat="46.55807367360727" lon="9.624669299443555"><ele>1409.75</ele><time>2026-04-11T09:48:42Z</time></trkpt><trkpt lat="46.55793769700321" lon="9.624682256089192"><ele>1410.0</ele><time>2026-04-11T09:48:43Z</time></trkpt><trkpt lat="46.55778509999971" lon="9.624691911734304"><ele>1410.0</ele><time>2026-04-11T09:48:44Z</time></trkpt><trkpt lat="46.55763885418466" lon="9.624701789460458"><ele>1410.0</ele><time>2026-04-11T09:48:45Z</time></trkpt><trkpt lat="46.55755092785218" lon="9.624712062625731"><ele>1410.0</ele><time>2026-04-11T09:48:46Z</time></trkpt><trkpt lat="46.55743785264027" lon="9.624721042700958"><ele>1410.0</ele><time>2026-04-11T09:48:47Z</time></trkpt><trkpt lat="46.55732498797184" lon="9.624730877210522"><ele>1410.0</ele><time>2026-04-11T09:48:48Z</time></trkpt><trkpt lat="46.557206043608225" lon="9.624730214807872"><ele>1410.0</ele><time>2026-04-11T09:48:49Z</time></trkpt><trkpt lat="46.5570782836385" lon="9.624719440907732"><ele>1410.0</ele><time>2026-04-11T09:48:50Z</time></trkpt><trkpt lat="46.55695112509438" lon="9.624697339157674"><ele>1410.0</ele><time>2026-04-11T09:48:51Z</time></trkpt><trkpt lat="46.55681841391517" lon="9.624693524536903"><ele>1409.25</ele><time>2026-04-11T09:48:52Z</time></trkpt><trkpt lat="46.556689375046496" lon="9.624728048334616"><ele>1408.5</ele><time>2026-04-11T09:48:53Z</time></trkpt><trkpt lat="46.556552340825874" lon="9.624759773764348"><ele>1407.75</ele><time>2026-04-11T09:48:54Z</time></trkpt><trkpt lat="46.55641154015551" lon="9.624778025020218"><ele>1407.0</ele><time>2026-04-11T09:48:55Z</time></trkpt><trkpt lat="46.556265562484434" lon="9.624787796063101"><ele>1407.25</ele><time>2026-04-11T09:48:56Z</time></trkpt><trkpt lat="46.55612776507871" lon="9.624794235308341"><ele>1407.5</ele><time>2026-04-11T09:48:57Z</time></trkpt><trkpt lat="46.55598756495162" lon="9.624798539723592"><ele>1407.75</ele><time>2026-04-11T09:48:58Z</time></trkpt><trkpt lat="46.555840951836466" lon="9.6248049222686"><ele>1408.0</ele><time>2026-04-11T09:48:59Z</time></trkpt><trkpt lat="46.55569156304267" lon="9.624810806594155"><ele>1408.0</ele><time>2026-04-11T09:49:00Z</time></trkpt><trkpt lat="46.55553834155521" lon="9.624820165146206"><ele>1408.0</ele><time>2026-04-11T09:49:01Z</time></trkpt><trkpt lat="46.55537803768849" lon="9.624828459171612"><ele>1408.0</ele><time>2026-04-11T09:49:02Z</time></trkpt><trkpt lat="46.5552129816524" lon="9.624833652914273"><ele>1408.3333333333333</ele><time>2026-04-11T09:49:03Z</time></trkpt><trkpt lat="46.55504657413282" lon="9.624842530127708"><ele>1408.6666666666667</ele><time>2026-04-11T09:49:04Z</time></trkpt><trkpt lat="46.554870999505724" lon="9.624851370080203"><ele>1409.0</ele><time>2026-04-11T09:49:05Z</time></trkpt><trkpt lat="46.55468992250725" lon="9.62485584851149"><ele>1409.3333333333335</ele><time>2026-04-11T09:49:06Z</time></trkpt><trkpt lat="46.55450276341123" lon="9.624859654788963"><ele>1409.6666666666667</ele><time>2026-04-11T09:49:07Z</time></trkpt><trkpt lat="46.55431512868806" lon="9.624867471244194"><ele>1410.0</ele><time>2026-04-11T09:49:08Z</time></trkpt><trkpt lat="46.55412360841278" lon="9.624880876478938"><ele>1410.0</ele><time>2026-04-11T09:49:09Z</time></trkpt><trkpt lat="46.55392890865958" lon="9.624893449341888"><ele>1410.0</ele><time>2026-04-11T09:49:10Z</time></trkpt><trkpt lat="46.553730725129306" lon="9.624901083803254"><ele>1410.0</ele><time>2026-04-11T09:49:11Z</time></trkpt><trkpt lat="46.55352996182448" lon="9.624906429167256"><ele>1409.3333333333333</ele><time>2026-04-11T09:49:12Z</time></trkpt><trkpt lat="46.55333069701192" lon="9.624910061465492"><ele>1408.6666666666665</ele><time>2026-04-11T09:49:13Z</time></trkpt><trkpt lat="46.55313450951655" lon="9.624913190950624"><ele>1408.0</ele><time>2026-04-11T09:49:14Z</time></trkpt><trkpt lat="46.55294219724589" lon="9.62491752324251"><ele>1409.0</ele><time>2026-04-11T09:49:15Z</time></trkpt><trkpt lat="46.55274885778912" lon="9.624926157191672"><ele>1410.0</ele><time>2026-04-11T09:49:16Z</time></trkpt><trkpt lat="46.55255117289027" lon="9.624933178232414"><ele>1411.0</ele><time>2026-04-11T09:49:17Z</time></trkpt><trkpt lat="46.55235411091349" lon="9.624938140559673"><ele>1411.0</ele><time>2026-04-11T09:49:18Z</time></trkpt><trkpt lat="46.55215515070293" lon="9.624943807125609"><ele>1411.0</ele><time>2026-04-11T09:49:19Z</time></trkpt><trkpt lat="46.55195843323793" lon="9.62494786618735"><ele>1411.0</ele><time>2026-04-11T09:49:20Z</time></trkpt><trkpt lat="46.55176006871981" lon="9.624954969506712"><ele>1411.3333333333333</ele><time>2026-04-11T09:49:21Z</time></trkpt><trkpt lat="46.551561613787925" lon="9.624967135542024"><ele>1411.6666666666667</ele><time>2026-04-11T09:49:22Z</time></trkpt><trkpt lat="46.55136413843389" lon="9.624976127930818"><ele>1412.0</ele><time>2026-04-11T09:49:23Z</time></trkpt><trkpt lat="46.551165143808326" lon="9.624980083756537"><ele>1412.3333333333335</ele><time>2026-04-11T09:49:24Z</time></trkpt><trkpt lat="46.55096645008771" lon="9.624982952020343"><ele>1412.6666666666667</ele><time>2026-04-11T09:49:25Z</time></trkpt><trkpt lat="46.55076618459617" lon="9.624990119261627"><ele>1413.0</ele><time>2026-04-11T09:49:26Z</time></trkpt><trkpt lat="46.550566647133905" lon="9.624995755574918"><ele>1413.3333333333333</ele><time>2026-04-11T09:49:27Z</time></trkpt><trkpt lat="46.55036421320769" lon="9.625001944124596"><ele>1413.6666666666665</ele><time>2026-04-11T09:49:28Z</time></trkpt><trkpt lat="46.55016150011572" lon="9.625007087773096"><ele>1414.0</ele><time>2026-04-11T09:49:29Z</time></trkpt><trkpt lat="46.54995574623949" lon="9.625013096137451"><ele>1414.0</ele><time>2026-04-11T09:49:30Z</time></trkpt><trkpt lat="46.54975311153278" lon="9.625017898294603"><ele>1414.0</ele><time>2026-04-11T09:49:31Z</time></trkpt><trkpt lat="46.54955280004628" lon="9.625024189894663"><ele>1414.0</ele><time>2026-04-11T09:49:32Z</time></trkpt><trkpt lat="46.54935336464455" lon="9.625028375776978"><ele>1415.6666666666665</ele><time>2026-04-11T09:49:33Z</time></trkpt><trkpt lat="46.54915272283708" lon="9.625031712550602"><ele>1417.3333333333333</ele><time>2026-04-11T09:49:34Z</time></trkpt><trkpt lat="46.54896192334985" lon="9.62503163044611"><ele>1419.0</ele><time>2026-04-11T09:49:35Z</time></trkpt><trkpt lat="46.54876537568654" lon="9.625038740921408"><ele>1419.6666666666667</ele><time>2026-04-11T09:49:36Z</time></trkpt><trkpt lat="46.54856819585696" lon="9.625048096735945"><ele>1420.3333333333335</ele><time>2026-04-11T09:49:37Z</time></trkpt><trkpt lat="46.5483645828596" lon="9.625058436866674"><ele>1421.0</ele><time>2026-04-11T09:49:38Z</time></trkpt><trkpt lat="46.54815685718325" lon="9.625066697462563"><ele>1421.0</ele><time>2026-04-11T09:49:39Z</time></trkpt><trkpt lat="46.54794735419407" lon="9.625073865682861"><ele>1421.0</ele><time>2026-04-11T09:49:40Z</time></trkpt><trkpt lat="46.547736933406526" lon="9.625083495298982"><ele>1421.0</ele><time>2026-04-11T09:49:41Z</time></trkpt><trkpt lat="46.54752493387864" lon="9.625094620237563"><ele>1420.6666666666667</ele><time>2026-04-11T09:49:42Z</time></trkpt><trkpt lat="46.547313506787724" lon="9.625104925804504"><ele>1420.3333333333333</ele><time>2026-04-11T09:49:43Z</time></trkpt><trkpt lat="46.547105261470314" lon="9.625114961483517"><ele>1420.0</ele><time>2026-04-11T09:49:44Z</time></trkpt><trkpt lat="46.54690296136243" lon="9.625122634238684"><ele>1420.0</ele><time>2026-04-11T09:49:45Z</time></trkpt><trkpt lat="46.54670767520347" lon="9.625130499701958"><ele>1420.0</ele><time>2026-04-11T09:49:46Z</time></trkpt><trkpt lat="46.54650594653341" lon="9.62513681027929"><ele>1420.0</ele><time>2026-04-11T09:49:47Z</time></trkpt><trkpt lat="46.546304734788144" lon="9.625149659028661"><ele>1419.6666666666665</ele><time>2026-04-11T09:49:48Z</time></trkpt><trkpt lat="46.54609956986621" lon="9.62516119124106"><ele>1419.3333333333333</ele><time>2026-04-11T09:49:49Z</time></trkpt><trkpt lat="46.54589338457757" lon="9.625169650854266"><ele>1419.0</ele><time>2026-04-11T09:49:50Z</time></trkpt><trkpt lat="46.54568594336815" lon="9.625178397917978"><ele>1419.0</ele><time>2026-04-11T09:49:51Z</time></trkpt><trkpt lat="46.54547935512017" lon="9.625189718285306"><ele>1419.0</ele><time>2026-04-11T09:49:52Z</time></trkpt><trkpt lat="46.545273744892796" lon="9.625201441549287"><ele>1419.0</ele><time>2026-04-11T09:49:53Z</time></trkpt><trkpt lat="46.54506703953966" lon="9.625210191443491"><ele>1418.0</ele><time>2026-04-11T09:49:54Z</time></trkpt><trkpt lat="46.54486441464271" lon="9.625223445497273"><ele>1417.0</ele><time>2026-04-11T09:49:55Z</time></trkpt><trkpt lat="46.54465845750966" lon="9.625232906811135"><ele>1416.0</ele><time>2026-04-11T09:49:56Z</time></trkpt><trkpt lat="46.544454086300895" lon="9.625240125752665"><ele>1415.3333333333333</ele><time>2026-04-11T09:49:57Z</time></trkpt><trkpt lat="46.54424973208138" lon="9.62524857734379"><ele>1414.6666666666665</ele><time>2026-04-11T09:49:58Z</time></trkpt><trkpt lat="46.54404316439403" lon="9.62525505193779"><ele>1414.0</ele><time>2026-04-11T09:49:58.999Z</time></trkpt><trkpt lat="46.543836146141906" lon="9.625262053434962"><ele>1418.0</ele><time>2026-04-11T09:49:59.999Z</time></trkpt><trkpt lat="46.543625553767725" lon="9.625270588283554"><ele>1422.0</ele><time>2026-04-11T09:50:00.999Z</time></trkpt><trkpt lat="46.543415597460246" lon="9.625272666765879"><ele>1426.0</ele><time>2026-04-11T09:50:01.999Z</time></trkpt><trkpt lat="46.54320424845339" lon="9.62527496258142"><ele>1426.0</ele><time>2026-04-11T09:50:02.999Z</time></trkpt><trkpt lat="46.54299258237258" lon="9.625269900740543"><ele>1426.0</ele><time>2026-04-11T09:50:03.999Z</time></trkpt><trkpt lat="46.54278571924619" lon="9.625255287589807"><ele>1426.0</ele><time>2026-04-11T09:50:05Z</time></trkpt><trkpt lat="46.54257809341277" lon="9.62523593457971"><ele>1432.6666666666665</ele><time>2026-04-11T09:50:06Z</time></trkpt><trkpt lat="46.54236720246553" lon="9.625212760051726"><ele>1439.3333333333333</ele><time>2026-04-11T09:50:07Z</time></trkpt><trkpt lat="46.54215813917135" lon="9.625185723280516"><ele>1446.0</ele><time>2026-04-11T09:50:08Z</time></trkpt><trkpt lat="46.541953378309294" lon="9.625143057359395"><ele>1446.0</ele><time>2026-04-11T09:50:09Z</time></trkpt><trkpt lat="46.54175116992741" lon="9.62509851889237"><ele>1446.0</ele><time>2026-04-11T09:50:10Z</time></trkpt><trkpt lat="46.54155119208866" lon="9.625053354072877"><ele>1446.0</ele><time>2026-04-11T09:50:11Z</time></trkpt><trkpt lat="46.54135251640749" lon="9.625006704103372"><ele>1443.6666666666667</ele><time>2026-04-11T09:50:12Z</time></trkpt><trkpt lat="46.54115411124728" lon="9.624963375346786"><ele>1441.3333333333335</ele><time>2026-04-11T09:50:13Z</time></trkpt><trkpt lat="46.54095644856239" lon="9.624919931021505"><ele>1439.0</ele><time>2026-04-11T09:50:14Z</time></trkpt><trkpt lat="46.540756701306265" lon="9.624874863424738"><ele>1439.0</ele><time>2026-04-11T09:50:15Z</time></trkpt><trkpt lat="46.54055875207306" lon="9.62483063614979"><ele>1439.0</ele><time>2026-04-11T09:50:16Z</time></trkpt><trkpt lat="46.54036110679811" lon="9.62478514071834"><ele>1439.0</ele><time>2026-04-11T09:50:17Z</time></trkpt><trkpt lat="46.540162963435876" lon="9.624741106823567"><ele>1438.3333333333335</ele><time>2026-04-11T09:50:18Z</time></trkpt><trkpt lat="46.53996434522562" lon="9.624698305193641"><ele>1437.6666666666667</ele><time>2026-04-11T09:50:19Z</time></trkpt><trkpt lat="46.539768991140456" lon="9.624658709062352"><ele>1437.0</ele><time>2026-04-11T09:50:20Z</time></trkpt><trkpt lat="46.539571302434375" lon="9.62461504060652"><ele>1441.6666666666667</ele><time>2026-04-11T09:50:21Z</time></trkpt><trkpt lat="46.53937695854658" lon="9.62457785331821"><ele>1446.3333333333335</ele><time>2026-04-11T09:50:22Z</time></trkpt><trkpt lat="46.53918302282955" lon="9.624539468553651"><ele>1451.0</ele><time>2026-04-11T09:50:23Z</time></trkpt><trkpt lat="46.53899134343095" lon="9.624497262938943"><ele>1454.3333333333335</ele><time>2026-04-11T09:50:24Z</time></trkpt><trkpt lat="46.53882360108327" lon="9.624444382309497"><ele>1457.6666666666667</ele><time>2026-04-11T09:50:25Z</time></trkpt><trkpt lat="46.53861231409879" lon="9.624421870898598"><ele>1461.0</ele><time>2026-04-11T09:50:26Z</time></trkpt><trkpt lat="46.53842111865272" lon="9.62437347214475"><ele>1454.0</ele><time>2026-04-11T09:50:27Z</time></trkpt><trkpt lat="46.53822529514251" lon="9.62432135302782"><ele>1447.0</ele><time>2026-04-11T09:50:28Z</time></trkpt><trkpt lat="46.53803717905749" lon="9.624259398726066"><ele>1440.0</ele><time>2026-04-11T09:50:29Z</time></trkpt><trkpt lat="46.537856389605466" lon="9.624172920949583"><ele>1437.0</ele><time>2026-04-11T09:50:30Z</time></trkpt><trkpt lat="46.53767484554182" lon="9.624081387340578"><ele>1434.0</ele><time>2026-04-11T09:50:31Z</time></trkpt><trkpt lat="46.537489914328155" lon="9.624014428551037"><ele>1431.0</ele><time>2026-04-11T09:50:32Z</time></trkpt><trkpt lat="46.53729671295216" lon="9.623984570366039"><ele>1431.0</ele><time>2026-04-11T09:50:33Z</time></trkpt><trkpt lat="46.53709617228942" lon="9.623972008641292"><ele>1431.0</ele><time>2026-04-11T09:50:34Z</time></trkpt><trkpt lat="46.536894041347566" lon="9.62397916981468"><ele>1431.0</ele><time>2026-04-11T09:50:35Z</time></trkpt><trkpt lat="46.536687635365936" lon="9.624005498518478"><ele>1432.3333333333333</ele><time>2026-04-11T09:50:36Z</time></trkpt><trkpt lat="46.53648028915186" lon="9.624034756632094"><ele>1433.6666666666665</ele><time>2026-04-11T09:50:37Z</time></trkpt><trkpt lat="46.53626933292997" lon="9.624059455902309"><ele>1435.0</ele><time>2026-04-11T09:50:38Z</time></trkpt><trkpt lat="46.53605908876302" lon="9.624076810362258"><ele>1437.0</ele><time>2026-04-11T09:50:39Z</time></trkpt><trkpt lat="46.53584976459" lon="9.62409081835951"><ele>1439.0</ele><time>2026-04-11T09:50:40Z</time></trkpt><trkpt lat="46.53563687017365" lon="9.624093372863282"><ele>1441.0</ele><time>2026-04-11T09:50:41Z</time></trkpt><trkpt lat="46.53542599179994" lon="9.624067185421456"><ele>1439.6666666666665</ele><time>2026-04-11T09:50:42Z</time></trkpt><trkpt lat="46.535217510527104" lon="9.62400839980212"><ele>1438.3333333333333</ele><time>2026-04-11T09:50:43Z</time></trkpt><trkpt lat="46.53501279972698" lon="9.623917739214114"><ele>1437.0</ele><time>2026-04-11T09:50:44Z</time></trkpt><trkpt lat="46.53481176616537" lon="9.623806159972837"><ele>1437.0</ele><time>2026-04-11T09:50:45Z</time></trkpt><trkpt lat="46.53461429005586" lon="9.623691804981437"><ele>1437.0</ele><time>2026-04-11T09:50:46Z</time></trkpt><trkpt lat="46.53441762263173" lon="9.623586951982954"><ele>1437.0</ele><time>2026-04-11T09:50:47Z</time></trkpt><trkpt lat="46.53422038378288" lon="9.623481913489377"><ele>1436.0</ele><time>2026-04-11T09:50:48Z</time></trkpt><trkpt lat="46.534025058074775" lon="9.623370225254014"><ele>1435.0</ele><time>2026-04-11T09:50:49Z</time></trkpt><trkpt lat="46.53382803324884" lon="9.623260239987323"><ele>1434.0</ele><time>2026-04-11T09:50:50Z</time></trkpt><trkpt lat="46.533633312106346" lon="9.623156848712723"><ele>1434.0</ele><time>2026-04-11T09:50:51Z</time></trkpt><trkpt lat="46.53345284652964" lon="9.623063059813449"><ele>1434.0</ele><time>2026-04-11T09:50:52Z</time></trkpt><trkpt lat="46.53327643811054" lon="9.62296776016406"><ele>1434.0</ele><time>2026-04-11T09:50:53Z</time></trkpt><trkpt lat="46.53310040207911" lon="9.62287554695578"><ele>1436.6666666666667</ele><time>2026-04-11T09:50:54Z</time></trkpt><trkpt lat="46.53292482428609" lon="9.62278579734105"><ele>1439.3333333333335</ele><time>2026-04-11T09:50:55Z</time></trkpt><trkpt lat="46.53274734549879" lon="9.622696162601702"><ele>1442.0</ele><time>2026-04-11T09:50:56Z</time></trkpt><trkpt lat="46.53257087499116" lon="9.622609928603993"><ele>1442.0</ele><time>2026-04-11T09:50:57Z</time></trkpt><trkpt lat="46.53239325655828" lon="9.622522208354777"><ele>1442.0</ele><time>2026-04-11T09:50:58Z</time></trkpt><trkpt lat="46.532215989677866" lon="9.622433162289706"><ele>1442.0</ele><time>2026-04-11T09:50:59Z</time></trkpt><trkpt lat="46.5320377853513" lon="9.622342103740504"><ele>1440.0</ele><time>2026-04-11T09:51:00Z</time></trkpt><trkpt lat="46.53185933524852" lon="9.622250588291832"><ele>1438.0</ele><time>2026-04-11T09:51:01Z</time></trkpt><trkpt lat="46.53168141087315" lon="9.62215763645331"><ele>1436.0</ele><time>2026-04-11T09:51:02Z</time></trkpt><trkpt lat="46.531502130160554" lon="9.62206632449703"><ele>1441.0</ele><time>2026-04-11T09:51:03Z</time></trkpt><trkpt lat="46.53132485644805" lon="9.621975683831035"><ele>1446.0</ele><time>2026-04-11T09:51:04Z</time></trkpt><trkpt lat="46.53114766126481" lon="9.621886121530666"><ele>1451.0</ele><time>2026-04-11T09:51:05Z</time></trkpt><trkpt lat="46.53097070405589" lon="9.6217939755621"><ele>1451.0</ele><time>2026-04-11T09:51:06Z</time></trkpt><trkpt lat="46.53079537763306" lon="9.621701917603863"><ele>1451.0</ele><time>2026-04-11T09:51:07Z</time></trkpt><trkpt lat="46.53061790011002" lon="9.621609582659548"><ele>1451.0</ele><time>2026-04-11T09:51:08Z</time></trkpt><trkpt lat="46.530440053636084" lon="9.621520162315887"><ele>1448.6666666666667</ele><time>2026-04-11T09:51:09Z</time></trkpt><trkpt lat="46.530262626478944" lon="9.62143001952313"><ele>1446.3333333333333</ele><time>2026-04-11T09:51:10Z</time></trkpt><trkpt lat="46.5300851118751" lon="9.62134001375107"><ele>1444.0</ele><time>2026-04-11T09:51:11Z</time></trkpt><trkpt lat="46.52990622090255" lon="9.621252132580759"><ele>1444.0</ele><time>2026-04-11T09:51:12Z</time></trkpt><trkpt lat="46.529727889225654" lon="9.6211620203061"><ele>1444.0</ele><time>2026-04-11T09:51:13Z</time></trkpt><trkpt lat="46.52954769877356" lon="9.621071385957308"><ele>1444.0</ele><time>2026-04-11T09:51:14Z</time></trkpt><trkpt lat="46.5293675614718" lon="9.620983601360857"><ele>1444.0</ele><time>2026-04-11T09:51:15Z</time></trkpt><trkpt lat="46.52918874880535" lon="9.620894613663015"><ele>1444.0</ele><time>2026-04-11T09:51:16Z</time></trkpt><trkpt lat="46.52901057916434" lon="9.620800395989304"><ele>1444.0</ele><time>2026-04-11T09:51:17Z</time></trkpt><trkpt lat="46.52883384162721" lon="9.620711505739242"><ele>1448.3333333333333</ele><time>2026-04-11T09:51:18Z</time></trkpt><trkpt lat="46.5286573206007" lon="9.620619826961628"><ele>1452.6666666666667</ele><time>2026-04-11T09:51:19Z</time></trkpt><trkpt lat="46.52847916042758" lon="9.620524319405943"><ele>1457.0</ele><time>2026-04-11T09:51:20Z</time></trkpt><trkpt lat="46.52830173800046" lon="9.620437113165856"><ele>1457.0</ele><time>2026-04-11T09:51:21Z</time></trkpt><trkpt lat="46.52812344825072" lon="9.62035151474124"><ele>1457.0</ele><time>2026-04-11T09:51:22Z</time></trkpt><trkpt lat="46.52794784077602" lon="9.620253517447239"><ele>1457.0</ele><time>2026-04-11T09:51:23Z</time></trkpt><trkpt lat="46.527771034532975" lon="9.620154649084023"><ele>1456.6666666666667</ele><time>2026-04-11T09:51:24Z</time></trkpt><trkpt lat="46.52759576488207" lon="9.620064624275734"><ele>1456.3333333333333</ele><time>2026-04-11T09:51:25Z</time></trkpt><trkpt lat="46.52742030888004" lon="9.619973197821304"><ele>1456.0</ele><time>2026-04-11T09:51:26Z</time></trkpt><trkpt lat="46.52724380439441" lon="9.6198787385014"><ele>1456.0</ele><time>2026-04-11T09:51:27Z</time></trkpt><trkpt lat="46.52707135260665" lon="9.619785967941857"><ele>1456.0</ele><time>2026-04-11T09:51:28Z</time></trkpt><trkpt lat="46.52689473708438" lon="9.619692157261854"><ele>1456.0</ele><time>2026-04-11T09:51:29Z</time></trkpt><trkpt lat="46.52672215116925" lon="9.619623810956138"><ele>1455.3333333333333</ele><time>2026-04-11T09:51:30Z</time></trkpt><trkpt lat="46.52655016416831" lon="9.619603771877106"><ele>1454.6666666666667</ele><time>2026-04-11T09:51:31Z</time></trkpt><trkpt lat="46.52638354641766" lon="9.61962010889838"><ele>1454.0</ele><time>2026-04-11T09:51:32Z</time></trkpt><trkpt lat="46.52623019354185" lon="9.619651483686864"><ele>1455.75</ele><time>2026-04-11T09:51:33Z</time></trkpt><trkpt lat="46.52609132101087" lon="9.619705367157662"><ele>1457.5</ele><time>2026-04-11T09:51:34Z</time></trkpt><trkpt lat="46.525969594463824" lon="9.619782624741909"><ele>1459.25</ele><time>2026-04-11T09:51:35Z</time></trkpt><trkpt lat="46.52587864707618" lon="9.619909271967003"><ele>1461.0</ele><time>2026-04-11T09:51:36Z</time></trkpt><trkpt lat="46.525803750916914" lon="9.620072468363073"><ele>1461.0</ele><time>2026-04-11T09:51:37Z</time></trkpt><trkpt lat="46.525722433184384" lon="9.620230767651552"><ele>1461.0</ele><time>2026-04-11T09:51:38Z</time></trkpt><trkpt lat="46.52563547728764" lon="9.620366021776372"><ele>1461.0</ele><time>2026-04-11T09:51:39Z</time></trkpt><trkpt lat="46.525556228318884" lon="9.62046662333904"><ele>1461.0</ele><time>2026-04-11T09:51:40Z</time></trkpt><trkpt lat="46.52546051557651" lon="9.620541821016005"><ele>1464.0</ele><time>2026-04-11T09:51:41Z</time></trkpt><trkpt lat="46.52536783705132" lon="9.620572901795938"><ele>1467.0</ele><time>2026-04-11T09:51:42Z</time></trkpt><trkpt lat="46.52527337044909" lon="9.620595164700607"><ele>1470.0</ele><time>2026-04-11T09:51:43Z</time></trkpt><trkpt lat="46.52517920913156" lon="9.620636726883868"><ele>1473.0</ele><time>2026-04-11T09:51:44Z</time></trkpt><trkpt lat="46.525079523467284" lon="9.620702095068287"><ele>1476.0</ele><time>2026-04-11T09:51:45Z</time></trkpt><trkpt lat="46.524996687858284" lon="9.620791658378833"><ele>1476.0</ele><time>2026-04-11T09:51:46Z</time></trkpt><trkpt lat="46.524910673661175" lon="9.62087312433673"><ele>1476.0</ele><time>2026-04-11T09:51:47Z</time></trkpt><trkpt lat="46.52482463401668" lon="9.620951435868319"><ele>1476.0</ele><time>2026-04-11T09:51:48Z</time></trkpt><trkpt lat="46.5247017709511" lon="9.621053914127351"><ele>1476.0</ele><time>2026-04-11T09:51:49Z</time></trkpt><trkpt lat="46.52463260643449" lon="9.621105147357916"><ele>1476.0</ele><time>2026-04-11T09:51:50Z</time></trkpt><trkpt lat="46.52455483990328" lon="9.621165451097577"><ele>1475.0</ele><time>2026-04-11T09:51:51Z</time></trkpt><trkpt lat="46.52447835075707" lon="9.621179181905594"><ele>1474.0</ele><time>2026-04-11T09:51:52Z</time></trkpt><trkpt lat="46.524362779494275" lon="9.62111427274845"><ele>1473.0</ele><time>2026-04-11T09:51:53.999Z</time></trkpt><trkpt lat="46.52431236677181" lon="9.620996271085485"><ele>1472.0</ele><time>2026-04-11T09:51:54.999Z</time></trkpt><trkpt lat="46.52427292271233" lon="9.620860759099669"><ele>1471.0</ele><time>2026-04-11T09:51:55.999Z</time></trkpt><trkpt lat="46.52424299060886" lon="9.620726524196364"><ele>1473.1666666666665</ele><time>2026-04-11T09:51:56.999Z</time></trkpt><trkpt lat="46.524207122170935" lon="9.620604869325868"><ele>1475.3333333333333</ele><time>2026-04-11T09:51:57.999Z</time></trkpt><trkpt lat="46.52415628308885" lon="9.620510380823534"><ele>1477.5</ele><time>2026-04-11T09:51:58.999Z</time></trkpt><trkpt lat="46.524089995163784" lon="9.620471458256596"><ele>1479.6666666666667</ele><time>2026-04-11T09:51:59.999Z</time></trkpt><trkpt lat="46.52400477164252" lon="9.620475220207908"><ele>1481.8333333333335</ele><time>2026-04-11T09:52:00.999Z</time></trkpt><trkpt lat="46.52390717777848" lon="9.620502705635882"><ele>1484.0</ele><time>2026-04-11T09:52:01.999Z</time></trkpt><trkpt lat="46.523799178916654" lon="9.620538134467198"><ele>1484.25</ele><time>2026-04-11T09:52:02.999Z</time></trkpt><trkpt lat="46.52368563050956" lon="9.620565709824536"><ele>1484.5</ele><time>2026-04-11T09:52:03.999Z</time></trkpt><trkpt lat="46.52357648693316" lon="9.620583365912454"><ele>1484.75</ele><time>2026-04-11T09:52:04.999Z</time></trkpt><trkpt lat="46.52345476710045" lon="9.62059444867749"><ele>1485.0</ele><time>2026-04-11T09:52:05.999Z</time></trkpt><trkpt lat="46.52331862584898" lon="9.6205982976213"><ele>1485.0</ele><time>2026-04-11T09:52:06.999Z</time></trkpt><trkpt lat="46.52317630657106" lon="9.620609471524546"><ele>1485.0</ele><time>2026-04-11T09:52:07.999Z</time></trkpt><trkpt lat="46.52302905634693" lon="9.620647119828122"><ele>1485.0</ele><time>2026-04-11T09:52:08.999Z</time></trkpt><trkpt lat="46.52288123505764" lon="9.62072839471594"><ele>1489.5</ele><time>2026-04-11T09:52:10Z</time></trkpt><trkpt lat="46.52273723998918" lon="9.620821795057818"><ele>1494.0</ele><time>2026-04-11T09:52:11Z</time></trkpt><trkpt lat="46.52260712371101" lon="9.620896711345264"><ele>1498.5</ele><time>2026-04-11T09:52:12Z</time></trkpt><trkpt lat="46.522492248122525" lon="9.62097406157693"><ele>1503.0</ele><time>2026-04-11T09:52:13Z</time></trkpt><trkpt lat="46.52237765317824" lon="9.621088656253967"><ele>1496.6666666666667</ele><time>2026-04-11T09:52:14Z</time></trkpt><trkpt lat="46.5222704121147" lon="9.621254386302063"><ele>1490.3333333333335</ele><time>2026-04-11T09:52:15Z</time></trkpt><trkpt lat="46.52217289321115" lon="9.621447192305281"><ele>1484.0</ele><time>2026-04-11T09:52:16Z</time></trkpt><trkpt lat="46.52206449613478" lon="9.62162473836785"><ele>1497.0</ele><time>2026-04-11T09:52:17Z</time></trkpt><trkpt lat="46.521925730168526" lon="9.621761925559294"><ele>1510.0</ele><time>2026-04-11T09:52:18Z</time></trkpt><trkpt lat="46.521761914862466" lon="9.62186345971439"><ele>1523.0</ele><time>2026-04-11T09:52:19Z</time></trkpt><trkpt lat="46.52159702863834" lon="9.621949961919308"><ele>1527.3333333333335</ele><time>2026-04-11T09:52:20Z</time></trkpt><trkpt lat="46.52145432677587" lon="9.622049742107164"><ele>1531.6666666666667</ele><time>2026-04-11T09:52:21Z</time></trkpt><trkpt lat="46.52132758270575" lon="9.622169007663627"><ele>1536.0</ele><time>2026-04-11T09:52:22Z</time></trkpt><trkpt lat="46.521216806416334" lon="9.62233861813381"><ele>1536.0</ele><time>2026-04-11T09:52:23Z</time></trkpt><trkpt lat="46.52112939491135" lon="9.622556607319666"><ele>1536.0</ele><time>2026-04-11T09:52:24Z</time></trkpt><trkpt lat="46.52109153012763" lon="9.622803321022278"><ele>1536.0</ele><time>2026-04-11T09:52:25Z</time></trkpt><trkpt lat="46.52109163565206" lon="9.623060875142984"><ele>1531.6666666666667</ele><time>2026-04-11T09:52:26Z</time></trkpt><trkpt lat="46.52109867702494" lon="9.62332591148855"><ele>1527.3333333333335</ele><time>2026-04-11T09:52:27Z</time></trkpt><trkpt lat="46.52109440191672" lon="9.623585222694432"><ele>1523.0</ele><time>2026-04-11T09:52:28Z</time></trkpt><trkpt lat="46.52107717670466" lon="9.623840238026894"><ele>1523.0</ele><time>2026-04-11T09:52:29Z</time></trkpt><trkpt lat="46.52104321425575" lon="9.624095646146738"><ele>1523.0</ele><time>2026-04-11T09:52:30Z</time></trkpt><trkpt lat="46.52099764585027" lon="9.624345545277297"><ele>1523.0</ele><time>2026-04-11T09:52:31Z</time></trkpt><trkpt lat="46.52095475138447" lon="9.624592568788032"><ele>1522.0</ele><time>2026-04-11T09:52:32Z</time></trkpt><trkpt lat="46.520915655555356" lon="9.624834361526156"><ele>1521.0</ele><time>2026-04-11T09:52:33Z</time></trkpt><trkpt lat="46.52086358249868" lon="9.625057589378876"><ele>1520.0</ele><time>2026-04-11T09:52:34Z</time></trkpt><trkpt lat="46.520769988712054" lon="9.625270988245736"><ele>1518.6666666666667</ele><time>2026-04-11T09:52:35Z</time></trkpt><trkpt lat="46.520631989522876" lon="9.62546128423964"><ele>1517.3333333333333</ele><time>2026-04-11T09:52:36Z</time></trkpt><trkpt lat="46.520463430959886" lon="9.625619936773935"><ele>1516.0</ele><time>2026-04-11T09:52:37Z</time></trkpt><trkpt lat="46.520292982273794" lon="9.625765657509884"><ele>1523.6666666666665</ele><time>2026-04-11T09:52:38Z</time></trkpt><trkpt lat="46.52013756742748" lon="9.62590495208612"><ele>1531.3333333333333</ele><time>2026-04-11T09:52:39Z</time></trkpt><trkpt lat="46.51999252375851" lon="9.626011024542798"><ele>1539.0</ele><time>2026-04-11T09:52:40Z</time></trkpt><trkpt lat="46.51983341015313" lon="9.626040280963641"><ele>1539.0</ele><time>2026-04-11T09:52:41Z</time></trkpt><trkpt lat="46.51968304034623" lon="9.625940917383062"><ele>1539.0</ele><time>2026-04-11T09:52:42Z</time></trkpt><trkpt lat="46.51956825635638" lon="9.62581337626227"><ele>1539.0</ele><time>2026-04-11T09:52:43Z</time></trkpt><trkpt lat="46.519459070339074" lon="9.625678005768705"><ele>1538.2</ele><time>2026-04-11T09:52:44Z</time></trkpt><trkpt lat="46.51937422871072" lon="9.625563632243281"><ele>1537.4</ele><time>2026-04-11T09:52:45Z</time></trkpt><trkpt lat="46.51928787881166" lon="9.625511561553319"><ele>1536.6</ele><time>2026-04-11T09:52:46Z</time></trkpt><trkpt lat="46.519181757160766" lon="9.625500245132594"><ele>1535.8</ele><time>2026-04-11T09:52:47Z</time></trkpt><trkpt lat="46.519068467216286" lon="9.625543104591175"><ele>1535.0</ele><time>2026-04-11T09:52:48Z</time></trkpt><trkpt lat="46.51898045236984" lon="9.625628495188932"><ele>1535.0</ele><time>2026-04-11T09:52:49Z</time></trkpt><trkpt lat="46.518921646582484" lon="9.62575023984348"><ele>1535.0</ele><time>2026-04-11T09:52:50Z</time></trkpt><trkpt lat="46.518886708050886" lon="9.625910346451615"><ele>1535.0</ele><time>2026-04-11T09:52:51Z</time></trkpt><trkpt lat="46.51886782268551" lon="9.626088659762425"><ele>1535.0</ele><time>2026-04-11T09:52:52Z</time></trkpt><trkpt lat="46.518853674775684" lon="9.626271886387002"><ele>1534.5</ele><time>2026-04-11T09:52:53Z</time></trkpt><trkpt lat="46.51883930417879" lon="9.62645941052881"><ele>1534.0</ele><time>2026-04-11T09:52:54Z</time></trkpt><trkpt lat="46.51882399808847" lon="9.62664445834697"><ele>1533.5</ele><time>2026-04-11T09:52:55Z</time></trkpt><trkpt lat="46.51880764829481" lon="9.626825981490468"><ele>1533.0</ele><time>2026-04-11T09:52:56Z</time></trkpt><trkpt lat="46.518793203768325" lon="9.626999620563302"><ele>1533.6000000000001</ele><time>2026-04-11T09:52:57Z</time></trkpt><trkpt lat="46.51878094362488" lon="9.627151901092775"><ele>1534.2</ele><time>2026-04-11T09:52:58Z</time></trkpt><trkpt lat="46.51876439994664" lon="9.627297910525863"><ele>1534.8</ele><time>2026-04-11T09:52:59Z</time></trkpt><trkpt lat="46.518746221349424" lon="9.627457232108354"><ele>1535.4</ele><time>2026-04-11T09:53:00Z</time></trkpt><trkpt lat="46.51872733725404" lon="9.627622081350555"><ele>1536.0</ele><time>2026-04-11T09:53:01Z</time></trkpt><trkpt lat="46.518710278887106" lon="9.627788622930746"><ele>1538.0</ele><time>2026-04-11T09:53:02Z</time></trkpt><trkpt lat="46.518695845906024" lon="9.627950494238243"><ele>1540.0</ele><time>2026-04-11T09:53:03Z</time></trkpt><trkpt lat="46.51868015608551" lon="9.628111572884633"><ele>1542.0</ele><time>2026-04-11T09:53:04Z</time></trkpt><trkpt lat="46.518663185185815" lon="9.628269803551042"><ele>1544.0</ele><time>2026-04-11T09:53:05Z</time></trkpt><trkpt lat="46.51864188306469" lon="9.628425512475244"><ele>1546.0</ele><time>2026-04-11T09:53:06Z</time></trkpt><trkpt lat="46.51861928506032" lon="9.628577928853142"><ele>1549.25</ele><time>2026-04-11T09:53:07Z</time></trkpt><trkpt lat="46.51858984154922" lon="9.628729475309362"><ele>1552.5</ele><time>2026-04-11T09:53:08Z</time></trkpt><trkpt lat="46.51854324082606" lon="9.628889539023879"><ele>1555.75</ele><time>2026-04-11T09:53:09Z</time></trkpt><trkpt lat="46.51846856134156" lon="9.62904213828252"><ele>1559.0</ele><time>2026-04-11T09:53:10Z</time></trkpt><trkpt lat="46.51836287859378" lon="9.62915299561117"><ele>1559.0</ele><time>2026-04-11T09:53:11Z</time></trkpt><trkpt lat="46.51823085409541" lon="9.629223992251175"><ele>1559.0</ele><time>2026-04-11T09:53:12Z</time></trkpt><trkpt lat="46.51807953810176" lon="9.6292420463209"><ele>1559.0</ele><time>2026-04-11T09:53:13Z</time></trkpt><trkpt lat="46.517925897568254" lon="9.62919594515758"><ele>1559.0</ele><time>2026-04-11T09:53:14Z</time></trkpt><trkpt lat="46.51777442759423" lon="9.629101052174493"><ele>1562.6666666666665</ele><time>2026-04-11T09:53:15Z</time></trkpt><trkpt lat="46.51762408603525" lon="9.62899385786191"><ele>1566.3333333333335</ele><time>2026-04-11T09:53:16Z</time></trkpt><trkpt lat="46.517479573510904" lon="9.62892139905096"><ele>1570.0</ele><time>2026-04-11T09:53:17Z</time></trkpt><trkpt lat="46.51733670141474" lon="9.628905005541892"><ele>1570.0</ele><time>2026-04-11T09:53:18Z</time></trkpt><trkpt lat="46.51719076197885" lon="9.62894357422407"><ele>1570.0</ele><time>2026-04-11T09:53:19Z</time></trkpt><trkpt lat="46.51705035804982" lon="9.629034058576893"><ele>1570.0</ele><time>2026-04-11T09:53:20Z</time></trkpt><trkpt lat="46.51693324630961" lon="9.629167264287016"><ele>1571.25</ele><time>2026-04-11T09:53:21Z</time></trkpt><trkpt lat="46.51684716873278" lon="9.62934470034022"><ele>1572.5</ele><time>2026-04-11T09:53:22Z</time></trkpt><trkpt lat="46.516773768469854" lon="9.629541270189522"><ele>1573.75</ele><time>2026-04-11T09:53:23Z</time></trkpt><trkpt lat="46.51673259193316" lon="9.629741582048894"><ele>1575.0</ele><time>2026-04-11T09:53:24Z</time></trkpt><trkpt lat="46.516692328024526" lon="9.629919956366491"><ele>1575.0</ele><time>2026-04-11T09:53:25Z</time></trkpt><trkpt lat="46.51665661193553" lon="9.630064872546743"><ele>1575.0</ele><time>2026-04-11T09:53:26Z</time></trkpt><trkpt lat="46.516613564066006" lon="9.630195788040739"><ele>1575.0</ele><time>2026-04-11T09:53:27Z</time></trkpt><trkpt lat="46.516545065091286" lon="9.630283631321293"><ele>1575.0</ele><time>2026-04-11T09:53:28Z</time></trkpt><trkpt lat="46.51646081029889" lon="9.630348821956593"><ele>1575.0</ele><time>2026-04-11T09:53:29Z</time></trkpt><trkpt lat="46.51637459571549" lon="9.630374135404837"><ele>1576.4</ele><time>2026-04-11T09:53:30Z</time></trkpt><trkpt lat="46.516284175649204" lon="9.630350066641252"><ele>1577.8</ele><time>2026-04-11T09:53:31Z</time></trkpt><trkpt lat="46.51619936619301" lon="9.630286965808965"><ele>1579.1999999999998</ele><time>2026-04-11T09:53:32Z</time></trkpt><trkpt lat="46.516132593564535" lon="9.630178846993193"><ele>1580.6</ele><time>2026-04-11T09:53:33Z</time></trkpt><trkpt lat="46.516087472131" lon="9.630037516273344"><ele>1582.0</ele><time>2026-04-11T09:53:34Z</time></trkpt><trkpt lat="46.5160578792387" lon="9.62986302597814"><ele>1583.5</ele><time>2026-04-11T09:53:35Z</time></trkpt><trkpt lat="46.5160307883174" lon="9.629678555615772"><ele>1585.0</ele><time>2026-04-11T09:53:36Z</time></trkpt><trkpt lat="46.51599762301921" lon="9.629504824433694"><ele>1586.5</ele><time>2026-04-11T09:53:37Z</time></trkpt><trkpt lat="46.51595105947037" lon="9.629336695659058"><ele>1588.0</ele><time>2026-04-11T09:53:38Z</time></trkpt><trkpt lat="46.51588844304543" lon="9.629162816816763"><ele>1588.0</ele><time>2026-04-11T09:53:39Z</time></trkpt><trkpt lat="46.51581215304314" lon="9.629000916264413"><ele>1588.0</ele><time>2026-04-11T09:53:40Z</time></trkpt><trkpt lat="46.51573175781025" lon="9.628860974738037"><ele>1588.0</ele><time>2026-04-11T09:53:41Z</time></trkpt><trkpt lat="46.515645204245416" lon="9.628735025055027"><ele>1588.0</ele><time>2026-04-11T09:53:42Z</time></trkpt><trkpt lat="46.51553999973943" lon="9.628618706362166"><ele>1585.6666666666667</ele><time>2026-04-11T09:53:43Z</time></trkpt><trkpt lat="46.51540665192567" lon="9.628533148776155"><ele>1583.3333333333335</ele><time>2026-04-11T09:53:43.999Z</time></trkpt><trkpt lat="46.515243686848315" lon="9.62845812200748"><ele>1581.0</ele><time>2026-04-11T09:53:44.999Z</time></trkpt><trkpt lat="46.515070778460675" lon="9.628361405066455"><ele>1588.6666666666665</ele><time>2026-04-11T09:53:45.999Z</time></trkpt><trkpt lat="46.51488416310523" lon="9.628247214947724"><ele>1596.3333333333333</ele><time>2026-04-11T09:53:46.999Z</time></trkpt><trkpt lat="46.51469542751643" lon="9.628124702113695"><ele>1604.0</ele><time>2026-04-11T09:53:47.999Z</time></trkpt><trkpt lat="46.514529389726825" lon="9.628024413109815"><ele>1604.75</ele><time>2026-04-11T09:53:48.999Z</time></trkpt><trkpt lat="46.51438165153294" lon="9.627945091485282"><ele>1605.5</ele><time>2026-04-11T09:53:49.999Z</time></trkpt><trkpt lat="46.5142454719544" lon="9.62792302871762"><ele>1606.25</ele><time>2026-04-11T09:53:50.999Z</time></trkpt><trkpt lat="46.51411975273964" lon="9.62796447020621"><ele>1607.0</ele><time>2026-04-11T09:53:51.999Z</time></trkpt><trkpt lat="46.51400242085043" lon="9.62806837539488"><ele>1607.0</ele><time>2026-04-11T09:53:52.999Z</time></trkpt><trkpt lat="46.51389989730257" lon="9.628219846077792"><ele>1607.0</ele><time>2026-04-11T09:53:53.999Z</time></trkpt><trkpt lat="46.51381016869171" lon="9.628412932388871"><ele>1607.0</ele><time>2026-04-11T09:53:54.999Z</time></trkpt><trkpt lat="46.51371297493558" lon="9.628610541708165"><ele>1607.3333333333333</ele><time>2026-04-11T09:53:55.999Z</time></trkpt><trkpt lat="46.51360577372862" lon="9.628802359758494"><ele>1607.6666666666665</ele><time>2026-04-11T09:53:56.999Z</time></trkpt><trkpt lat="46.513502153239365" lon="9.628984557776178"><ele>1608.0</ele><time>2026-04-11T09:53:57.999Z</time></trkpt><trkpt lat="46.513405732123935" lon="9.62916498862215"><ele>1608.0</ele><time>2026-04-11T09:53:58.999Z</time></trkpt><trkpt lat="46.513320343504446" lon="9.629358593781962"><ele>1608.0</ele><time>2026-04-11T09:53:59.999Z</time></trkpt><trkpt lat="46.51326570138283" lon="9.629588155684555"><ele>1608.0</ele><time>2026-04-11T09:54:00.999Z</time></trkpt><trkpt lat="46.51326027600379" lon="9.629825893419978"><ele>1609.75</ele><time>2026-04-11T09:54:01.999Z</time></trkpt><trkpt lat="46.51331675666933" lon="9.630031063761756"><ele>1611.5</ele><time>2026-04-11T09:54:02.999Z</time></trkpt><trkpt lat="46.513348040456485" lon="9.630205750364595"><ele>1613.25</ele><time>2026-04-11T09:54:03.999Z</time></trkpt><trkpt lat="46.51337562513507" lon="9.630399515718278"><ele>1615.0</ele><time>2026-04-11T09:54:04.999Z</time></trkpt><trkpt lat="46.51338294170434" lon="9.630612196922689"><ele>1616.75</ele><time>2026-04-11T09:54:05.999Z</time></trkpt><trkpt lat="46.51334714612171" lon="9.630828427669842"><ele>1618.5</ele><time>2026-04-11T09:54:06.999Z</time></trkpt><trkpt lat="46.51331108475871" lon="9.63102159369375"><ele>1620.25</ele><time>2026-04-11T09:54:07.999Z</time></trkpt><trkpt lat="46.51327253560656" lon="9.631193681660783"><ele>1622.0</ele><time>2026-04-11T09:54:08.999Z</time></trkpt><trkpt lat="46.513253656295085" lon="9.631321519692513"><ele>1622.0</ele><time>2026-04-11T09:54:09.999Z</time></trkpt><trkpt lat="46.5133446792682" lon="9.631414930519565"><ele>1622.0</ele><time>2026-04-11T09:54:10.999Z</time></trkpt><trkpt lat="46.51342545552302" lon="9.631446963410337"><ele>1622.0</ele><time>2026-04-11T09:54:11.999Z</time></trkpt><trkpt lat="46.51352177723704" lon="9.63143756309293"><ele>1622.0</ele><time>2026-04-11T09:54:12.999Z</time></trkpt><trkpt lat="46.51358024674654" lon="9.631278013589057"><ele>1622.0</ele><time>2026-04-11T09:54:13.999Z</time></trkpt><trkpt lat="46.51361505058214" lon="9.63111686101676"><ele>1622.0</ele><time>2026-04-11T09:54:15Z</time></trkpt><trkpt lat="46.51365510365262" lon="9.630934263845365"><ele>1622.0</ele><time>2026-04-11T09:54:16Z</time></trkpt><trkpt lat="46.51370263838945" lon="9.630741499537308"><ele>1622.0</ele><time>2026-04-11T09:54:17Z</time></trkpt><trkpt lat="46.513751037158286" lon="9.630534578906344"><ele>1622.0</ele><time>2026-04-11T09:54:18Z</time></trkpt><trkpt lat="46.513797073331375" lon="9.630324248613153"><ele>1628.6666666666665</ele><time>2026-04-11T09:54:19Z</time></trkpt><trkpt lat="46.513831057086136" lon="9.630095273254227"><ele>1635.3333333333335</ele><time>2026-04-11T09:54:20Z</time></trkpt><trkpt lat="46.51385854229029" lon="9.629861968056181"><ele>1642.0</ele><time>2026-04-11T09:54:21Z</time></trkpt><trkpt lat="46.513900364372546" lon="9.629657913879901"><ele>1642.0</ele><time>2026-04-11T09:54:22Z</time></trkpt><trkpt lat="46.51397326737895" lon="9.629494374172886"><ele>1642.0</ele><time>2026-04-11T09:54:23Z</time></trkpt><trkpt lat="46.514070256465295" lon="9.629383596015195"><ele>1642.0</ele><time>2026-04-11T09:54:24Z</time></trkpt><trkpt lat="46.5141808958266" lon="9.629367335365789"><ele>1642.0</ele><time>2026-04-11T09:54:25Z</time></trkpt><trkpt lat="46.51429044414326" lon="9.62938953805737"><ele>1642.0</ele><time>2026-04-11T09:54:26Z</time></trkpt><trkpt lat="46.51437751890516" lon="9.629445922312781"><ele>1642.0</ele><time>2026-04-11T09:54:27Z</time></trkpt><trkpt lat="46.51445129384774" lon="9.629565679304676"><ele>1642.0</ele><time>2026-04-11T09:54:28Z</time></trkpt><trkpt lat="46.51450141142895" lon="9.629733446249137"><ele>1642.0</ele><time>2026-04-11T09:54:29Z</time></trkpt><trkpt lat="46.51449116181965" lon="9.629898711449806"><ele>1642.0</ele><time>2026-04-11T09:54:30Z</time></trkpt><trkpt lat="46.51444458957486" lon="9.630030376713615"><ele>1642.0</ele><time>2026-04-11T09:54:31Z</time></trkpt><trkpt lat="46.514378282862914" lon="9.630186065998222"><ele>1642.0</ele><time>2026-04-11T09:54:32Z</time></trkpt><trkpt lat="46.5142915984377" lon="9.630363653760364"><ele>1642.0</ele><time>2026-04-11T09:54:33Z</time></trkpt><trkpt lat="46.51421435566448" lon="9.630550058330584"><ele>1642.0</ele><time>2026-04-11T09:54:34Z</time></trkpt><trkpt lat="46.51413268263748" lon="9.630711886732174"><ele>1643.5</ele><time>2026-04-11T09:54:35Z</time></trkpt><trkpt lat="46.514059400728335" lon="9.630851393298192"><ele>1645.0</ele><time>2026-04-11T09:54:36Z</time></trkpt><trkpt lat="46.51399357324519" lon="9.630982198729413"><ele>1646.5</ele><time>2026-04-11T09:54:37Z</time></trkpt><trkpt lat="46.51393635177057" lon="9.631117509869323"><ele>1648.0</ele><time>2026-04-11T09:54:38Z</time></trkpt><trkpt lat="46.51390267382487" lon="9.631277964405598"><ele>1652.5</ele><time>2026-04-11T09:54:39Z</time></trkpt><trkpt lat="46.513909868940054" lon="9.631448627331208"><ele>1657.0</ele><time>2026-04-11T09:54:40Z</time></trkpt><trkpt lat="46.51394083626808" lon="9.631617692556533"><ele>1661.5</ele><time>2026-04-11T09:54:41Z</time></trkpt><trkpt lat="46.51396101090063" lon="9.63178115422296"><ele>1666.0</ele><time>2026-04-11T09:54:42Z</time></trkpt><trkpt lat="46.51395562419112" lon="9.631944642913478"><ele>1664.25</ele><time>2026-04-11T09:54:43Z</time></trkpt><trkpt lat="46.51391559201228" lon="9.632091720581894"><ele>1662.5</ele><time>2026-04-11T09:54:44Z</time></trkpt><trkpt lat="46.5138515803424" lon="9.632225552095116"><ele>1660.75</ele><time>2026-04-11T09:54:45Z</time></trkpt><trkpt lat="46.513746110278596" lon="9.632312692927497"><ele>1659.0</ele><time>2026-04-11T09:54:46Z</time></trkpt><trkpt lat="46.51366394305075" lon="9.632432554621445"><ele>1659.0</ele><time>2026-04-11T09:54:47Z</time></trkpt><trkpt lat="46.51357332342588" lon="9.632533162267707"><ele>1659.0</ele><time>2026-04-11T09:54:48Z</time></trkpt><trkpt lat="46.51348399184908" lon="9.63263397351034"><ele>1659.0</ele><time>2026-04-11T09:54:49Z</time></trkpt><trkpt lat="46.513384732933616" lon="9.632716884682875"><ele>1659.0</ele><time>2026-04-11T09:54:50Z</time></trkpt><trkpt lat="46.513287077716406" lon="9.632800524289284"><ele>1664.25</ele><time>2026-04-11T09:54:51Z</time></trkpt><trkpt lat="46.51318217129406" lon="9.63288301026976"><ele>1669.5</ele><time>2026-04-11T09:54:52Z</time></trkpt><trkpt lat="46.51308126956801" lon="9.632972972862316"><ele>1674.75</ele><time>2026-04-11T09:54:53Z</time></trkpt><trkpt lat="46.512990241722555" lon="9.633067855383473"><ele>1680.0</ele><time>2026-04-11T09:54:54Z</time></trkpt><trkpt lat="46.512902273518186" lon="9.633163676558993"><ele>1680.0</ele><time>2026-04-11T09:54:55Z</time></trkpt><trkpt lat="46.512809933254" lon="9.633263153544396"><ele>1680.0</ele><time>2026-04-11T09:54:56Z</time></trkpt><trkpt lat="46.51270430072153" lon="9.633359340165034"><ele>1680.0</ele><time>2026-04-11T09:54:57Z</time></trkpt><trkpt lat="46.51259243378931" lon="9.633437656144109"><ele>1680.0</ele><time>2026-04-11T09:54:58Z</time></trkpt><trkpt lat="46.51247622362603" lon="9.633502714300926"><ele>1680.0</ele><time>2026-04-11T09:54:59Z</time></trkpt><trkpt lat="46.51236412193147" lon="9.633561805980252"><ele>1680.0</ele><time>2026-04-11T09:55:00Z</time></trkpt><trkpt lat="46.512252800809215" lon="9.63359971472294"><ele>1680.0</ele><time>2026-04-11T09:55:01Z</time></trkpt><trkpt lat="46.51213622075179" lon="9.633578583939567"><ele>1680.0</ele><time>2026-04-11T09:55:02Z</time></trkpt><trkpt lat="46.51202735879049" lon="9.633495548628847"><ele>1680.75</ele><time>2026-04-11T09:55:03Z</time></trkpt><trkpt lat="46.51193371479457" lon="9.633403990858262"><ele>1681.5</ele><time>2026-04-11T09:55:04Z</time></trkpt><trkpt lat="46.51183568467806" lon="9.63333378950243"><ele>1682.25</ele><time>2026-04-11T09:55:05Z</time></trkpt><trkpt lat="46.5117189609135" lon="9.633310986081279"><ele>1683.0</ele><time>2026-04-11T09:55:06Z</time></trkpt><trkpt lat="46.511603167071286" lon="9.633328548836326"><ele>1683.0</ele><time>2026-04-11T09:55:07Z</time></trkpt><trkpt lat="46.51149772738244" lon="9.633369786048037"><ele>1683.0</ele><time>2026-04-11T09:55:08Z</time></trkpt><trkpt lat="46.51138844932849" lon="9.633411860620276"><ele>1683.0</ele><time>2026-04-11T09:55:09Z</time></trkpt><trkpt lat="46.511275320834564" lon="9.63345420577002"><ele>1683.0</ele><time>2026-04-11T09:55:10Z</time></trkpt><trkpt lat="46.51116350990052" lon="9.633487189441466"><ele>1681.0</ele><time>2026-04-11T09:55:11Z</time></trkpt><trkpt lat="46.51106768891161" lon="9.633524240113692"><ele>1679.0</ele><time>2026-04-11T09:55:12Z</time></trkpt><trkpt lat="46.51098112267359" lon="9.633576436780643"><ele>1677.0</ele><time>2026-04-11T09:55:13Z</time></trkpt><trkpt lat="46.51091249604989" lon="9.63364014636758"><ele>1675.0</ele><time>2026-04-11T09:55:14Z</time></trkpt><trkpt lat="46.510854974418876" lon="9.633730292141731"><ele>1673.0</ele><time>2026-04-11T09:55:16Z</time></trkpt><trkpt lat="46.510813879305736" lon="9.633801979098232"><ele>1671.0</ele><time>2026-04-11T09:55:23Z</time></trkpt><trkpt lat="46.51075539091493" lon="9.633878025832773"><ele>1671.8</ele><time>2026-04-11T09:55:27Z</time></trkpt><trkpt lat="46.51069447954297" lon="9.633962285745126"><ele>1672.6</ele><time>2026-04-11T09:55:29Z</time></trkpt><trkpt lat="46.510606741010044" lon="9.634086718350698"><ele>1673.4</ele><time>2026-04-11T09:55:31Z</time></trkpt><trkpt lat="46.51053663835417" lon="9.634190800025562"><ele>1674.2</ele><time>2026-04-11T09:55:33Z</time></trkpt><trkpt lat="46.51045573232277" lon="9.63430595586138"><ele>1675.0</ele><time>2026-04-11T09:55:35Z</time></trkpt><trkpt lat="46.51040128828373" lon="9.63438565578791"><ele>1680.0</ele><time>2026-04-11T09:55:36Z</time></trkpt><trkpt lat="46.51033134910482" lon="9.634472261582799"><ele>1685.0</ele><time>2026-04-11T09:55:37Z</time></trkpt><trkpt lat="46.51025465219045" lon="9.634533380879947"><ele>1690.0</ele><time>2026-04-11T09:55:38Z</time></trkpt><trkpt lat="46.51016733306264" lon="9.634581292333174"><ele>1695.0</ele><time>2026-04-11T09:55:39Z</time></trkpt><trkpt lat="46.510070212603104" lon="9.634628147432597"><ele>1700.0</ele><time>2026-04-11T09:55:40Z</time></trkpt><trkpt lat="46.509966862907454" lon="9.634670567558882"><ele>1699.9999999999998</ele><time>2026-04-11T09:55:40.999Z</time></trkpt><trkpt lat="46.509876599580885" lon="9.634708237684565"><ele>1700.0</ele><time>2026-04-11T09:55:41.999Z</time></trkpt><trkpt lat="46.50979146040445" lon="9.63474827769196"><ele>1700.0</ele><time>2026-04-11T09:55:42.999Z</time></trkpt><trkpt lat="46.50971118321717" lon="9.634797556420342"><ele>1700.0</ele><time>2026-04-11T09:55:43.999Z</time></trkpt><trkpt lat="46.50964162800835" lon="9.634859862789202"><ele>1699.9999999999998</ele><time>2026-04-11T09:55:44.999Z</time></trkpt><trkpt lat="46.509589695842784" lon="9.634931602187653"><ele>1700.0</ele><time>2026-04-11T09:55:45.999Z</time></trkpt><trkpt lat="46.50954158435217" lon="9.635006566108258"><ele>1699.6</ele><time>2026-04-11T09:55:46.999Z</time></trkpt><trkpt lat="46.50948822285391" lon="9.635090918092352"><ele>1699.2</ele><time>2026-04-11T09:55:47.999Z</time></trkpt><trkpt lat="46.50942638946541" lon="9.63518410776265"><ele>1698.8000000000002</ele><time>2026-04-11T09:55:48.999Z</time></trkpt><trkpt lat="46.509365905573674" lon="9.635275958652924"><ele>1698.4</ele><time>2026-04-11T09:55:49.999Z</time></trkpt><trkpt lat="46.509300905951" lon="9.635369296478473"><ele>1698.0</ele><time>2026-04-11T09:55:50.999Z</time></trkpt><trkpt lat="46.50922007051029" lon="9.63546870583907"><ele>1698.0</ele><time>2026-04-11T09:55:51.999Z</time></trkpt><trkpt lat="46.509127685160124" lon="9.635560492011153"><ele>1698.0</ele><time>2026-04-11T09:55:52.999Z</time></trkpt><trkpt lat="46.509043678698404" lon="9.635639746377528"><ele>1698.0</ele><time>2026-04-11T09:55:53.999Z</time></trkpt><trkpt lat="46.508969044897114" lon="9.635714379859202"><ele>1698.0</ele><time>2026-04-11T09:55:54.999Z</time></trkpt><trkpt lat="46.508906552858875" lon="9.635795979635084"><ele>1698.0</ele><time>2026-04-11T09:55:55.999Z</time></trkpt><trkpt lat="46.508856135837995" lon="9.63588945752633"><ele>1698.0</ele><time>2026-04-11T09:55:56.999Z</time></trkpt><trkpt lat="46.50881643987962" lon="9.635992903768825"><ele>1698.0</ele><time>2026-04-11T09:55:57.999Z</time></trkpt><trkpt lat="46.50877603234998" lon="9.636111655608106"><ele>1698.0</ele><time>2026-04-11T09:55:58.999Z</time></trkpt><trkpt lat="46.50873844084284" lon="9.63622496149885"><ele>1698.0</ele><time>2026-04-11T09:55:59.999Z</time></trkpt><trkpt lat="46.508700192188456" lon="9.636334213581824"><ele>1698.0</ele><time>2026-04-11T09:56:00.999Z</time></trkpt><trkpt lat="46.50866478792296" lon="9.636434925159369"><ele>1698.0</ele><time>2026-04-11T09:56:01.999Z</time></trkpt><trkpt lat="46.508613978458925" lon="9.636541600411126"><ele>1695.2</ele><time>2026-04-11T09:56:02.999Z</time></trkpt><trkpt lat="46.50853803606605" lon="9.636627370762433"><ele>1692.4</ele><time>2026-04-11T09:56:03.999Z</time></trkpt><trkpt lat="46.50845410003095" lon="9.636731616649453"><ele>1689.6000000000001</ele><time>2026-04-11T09:56:04.999Z</time></trkpt><trkpt lat="46.50835883958648" lon="9.63682174482598"><ele>1686.8000000000002</ele><time>2026-04-11T09:56:05.999Z</time></trkpt><trkpt lat="46.5082691518703" lon="9.636914245448851"><ele>1684.0</ele><time>2026-04-11T09:56:06.999Z</time></trkpt><trkpt lat="46.50818736826136" lon="9.63700322975968"><ele>1682.4</ele><time>2026-04-11T09:56:07.999Z</time></trkpt><trkpt lat="46.508111104824714" lon="9.637094999501576"><ele>1680.8000000000002</ele><time>2026-04-11T09:56:08.999Z</time></trkpt><trkpt lat="46.50803525325406" lon="9.637193433006422"><ele>1679.1999999999998</ele><time>2026-04-11T09:56:09.999Z</time></trkpt><trkpt lat="46.507968708809535" lon="9.637315094349834"><ele>1677.6</ele><time>2026-04-11T09:56:10.999Z</time></trkpt><trkpt lat="46.50790376301295" lon="9.637447106630985"><ele>1676.0</ele><time>2026-04-11T09:56:11.999Z</time></trkpt><trkpt lat="46.50784434992123" lon="9.637582184250586"><ele>1676.0</ele><time>2026-04-11T09:56:12.999Z</time></trkpt><trkpt lat="46.507778645315774" lon="9.637705133573963"><ele>1676.0</ele><time>2026-04-11T09:56:13.999Z</time></trkpt><trkpt lat="46.50770328805711" lon="9.637821784096351"><ele>1676.0</ele><time>2026-04-11T09:56:14.999Z</time></trkpt><trkpt lat="46.50760931750348" lon="9.637924996061779"><ele>1676.0</ele><time>2026-04-11T09:56:15.999Z</time></trkpt><trkpt lat="46.5075068107274" lon="9.638025312826453"><ele>1676.25</ele><time>2026-04-11T09:56:16.999Z</time></trkpt><trkpt lat="46.507409148349495" lon="9.638110281507537"><ele>1676.5</ele><time>2026-04-11T09:56:17.999Z</time></trkpt><trkpt lat="46.50731420490674" lon="9.638200785380855"><ele>1676.75</ele><time>2026-04-11T09:56:18.999Z</time></trkpt><trkpt lat="46.507200339781036" lon="9.638322147170056"><ele>1677.0</ele><time>2026-04-11T09:56:19.999Z</time></trkpt><trkpt lat="46.507052817774316" lon="9.63843557548414"><ele>1677.0</ele><time>2026-04-11T09:56:21Z</time></trkpt><trkpt lat="46.506915277919695" lon="9.638599669465307"><ele>1677.0</ele><time>2026-04-11T09:56:22Z</time></trkpt><trkpt lat="46.50676420186091" lon="9.638752151763537"><ele>1677.0</ele><time>2026-04-11T09:56:23Z</time></trkpt><trkpt lat="46.506620025431054" lon="9.638903958560537"><ele>1689.3333333333335</ele><time>2026-04-11T09:56:24Z</time></trkpt><trkpt lat="46.5064914939537" lon="9.639044598315975"><ele>1701.6666666666667</ele><time>2026-04-11T09:56:25Z</time></trkpt><trkpt lat="46.50637301568161" lon="9.639182647276364"><ele>1714.0</ele><time>2026-04-11T09:56:26Z</time></trkpt><trkpt lat="46.50625683994659" lon="9.639328867016674"><ele>1715.0</ele><time>2026-04-11T09:56:27Z</time></trkpt><trkpt lat="46.50612826818142" lon="9.639458863532965"><ele>1716.0</ele><time>2026-04-11T09:56:28Z</time></trkpt><trkpt lat="46.50599107775197" lon="9.639585143517175"><ele>1717.0</ele><time>2026-04-11T09:56:29Z</time></trkpt><trkpt lat="46.50586142012516" lon="9.639700615793053"><ele>1717.0</ele><time>2026-04-11T09:56:30Z</time></trkpt><trkpt lat="46.50572217628928" lon="9.639795265053111"><ele>1717.0</ele><time>2026-04-11T09:56:31Z</time></trkpt><trkpt lat="46.50557875465655" lon="9.6398970823017"><ele>1717.0</ele><time>2026-04-11T09:56:32Z</time></trkpt><trkpt lat="46.50542454386814" lon="9.639981413930716"><ele>1707.3333333333335</ele><time>2026-04-11T09:56:33Z</time></trkpt><trkpt lat="46.505266959435595" lon="9.640043073575828"><ele>1697.6666666666665</ele><time>2026-04-11T09:56:34Z</time></trkpt><trkpt lat="46.50511385110959" lon="9.640099428973299"><ele>1688.0</ele><time>2026-04-11T09:56:35Z</time></trkpt><trkpt lat="46.5049657026378" lon="9.640166819751975"><ele>1688.0</ele><time>2026-04-11T09:56:36Z</time></trkpt><trkpt lat="46.50483234768494" lon="9.64024085012286"><ele>1688.0</ele><time>2026-04-11T09:56:37Z</time></trkpt><trkpt lat="46.504707050841546" lon="9.64032937807374"><ele>1688.0</ele><time>2026-04-11T09:56:38Z</time></trkpt><trkpt lat="46.50458954107834" lon="9.6404327938718"><ele>1688.0</ele><time>2026-04-11T09:56:39Z</time></trkpt><trkpt lat="46.50447680499315" lon="9.640538736266967"><ele>1694.0</ele><time>2026-04-11T09:56:40Z</time></trkpt><trkpt lat="46.50436062378857" lon="9.640642085808212"><ele>1700.0</ele><time>2026-04-11T09:56:41Z</time></trkpt><trkpt lat="46.5042209768928" lon="9.640716670596426"><ele>1706.0</ele><time>2026-04-11T09:56:42Z</time></trkpt><trkpt lat="46.50405309692668" lon="9.640785037802415"><ele>1706.0</ele><time>2026-04-11T09:56:43Z</time></trkpt><trkpt lat="46.50387950597922" lon="9.640878928535283"><ele>1706.0</ele><time>2026-04-11T09:56:44Z</time></trkpt><trkpt lat="46.503711009881386" lon="9.640925219384247"><ele>1706.0</ele><time>2026-04-11T09:56:45Z</time></trkpt><trkpt lat="46.50356594590214" lon="9.640982113999494"><ele>1703.75</ele><time>2026-04-11T09:56:46Z</time></trkpt><trkpt lat="46.50343823629802" lon="9.641036516133775"><ele>1701.5</ele><time>2026-04-11T09:56:47Z</time></trkpt><trkpt lat="46.503314741109314" lon="9.641087487063823"><ele>1699.25</ele><time>2026-04-11T09:56:48Z</time></trkpt><trkpt lat="46.50319599597681" lon="9.6411311772535"><ele>1697.0</ele><time>2026-04-11T09:56:49Z</time></trkpt><trkpt lat="46.503081961055514" lon="9.641159484947663"><ele>1698.8</ele><time>2026-04-11T09:56:50Z</time></trkpt><trkpt lat="46.502973357103784" lon="9.641150389924151"><ele>1700.6</ele><time>2026-04-11T09:56:51Z</time></trkpt><trkpt lat="46.502871281144444" lon="9.641093844255035"><ele>1702.3999999999999</ele><time>2026-04-11T09:56:52Z</time></trkpt><trkpt lat="46.50278103191888" lon="9.64101981475375"><ele>1704.1999999999998</ele><time>2026-04-11T09:56:53Z</time></trkpt><trkpt lat="46.5026993460445" lon="9.640947266580941"><ele>1706.0</ele><time>2026-04-11T09:56:54Z</time></trkpt><trkpt lat="46.50261006619688" lon="9.640887066282275"><ele>1706.0</ele><time>2026-04-11T09:56:55Z</time></trkpt><trkpt lat="46.50250921270795" lon="9.640834740024722"><ele>1706.0</ele><time>2026-04-11T09:56:56Z</time></trkpt><trkpt lat="46.50240014980982" lon="9.640794038800903"><ele>1706.0</ele><time>2026-04-11T09:56:57Z</time></trkpt><trkpt lat="46.502294720516474" lon="9.640760849776273"><ele>1706.0</ele><time>2026-04-11T09:56:58Z</time></trkpt><trkpt lat="46.50219766595673" lon="9.640733695055939"><ele>1706.0</ele><time>2026-04-11T09:56:59Z</time></trkpt><trkpt lat="46.50211285409328" lon="9.64070315595713"><ele>1706.3333333333333</ele><time>2026-04-11T09:57:00Z</time></trkpt><trkpt lat="46.502030164309396" lon="9.640673201656213"><ele>1706.6666666666665</ele><time>2026-04-11T09:57:01Z</time></trkpt><trkpt lat="46.501949812397186" lon="9.640648044971032"><ele>1707.0</ele><time>2026-04-11T09:57:02Z</time></trkpt><trkpt lat="46.50187739022179" lon="9.640624157111263"><ele>1707.3333333333335</ele><time>2026-04-11T09:57:03Z</time></trkpt><trkpt lat="46.50179829847846" lon="9.640601288924872"><ele>1707.6666666666667</ele><time>2026-04-11T09:57:04Z</time></trkpt><trkpt lat="46.50171682304434" lon="9.640594578598147"><ele>1708.0</ele><time>2026-04-11T09:57:05Z</time></trkpt><trkpt lat="46.50163427691021" lon="9.640610765192479"><ele>1708.0</ele><time>2026-04-11T09:57:06Z</time></trkpt><trkpt lat="46.50155504193595" lon="9.640653380985432"><ele>1708.0000000000002</ele><time>2026-04-11T09:57:07Z</time></trkpt><trkpt lat="46.50148053463965" lon="9.640707995102497"><ele>1708.0000000000002</ele><time>2026-04-11T09:57:08Z</time></trkpt><trkpt lat="46.50140733361459" lon="9.640783245636163"><ele>1708.0</ele><time>2026-04-11T09:57:09Z</time></trkpt><trkpt lat="46.50133223269104" lon="9.640867396148586"><ele>1708.0</ele><time>2026-04-11T09:57:10Z</time></trkpt><trkpt lat="46.50125102115549" lon="9.640952390537208"><ele>1704.4</ele><time>2026-04-11T09:57:11Z</time></trkpt><trkpt lat="46.50116651965376" lon="9.6410403398909"><ele>1700.8000000000002</ele><time>2026-04-11T09:57:12Z</time></trkpt><trkpt lat="46.50107813717655" lon="9.641127725415478"><ele>1697.2</ele><time>2026-04-11T09:57:13Z</time></trkpt><trkpt lat="46.500977841499044" lon="9.641190256185771"><ele>1693.6</ele><time>2026-04-11T09:57:14Z</time></trkpt><trkpt lat="46.500867617137665" lon="9.641235511282158"><ele>1690.0</ele><time>2026-04-11T09:57:15Z</time></trkpt><trkpt lat="46.500746912581654" lon="9.641268406353646"><ele>1698.0</ele><time>2026-04-11T09:57:16Z</time></trkpt><trkpt lat="46.5006229544084" lon="9.641285268699294"><ele>1706.0</ele><time>2026-04-11T09:57:17Z</time></trkpt><trkpt lat="46.50049558618837" lon="9.6412948567853"><ele>1714.0</ele><time>2026-04-11T09:57:18Z</time></trkpt><trkpt lat="46.500368790976815" lon="9.641306886288595"><ele>1722.0</ele><time>2026-04-11T09:57:19Z</time></trkpt><trkpt lat="46.50023153433848" lon="9.641325339412884"><ele>1722.0</ele><time>2026-04-11T09:57:20Z</time></trkpt><trkpt lat="46.50008238410865" lon="9.641338047667823"><ele>1722.0</ele><time>2026-04-11T09:57:21Z</time></trkpt><trkpt lat="46.49991772462609" lon="9.641361404861415"><ele>1722.0</ele><time>2026-04-11T09:57:22Z</time></trkpt><trkpt lat="46.49972526136686" lon="9.641377331494859"><ele>1717.6666666666665</ele><time>2026-04-11T09:57:23Z</time></trkpt><trkpt lat="46.49951289002556" lon="9.641433980920354"><ele>1713.3333333333333</ele><time>2026-04-11T09:57:24Z</time></trkpt><trkpt lat="46.49929167777164" lon="9.641465703296689"><ele>1709.0</ele><time>2026-04-11T09:57:25Z</time></trkpt><trkpt lat="46.49908259962272" lon="9.641501015582035"><ele>1709.0</ele><time>2026-04-11T09:57:26Z</time></trkpt><trkpt lat="46.498870842149906" lon="9.641543510259426"><ele>1709.0</ele><time>2026-04-11T09:57:27Z</time></trkpt><trkpt lat="46.498670980894616" lon="9.641588350566394"><ele>1709.0</ele><time>2026-04-11T09:57:28Z</time></trkpt><trkpt lat="46.49848716085767" lon="9.64163049467216"><ele>1705.3333333333333</ele><time>2026-04-11T09:57:29Z</time></trkpt><trkpt lat="46.49831698419629" lon="9.641665589648333"><ele>1701.6666666666665</ele><time>2026-04-11T09:57:30Z</time></trkpt><trkpt lat="46.49816434455918" lon="9.64170615492147"><ele>1698.0</ele><time>2026-04-11T09:57:31Z</time></trkpt><trkpt lat="46.49801695789352" lon="9.641748887849598"><ele>1698.0</ele><time>2026-04-11T09:57:32Z</time></trkpt><trkpt lat="46.49783392591282" lon="9.641784382448174"><ele>1698.0</ele><time>2026-04-11T09:57:33Z</time></trkpt><trkpt lat="46.49770995781084" lon="9.641798449681065"><ele>1698.0</ele><time>2026-04-11T09:57:34Z</time></trkpt><trkpt lat="46.49760318149217" lon="9.641809446728855"><ele>1698.0</ele><time>2026-04-11T09:57:35Z</time></trkpt><trkpt lat="46.49749693853925" lon="9.641828443960607"><ele>1698.0</ele><time>2026-04-11T09:57:36Z</time></trkpt><trkpt lat="46.497397294170405" lon="9.641885928647394"><ele>1698.0</ele><time>2026-04-11T09:57:37Z</time></trkpt><trkpt lat="46.497301831229144" lon="9.641972641688131"><ele>1698.0</ele><time>2026-04-11T09:57:38Z</time></trkpt><trkpt lat="46.497230950214146" lon="9.642068633204591"><ele>1698.0</ele><time>2026-04-11T09:57:39Z</time></trkpt><trkpt lat="46.49715786523385" lon="9.642170533646798"><ele>1698.0</ele><time>2026-04-11T09:57:40Z</time></trkpt><trkpt lat="46.497083577699755" lon="9.642293046794578"><ele>1697.25</ele><time>2026-04-11T09:57:41Z</time></trkpt><trkpt lat="46.4970080218679" lon="9.642416356956103"><ele>1696.5</ele><time>2026-04-11T09:57:41.999Z</time></trkpt><trkpt lat="46.49691920915289" lon="9.6425412297602"><ele>1695.75</ele><time>2026-04-11T09:57:42.999Z</time></trkpt><trkpt lat="46.496832388916076" lon="9.642670025114805"><ele>1695.0</ele><time>2026-04-11T09:57:43.999Z</time></trkpt><trkpt lat="46.4967464413289" lon="9.642802700762434"><ele>1702.75</ele><time>2026-04-11T09:57:44.999Z</time></trkpt><trkpt lat="46.49665081298906" lon="9.642943610486352"><ele>1710.5</ele><time>2026-04-11T09:57:45.999Z</time></trkpt><trkpt lat="46.496556734164805" lon="9.643077505588398"><ele>1718.25</ele><time>2026-04-11T09:57:46.999Z</time></trkpt><trkpt lat="46.49646406508696" lon="9.643208995835211"><ele>1726.0</ele><time>2026-04-11T09:57:47.999Z</time></trkpt><trkpt lat="46.49637741091744" lon="9.643339146674915"><ele>1726.0</ele><time>2026-04-11T09:57:48.999Z</time></trkpt><trkpt lat="46.49629505398499" lon="9.643451473925357"><ele>1726.0</ele><time>2026-04-11T09:57:49.999Z</time></trkpt><trkpt lat="46.49621533849533" lon="9.643561152370431"><ele>1726.0</ele><time>2026-04-11T09:57:50.999Z</time></trkpt><trkpt lat="46.49613829209518" lon="9.643675972440542"><ele>1726.0</ele><time>2026-04-11T09:57:51.999Z</time></trkpt><trkpt lat="46.49605598528459" lon="9.643795958619297"><ele>1725.4</ele><time>2026-04-11T09:57:52.999Z</time></trkpt><trkpt lat="46.49597701275376" lon="9.643911538400785"><ele>1724.8</ele><time>2026-04-11T09:57:53.999Z</time></trkpt><trkpt lat="46.495902520791724" lon="9.644012552230786"><ele>1724.2000000000003</ele><time>2026-04-11T09:57:54.999Z</time></trkpt><trkpt lat="46.49583709635384" lon="9.644114660091503"><ele>1723.6000000000001</ele><time>2026-04-11T09:57:55.999Z</time></trkpt><trkpt lat="46.49578450227182" lon="9.644222946756765"><ele>1723.0</ele><time>2026-04-11T09:57:56.999Z</time></trkpt><trkpt lat="46.49573562874052" lon="9.64432497843907"><ele>1723.0000000000002</ele><time>2026-04-11T09:57:57.999Z</time></trkpt><trkpt lat="46.49568270712964" lon="9.644404967049683"><ele>1723.0</ele><time>2026-04-11T09:57:58.999Z</time></trkpt><trkpt lat="46.495634557907344" lon="9.6444700230581"><ele>1723.0</ele><time>2026-04-11T09:57:59.999Z</time></trkpt><trkpt lat="46.49552637910286" lon="9.644571558371759"><ele>1723.0</ele><time>2026-04-11T09:58:01.999Z</time></trkpt><trkpt lat="46.49545309616026" lon="9.644629413507433"><ele>1723.0000000000002</ele><time>2026-04-11T09:58:02.999Z</time></trkpt><trkpt lat="46.49537448123414" lon="9.644693878877742"><ele>1723.0</ele><time>2026-04-11T09:58:03.999Z</time></trkpt><trkpt lat="46.4952863717329" lon="9.644763000865442"><ele>1722.8000000000002</ele><time>2026-04-11T09:58:04.999Z</time></trkpt><trkpt lat="46.49519603538185" lon="9.644835228514124"><ele>1722.6000000000001</ele><time>2026-04-11T09:58:05.999Z</time></trkpt><trkpt lat="46.49510374533999" lon="9.644912511629649"><ele>1722.3999999999999</ele><time>2026-04-11T09:58:06.999Z</time></trkpt><trkpt lat="46.49500441388675" lon="9.644992575091768"><ele>1722.1999999999998</ele><time>2026-04-11T09:58:07.999Z</time></trkpt><trkpt lat="46.49490720557494" lon="9.645080815373642"><ele>1722.0</ele><time>2026-04-11T09:58:08.999Z</time></trkpt><trkpt lat="46.49481694810826" lon="9.645177166248477"><ele>1722.0</ele><time>2026-04-11T09:58:09.999Z</time></trkpt><trkpt lat="46.49473567349362" lon="9.645267329795585"><ele>1722.0</ele><time>2026-04-11T09:58:10.999Z</time></trkpt><trkpt lat="46.49465817208789" lon="9.645347538653771"><ele>1722.0</ele><time>2026-04-11T09:58:11.999Z</time></trkpt><trkpt lat="46.49458536655045" lon="9.645420023532214"><ele>1722.0</ele><time>2026-04-11T09:58:12.999Z</time></trkpt><trkpt lat="46.49451162616807" lon="9.645468727539594"><ele>1722.0</ele><time>2026-04-11T09:58:13.999Z</time></trkpt><trkpt lat="46.49443801002591" lon="9.64550261057902"><ele>1722.0</ele><time>2026-04-11T09:58:14.999Z</time></trkpt><trkpt lat="46.49436309571732" lon="9.645511220742305"><ele>1720.1666666666667</ele><time>2026-04-11T09:58:15.999Z</time></trkpt><trkpt lat="46.49429634524619" lon="9.645491377437967"><ele>1718.3333333333335</ele><time>2026-04-11T09:58:16.999Z</time></trkpt><trkpt lat="46.49423664810559" lon="9.645461015856203"><ele>1716.5</ele><time>2026-04-11T09:58:17.999Z</time></trkpt><trkpt lat="46.49417842798152" lon="9.645416745539944"><ele>1714.6666666666667</ele><time>2026-04-11T09:58:18.999Z</time></trkpt><trkpt lat="46.49411554794858" lon="9.64536380773247"><ele>1712.8333333333335</ele><time>2026-04-11T09:58:19.999Z</time></trkpt><trkpt lat="46.49404244541048" lon="9.64529920004091"><ele>1711.0</ele><time>2026-04-11T09:58:20.999Z</time></trkpt><trkpt lat="46.49393746281843" lon="9.64522451827784"><ele>1711.0</ele><time>2026-04-11T09:58:21.999Z</time></trkpt><trkpt lat="46.49379718680721" lon="9.64511232327971"><ele>1711.0</ele><time>2026-04-11T09:58:22.999Z</time></trkpt><trkpt lat="46.493622984219805" lon="9.645033142197345"><ele>1711.0</ele><time>2026-04-11T09:58:23.999Z</time></trkpt><trkpt lat="46.49344021695244" lon="9.644902644441443"><ele>1714.0</ele><time>2026-04-11T09:58:24.999Z</time></trkpt><trkpt lat="46.49325398935081" lon="9.644744094404393"><ele>1717.0</ele><time>2026-04-11T09:58:25.999Z</time></trkpt><trkpt lat="46.49308360168318" lon="9.6446059528539"><ele>1720.0</ele><time>2026-04-11T09:58:27Z</time></trkpt><trkpt lat="46.49292708731437" lon="9.64451613291054"><ele>1724.3333333333335</ele><time>2026-04-11T09:58:28Z</time></trkpt><trkpt lat="46.4927561181163" lon="9.644480048937373"><ele>1728.6666666666665</ele><time>2026-04-11T09:58:29Z</time></trkpt><trkpt lat="46.492560319992734" lon="9.64447431948781"><ele>1733.0</ele><time>2026-04-11T09:58:30Z</time></trkpt><trkpt lat="46.49236286199285" lon="9.644468767412619"><ele>1733.3333333333333</ele><time>2026-04-11T09:58:31Z</time></trkpt><trkpt lat="46.492170288158896" lon="9.644462175773858"><ele>1733.6666666666665</ele><time>2026-04-11T09:58:32Z</time></trkpt><trkpt lat="46.49199220120596" lon="9.644467691482545"><ele>1734.0</ele><time>2026-04-11T09:58:33Z</time></trkpt><trkpt lat="46.491825515484344" lon="9.644496147719602"><ele>1734.0</ele><time>2026-04-11T09:58:34Z</time></trkpt><trkpt lat="46.49169099357366" lon="9.644541234333907"><ele>1734.0</ele><time>2026-04-11T09:58:35Z</time></trkpt><trkpt lat="46.49155971746257" lon="9.64455824210362"><ele>1734.0</ele><time>2026-04-11T09:58:36Z</time></trkpt><trkpt lat="46.49142792886775" lon="9.644529316328963"><ele>1734.0</ele><time>2026-04-11T09:58:37Z</time></trkpt><trkpt lat="46.49132019478237" lon="9.64439563897968"><ele>1730.6666666666665</ele><time>2026-04-11T09:58:38Z</time></trkpt><trkpt lat="46.49122299218047" lon="9.644227617931175"><ele>1727.3333333333333</ele><time>2026-04-11T09:58:39Z</time></trkpt><trkpt lat="46.491163013127554" lon="9.644016580911796"><ele>1724.0</ele><time>2026-04-11T09:58:40Z</time></trkpt><trkpt lat="46.491125582167705" lon="9.643776274467518"><ele>1719.3333333333333</ele><time>2026-04-11T09:58:41Z</time></trkpt><trkpt lat="46.49107969181612" lon="9.643551197100354"><ele>1714.6666666666665</ele><time>2026-04-11T09:58:42Z</time></trkpt><trkpt lat="46.49104217154117" lon="9.643345327610154"><ele>1710.0</ele><time>2026-04-11T09:58:43Z</time></trkpt><trkpt lat="46.490964096653144" lon="9.643140532297117"><ele>1710.0</ele><time>2026-04-11T09:58:44Z</time></trkpt><trkpt lat="46.49085849521603" lon="9.642959076738054"><ele>1710.0</ele><time>2026-04-11T09:58:45Z</time></trkpt><trkpt lat="46.49072523351595" lon="9.64283218489466"><ele>1710.0</ele><time>2026-04-11T09:58:46Z</time></trkpt><trkpt lat="46.490571847364876" lon="9.642774574580674"><ele>1711.3333333333335</ele><time>2026-04-11T09:58:47Z</time></trkpt><trkpt lat="46.49041614216629" lon="9.642747136659697"><ele>1712.6666666666667</ele><time>2026-04-11T09:58:48Z</time></trkpt><trkpt lat="46.490254465004284" lon="9.642767860394923"><ele>1714.0</ele><time>2026-04-11T09:58:49Z</time></trkpt><trkpt lat="46.49009215125913" lon="9.642809419502592"><ele>1714.0</ele><time>2026-04-11T09:58:50Z</time></trkpt><trkpt lat="46.48995380161838" lon="9.642834970811123"><ele>1714.0</ele><time>2026-04-11T09:58:51Z</time></trkpt><trkpt lat="46.489832185248325" lon="9.64281685209744"><ele>1714.0</ele><time>2026-04-11T09:58:52Z</time></trkpt><trkpt lat="46.48972678312094" lon="9.642734464474572"><ele>1714.0</ele><time>2026-04-11T09:58:53Z</time></trkpt><trkpt lat="46.48966696803162" lon="9.642545618383147"><ele>1713.6666666666667</ele><time>2026-04-11T09:58:54Z</time></trkpt><trkpt lat="46.48958868124932" lon="9.642346044731324"><ele>1713.3333333333335</ele><time>2026-04-11T09:58:55Z</time></trkpt><trkpt lat="46.48953672569866" lon="9.642118281328298"><ele>1713.0</ele><time>2026-04-11T09:58:56Z</time></trkpt><trkpt lat="46.489461628407184" lon="9.641912913370469"><ele>1702.6666666666665</ele><time>2026-04-11T09:58:57Z</time></trkpt><trkpt lat="46.48934656377098" lon="9.641766670386154"><ele>1692.3333333333333</ele><time>2026-04-11T09:58:58Z</time></trkpt><trkpt lat="46.489204777921636" lon="9.64166228098432"><ele>1682.0</ele><time>2026-04-11T09:58:59Z</time></trkpt><trkpt lat="46.489052760707715" lon="9.641619923120963"><ele>1682.0</ele><time>2026-04-11T09:59:00Z</time></trkpt><trkpt lat="46.4888915559291" lon="9.641646859187631"><ele>1682.0</ele><time>2026-04-11T09:59:01Z</time></trkpt><trkpt lat="46.48872960785016" lon="9.64172613767396"><ele>1682.0</ele><time>2026-04-11T09:59:02Z</time></trkpt><trkpt lat="46.48856174567016" lon="9.641810573388355"><ele>1682.3333333333333</ele><time>2026-04-11T09:59:03Z</time></trkpt><trkpt lat="46.48837590802339" lon="9.641860018085211"><ele>1682.6666666666665</ele><time>2026-04-11T09:59:04Z</time></trkpt><trkpt lat="46.4881785975458" lon="9.641866694002054"><ele>1683.0</ele><time>2026-04-11T09:59:05Z</time></trkpt><trkpt lat="46.48797652809083" lon="9.641822436843043"><ele>1681.3333333333335</ele><time>2026-04-11T09:59:06Z</time></trkpt><trkpt lat="46.487781203925614" lon="9.64175800449046"><ele>1679.6666666666667</ele><time>2026-04-11T09:59:07Z</time></trkpt><trkpt lat="46.48758675621502" lon="9.64168029854384"><ele>1678.0</ele><time>2026-04-11T09:59:08Z</time></trkpt><trkpt lat="46.48738858292422" lon="9.641612812158757"><ele>1678.0</ele><time>2026-04-11T09:59:09Z</time></trkpt><trkpt lat="46.48719135789709" lon="9.64154953771276"><ele>1678.0</ele><time>2026-04-11T09:59:10Z</time></trkpt><trkpt lat="46.486997657681606" lon="9.641485185007175"><ele>1678.0</ele><time>2026-04-11T09:59:11Z</time></trkpt><trkpt lat="46.486807081693115" lon="9.641432572649416"><ele>1682.0</ele><time>2026-04-11T09:59:12Z</time></trkpt><trkpt lat="46.48661940564066" lon="9.641433240261346"><ele>1686.0</ele><time>2026-04-11T09:59:13Z</time></trkpt><trkpt lat="46.48643155878008" lon="9.641472571817738"><ele>1690.0</ele><time>2026-04-11T09:59:14Z</time></trkpt><trkpt lat="46.48624434499019" lon="9.641504703380692"><ele>1694.6666666666667</ele><time>2026-04-11T09:59:15Z</time></trkpt><trkpt lat="46.486054045290885" lon="9.64150599900629"><ele>1699.3333333333335</ele><time>2026-04-11T09:59:16Z</time></trkpt><trkpt lat="46.485864227759805" lon="9.641469152773192"><ele>1704.0</ele><time>2026-04-11T09:59:17Z</time></trkpt><trkpt lat="46.48567821741949" lon="9.641379260379598"><ele>1704.0</ele><time>2026-04-11T09:59:18Z</time></trkpt><trkpt lat="46.48550054238113" lon="9.64126378936928"><ele>1704.0</ele><time>2026-04-11T09:59:19Z</time></trkpt><trkpt lat="46.48531727301469" lon="9.641158474385781"><ele>1704.0</ele><time>2026-04-11T09:59:20Z</time></trkpt><trkpt lat="46.48513174787706" lon="9.641082747277533"><ele>1710.0</ele><time>2026-04-11T09:59:21Z</time></trkpt><trkpt lat="46.484943034790156" lon="9.641043458378725"><ele>1716.0</ele><time>2026-04-11T09:59:22Z</time></trkpt><trkpt lat="46.48475275832653" lon="9.64103127669408"><ele>1722.0</ele><time>2026-04-11T09:59:23Z</time></trkpt><trkpt lat="46.48457715976165" lon="9.641021799538027"><ele>1722.3333333333335</ele><time>2026-04-11T09:59:24Z</time></trkpt><trkpt lat="46.48441566573432" lon="9.641035444391065"><ele>1722.6666666666667</ele><time>2026-04-11T09:59:25Z</time></trkpt><trkpt lat="46.48426145416223" lon="9.641106112952231"><ele>1723.0</ele><time>2026-04-11T09:59:26Z</time></trkpt><trkpt lat="46.48412307079782" lon="9.641236872093776"><ele>1722.0</ele><time>2026-04-11T09:59:27Z</time></trkpt><trkpt lat="46.483997363094694" lon="9.641369699631221"><ele>1721.0</ele><time>2026-04-11T09:59:28Z</time></trkpt><trkpt lat="46.4838395384656" lon="9.641447248566468"><ele>1720.0</ele><time>2026-04-11T09:59:29Z</time></trkpt><trkpt lat="46.483651994273345" lon="9.64145482265925"><ele>1717.6666666666667</ele><time>2026-04-11T09:59:30Z</time></trkpt><trkpt lat="46.48345829157795" lon="9.641415091784426"><ele>1715.3333333333335</ele><time>2026-04-11T09:59:31Z</time></trkpt><trkpt lat="46.483269706452504" lon="9.64136153746263"><ele>1713.0</ele><time>2026-04-11T09:59:32Z</time></trkpt><trkpt lat="46.48308097829924" lon="9.64134694329695"><ele>1712.3333333333335</ele><time>2026-04-11T09:59:33Z</time></trkpt><trkpt lat="46.48289063188589" lon="9.641394622983961"><ele>1711.6666666666667</ele><time>2026-04-11T09:59:34Z</time></trkpt><trkpt lat="46.48269704420804" lon="9.641487713247201"><ele>1711.0</ele><time>2026-04-11T09:59:35Z</time></trkpt><trkpt lat="46.48250775391041" lon="9.641591410592344"><ele>1711.0</ele><time>2026-04-11T09:59:36Z</time></trkpt><trkpt lat="46.48231097504966" lon="9.64168103549042"><ele>1711.0</ele><time>2026-04-11T09:59:37Z</time></trkpt><trkpt lat="46.48210485481259" lon="9.641715040497328"><ele>1711.0</ele><time>2026-04-11T09:59:38Z</time></trkpt><trkpt lat="46.4818962496626" lon="9.64169412464473"><ele>1711.6666666666667</ele><time>2026-04-11T09:59:39Z</time></trkpt><trkpt lat="46.4816902232626" lon="9.641657698914225"><ele>1712.3333333333335</ele><time>2026-04-11T09:59:39.999Z</time></trkpt><trkpt lat="46.48148728065442" lon="9.64162752803124"><ele>1713.0</ele><time>2026-04-11T09:59:40.999Z</time></trkpt><trkpt lat="46.481283515480264" lon="9.641607140476696"><ele>1715.3333333333335</ele><time>2026-04-11T09:59:41.999Z</time></trkpt><trkpt lat="46.481076282485006" lon="9.641593754090662"><ele>1717.6666666666667</ele><time>2026-04-11T09:59:42.999Z</time></trkpt><trkpt lat="46.48086792022806" lon="9.641580420243523"><ele>1720.0</ele><time>2026-04-11T09:59:43.999Z</time></trkpt><trkpt lat="46.480658792825" lon="9.641573238970075"><ele>1720.0</ele><time>2026-04-11T09:59:44.999Z</time></trkpt><trkpt lat="46.4804497672904" lon="9.641583601962283"><ele>1720.0</ele><time>2026-04-11T09:59:45.999Z</time></trkpt><trkpt lat="46.480243145080436" lon="9.641626174618134"><ele>1720.0</ele><time>2026-04-11T09:59:46.999Z</time></trkpt><trkpt lat="46.48004116683213" lon="9.641706997675058"><ele>1722.3333333333335</ele><time>2026-04-11T09:59:47.999Z</time></trkpt><trkpt lat="46.47984651122909" lon="9.64181398515498"><ele>1724.6666666666665</ele><time>2026-04-11T09:59:48.999Z</time></trkpt><trkpt lat="46.4796626414526" lon="9.641948298028943"><ele>1727.0</ele><time>2026-04-11T09:59:49.999Z</time></trkpt><trkpt lat="46.47949134539539" lon="9.642116183771323"><ele>1728.3333333333333</ele><time>2026-04-11T09:59:50.999Z</time></trkpt><trkpt lat="46.4793319390525" lon="9.642308160463614"><ele>1729.6666666666665</ele><time>2026-04-11T09:59:51.999Z</time></trkpt><trkpt lat="46.47918342132607" lon="9.642517720412277"><ele>1731.0</ele><time>2026-04-11T09:59:52.999Z</time></trkpt><trkpt lat="46.479051098982005" lon="9.64274408343644"><ele>1730.0</ele><time>2026-04-11T09:59:53.999Z</time></trkpt><trkpt lat="46.47893934918551" lon="9.642998664441837"><ele>1729.0</ele><time>2026-04-11T09:59:54.999Z</time></trkpt><trkpt lat="46.47884722446102" lon="9.643272570227868"><ele>1728.0</ele><time>2026-04-11T09:59:55.999Z</time></trkpt><trkpt lat="46.47877184255357" lon="9.643562496235335"><ele>1736.3333333333335</ele><time>2026-04-11T09:59:56.999Z</time></trkpt><trkpt lat="46.47870936186428" lon="9.643858655122763"><ele>1744.6666666666667</ele><time>2026-04-11T09:59:57.999Z</time></trkpt><trkpt lat="46.478660875659074" lon="9.644170753389345"><ele>1753.0</ele><time>2026-04-11T09:59:58.999Z</time></trkpt><trkpt lat="46.478608030955336" lon="9.644486034271596"><ele>1753.0</ele><time>2026-04-11T09:59:59.999Z</time></trkpt><trkpt lat="46.47853220263109" lon="9.644767000436058"><ele>1753.0</ele><time>2026-04-11T10:00:00.999Z</time></trkpt><trkpt lat="46.478419389461244" lon="9.644990458111305"><ele>1753.0</ele><time>2026-04-11T10:00:01.999Z</time></trkpt><trkpt lat="46.47829530013288" lon="9.645209094427248"><ele>1750.0</ele><time>2026-04-11T10:00:02.999Z</time></trkpt><trkpt lat="46.47813711264444" lon="9.645384838563514"><ele>1747.0</ele><time>2026-04-11T10:00:03.999Z</time></trkpt><trkpt lat="46.47793799630745" lon="9.645485836425147"><ele>1744.0</ele><time>2026-04-11T10:00:04.999Z</time></trkpt><trkpt lat="46.47773593034194" lon="9.64557020082573"><ele>1752.3333333333335</ele><time>2026-04-11T10:00:05.999Z</time></trkpt><trkpt lat="46.477525624360496" lon="9.645623226918895"><ele>1760.6666666666665</ele><time>2026-04-11T10:00:06.999Z</time></trkpt><trkpt lat="46.4773149476507" lon="9.645669161644086"><ele>1769.0</ele><time>2026-04-11T10:00:07.999Z</time></trkpt><trkpt lat="46.47710443896511" lon="9.645731319683984"><ele>1771.3333333333333</ele><time>2026-04-11T10:00:08.999Z</time></trkpt><trkpt lat="46.47690098558254" lon="9.645798018494379"><ele>1773.6666666666665</ele><time>2026-04-11T10:00:09.999Z</time></trkpt><trkpt lat="46.476690464629286" lon="9.645900454341655"><ele>1776.0</ele><time>2026-04-11T10:00:10.999Z</time></trkpt><trkpt lat="46.476481731077314" lon="9.64599360298686"><ele>1775.0</ele><time>2026-04-11T10:00:11.999Z</time></trkpt><trkpt lat="46.47626928470242" lon="9.646100994563923"><ele>1774.0</ele><time>2026-04-11T10:00:12.999Z</time></trkpt><trkpt lat="46.47606620419525" lon="9.646213562074447"><ele>1773.0</ele><time>2026-04-11T10:00:13.999Z</time></trkpt><trkpt lat="46.47586086384446" lon="9.646325293285864"><ele>1773.0</ele><time>2026-04-11T10:00:14.999Z</time></trkpt><trkpt lat="46.475656864579676" lon="9.646428979998563"><ele>1773.0</ele><time>2026-04-11T10:00:15.999Z</time></trkpt><trkpt lat="46.475450038048315" lon="9.646544753650828"><ele>1773.0</ele><time>2026-04-11T10:00:16.999Z</time></trkpt><trkpt lat="46.47524759000534" lon="9.646659168914963"><ele>1772.3333333333335</ele><time>2026-04-11T10:00:17.999Z</time></trkpt><trkpt lat="46.475038083499406" lon="9.646768767034136"><ele>1771.6666666666667</ele><time>2026-04-11T10:00:18.999Z</time></trkpt><trkpt lat="46.47483270525532" lon="9.6468726666298"><ele>1771.0</ele><time>2026-04-11T10:00:19.999Z</time></trkpt><trkpt lat="46.47462736184255" lon="9.646966922439512"><ele>1771.6666666666667</ele><time>2026-04-11T10:00:20.999Z</time></trkpt><trkpt lat="46.474427342099396" lon="9.647060776356566"><ele>1772.3333333333335</ele><time>2026-04-11T10:00:21.999Z</time></trkpt><trkpt lat="46.47422285655035" lon="9.64716102319648"><ele>1773.0</ele><time>2026-04-11T10:00:22.999Z</time></trkpt><trkpt lat="46.47403225373805" lon="9.647257095542999"><ele>1773.0</ele><time>2026-04-11T10:00:23.999Z</time></trkpt><trkpt lat="46.473840976900824" lon="9.647399864888756"><ele>1773.0</ele><time>2026-04-11T10:00:24.999Z</time></trkpt><trkpt lat="46.47366705658836" lon="9.647588519051666"><ele>1773.0</ele><time>2026-04-11T10:00:25.999Z</time></trkpt><trkpt lat="46.47353089584608" lon="9.647835882954233"><ele>1772.6666666666665</ele><time>2026-04-11T10:00:26.999Z</time></trkpt><trkpt lat="46.47343694202729" lon="9.648099209420684"><ele>1772.3333333333333</ele><time>2026-04-11T10:00:27.999Z</time></trkpt><trkpt lat="46.47337524523157" lon="9.648358693409463"><ele>1772.0</ele><time>2026-04-11T10:00:28.999Z</time></trkpt><trkpt lat="46.47333831724362" lon="9.648628691823893"><ele>1770.3333333333333</ele><time>2026-04-11T10:00:29.999Z</time></trkpt><trkpt lat="46.47330617089437" lon="9.648911904832433"><ele>1768.6666666666665</ele><time>2026-04-11T10:00:30.999Z</time></trkpt><trkpt lat="46.473280677299925" lon="9.649144314733652"><ele>1767.0</ele><time>2026-04-11T10:00:31.999Z</time></trkpt><trkpt lat="46.47319027994807" lon="9.64935416868618"><ele>1768.3333333333335</ele><time>2026-04-11T10:00:33Z</time></trkpt><trkpt lat="46.47305552519177" lon="9.649526410489793"><ele>1769.6666666666667</ele><time>2026-04-11T10:00:34Z</time></trkpt><trkpt lat="46.47289769143358" lon="9.649635606656952"><ele>1771.0</ele><time>2026-04-11T10:00:35Z</time></trkpt><trkpt lat="46.47271349278132" lon="9.64966679522541"><ele>1771.6666666666667</ele><time>2026-04-11T10:00:36Z</time></trkpt><trkpt lat="46.47251681334137" lon="9.649636293138371"><ele>1772.3333333333335</ele><time>2026-04-11T10:00:37Z</time></trkpt><trkpt lat="46.47232921898971" lon="9.649557168436191"><ele>1773.0</ele><time>2026-04-11T10:00:38Z</time></trkpt><trkpt lat="46.472164627790924" lon="9.649502564422578"><ele>1773.0</ele><time>2026-04-11T10:00:39Z</time></trkpt><trkpt lat="46.47201758734672" lon="9.649507755855975"><ele>1773.0</ele><time>2026-04-11T10:00:40Z</time></trkpt><trkpt lat="46.47188747994609" lon="9.649530957463682"><ele>1773.0</ele><time>2026-04-11T10:00:41Z</time></trkpt><trkpt lat="46.47177661310552" lon="9.649560558830617"><ele>1773.0</ele><time>2026-04-11T10:00:42Z</time></trkpt><trkpt lat="46.47166508272338" lon="9.649578608654101"><ele>1773.0</ele><time>2026-04-11T10:00:43Z</time></trkpt><trkpt lat="46.47155046025106" lon="9.649588944125151"><ele>1773.0000000000002</ele><time>2026-04-11T10:00:44Z</time></trkpt><trkpt lat="46.47144121409469" lon="9.649606878844965"><ele>1773.0000000000002</ele><time>2026-04-11T10:00:45Z</time></trkpt><trkpt lat="46.47132976619241" lon="9.649627321902116"><ele>1773.0</ele><time>2026-04-11T10:00:46Z</time></trkpt><trkpt lat="46.47121855093911" lon="9.649641576249794"><ele>1773.0</ele><time>2026-04-11T10:00:47Z</time></trkpt><trkpt lat="46.47110289349411" lon="9.64966698325143"><ele>1771.75</ele><time>2026-04-11T10:00:48Z</time></trkpt><trkpt lat="46.47098352915303" lon="9.649693555612929"><ele>1770.5</ele><time>2026-04-11T10:00:49Z</time></trkpt><trkpt lat="46.47086658832058" lon="9.649715813164391"><ele>1769.25</ele><time>2026-04-11T10:00:50Z</time></trkpt><trkpt lat="46.47075015575019" lon="9.649733287828914"><ele>1768.0</ele><time>2026-04-11T10:00:51Z</time></trkpt><trkpt lat="46.47063448393678" lon="9.649745738048392"><ele>1768.0</ele><time>2026-04-11T10:00:52Z</time></trkpt><trkpt lat="46.47052161786584" lon="9.649759609176058"><ele>1768.0</ele><time>2026-04-11T10:00:53Z</time></trkpt><trkpt lat="46.47040905755567" lon="9.649777530480316"><ele>1768.0</ele><time>2026-04-11T10:00:54Z</time></trkpt><trkpt lat="46.47029598173669" lon="9.649797515232143"><ele>1768.0</ele><time>2026-04-11T10:00:55Z</time></trkpt><trkpt lat="46.470184288640795" lon="9.649822206178193"><ele>1768.0</ele><time>2026-04-11T10:00:56Z</time></trkpt><trkpt lat="46.47007251742188" lon="9.649845750568975"><ele>1768.0</ele><time>2026-04-11T10:00:57Z</time></trkpt><trkpt lat="46.46995860147933" lon="9.64986585820148"><ele>1768.0</ele><time>2026-04-11T10:00:58Z</time></trkpt><trkpt lat="46.469845389401584" lon="9.649887251908623"><ele>1768.0</ele><time>2026-04-11T10:00:59Z</time></trkpt><trkpt lat="46.46973356200884" lon="9.64991016114367"><ele>1768.0</ele><time>2026-04-11T10:01:00Z</time></trkpt><trkpt lat="46.469627422855936" lon="9.649930664419037"><ele>1768.0000000000002</ele><time>2026-04-11T10:01:01Z</time></trkpt><trkpt lat="46.46952888126154" lon="9.649951330876037"><ele>1768.0000000000002</ele><time>2026-04-11T10:01:02Z</time></trkpt><trkpt lat="46.469439326830354" lon="9.649966687760722"><ele>1768.0</ele><time>2026-04-11T10:01:03Z</time></trkpt><trkpt lat="46.46935415363962" lon="9.649980777365682"><ele>1768.0</ele><time>2026-04-11T10:01:04Z</time></trkpt><trkpt lat="46.46927680946708" lon="9.64999147059876"><ele>1768.4285714285716</ele><time>2026-04-11T10:01:05Z</time></trkpt><trkpt lat="46.46920251254506" lon="9.650002651178816"><ele>1768.857142857143</ele><time>2026-04-11T10:01:06Z</time></trkpt><trkpt lat="46.46912617491149" lon="9.650018024367007"><ele>1769.2857142857142</ele><time>2026-04-11T10:01:07Z</time></trkpt><trkpt lat="46.46905154145736" lon="9.650032595454874"><ele>1769.7142857142858</ele><time>2026-04-11T10:01:08Z</time></trkpt><trkpt lat="46.46898147079317" lon="9.650061793706087"><ele>1770.142857142857</ele><time>2026-04-11T10:01:09Z</time></trkpt><trkpt lat="46.46892112813818" lon="9.650125700038233"><ele>1770.5714285714287</ele><time>2026-04-11T10:01:10Z</time></trkpt><trkpt lat="46.46886372847526" lon="9.650195475379904"><ele>1771.0</ele><time>2026-04-11T10:01:11Z</time></trkpt><trkpt lat="46.46880732487378" lon="9.65027839754304"><ele>1771.0000000000002</ele><time>2026-04-11T10:01:12Z</time></trkpt><trkpt lat="46.46874302196221" lon="9.65032794986757"><ele>1771.0</ele><time>2026-04-11T10:01:13Z</time></trkpt><trkpt lat="46.46868483258642" lon="9.65036800375327"><ele>1771.0</ele><time>2026-04-11T10:01:14Z</time></trkpt><trkpt lat="46.46861729591165" lon="9.65038244871703"><ele>1771.0</ele><time>2026-04-11T10:01:15Z</time></trkpt><trkpt lat="46.46854614652622" lon="9.650353420208772"><ele>1771.0000000000002</ele><time>2026-04-11T10:01:16Z</time></trkpt><trkpt lat="46.4684543049025" lon="9.650342966874886"><ele>1771.0</ele><time>2026-04-11T10:01:17Z</time></trkpt><trkpt lat="46.46835809355556" lon="9.650351474729177"><ele>1771.0000000000002</ele><time>2026-04-11T10:01:18Z</time></trkpt><trkpt lat="46.46826466357381" lon="9.650369794332766"><ele>1771.0</ele><time>2026-04-11T10:01:19Z</time></trkpt><trkpt lat="46.468183662357966" lon="9.650384091741698"><ele>1771.0</ele><time>2026-04-11T10:01:20Z</time></trkpt><trkpt lat="46.46810738763192" lon="9.650393722572758"><ele>1771.0</ele><time>2026-04-11T10:01:21Z</time></trkpt><trkpt lat="46.468033914468066" lon="9.650404690877386"><ele>1771.0000000000002</ele><time>2026-04-11T10:01:22Z</time></trkpt><trkpt lat="46.46795804978716" lon="9.650412527817322"><ele>1771.0</ele><time>2026-04-11T10:01:23Z</time></trkpt><trkpt lat="46.467882846230715" lon="9.65042522666812"><ele>1771.8333333333335</ele><time>2026-04-11T10:01:24Z</time></trkpt><trkpt lat="46.46780592345641" lon="9.650439736927844"><ele>1772.6666666666667</ele><time>2026-04-11T10:01:25Z</time></trkpt><trkpt lat="46.467729789343146" lon="9.650461585496469"><ele>1773.5</ele><time>2026-04-11T10:01:26Z</time></trkpt><trkpt lat="46.46765422158895" lon="9.65050778903209"><ele>1774.3333333333335</ele><time>2026-04-11T10:01:27Z</time></trkpt><trkpt lat="46.4675768937511" lon="9.650575859541387"><ele>1775.1666666666667</ele><time>2026-04-11T10:01:28Z</time></trkpt><trkpt lat="46.46750353768433" lon="9.650655489942572"><ele>1776.0</ele><time>2026-04-11T10:01:29Z</time></trkpt><trkpt lat="46.4674274699025" lon="9.650752199682172"><ele>1776.0</ele><time>2026-04-11T10:01:30Z</time></trkpt><trkpt lat="46.467328413655444" lon="9.650852415072759"><ele>1776.0</ele><time>2026-04-11T10:01:31Z</time></trkpt><trkpt lat="46.46722765696258" lon="9.650958189322848"><ele>1776.0</ele><time>2026-04-11T10:01:32Z</time></trkpt><trkpt lat="46.46712986243161" lon="9.65106197133656"><ele>1776.0</ele><time>2026-04-11T10:01:33Z</time></trkpt><trkpt lat="46.4670305847142" lon="9.651171703771462"><ele>1778.0</ele><time>2026-04-11T10:01:34Z</time></trkpt><trkpt lat="46.46693620193195" lon="9.6512927243146"><ele>1780.0</ele><time>2026-04-11T10:01:35Z</time></trkpt><trkpt lat="46.466838467250554" lon="9.651431234452089"><ele>1782.0</ele><time>2026-04-11T10:01:36Z</time></trkpt><trkpt lat="46.46675352535517" lon="9.651614627489185"><ele>1784.0</ele><time>2026-04-11T10:01:37Z</time></trkpt><trkpt lat="46.46668541072176" lon="9.651828132687543"><ele>1784.6666666666665</ele><time>2026-04-11T10:01:38Z</time></trkpt><trkpt lat="46.466636517600286" lon="9.652073732760117"><ele>1785.3333333333335</ele><time>2026-04-11T10:01:39Z</time></trkpt><trkpt lat="46.466609608733684" lon="9.652320041099474"><ele>1786.0</ele><time>2026-04-11T10:01:40Z</time></trkpt><trkpt lat="46.466586848454305" lon="9.652568782127066"><ele>1783.6666666666667</ele><time>2026-04-11T10:01:40.999Z</time></trkpt><trkpt lat="46.466554259439064" lon="9.652800451191261"><ele>1781.3333333333335</ele><time>2026-04-11T10:01:41.999Z</time></trkpt><trkpt lat="46.46649383089877" lon="9.652993378611828"><ele>1779.0</ele><time>2026-04-11T10:01:42.999Z</time></trkpt><trkpt lat="46.46639290420623" lon="9.6531556721318"><ele>1783.3333333333335</ele><time>2026-04-11T10:01:43.999Z</time></trkpt><trkpt lat="46.466250811289356" lon="9.653286764827403"><ele>1787.6666666666667</ele><time>2026-04-11T10:01:44.999Z</time></trkpt><trkpt lat="46.46607206861483" lon="9.653346556966772"><ele>1792.0</ele><time>2026-04-11T10:01:45.999Z</time></trkpt><trkpt lat="46.46588568252187" lon="9.653352430198074"><ele>1792.0</ele><time>2026-04-11T10:01:46.999Z</time></trkpt><trkpt lat="46.46568710391815" lon="9.65331924529961"><ele>1792.0</ele><time>2026-04-11T10:01:47.999Z</time></trkpt><trkpt lat="46.465491209450434" lon="9.653319758065496"><ele>1792.0</ele><time>2026-04-11T10:01:48.999Z</time></trkpt><trkpt lat="46.465298791306004" lon="9.653339923933313"><ele>1795.0</ele><time>2026-04-11T10:01:49.999Z</time></trkpt><trkpt lat="46.465104416220846" lon="9.653356993795487"><ele>1798.0</ele><time>2026-04-11T10:01:50.999Z</time></trkpt><trkpt lat="46.464913718481924" lon="9.653414049060409"><ele>1801.0</ele><time>2026-04-11T10:01:51.999Z</time></trkpt><trkpt lat="46.46473880037227" lon="9.653549953210534"><ele>1800.0</ele><time>2026-04-11T10:01:52.999Z</time></trkpt><trkpt lat="46.46457404393259" lon="9.653715554332571"><ele>1799.0</ele><time>2026-04-11T10:01:53.999Z</time></trkpt><trkpt lat="46.46440953747995" lon="9.653884956392934"><ele>1798.0</ele><time>2026-04-11T10:01:54.999Z</time></trkpt><trkpt lat="46.464239224785715" lon="9.65404324975704"><ele>1798.0</ele><time>2026-04-11T10:01:55.999Z</time></trkpt><trkpt lat="46.46406453494614" lon="9.654199901790975"><ele>1798.0</ele><time>2026-04-11T10:01:56.999Z</time></trkpt><trkpt lat="46.463885107298374" lon="9.654355640825285"><ele>1798.0</ele><time>2026-04-11T10:01:57.999Z</time></trkpt><trkpt lat="46.463712981389754" lon="9.654500820973109"><ele>1798.6666666666667</ele><time>2026-04-11T10:01:58.999Z</time></trkpt><trkpt lat="46.463552839550566" lon="9.654639055755023"><ele>1799.3333333333335</ele><time>2026-04-11T10:01:59.999Z</time></trkpt><trkpt lat="46.463398936051526" lon="9.654778197729167"><ele>1800.0</ele><time>2026-04-11T10:02:00.999Z</time></trkpt><trkpt lat="46.463254775995445" lon="9.654923971694666"><ele>1800.0</ele><time>2026-04-11T10:02:01.999Z</time></trkpt><trkpt lat="46.46313890315556" lon="9.655084606981381"><ele>1800.0</ele><time>2026-04-11T10:02:02.999Z</time></trkpt><trkpt lat="46.463061988926" lon="9.655287636799631"><ele>1800.0</ele><time>2026-04-11T10:02:03.999Z</time></trkpt><trkpt lat="46.46302835535611" lon="9.655514493420572"><ele>1799.0</ele><time>2026-04-11T10:02:04.999Z</time></trkpt><trkpt lat="46.463037208730526" lon="9.655761928848117"><ele>1798.0</ele><time>2026-04-11T10:02:05.999Z</time></trkpt><trkpt lat="46.4630799018134" lon="9.656001742930137"><ele>1797.0</ele><time>2026-04-11T10:02:06.999Z</time></trkpt><trkpt lat="46.463130580691015" lon="9.656219620683014"><ele>1797.0</ele><time>2026-04-11T10:02:07.999Z</time></trkpt><trkpt lat="46.463165734762626" lon="9.656448191422905"><ele>1797.0</ele><time>2026-04-11T10:02:08.999Z</time></trkpt><trkpt lat="46.46318117480763" lon="9.656694234962796"><ele>1797.0</ele><time>2026-04-11T10:02:09.999Z</time></trkpt><trkpt lat="46.46318435444477" lon="9.656947273216266"><ele>1797.6666666666665</ele><time>2026-04-11T10:02:10.999Z</time></trkpt><trkpt lat="46.46318334361924" lon="9.657192803018189"><ele>1798.3333333333333</ele><time>2026-04-11T10:02:11.999Z</time></trkpt><trkpt lat="46.463183688049256" lon="9.657431837389602"><ele>1799.0</ele><time>2026-04-11T10:02:12.999Z</time></trkpt><trkpt lat="46.46318617198724" lon="9.657660918226247"><ele>1799.5</ele><time>2026-04-11T10:02:13.999Z</time></trkpt><trkpt lat="46.463195609391946" lon="9.65787038416074"><ele>1800.0</ele><time>2026-04-11T10:02:14.999Z</time></trkpt><trkpt lat="46.46322990463552" lon="9.658068762524973"><ele>1800.5</ele><time>2026-04-11T10:02:15.999Z</time></trkpt><trkpt lat="46.46331127751448" lon="9.65823209506446"><ele>1801.0</ele><time>2026-04-11T10:02:16.999Z</time></trkpt><trkpt lat="46.463428024005886" lon="9.658370766616887"><ele>1801.0</ele><time>2026-04-11T10:02:17.999Z</time></trkpt><trkpt lat="46.463579718411275" lon="9.658441929890039"><ele>1801.0</ele><time>2026-04-11T10:02:18.999Z</time></trkpt><trkpt lat="46.46374695817622" lon="9.658440443604833"><ele>1801.0</ele><time>2026-04-11T10:02:19.999Z</time></trkpt><trkpt lat="46.46390993612509" lon="9.658378708419574"><ele>1802.3333333333335</ele><time>2026-04-11T10:02:20.999Z</time></trkpt><trkpt lat="46.46406779914845" lon="9.658304755982275"><ele>1803.6666666666665</ele><time>2026-04-11T10:02:21.999Z</time></trkpt><trkpt lat="46.46422275941934" lon="9.658244618079744"><ele>1805.0</ele><time>2026-04-11T10:02:22.999Z</time></trkpt><trkpt lat="46.46435746681688" lon="9.658196145640177"><ele>1805.0</ele><time>2026-04-11T10:02:23.999Z</time></trkpt><trkpt lat="46.46445389030811" lon="9.658173693767052"><ele>1805.0</ele><time>2026-04-11T10:02:24.999Z</time></trkpt><trkpt lat="46.46452597590456" lon="9.658201487548194"><ele>1805.0</ele><time>2026-04-11T10:02:25.999Z</time></trkpt><trkpt lat="46.46457138313733" lon="9.658291853734744"><ele>1805.0</ele><time>2026-04-11T10:02:26.999Z</time></trkpt><trkpt lat="46.46458097626914" lon="9.658426074077372"><ele>1805.0</ele><time>2026-04-11T10:02:27.999Z</time></trkpt><trkpt lat="46.46453733477489" lon="9.658570282641392"><ele>1808.0</ele><time>2026-04-11T10:02:28.999Z</time></trkpt><trkpt lat="46.46445704515166" lon="9.658713141200748"><ele>1811.0</ele><time>2026-04-11T10:02:29.999Z</time></trkpt><trkpt lat="46.464367593058086" lon="9.658868379634724"><ele>1814.0</ele><time>2026-04-11T10:02:30.999Z</time></trkpt><trkpt lat="46.46428054271275" lon="9.659040891061029"><ele>1817.0</ele><time>2026-04-11T10:02:31.999Z</time></trkpt><trkpt lat="46.464193614890156" lon="9.659231726741064"><ele>1817.0</ele><time>2026-04-11T10:02:32.999Z</time></trkpt><trkpt lat="46.46410671448474" lon="9.659415726497222"><ele>1817.0</ele><time>2026-04-11T10:02:33.999Z</time></trkpt><trkpt lat="46.46401847024765" lon="9.659600212146223"><ele>1817.0</ele><time>2026-04-11T10:02:34.999Z</time></trkpt><trkpt lat="46.46393411009848" lon="9.65978701318347"><ele>1821.3333333333333</ele><time>2026-04-11T10:02:35.999Z</time></trkpt><trkpt lat="46.463859309056" lon="9.6599762987854"><ele>1825.6666666666665</ele><time>2026-04-11T10:02:36.999Z</time></trkpt><trkpt lat="46.46379306820393" lon="9.660171126229297"><ele>1830.0</ele><time>2026-04-11T10:02:37.999Z</time></trkpt><trkpt lat="46.463731890713554" lon="9.66037206664121"><ele>1830.0</ele><time>2026-04-11T10:02:39Z</time></trkpt><trkpt lat="46.46367040544558" lon="9.660564319196041"><ele>1830.0</ele><time>2026-04-11T10:02:40Z</time></trkpt><trkpt lat="46.46360984946502" lon="9.660750859324349"><ele>1830.0</ele><time>2026-04-11T10:02:41Z</time></trkpt><trkpt lat="46.46354489268081" lon="9.66094117414875"><ele>1830.0</ele><time>2026-04-11T10:02:42Z</time></trkpt><trkpt lat="46.463476490397845" lon="9.661145625542833"><ele>1833.0</ele><time>2026-04-11T10:02:43Z</time></trkpt><trkpt lat="46.4634119073744" lon="9.661350114761778"><ele>1836.0</ele><time>2026-04-11T10:02:44Z</time></trkpt><trkpt lat="46.46335269874033" lon="9.661544380509337"><ele>1839.0</ele><time>2026-04-11T10:02:45Z</time></trkpt><trkpt lat="46.46328816600291" lon="9.661744056582604"><ele>1839.0</ele><time>2026-04-11T10:02:46Z</time></trkpt><trkpt lat="46.46322013124258" lon="9.661937905856034"><ele>1839.0</ele><time>2026-04-11T10:02:47Z</time></trkpt><trkpt lat="46.4631503235955" lon="9.66212091586132"><ele>1839.0</ele><time>2026-04-11T10:02:48Z</time></trkpt><trkpt lat="46.463076821673006" lon="9.662294027136817"><ele>1839.0</ele><time>2026-04-11T10:02:49Z</time></trkpt><trkpt lat="46.46299970219684" lon="9.662451911006332"><ele>1838.75</ele><time>2026-04-11T10:02:50Z</time></trkpt><trkpt lat="46.462926642174615" lon="9.662608155162701"><ele>1838.5</ele><time>2026-04-11T10:02:51Z</time></trkpt><trkpt lat="46.46285757185191" lon="9.662775998634558"><ele>1838.25</ele><time>2026-04-11T10:02:52Z</time></trkpt><trkpt lat="46.46280230954152" lon="9.662957395710428"><ele>1838.0</ele><time>2026-04-11T10:02:53Z</time></trkpt><trkpt lat="46.46276635435051" lon="9.663160020577939"><ele>1838.0</ele><time>2026-04-11T10:02:54Z</time></trkpt><trkpt lat="46.46273769931818" lon="9.663407156987217"><ele>1838.0</ele><time>2026-04-11T10:02:55Z</time></trkpt><trkpt lat="46.46268124950213" lon="9.663675026078373"><ele>1838.0</ele><time>2026-04-11T10:02:56Z</time></trkpt><trkpt lat="46.462650503732156" lon="9.663983131231218"><ele>1839.5</ele><time>2026-04-11T10:02:57Z</time></trkpt><trkpt lat="46.46259563741503" lon="9.664306627042054"><ele>1841.0</ele><time>2026-04-11T10:02:58Z</time></trkpt><trkpt lat="46.462541616625415" lon="9.66464288672367"><ele>1843.6666666666665</ele><time>2026-04-11T10:02:59Z</time></trkpt><trkpt lat="46.462493513606056" lon="9.664964931774353"><ele>1846.3333333333335</ele><time>2026-04-11T10:03:00Z</time></trkpt><trkpt lat="46.46244840292032" lon="9.66527681355177"><ele>1849.0</ele><time>2026-04-11T10:03:01Z</time></trkpt><trkpt lat="46.46240060042764" lon="9.665578880230674"><ele>1852.0</ele><time>2026-04-11T10:03:02Z</time></trkpt><trkpt lat="46.462355446861174" lon="9.665885704609181"><ele>1855.0</ele><time>2026-04-11T10:03:03Z</time></trkpt><trkpt lat="46.46231343332099" lon="9.666189365169965"><ele>1858.0</ele><time>2026-04-11T10:03:04Z</time></trkpt><trkpt lat="46.46227913441292" lon="9.666497608035161"><ele>1860.0</ele><time>2026-04-11T10:03:05Z</time></trkpt><trkpt lat="46.462259308512785" lon="9.666807134966932"><ele>1862.0</ele><time>2026-04-11T10:03:06Z</time></trkpt><trkpt lat="46.46224896097269" lon="9.667123760604833"><ele>1864.0</ele><time>2026-04-11T10:03:07Z</time></trkpt><trkpt lat="46.462241081398794" lon="9.667441097808943"><ele>1864.0</ele><time>2026-04-11T10:03:08Z</time></trkpt><trkpt lat="46.46223218303499" lon="9.667757324063606"><ele>1864.0</ele><time>2026-04-11T10:03:09Z</time></trkpt><trkpt lat="46.46222511957534" lon="9.668077960780478"><ele>1864.0</ele><time>2026-04-11T10:03:10Z</time></trkpt><trkpt lat="46.46221732221495" lon="9.66839610977249"><ele>1865.0</ele><time>2026-04-11T10:03:11Z</time></trkpt><trkpt lat="46.46220828604568" lon="9.668714924195921"><ele>1866.0</ele><time>2026-04-11T10:03:12Z</time></trkpt><trkpt lat="46.46219985708947" lon="9.66903216382256"><ele>1867.0</ele><time>2026-04-11T10:03:13Z</time></trkpt><trkpt lat="46.46219139483407" lon="9.669349537734972"><ele>1868.0</ele><time>2026-04-11T10:03:14Z</time></trkpt><trkpt lat="46.46218494183778" lon="9.669667533811642"><ele>1869.0</ele><time>2026-04-11T10:03:15Z</time></trkpt><trkpt lat="46.462175858727385" lon="9.669979779609168"><ele>1870.0</ele><time>2026-04-11T10:03:16Z</time></trkpt><trkpt lat="46.462164921114535" lon="9.670295609956357"><ele>1871.3333333333335</ele><time>2026-04-11T10:03:17Z</time></trkpt><trkpt lat="46.462154719248595" lon="9.67061103535764"><ele>1872.6666666666665</ele><time>2026-04-11T10:03:18Z</time></trkpt><trkpt lat="46.462142684421075" lon="9.67092770699361"><ele>1874.0</ele><time>2026-04-11T10:03:19Z</time></trkpt><trkpt lat="46.46213205671244" lon="9.671245630144856"><ele>1875.3333333333333</ele><time>2026-04-11T10:03:20Z</time></trkpt><trkpt lat="46.462121434398874" lon="9.671564583343336"><ele>1876.6666666666665</ele><time>2026-04-11T10:03:21Z</time></trkpt><trkpt lat="46.46211126372521" lon="9.67188387183634"><ele>1878.0</ele><time>2026-04-11T10:03:22Z</time></trkpt><trkpt lat="46.46209894345022" lon="9.672204330201332"><ele>1871.6666666666665</ele><time>2026-04-11T10:03:23Z</time></trkpt><trkpt lat="46.462086976632676" lon="9.672528605901011"><ele>1865.3333333333333</ele><time>2026-04-11T10:03:24Z</time></trkpt><trkpt lat="46.462074984594956" lon="9.672855512822924"><ele>1859.0</ele><time>2026-04-11T10:03:25Z</time></trkpt><trkpt lat="46.46206349420256" lon="9.673183926523759"><ele>1859.0</ele><time>2026-04-11T10:03:26Z</time></trkpt><trkpt lat="46.46205280525614" lon="9.673513638929183"><ele>1859.0</ele><time>2026-04-11T10:03:27Z</time></trkpt><trkpt lat="46.462040467002836" lon="9.673841437307889"><ele>1859.6666666666665</ele><time>2026-04-11T10:03:28Z</time></trkpt><trkpt lat="46.46203083241383" lon="9.674167419639915"><ele>1860.3333333333335</ele><time>2026-04-11T10:03:29Z</time></trkpt><trkpt lat="46.46203315423709" lon="9.674488516767969"><ele>1861.0</ele><time>2026-04-11T10:03:30Z</time></trkpt><trkpt lat="46.462051844545755" lon="9.674803315490768"><ele>1861.6666666666667</ele><time>2026-04-11T10:03:31Z</time></trkpt><trkpt lat="46.46207914811734" lon="9.675120872533176"><ele>1862.3333333333335</ele><time>2026-04-11T10:03:32Z</time></trkpt><trkpt lat="46.46210726592033" lon="9.67543851061468"><ele>1863.0</ele><time>2026-04-11T10:03:33Z</time></trkpt><trkpt lat="46.46213545284969" lon="9.675751562072223"><ele>1866.3333333333335</ele><time>2026-04-11T10:03:34Z</time></trkpt><trkpt lat="46.462165784905466" lon="9.676062860097533"><ele>1869.6666666666667</ele><time>2026-04-11T10:03:35Z</time></trkpt><trkpt lat="46.46220601234186" lon="9.676367500251034"><ele>1873.0</ele><time>2026-04-11T10:03:36Z</time></trkpt><trkpt lat="46.46225510656581" lon="9.676669917807217"><ele>1874.0</ele><time>2026-04-11T10:03:37Z</time></trkpt><trkpt lat="46.46232746308868" lon="9.676978349727278"><ele>1875.0</ele><time>2026-04-11T10:03:38Z</time></trkpt><trkpt lat="46.46238482296126" lon="9.677307714499744"><ele>1875.0</ele><time>2026-04-11T10:03:39Z</time></trkpt><trkpt lat="46.46243761206393" lon="9.677647985942084"><ele>1875.0</ele><time>2026-04-11T10:03:40Z</time></trkpt><trkpt lat="46.462455017103586" lon="9.677873253672285"><ele>1875.0</ele><time>2026-04-11T10:03:41Z</time></trkpt><trkpt lat="46.46246001244536" lon="9.678176008794301"><ele>1875.3333333333335</ele><time>2026-04-11T10:03:41.999Z</time></trkpt><trkpt lat="46.46245823431101" lon="9.678489282241271"><ele>1875.6666666666667</ele><time>2026-04-11T10:03:42.999Z</time></trkpt><trkpt lat="46.46246319037841" lon="9.678800832937691"><ele>1876.0</ele><time>2026-04-11T10:03:43.999Z</time></trkpt><trkpt lat="46.462458999487254" lon="9.679104220675502"><ele>1876.0</ele><time>2026-04-11T10:03:44.999Z</time></trkpt><trkpt lat="46.46245065007289" lon="9.679423366927951"><ele>1876.0</ele><time>2026-04-11T10:03:45.999Z</time></trkpt><trkpt lat="46.4624453352514" lon="9.679735122034396"><ele>1876.0</ele><time>2026-04-11T10:03:46.999Z</time></trkpt><trkpt lat="46.462440403763296" lon="9.680034722322157"><ele>1879.0</ele><time>2026-04-11T10:03:47.999Z</time></trkpt><trkpt lat="46.46243111258161" lon="9.680318018971505"><ele>1882.0</ele><time>2026-04-11T10:03:48.999Z</time></trkpt><trkpt lat="46.46239285458434" lon="9.680612838484791"><ele>1885.0</ele><time>2026-04-11T10:03:49.999Z</time></trkpt><trkpt lat="46.46230823752329" lon="9.68089689481299"><ele>1887.6666666666667</ele><time>2026-04-11T10:03:50.999Z</time></trkpt><trkpt lat="46.46220897626689" lon="9.681161026612731"><ele>1890.3333333333335</ele><time>2026-04-11T10:03:51.999Z</time></trkpt><trkpt lat="46.462148949767055" lon="9.681446927179833"><ele>1893.0</ele><time>2026-04-11T10:03:52.999Z</time></trkpt><trkpt lat="46.46212530220689" lon="9.681751484851617"><ele>1893.3333333333335</ele><time>2026-04-11T10:03:53.999Z</time></trkpt><trkpt lat="46.46213823697524" lon="9.682049581218903"><ele>1893.6666666666667</ele><time>2026-04-11T10:03:54.999Z</time></trkpt><trkpt lat="46.462175942098604" lon="9.682340585036991"><ele>1894.0</ele><time>2026-04-11T10:03:55.999Z</time></trkpt><trkpt lat="46.46221142915882" lon="9.682635145925143"><ele>1895.0</ele><time>2026-04-11T10:03:56.999Z</time></trkpt><trkpt lat="46.46220134779357" lon="9.682909640181274"><ele>1896.0</ele><time>2026-04-11T10:03:57.999Z</time></trkpt><trkpt lat="46.462140781316535" lon="9.683162593155574"><ele>1897.0</ele><time>2026-04-11T10:03:58.999Z</time></trkpt><trkpt lat="46.462061291696514" lon="9.683387905316039"><ele>1897.0</ele><time>2026-04-11T10:03:59.999Z</time></trkpt><trkpt lat="46.46199292295766" lon="9.683585499617742"><ele>1897.0</ele><time>2026-04-11T10:04:00.999Z</time></trkpt><trkpt lat="46.461955003249834" lon="9.683757881980021"><ele>1897.0</ele><time>2026-04-11T10:04:01.999Z</time></trkpt><trkpt lat="46.46196899200528" lon="9.683876926140098"><ele>1897.0</ele><time>2026-04-11T10:04:02.999Z</time></trkpt><trkpt lat="46.462021720378516" lon="9.683990824394277"><ele>1899.6</ele><time>2026-04-11T10:04:03.999Z</time></trkpt><trkpt lat="46.462122674552745" lon="9.684049370957283"><ele>1902.1999999999998</ele><time>2026-04-11T10:04:04.999Z</time></trkpt><trkpt lat="46.4622251448571" lon="9.684039548534937"><ele>1904.8</ele><time>2026-04-11T10:04:05.999Z</time></trkpt><trkpt lat="46.46231993907955" lon="9.683958116826382"><ele>1907.4</ele><time>2026-04-11T10:04:06.999Z</time></trkpt><trkpt lat="46.4623840838708" lon="9.683812375413325"><ele>1910.0</ele><time>2026-04-11T10:04:07.999Z</time></trkpt><trkpt lat="46.46242812902952" lon="9.68363113166737"><ele>1910.0</ele><time>2026-04-11T10:04:08.999Z</time></trkpt><trkpt lat="46.46249029313806" lon="9.683493747914186"><ele>1910.0</ele><time>2026-04-11T10:04:09.999Z</time></trkpt><trkpt lat="46.46258333360074" lon="9.683435145734142"><ele>1910.0</ele><time>2026-04-11T10:04:10.999Z</time></trkpt><trkpt lat="46.46268314962077" lon="9.683462431858988"><ele>1910.0</ele><time>2026-04-11T10:04:11.999Z</time></trkpt><trkpt lat="46.4627670383482" lon="9.68355513922625"><ele>1910.0</ele><time>2026-04-11T10:04:12.999Z</time></trkpt><trkpt lat="46.46283468334678" lon="9.683702653860227"><ele>1910.0</ele><time>2026-04-11T10:04:13.999Z</time></trkpt><trkpt lat="46.46288721992703" lon="9.683895532601646"><ele>1910.0</ele><time>2026-04-11T10:04:14.999Z</time></trkpt><trkpt lat="46.46294557660477" lon="9.684107233636226"><ele>1910.0</ele><time>2026-04-11T10:04:15.999Z</time></trkpt><trkpt lat="46.463021360468666" lon="9.684332146398622"><ele>1912.3333333333333</ele><time>2026-04-11T10:04:16.999Z</time></trkpt><trkpt lat="46.46311395796072" lon="9.684556258370565"><ele>1914.6666666666665</ele><time>2026-04-11T10:04:17.999Z</time></trkpt><trkpt lat="46.46321672676818" lon="9.68478257296978"><ele>1917.0</ele><time>2026-04-11T10:04:18.999Z</time></trkpt><trkpt lat="46.46333049982506" lon="9.68500514389211"><ele>1917.0</ele><time>2026-04-11T10:04:19.999Z</time></trkpt><trkpt lat="46.46345652309041" lon="9.6852118169139"><ele>1917.0</ele><time>2026-04-11T10:04:20.999Z</time></trkpt><trkpt lat="46.463590111746036" lon="9.685414997345607"><ele>1917.0</ele><time>2026-04-11T10:04:21.999Z</time></trkpt><trkpt lat="46.463713825946236" lon="9.685603789196922"><ele>1919.0</ele><time>2026-04-11T10:04:22.999Z</time></trkpt><trkpt lat="46.4638210309142" lon="9.685794604865796"><ele>1921.0</ele><time>2026-04-11T10:04:23.999Z</time></trkpt><trkpt lat="46.463896410924825" lon="9.686011448734874"><ele>1923.0</ele><time>2026-04-11T10:04:24.999Z</time></trkpt><trkpt lat="46.46392152394051" lon="9.686230698193059"><ele>1926.2</ele><time>2026-04-11T10:04:25.999Z</time></trkpt><trkpt lat="46.46393539061618" lon="9.686416385276251"><ele>1929.4</ele><time>2026-04-11T10:04:26.999Z</time></trkpt><trkpt lat="46.46395883290942" lon="9.68654747073813"><ele>1932.6000000000001</ele><time>2026-04-11T10:04:27.999Z</time></trkpt><trkpt lat="46.464021153016375" lon="9.686653290867708"><ele>1935.8000000000002</ele><time>2026-04-11T10:04:28.999Z</time></trkpt><trkpt lat="46.46412060058976" lon="9.686691060023874"><ele>1939.0</ele><time>2026-04-11T10:04:29.999Z</time></trkpt><trkpt lat="46.464229556093166" lon="9.686664323359325"><ele>1939.0</ele><time>2026-04-11T10:04:30.999Z</time></trkpt><trkpt lat="46.46432826710781" lon="9.686551288169037"><ele>1939.0</ele><time>2026-04-11T10:04:31.999Z</time></trkpt><trkpt lat="46.46439767970777" lon="9.686397781741846"><ele>1939.0</ele><time>2026-04-11T10:04:32.999Z</time></trkpt><trkpt lat="46.464470642572735" lon="9.686246522511416"><ele>1939.0</ele><time>2026-04-11T10:04:33.999Z</time></trkpt><trkpt lat="46.46455704334017" lon="9.686177451171885"><ele>1939.8000000000002</ele><time>2026-04-11T10:04:34.999Z</time></trkpt><trkpt lat="46.46464209114217" lon="9.686177439162764"><ele>1940.6000000000001</ele><time>2026-04-11T10:04:35.999Z</time></trkpt><trkpt lat="46.464716616826635" lon="9.68626536421379"><ele>1941.4</ele><time>2026-04-11T10:04:36.999Z</time></trkpt><trkpt lat="46.46475443956008" lon="9.68640450216426"><ele>1942.2</ele><time>2026-04-11T10:04:37.999Z</time></trkpt><trkpt lat="46.46474310294653" lon="9.686568351269322"><ele>1943.0</ele><time>2026-04-11T10:04:38.999Z</time></trkpt><trkpt lat="46.464700193244205" lon="9.686751043298377"><ele>1946.6666666666665</ele><time>2026-04-11T10:04:39.999Z</time></trkpt><trkpt lat="46.464636863950545" lon="9.686932555973186"><ele>1950.3333333333335</ele><time>2026-04-11T10:04:40.999Z</time></trkpt><trkpt lat="46.464547133684746" lon="9.687110926998368"><ele>1954.0</ele><time>2026-04-11T10:04:41.999Z</time></trkpt><trkpt lat="46.464423994693895" lon="9.687255345768325"><ele>1954.0</ele><time>2026-04-11T10:04:42.999Z</time></trkpt><trkpt lat="46.464306328347824" lon="9.687336643055346"><ele>1954.0</ele><time>2026-04-11T10:04:43.999Z</time></trkpt><trkpt lat="46.464212391009006" lon="9.687395466046965"><ele>1954.0</ele><time>2026-04-11T10:04:45Z</time></trkpt><trkpt lat="46.464147594500254" lon="9.687481760318622"><ele>1954.0</ele><time>2026-04-11T10:04:46Z</time></trkpt><trkpt lat="46.46412443424849" lon="9.687618163984853"><ele>1954.0</ele><time>2026-04-11T10:04:47Z</time></trkpt><trkpt lat="46.46415216554273" lon="9.68777469222314"><ele>1957.75</ele><time>2026-04-11T10:04:48Z</time></trkpt><trkpt lat="46.464222328249704" lon="9.687892323206503"><ele>1961.5</ele><time>2026-04-11T10:04:49Z</time></trkpt><trkpt lat="46.46432423435484" lon="9.687933820429302"><ele>1965.25</ele><time>2026-04-11T10:04:50Z</time></trkpt><trkpt lat="46.46443949971885" lon="9.687899509051887"><ele>1969.0</ele><time>2026-04-11T10:04:51Z</time></trkpt><trkpt lat="46.46455990401234" lon="9.687793203145432"><ele>1965.6666666666667</ele><time>2026-04-11T10:04:52Z</time></trkpt><trkpt lat="46.46468906509745" lon="9.687672429377708"><ele>1962.3333333333335</ele><time>2026-04-11T10:04:53Z</time></trkpt><trkpt lat="46.464824917402794" lon="9.687555625713333"><ele>1959.0</ele><time>2026-04-11T10:04:54Z</time></trkpt><trkpt lat="46.464958168427" lon="9.687436170343046"><ele>1959.0</ele><time>2026-04-11T10:04:55Z</time></trkpt><trkpt lat="46.4650719929448" lon="9.687341129024661"><ele>1959.0</ele><time>2026-04-11T10:04:56Z</time></trkpt><trkpt lat="46.46517239191936" lon="9.687282436782379"><ele>1959.0</ele><time>2026-04-11T10:04:57Z</time></trkpt><trkpt lat="46.46526731634685" lon="9.687280765637238"><ele>1959.0</ele><time>2026-04-11T10:04:58Z</time></trkpt><trkpt lat="46.46534081947996" lon="9.68735723797129"><ele>1959.0</ele><time>2026-04-11T10:04:59Z</time></trkpt><trkpt lat="46.46538331552225" lon="9.68747423903708"><ele>1959.0</ele><time>2026-04-11T10:05:00Z</time></trkpt><trkpt lat="46.46537224347006" lon="9.687617553158004"><ele>1959.0</ele><time>2026-04-11T10:05:01Z</time></trkpt><trkpt lat="46.46530887959828" lon="9.687747912658784"><ele>1959.0</ele><time>2026-04-11T10:05:02Z</time></trkpt><trkpt lat="46.465187157378104" lon="9.687827689310891"><ele>1959.0</ele><time>2026-04-11T10:05:03Z</time></trkpt><trkpt lat="46.46506857598416" lon="9.687941335223085"><ele>1961.5</ele><time>2026-04-11T10:05:04Z</time></trkpt><trkpt lat="46.46493560912438" lon="9.68803975463491"><ele>1964.0</ele><time>2026-04-11T10:05:05Z</time></trkpt><trkpt lat="46.464802158629524" lon="9.688147008099378"><ele>1966.5</ele><time>2026-04-11T10:05:06Z</time></trkpt><trkpt lat="46.464693020765104" lon="9.688237487833284"><ele>1969.0</ele><time>2026-04-11T10:05:07Z</time></trkpt><trkpt lat="46.46460375072068" lon="9.688316702871614"><ele>1969.0000000000002</ele><time>2026-04-11T10:05:08Z</time></trkpt><trkpt lat="46.464533089610676" lon="9.688411720479948"><ele>1969.0</ele><time>2026-04-11T10:05:09Z</time></trkpt><trkpt lat="46.46449654700412" lon="9.688536840114173"><ele>1969.0</ele><time>2026-04-11T10:05:10Z</time></trkpt><trkpt lat="46.46450796426856" lon="9.688661264509628"><ele>1969.0</ele><time>2026-04-11T10:05:11Z</time></trkpt><trkpt lat="46.46455057013632" lon="9.688762702039735"><ele>1969.0000000000002</ele><time>2026-04-11T10:05:12Z</time></trkpt><trkpt lat="46.46461788379372" lon="9.688824239208875"><ele>1969.0</ele><time>2026-04-11T10:05:13Z</time></trkpt><trkpt lat="46.46470273035124" lon="9.688849163334936"><ele>1969.8000000000002</ele><time>2026-04-11T10:05:14Z</time></trkpt><trkpt lat="46.46479844031095" lon="9.68883267837672"><ele>1970.6000000000001</ele><time>2026-04-11T10:05:15Z</time></trkpt><trkpt lat="46.464897378523254" lon="9.688761238045938"><ele>1971.4</ele><time>2026-04-11T10:05:16Z</time></trkpt><trkpt lat="46.464994301158264" lon="9.688669634123737"><ele>1972.2</ele><time>2026-04-11T10:05:17Z</time></trkpt><trkpt lat="46.46508726021276" lon="9.688587144855695"><ele>1973.0</ele><time>2026-04-11T10:05:18Z</time></trkpt><trkpt lat="46.46517608331804" lon="9.688511896726846"><ele>1973.0</ele><time>2026-04-11T10:05:19Z</time></trkpt><trkpt lat="46.46527189334327" lon="9.688435096760257"><ele>1973.0000000000002</ele><time>2026-04-11T10:05:20Z</time></trkpt><trkpt lat="46.4653610611687" lon="9.688379222325338"><ele>1973.0000000000002</ele><time>2026-04-11T10:05:21Z</time></trkpt><trkpt lat="46.46544078167918" lon="9.688349000326713"><ele>1973.0</ele><time>2026-04-11T10:05:22Z</time></trkpt><trkpt lat="46.46554730838692" lon="9.688399540320061"><ele>1973.0</ele><time>2026-04-11T10:05:24Z</time></trkpt><trkpt lat="46.46559647879568" lon="9.688548827036007"><ele>1974.3333333333333</ele><time>2026-04-11T10:05:26Z</time></trkpt><trkpt lat="46.46560057208565" lon="9.688643459093669"><ele>1975.6666666666665</ele><time>2026-04-11T10:05:27Z</time></trkpt><trkpt lat="46.46556670755148" lon="9.688741628274625"><ele>1977.0</ele><time>2026-04-11T10:05:28Z</time></trkpt><trkpt lat="46.46550366742502" lon="9.688826463849393"><ele>1978.3333333333335</ele><time>2026-04-11T10:05:29Z</time></trkpt><trkpt lat="46.465417501204065" lon="9.6889059671257"><ele>1979.6666666666667</ele><time>2026-04-11T10:05:30Z</time></trkpt><trkpt lat="46.465319026528476" lon="9.688985960338744"><ele>1981.0</ele><time>2026-04-11T10:05:31Z</time></trkpt><trkpt lat="46.46521903736795" lon="9.68906046814471"><ele>1981.0</ele><time>2026-04-11T10:05:32Z</time></trkpt><trkpt lat="46.4651172602137" lon="9.689146213306255"><ele>1981.0</ele><time>2026-04-11T10:05:33Z</time></trkpt><trkpt lat="46.46502521037606" lon="9.689225170941695"><ele>1981.0</ele><time>2026-04-11T10:05:34Z</time></trkpt><trkpt lat="46.46494682574967" lon="9.68930065277109"><ele>1981.0</ele><time>2026-04-11T10:05:35Z</time></trkpt><trkpt lat="46.46489176350989" lon="9.689389470537828"><ele>1981.0</ele><time>2026-04-11T10:05:36Z</time></trkpt><trkpt lat="46.46486142358836" lon="9.689498314272806"><ele>1983.1999999999998</ele><time>2026-04-11T10:05:37Z</time></trkpt><trkpt lat="46.464868456504846" lon="9.689613026995035"><ele>1985.3999999999999</ele><time>2026-04-11T10:05:38Z</time></trkpt><trkpt lat="46.46492092634155" lon="9.68972609019817"><ele>1987.6</ele><time>2026-04-11T10:05:39Z</time></trkpt><trkpt lat="46.46501815773402" lon="9.689821112430208"><ele>1989.8</ele><time>2026-04-11T10:05:40Z</time></trkpt><trkpt lat="46.46514592178294" lon="9.689883388329422"><ele>1992.0</ele><time>2026-04-11T10:05:41Z</time></trkpt><trkpt lat="46.465289113039" lon="9.68992358632546"><ele>1992.0</ele><time>2026-04-11T10:05:41.999Z</time></trkpt><trkpt lat="46.46543678264324" lon="9.6899695439929"><ele>1992.0</ele><time>2026-04-11T10:05:42.999Z</time></trkpt><trkpt lat="46.4655805415938" lon="9.690051639649798"><ele>1992.0</ele><time>2026-04-11T10:05:43.999Z</time></trkpt><trkpt lat="46.465721392186055" lon="9.690110422162084"><ele>1993.25</ele><time>2026-04-11T10:05:44.999Z</time></trkpt><trkpt lat="46.465833722982794" lon="9.69022995522537"><ele>1994.5</ele><time>2026-04-11T10:05:45.999Z</time></trkpt><trkpt lat="46.465934274348726" lon="9.690349023117005"><ele>1995.75</ele><time>2026-04-11T10:05:46.999Z</time></trkpt><trkpt lat="46.466035432381766" lon="9.6904754981564"><ele>1997.0</ele><time>2026-04-11T10:05:47.999Z</time></trkpt><trkpt lat="46.466119867466816" lon="9.690659060969864"><ele>1995.6666666666665</ele><time>2026-04-11T10:05:48.999Z</time></trkpt><trkpt lat="46.46618875666938" lon="9.690881321436194"><ele>1994.3333333333335</ele><time>2026-04-11T10:05:49.999Z</time></trkpt><trkpt lat="46.46624862205642" lon="9.691123128765426"><ele>1993.0</ele><time>2026-04-11T10:05:50.999Z</time></trkpt><trkpt lat="46.466309607507895" lon="9.691384506003125"><ele>1993.0</ele><time>2026-04-11T10:05:51.999Z</time></trkpt><trkpt lat="46.46637432692391" lon="9.691676981365326"><ele>1993.0</ele><time>2026-04-11T10:05:52.999Z</time></trkpt><trkpt lat="46.46644142824721" lon="9.691996435553325"><ele>1993.0</ele><time>2026-04-11T10:05:53.999Z</time></trkpt><trkpt lat="46.46649454743362" lon="9.692315291696818"><ele>1998.3333333333335</ele><time>2026-04-11T10:05:54.999Z</time></trkpt><trkpt lat="46.4665748226704" lon="9.692610686754493"><ele>2003.6666666666665</ele><time>2026-04-11T10:05:55.999Z</time></trkpt><trkpt lat="46.466641953397264" lon="9.692930603973702"><ele>2009.0</ele><time>2026-04-11T10:05:56.999Z</time></trkpt><trkpt lat="46.46670498014688" lon="9.693243991074983"><ele>2014.3333333333333</ele><time>2026-04-11T10:05:57.999Z</time></trkpt><trkpt lat="46.466764396369605" lon="9.693539008111152"><ele>2019.6666666666665</ele><time>2026-04-11T10:05:58.999Z</time></trkpt><trkpt lat="46.46681781178448" lon="9.693838179939533"><ele>2025.0</ele><time>2026-04-11T10:05:59.999Z</time></trkpt><trkpt lat="46.4668573460416" lon="9.694140330471608"><ele>2026.6666666666665</ele><time>2026-04-11T10:06:00.999Z</time></trkpt><trkpt lat="46.46688080552908" lon="9.69444344330419"><ele>2028.3333333333333</ele><time>2026-04-11T10:06:01.999Z</time></trkpt><trkpt lat="46.46688524667194" lon="9.694755280193382"><ele>2030.0</ele><time>2026-04-11T10:06:02.999Z</time></trkpt><trkpt lat="46.46687219480201" lon="9.695075233113682"><ele>2030.3333333333333</ele><time>2026-04-11T10:06:03.999Z</time></trkpt><trkpt lat="46.46683995336809" lon="9.69539357702625"><ele>2030.6666666666665</ele><time>2026-04-11T10:06:04.999Z</time></trkpt><trkpt lat="46.466794745556314" lon="9.69570209977324"><ele>2031.0</ele><time>2026-04-11T10:06:05.999Z</time></trkpt><trkpt lat="46.46673354654073" lon="9.696008195400195"><ele>2031.3333333333335</ele><time>2026-04-11T10:06:06.999Z</time></trkpt><trkpt lat="46.46665379004896" lon="9.696305056640995"><ele>2031.6666666666667</ele><time>2026-04-11T10:06:07.999Z</time></trkpt><trkpt lat="46.466558534160555" lon="9.696592082883967"><ele>2032.0</ele><time>2026-04-11T10:06:08.999Z</time></trkpt><trkpt lat="46.46644470350202" lon="9.69686323671732"><ele>2032.6666666666667</ele><time>2026-04-11T10:06:09.999Z</time></trkpt><trkpt lat="46.466315710166775" lon="9.697117948193927"><ele>2033.3333333333335</ele><time>2026-04-11T10:06:10.999Z</time></trkpt><trkpt lat="46.466171701872916" lon="9.69736705183485"><ele>2034.0</ele><time>2026-04-11T10:06:11.999Z</time></trkpt><trkpt lat="46.466009921438925" lon="9.697601289050711"><ele>2037.0</ele><time>2026-04-11T10:06:12.999Z</time></trkpt><trkpt lat="46.46584760723868" lon="9.697838778196145"><ele>2040.0</ele><time>2026-04-11T10:06:13.999Z</time></trkpt><trkpt lat="46.4656805295391" lon="9.698076361968633"><ele>2040.0</ele><time>2026-04-11T10:06:14.999Z</time></trkpt><trkpt lat="46.46550886591332" lon="9.698322342612158"><ele>2040.0</ele><time>2026-04-11T10:06:15.999Z</time></trkpt><trkpt lat="46.46533798571567" lon="9.698573358160417"><ele>2042.0</ele><time>2026-04-11T10:06:16.999Z</time></trkpt><trkpt lat="46.46516659956217" lon="9.698825013587243"><ele>2044.0</ele><time>2026-04-11T10:06:17.999Z</time></trkpt><trkpt lat="46.46499317263392" lon="9.69907356459636"><ele>2044.0</ele><time>2026-04-11T10:06:18.999Z</time></trkpt><trkpt lat="46.464818667800564" lon="9.699325600027445"><ele>2044.0</ele><time>2026-04-11T10:06:19.999Z</time></trkpt><trkpt lat="46.46464475206886" lon="9.69957962827034"><ele>2047.0</ele><time>2026-04-11T10:06:20.999Z</time></trkpt><trkpt lat="46.46447679788624" lon="9.699836619946373"><ele>2050.0</ele><time>2026-04-11T10:06:21.999Z</time></trkpt><trkpt lat="46.46432541585381" lon="9.700107657545637"><ele>2051.0</ele><time>2026-04-11T10:06:22.999Z</time></trkpt><trkpt lat="46.46419716176982" lon="9.700404441921174"><ele>2052.0</ele><time>2026-04-11T10:06:23.999Z</time></trkpt><trkpt lat="46.464092228811296" lon="9.700712693292523"><ele>2052.0</ele><time>2026-04-11T10:06:24.999Z</time></trkpt><trkpt lat="46.46401438324406" lon="9.701035400656695"><ele>2052.0</ele><time>2026-04-11T10:06:25.999Z</time></trkpt><trkpt lat="46.46396280477269" lon="9.701365509699668"><ele>2054.0</ele><time>2026-04-11T10:06:26.999Z</time></trkpt><trkpt lat="46.46393397012007" lon="9.701700926015297"><ele>2056.0</ele><time>2026-04-11T10:06:27.999Z</time></trkpt><trkpt lat="46.4639319822527" lon="9.702036218056998"><ele>2057.5</ele><time>2026-04-11T10:06:28.999Z</time></trkpt><trkpt lat="46.463954977755286" lon="9.702370444516214"><ele>2059.0</ele><time>2026-04-11T10:06:29.999Z</time></trkpt><trkpt lat="46.46398483618412" lon="9.702703938611839"><ele>2062.5</ele><time>2026-04-11T10:06:30.999Z</time></trkpt><trkpt lat="46.4640498712629" lon="9.70302589175023"><ele>2066.0</ele><time>2026-04-11T10:06:31.999Z</time></trkpt><trkpt lat="46.464128016129784" lon="9.703335603912873"><ele>2070.0</ele><time>2026-04-11T10:06:32.999Z</time></trkpt><trkpt lat="46.4642085534746" lon="9.703644609687073"><ele>2074.0</ele><time>2026-04-11T10:06:33.999Z</time></trkpt><trkpt lat="46.46428767806394" lon="9.703952799011757"><ele>2074.0</ele><time>2026-04-11T10:06:34.999Z</time></trkpt><trkpt lat="46.46436864644069" lon="9.704263843452598"><ele>2074.0</ele><time>2026-04-11T10:06:35.999Z</time></trkpt><trkpt lat="46.46445058530941" lon="9.704574496407579"><ele>2076.3333333333335</ele><time>2026-04-11T10:06:36.999Z</time></trkpt><trkpt lat="46.46454377569184" lon="9.70487824138772"><ele>2078.6666666666665</ele><time>2026-04-11T10:06:37.999Z</time></trkpt><trkpt lat="46.46461719974782" lon="9.705173527011826"><ele>2081.0</ele><time>2026-04-11T10:06:38.999Z</time></trkpt><trkpt lat="46.46468493293327" lon="9.705441060404361"><ele>2083.333333333333</ele><time>2026-04-11T10:06:39.999Z</time></trkpt><trkpt lat="46.46475084761604" lon="9.705667550755008"><ele>2085.6666666666665</ele><time>2026-04-11T10:06:40.999Z</time></trkpt><trkpt lat="46.46483052176424" lon="9.70586648610038"><ele>2088.0</ele><time>2026-04-11T10:06:41.999Z</time></trkpt><trkpt lat="46.464938025665354" lon="9.70603483563444"><ele>2091.6666666666665</ele><time>2026-04-11T10:06:42.999Z</time></trkpt><trkpt lat="46.46507350413765" lon="9.706136463638797"><ele>2095.333333333333</ele><time>2026-04-11T10:06:43.999Z</time></trkpt><trkpt lat="46.46522395682052" lon="9.706183783955698"><ele>2099.0</ele><time>2026-04-11T10:06:44.999Z</time></trkpt><trkpt lat="46.46539183555929" lon="9.706168585453575"><ele>2098.0</ele><time>2026-04-11T10:06:45.999Z</time></trkpt><trkpt lat="46.46556675838981" lon="9.706091714936875"><ele>2097.0</ele><time>2026-04-11T10:06:46.999Z</time></trkpt><trkpt lat="46.46571828402607" lon="9.705988851116986"><ele>2096.0</ele><time>2026-04-11T10:06:47.999Z</time></trkpt><trkpt lat="46.46584032736348" lon="9.70590813106546"><ele>2096.0</ele><time>2026-04-11T10:06:48.999Z</time></trkpt><trkpt lat="46.46594182263303" lon="9.705858633405112"><ele>2096.0</ele><time>2026-04-11T10:06:49.999Z</time></trkpt><trkpt lat="46.466033746090815" lon="9.705842049804696"><ele>2096.0</ele><time>2026-04-11T10:06:51Z</time></trkpt><trkpt lat="46.466147830516576" lon="9.70586231855085"><ele>2096.0</ele><time>2026-04-11T10:06:52Z</time></trkpt><trkpt lat="46.46618845310756" lon="9.70600129851531"><ele>2096.0</ele><time>2026-04-11T10:06:53Z</time></trkpt><trkpt lat="46.466187809044875" lon="9.706133328117064"><ele>2099.5</ele><time>2026-04-11T10:06:54Z</time></trkpt><trkpt lat="46.466162503032855" lon="9.706271903710354"><ele>2103.0</ele><time>2026-04-11T10:06:55Z</time></trkpt><trkpt lat="46.46605656904591" lon="9.706369542666312"><ele>2106.5</ele><time>2026-04-11T10:06:56Z</time></trkpt><trkpt lat="46.46594765770019" lon="9.706522144484996"><ele>2110.0</ele><time>2026-04-11T10:06:57Z</time></trkpt><trkpt lat="46.46582167993771" lon="9.706697701466348"><ele>2110.0</ele><time>2026-04-11T10:06:58Z</time></trkpt><trkpt lat="46.46568813770249" lon="9.706884240282323"><ele>2110.0</ele><time>2026-04-11T10:06:59Z</time></trkpt><trkpt lat="46.465549970114736" lon="9.707097069312244"><ele>2110.0</ele><time>2026-04-11T10:07:00Z</time></trkpt><trkpt lat="46.46541131019854" lon="9.707284790236567"><ele>2110.5</ele><time>2026-04-11T10:07:01Z</time></trkpt><trkpt lat="46.465301948088594" lon="9.707428964670662"><ele>2111.0</ele><time>2026-04-11T10:07:02Z</time></trkpt><trkpt lat="46.46521220326115" lon="9.707553276099537"><ele>2111.5</ele><time>2026-04-11T10:07:03Z</time></trkpt><trkpt lat="46.46514432254333" lon="9.707681416282657"><ele>2112.0</ele><time>2026-04-11T10:07:04Z</time></trkpt><trkpt lat="46.46513023239933" lon="9.707823966234034"><ele>2114.7999999999997</ele><time>2026-04-11T10:07:05Z</time></trkpt><trkpt lat="46.46517616088625" lon="9.707952338982667"><ele>2117.6</ele><time>2026-04-11T10:07:06Z</time></trkpt><trkpt lat="46.46527064493634" lon="9.708049083022507"><ele>2120.3999999999996</ele><time>2026-04-11T10:07:07Z</time></trkpt><trkpt lat="46.465383264339806" lon="9.708065108969054"><ele>2123.2</ele><time>2026-04-11T10:07:08Z</time></trkpt><trkpt lat="46.46549726325814" lon="9.708011286903222"><ele>2126.0</ele><time>2026-04-11T10:07:09Z</time></trkpt><trkpt lat="46.46562434924555" lon="9.707898581777282"><ele>2124.6666666666665</ele><time>2026-04-11T10:07:10Z</time></trkpt><trkpt lat="46.46574838732653" lon="9.70773832030353"><ele>2123.3333333333335</ele><time>2026-04-11T10:07:11Z</time></trkpt><trkpt lat="46.46588368383905" lon="9.707577407511774"><ele>2122.0</ele><time>2026-04-11T10:07:12Z</time></trkpt><trkpt lat="46.466037585991614" lon="9.707420619466294"><ele>2122.0</ele><time>2026-04-11T10:07:13Z</time></trkpt><trkpt lat="46.466198833083" lon="9.707267899147919"><ele>2122.0</ele><time>2026-04-11T10:07:14Z</time></trkpt><trkpt lat="46.46632436001718" lon="9.7071433803259"><ele>2122.0</ele><time>2026-04-11T10:07:15Z</time></trkpt><trkpt lat="46.46642613803476" lon="9.707093893534854"><ele>2123.7999999999997</ele><time>2026-04-11T10:07:16Z</time></trkpt><trkpt lat="46.46651044917805" lon="9.707052480564446"><ele>2125.6</ele><time>2026-04-11T10:07:17Z</time></trkpt><trkpt lat="46.46659469145949" lon="9.70710401529722"><ele>2127.3999999999996</ele><time>2026-04-11T10:07:18Z</time></trkpt><trkpt lat="46.466651957374864" lon="9.707214663989685"><ele>2129.2</ele><time>2026-04-11T10:07:19Z</time></trkpt><trkpt lat="46.46666085799178" lon="9.707357142516956"><ele>2131.0</ele><time>2026-04-11T10:07:20Z</time></trkpt><trkpt lat="46.466619068138264" lon="9.707487459793498"><ele>2131.0</ele><time>2026-04-11T10:07:21Z</time></trkpt><trkpt lat="46.46651750592301" lon="9.70758164364318"><ele>2131.0</ele><time>2026-04-11T10:07:22Z</time></trkpt><trkpt lat="46.46642022257543" lon="9.707706787760927"><ele>2131.0</ele><time>2026-04-11T10:07:23Z</time></trkpt><trkpt lat="46.46631827776668" lon="9.707815628996034"><ele>2131.0</ele><time>2026-04-11T10:07:24Z</time></trkpt><trkpt lat="46.466264846170645" lon="9.707945994729977"><ele>2131.8</ele><time>2026-04-11T10:07:25Z</time></trkpt><trkpt lat="46.466256353023866" lon="9.708093440673466"><ele>2132.6</ele><time>2026-04-11T10:07:26Z</time></trkpt><trkpt lat="46.46630631498352" lon="9.708228107545823"><ele>2133.4</ele><time>2026-04-11T10:07:27Z</time></trkpt><trkpt lat="46.4663976461287" lon="9.708317317455139"><ele>2134.2</ele><time>2026-04-11T10:07:28Z</time></trkpt><trkpt lat="46.46651233855934" lon="9.708343482785521"><ele>2135.0</ele><time>2026-04-11T10:07:29Z</time></trkpt><trkpt lat="46.46664912118039" lon="9.708309167725329"><ele>2137.333333333333</ele><time>2026-04-11T10:07:30Z</time></trkpt><trkpt lat="46.46680184225547" lon="9.708267176371258"><ele>2139.6666666666665</ele><time>2026-04-11T10:07:31Z</time></trkpt><trkpt lat="46.466964743006876" lon="9.708284753963346"><ele>2142.0</ele><time>2026-04-11T10:07:32Z</time></trkpt><trkpt lat="46.46713004546486" lon="9.708353053781867"><ele>2143.3333333333335</ele><time>2026-04-11T10:07:33Z</time></trkpt><trkpt lat="46.467290685955916" lon="9.708464869849596"><ele>2144.666666666667</ele><time>2026-04-11T10:07:34Z</time></trkpt><trkpt lat="46.46742158551842" lon="9.708642110971784"><ele>2146.0</ele><time>2026-04-11T10:07:35Z</time></trkpt><trkpt lat="46.46755204336675" lon="9.708832098913692"><ele>2146.666666666667</ele><time>2026-04-11T10:07:36Z</time></trkpt><trkpt lat="46.46763051385126" lon="9.709092346466456"><ele>2147.3333333333335</ele><time>2026-04-11T10:07:37Z</time></trkpt><trkpt lat="46.46771978599739" lon="9.709359934348866"><ele>2148.0</ele><time>2026-04-11T10:07:38Z</time></trkpt><trkpt lat="46.46779291849505" lon="9.709645849204598"><ele>2148.3333333333335</ele><time>2026-04-11T10:07:39Z</time></trkpt><trkpt lat="46.46787164698869" lon="9.709946585294837"><ele>2148.666666666667</ele><time>2026-04-11T10:07:40Z</time></trkpt><trkpt lat="46.46795115914719" lon="9.71024374195703"><ele>2149.0</ele><time>2026-04-11T10:07:41Z</time></trkpt><trkpt lat="46.46802923152339" lon="9.71054315000457"><ele>2151.666666666667</ele><time>2026-04-11T10:07:42Z</time></trkpt><trkpt lat="46.46810541192395" lon="9.710839702702344"><ele>2154.3333333333335</ele><time>2026-04-11T10:07:43Z</time></trkpt><trkpt lat="46.468186015177075" lon="9.711136856846235"><ele>2157.0</ele><time>2026-04-11T10:07:44Z</time></trkpt><trkpt lat="46.46826911714901" lon="9.711438919616045"><ele>2158.0</ele><time>2026-04-11T10:07:44.999Z</time></trkpt><trkpt lat="46.46834887126336" lon="9.711745487567304"><ele>2159.0</ele><time>2026-04-11T10:07:45.999Z</time></trkpt><trkpt lat="46.468429951695335" lon="9.712054126339293"><ele>2159.5</ele><time>2026-04-11T10:07:46.999Z</time></trkpt><trkpt lat="46.46852159062948" lon="9.712357972376235"><ele>2160.0</ele><time>2026-04-11T10:07:47.999Z</time></trkpt><trkpt lat="46.46862976094458" lon="9.71264998510279"><ele>2164.5</ele><time>2026-04-11T10:07:48.999Z</time></trkpt><trkpt lat="46.46875196228163" lon="9.712929942515501"><ele>2169.0</ele><time>2026-04-11T10:07:49.999Z</time></trkpt><trkpt lat="46.468885546099884" lon="9.713194932600315"><ele>2169.0</ele><time>2026-04-11T10:07:50.999Z</time></trkpt><trkpt lat="46.469022413363575" lon="9.713450703437955"><ele>2169.0</ele><time>2026-04-11T10:07:51.999Z</time></trkpt><trkpt lat="46.4691574338552" lon="9.713700789451238"><ele>2169.0</ele><time>2026-04-11T10:07:52.999Z</time></trkpt><trkpt lat="46.46928007679934" lon="9.713928801250356"><ele>2170.0</ele><time>2026-04-11T10:07:53.999Z</time></trkpt><trkpt lat="46.469384240718824" lon="9.714154871867777"><ele>2171.0</ele><time>2026-04-11T10:07:54.999Z</time></trkpt><trkpt lat="46.46946349717824" lon="9.71438094881857"><ele>2172.0</ele><time>2026-04-11T10:07:55.999Z</time></trkpt><trkpt lat="46.46950965145022" lon="9.7145943860256"><ele>2174.0</ele><time>2026-04-11T10:07:56.999Z</time></trkpt><trkpt lat="46.46953914171597" lon="9.71476031699029"><ele>2176.0</ele><time>2026-04-11T10:07:57.999Z</time></trkpt><trkpt lat="46.46957209556348" lon="9.71488422342087"><ele>2178.0</ele><time>2026-04-11T10:07:58.999Z</time></trkpt><trkpt lat="46.46962682234501" lon="9.714963116091996"><ele>2180.0</ele><time>2026-04-11T10:07:59.999Z</time></trkpt><trkpt lat="46.469703356226304" lon="9.715007947542762"><ele>2182.0</ele><time>2026-04-11T10:08:00.999Z</time></trkpt><trkpt lat="46.46981047813034" lon="9.714943945100686"><ele>2181.75</ele><time>2026-04-11T10:08:01.999Z</time></trkpt><trkpt lat="46.469861304881704" lon="9.714792200734369"><ele>2181.5</ele><time>2026-04-11T10:08:02.999Z</time></trkpt><trkpt lat="46.46987520466366" lon="9.714633568137332"><ele>2181.25</ele><time>2026-04-11T10:08:03.999Z</time></trkpt><trkpt lat="46.46986543808454" lon="9.714422959918462"><ele>2181.0</ele><time>2026-04-11T10:08:04.999Z</time></trkpt><trkpt lat="46.4698809119348" lon="9.7142155615747"><ele>2181.0</ele><time>2026-04-11T10:08:05.999Z</time></trkpt><trkpt lat="46.469942143048996" lon="9.714133979937365"><ele>2181.0</ele><time>2026-04-11T10:08:06.999Z</time></trkpt><trkpt lat="46.47006074498093" lon="9.714106889069058"><ele>2181.0</ele><time>2026-04-11T10:08:07.999Z</time></trkpt><trkpt lat="46.47015491063799" lon="9.714105284349673"><ele>2181.0</ele><time>2026-04-11T10:08:08.999Z</time></trkpt><trkpt lat="46.47023262022183" lon="9.714236932373952"><ele>2181.0</ele><time>2026-04-11T10:08:09.999Z</time></trkpt><trkpt lat="46.470313027941245" lon="9.71437983100819"><ele>2182.3333333333335</ele><time>2026-04-11T10:08:10.999Z</time></trkpt><trkpt lat="46.47041706464192" lon="9.714546342604741"><ele>2183.666666666667</ele><time>2026-04-11T10:08:11.999Z</time></trkpt><trkpt lat="46.47052687206942" lon="9.714725106139168"><ele>2185.0</ele><time>2026-04-11T10:08:12.999Z</time></trkpt><trkpt lat="46.47063247373833" lon="9.71489960363628"><ele>2186.3333333333335</ele><time>2026-04-11T10:08:13.999Z</time></trkpt><trkpt lat="46.470742617024115" lon="9.715081605767418"><ele>2187.6666666666665</ele><time>2026-04-11T10:08:14.999Z</time></trkpt><trkpt lat="46.470871413159166" lon="9.715255205490688"><ele>2189.0</ele><time>2026-04-11T10:08:15.999Z</time></trkpt><trkpt lat="46.47099070066861" lon="9.71545874532816"><ele>2192.0</ele><time>2026-04-11T10:08:16.999Z</time></trkpt><trkpt lat="46.471108794872436" lon="9.715665839052125"><ele>2195.0</ele><time>2026-04-11T10:08:17.999Z</time></trkpt><trkpt lat="46.47123832635665" lon="9.71586198086615"><ele>2198.0</ele><time>2026-04-11T10:08:18.999Z</time></trkpt><trkpt lat="46.471389279075446" lon="9.716035382027798"><ele>2202.333333333333</ele><time>2026-04-11T10:08:19.999Z</time></trkpt><trkpt lat="46.471548293473816" lon="9.716164248249829"><ele>2206.6666666666665</ele><time>2026-04-11T10:08:20.999Z</time></trkpt><trkpt lat="46.47170902746126" lon="9.716257830571267"><ele>2211.0</ele><time>2026-04-11T10:08:21.999Z</time></trkpt><trkpt lat="46.471852783498974" lon="9.716339122714048"><ele>2211.0</ele><time>2026-04-11T10:08:22.999Z</time></trkpt><trkpt lat="46.47199012031474" lon="9.716393887005976"><ele>2211.0</ele><time>2026-04-11T10:08:23.999Z</time></trkpt><trkpt lat="46.47209077661753" lon="9.716438842503637"><ele>2211.0</ele><time>2026-04-11T10:08:24.999Z</time></trkpt><trkpt lat="46.47216172517367" lon="9.716484760016169"><ele>2211.0</ele><time>2026-04-11T10:08:25.999Z</time></trkpt><trkpt lat="46.47220075446573" lon="9.716560344800026"><ele>2211.0</ele><time>2026-04-11T10:08:26.999Z</time></trkpt><trkpt lat="46.4722033933663" lon="9.716699314263925"><ele>2211.0</ele><time>2026-04-11T10:08:27.999Z</time></trkpt><trkpt lat="46.472151267605796" lon="9.716832642024483"><ele>2211.0</ele><time>2026-04-11T10:08:28.999Z</time></trkpt><trkpt lat="46.472062127085124" lon="9.716895438481846"><ele>2211.0</ele><time>2026-04-11T10:08:29.999Z</time></trkpt><trkpt lat="46.47194660936061" lon="9.716871634945221"><ele>2211.0</ele><time>2026-04-11T10:08:30.999Z</time></trkpt><trkpt lat="46.47180446870523" lon="9.716895369607325"><ele>2211.0</ele><time>2026-04-11T10:08:31.999Z</time></trkpt><trkpt lat="46.47165065631739" lon="9.716893547290786"><ele>2211.0</ele><time>2026-04-11T10:08:32.999Z</time></trkpt><trkpt lat="46.4714795916465" lon="9.716899206393903"><ele>2211.0</ele><time>2026-04-11T10:08:33.999Z</time></trkpt><trkpt lat="46.47129907918334" lon="9.716902408094386"><ele>2212.0</ele><time>2026-04-11T10:08:34.999Z</time></trkpt><trkpt lat="46.47110639306583" lon="9.716905096265224"><ele>2213.0</ele><time>2026-04-11T10:08:35.999Z</time></trkpt><trkpt lat="46.470910585865525" lon="9.71686908614415"><ele>2214.0</ele><time>2026-04-11T10:08:36.999Z</time></trkpt><trkpt lat="46.47072843711039" lon="9.716784458724636"><ele>2214.0</ele><time>2026-04-11T10:08:37.999Z</time></trkpt><trkpt lat="46.47057498969669" lon="9.716694277764512"><ele>2214.0</ele><time>2026-04-11T10:08:38.999Z</time></trkpt><trkpt lat="46.47043937104584" lon="9.716636302567542"><ele>2214.0</ele><time>2026-04-11T10:08:39.999Z</time></trkpt><trkpt lat="46.470345109407795" lon="9.716578213947601"><ele>2214.0</ele><time>2026-04-11T10:08:40.999Z</time></trkpt><trkpt lat="46.47025828166975" lon="9.716606416154178"><ele>2215.0</ele><time>2026-04-11T10:08:41.999Z</time></trkpt><trkpt lat="46.47016398714136" lon="9.716733657371957"><ele>2216.0</ele><time>2026-04-11T10:08:42.999Z</time></trkpt><trkpt lat="46.470062625424724" lon="9.716880758141544"><ele>2217.0</ele><time>2026-04-11T10:08:43.999Z</time></trkpt><trkpt lat="46.469951335714065" lon="9.71700056123596"><ele>2218.0</ele><time>2026-04-11T10:08:44.999Z</time></trkpt><trkpt lat="46.469858753803045" lon="9.717097949720449"><ele>2221.0</ele><time>2026-04-11T10:08:45.999Z</time></trkpt><trkpt lat="46.46979703351091" lon="9.71722713028159"><ele>2224.0</ele><time>2026-04-11T10:08:46.999Z</time></trkpt><trkpt lat="46.4697451903488" lon="9.717379950717959"><ele>2227.0</ele><time>2026-04-11T10:08:47.999Z</time></trkpt><trkpt lat="46.469721986006384" lon="9.717544065418979"><ele>2230.0</ele><time>2026-04-11T10:08:48.999Z</time></trkpt><trkpt lat="46.46973710838531" lon="9.717707740272479"><ele>2231.6</ele><time>2026-04-11T10:08:49.999Z</time></trkpt><trkpt lat="46.46978926535216" lon="9.717844477321933"><ele>2233.2</ele><time>2026-04-11T10:08:50.999Z</time></trkpt><trkpt lat="46.469858727959824" lon="9.717948870939411"><ele>2234.8</ele><time>2026-04-11T10:08:51.999Z</time></trkpt><trkpt lat="46.46993911195952" lon="9.71802528060234"><ele>2236.4</ele><time>2026-04-11T10:08:52.999Z</time></trkpt><trkpt lat="46.47002058208948" lon="9.71808499273605"><ele>2238.0</ele><time>2026-04-11T10:08:53.999Z</time></trkpt><trkpt lat="46.4700975438867" lon="9.71812010187879"><ele>2238.0</ele><time>2026-04-11T10:08:54.999Z</time></trkpt><trkpt lat="46.47016576054175" lon="9.718140269850945"><ele>2238.0</ele><time>2026-04-11T10:08:55.999Z</time></trkpt><trkpt lat="46.47023077363953" lon="9.71813108172303"><ele>2238.0</ele><time>2026-04-11T10:08:57Z</time></trkpt><trkpt lat="46.470264227560996" lon="9.71793474779333"><ele>2238.0</ele><time>2026-04-11T10:09:00Z</time></trkpt><trkpt lat="46.47028143356585" lon="9.717825072199151"><ele>2238.0</ele><time>2026-04-11T10:09:02Z</time></trkpt><trkpt lat="46.470218492590824" lon="9.717769935890475"><ele>2238.0</ele><time>2026-04-11T10:09:03Z</time></trkpt><trkpt lat="46.470129193763334" lon="9.717713403759042"><ele>2238.0</ele><time>2026-04-11T10:09:05Z</time></trkpt><trkpt lat="46.47007343785589" lon="9.717636496618756"><ele>2238.0</ele><time>2026-04-11T10:09:07Z</time></trkpt><trkpt lat="46.469997389645116" lon="9.717573189472011"><ele>2238.0</ele><time>2026-04-11T10:13:20Z</time></trkpt><trkpt lat="46.47002542301619" lon="9.717701483283497"><ele>2238.0</ele><time>2026-04-11T10:13:26Z</time></trkpt><trkpt lat="46.47010583470867" lon="9.717768510016795"><ele>2238.0</ele><time>2026-04-11T10:14:06.999Z</time></trkpt><trkpt lat="46.47019552357224" lon="9.717876041026923"><ele>2238.0</ele><time>2026-04-11T10:14:08.999Z</time></trkpt><trkpt lat="46.47020399663554" lon="9.717988835731468"><ele>2238.0</ele><time>2026-04-11T10:14:10.999Z</time></trkpt><trkpt lat="46.470186268163694" lon="9.718098443528993"><ele>2238.0</ele><time>2026-04-11T10:14:17.999Z</time></trkpt><trkpt lat="46.47028181411979" lon="9.7181573727456"><ele>2238.0</ele><time>2026-04-11T10:14:18.999Z</time></trkpt><trkpt lat="46.4703689426025" lon="9.718184351388818"><ele>2238.0</ele><time>2026-04-11T10:14:19.999Z</time></trkpt><trkpt lat="46.47047106154828" lon="9.71822100909037"><ele>2237.25</ele><time>2026-04-11T10:14:20.999Z</time></trkpt><trkpt lat="46.47057281534358" lon="9.718275846043053"><ele>2236.5</ele><time>2026-04-11T10:14:21.999Z</time></trkpt><trkpt lat="46.470695266203656" lon="9.718352776286446"><ele>2235.75</ele><time>2026-04-11T10:14:22.999Z</time></trkpt><trkpt lat="46.470829682106405" lon="9.718456844326749"><ele>2235.0</ele><time>2026-04-11T10:14:23.999Z</time></trkpt><trkpt lat="46.47095700302254" lon="9.718582225006033"><ele>2235.0</ele><time>2026-04-11T10:14:24.999Z</time></trkpt><trkpt lat="46.47109090168358" lon="9.718724009160356"><ele>2235.0</ele><time>2026-04-11T10:14:25.999Z</time></trkpt><trkpt lat="46.471227495945094" lon="9.718861015377144"><ele>2235.0</ele><time>2026-04-11T10:14:26.999Z</time></trkpt><trkpt lat="46.47137769955628" lon="9.718993627126762"><ele>2236.3333333333335</ele><time>2026-04-11T10:14:27.999Z</time></trkpt><trkpt lat="46.47153866527056" lon="9.719120172370179"><ele>2237.666666666667</ele><time>2026-04-11T10:14:28.999Z</time></trkpt><trkpt lat="46.471694821149036" lon="9.71924890530187"><ele>2239.0</ele><time>2026-04-11T10:14:29.999Z</time></trkpt><trkpt lat="46.47185625587508" lon="9.719378946667232"><ele>2240.3333333333335</ele><time>2026-04-11T10:14:30.999Z</time></trkpt><trkpt lat="46.47201934911105" lon="9.719517486905996"><ele>2241.6666666666665</ele><time>2026-04-11T10:14:31.999Z</time></trkpt><trkpt lat="46.47218015821135" lon="9.719669020937282"><ele>2243.0</ele><time>2026-04-11T10:14:32.999Z</time></trkpt><trkpt lat="46.472337517068645" lon="9.71982610178314"><ele>2243.0</ele><time>2026-04-11T10:14:33.999Z</time></trkpt><trkpt lat="46.472492215481225" lon="9.71998492093162"><ele>2243.0</ele><time>2026-04-11T10:14:34.999Z</time></trkpt><trkpt lat="46.4726480462144" lon="9.720138535985026"><ele>2243.0</ele><time>2026-04-11T10:14:35.999Z</time></trkpt><trkpt lat="46.472790369230815" lon="9.720277097081608"><ele>2243.0</ele><time>2026-04-11T10:14:36.999Z</time></trkpt><trkpt lat="46.472917007977244" lon="9.720415563859856"><ele>2243.0</ele><time>2026-04-11T10:14:37.999Z</time></trkpt><trkpt lat="46.47302837738308" lon="9.720558197162823"><ele>2243.0</ele><time>2026-04-11T10:14:38.999Z</time></trkpt><trkpt lat="46.47314159425318" lon="9.72061623880372"><ele>2243.0</ele><time>2026-04-11T10:14:39.999Z</time></trkpt><trkpt lat="46.47322745987478" lon="9.72071439139234"><ele>2245.75</ele><time>2026-04-11T10:14:40.999Z</time></trkpt><trkpt lat="46.47327348195316" lon="9.720863781116933"><ele>2248.5</ele><time>2026-04-11T10:14:41.999Z</time></trkpt><trkpt lat="46.4733070096793" lon="9.721021066205617"><ele>2251.25</ele><time>2026-04-11T10:14:42.999Z</time></trkpt><trkpt lat="46.47325473410243" lon="9.721195434180494"><ele>2254.0</ele><time>2026-04-11T10:14:43.999Z</time></trkpt><trkpt lat="46.473177364736834" lon="9.7213342682183"><ele>2254.5</ele><time>2026-04-11T10:14:44.999Z</time></trkpt><trkpt lat="46.473074184104846" lon="9.721413874345965"><ele>2255.0</ele><time>2026-04-11T10:14:45.999Z</time></trkpt><trkpt lat="46.472974920649634" lon="9.721465355202284"><ele>2255.5</ele><time>2026-04-11T10:14:46.999Z</time></trkpt><trkpt lat="46.47286361281994" lon="9.721540259443586"><ele>2256.0</ele><time>2026-04-11T10:14:47.999Z</time></trkpt><trkpt lat="46.47275265658261" lon="9.721628318637949"><ele>2256.0</ele><time>2026-04-11T10:14:48.999Z</time></trkpt><trkpt lat="46.47263058435478" lon="9.721697731783317"><ele>2256.0</ele><time>2026-04-11T10:14:49.999Z</time></trkpt><trkpt lat="46.472516853827734" lon="9.721747037364048"><ele>2256.0</ele><time>2026-04-11T10:14:50.999Z</time></trkpt><trkpt lat="46.472392822008686" lon="9.721785662824253"><ele>2256.0</ele><time>2026-04-11T10:14:51.999Z</time></trkpt><trkpt lat="46.47227015108203" lon="9.721783624583855"><ele>2256.0</ele><time>2026-04-11T10:14:52.999Z</time></trkpt><trkpt lat="46.47214574216873" lon="9.72177097535838"><ele>2256.0</ele><time>2026-04-11T10:14:53.999Z</time></trkpt><trkpt lat="46.47203595099651" lon="9.721775411622428"><ele>2256.0</ele><time>2026-04-11T10:14:54.999Z</time></trkpt><trkpt lat="46.471944844180676" lon="9.721780172113354"><ele>2256.0</ele><time>2026-04-11T10:14:55.999Z</time></trkpt><trkpt lat="46.471850059790626" lon="9.721842613186546"><ele>2256.0</ele><time>2026-04-11T10:14:56.999Z</time></trkpt><trkpt lat="46.471751798699785" lon="9.721942123050276"><ele>2260.3333333333335</ele><time>2026-04-11T10:14:57.999Z</time></trkpt><trkpt lat="46.47166241082712" lon="9.722076847883342"><ele>2264.666666666667</ele><time>2026-04-11T10:14:58.999Z</time></trkpt><trkpt lat="46.47153981999766" lon="9.722235291162487"><ele>2269.0</ele><time>2026-04-11T10:14:59.999Z</time></trkpt><trkpt lat="46.47138833710906" lon="9.722401865323123"><ele>2269.3333333333335</ele><time>2026-04-11T10:15:00.999Z</time></trkpt><trkpt lat="46.471231323810144" lon="9.722564490504968"><ele>2269.6666666666665</ele><time>2026-04-11T10:15:01.999Z</time></trkpt><trkpt lat="46.47107961392724" lon="9.72272390864608"><ele>2270.0</ele><time>2026-04-11T10:15:02.999Z</time></trkpt><trkpt lat="46.470959514706564" lon="9.722864470544913"><ele>2270.75</ele><time>2026-04-11T10:15:03.999Z</time></trkpt><trkpt lat="46.47087144166687" lon="9.723011450111283"><ele>2271.5</ele><time>2026-04-11T10:15:04.999Z</time></trkpt><trkpt lat="46.47081478439145" lon="9.72319427961605"><ele>2272.25</ele><time>2026-04-11T10:15:05.999Z</time></trkpt><trkpt lat="46.47078752814752" lon="9.723412615179777"><ele>2273.0</ele><time>2026-04-11T10:15:06.999Z</time></trkpt><trkpt lat="46.47079326273709" lon="9.723646526026329"><ele>2273.6666666666665</ele><time>2026-04-11T10:15:07.999Z</time></trkpt><trkpt lat="46.47083391448302" lon="9.723888307961417"><ele>2274.3333333333335</ele><time>2026-04-11T10:15:08.999Z</time></trkpt><trkpt lat="46.470881076980476" lon="9.724138274129793"><ele>2275.0</ele><time>2026-04-11T10:15:09.999Z</time></trkpt><trkpt lat="46.470922801529845" lon="9.72439671432299"><ele>2276.0</ele><time>2026-04-11T10:15:10.999Z</time></trkpt><trkpt lat="46.47095780085958" lon="9.724654527521993"><ele>2277.0</ele><time>2026-04-11T10:15:11.999Z</time></trkpt><trkpt lat="46.470988209038964" lon="9.724890482692349"><ele>2278.0</ele><time>2026-04-11T10:15:12.999Z</time></trkpt><trkpt lat="46.471025235742" lon="9.725102431748327"><ele>2278.3333333333335</ele><time>2026-04-11T10:15:14Z</time></trkpt><trkpt lat="46.471093259524174" lon="9.725290801390953"><ele>2278.6666666666665</ele><time>2026-04-11T10:15:15Z</time></trkpt><trkpt lat="46.47119830182786" lon="9.725460428972495"><ele>2279.0</ele><time>2026-04-11T10:15:16Z</time></trkpt><trkpt lat="46.47133181345722" lon="9.725622983143872"><ele>2279.0</ele><time>2026-04-11T10:15:17Z</time></trkpt><trkpt lat="46.471478876509885" lon="9.725783959044563"><ele>2279.0</ele><time>2026-04-11T10:15:18Z</time></trkpt><trkpt lat="46.4716262012006" lon="9.725948710061951"><ele>2279.0</ele><time>2026-04-11T10:15:19Z</time></trkpt><trkpt lat="46.47177397822237" lon="9.72612055519919"><ele>2280.0</ele><time>2026-04-11T10:15:20Z</time></trkpt><trkpt lat="46.47191660320077" lon="9.726293837754753"><ele>2281.0</ele><time>2026-04-11T10:15:21Z</time></trkpt><trkpt lat="46.4720565821752" lon="9.726465536355786"><ele>2282.0</ele><time>2026-04-11T10:15:22Z</time></trkpt><trkpt lat="46.472174035127836" lon="9.726636260256193"><ele>2286.333333333333</ele><time>2026-04-11T10:15:23Z</time></trkpt><trkpt lat="46.47224842429617" lon="9.726813463395468"><ele>2290.6666666666665</ele><time>2026-04-11T10:15:24Z</time></trkpt><trkpt lat="46.472238217792096" lon="9.727034664200193"><ele>2295.0</ele><time>2026-04-11T10:15:25Z</time></trkpt><trkpt lat="46.47222985925728" lon="9.727276273155057"><ele>2295.5</ele><time>2026-04-11T10:15:26Z</time></trkpt><trkpt lat="46.47222850716266" lon="9.72750695322294"><ele>2296.0</ele><time>2026-04-11T10:15:27Z</time></trkpt><trkpt lat="46.47221078687889" lon="9.7277118909492"><ele>2296.5</ele><time>2026-04-11T10:15:28Z</time></trkpt><trkpt lat="46.4722082618673" lon="9.727899945423264"><ele>2297.0</ele><time>2026-04-11T10:15:29Z</time></trkpt><trkpt lat="46.47220521654798" lon="9.728085933296137"><ele>2296.0</ele><time>2026-04-11T10:15:30Z</time></trkpt><trkpt lat="46.47220587724512" lon="9.728273315680543"><ele>2295.0</ele><time>2026-04-11T10:15:31Z</time></trkpt><trkpt lat="46.47220577244846" lon="9.728488567883621"><ele>2294.0</ele><time>2026-04-11T10:15:32Z</time></trkpt><trkpt lat="46.472205968556956" lon="9.728726394616254"><ele>2293.0</ele><time>2026-04-11T10:15:33Z</time></trkpt><trkpt lat="46.47220731577008" lon="9.728980450982784"><ele>2291.666666666667</ele><time>2026-04-11T10:15:34Z</time></trkpt><trkpt lat="46.47220539131751" lon="9.729244106353924"><ele>2290.3333333333335</ele><time>2026-04-11T10:15:35Z</time></trkpt><trkpt lat="46.4722034422819" lon="9.729503397858952"><ele>2289.0</ele><time>2026-04-11T10:15:36Z</time></trkpt><trkpt lat="46.472204083301946" lon="9.729762175305432"><ele>2287.6666666666665</ele><time>2026-04-11T10:15:37Z</time></trkpt><trkpt lat="46.47219001436538" lon="9.730009890419728"><ele>2286.333333333333</ele><time>2026-04-11T10:15:38Z</time></trkpt><trkpt lat="46.47211449677131" lon="9.730226772938913"><ele>2285.0</ele><time>2026-04-11T10:15:39Z</time></trkpt><trkpt lat="46.47202132358587" lon="9.730435009990176"><ele>2278.333333333333</ele><time>2026-04-11T10:15:40Z</time></trkpt><trkpt lat="46.471939377077426" lon="9.73064933335268"><ele>2271.6666666666665</ele><time>2026-04-11T10:15:41Z</time></trkpt><trkpt lat="46.47185075185105" lon="9.730856121529987"><ele>2265.0</ele><time>2026-04-11T10:15:42Z</time></trkpt><trkpt lat="46.471763841608904" lon="9.731066526500014"><ele>2264.0</ele><time>2026-04-11T10:15:43Z</time></trkpt><trkpt lat="46.47167352994877" lon="9.731275207568842"><ele>2263.0</ele><time>2026-04-11T10:15:44Z</time></trkpt><trkpt lat="46.47159529799048" lon="9.731490537663127"><ele>2262.0</ele><time>2026-04-11T10:15:45Z</time></trkpt><trkpt lat="46.47154966155132" lon="9.731732432313583"><ele>2261.6666666666665</ele><time>2026-04-11T10:15:46Z</time></trkpt><trkpt lat="46.471552011926036" lon="9.731995610398604"><ele>2261.333333333333</ele><time>2026-04-11T10:15:47Z</time></trkpt><trkpt lat="46.471579346652184" lon="9.732264375277486"><ele>2261.0</ele><time>2026-04-11T10:15:48Z</time></trkpt><trkpt lat="46.4716045007538" lon="9.732531884726148"><ele>2260.0</ele><time>2026-04-11T10:15:48.999Z</time></trkpt><trkpt lat="46.471626667333545" lon="9.732790970464073"><ele>2259.0</ele><time>2026-04-11T10:15:49.999Z</time></trkpt><trkpt lat="46.471656198559536" lon="9.73301369267043"><ele>2258.0</ele><time>2026-04-11T10:15:50.999Z</time></trkpt><trkpt lat="46.47170730912226" lon="9.733218408775539"><ele>2258.0</ele><time>2026-04-11T10:15:51.999Z</time></trkpt><trkpt lat="46.471796918493816" lon="9.733421560877643"><ele>2258.0</ele><time>2026-04-11T10:15:52.999Z</time></trkpt><trkpt lat="46.47190130806851" lon="9.733636925880688"><ele>2258.0</ele><time>2026-04-11T10:15:53.999Z</time></trkpt><trkpt lat="46.472006720400834" lon="9.733859806366219"><ele>2258.0</ele><time>2026-04-11T10:15:54.999Z</time></trkpt><trkpt lat="46.47210221746885" lon="9.734083193821942"><ele>2258.0</ele><time>2026-04-11T10:15:55.999Z</time></trkpt><trkpt lat="46.47218586551164" lon="9.734296302335224"><ele>2258.0</ele><time>2026-04-11T10:15:56.999Z</time></trkpt><trkpt lat="46.47224534619519" lon="9.734504009331696"><ele>2256.0</ele><time>2026-04-11T10:15:57.999Z</time></trkpt><trkpt lat="46.47223347621833" lon="9.734727297781538"><ele>2254.0</ele><time>2026-04-11T10:15:58.999Z</time></trkpt><trkpt lat="46.47218761329768" lon="9.734935253261977"><ele>2252.0</ele><time>2026-04-11T10:15:59.999Z</time></trkpt><trkpt lat="46.47214449738945" lon="9.735161814092482"><ele>2247.333333333333</ele><time>2026-04-11T10:16:00.999Z</time></trkpt><trkpt lat="46.47206906489274" lon="9.735377655340365"><ele>2242.6666666666665</ele><time>2026-04-11T10:16:01.999Z</time></trkpt><trkpt lat="46.47201034599396" lon="9.73559279484784"><ele>2238.0</ele><time>2026-04-11T10:16:02.999Z</time></trkpt><trkpt lat="46.47196517071003" lon="9.735801572707546"><ele>2238.0</ele><time>2026-04-11T10:16:03.999Z</time></trkpt><trkpt lat="46.471949931574116" lon="9.736009393248143"><ele>2238.0</ele><time>2026-04-11T10:16:04.999Z</time></trkpt><trkpt lat="46.47199116165079" lon="9.736233317234598"><ele>2238.0</ele><time>2026-04-11T10:16:05.999Z</time></trkpt><trkpt lat="46.472066865538906" lon="9.736462604967993"><ele>2236.6666666666665</ele><time>2026-04-11T10:16:06.999Z</time></trkpt><trkpt lat="46.47214908103427" lon="9.736707389137235"><ele>2235.333333333333</ele><time>2026-04-11T10:16:07.999Z</time></trkpt><trkpt lat="46.47222908430124" lon="9.736966169848104"><ele>2234.0</ele><time>2026-04-11T10:16:08.999Z</time></trkpt><trkpt lat="46.472306800287186" lon="9.737238810191613"><ele>2234.0</ele><time>2026-04-11T10:16:09.999Z</time></trkpt><trkpt lat="46.47238491431417" lon="9.737518453698181"><ele>2234.0</ele><time>2026-04-11T10:16:10.999Z</time></trkpt><trkpt lat="46.472439239999375" lon="9.737797309203236"><ele>2234.0</ele><time>2026-04-11T10:16:11.999Z</time></trkpt><trkpt lat="46.47245625482507" lon="9.738093372275696"><ele>2232.0</ele><time>2026-04-11T10:16:12.999Z</time></trkpt><trkpt lat="46.472454600187795" lon="9.738389048470749"><ele>2230.0</ele><time>2026-04-11T10:16:13.999Z</time></trkpt><trkpt lat="46.4724451380812" lon="9.738687498533013"><ele>2228.0</ele><time>2026-04-11T10:16:14.999Z</time></trkpt><trkpt lat="46.472438981444746" lon="9.738983252492877"><ele>2227.333333333333</ele><time>2026-04-11T10:16:15.999Z</time></trkpt><trkpt lat="46.472438304148916" lon="9.739272570833474"><ele>2226.6666666666665</ele><time>2026-04-11T10:16:16.999Z</time></trkpt><trkpt lat="46.47243810520563" lon="9.739557904052067"><ele>2226.0</ele><time>2026-04-11T10:16:17.999Z</time></trkpt><trkpt lat="46.472437326307954" lon="9.739842708956058"><ele>2222.6666666666665</ele><time>2026-04-11T10:16:18.999Z</time></trkpt><trkpt lat="46.472437670200854" lon="9.740128162580447"><ele>2219.333333333333</ele><time>2026-04-11T10:16:19.999Z</time></trkpt><trkpt lat="46.472437365136216" lon="9.740410059576826"><ele>2216.0</ele><time>2026-04-11T10:16:20.999Z</time></trkpt><trkpt lat="46.472436422485565" lon="9.740692207419062"><ele>2215.333333333333</ele><time>2026-04-11T10:16:21.999Z</time></trkpt><trkpt lat="46.47243810238538" lon="9.74097645977156"><ele>2214.6666666666665</ele><time>2026-04-11T10:16:22.999Z</time></trkpt><trkpt lat="46.47244048563412" lon="9.741265126945382"><ele>2214.0</ele><time>2026-04-11T10:16:23.999Z</time></trkpt><trkpt lat="46.472442198016786" lon="9.741558012367365"><ele>2213.3333333333335</ele><time>2026-04-11T10:16:24.999Z</time></trkpt><trkpt lat="46.47244289747472" lon="9.74185434362761"><ele>2212.666666666667</ele><time>2026-04-11T10:16:25.999Z</time></trkpt><trkpt lat="46.4724438373733" lon="9.742152753181895"><ele>2212.0</ele><time>2026-04-11T10:16:26.999Z</time></trkpt><trkpt lat="46.47244602883676" lon="9.742450092099602"><ele>2210.0</ele><time>2026-04-11T10:16:27.999Z</time></trkpt><trkpt lat="46.4724484191551" lon="9.742753144700735"><ele>2208.0</ele><time>2026-04-11T10:16:28.999Z</time></trkpt><trkpt lat="46.472449420505654" lon="9.743054271306882"><ele>2206.0</ele><time>2026-04-11T10:16:29.999Z</time></trkpt><trkpt lat="46.472451437629324" lon="9.743358476405977"><ele>2205.3333333333335</ele><time>2026-04-11T10:16:30.999Z</time></trkpt><trkpt lat="46.47245471131555" lon="9.743664204622455"><ele>2204.6666666666665</ele><time>2026-04-11T10:16:31.999Z</time></trkpt><trkpt lat="46.472458298631814" lon="9.743968479593246"><ele>2204.0</ele><time>2026-04-11T10:16:32.999Z</time></trkpt><trkpt lat="46.472459092912054" lon="9.744275066630374"><ele>2202.0</ele><time>2026-04-11T10:16:33.999Z</time></trkpt><trkpt lat="46.47245700576487" lon="9.744582669632598"><ele>2200.0</ele><time>2026-04-11T10:16:34.999Z</time></trkpt><trkpt lat="46.47245754472912" lon="9.744893311894586"><ele>2198.0</ele><time>2026-04-11T10:16:35.999Z</time></trkpt><trkpt lat="46.47246055298297" lon="9.74520922514917"><ele>2196.333333333333</ele><time>2026-04-11T10:16:36.999Z</time></trkpt><trkpt lat="46.47246164575031" lon="9.74552230804511"><ele>2194.6666666666665</ele><time>2026-04-11T10:16:37.999Z</time></trkpt><trkpt lat="46.47246377669379" lon="9.745837212399191"><ele>2193.0</ele><time>2026-04-11T10:16:38.999Z</time></trkpt><trkpt lat="46.472465594790386" lon="9.746152449612365"><ele>2192.6666666666665</ele><time>2026-04-11T10:16:39.999Z</time></trkpt><trkpt lat="46.47246736083165" lon="9.746470459162232"><ele>2192.333333333333</ele><time>2026-04-11T10:16:40.999Z</time></trkpt><trkpt lat="46.47246793686307" lon="9.746791004950929"><ele>2192.0</ele><time>2026-04-11T10:16:41.999Z</time></trkpt><trkpt lat="46.472467199582205" lon="9.74710947658083"><ele>2191.6666666666665</ele><time>2026-04-11T10:16:42.999Z</time></trkpt><trkpt lat="46.472466830668665" lon="9.747429588016068"><ele>2191.3333333333335</ele><time>2026-04-11T10:16:43.999Z</time></trkpt><trkpt lat="46.47247092268786" lon="9.747748967585586"><ele>2191.0</ele><time>2026-04-11T10:16:44.999Z</time></trkpt><trkpt lat="46.47247593789372" lon="9.748062390777804"><ele>2190.666666666667</ele><time>2026-04-11T10:16:45.999Z</time></trkpt><trkpt lat="46.472479483292936" lon="9.748373468671913"><ele>2190.3333333333335</ele><time>2026-04-11T10:16:46.999Z</time></trkpt><trkpt lat="46.472479116462104" lon="9.74866952249661"><ele>2190.0</ele><time>2026-04-11T10:16:47.999Z</time></trkpt><trkpt lat="46.472481638331615" lon="9.748951928209177"><ele>2190.0</ele><time>2026-04-11T10:16:48.999Z</time></trkpt><trkpt lat="46.472481862733844" lon="9.74922144093444"><ele>2190.0</ele><time>2026-04-11T10:16:49.999Z</time></trkpt><trkpt lat="46.472461084552315" lon="9.749458628574402"><ele>2190.0</ele><time>2026-04-11T10:16:50.999Z</time></trkpt><trkpt lat="46.47240362016444" lon="9.74966826306994"><ele>2191.0</ele><time>2026-04-11T10:16:51.999Z</time></trkpt><trkpt lat="46.47230071464836" lon="9.749828710022587"><ele>2192.0</ele><time>2026-04-11T10:16:52.999Z</time></trkpt><trkpt lat="46.47215531660841" lon="9.74994888286998"><ele>2193.0</ele><time>2026-04-11T10:16:53.999Z</time></trkpt><trkpt lat="46.4719831094822" lon="9.750049347318846"><ele>2190.3333333333335</ele><time>2026-04-11T10:16:54.999Z</time></trkpt><trkpt lat="46.47180379578255" lon="9.750162573565472"><ele>2187.666666666667</ele><time>2026-04-11T10:16:55.999Z</time></trkpt><trkpt lat="46.47163166581926" lon="9.7502866507104"><ele>2185.0</ele><time>2026-04-11T10:16:56.999Z</time></trkpt><trkpt lat="46.471469713825755" lon="9.750405222252231"><ele>2185.0</ele><time>2026-04-11T10:16:57.999Z</time></trkpt><trkpt lat="46.471311902559776" lon="9.75052304368831"><ele>2185.0</ele><time>2026-04-11T10:16:58.999Z</time></trkpt><trkpt lat="46.47116008490658" lon="9.750674451693834"><ele>2185.0</ele><time>2026-04-11T10:16:59.999Z</time></trkpt><trkpt lat="46.4710243587306" lon="9.750863660159016"><ele>2180.666666666667</ele><time>2026-04-11T10:17:00.999Z</time></trkpt><trkpt lat="46.470912223286156" lon="9.751085937139537"><ele>2176.3333333333335</ele><time>2026-04-11T10:17:01.999Z</time></trkpt><trkpt lat="46.47083456741805" lon="9.75132500205924"><ele>2172.0</ele><time>2026-04-11T10:17:02.999Z</time></trkpt><trkpt lat="46.470815793159765" lon="9.751563992790171"><ele>2172.0</ele><time>2026-04-11T10:17:03.999Z</time></trkpt><trkpt lat="46.47083793248914" lon="9.751817703673083"><ele>2172.0</ele><time>2026-04-11T10:17:04.999Z</time></trkpt><trkpt lat="46.47090715653393" lon="9.752083404508499"><ele>2172.0</ele><time>2026-04-11T10:17:05.999Z</time></trkpt><trkpt lat="46.47095727047234" lon="9.752372807745672"><ele>2170.3333333333335</ele><time>2026-04-11T10:17:06.999Z</time></trkpt><trkpt lat="46.4709420052165" lon="9.752681654569116"><ele>2168.666666666667</ele><time>2026-04-11T10:17:07.999Z</time></trkpt><trkpt lat="46.470930980293" lon="9.752993492992482"><ele>2167.0</ele><time>2026-04-11T10:17:08.999Z</time></trkpt><trkpt lat="46.470930526799144" lon="9.753293365166648"><ele>2166.0</ele><time>2026-04-11T10:17:09.999Z</time></trkpt><trkpt lat="46.47090615096063" lon="9.75358055561106"><ele>2165.0</ele><time>2026-04-11T10:17:10.999Z</time></trkpt><trkpt lat="46.47085738059314" lon="9.753853397555593"><ele>2164.0</ele><time>2026-04-11T10:17:11.999Z</time></trkpt><trkpt lat="46.47075775841104" lon="9.75408798246997"><ele>2164.0</ele><time>2026-04-11T10:17:12.999Z</time></trkpt><trkpt lat="46.47064561499778" lon="9.754282004954607"><ele>2164.0</ele><time>2026-04-11T10:17:13.999Z</time></trkpt><trkpt lat="46.47055016341404" lon="9.754458537637055"><ele>2164.0</ele><time>2026-04-11T10:17:14.999Z</time></trkpt><trkpt lat="46.47048154219666" lon="9.754624479736925"><ele>2164.0</ele><time>2026-04-11T10:17:15.999Z</time></trkpt><trkpt lat="46.47043237848884" lon="9.754791246166734"><ele>2164.0</ele><time>2026-04-11T10:17:16.999Z</time></trkpt><trkpt lat="46.47046432853352" lon="9.754988414300408"><ele>2164.0</ele><time>2026-04-11T10:17:17.999Z</time></trkpt><trkpt lat="46.47047423026954" lon="9.755175062925767"><ele>2164.0</ele><time>2026-04-11T10:17:18.999Z</time></trkpt><trkpt lat="46.470492785751404" lon="9.755349586216902"><ele>2164.0</ele><time>2026-04-11T10:17:20Z</time></trkpt><trkpt lat="46.47048195254189" lon="9.755535254434228"><ele>2164.0</ele><time>2026-04-11T10:17:21Z</time></trkpt><trkpt lat="46.47040661317582" lon="9.755736247283968"><ele>2164.0</ele><time>2026-04-11T10:17:22Z</time></trkpt><trkpt lat="46.47031551619581" lon="9.755946852331315"><ele>2159.0</ele><time>2026-04-11T10:17:23Z</time></trkpt><trkpt lat="46.47022913422775" lon="9.756183134372524"><ele>2154.0</ele><time>2026-04-11T10:17:24Z</time></trkpt><trkpt lat="46.47016075850091" lon="9.756452260725258"><ele>2149.0</ele><time>2026-04-11T10:17:25Z</time></trkpt><trkpt lat="46.47010834061579" lon="9.756734813522144"><ele>2145.666666666667</ele><time>2026-04-11T10:17:26Z</time></trkpt><trkpt lat="46.470068679973465" lon="9.756977342542445"><ele>2142.3333333333335</ele><time>2026-04-11T10:17:27Z</time></trkpt><trkpt lat="46.470052167510474" lon="9.757202871298157"><ele>2139.0</ele><time>2026-04-11T10:17:28Z</time></trkpt><trkpt lat="46.4700773965683" lon="9.75741773334639"><ele>2139.0</ele><time>2026-04-11T10:17:29Z</time></trkpt><trkpt lat="46.47012924806608" lon="9.757603066058383"><ele>2139.0</ele><time>2026-04-11T10:17:30Z</time></trkpt><trkpt lat="46.470184615513034" lon="9.757781692465086"><ele>2139.0</ele><time>2026-04-11T10:17:31Z</time></trkpt><trkpt lat="46.47020445278541" lon="9.757993143633694"><ele>2139.0</ele><time>2026-04-11T10:17:32Z</time></trkpt><trkpt lat="46.47018561642531" lon="9.758223328914275"><ele>2137.0</ele><time>2026-04-11T10:17:33Z</time></trkpt><trkpt lat="46.470136785705684" lon="9.758447205044925"><ele>2135.0</ele><time>2026-04-11T10:17:34Z</time></trkpt><trkpt lat="46.46997426665819" lon="9.758671013905731"><ele>2133.0</ele><time>2026-04-11T10:17:35Z</time></trkpt><trkpt lat="46.46985998507593" lon="9.758914303502621"><ele>2133.0</ele><time>2026-04-11T10:17:36Z</time></trkpt><trkpt lat="46.46975065355007" lon="9.759173423292902"><ele>2133.0</ele><time>2026-04-11T10:17:37Z</time></trkpt><trkpt lat="46.46964588584595" lon="9.7594329800202"><ele>2133.0</ele><time>2026-04-11T10:17:38Z</time></trkpt><trkpt lat="46.46953602262532" lon="9.75970163749436"><ele>2129.0</ele><time>2026-04-11T10:17:39Z</time></trkpt><trkpt lat="46.469434268675194" lon="9.759963335220913"><ele>2125.0</ele><time>2026-04-11T10:17:40Z</time></trkpt><trkpt lat="46.469328582246085" lon="9.760217069535877"><ele>2121.0</ele><time>2026-04-11T10:17:41Z</time></trkpt><trkpt lat="46.469247356000636" lon="9.760476658305556"><ele>2120.3333333333335</ele><time>2026-04-11T10:17:42Z</time></trkpt><trkpt lat="46.46920315664879" lon="9.760746362632206"><ele>2119.666666666667</ele><time>2026-04-11T10:17:43Z</time></trkpt><trkpt lat="46.46918161977368" lon="9.761052468360988"><ele>2119.0</ele><time>2026-04-11T10:17:44Z</time></trkpt><trkpt lat="46.46918139080302" lon="9.76137868437283"><ele>2116.5</ele><time>2026-04-11T10:17:45Z</time></trkpt><trkpt lat="46.46918138848103" lon="9.761707067152189"><ele>2114.0</ele><time>2026-04-11T10:17:45.999Z</time></trkpt><trkpt lat="46.46917285468354" lon="9.762034090674353"><ele>2113.0</ele><time>2026-04-11T10:17:46.999Z</time></trkpt><trkpt lat="46.469157456118374" lon="9.76235928614473"><ele>2112.0</ele><time>2026-04-11T10:17:47.999Z</time></trkpt><trkpt lat="46.469131487418586" lon="9.762678514670839"><ele>2111.0</ele><time>2026-04-11T10:17:48.999Z</time></trkpt><trkpt lat="46.4690877406449" lon="9.76299371413125"><ele>2110.333333333333</ele><time>2026-04-11T10:17:49.999Z</time></trkpt><trkpt lat="46.46902984073874" lon="9.763305283164682"><ele>2109.6666666666665</ele><time>2026-04-11T10:17:50.999Z</time></trkpt><trkpt lat="46.468977717748494" lon="9.76361641261086"><ele>2109.0</ele><time>2026-04-11T10:17:51.999Z</time></trkpt><trkpt lat="46.46892744712605" lon="9.76393226682666"><ele>2109.0</ele><time>2026-04-11T10:17:52.999Z</time></trkpt><trkpt lat="46.468879119296204" lon="9.764241998435894"><ele>2109.0</ele><time>2026-04-11T10:17:53.999Z</time></trkpt><trkpt lat="46.46882665759577" lon="9.764551717321112"><ele>2109.0</ele><time>2026-04-11T10:17:54.999Z</time></trkpt><trkpt lat="46.46876695754949" lon="9.764859018487002"><ele>2106.3333333333335</ele><time>2026-04-11T10:17:55.999Z</time></trkpt><trkpt lat="46.46870052712178" lon="9.765165924176793"><ele>2103.666666666667</ele><time>2026-04-11T10:17:56.999Z</time></trkpt><trkpt lat="46.46862747584983" lon="9.765467015558396"><ele>2101.0</ele><time>2026-04-11T10:17:57.999Z</time></trkpt><trkpt lat="46.468547565752736" lon="9.765753153563026"><ele>2098.666666666667</ele><time>2026-04-11T10:17:58.999Z</time></trkpt><trkpt lat="46.46847339327528" lon="9.766043104715015"><ele>2096.3333333333335</ele><time>2026-04-11T10:17:59.999Z</time></trkpt><trkpt lat="46.46840310724395" lon="9.76633542307343"><ele>2094.0</ele><time>2026-04-11T10:18:00.999Z</time></trkpt><trkpt lat="46.46833286044443" lon="9.766624872709732"><ele>2095.0</ele><time>2026-04-11T10:18:01.999Z</time></trkpt><trkpt lat="46.4682563327553" lon="9.766911362653467"><ele>2096.0</ele><time>2026-04-11T10:18:02.999Z</time></trkpt><trkpt lat="46.468179117101634" lon="9.767194541633906"><ele>2097.0</ele><time>2026-04-11T10:18:03.999Z</time></trkpt><trkpt lat="46.468105935508284" lon="9.767473240172128"><ele>2098.0</ele><time>2026-04-11T10:18:04.999Z</time></trkpt><trkpt lat="46.46803514794625" lon="9.767748253071927"><ele>2099.0</ele><time>2026-04-11T10:18:05.999Z</time></trkpt><trkpt lat="46.46796032483141" lon="9.76801508197051"><ele>2100.0</ele><time>2026-04-11T10:18:06.999Z</time></trkpt><trkpt lat="46.46784691761211" lon="9.768251176763549"><ele>2095.6666666666665</ele><time>2026-04-11T10:18:07.999Z</time></trkpt><trkpt lat="46.46772368912119" lon="9.768476405678928"><ele>2091.333333333333</ele><time>2026-04-11T10:18:08.999Z</time></trkpt><trkpt lat="46.46759275010725" lon="9.768714713298648"><ele>2087.0</ele><time>2026-04-11T10:18:09.999Z</time></trkpt><trkpt lat="46.46744034356029" lon="9.768934946920039"><ele>2086.333333333333</ele><time>2026-04-11T10:18:10.999Z</time></trkpt><trkpt lat="46.4672944969564" lon="9.769164142145943"><ele>2085.6666666666665</ele><time>2026-04-11T10:18:11.999Z</time></trkpt><trkpt lat="46.467153545729126" lon="9.769394797558027"><ele>2085.0</ele><time>2026-04-11T10:18:12.999Z</time></trkpt><trkpt lat="46.46701213540769" lon="9.769617961072925"><ele>2084.6666666666665</ele><time>2026-04-11T10:18:13.999Z</time></trkpt><trkpt lat="46.46686802383218" lon="9.769838047055819"><ele>2084.333333333333</ele><time>2026-04-11T10:18:14.999Z</time></trkpt><trkpt lat="46.46672873732358" lon="9.770057325400847"><ele>2084.0</ele><time>2026-04-11T10:18:15.999Z</time></trkpt><trkpt lat="46.466600178210335" lon="9.7702887608499"><ele>2084.0</ele><time>2026-04-11T10:18:16.999Z</time></trkpt><trkpt lat="46.4664873835275" lon="9.77053538074735"><ele>2084.0</ele><time>2026-04-11T10:18:17.999Z</time></trkpt><trkpt lat="46.466385529122185" lon="9.770790638998315"><ele>2084.0</ele><time>2026-04-11T10:18:18.999Z</time></trkpt><trkpt lat="46.46628670318643" lon="9.771055166428594"><ele>2080.0</ele><time>2026-04-11T10:18:19.999Z</time></trkpt><trkpt lat="46.46618731326907" lon="9.771319660610951"><ele>2076.0</ele><time>2026-04-11T10:18:20.999Z</time></trkpt><trkpt lat="46.46608533817086" lon="9.771580890974727"><ele>2072.0</ele><time>2026-04-11T10:18:21.999Z</time></trkpt><trkpt lat="46.46598430480864" lon="9.771847493847323"><ele>2072.6666666666665</ele><time>2026-04-11T10:18:22.999Z</time></trkpt><trkpt lat="46.46588038943349" lon="9.772118322849035"><ele>2073.3333333333335</ele><time>2026-04-11T10:18:23.999Z</time></trkpt><trkpt lat="46.46577467483287" lon="9.772393704801907"><ele>2074.0</ele><time>2026-04-11T10:18:24.999Z</time></trkpt><trkpt lat="46.465670454362645" lon="9.7726677954874"><ele>2076.0</ele><time>2026-04-11T10:18:25.999Z</time></trkpt><trkpt lat="46.46556413862258" lon="9.772943807715777"><ele>2078.0</ele><time>2026-04-11T10:18:26.999Z</time></trkpt><trkpt lat="46.46545871764332" lon="9.773210150191485"><ele>2080.0</ele><time>2026-04-11T10:18:27.999Z</time></trkpt><trkpt lat="46.465353448675714" lon="9.77346578368085"><ele>2075.0</ele><time>2026-04-11T10:18:28.999Z</time></trkpt><trkpt lat="46.46524223365971" lon="9.773714857279678"><ele>2070.0</ele><time>2026-04-11T10:18:29.999Z</time></trkpt><trkpt lat="46.465119785302484" lon="9.773946395434837"><ele>2065.0</ele><time>2026-04-11T10:18:30.999Z</time></trkpt><trkpt lat="46.464987785412035" lon="9.774171417386418"><ele>2063.0</ele><time>2026-04-11T10:18:31.999Z</time></trkpt><trkpt lat="46.4648528178554" lon="9.774392796497473"><ele>2061.0</ele><time>2026-04-11T10:18:32.999Z</time></trkpt><trkpt lat="46.46471437633336" lon="9.774615785165492"><ele>2059.0</ele><time>2026-04-11T10:18:33.999Z</time></trkpt><trkpt lat="46.464575705249295" lon="9.774839378519692"><ele>2059.0</ele><time>2026-04-11T10:18:34.999Z</time></trkpt><trkpt lat="46.464433742969064" lon="9.77505519029982"><ele>2059.0</ele><time>2026-04-11T10:18:35.999Z</time></trkpt><trkpt lat="46.46428221613814" lon="9.77524108733182"><ele>2059.0</ele><time>2026-04-11T10:18:36.999Z</time></trkpt><trkpt lat="46.46412087618135" lon="9.775403766655776"><ele>2060.666666666667</ele><time>2026-04-11T10:18:37.999Z</time></trkpt><trkpt lat="46.46394899926365" lon="9.775564517491222"><ele>2062.3333333333335</ele><time>2026-04-11T10:18:38.999Z</time></trkpt><trkpt lat="46.46377769240931" lon="9.775734900948148"><ele>2064.0</ele><time>2026-04-11T10:18:39.999Z</time></trkpt><trkpt lat="46.463619172753354" lon="9.775923775056377"><ele>2060.6666666666665</ele><time>2026-04-11T10:18:40.999Z</time></trkpt><trkpt lat="46.46348976515769" lon="9.776148544983705"><ele>2057.333333333333</ele><time>2026-04-11T10:18:41.999Z</time></trkpt><trkpt lat="46.46339055339986" lon="9.776407790861452"><ele>2054.0</ele><time>2026-04-11T10:18:42.999Z</time></trkpt><trkpt lat="46.463332607917245" lon="9.776690752297945"><ele>2053.0</ele><time>2026-04-11T10:18:43.999Z</time></trkpt><trkpt lat="46.46330680526467" lon="9.776980633336025"><ele>2052.0</ele><time>2026-04-11T10:18:44.999Z</time></trkpt><trkpt lat="46.46329646773983" lon="9.77726589104303"><ele>2051.0</ele><time>2026-04-11T10:18:45.999Z</time></trkpt><trkpt lat="46.46327683795669" lon="9.777562691180776"><ele>2052.333333333333</ele><time>2026-04-11T10:18:46.999Z</time></trkpt><trkpt lat="46.46321207784008" lon="9.777826315068356"><ele>2053.6666666666665</ele><time>2026-04-11T10:18:47.999Z</time></trkpt><trkpt lat="46.4631234923432" lon="9.778082928355973"><ele>2055.0</ele><time>2026-04-11T10:18:48.999Z</time></trkpt><trkpt lat="46.46302003738483" lon="9.778324326082712"><ele>2049.6666666666665</ele><time>2026-04-11T10:18:49.999Z</time></trkpt><trkpt lat="46.462881438547754" lon="9.778544776666758"><ele>2044.3333333333333</ele><time>2026-04-11T10:18:50.999Z</time></trkpt><trkpt lat="46.462771937693795" lon="9.778782262059497"><ele>2039.0</ele><time>2026-04-11T10:18:51.999Z</time></trkpt><trkpt lat="46.46270753707607" lon="9.779061018452252"><ele>2036.0</ele><time>2026-04-11T10:18:52.999Z</time></trkpt><trkpt lat="46.46267879008006" lon="9.779363931445559"><ele>2033.0</ele><time>2026-04-11T10:18:53.999Z</time></trkpt><trkpt lat="46.46267910862094" lon="9.779679563273026"><ele>2030.0</ele><time>2026-04-11T10:18:54.999Z</time></trkpt><trkpt lat="46.462682611772436" lon="9.780004057553946"><ele>2026.6666666666665</ele><time>2026-04-11T10:18:55.999Z</time></trkpt><trkpt lat="46.46267285183415" lon="9.78032915922266"><ele>2023.3333333333335</ele><time>2026-04-11T10:18:56.999Z</time></trkpt><trkpt lat="46.46265534694432" lon="9.78064539097817"><ele>2020.0</ele><time>2026-04-11T10:18:57.999Z</time></trkpt><trkpt lat="46.462637672420946" lon="9.78096017078169"><ele>2017.3333333333335</ele><time>2026-04-11T10:18:58.999Z</time></trkpt><trkpt lat="46.462626366081665" lon="9.781274036789876"><ele>2014.6666666666665</ele><time>2026-04-11T10:18:59.999Z</time></trkpt><trkpt lat="46.46263010733579" lon="9.781588139648546"><ele>2012.0</ele><time>2026-04-11T10:19:00.999Z</time></trkpt><trkpt lat="46.462663565288196" lon="9.78190040730515"><ele>2009.0</ele><time>2026-04-11T10:19:01.999Z</time></trkpt><trkpt lat="46.46271143396171" lon="9.78220846422772"><ele>2006.0</ele><time>2026-04-11T10:19:02.999Z</time></trkpt><trkpt lat="46.46275477281919" lon="9.782516533125795"><ele>2003.0</ele><time>2026-04-11T10:19:03.999Z</time></trkpt><trkpt lat="46.46275937766121" lon="9.78282546753792"><ele>2000.6666666666665</ele><time>2026-04-11T10:19:04.999Z</time></trkpt><trkpt lat="46.46274167639859" lon="9.78313483856872"><ele>1998.3333333333335</ele><time>2026-04-11T10:19:05.999Z</time></trkpt><trkpt lat="46.46272405225965" lon="9.783444232799841"><ele>1996.0</ele><time>2026-04-11T10:19:06.999Z</time></trkpt><trkpt lat="46.46270973679103" lon="9.783744416441058"><ele>1994.6666666666667</ele><time>2026-04-11T10:19:07.999Z</time></trkpt><trkpt lat="46.46269622892182" lon="9.78404054557972"><ele>1993.3333333333335</ele><time>2026-04-11T10:19:08.999Z</time></trkpt><trkpt lat="46.46267915607948" lon="9.784328861823026"><ele>1992.0</ele><time>2026-04-11T10:19:09.999Z</time></trkpt><trkpt lat="46.46266259195222" lon="9.784615327145897"><ele>1992.0</ele><time>2026-04-11T10:19:10.999Z</time></trkpt><trkpt lat="46.462644263014276" lon="9.784896082465698"><ele>1992.0</ele><time>2026-04-11T10:19:11.999Z</time></trkpt><trkpt lat="46.462621747237776" lon="9.785166838971998"><ele>1992.0</ele><time>2026-04-11T10:19:12.999Z</time></trkpt><trkpt lat="46.46259041065312" lon="9.78542971828212"><ele>1992.3333333333335</ele><time>2026-04-11T10:19:13.999Z</time></trkpt><trkpt lat="46.462537541722384" lon="9.785676677865117"><ele>1992.6666666666667</ele><time>2026-04-11T10:19:14.999Z</time></trkpt><trkpt lat="46.46245807115029" lon="9.785906121369957"><ele>1993.0</ele><time>2026-04-11T10:19:15.999Z</time></trkpt><trkpt lat="46.462364749675665" lon="9.786121689591535"><ele>1994.0</ele><time>2026-04-11T10:19:16.999Z</time></trkpt><trkpt lat="46.462258746178435" lon="9.786321396519185"><ele>1995.0</ele><time>2026-04-11T10:19:17.999Z</time></trkpt><trkpt lat="46.462156968374416" lon="9.786516197036994"><ele>1996.0</ele><time>2026-04-11T10:19:18.999Z</time></trkpt><trkpt lat="46.46207044253236" lon="9.786714919386283"><ele>1986.6666666666667</ele><time>2026-04-11T10:19:19.999Z</time></trkpt><trkpt lat="46.46201087427793" lon="9.786925280597261"><ele>1977.3333333333335</ele><time>2026-04-11T10:19:20.999Z</time></trkpt><trkpt lat="46.46199064011652" lon="9.787150019008749"><ele>1968.0</ele><time>2026-04-11T10:19:21.999Z</time></trkpt><trkpt lat="46.46200163255946" lon="9.787381553904508"><ele>1968.0</ele><time>2026-04-11T10:19:22.999Z</time></trkpt><trkpt lat="46.46204843854863" lon="9.787607672053255"><ele>1968.0</ele><time>2026-04-11T10:19:23.999Z</time></trkpt><trkpt lat="46.462128062481646" lon="9.787820654662715"><ele>1968.0</ele><time>2026-04-11T10:19:24.999Z</time></trkpt><trkpt lat="46.46222297590508" lon="9.788013561898614"><ele>1970.6666666666665</ele><time>2026-04-11T10:19:26Z</time></trkpt><trkpt lat="46.46231854715126" lon="9.788202011454418"><ele>1973.3333333333333</ele><time>2026-04-11T10:19:27Z</time></trkpt><trkpt lat="46.462413225709355" lon="9.788391705851469"><ele>1976.0</ele><time>2026-04-11T10:19:28Z</time></trkpt><trkpt lat="46.46250787859106" lon="9.78859225767385"><ele>1976.0</ele><time>2026-04-11T10:19:29Z</time></trkpt><trkpt lat="46.462600492357346" lon="9.78880173255765"><ele>1976.0</ele><time>2026-04-11T10:19:30Z</time></trkpt><trkpt lat="46.4626966665375" lon="9.789011138773198"><ele>1976.0</ele><time>2026-04-11T10:19:31Z</time></trkpt><trkpt lat="46.46279420715097" lon="9.78921853840985"><ele>1975.3333333333333</ele><time>2026-04-11T10:19:32Z</time></trkpt><trkpt lat="46.46289656235025" lon="9.789422739242566"><ele>1974.6666666666665</ele><time>2026-04-11T10:19:33Z</time></trkpt><trkpt lat="46.46300946086207" lon="9.78962932889172"><ele>1974.0</ele><time>2026-04-11T10:19:34Z</time></trkpt><trkpt lat="46.46313461753874" lon="9.789831797592369"><ele>1974.0</ele><time>2026-04-11T10:19:35Z</time></trkpt><trkpt lat="46.463271157691125" lon="9.790038795874564"><ele>1974.0</ele><time>2026-04-11T10:19:36Z</time></trkpt><trkpt lat="46.46342016174024" lon="9.790249602499424"><ele>1974.0</ele><time>2026-04-11T10:19:37Z</time></trkpt><trkpt lat="46.46357927635552" lon="9.790458757542455"><ele>1972.0</ele><time>2026-04-11T10:19:38Z</time></trkpt><trkpt lat="46.46374300997309" lon="9.790668356209105"><ele>1970.0</ele><time>2026-04-11T10:19:39Z</time></trkpt><trkpt lat="46.463917989527914" lon="9.790893971433704"><ele>1962.5</ele><time>2026-04-11T10:19:40Z</time></trkpt><trkpt lat="46.46410064546984" lon="9.791129227155078"><ele>1955.0</ele><time>2026-04-11T10:19:41Z</time></trkpt><trkpt lat="46.464278248934846" lon="9.7913657259582"><ele>1955.0</ele><time>2026-04-11T10:19:42Z</time></trkpt><trkpt lat="46.46444492613748" lon="9.791597750199605"><ele>1955.0</ele><time>2026-04-11T10:19:43Z</time></trkpt><trkpt lat="46.46459646724279" lon="9.791822055902639"><ele>1955.0</ele><time>2026-04-11T10:19:44Z</time></trkpt><trkpt lat="46.46474219357208" lon="9.792047273359046"><ele>1954.0</ele><time>2026-04-11T10:19:45Z</time></trkpt><trkpt lat="46.46488696277532" lon="9.792277660435845"><ele>1953.0</ele><time>2026-04-11T10:19:46Z</time></trkpt><trkpt lat="46.4650272268635" lon="9.792496946406102"><ele>1952.0</ele><time>2026-04-11T10:19:47Z</time></trkpt><trkpt lat="46.46516697906388" lon="9.792702723216463"><ele>1948.3333333333333</ele><time>2026-04-11T10:19:48Z</time></trkpt><trkpt lat="46.465313040433124" lon="9.792901813404193"><ele>1944.6666666666665</ele><time>2026-04-11T10:19:49Z</time></trkpt><trkpt lat="46.465467057331296" lon="9.793097043462508"><ele>1941.0</ele><time>2026-04-11T10:19:50Z</time></trkpt><trkpt lat="46.465628145583814" lon="9.793302597533785"><ele>1941.0</ele><time>2026-04-11T10:19:51Z</time></trkpt><trkpt lat="46.46579362210043" lon="9.79350511352664"><ele>1941.0</ele><time>2026-04-11T10:19:52Z</time></trkpt><trkpt lat="46.46594778333116" lon="9.79368808743108"><ele>1941.0</ele><time>2026-04-11T10:19:52.999Z</time></trkpt><trkpt lat="46.466084568522675" lon="9.7938379585999"><ele>1941.25</ele><time>2026-04-11T10:19:53.999Z</time></trkpt><trkpt lat="46.46620671341198" lon="9.793956246460858"><ele>1941.5</ele><time>2026-04-11T10:19:54.999Z</time></trkpt><trkpt lat="46.46631189394242" lon="9.79404372139116"><ele>1941.75</ele><time>2026-04-11T10:19:55.999Z</time></trkpt><trkpt lat="46.466395490070326" lon="9.794128044002797"><ele>1942.0</ele><time>2026-04-11T10:19:56.999Z</time></trkpt><trkpt lat="46.46644266913699" lon="9.794241682402323"><ele>1939.0</ele><time>2026-04-11T10:19:57.999Z</time></trkpt><trkpt lat="46.46644103258381" lon="9.794388246147857"><ele>1936.0</ele><time>2026-04-11T10:19:58.999Z</time></trkpt><trkpt lat="46.46638455023931" lon="9.794521215054024"><ele>1933.0</ele><time>2026-04-11T10:19:59.999Z</time></trkpt><trkpt lat="46.46628243026676" lon="9.794610163560618"><ele>1930.0</ele><time>2026-04-11T10:20:00.999Z</time></trkpt><trkpt lat="46.466150138909896" lon="9.794630808528359"><ele>1927.0</ele><time>2026-04-11T10:20:01.999Z</time></trkpt><trkpt lat="46.4660079406164" lon="9.794599778571138"><ele>1924.0</ele><time>2026-04-11T10:20:02.999Z</time></trkpt><trkpt lat="46.46586018826789" lon="9.794580518910312"><ele>1921.0</ele><time>2026-04-11T10:20:03.999Z</time></trkpt><trkpt lat="46.46570441554351" lon="9.794606766563234"><ele>1918.0</ele><time>2026-04-11T10:20:04.999Z</time></trkpt><trkpt lat="46.4655436602588" lon="9.794666822388335"><ele>1917.6666666666667</ele><time>2026-04-11T10:20:05.999Z</time></trkpt><trkpt lat="46.465382180180455" lon="9.794743296127654"><ele>1917.3333333333335</ele><time>2026-04-11T10:20:06.999Z</time></trkpt><trkpt lat="46.46522532624975" lon="9.794832173816408"><ele>1917.0</ele><time>2026-04-11T10:20:07.999Z</time></trkpt><trkpt lat="46.465070785029845" lon="9.794916085620848"><ele>1917.0</ele><time>2026-04-11T10:20:08.999Z</time></trkpt><trkpt lat="46.464907152807335" lon="9.794949314107724"><ele>1917.0</ele><time>2026-04-11T10:20:09.999Z</time></trkpt><trkpt lat="46.464735272998574" lon="9.79493074051667"><ele>1917.0</ele><time>2026-04-11T10:20:10.999Z</time></trkpt><trkpt lat="46.46456241363396" lon="9.794854021363593"><ele>1909.6666666666665</ele><time>2026-04-11T10:20:11.999Z</time></trkpt><trkpt lat="46.46441074061718" lon="9.794706434870314"><ele>1902.3333333333333</ele><time>2026-04-11T10:20:12.999Z</time></trkpt><trkpt lat="46.46424935518851" lon="9.794546358204855"><ele>1895.0</ele><time>2026-04-11T10:20:13.999Z</time></trkpt><trkpt lat="46.46408358568112" lon="9.794390463861046"><ele>1894.3333333333333</ele><time>2026-04-11T10:20:14.999Z</time></trkpt><trkpt lat="46.463917171332454" lon="9.794247545822572"><ele>1893.6666666666665</ele><time>2026-04-11T10:20:15.999Z</time></trkpt><trkpt lat="46.46373369143005" lon="9.794139023074713"><ele>1893.0</ele><time>2026-04-11T10:20:16.999Z</time></trkpt><trkpt lat="46.46354153564866" lon="9.794053915223433"><ele>1893.0</ele><time>2026-04-11T10:20:17.999Z</time></trkpt><trkpt lat="46.46334631657524" lon="9.794002074135104"><ele>1893.0</ele><time>2026-04-11T10:20:18.999Z</time></trkpt><trkpt lat="46.463150945372426" lon="9.793985891495328"><ele>1893.0</ele><time>2026-04-11T10:20:19.999Z</time></trkpt><trkpt lat="46.462972319212334" lon="9.793958683213779"><ele>1890.25</ele><time>2026-04-11T10:20:20.999Z</time></trkpt><trkpt lat="46.46281232838994" lon="9.79394473373918"><ele>1887.5</ele><time>2026-04-11T10:20:21.999Z</time></trkpt><trkpt lat="46.46267277781156" lon="9.793931778675828"><ele>1884.75</ele><time>2026-04-11T10:20:22.999Z</time></trkpt><trkpt lat="46.46254935562654" lon="9.793911009714513"><ele>1882.0</ele><time>2026-04-11T10:20:23.999Z</time></trkpt><trkpt lat="46.462442273393364" lon="9.793898746304489"><ele>1882.0000000000002</ele><time>2026-04-11T10:20:24.999Z</time></trkpt><trkpt lat="46.46236469621988" lon="9.793913872631292"><ele>1882.0</ele><time>2026-04-11T10:20:25.999Z</time></trkpt><trkpt lat="46.46231968466001" lon="9.793995643759821"><ele>1882.0</ele><time>2026-04-11T10:20:26.999Z</time></trkpt><trkpt lat="46.46230238221092" lon="9.79410567223163"><ele>1882.0</ele><time>2026-04-11T10:20:27.999Z</time></trkpt><trkpt lat="46.46234575660795" lon="9.794212056702733"><ele>1882.0000000000002</ele><time>2026-04-11T10:20:28.999Z</time></trkpt><trkpt lat="46.46242486960751" lon="9.794234852539988"><ele>1882.0</ele><time>2026-04-11T10:20:29.999Z</time></trkpt><trkpt lat="46.46252202486217" lon="9.794249770246706"><ele>1882.0</ele><time>2026-04-11T10:20:30.999Z</time></trkpt><trkpt lat="46.46262009167234" lon="9.794268997381486"><ele>1882.0</ele><time>2026-04-11T10:20:31.999Z</time></trkpt><trkpt lat="46.462727631573756" lon="9.794293168984998"><ele>1882.0</ele><time>2026-04-11T10:20:32.999Z</time></trkpt><trkpt lat="46.46286612351146" lon="9.79431061885589"><ele>1882.0</ele><time>2026-04-11T10:20:33.999Z</time></trkpt><trkpt lat="46.46301340584037" lon="9.794332742465253"><ele>1876.6666666666667</ele><time>2026-04-11T10:20:34.999Z</time></trkpt><trkpt lat="46.46316485761096" lon="9.79437795077318"><ele>1871.3333333333335</ele><time>2026-04-11T10:20:35.999Z</time></trkpt><trkpt lat="46.46330513028232" lon="9.794462165019828"><ele>1866.0</ele><time>2026-04-11T10:20:36.999Z</time></trkpt><trkpt lat="46.46345703002686" lon="9.79454522827436"><ele>1866.0</ele><time>2026-04-11T10:20:37.999Z</time></trkpt><trkpt lat="46.4636182414677" lon="9.794627711390454"><ele>1866.0</ele><time>2026-04-11T10:20:38.999Z</time></trkpt><trkpt lat="46.46375688546311" lon="9.79475190137453"><ele>1866.0</ele><time>2026-04-11T10:20:39.999Z</time></trkpt><trkpt lat="46.463926912025" lon="9.794805051091032"><ele>1875.6666666666665</ele><time>2026-04-11T10:20:40.999Z</time></trkpt><trkpt lat="46.46408828925969" lon="9.794879983187883"><ele>1885.3333333333333</ele><time>2026-04-11T10:20:41.999Z</time></trkpt><trkpt lat="46.46424922762501" lon="9.794958709407497"><ele>1895.0</ele><time>2026-04-11T10:20:42.999Z</time></trkpt><trkpt lat="46.464410171343154" lon="9.795037588520517"><ele>1895.0</ele><time>2026-04-11T10:20:43.999Z</time></trkpt><trkpt lat="46.46457081780415" lon="9.795116356301339"><ele>1895.0</ele><time>2026-04-11T10:20:44.999Z</time></trkpt><trkpt lat="46.464741785874416" lon="9.795200230398336"><ele>1895.0</ele><time>2026-04-11T10:20:46.066Z</time></trkpt><trkpt lat="46.46490102323671" lon="9.795278348917742"><ele>1893.0</ele><time>2026-04-11T10:20:47.063Z</time></trkpt><trkpt lat="46.465062389800934" lon="9.795357395688256"><ele>1891.0</ele><time>2026-04-11T10:20:48.062Z</time></trkpt><trkpt lat="46.46522501801085" lon="9.795394755895291"><ele>1889.0</ele><time>2026-04-11T10:20:49.058Z</time></trkpt><trkpt lat="46.465388495731986" lon="9.795408748753319"><ele>1895.0</ele><time>2026-04-11T10:20:50.054Z</time></trkpt><trkpt lat="46.46721651007447" lon="9.796019894798143"><ele>1870.0</ele><time>2026-04-11T10:20:53.146Z</time></trkpt><trkpt lat="46.46754835794862" lon="9.797028191949137"><ele>1850.0</ele><time>2026-04-11T10:20:54.146Z</time></trkpt><trkpt lat="46.4676498" lon="9.7978934"><ele>1808.0</ele><time>2026-04-11T10:20:55.146Z</time></trkpt><trkpt lat="46.46757512353701" lon="9.800316262913721"><ele>1808.0</ele><time>2026-04-11T10:21:18.999Z</time></trkpt><trkpt lat="46.46765834500401" lon="9.800493178127024"><ele>1808.0</ele><time>2026-04-11T10:21:19.999Z</time></trkpt><trkpt lat="46.46773162043634" lon="9.800640939089485"><ele>1808.0</ele><time>2026-04-11T10:21:20.999Z</time></trkpt><trkpt lat="46.467809123571676" lon="9.80077924660648"><ele>1808.0</ele><time>2026-04-11T10:21:21.999Z</time></trkpt><trkpt lat="46.46790384797206" lon="9.800907580388024"><ele>1807.75</ele><time>2026-04-11T10:21:22.999Z</time></trkpt><trkpt lat="46.46800585345587" lon="9.801036673135355"><ele>1807.5</ele><time>2026-04-11T10:21:23.999Z</time></trkpt><trkpt lat="46.46809255875438" lon="9.801143891378459"><ele>1807.25</ele><time>2026-04-11T10:21:24.999Z</time></trkpt><trkpt lat="46.468170354861705" lon="9.801249265452798"><ele>1807.0</ele><time>2026-04-11T10:21:25.999Z</time></trkpt><trkpt lat="46.468229558123376" lon="9.801359417596284"><ele>1807.0000000000002</ele><time>2026-04-11T10:21:26.999Z</time></trkpt><trkpt lat="46.46824788291342" lon="9.801473541004743"><ele>1807.0</ele><time>2026-04-11T10:21:27.999Z</time></trkpt><trkpt lat="46.46824476274629" lon="9.801576658095634"><ele>1807.0</ele><time>2026-04-11T10:21:28.999Z</time></trkpt><trkpt lat="46.46820164080097" lon="9.80171128089723"><ele>1807.0</ele><time>2026-04-11T10:21:30.999Z</time></trkpt><trkpt lat="46.46815277330516" lon="9.801784271980036"><ele>1807.0000000000002</ele><time>2026-04-11T10:21:32Z</time></trkpt><trkpt lat="46.46807915212294" lon="9.801832212944513"><ele>1807.0</ele><time>2026-04-11T10:21:33Z</time></trkpt><trkpt lat="46.467989445534364" lon="9.801848588134494"><ele>1806.0</ele><time>2026-04-11T10:21:34Z</time></trkpt><trkpt lat="46.467886886605854" lon="9.801832948398792"><ele>1804.9999999999998</ele><time>2026-04-11T10:21:35Z</time></trkpt><trkpt lat="46.46778814219269" lon="9.801813680228795"><ele>1803.9999999999998</ele><time>2026-04-11T10:21:36Z</time></trkpt><trkpt lat="46.46768115710183" lon="9.80178125782045"><ele>1803.0</ele><time>2026-04-11T10:21:37Z</time></trkpt><trkpt lat="46.46757031315248" lon="9.801721080880018"><ele>1802.0</ele><time>2026-04-11T10:21:38Z</time></trkpt><trkpt lat="46.46746231850353" lon="9.801640453202994"><ele>1802.0</ele><time>2026-04-11T10:21:39Z</time></trkpt><trkpt lat="46.46735305710816" lon="9.801545346076262"><ele>1802.0</ele><time>2026-04-11T10:21:40Z</time></trkpt><trkpt lat="46.467243773502396" lon="9.801432795399531"><ele>1802.0</ele><time>2026-04-11T10:21:41Z</time></trkpt><trkpt lat="46.467146012682335" lon="9.801294481432533"><ele>1802.0</ele><time>2026-04-11T10:21:42Z</time></trkpt><trkpt lat="46.46705840857097" lon="9.801144691339443"><ele>1800.5</ele><time>2026-04-11T10:21:43Z</time></trkpt><trkpt lat="46.466977042778396" lon="9.80097546831825"><ele>1799.0</ele><time>2026-04-11T10:21:44Z</time></trkpt><trkpt lat="46.466905318629045" lon="9.80079800044185"><ele>1797.5</ele><time>2026-04-11T10:21:45Z</time></trkpt><trkpt lat="46.46684102383181" lon="9.800609745307382"><ele>1796.0</ele><time>2026-04-11T10:21:46Z</time></trkpt><trkpt lat="46.466779120919945" lon="9.800419145009366"><ele>1796.0</ele><time>2026-04-11T10:21:47Z</time></trkpt><trkpt lat="46.466719106648675" lon="9.800234990367237"><ele>1796.0</ele><time>2026-04-11T10:21:48Z</time></trkpt><trkpt lat="46.466654332351055" lon="9.800042146989385"><ele>1796.0</ele><time>2026-04-11T10:21:49Z</time></trkpt><trkpt lat="46.46658744481855" lon="9.799847430896103"><ele>1796.0</ele><time>2026-04-11T10:21:50Z</time></trkpt><trkpt lat="46.466519051044294" lon="9.799650397799484"><ele>1796.0</ele><time>2026-04-11T10:21:51Z</time></trkpt><trkpt lat="46.466447467905375" lon="9.799451506139869"><ele>1796.0</ele><time>2026-04-11T10:21:52Z</time></trkpt><trkpt lat="46.46636130106354" lon="9.799263059541945"><ele>1796.0</ele><time>2026-04-11T10:21:53Z</time></trkpt><trkpt lat="46.46625974405586" lon="9.799090921188348"><ele>1796.0</ele><time>2026-04-11T10:21:54Z</time></trkpt><trkpt lat="46.46614881382088" lon="9.79892521003756"><ele>1796.0</ele><time>2026-04-11T10:21:55Z</time></trkpt><trkpt lat="46.46603178956722" lon="9.798771587445632"><ele>1796.0</ele><time>2026-04-11T10:21:55.999Z</time></trkpt><trkpt lat="46.46590879964537" lon="9.798623952789951"><ele>1803.0</ele><time>2026-04-11T10:21:56.999Z</time></trkpt><trkpt lat="46.46577400504626" lon="9.798500013388033"><ele>1810.0</ele><time>2026-04-11T10:21:57.999Z</time></trkpt><trkpt lat="46.46562881626013" lon="9.798384663292808"><ele>1817.0</ele><time>2026-04-11T10:21:58.999Z</time></trkpt><trkpt lat="46.4654760866353" lon="9.798281149525305"><ele>1811.3333333333333</ele><time>2026-04-11T10:21:59.999Z</time></trkpt><trkpt lat="46.46531821483685" lon="9.79819436456131"><ele>1805.6666666666665</ele><time>2026-04-11T10:22:00.999Z</time></trkpt><trkpt lat="46.465158200660134" lon="9.798110322914095"><ele>1800.0</ele><time>2026-04-11T10:22:01.999Z</time></trkpt><trkpt lat="46.46499261325301" lon="9.798038974338915"><ele>1800.0</ele><time>2026-04-11T10:22:02.999Z</time></trkpt><trkpt lat="46.46482843034509" lon="9.797968219340932"><ele>1800.0</ele><time>2026-04-11T10:22:03.999Z</time></trkpt><trkpt lat="46.46466940393222" lon="9.797890783427109"><ele>1800.0</ele><time>2026-04-11T10:22:04.999Z</time></trkpt><trkpt lat="46.464514651986306" lon="9.797810668615439"><ele>1797.0</ele><time>2026-04-11T10:22:05.999Z</time></trkpt><trkpt lat="46.46436099741376" lon="9.797736486242714"><ele>1794.0</ele><time>2026-04-11T10:22:06.999Z</time></trkpt><trkpt lat="46.464206006133004" lon="9.797673705784113"><ele>1791.0</ele><time>2026-04-11T10:22:07.999Z</time></trkpt><trkpt lat="46.46405856552779" lon="9.797602684837294"><ele>1794.3333333333335</ele><time>2026-04-11T10:22:08.999Z</time></trkpt><trkpt lat="46.46390729447038" lon="9.797536709573645"><ele>1797.6666666666667</ele><time>2026-04-11T10:22:09.999Z</time></trkpt><trkpt lat="46.46374534181553" lon="9.797481853664891"><ele>1801.0</ele><time>2026-04-11T10:22:10.999Z</time></trkpt><trkpt lat="46.46358632071712" lon="9.79744119349779"><ele>1801.0</ele><time>2026-04-11T10:22:11.999Z</time></trkpt><trkpt lat="46.46342350395227" lon="9.797402775925555"><ele>1801.0</ele><time>2026-04-11T10:22:12.999Z</time></trkpt><trkpt lat="46.463258277773846" lon="9.797380298515128"><ele>1801.0</ele><time>2026-04-11T10:22:13.999Z</time></trkpt><trkpt lat="46.463090266561686" lon="9.797363755973683"><ele>1801.0</ele><time>2026-04-11T10:22:14.999Z</time></trkpt><trkpt lat="46.46292106315769" lon="9.79736261281625"><ele>1801.0</ele><time>2026-04-11T10:22:15.999Z</time></trkpt><trkpt lat="46.46274785119081" lon="9.79737112836733"><ele>1801.0</ele><time>2026-04-11T10:22:16.999Z</time></trkpt><trkpt lat="46.46257473728858" lon="9.797388751707876"><ele>1801.0</ele><time>2026-04-11T10:22:17.999Z</time></trkpt><trkpt lat="46.46240107932361" lon="9.797417912170872"><ele>1801.0</ele><time>2026-04-11T10:22:18.999Z</time></trkpt><trkpt lat="46.46222979446693" lon="9.797460793796613"><ele>1801.0</ele><time>2026-04-11T10:22:19.999Z</time></trkpt><trkpt lat="46.462063030472684" lon="9.7975106724543"><ele>1801.3333333333335</ele><time>2026-04-11T10:22:20.999Z</time></trkpt><trkpt lat="46.461895424023666" lon="9.797562975340231"><ele>1801.6666666666665</ele><time>2026-04-11T10:22:21.999Z</time></trkpt><trkpt lat="46.46172759517279" lon="9.797610562387462"><ele>1802.0</ele><time>2026-04-11T10:22:22.999Z</time></trkpt><trkpt lat="46.46156037787145" lon="9.797660991230053"><ele>1800.6666666666665</ele><time>2026-04-11T10:22:23.999Z</time></trkpt><trkpt lat="46.4613979138124" lon="9.797717561143418"><ele>1799.3333333333335</ele><time>2026-04-11T10:22:24.999Z</time></trkpt><trkpt lat="46.46124671316922" lon="9.7977701795823"><ele>1798.0</ele><time>2026-04-11T10:22:25.999Z</time></trkpt><trkpt lat="46.461104786210534" lon="9.797810428866233"><ele>1798.0</ele><time>2026-04-11T10:22:26.999Z</time></trkpt><trkpt lat="46.46096547452897" lon="9.797845433530219"><ele>1798.0</ele><time>2026-04-11T10:22:27.999Z</time></trkpt><trkpt lat="46.460834667335476" lon="9.797873181958343"><ele>1798.0</ele><time>2026-04-11T10:22:28.999Z</time></trkpt><trkpt lat="46.46071493893831" lon="9.797903178666695"><ele>1798.0</ele><time>2026-04-11T10:22:29.999Z</time></trkpt><trkpt lat="46.46060936448257" lon="9.797921557226212"><ele>1798.0000000000002</ele><time>2026-04-11T10:22:30.999Z</time></trkpt><trkpt lat="46.46051140402369" lon="9.797943398129107"><ele>1798.0</ele><time>2026-04-11T10:22:31.999Z</time></trkpt><trkpt lat="46.46042043666854" lon="9.797967798025484"><ele>1798.0</ele><time>2026-04-11T10:22:32.999Z</time></trkpt><trkpt lat="46.460339841650615" lon="9.797989728029199"><ele>1798.0</ele><time>2026-04-11T10:22:33.999Z</time></trkpt><trkpt lat="46.46026754569546" lon="9.798000945244178"><ele>1798.0000000000002</ele><time>2026-04-11T10:22:34.999Z</time></trkpt><trkpt lat="46.460203062826835" lon="9.797981767352372"><ele>1798.0</ele><time>2026-04-11T10:22:35.999Z</time></trkpt><trkpt lat="46.46010973297082" lon="9.797900197596606"><ele>1798.2</ele><time>2026-04-11T10:22:37.999Z</time></trkpt><trkpt lat="46.45999077129638" lon="9.797929298403663"><ele>1798.4</ele><time>2026-04-11T10:22:39.999Z</time></trkpt><trkpt lat="46.4599201053076" lon="9.797968155274908"><ele>1798.6000000000001</ele><time>2026-04-11T10:22:40.999Z</time></trkpt><trkpt lat="46.45982757113268" lon="9.797996850225694"><ele>1798.8000000000002</ele><time>2026-04-11T10:22:41.999Z</time></trkpt><trkpt lat="46.45971509193949" lon="9.798012069898938"><ele>1799.0</ele><time>2026-04-11T10:22:42.999Z</time></trkpt><trkpt lat="46.45960612382499" lon="9.798004314942412"><ele>1799.75</ele><time>2026-04-11T10:22:43.999Z</time></trkpt><trkpt lat="46.45949339685399" lon="9.797979411442372"><ele>1800.5</ele><time>2026-04-11T10:22:44.999Z</time></trkpt><trkpt lat="46.4593736587647" lon="9.797950541235787"><ele>1801.25</ele><time>2026-04-11T10:22:45.999Z</time></trkpt><trkpt lat="46.45925209251999" lon="9.797924437201901"><ele>1802.0</ele><time>2026-04-11T10:22:46.999Z</time></trkpt><trkpt lat="46.45913305905227" lon="9.797889652695163"><ele>1802.0</ele><time>2026-04-11T10:22:47.999Z</time></trkpt><trkpt lat="46.45901960856913" lon="9.797843557290921"><ele>1802.0</ele><time>2026-04-11T10:22:48.999Z</time></trkpt><trkpt lat="46.45890699993573" lon="9.797791381638188"><ele>1802.0</ele><time>2026-04-11T10:22:49.999Z</time></trkpt><trkpt lat="46.45878770629029" lon="9.797726168846143"><ele>1802.0</ele><time>2026-04-11T10:22:50.999Z</time></trkpt><trkpt lat="46.45866494492582" lon="9.79764495296753"><ele>1802.5</ele><time>2026-04-11T10:22:51.999Z</time></trkpt><trkpt lat="46.45854441474778" lon="9.797560165267146"><ele>1803.0</ele><time>2026-04-11T10:22:52.999Z</time></trkpt><trkpt lat="46.45842796693026" lon="9.797472965373885"><ele>1803.5</ele><time>2026-04-11T10:22:53.999Z</time></trkpt><trkpt lat="46.45831645779211" lon="9.79737627034983"><ele>1804.0</ele><time>2026-04-11T10:22:54.999Z</time></trkpt><trkpt lat="46.458205723833515" lon="9.797275350259275"><ele>1804.0</ele><time>2026-04-11T10:22:55.999Z</time></trkpt><trkpt lat="46.45809939958057" lon="9.797165338928162"><ele>1804.0</ele><time>2026-04-11T10:22:56.999Z</time></trkpt><trkpt lat="46.45799657742501" lon="9.797049834759084"><ele>1804.0</ele><time>2026-04-11T10:22:57.999Z</time></trkpt><trkpt lat="46.45789794766935" lon="9.796932735844253"><ele>1804.0</ele><time>2026-04-11T10:22:58.999Z</time></trkpt><trkpt lat="46.457804334510584" lon="9.796811203799772"><ele>1804.25</ele><time>2026-04-11T10:22:59.999Z</time></trkpt><trkpt lat="46.45771259870534" lon="9.796681943576989"><ele>1804.5</ele><time>2026-04-11T10:23:00.999Z</time></trkpt><trkpt lat="46.45762049740753" lon="9.796541281426268"><ele>1804.75</ele><time>2026-04-11T10:23:01.999Z</time></trkpt><trkpt lat="46.457535739961635" lon="9.79639439877817"><ele>1805.0</ele><time>2026-04-11T10:23:02.999Z</time></trkpt><trkpt lat="46.457456426949925" lon="9.796245768916013"><ele>1805.0</ele><time>2026-04-11T10:23:03.999Z</time></trkpt><trkpt lat="46.45738194971157" lon="9.79608906925584"><ele>1805.0</ele><time>2026-04-11T10:23:04.999Z</time></trkpt><trkpt lat="46.45730652340929" lon="9.795928721881255"><ele>1805.0</ele><time>2026-04-11T10:23:05.999Z</time></trkpt><trkpt lat="46.457235642610335" lon="9.79576010560503"><ele>1805.0</ele><time>2026-04-11T10:23:06.999Z</time></trkpt><trkpt lat="46.45717026771021" lon="9.795590412520513"><ele>1803.75</ele><time>2026-04-11T10:23:07.999Z</time></trkpt><trkpt lat="46.45711590392934" lon="9.795419856007554"><ele>1802.5</ele><time>2026-04-11T10:23:08.999Z</time></trkpt><trkpt lat="46.45706048060616" lon="9.795250327355621"><ele>1801.25</ele><time>2026-04-11T10:23:09.999Z</time></trkpt><trkpt lat="46.45701400742218" lon="9.79507707527967"><ele>1800.0</ele><time>2026-04-11T10:23:10.999Z</time></trkpt><trkpt lat="46.4569723731514" lon="9.794902492984292"><ele>1799.75</ele><time>2026-04-11T10:23:11.999Z</time></trkpt><trkpt lat="46.456930407858664" lon="9.794725144923158"><ele>1799.5</ele><time>2026-04-11T10:23:12.999Z</time></trkpt><trkpt lat="46.456891541418656" lon="9.794545451207528"><ele>1799.25</ele><time>2026-04-11T10:23:13.999Z</time></trkpt><trkpt lat="46.45685688666872" lon="9.79437458384491"><ele>1799.0</ele><time>2026-04-11T10:23:14.999Z</time></trkpt><trkpt lat="46.45682498587204" lon="9.794206734735232"><ele>1799.6</ele><time>2026-04-11T10:23:15.999Z</time></trkpt><trkpt lat="46.456793056575215" lon="9.79403868969765"><ele>1800.2</ele><time>2026-04-11T10:23:16.999Z</time></trkpt><trkpt lat="46.45676250414664" lon="9.793879215740846"><ele>1800.7999999999997</ele><time>2026-04-11T10:23:17.999Z</time></trkpt><trkpt lat="46.456735619612175" lon="9.793726659014885"><ele>1801.3999999999999</ele><time>2026-04-11T10:23:18.999Z</time></trkpt><trkpt lat="46.4567108031895" lon="9.793581418019999"><ele>1802.0</ele><time>2026-04-11T10:23:19.999Z</time></trkpt><trkpt lat="46.456682149810774" lon="9.793441743869948"><ele>1802.3999999999999</ele><time>2026-04-11T10:23:20.999Z</time></trkpt><trkpt lat="46.456669190967624" lon="9.79329461076597"><ele>1802.7999999999997</ele><time>2026-04-11T10:23:21.999Z</time></trkpt><trkpt lat="46.456636409446624" lon="9.793155266223362"><ele>1803.2</ele><time>2026-04-11T10:23:22.999Z</time></trkpt><trkpt lat="46.4566108429561" lon="9.793021443035078"><ele>1803.6</ele><time>2026-04-11T10:23:23.999Z</time></trkpt><trkpt lat="46.45659135281682" lon="9.792898667240905"><ele>1804.0</ele><time>2026-04-11T10:23:24.999Z</time></trkpt><trkpt lat="46.45657087054197" lon="9.79278322518736"><ele>1803.8571428571427</ele><time>2026-04-11T10:23:25.999Z</time></trkpt><trkpt lat="46.45655128321844" lon="9.792671557295696"><ele>1803.7142857142858</ele><time>2026-04-11T10:23:26.999Z</time></trkpt><trkpt lat="46.4565351994296" lon="9.792576127721874"><ele>1803.5714285714284</ele><time>2026-04-11T10:23:27.999Z</time></trkpt><trkpt lat="46.45651815694201" lon="9.79248050755765"><ele>1803.4285714285713</ele><time>2026-04-11T10:23:28.999Z</time></trkpt><trkpt lat="46.45650777182238" lon="9.792387737156046"><ele>1803.2857142857142</ele><time>2026-04-11T10:23:29.999Z</time></trkpt><trkpt lat="46.4564904229406" lon="9.792299655768481"><ele>1803.142857142857</ele><time>2026-04-11T10:23:30.999Z</time></trkpt><trkpt lat="46.456473078999025" lon="9.79220654161951"><ele>1803.0</ele><time>2026-04-11T10:23:31.999Z</time></trkpt><trkpt lat="46.45645240332193" lon="9.792077509734963"><ele>1803.0</ele><time>2026-04-11T10:23:33.999Z</time></trkpt><trkpt lat="46.456438851771225" lon="9.79195714753108"><ele>1803.0</ele><time>2026-04-11T10:23:38Z</time></trkpt><trkpt lat="46.456457976553686" lon="9.791841776556545"><ele>1803.0</ele><time>2026-04-11T10:23:40Z</time></trkpt><trkpt lat="46.45648546772281" lon="9.791725235617701"><ele>1803.0</ele><time>2026-04-11T10:23:42Z</time></trkpt><trkpt lat="46.45646801307263" lon="9.79163477518208"><ele>1803.0</ele><time>2026-04-11T10:23:43Z</time></trkpt><trkpt lat="46.45642555034918" lon="9.79155119197197"><ele>1803.0</ele><time>2026-04-11T10:23:44Z</time></trkpt><trkpt lat="46.45633899933496" lon="9.791483138044203"><ele>1802.25</ele><time>2026-04-11T10:23:45Z</time></trkpt><trkpt lat="46.45625007412897" lon="9.791377347846518"><ele>1801.5</ele><time>2026-04-11T10:23:46Z</time></trkpt><trkpt lat="46.456180973138274" lon="9.791234845072736"><ele>1800.75</ele><time>2026-04-11T10:23:47Z</time></trkpt><trkpt lat="46.45610174858456" lon="9.791085836177519"><ele>1800.0</ele><time>2026-04-11T10:23:48Z</time></trkpt><trkpt lat="46.456006257814174" lon="9.790942612018426"><ele>1800.0</ele><time>2026-04-11T10:23:49Z</time></trkpt><trkpt lat="46.4559089124666" lon="9.790794177399736"><ele>1800.0</ele><time>2026-04-11T10:23:50Z</time></trkpt><trkpt lat="46.45580329098843" lon="9.790636308519279"><ele>1800.0</ele><time>2026-04-11T10:23:51Z</time></trkpt><trkpt lat="46.45569767832915" lon="9.790475633002977"><ele>1800.0</ele><time>2026-04-11T10:23:52Z</time></trkpt><trkpt lat="46.45558506605301" lon="9.790315760041356"><ele>1800.6666666666665</ele><time>2026-04-11T10:23:53Z</time></trkpt><trkpt lat="46.455462818701754" lon="9.79015776008216"><ele>1801.3333333333333</ele><time>2026-04-11T10:23:54Z</time></trkpt><trkpt lat="46.45532740834874" lon="9.790000043311228"><ele>1802.0</ele><time>2026-04-11T10:23:55Z</time></trkpt><trkpt lat="46.455181831380685" lon="9.789857056690554"><ele>1802.0</ele><time>2026-04-11T10:23:56Z</time></trkpt><trkpt lat="46.45502945185643" lon="9.789726750619852"><ele>1802.0</ele><time>2026-04-11T10:23:57Z</time></trkpt><trkpt lat="46.454867711470975" lon="9.789603772207759"><ele>1802.0</ele><time>2026-04-11T10:23:57.999Z</time></trkpt><trkpt lat="46.45470291833658" lon="9.789466617713687"><ele>1803.3333333333333</ele><time>2026-04-11T10:23:58.999Z</time></trkpt><trkpt lat="46.454552395615" lon="9.789302248641938"><ele>1804.6666666666665</ele><time>2026-04-11T10:23:59.999Z</time></trkpt><trkpt lat="46.45440929532627" lon="9.789123076544124"><ele>1806.0</ele><time>2026-04-11T10:24:00.999Z</time></trkpt><trkpt lat="46.45425769809331" lon="9.78896299564644"><ele>1806.0</ele><time>2026-04-11T10:24:01.999Z</time></trkpt><trkpt lat="46.45409297141298" lon="9.78882882083315"><ele>1806.0</ele><time>2026-04-11T10:24:02.999Z</time></trkpt><trkpt lat="46.45392701252395" lon="9.788692648571327"><ele>1806.0</ele><time>2026-04-11T10:24:03.999Z</time></trkpt><trkpt lat="46.45376274233691" lon="9.788551441864868"><ele>1807.0</ele><time>2026-04-11T10:24:04.999Z</time></trkpt><trkpt lat="46.453602433076725" lon="9.788405752557997"><ele>1808.0</ele><time>2026-04-11T10:24:05.999Z</time></trkpt><trkpt lat="46.4534387864676" lon="9.788263056398293"><ele>1809.0</ele><time>2026-04-11T10:24:06.999Z</time></trkpt><trkpt lat="46.453274356575946" lon="9.788122243851104"><ele>1809.0</ele><time>2026-04-11T10:24:07.999Z</time></trkpt><trkpt lat="46.45311221973276" lon="9.787981449483523"><ele>1809.0</ele><time>2026-04-11T10:24:08.999Z</time></trkpt><trkpt lat="46.4529534396833" lon="9.7878359867019"><ele>1809.0</ele><time>2026-04-11T10:24:09.999Z</time></trkpt><trkpt lat="46.45279392595819" lon="9.7876828279768"><ele>1809.6666666666665</ele><time>2026-04-11T10:24:10.999Z</time></trkpt><trkpt lat="46.45264229461666" lon="9.787515254522123"><ele>1810.3333333333333</ele><time>2026-04-11T10:24:11.999Z</time></trkpt><trkpt lat="46.45248985315604" lon="9.78734202052793"><ele>1811.0</ele><time>2026-04-11T10:24:12.999Z</time></trkpt><trkpt lat="46.452333466888525" lon="9.787172943320636"><ele>1811.0</ele><time>2026-04-11T10:24:13.999Z</time></trkpt><trkpt lat="46.45217529448436" lon="9.787003885583506"><ele>1811.0</ele><time>2026-04-11T10:24:14.999Z</time></trkpt><trkpt lat="46.45201943311729" lon="9.786830889103733"><ele>1811.0</ele><time>2026-04-11T10:24:15.999Z</time></trkpt><trkpt lat="46.45186191507901" lon="9.78665707449627"><ele>1809.0</ele><time>2026-04-11T10:24:16.999Z</time></trkpt><trkpt lat="46.45170440275848" lon="9.786484308571831"><ele>1807.0</ele><time>2026-04-11T10:24:17.999Z</time></trkpt><trkpt lat="46.45154673142819" lon="9.786309052173797"><ele>1805.0</ele><time>2026-04-11T10:24:18.999Z</time></trkpt><trkpt lat="46.45138598628705" lon="9.786142927613676"><ele>1804.3333333333333</ele><time>2026-04-11T10:24:19.999Z</time></trkpt><trkpt lat="46.45121462120028" lon="9.78600175416474"><ele>1803.6666666666665</ele><time>2026-04-11T10:24:20.999Z</time></trkpt><trkpt lat="46.451037015255025" lon="9.785877519218491"><ele>1803.0</ele><time>2026-04-11T10:24:21.999Z</time></trkpt><trkpt lat="46.4508629256172" lon="9.785751861368166"><ele>1803.0</ele><time>2026-04-11T10:24:22.999Z</time></trkpt><trkpt lat="46.45068875017367" lon="9.785619694943225"><ele>1803.0</ele><time>2026-04-11T10:24:23.999Z</time></trkpt><trkpt lat="46.45051476855614" lon="9.785481535945417"><ele>1803.0</ele><time>2026-04-11T10:24:24.999Z</time></trkpt><trkpt lat="46.45034335679306" lon="9.785345298846787"><ele>1804.3333333333335</ele><time>2026-04-11T10:24:25.999Z</time></trkpt><trkpt lat="46.450182471073084" lon="9.7852133274346"><ele>1805.6666666666667</ele><time>2026-04-11T10:24:26.999Z</time></trkpt><trkpt lat="46.45003830967376" lon="9.785080863005248"><ele>1807.0</ele><time>2026-04-11T10:24:27.999Z</time></trkpt><trkpt lat="46.44990884519366" lon="9.784920429770462"><ele>1807.0</ele><time>2026-04-11T10:24:28.999Z</time></trkpt><trkpt lat="46.449787768090424" lon="9.784727001732756"><ele>1807.0</ele><time>2026-04-11T10:24:29.999Z</time></trkpt><trkpt lat="46.44965812737911" lon="9.784535067813845"><ele>1807.0</ele><time>2026-04-11T10:24:30.999Z</time></trkpt><trkpt lat="46.449510975733766" lon="9.784362146463252"><ele>1807.6666666666667</ele><time>2026-04-11T10:24:31.999Z</time></trkpt><trkpt lat="46.4493479102346" lon="9.784220715799385"><ele>1808.3333333333335</ele><time>2026-04-11T10:24:32.999Z</time></trkpt><trkpt lat="46.44917333723819" lon="9.784101443750567"><ele>1809.0</ele><time>2026-04-11T10:24:33.999Z</time></trkpt><trkpt lat="46.44899122085774" lon="9.784001715998476"><ele>1809.0</ele><time>2026-04-11T10:24:34.999Z</time></trkpt><trkpt lat="46.448803105452974" lon="9.78391017610133"><ele>1809.0</ele><time>2026-04-11T10:24:35.999Z</time></trkpt><trkpt lat="46.448628586535854" lon="9.78380528972465"><ele>1809.0</ele><time>2026-04-11T10:24:36.999Z</time></trkpt><trkpt lat="46.448464924894935" lon="9.783678608653837"><ele>1809.3333333333335</ele><time>2026-04-11T10:24:37.999Z</time></trkpt><trkpt lat="46.448309780096686" lon="9.783527337458533"><ele>1809.6666666666667</ele><time>2026-04-11T10:24:38.999Z</time></trkpt><trkpt lat="46.44815845568317" lon="9.783408690102226"><ele>1810.0</ele><time>2026-04-11T10:24:39.999Z</time></trkpt><trkpt lat="46.44800875742254" lon="9.78331086299934"><ele>1808.25</ele><time>2026-04-11T10:24:40.999Z</time></trkpt><trkpt lat="46.44788028301041" lon="9.783214744322143"><ele>1806.5</ele><time>2026-04-11T10:24:41.999Z</time></trkpt><trkpt lat="46.44777892661185" lon="9.78307052720667"><ele>1804.75</ele><time>2026-04-11T10:24:42.999Z</time></trkpt><trkpt lat="46.44769520922561" lon="9.782877385712055"><ele>1803.0</ele><time>2026-04-11T10:24:43.999Z</time></trkpt><trkpt lat="46.44763024793039" lon="9.782654459067151"><ele>1803.0</ele><time>2026-04-11T10:24:44.999Z</time></trkpt><trkpt lat="46.447588402934564" lon="9.782414753505794"><ele>1803.0</ele><time>2026-04-11T10:24:45.999Z</time></trkpt><trkpt lat="46.44754135528966" lon="9.782201462233191"><ele>1803.0</ele><time>2026-04-11T10:24:46.999Z</time></trkpt><trkpt lat="46.44744905464273" lon="9.78202515835535"><ele>1803.0</ele><time>2026-04-11T10:24:47.999Z</time></trkpt><trkpt lat="46.44731249712482" lon="9.78187194718726"><ele>1803.0</ele><time>2026-04-11T10:24:48.999Z</time></trkpt><trkpt lat="46.44715189383711" lon="9.781747973628143"><ele>1803.0</ele><time>2026-04-11T10:24:49.999Z</time></trkpt><trkpt lat="46.44698548491326" lon="9.781616712057838"><ele>1802.0</ele><time>2026-04-11T10:24:50.999Z</time></trkpt><trkpt lat="46.446833476813154" lon="9.781449763701618"><ele>1801.0</ele><time>2026-04-11T10:24:51.999Z</time></trkpt><trkpt lat="46.44669246649896" lon="9.781254599442242"><ele>1800.0</ele><time>2026-04-11T10:24:52.999Z</time></trkpt><trkpt lat="46.44655926689629" lon="9.781059659405289"><ele>1797.6666666666665</ele><time>2026-04-11T10:24:53.999Z</time></trkpt><trkpt lat="46.4464312731967" lon="9.780865347266383"><ele>1795.3333333333333</ele><time>2026-04-11T10:24:54.999Z</time></trkpt><trkpt lat="46.446304208586675" lon="9.780667767224653"><ele>1793.0</ele><time>2026-04-11T10:24:55.999Z</time></trkpt><trkpt lat="46.446199760136956" lon="9.78043705994551"><ele>1793.0</ele><time>2026-04-11T10:24:56.999Z</time></trkpt><trkpt lat="46.44608415519648" lon="9.780205615258096"><ele>1793.0</ele><time>2026-04-11T10:24:57.999Z</time></trkpt><trkpt lat="46.445976439549106" lon="9.77996460112166"><ele>1793.0</ele><time>2026-04-11T10:24:58.999Z</time></trkpt><trkpt lat="46.44584099021316" lon="9.77975286293952"><ele>1795.6666666666665</ele><time>2026-04-11T10:24:59.999Z</time></trkpt><trkpt lat="46.44568485035689" lon="9.779578693308082"><ele>1798.3333333333335</ele><time>2026-04-11T10:25:00.999Z</time></trkpt><trkpt lat="46.44551261889997" lon="9.779450969129606"><ele>1801.0</ele><time>2026-04-11T10:25:01.999Z</time></trkpt><trkpt lat="46.44535406265222" lon="9.779320439105419"><ele>1801.0</ele><time>2026-04-11T10:25:02.999Z</time></trkpt><trkpt lat="46.44521577519481" lon="9.779183908673156"><ele>1801.0</ele><time>2026-04-11T10:25:03.999Z</time></trkpt><trkpt lat="46.44511606049919" lon="9.77901974275652"><ele>1801.0</ele><time>2026-04-11T10:25:04.999Z</time></trkpt><trkpt lat="46.44506801736752" lon="9.778793177767179"><ele>1801.0</ele><time>2026-04-11T10:25:05.999Z</time></trkpt><trkpt lat="46.44501613504649" lon="9.778541773894945"><ele>1801.0</ele><time>2026-04-11T10:25:06.999Z</time></trkpt><trkpt lat="46.44495731152921" lon="9.778273009986316"><ele>1801.0</ele><time>2026-04-11T10:25:07.999Z</time></trkpt><trkpt lat="46.44490408619979" lon="9.777996999761898"><ele>1803.0</ele><time>2026-04-11T10:25:08.999Z</time></trkpt><trkpt lat="46.444820241169126" lon="9.777738344496107"><ele>1805.0</ele><time>2026-04-11T10:25:09.999Z</time></trkpt><trkpt lat="46.44470564845802" lon="9.777495925134192"><ele>1807.0</ele><time>2026-04-11T10:25:10.999Z</time></trkpt><trkpt lat="46.44458380701669" lon="9.777257792555911"><ele>1806.3333333333335</ele><time>2026-04-11T10:25:11.999Z</time></trkpt><trkpt lat="46.44447092688867" lon="9.777014667533022"><ele>1805.6666666666665</ele><time>2026-04-11T10:25:12.999Z</time></trkpt><trkpt lat="46.44435352708063" lon="9.776776086286194"><ele>1805.0</ele><time>2026-04-11T10:25:13.999Z</time></trkpt><trkpt lat="46.44422142453232" lon="9.77655531124895"><ele>1805.0</ele><time>2026-04-11T10:25:14.999Z</time></trkpt><trkpt lat="46.44406750170132" lon="9.776365253566176"><ele>1805.0</ele><time>2026-04-11T10:25:15.999Z</time></trkpt><trkpt lat="46.44390156243437" lon="9.776194265422978"><ele>1805.0</ele><time>2026-04-11T10:25:16.999Z</time></trkpt><trkpt lat="46.443728262431215" lon="9.776032394026839"><ele>1803.3333333333333</ele><time>2026-04-11T10:25:17.999Z</time></trkpt><trkpt lat="46.44355209252451" lon="9.775871968527317"><ele>1801.6666666666665</ele><time>2026-04-11T10:25:18.999Z</time></trkpt><trkpt lat="46.443381909989036" lon="9.775716323251052"><ele>1800.0</ele><time>2026-04-11T10:25:19.999Z</time></trkpt><trkpt lat="46.44322446140883" lon="9.775568588291033"><ele>1800.0</ele><time>2026-04-11T10:25:20.999Z</time></trkpt><trkpt lat="46.44307422039874" lon="9.775426535170565"><ele>1800.0</ele><time>2026-04-11T10:25:21.999Z</time></trkpt><trkpt lat="46.442926057508984" lon="9.775279948409043"><ele>1800.0</ele><time>2026-04-11T10:25:23Z</time></trkpt><trkpt lat="46.44277907884048" lon="9.775117262158917"><ele>1797.3333333333335</ele><time>2026-04-11T10:25:24Z</time></trkpt><trkpt lat="46.442640757402124" lon="9.774932069176327"><ele>1794.6666666666667</ele><time>2026-04-11T10:25:25Z</time></trkpt><trkpt lat="46.44251654544926" lon="9.774716489384804"><ele>1792.0</ele><time>2026-04-11T10:25:26Z</time></trkpt><trkpt lat="46.44241022039914" lon="9.774473243384183"><ele>1792.0</ele><time>2026-04-11T10:25:27Z</time></trkpt><trkpt lat="46.442309340012194" lon="9.774224930713666"><ele>1792.0</ele><time>2026-04-11T10:25:28Z</time></trkpt><trkpt lat="46.44220760698228" lon="9.773968150043785"><ele>1792.0</ele><time>2026-04-11T10:25:29Z</time></trkpt><trkpt lat="46.442105440109074" lon="9.77371041709769"><ele>1792.3333333333335</ele><time>2026-04-11T10:25:30Z</time></trkpt><trkpt lat="46.44200189589626" lon="9.773454330526535"><ele>1792.6666666666665</ele><time>2026-04-11T10:25:31Z</time></trkpt><trkpt lat="46.44189779264443" lon="9.773199071072698"><ele>1793.0</ele><time>2026-04-11T10:25:32Z</time></trkpt><trkpt lat="46.44179506256294" lon="9.77294771970017"><ele>1793.0</ele><time>2026-04-11T10:25:33Z</time></trkpt><trkpt lat="46.441692947764295" lon="9.772698884118128"><ele>1793.0</ele><time>2026-04-11T10:25:34Z</time></trkpt><trkpt lat="46.441591323268035" lon="9.772450110678886"><ele>1793.0</ele><time>2026-04-11T10:25:35Z</time></trkpt><trkpt lat="46.441490109414595" lon="9.772200202434167"><ele>1793.0</ele><time>2026-04-11T10:25:36Z</time></trkpt><trkpt lat="46.4413889205453" lon="9.771950379558604"><ele>1793.0</ele><time>2026-04-11T10:25:37Z</time></trkpt><trkpt lat="46.441288391352685" lon="9.771700530468173"><ele>1793.0</ele><time>2026-04-11T10:25:38Z</time></trkpt><trkpt lat="46.441188239078635" lon="9.771447256137535"><ele>1794.0</ele><time>2026-04-11T10:25:39Z</time></trkpt><trkpt lat="46.44108560900484" lon="9.771194147432826"><ele>1795.0</ele><time>2026-04-11T10:25:40Z</time></trkpt><trkpt lat="46.440981829093516" lon="9.770940432286972"><ele>1796.0</ele><time>2026-04-11T10:25:41Z</time></trkpt><trkpt lat="46.44087616774744" lon="9.770686033280905"><ele>1796.0</ele><time>2026-04-11T10:25:42Z</time></trkpt><trkpt lat="46.44077168363531" lon="9.770433708418663"><ele>1796.0</ele><time>2026-04-11T10:25:43.001Z</time></trkpt><trkpt lat="46.44066777047851" lon="9.770179978196929"><ele>1796.0</ele><time>2026-04-11T10:25:44.001Z</time></trkpt><trkpt lat="46.44056475148935" lon="9.769927381258311"><ele>1795.6666666666665</ele><time>2026-04-11T10:25:45.001Z</time></trkpt><trkpt lat="46.44046074982212" lon="9.76967554936046"><ele>1795.3333333333335</ele><time>2026-04-11T10:25:46.001Z</time></trkpt><trkpt lat="46.440355965727655" lon="9.769425542511373"><ele>1795.0</ele><time>2026-04-11T10:25:47.001Z</time></trkpt><trkpt lat="46.440251955115954" lon="9.769175189597574"><ele>1795.0</ele><time>2026-04-11T10:25:48.001Z</time></trkpt><trkpt lat="46.44015017403492" lon="9.768924988930069"><ele>1795.0</ele><time>2026-04-11T10:25:49.001Z</time></trkpt><trkpt lat="46.44004701262019" lon="9.768675060531903"><ele>1795.0</ele><time>2026-04-11T10:25:50.001Z</time></trkpt><trkpt lat="46.439943313364736" lon="9.768424739376"><ele>1795.6666666666667</ele><time>2026-04-11T10:25:51.001Z</time></trkpt><trkpt lat="46.439840200430545" lon="9.768174186290006"><ele>1796.3333333333335</ele><time>2026-04-11T10:25:52.001Z</time></trkpt><trkpt lat="46.439740041890005" lon="9.767922497766206"><ele>1797.0</ele><time>2026-04-11T10:25:53.001Z</time></trkpt><trkpt lat="46.43964457438234" lon="9.767678377420374"><ele>1797.3333333333335</ele><time>2026-04-11T10:25:54.001Z</time></trkpt><trkpt lat="46.43955291299305" lon="9.76746048459876"><ele>1797.6666666666667</ele><time>2026-04-11T10:25:55.001Z</time></trkpt><trkpt lat="46.439464601497384" lon="9.767242742258258"><ele>1798.0</ele><time>2026-04-11T10:25:56.001Z</time></trkpt><trkpt lat="46.4393793332587" lon="9.767029037728907"><ele>1798.0</ele><time>2026-04-11T10:25:57.001Z</time></trkpt><trkpt lat="46.43929906664319" lon="9.766839468570177"><ele>1798.0</ele><time>2026-04-11T10:25:58.001Z</time></trkpt><trkpt lat="46.439229655447384" lon="9.766667248996159"><ele>1798.0</ele><time>2026-04-11T10:25:59.001Z</time></trkpt><trkpt lat="46.4391669744885" lon="9.766508248085199"><ele>1798.0</ele><time>2026-04-11T10:26:00Z</time></trkpt><trkpt lat="46.43911391924382" lon="9.766367566998529"><ele>1798.0000000000002</ele><time>2026-04-11T10:26:01Z</time></trkpt><trkpt lat="46.43907678731901" lon="9.766237136790796"><ele>1798.0</ele><time>2026-04-11T10:26:02Z</time></trkpt><trkpt lat="46.43906135822608" lon="9.766114539985043"><ele>1798.0</ele><time>2026-04-11T10:26:03Z</time></trkpt><trkpt lat="46.43907874622757" lon="9.76599574824862"><ele>1798.0</ele><time>2026-04-11T10:26:04Z</time></trkpt><trkpt lat="46.43908087120538" lon="9.765874567943968"><ele>1798.0000000000002</ele><time>2026-04-11T10:26:05Z</time></trkpt><trkpt lat="46.43905867117634" lon="9.765780412794316"><ele>1798.0</ele><time>2026-04-11T10:26:06Z</time></trkpt><trkpt lat="46.43898456110237" lon="9.765700243026112"><ele>1798.5</ele><time>2026-04-11T10:26:07Z</time></trkpt><trkpt lat="46.438888636759856" lon="9.765621830319771"><ele>1799.0</ele><time>2026-04-11T10:26:08Z</time></trkpt><trkpt lat="46.43880321964667" lon="9.765488260145808"><ele>1799.5</ele><time>2026-04-11T10:26:09Z</time></trkpt><trkpt lat="46.438722396305856" lon="9.765333042480101"><ele>1800.0</ele><time>2026-04-11T10:26:10Z</time></trkpt><trkpt lat="46.43863595047171" lon="9.765175837803993"><ele>1800.0</ele><time>2026-04-11T10:26:11Z</time></trkpt><trkpt lat="46.438569486415346" lon="9.764989208251977"><ele>1800.0</ele><time>2026-04-11T10:26:12Z</time></trkpt><trkpt lat="46.438501134325776" lon="9.764807413416023"><ele>1800.0</ele><time>2026-04-11T10:26:13Z</time></trkpt><trkpt lat="46.43841283076507" lon="9.764619246991192"><ele>1800.0</ele><time>2026-04-11T10:26:14Z</time></trkpt><trkpt lat="46.43833942921595" lon="9.764406927772798"><ele>1800.3333333333335</ele><time>2026-04-11T10:26:15Z</time></trkpt><trkpt lat="46.438261310714125" lon="9.764192043048094"><ele>1800.6666666666667</ele><time>2026-04-11T10:26:16Z</time></trkpt><trkpt lat="46.43818468193298" lon="9.763977506738033"><ele>1801.0</ele><time>2026-04-11T10:26:17Z</time></trkpt><trkpt lat="46.43810795242916" lon="9.763762836432964"><ele>1801.0</ele><time>2026-04-11T10:26:18Z</time></trkpt><trkpt lat="46.43803916870846" lon="9.763540444930058"><ele>1801.0</ele><time>2026-04-11T10:26:19Z</time></trkpt><trkpt lat="46.437973722558226" lon="9.763310053992333"><ele>1801.0</ele><time>2026-04-11T10:26:20Z</time></trkpt><trkpt lat="46.43792341194486" lon="9.763065043823435"><ele>1801.0</ele><time>2026-04-11T10:26:21Z</time></trkpt><trkpt lat="46.4378994334551" lon="9.762812141817992"><ele>1801.0</ele><time>2026-04-11T10:26:22Z</time></trkpt><trkpt lat="46.43787049285746" lon="9.762557685077311"><ele>1801.0</ele><time>2026-04-11T10:26:23Z</time></trkpt><trkpt lat="46.43784901731836" lon="9.762298362123534"><ele>1801.0</ele><time>2026-04-11T10:26:24Z</time></trkpt><trkpt lat="46.437818058935136" lon="9.76205046696158"><ele>1801.0</ele><time>2026-04-11T10:26:25Z</time></trkpt><trkpt lat="46.43779386638025" lon="9.761787787880337"><ele>1801.0</ele><time>2026-04-11T10:26:26Z</time></trkpt><trkpt lat="46.437762233565614" lon="9.761525894038257"><ele>1801.6666666666667</ele><time>2026-04-11T10:26:27Z</time></trkpt><trkpt lat="46.4377164553201" lon="9.761259125740542"><ele>1802.3333333333335</ele><time>2026-04-11T10:26:28Z</time></trkpt><trkpt lat="46.437656117005645" lon="9.76099909750907"><ele>1803.0</ele><time>2026-04-11T10:26:29Z</time></trkpt><trkpt lat="46.43758452641272" lon="9.76074451193093"><ele>1807.6666666666665</ele><time>2026-04-11T10:26:30Z</time></trkpt><trkpt lat="46.43749822250677" lon="9.760495878198766"><ele>1812.3333333333333</ele><time>2026-04-11T10:26:31Z</time></trkpt><trkpt lat="46.43739892228717" lon="9.760255312204464"><ele>1817.0</ele><time>2026-04-11T10:26:32Z</time></trkpt><trkpt lat="46.437291005827205" lon="9.76001795957577"><ele>1813.3333333333333</ele><time>2026-04-11T10:26:33Z</time></trkpt><trkpt lat="46.43717880070798" lon="9.75978077900592"><ele>1809.6666666666665</ele><time>2026-04-11T10:26:34Z</time></trkpt><trkpt lat="46.43706691918013" lon="9.759540819008024"><ele>1806.0</ele><time>2026-04-11T10:26:35Z</time></trkpt><trkpt lat="46.43695443971397" lon="9.759298597816326"><ele>1806.0</ele><time>2026-04-11T10:26:36Z</time></trkpt><trkpt lat="46.43684027576765" lon="9.759051621893807"><ele>1806.0</ele><time>2026-04-11T10:26:37Z</time></trkpt><trkpt lat="46.43672480486412" lon="9.758804608813811"><ele>1806.0</ele><time>2026-04-11T10:26:38Z</time></trkpt><trkpt lat="46.43661044656508" lon="9.758554606716382"><ele>1812.0</ele><time>2026-04-11T10:26:39Z</time></trkpt><trkpt lat="46.436501696735945" lon="9.758298658605598"><ele>1818.0</ele><time>2026-04-11T10:26:40Z</time></trkpt><trkpt lat="46.43642546951918" lon="9.75801963115563"><ele>1824.0</ele><time>2026-04-11T10:26:41Z</time></trkpt><trkpt lat="46.43635208773719" lon="9.757740324044486"><ele>1815.6666666666665</ele><time>2026-04-11T10:26:42Z</time></trkpt><trkpt lat="46.43628340267225" lon="9.757454147725998"><ele>1807.3333333333333</ele><time>2026-04-11T10:26:43Z</time></trkpt><trkpt lat="46.436204207801474" lon="9.757178553120768"><ele>1799.0</ele><time>2026-04-11T10:26:44Z</time></trkpt><trkpt lat="46.436135138297814" lon="9.756902780694679"><ele>1801.0</ele><time>2026-04-11T10:26:45Z</time></trkpt><trkpt lat="46.43605047693362" lon="9.756641665902277"><ele>1803.0</ele><time>2026-04-11T10:26:46Z</time></trkpt><trkpt lat="46.43594982674548" lon="9.756385070825615"><ele>1805.0</ele><time>2026-04-11T10:26:47Z</time></trkpt><trkpt lat="46.435840789959535" lon="9.756133405382666"><ele>1806.6666666666665</ele><time>2026-04-11T10:26:48Z</time></trkpt><trkpt lat="46.43571671525859" lon="9.755892537124911"><ele>1808.3333333333335</ele><time>2026-04-11T10:26:49Z</time></trkpt><trkpt lat="46.43558783976076" lon="9.755656959764435"><ele>1810.0</ele><time>2026-04-11T10:26:50Z</time></trkpt><trkpt lat="46.43545678900341" lon="9.755428569758124"><ele>1807.0</ele><time>2026-04-11T10:26:51Z</time></trkpt><trkpt lat="46.43532468683943" lon="9.755204267195385"><ele>1804.0</ele><time>2026-04-11T10:26:52Z</time></trkpt><trkpt lat="46.435192191531016" lon="9.754981615073818"><ele>1801.0</ele><time>2026-04-11T10:26:53Z</time></trkpt><trkpt lat="46.4350679455936" lon="9.754755438247502"><ele>1801.0</ele><time>2026-04-11T10:26:54Z</time></trkpt><trkpt lat="46.43495458208299" lon="9.754522809337663"><ele>1801.0</ele><time>2026-04-11T10:26:55Z</time></trkpt><trkpt lat="46.43485206283496" lon="9.754283823976829"><ele>1801.0</ele><time>2026-04-11T10:26:56Z</time></trkpt><trkpt lat="46.4347573736232" lon="9.754036604435191"><ele>1801.0</ele><time>2026-04-11T10:26:57Z</time></trkpt><trkpt lat="46.43467248128661" lon="9.753779724252698"><ele>1801.0</ele><time>2026-04-11T10:26:58Z</time></trkpt><trkpt lat="46.4346131700208" lon="9.753505529109662"><ele>1801.0</ele><time>2026-04-11T10:26:59Z</time></trkpt><trkpt lat="46.4345322430201" lon="9.75324427423501"><ele>1801.0</ele><time>2026-04-11T10:27:00Z</time></trkpt><trkpt lat="46.43447079399188" lon="9.752971566288178"><ele>1801.0</ele><time>2026-04-11T10:27:01Z</time></trkpt><trkpt lat="46.434404128802406" lon="9.752701093857377"><ele>1801.0</ele><time>2026-04-11T10:27:02Z</time></trkpt><trkpt lat="46.434330669453644" lon="9.752434447915492"><ele>1802.0</ele><time>2026-04-11T10:27:03Z</time></trkpt><trkpt lat="46.4342477821933" lon="9.752172793047995"><ele>1803.0</ele><time>2026-04-11T10:27:04Z</time></trkpt><trkpt lat="46.434147171399864" lon="9.75192056776854"><ele>1804.0</ele><time>2026-04-11T10:27:05Z</time></trkpt><trkpt lat="46.434033911284665" lon="9.75167861098021"><ele>1804.3333333333335</ele><time>2026-04-11T10:27:06Z</time></trkpt><trkpt lat="46.43391127663954" lon="9.751447932317678"><ele>1804.6666666666665</ele><time>2026-04-11T10:27:07Z</time></trkpt><trkpt lat="46.43378295330195" lon="9.751223083877145"><ele>1805.0</ele><time>2026-04-11T10:27:08Z</time></trkpt><trkpt lat="46.43365640727376" lon="9.750998058195092"><ele>1805.0</ele><time>2026-04-11T10:27:09Z</time></trkpt><trkpt lat="46.43353599604092" lon="9.750764743809585"><ele>1805.0</ele><time>2026-04-11T10:27:10Z</time></trkpt><trkpt lat="46.43342157829461" lon="9.75052278463625"><ele>1805.0</ele><time>2026-04-11T10:27:11Z</time></trkpt><trkpt lat="46.433313637360094" lon="9.750274290147464"><ele>1809.0</ele><time>2026-04-11T10:27:12Z</time></trkpt><trkpt lat="46.43321105385602" lon="9.750020770702884"><ele>1813.0</ele><time>2026-04-11T10:27:13Z</time></trkpt><trkpt lat="46.4331135110208" lon="9.749756767824309"><ele>1817.0</ele><time>2026-04-11T10:27:14Z</time></trkpt><trkpt lat="46.43301864100232" lon="9.749488862208388"><ele>1811.0</ele><time>2026-04-11T10:27:15Z</time></trkpt><trkpt lat="46.43292947705805" lon="9.749214305911241"><ele>1805.0</ele><time>2026-04-11T10:27:16Z</time></trkpt><trkpt lat="46.432849889756504" lon="9.74893537556413"><ele>1799.0</ele><time>2026-04-11T10:27:17Z</time></trkpt><trkpt lat="46.43278091973267" lon="9.748651250723182"><ele>1800.3333333333333</ele><time>2026-04-11T10:27:18Z</time></trkpt><trkpt lat="46.43272377296675" lon="9.748364071599598"><ele>1801.6666666666665</ele><time>2026-04-11T10:27:19Z</time></trkpt><trkpt lat="46.43268394892632" lon="9.74806778134219"><ele>1803.0</ele><time>2026-04-11T10:27:20Z</time></trkpt><trkpt lat="46.43267418687256" lon="9.747765457063311"><ele>1803.6666666666665</ele><time>2026-04-11T10:27:21Z</time></trkpt><trkpt lat="46.432633976725505" lon="9.747478370146418"><ele>1804.3333333333333</ele><time>2026-04-11T10:27:22Z</time></trkpt><trkpt lat="46.43271249876384" lon="9.747156406323521"><ele>1805.0</ele><time>2026-04-11T10:27:23Z</time></trkpt><trkpt lat="46.43275502909605" lon="9.746855974800724"><ele>1805.0</ele><time>2026-04-11T10:27:24Z</time></trkpt><trkpt lat="46.43279190494181" lon="9.746558459649385"><ele>1805.0</ele><time>2026-04-11T10:27:25Z</time></trkpt><trkpt lat="46.432820945968686" lon="9.746260465893606"><ele>1805.0</ele><time>2026-04-11T10:27:26Z</time></trkpt><trkpt lat="46.43283736522941" lon="9.745959468555448"><ele>1804.0</ele><time>2026-04-11T10:27:27Z</time></trkpt><trkpt lat="46.432829519286294" lon="9.745659271019104"><ele>1803.0</ele><time>2026-04-11T10:27:28Z</time></trkpt><trkpt lat="46.432794705696466" lon="9.745361796208982"><ele>1802.0</ele><time>2026-04-11T10:27:29Z</time></trkpt><trkpt lat="46.432739028093586" lon="9.7450718300264"><ele>1804.0</ele><time>2026-04-11T10:27:30Z</time></trkpt><trkpt lat="46.4326662142242" lon="9.744790318289805"><ele>1806.0</ele><time>2026-04-11T10:27:31Z</time></trkpt><trkpt lat="46.43257363935811" lon="9.74451915916997"><ele>1808.0</ele><time>2026-04-11T10:27:32Z</time></trkpt><trkpt lat="46.43246454392924" lon="9.744259790615535"><ele>1810.3333333333333</ele><time>2026-04-11T10:27:33Z</time></trkpt><trkpt lat="46.43233567145407" lon="9.7440219876604"><ele>1812.6666666666665</ele><time>2026-04-11T10:27:34Z</time></trkpt><trkpt lat="46.43218598410718" lon="9.743807820386458"><ele>1815.0</ele><time>2026-04-11T10:27:35Z</time></trkpt><trkpt lat="46.432025310584685" lon="9.743603492068273"><ele>1812.3333333333335</ele><time>2026-04-11T10:27:36Z</time></trkpt><trkpt lat="46.43186777269285" lon="9.743400071242377"><ele>1809.6666666666667</ele><time>2026-04-11T10:27:37Z</time></trkpt><trkpt lat="46.431720915929624" lon="9.743205868757434"><ele>1807.0</ele><time>2026-04-11T10:27:38Z</time></trkpt><trkpt lat="46.43158954185905" lon="9.743007290051153"><ele>1807.0</ele><time>2026-04-11T10:27:39Z</time></trkpt><trkpt lat="46.43148234640751" lon="9.74277844027097"><ele>1807.0</ele><time>2026-04-11T10:27:40Z</time></trkpt><trkpt lat="46.431409177530206" lon="9.742517341723492"><ele>1807.0</ele><time>2026-04-11T10:27:41Z</time></trkpt><trkpt lat="46.431355010644054" lon="9.742243575614895"><ele>1806.3333333333335</ele><time>2026-04-11T10:27:42Z</time></trkpt><trkpt lat="46.43130733638331" lon="9.741964431695504"><ele>1805.6666666666665</ele><time>2026-04-11T10:27:43Z</time></trkpt><trkpt lat="46.431256729114345" lon="9.74168468702807"><ele>1805.0</ele><time>2026-04-11T10:27:44Z</time></trkpt><trkpt lat="46.43120042558039" lon="9.741404259478717"><ele>1805.0</ele><time>2026-04-11T10:27:45Z</time></trkpt><trkpt lat="46.431139039273056" lon="9.741125486608126"><ele>1805.0</ele><time>2026-04-11T10:27:46Z</time></trkpt><trkpt lat="46.43106514589875" lon="9.740854778495573"><ele>1805.0</ele><time>2026-04-11T10:27:47Z</time></trkpt><trkpt lat="46.4309635061569" lon="9.740594171715696"><ele>1808.0</ele><time>2026-04-11T10:27:48.001Z</time></trkpt><trkpt lat="46.43085282668857" lon="9.74034415405339"><ele>1811.0</ele><time>2026-04-11T10:27:49.001Z</time></trkpt><trkpt lat="46.4307396123734" lon="9.74009131729024"><ele>1814.0</ele><time>2026-04-11T10:27:50Z</time></trkpt><trkpt lat="46.43063532222243" lon="9.739838862025117"><ele>1810.6666666666665</ele><time>2026-04-11T10:27:51Z</time></trkpt><trkpt lat="46.4305320151422" lon="9.739587026369037"><ele>1807.3333333333335</ele><time>2026-04-11T10:27:52.001Z</time></trkpt><trkpt lat="46.43042420913548" lon="9.739337525462"><ele>1804.0</ele><time>2026-04-11T10:27:53Z</time></trkpt><trkpt lat="46.43030124099099" lon="9.739109019879441"><ele>1804.0</ele><time>2026-04-11T10:27:54Z</time></trkpt><trkpt lat="46.4301532208963" lon="9.738903243040783"><ele>1804.0</ele><time>2026-04-11T10:27:55.001Z</time></trkpt><trkpt lat="46.42999142211281" lon="9.738726984091635"><ele>1804.0</ele><time>2026-04-11T10:27:56Z</time></trkpt><trkpt lat="46.42982217094482" lon="9.738572993317751"><ele>1804.0</ele><time>2026-04-11T10:27:57Z</time></trkpt><trkpt lat="46.429664573971095" lon="9.738421977051562"><ele>1804.0</ele><time>2026-04-11T10:27:58Z</time></trkpt><trkpt lat="46.429532751237566" lon="9.738235950365848"><ele>1804.0</ele><time>2026-04-11T10:27:59Z</time></trkpt><trkpt lat="46.42940866351258" lon="9.738026127744105"><ele>1804.0</ele><time>2026-04-11T10:28:00Z</time></trkpt><trkpt lat="46.429281429476106" lon="9.737815665643696"><ele>1804.0</ele><time>2026-04-11T10:28:01Z</time></trkpt><trkpt lat="46.429157326751614" lon="9.737593078890429"><ele>1804.0</ele><time>2026-04-11T10:28:02Z</time></trkpt><trkpt lat="46.42904040412233" lon="9.737360605912311"><ele>1804.3333333333335</ele><time>2026-04-11T10:28:03Z</time></trkpt><trkpt lat="46.42893277150028" lon="9.737130538924767"><ele>1804.6666666666665</ele><time>2026-04-11T10:28:04Z</time></trkpt><trkpt lat="46.4288342529222" lon="9.736917460193665"><ele>1805.0</ele><time>2026-04-11T10:28:05Z</time></trkpt><trkpt lat="46.42875690103987" lon="9.736737110810115"><ele>1805.0</ele><time>2026-04-11T10:28:06Z</time></trkpt><trkpt lat="46.428711367302974" lon="9.736582566114619"><ele>1805.0</ele><time>2026-04-11T10:28:07Z</time></trkpt><trkpt lat="46.42869660200855" lon="9.73639093455688"><ele>1805.0</ele><time>2026-04-11T10:28:08Z</time></trkpt><trkpt lat="46.42870684349045" lon="9.736162168151612"><ele>1805.0</ele><time>2026-04-11T10:28:09Z</time></trkpt><trkpt lat="46.42871083220591" lon="9.735908510456548"><ele>1805.0</ele><time>2026-04-11T10:28:10Z</time></trkpt><trkpt lat="46.42872385919551" lon="9.735656336000515"><ele>1805.0</ele><time>2026-04-11T10:28:11Z</time></trkpt><trkpt lat="46.42877012232584" lon="9.735417377764234"><ele>1805.0</ele><time>2026-04-11T10:28:12Z</time></trkpt><trkpt lat="46.4288122270807" lon="9.735193761585059"><ele>1806.75</ele><time>2026-04-11T10:28:13Z</time></trkpt><trkpt lat="46.42882592236449" lon="9.734999196376153"><ele>1808.5</ele><time>2026-04-11T10:28:14Z</time></trkpt><trkpt lat="46.42880593103684" lon="9.734824915357741"><ele>1810.25</ele><time>2026-04-11T10:28:15Z</time></trkpt><trkpt lat="46.428750533776515" lon="9.73464871887509"><ele>1812.0</ele><time>2026-04-11T10:28:16Z</time></trkpt><trkpt lat="46.42866194799644" lon="9.734486341350037"><ele>1816.6666666666665</ele><time>2026-04-11T10:28:17Z</time></trkpt><trkpt lat="46.42855167682854" lon="9.734331998646136"><ele>1821.3333333333333</ele><time>2026-04-11T10:28:18Z</time></trkpt><trkpt lat="46.428426793402814" lon="9.734198506198851"><ele>1826.0</ele><time>2026-04-11T10:28:19Z</time></trkpt><trkpt lat="46.42827988302426" lon="9.734093581444455"><ele>1826.0</ele><time>2026-04-11T10:28:20Z</time></trkpt><trkpt lat="46.428128910611" lon="9.733992060781658"><ele>1826.0</ele><time>2026-04-11T10:28:21Z</time></trkpt><trkpt lat="46.42798578797706" lon="9.733875295649117"><ele>1826.0</ele><time>2026-04-11T10:28:22Z</time></trkpt><trkpt lat="46.427853559655425" lon="9.733724353277722"><ele>1824.0</ele><time>2026-04-11T10:28:23Z</time></trkpt><trkpt lat="46.42771995500153" lon="9.733556135141823"><ele>1822.0</ele><time>2026-04-11T10:28:24Z</time></trkpt><trkpt lat="46.42758318005395" lon="9.733383794139217"><ele>1820.0</ele><time>2026-04-11T10:28:25Z</time></trkpt><trkpt lat="46.42744320903098" lon="9.733206347227771"><ele>1820.0</ele><time>2026-04-11T10:28:26Z</time></trkpt><trkpt lat="46.42730951077215" lon="9.733007066125149"><ele>1820.0</ele><time>2026-04-11T10:28:27Z</time></trkpt><trkpt lat="46.427193866757754" lon="9.732793965929785"><ele>1820.0</ele><time>2026-04-11T10:28:28Z</time></trkpt><trkpt lat="46.42709292676697" lon="9.732561063775247"><ele>1815.6666666666665</ele><time>2026-04-11T10:28:29Z</time></trkpt><trkpt lat="46.426982692180964" lon="9.732329340161543"><ele>1811.3333333333335</ele><time>2026-04-11T10:28:30Z</time></trkpt><trkpt lat="46.42685809273381" lon="9.732112036192387"><ele>1807.0</ele><time>2026-04-11T10:28:31Z</time></trkpt><trkpt lat="46.42673012764849" lon="9.731894036417149"><ele>1812.3333333333335</ele><time>2026-04-11T10:28:32Z</time></trkpt><trkpt lat="46.42659862359456" lon="9.731676658304995"><ele>1817.6666666666665</ele><time>2026-04-11T10:28:33Z</time></trkpt><trkpt lat="46.42647028851254" lon="9.731464505991589"><ele>1823.0</ele><time>2026-04-11T10:28:34Z</time></trkpt><trkpt lat="46.42634504136279" lon="9.731260611136006"><ele>1819.6666666666665</ele><time>2026-04-11T10:28:35Z</time></trkpt><trkpt lat="46.426226637494224" lon="9.731062642486807"><ele>1816.3333333333335</ele><time>2026-04-11T10:28:36Z</time></trkpt><trkpt lat="46.42610870137512" lon="9.730865592379834"><ele>1813.0</ele><time>2026-04-11T10:28:37Z</time></trkpt><trkpt lat="46.42598962212332" lon="9.730656064124863"><ele>1813.0</ele><time>2026-04-11T10:28:38Z</time></trkpt><trkpt lat="46.425873499347524" lon="9.730430066855423"><ele>1813.0</ele><time>2026-04-11T10:28:39Z</time></trkpt><trkpt lat="46.425764392482" lon="9.730192194537723"><ele>1813.0</ele><time>2026-04-11T10:28:40Z</time></trkpt><trkpt lat="46.425662914077535" lon="9.729941603173671"><ele>1814.6666666666667</ele><time>2026-04-11T10:28:41Z</time></trkpt><trkpt lat="46.425562629386626" lon="9.729688909647509"><ele>1816.3333333333335</ele><time>2026-04-11T10:28:42Z</time></trkpt><trkpt lat="46.42546150478105" lon="9.729435102031397"><ele>1818.0</ele><time>2026-04-11T10:28:43Z</time></trkpt><trkpt lat="46.42536123682415" lon="9.729182225933197"><ele>1821.3333333333335</ele><time>2026-04-11T10:28:44Z</time></trkpt><trkpt lat="46.42525142820071" lon="9.728936542589736"><ele>1824.6666666666667</ele><time>2026-04-11T10:28:45Z</time></trkpt><trkpt lat="46.42512346382845" lon="9.728706974482003"><ele>1828.0</ele><time>2026-04-11T10:28:46Z</time></trkpt><trkpt lat="46.42498016179904" lon="9.72849003528061"><ele>1828.0</ele><time>2026-04-11T10:28:47Z</time></trkpt><trkpt lat="46.42482851621054" lon="9.728282820660283"><ele>1828.0</ele><time>2026-04-11T10:28:48Z</time></trkpt><trkpt lat="46.424674418628015" lon="9.728077044751652"><ele>1828.0</ele><time>2026-04-11T10:28:49Z</time></trkpt><trkpt lat="46.42452474560381" lon="9.72787518052534"><ele>1825.0</ele><time>2026-04-11T10:28:50Z</time></trkpt><trkpt lat="46.42438102129225" lon="9.727677261737847"><ele>1822.0</ele><time>2026-04-11T10:28:51Z</time></trkpt><trkpt lat="46.42423293836911" lon="9.727475645693774"><ele>1819.0</ele><time>2026-04-11T10:28:52Z</time></trkpt><trkpt lat="46.42408513919095" lon="9.727272183594827"><ele>1819.0</ele><time>2026-04-11T10:28:53Z</time></trkpt><trkpt lat="46.423930347501546" lon="9.727072423441863"><ele>1819.0</ele><time>2026-04-11T10:28:54Z</time></trkpt><trkpt lat="46.42376596327703" lon="9.726889806565454"><ele>1819.0</ele><time>2026-04-11T10:28:55Z</time></trkpt><trkpt lat="46.42358801001698" lon="9.726730588201535"><ele>1819.0</ele><time>2026-04-11T10:28:56Z</time></trkpt><trkpt lat="46.42339982745374" lon="9.72659977566292"><ele>1819.0</ele><time>2026-04-11T10:28:57Z</time></trkpt><trkpt lat="46.423204779435075" lon="9.726497440879395"><ele>1819.0</ele><time>2026-04-11T10:28:58Z</time></trkpt><trkpt lat="46.42300527968751" lon="9.726422076361779"><ele>1813.3333333333335</ele><time>2026-04-11T10:28:59Z</time></trkpt><trkpt lat="46.422813766583126" lon="9.726372231165897"><ele>1807.6666666666665</ele><time>2026-04-11T10:29:00Z</time></trkpt><trkpt lat="46.4226440993775" lon="9.726346467514366"><ele>1802.0</ele><time>2026-04-11T10:29:01Z</time></trkpt><trkpt lat="46.422499738730686" lon="9.726340982303812"><ele>1802.0</ele><time>2026-04-11T10:29:02Z</time></trkpt><trkpt lat="46.42236351207478" lon="9.726327440727616"><ele>1802.0</ele><time>2026-04-11T10:29:03Z</time></trkpt><trkpt lat="46.42221572434632" lon="9.726327863021966"><ele>1802.0</ele><time>2026-04-11T10:29:04Z</time></trkpt><trkpt lat="46.42208255205777" lon="9.72633272393869"><ele>1802.0</ele><time>2026-04-11T10:29:05Z</time></trkpt><trkpt lat="46.421943987531705" lon="9.726341154357272"><ele>1801.0</ele><time>2026-04-11T10:29:06Z</time></trkpt><trkpt lat="46.42180712299866" lon="9.726344145826443"><ele>1800.0</ele><time>2026-04-11T10:29:07Z</time></trkpt><trkpt lat="46.42166569675961" lon="9.726349079536881"><ele>1799.0</ele><time>2026-04-11T10:29:08Z</time></trkpt><trkpt lat="46.42152596929627" lon="9.726352068196174"><ele>1798.0</ele><time>2026-04-11T10:29:09Z</time></trkpt><trkpt lat="46.42138884870222" lon="9.72636513496707"><ele>1798.0</ele><time>2026-04-11T10:29:10Z</time></trkpt><trkpt lat="46.421247750644135" lon="9.726371042270571"><ele>1798.0</ele><time>2026-04-11T10:29:11Z</time></trkpt><trkpt lat="46.42110814148928" lon="9.726375660035265"><ele>1798.0</ele><time>2026-04-11T10:29:12Z</time></trkpt><trkpt lat="46.42096667724119" lon="9.726383840119205"><ele>1798.0</ele><time>2026-04-11T10:29:13Z</time></trkpt><trkpt lat="46.42082068382587" lon="9.726390005694943"><ele>1798.0</ele><time>2026-04-11T10:29:14Z</time></trkpt><trkpt lat="46.420675837667666" lon="9.726406900267742"><ele>1798.0</ele><time>2026-04-11T10:29:15Z</time></trkpt><trkpt lat="46.42053418750458" lon="9.72644055164618"><ele>1798.0</ele><time>2026-04-11T10:29:16Z</time></trkpt><trkpt lat="46.42039291565962" lon="9.726485438102937"><ele>1798.0</ele><time>2026-04-11T10:29:17Z</time></trkpt><trkpt lat="46.4202586684007" lon="9.726537912629325"><ele>1798.75</ele><time>2026-04-11T10:29:18Z</time></trkpt><trkpt lat="46.420132042521494" lon="9.726608051645488"><ele>1799.5</ele><time>2026-04-11T10:29:19Z</time></trkpt><trkpt lat="46.420012794199344" lon="9.726697140084879"><ele>1800.25</ele><time>2026-04-11T10:29:20Z</time></trkpt><trkpt lat="46.41989756895984" lon="9.726792073862782"><ele>1801.0</ele><time>2026-04-11T10:29:21Z</time></trkpt><trkpt lat="46.41978461961831" lon="9.726903724990102"><ele>1801.0</ele><time>2026-04-11T10:29:22Z</time></trkpt><trkpt lat="46.41967351370944" lon="9.727050164392747"><ele>1801.0</ele><time>2026-04-11T10:29:23Z</time></trkpt><trkpt lat="46.4195572090559" lon="9.727196564301293"><ele>1801.0</ele><time>2026-04-11T10:29:24Z</time></trkpt><trkpt lat="46.4194319286599" lon="9.727347385837467"><ele>1804.5</ele><time>2026-04-11T10:29:25Z</time></trkpt><trkpt lat="46.419313303001175" lon="9.727463723701524"><ele>1808.0</ele><time>2026-04-11T10:29:26Z</time></trkpt><trkpt lat="46.419185621560196" lon="9.727526575382008"><ele>1811.5</ele><time>2026-04-11T10:29:27Z</time></trkpt><trkpt lat="46.41903838980374" lon="9.727509387861446"><ele>1815.0</ele><time>2026-04-11T10:29:28Z</time></trkpt><trkpt lat="46.41890014580495" lon="9.727449156770508"><ele>1813.6666666666665</ele><time>2026-04-11T10:29:29Z</time></trkpt><trkpt lat="46.418777240258514" lon="9.7273175935335"><ele>1812.3333333333333</ele><time>2026-04-11T10:29:30Z</time></trkpt><trkpt lat="46.418664176083624" lon="9.727153267382073"><ele>1811.0</ele><time>2026-04-11T10:29:31Z</time></trkpt><trkpt lat="46.418553809407726" lon="9.726972506969016"><ele>1811.6666666666665</ele><time>2026-04-11T10:29:32Z</time></trkpt><trkpt lat="46.41846210306465" lon="9.726748112599719"><ele>1812.3333333333335</ele><time>2026-04-11T10:29:33Z</time></trkpt><trkpt lat="46.418366508192754" lon="9.726523207763746"><ele>1813.0</ele><time>2026-04-11T10:29:34Z</time></trkpt><trkpt lat="46.41827578556459" lon="9.726305087708532"><ele>1813.0</ele><time>2026-04-11T10:29:35Z</time></trkpt><trkpt lat="46.41818193018453" lon="9.72608713486949"><ele>1813.0</ele><time>2026-04-11T10:29:36Z</time></trkpt><trkpt lat="46.418086266876045" lon="9.725866302188297"><ele>1813.0</ele><time>2026-04-11T10:29:37Z</time></trkpt><trkpt lat="46.41799410647623" lon="9.725636632373622"><ele>1811.3333333333335</ele><time>2026-04-11T10:29:38Z</time></trkpt><trkpt lat="46.4179155892476" lon="9.725387138555229"><ele>1809.6666666666665</ele><time>2026-04-11T10:29:39Z</time></trkpt><trkpt lat="46.41784761496235" lon="9.725127114734132"><ele>1808.0</ele><time>2026-04-11T10:29:40Z</time></trkpt><trkpt lat="46.417778682638705" lon="9.72486325494186"><ele>1808.0</ele><time>2026-04-11T10:29:41Z</time></trkpt><trkpt lat="46.41771154632862" lon="9.724595521589512"><ele>1808.0</ele><time>2026-04-11T10:29:42Z</time></trkpt><trkpt lat="46.41763974239867" lon="9.724327099250493"><ele>1808.0</ele><time>2026-04-11T10:29:43Z</time></trkpt><trkpt lat="46.41756324228723" lon="9.724059481326902"><ele>1812.0</ele><time>2026-04-11T10:29:44Z</time></trkpt><trkpt lat="46.4174751144769" lon="9.723796414020176"><ele>1816.0</ele><time>2026-04-11T10:29:45Z</time></trkpt><trkpt lat="46.41737942371116" lon="9.723539649462717"><ele>1820.0</ele><time>2026-04-11T10:29:46Z</time></trkpt><trkpt lat="46.4172847136579" lon="9.723280929185691"><ele>1816.0</ele><time>2026-04-11T10:29:47Z</time></trkpt><trkpt lat="46.41719457463529" lon="9.723016796951798"><ele>1812.0</ele><time>2026-04-11T10:29:48Z</time></trkpt><trkpt lat="46.41711149404761" lon="9.722740914429872"><ele>1808.0</ele><time>2026-04-11T10:29:49Z</time></trkpt><trkpt lat="46.417033925022494" lon="9.722458825205957"><ele>1808.0</ele><time>2026-04-11T10:29:50Z</time></trkpt><trkpt lat="46.41695782342832" lon="9.72217518630765"><ele>1808.0</ele><time>2026-04-11T10:29:51Z</time></trkpt><trkpt lat="46.41687350571939" lon="9.721895028115497"><ele>1808.0</ele><time>2026-04-11T10:29:52Z</time></trkpt><trkpt lat="46.41679562503931" lon="9.72161179769276"><ele>1811.3333333333333</ele><time>2026-04-11T10:29:53Z</time></trkpt><trkpt lat="46.416714318509456" lon="9.721332660744105"><ele>1814.6666666666665</ele><time>2026-04-11T10:29:54Z</time></trkpt><trkpt lat="46.41663048754487" lon="9.721054269525322"><ele>1818.0</ele><time>2026-04-11T10:29:55Z</time></trkpt><trkpt lat="46.4165356074171" lon="9.720783329215912"><ele>1814.3333333333335</ele><time>2026-04-11T10:29:56Z</time></trkpt><trkpt lat="46.41643446782843" lon="9.72051850753276"><ele>1810.6666666666667</ele><time>2026-04-11T10:29:57Z</time></trkpt><trkpt lat="46.41633068621423" lon="9.72025753210128"><ele>1807.0</ele><time>2026-04-11T10:29:58Z</time></trkpt><trkpt lat="46.416228732418766" lon="9.71999698123091"><ele>1807.0</ele><time>2026-04-11T10:29:59Z</time></trkpt><trkpt lat="46.4161359305545" lon="9.719733698959159"><ele>1807.0</ele><time>2026-04-11T10:30:00Z</time></trkpt><trkpt lat="46.4160574340948" lon="9.71946355359548"><ele>1807.0</ele><time>2026-04-11T10:30:01Z</time></trkpt><trkpt lat="46.41598754977828" lon="9.71919480077886"><ele>1809.0</ele><time>2026-04-11T10:30:02Z</time></trkpt><trkpt lat="46.41591419064754" lon="9.718931245450563"><ele>1811.0</ele><time>2026-04-11T10:30:03Z</time></trkpt><trkpt lat="46.41582352137862" lon="9.718687146311378"><ele>1813.0</ele><time>2026-04-11T10:30:04Z</time></trkpt><trkpt lat="46.41570561579091" lon="9.718467408159677"><ele>1815.0</ele><time>2026-04-11T10:30:05Z</time></trkpt><trkpt lat="46.41556893182045" lon="9.718269607134033"><ele>1817.0</ele><time>2026-04-11T10:30:06Z</time></trkpt><trkpt lat="46.415431028620695" lon="9.718088661816106"><ele>1819.0</ele><time>2026-04-11T10:30:07Z</time></trkpt><trkpt lat="46.41530609867218" lon="9.717902895462855"><ele>1815.0</ele><time>2026-04-11T10:30:08Z</time></trkpt><trkpt lat="46.41520034237486" lon="9.717680422065905"><ele>1811.0</ele><time>2026-04-11T10:30:09Z</time></trkpt><trkpt lat="46.4151357071526" lon="9.717407771845858"><ele>1807.0</ele><time>2026-04-11T10:30:10Z</time></trkpt><trkpt lat="46.41505312850748" lon="9.717133265923255"><ele>1810.0</ele><time>2026-04-11T10:30:11Z</time></trkpt><trkpt lat="46.414995437575634" lon="9.716840371734579"><ele>1813.0</ele><time>2026-04-11T10:30:12Z</time></trkpt><trkpt lat="46.41492731728802" lon="9.716549618215213"><ele>1816.0</ele><time>2026-04-11T10:30:13Z</time></trkpt><trkpt lat="46.41485116858956" lon="9.716254896155691"><ele>1820.0</ele><time>2026-04-11T10:30:14Z</time></trkpt><trkpt lat="46.41476454764131" lon="9.715960878530984"><ele>1824.0</ele><time>2026-04-11T10:30:15Z</time></trkpt><trkpt lat="46.41465956732154" lon="9.715679871702928"><ele>1828.0</ele><time>2026-04-11T10:30:16Z</time></trkpt><trkpt lat="46.41453832104714" lon="9.71541201037664"><ele>1821.0</ele><time>2026-04-11T10:30:17Z</time></trkpt><trkpt lat="46.41441170212708" lon="9.715149733931614"><ele>1814.0</ele><time>2026-04-11T10:30:18Z</time></trkpt><trkpt lat="46.41429359765154" lon="9.714883536018396"><ele>1807.0</ele><time>2026-04-11T10:30:19Z</time></trkpt><trkpt lat="46.41417961684682" lon="9.714611445982497"><ele>1810.6666666666667</ele><time>2026-04-11T10:30:20Z</time></trkpt><trkpt lat="46.41406890718956" lon="9.714335510912267"><ele>1814.3333333333335</ele><time>2026-04-11T10:30:21Z</time></trkpt><trkpt lat="46.41396458674866" lon="9.714055578771188"><ele>1818.0</ele><time>2026-04-11T10:30:22Z</time></trkpt><trkpt lat="46.413858497342396" lon="9.713782468891203"><ele>1812.6666666666665</ele><time>2026-04-11T10:30:23Z</time></trkpt><trkpt lat="46.413721659333746" lon="9.713537800476551"><ele>1807.3333333333333</ele><time>2026-04-11T10:30:24Z</time></trkpt><trkpt lat="46.41355974632828" lon="9.713321029391102"><ele>1802.0</ele><time>2026-04-11T10:30:25Z</time></trkpt><trkpt lat="46.41339043432034" lon="9.71311521709105"><ele>1802.0</ele><time>2026-04-11T10:30:26Z</time></trkpt><trkpt lat="46.41321698750615" lon="9.712912835573396"><ele>1802.0</ele><time>2026-04-11T10:30:27Z</time></trkpt><trkpt lat="46.41303752560472" lon="9.71271836034039"><ele>1802.0</ele><time>2026-04-11T10:30:28Z</time></trkpt><trkpt lat="46.41285554536393" lon="9.712536560995964"><ele>1802.0</ele><time>2026-04-11T10:30:29Z</time></trkpt><trkpt lat="46.412681256681275" lon="9.712347509411716"><ele>1802.0</ele><time>2026-04-11T10:30:30Z</time></trkpt><trkpt lat="46.41252215547309" lon="9.712130789319115"><ele>1802.0</ele><time>2026-04-11T10:30:31Z</time></trkpt><trkpt lat="46.41238226972084" lon="9.71189415978069"><ele>1800.6666666666665</ele><time>2026-04-11T10:30:32Z</time></trkpt><trkpt lat="46.41225809462907" lon="9.71166286410568"><ele>1799.3333333333335</ele><time>2026-04-11T10:30:33Z</time></trkpt><trkpt lat="46.412141845064134" lon="9.711446205724195"><ele>1798.0</ele><time>2026-04-11T10:30:34Z</time></trkpt><trkpt lat="46.41202604133031" lon="9.71123612280932"><ele>1799.6666666666667</ele><time>2026-04-11T10:30:35Z</time></trkpt><trkpt lat="46.41191469950889" lon="9.711012369188307"><ele>1801.3333333333335</ele><time>2026-04-11T10:30:36Z</time></trkpt><trkpt lat="46.41182504851198" lon="9.710769137409379"><ele>1803.0</ele><time>2026-04-11T10:30:37Z</time></trkpt><trkpt lat="46.411751503743794" lon="9.71051325334651"><ele>1803.0</ele><time>2026-04-11T10:30:38Z</time></trkpt><trkpt lat="46.41167670736464" lon="9.710254154729379"><ele>1803.0</ele><time>2026-04-11T10:30:39Z</time></trkpt><trkpt lat="46.41159421494264" lon="9.710000478957562"><ele>1803.0</ele><time>2026-04-11T10:30:40Z</time></trkpt><trkpt lat="46.41149770347755" lon="9.709763977930049"><ele>1802.6666666666665</ele><time>2026-04-11T10:30:41Z</time></trkpt><trkpt lat="46.41137779008704" lon="9.709554557062342"><ele>1802.3333333333333</ele><time>2026-04-11T10:30:42Z</time></trkpt><trkpt lat="46.4112405884164" lon="9.709367627568676"><ele>1802.0</ele><time>2026-04-11T10:30:43Z</time></trkpt><trkpt lat="46.411103461667444" lon="9.709193307427936"><ele>1802.0</ele><time>2026-04-11T10:30:44Z</time></trkpt><trkpt lat="46.41098312045158" lon="9.709014911585708"><ele>1802.0</ele><time>2026-04-11T10:30:45Z</time></trkpt><trkpt lat="46.410880823071864" lon="9.708800528066144"><ele>1802.0</ele><time>2026-04-11T10:30:46Z</time></trkpt><trkpt lat="46.41080376025596" lon="9.70855499745116"><ele>1803.3333333333333</ele><time>2026-04-11T10:30:47Z</time></trkpt><trkpt lat="46.410761798105085" lon="9.708284747650236"><ele>1804.6666666666665</ele><time>2026-04-11T10:30:48Z</time></trkpt><trkpt lat="46.41073670145403" lon="9.708021361180608"><ele>1806.0</ele><time>2026-04-11T10:30:49Z</time></trkpt><trkpt lat="46.41071355165846" lon="9.707753199313117"><ele>1809.6666666666665</ele><time>2026-04-11T10:30:50Z</time></trkpt><trkpt lat="46.410679840371074" lon="9.70748293683894"><ele>1813.3333333333333</ele><time>2026-04-11T10:30:51Z</time></trkpt><trkpt lat="46.41063567188342" lon="9.707214236177103"><ele>1817.0</ele><time>2026-04-11T10:30:52Z</time></trkpt><trkpt lat="46.41058392632194" lon="9.706941664482649"><ele>1821.0</ele><time>2026-04-11T10:30:53Z</time></trkpt><trkpt lat="46.410524687627074" lon="9.706670154473741"><ele>1825.0</ele><time>2026-04-11T10:30:54Z</time></trkpt><trkpt lat="46.41047019148119" lon="9.706390864656697"><ele>1829.0</ele><time>2026-04-11T10:30:55Z</time></trkpt><trkpt lat="46.41041708972201" lon="9.706109715383702"><ele>1820.6666666666665</ele><time>2026-04-11T10:30:56Z</time></trkpt><trkpt lat="46.41036535336813" lon="9.705829734416854"><ele>1812.3333333333335</ele><time>2026-04-11T10:30:57Z</time></trkpt><trkpt lat="46.41031186557702" lon="9.705551590418093"><ele>1804.0</ele><time>2026-04-11T10:30:58Z</time></trkpt><trkpt lat="46.410255484642" lon="9.705276023146434"><ele>1806.0</ele><time>2026-04-11T10:30:59Z</time></trkpt><trkpt lat="46.410186864877595" lon="9.7050100978454"><ele>1808.0</ele><time>2026-04-11T10:31:00Z</time></trkpt><trkpt lat="46.41008624020209" lon="9.704762647746843"><ele>1810.0</ele><time>2026-04-11T10:31:01Z</time></trkpt><trkpt lat="46.40996052665253" lon="9.70453552014843"><ele>1811.6666666666667</ele><time>2026-04-11T10:31:02Z</time></trkpt><trkpt lat="46.4098111028992" lon="9.704334743272662"><ele>1813.3333333333335</ele><time>2026-04-11T10:31:03Z</time></trkpt><trkpt lat="46.40964300869619" lon="9.704169659095943"><ele>1815.0</ele><time>2026-04-11T10:31:04Z</time></trkpt><trkpt lat="46.40946013620617" lon="9.704037155568288"><ele>1809.6666666666665</ele><time>2026-04-11T10:31:05Z</time></trkpt><trkpt lat="46.40927239158845" lon="9.70392099883455"><ele>1804.3333333333333</ele><time>2026-04-11T10:31:06Z</time></trkpt><trkpt lat="46.40909664050306" lon="9.703799236137014"><ele>1799.0</ele><time>2026-04-11T10:31:07Z</time></trkpt><trkpt lat="46.408940444005225" lon="9.703667447830355"><ele>1798.6666666666665</ele><time>2026-04-11T10:31:08Z</time></trkpt><trkpt lat="46.40879767297225" lon="9.70351885753106"><ele>1798.3333333333335</ele><time>2026-04-11T10:31:09Z</time></trkpt><trkpt lat="46.40867088409679" lon="9.703344583138563"><ele>1798.0</ele><time>2026-04-11T10:31:10Z</time></trkpt><trkpt lat="46.40856367362274" lon="9.703140762415888"><ele>1798.0</ele><time>2026-04-11T10:31:11Z</time></trkpt><trkpt lat="46.4084935842767" lon="9.702910447112576"><ele>1798.0</ele><time>2026-04-11T10:31:12Z</time></trkpt><trkpt lat="46.40844829016268" lon="9.702676201857354"><ele>1798.0</ele><time>2026-04-11T10:31:13Z</time></trkpt><trkpt lat="46.40841010616401" lon="9.702447264622036"><ele>1799.0</ele><time>2026-04-11T10:31:14Z</time></trkpt><trkpt lat="46.40836401485031" lon="9.702226081594095"><ele>1800.0</ele><time>2026-04-11T10:31:15Z</time></trkpt><trkpt lat="46.40831005638771" lon="9.702017667301117"><ele>1801.0</ele><time>2026-04-11T10:31:16Z</time></trkpt><trkpt lat="46.408232188571034" lon="9.70182394163238"><ele>1800.6666666666667</ele><time>2026-04-11T10:31:17Z</time></trkpt><trkpt lat="46.408130697409035" lon="9.70164539714544"><ele>1800.3333333333335</ele><time>2026-04-11T10:31:18Z</time></trkpt><trkpt lat="46.40801797568231" lon="9.701476806850572"><ele>1800.0</ele><time>2026-04-11T10:31:19Z</time></trkpt><trkpt lat="46.40790569338302" lon="9.701307616433299"><ele>1800.0</ele><time>2026-04-11T10:31:20Z</time></trkpt><trkpt lat="46.4077917816726" lon="9.701137526333692"><ele>1800.0</ele><time>2026-04-11T10:31:21Z</time></trkpt><trkpt lat="46.40767623386382" lon="9.700967277672653"><ele>1800.0</ele><time>2026-04-11T10:31:22Z</time></trkpt><trkpt lat="46.4075630674742" lon="9.700792555615964"><ele>1801.6666666666665</ele><time>2026-04-11T10:31:23Z</time></trkpt><trkpt lat="46.407447584419906" lon="9.700617986063653"><ele>1803.3333333333333</ele><time>2026-04-11T10:31:24Z</time></trkpt><trkpt lat="46.40733661746056" lon="9.700439742252296"><ele>1805.0</ele><time>2026-04-11T10:31:25Z</time></trkpt><trkpt lat="46.407229405058985" lon="9.700260637150032"><ele>1804.75</ele><time>2026-04-11T10:31:26Z</time></trkpt><trkpt lat="46.407139539597786" lon="9.700079734005527"><ele>1804.5</ele><time>2026-04-11T10:31:27Z</time></trkpt><trkpt lat="46.40705751750565" lon="9.69990149518663"><ele>1804.25</ele><time>2026-04-11T10:31:28Z</time></trkpt><trkpt lat="46.40697770521305" lon="9.699734415909793"><ele>1804.0</ele><time>2026-04-11T10:31:29Z</time></trkpt><trkpt lat="46.40690225975601" lon="9.699563768040333"><ele>1804.0</ele><time>2026-04-11T10:31:30Z</time></trkpt><trkpt lat="46.40683407978383" lon="9.699381946129373"><ele>1804.0</ele><time>2026-04-11T10:31:31Z</time></trkpt><trkpt lat="46.40677584957263" lon="9.699193056940711"><ele>1804.0</ele><time>2026-04-11T10:31:32Z</time></trkpt><trkpt lat="46.40672387759532" lon="9.698996921133993"><ele>1804.0</ele><time>2026-04-11T10:31:33Z</time></trkpt><trkpt lat="46.40667734760019" lon="9.698799990375681"><ele>1804.0</ele><time>2026-04-11T10:31:34Z</time></trkpt><trkpt lat="46.40663552091357" lon="9.698598045316235"><ele>1804.0</ele><time>2026-04-11T10:31:35Z</time></trkpt><trkpt lat="46.40659999333383" lon="9.698395915588682"><ele>1804.0</ele><time>2026-04-11T10:31:36Z</time></trkpt><trkpt lat="46.40657557275375" lon="9.698200734229777"><ele>1804.0</ele><time>2026-04-11T10:31:37Z</time></trkpt><trkpt lat="46.40654934804944" lon="9.698006704225467"><ele>1804.25</ele><time>2026-04-11T10:31:38Z</time></trkpt><trkpt lat="46.40652028325165" lon="9.697820222363045"><ele>1804.5</ele><time>2026-04-11T10:31:39Z</time></trkpt><trkpt lat="46.40649530751699" lon="9.697635091541855"><ele>1804.75</ele><time>2026-04-11T10:31:40Z</time></trkpt><trkpt lat="46.40647286286733" lon="9.697451287406079"><ele>1805.0</ele><time>2026-04-11T10:31:41Z</time></trkpt><trkpt lat="46.40645424120542" lon="9.697273061747875"><ele>1805.5</ele><time>2026-04-11T10:31:42Z</time></trkpt><trkpt lat="46.406436454830484" lon="9.697103173816002"><ele>1806.0</ele><time>2026-04-11T10:31:43Z</time></trkpt><trkpt lat="46.40640811350185" lon="9.69693826820807"><ele>1806.5</ele><time>2026-04-11T10:31:44Z</time></trkpt><trkpt lat="46.40636805871621" lon="9.696771109652165"><ele>1807.0</ele><time>2026-04-11T10:31:45Z</time></trkpt><trkpt lat="46.406306192083534" lon="9.696614645033371"><ele>1807.0</ele><time>2026-04-11T10:31:46Z</time></trkpt><trkpt lat="46.40622609369292" lon="9.696474759416727"><ele>1807.0</ele><time>2026-04-11T10:31:47Z</time></trkpt><trkpt lat="46.40613591975964" lon="9.696342471806805"><ele>1807.0</ele><time>2026-04-11T10:31:48Z</time></trkpt><trkpt lat="46.406042969216216" lon="9.6962036776237"><ele>1807.0</ele><time>2026-04-11T10:31:49Z</time></trkpt><trkpt lat="46.40594585310951" lon="9.696064002164146"><ele>1808.5</ele><time>2026-04-11T10:31:50Z</time></trkpt><trkpt lat="46.40585148574962" lon="9.695917465397041"><ele>1810.0</ele><time>2026-04-11T10:31:51Z</time></trkpt><trkpt lat="46.40576085179557" lon="9.695775147567709"><ele>1811.5</ele><time>2026-04-11T10:31:52Z</time></trkpt><trkpt lat="46.40567255906588" lon="9.69564591327101"><ele>1813.0</ele><time>2026-04-11T10:31:53Z</time></trkpt><trkpt lat="46.40558814976892" lon="9.69552640302101"><ele>1813.0</ele><time>2026-04-11T10:31:54Z</time></trkpt><trkpt lat="46.40550688670426" lon="9.695409826336896"><ele>1813.0000000000002</ele><time>2026-04-11T10:31:55Z</time></trkpt><trkpt lat="46.40542532833578" lon="9.69530039132189"><ele>1813.0000000000002</ele><time>2026-04-11T10:31:56Z</time></trkpt><trkpt lat="46.40534568619013" lon="9.695203935379782"><ele>1813.0</ele><time>2026-04-11T10:31:57Z</time></trkpt><trkpt lat="46.40525858302667" lon="9.695118530905908"><ele>1813.0</ele><time>2026-04-11T10:31:58Z</time></trkpt><trkpt lat="46.4051638679017" lon="9.695040840667449"><ele>1812.8000000000002</ele><time>2026-04-11T10:31:59Z</time></trkpt><trkpt lat="46.40506376222858" lon="9.694965982589963"><ele>1812.6000000000001</ele><time>2026-04-11T10:32:00Z</time></trkpt><trkpt lat="46.404965616393284" lon="9.694895388193638"><ele>1812.3999999999999</ele><time>2026-04-11T10:32:01Z</time></trkpt><trkpt lat="46.4048699588887" lon="9.694831179864469"><ele>1812.1999999999998</ele><time>2026-04-11T10:32:02Z</time></trkpt><trkpt lat="46.40477741266826" lon="9.69476984781506"><ele>1812.0</ele><time>2026-04-11T10:32:03Z</time></trkpt><trkpt lat="46.40468052016436" lon="9.694726679126598"><ele>1811.8</ele><time>2026-04-11T10:32:04Z</time></trkpt><trkpt lat="46.404577884574955" lon="9.694697454674694"><ele>1811.6</ele><time>2026-04-11T10:32:05Z</time></trkpt><trkpt lat="46.40447000027803" lon="9.694689238583138"><ele>1811.3999999999999</ele><time>2026-04-11T10:32:06Z</time></trkpt><trkpt lat="46.40436003167864" lon="9.694724163904723"><ele>1811.1999999999998</ele><time>2026-04-11T10:32:07Z</time></trkpt><trkpt lat="46.404266677533904" lon="9.694797187197697"><ele>1811.0</ele><time>2026-04-11T10:32:08Z</time></trkpt><trkpt lat="46.4041865751964" lon="9.694890072465869"><ele>1811.0</ele><time>2026-04-11T10:32:09Z</time></trkpt><trkpt lat="46.40411344158383" lon="9.694989896363484"><ele>1811.0</ele><time>2026-04-11T10:32:10Z</time></trkpt><trkpt lat="46.40404328318191" lon="9.6950814920121"><ele>1811.0</ele><time>2026-04-11T10:32:11Z</time></trkpt><trkpt lat="46.40397209441107" lon="9.695164070427774"><ele>1811.0</ele><time>2026-04-11T10:32:12Z</time></trkpt><trkpt lat="46.40389520096069" lon="9.695249715263056"><ele>1811.0</ele><time>2026-04-11T10:32:13Z</time></trkpt><trkpt lat="46.4038137996061" lon="9.69533488396704"><ele>1811.0</ele><time>2026-04-11T10:32:14Z</time></trkpt><trkpt lat="46.40373122859574" lon="9.695408425662757"><ele>1811.0</ele><time>2026-04-11T10:32:15Z</time></trkpt><trkpt lat="46.40363852431367" lon="9.695475143559614"><ele>1811.0</ele><time>2026-04-11T10:32:16Z</time></trkpt><trkpt lat="46.40353638218558" lon="9.695533043921557"><ele>1811.0</ele><time>2026-04-11T10:32:17Z</time></trkpt><trkpt lat="46.40342766770392" lon="9.695585146568472"><ele>1811.0</ele><time>2026-04-11T10:32:18Z</time></trkpt><trkpt lat="46.403318521820495" lon="9.695620486153244"><ele>1811.0</ele><time>2026-04-11T10:32:19Z</time></trkpt><trkpt lat="46.403213339788344" lon="9.695637959286715"><ele>1811.0</ele><time>2026-04-11T10:32:20Z</time></trkpt><trkpt lat="46.40311064416075" lon="9.695645275422152"><ele>1811.0</ele><time>2026-04-11T10:32:21Z</time></trkpt><trkpt lat="46.403011235833276" lon="9.695638125835151"><ele>1811.0</ele><time>2026-04-11T10:32:22Z</time></trkpt><trkpt lat="46.4029135876626" lon="9.695624396724922"><ele>1811.0</ele><time>2026-04-11T10:32:23Z</time></trkpt><trkpt lat="46.40281424860376" lon="9.695611023590274"><ele>1811.6</ele><time>2026-04-11T10:32:24Z</time></trkpt><trkpt lat="46.40271506667104" lon="9.695600609928356"><ele>1812.1999999999998</ele><time>2026-04-11T10:32:25Z</time></trkpt><trkpt lat="46.4026153116226" lon="9.69559545979571"><ele>1812.8000000000002</ele><time>2026-04-11T10:32:26Z</time></trkpt><trkpt lat="46.40251393026494" lon="9.695599873583005"><ele>1813.4</ele><time>2026-04-11T10:32:27Z</time></trkpt><trkpt lat="46.4024092651787" lon="9.69559661242242"><ele>1814.0</ele><time>2026-04-11T10:32:28Z</time></trkpt><trkpt lat="46.40230485740795" lon="9.69558869310741"><ele>1814.0</ele><time>2026-04-11T10:32:29Z</time></trkpt><trkpt lat="46.40220052913618" lon="9.695581805055687"><ele>1814.0</ele><time>2026-04-11T10:32:30Z</time></trkpt><trkpt lat="46.402099025661315" lon="9.695578312767225"><ele>1814.0</ele><time>2026-04-11T10:32:31Z</time></trkpt><trkpt lat="46.40199853403544" lon="9.695575358326769"><ele>1814.0</ele><time>2026-04-11T10:32:32Z</time></trkpt><trkpt lat="46.401896786694245" lon="9.69556727617502"><ele>1814.0</ele><time>2026-04-11T10:32:33Z</time></trkpt><trkpt lat="46.40179453789297" lon="9.695544557907644"><ele>1814.4</ele><time>2026-04-11T10:32:34Z</time></trkpt><trkpt lat="46.40168950102002" lon="9.695507922088197"><ele>1814.8000000000002</ele><time>2026-04-11T10:32:35Z</time></trkpt><trkpt lat="46.40158636232413" lon="9.695461471976433"><ele>1815.1999999999998</ele><time>2026-04-11T10:32:36Z</time></trkpt><trkpt lat="46.40148970932925" lon="9.6954133754554"><ele>1815.6</ele><time>2026-04-11T10:32:37Z</time></trkpt><trkpt lat="46.401395233412636" lon="9.695364024919371"><ele>1816.0</ele><time>2026-04-11T10:32:38Z</time></trkpt><trkpt lat="46.401299121814915" lon="9.69531543139602"><ele>1816.1999999999998</ele><time>2026-04-11T10:32:39Z</time></trkpt><trkpt lat="46.40120032665662" lon="9.695272932922755"><ele>1816.3999999999999</ele><time>2026-04-11T10:32:40Z</time></trkpt><trkpt lat="46.401099484266965" lon="9.695247546505984"><ele>1816.6</ele><time>2026-04-11T10:32:41Z</time></trkpt><trkpt lat="46.4009952244166" lon="9.695254968054156"><ele>1816.8</ele><time>2026-04-11T10:32:42Z</time></trkpt><trkpt lat="46.400895398873665" lon="9.695294802599385"><ele>1817.0</ele><time>2026-04-11T10:32:43Z</time></trkpt><trkpt lat="46.40080702448282" lon="9.695344817723441"><ele>1817.3999999999999</ele><time>2026-04-11T10:32:44Z</time></trkpt><trkpt lat="46.400723447136606" lon="9.69539630924229"><ele>1817.7999999999997</ele><time>2026-04-11T10:32:45Z</time></trkpt><trkpt lat="46.40063940488867" lon="9.695452314206428"><ele>1818.2</ele><time>2026-04-11T10:32:46Z</time></trkpt><trkpt lat="46.400551505401076" lon="9.69551069945565"><ele>1818.6</ele><time>2026-04-11T10:32:47Z</time></trkpt><trkpt lat="46.400461028783226" lon="9.695568185767524"><ele>1819.0</ele><time>2026-04-11T10:32:48Z</time></trkpt><trkpt lat="46.400371989954856" lon="9.695629396875855"><ele>1819.0</ele><time>2026-04-11T10:32:49Z</time></trkpt><trkpt lat="46.400280965009294" lon="9.695689554855285"><ele>1819.0</ele><time>2026-04-11T10:32:50Z</time></trkpt><trkpt lat="46.400188275277316" lon="9.695740683813964"><ele>1819.0</ele><time>2026-04-11T10:32:51Z</time></trkpt><trkpt lat="46.400097412498496" lon="9.69578031967753"><ele>1819.0</ele><time>2026-04-11T10:32:52Z</time></trkpt><trkpt lat="46.40000503409845" lon="9.695790442567844"><ele>1819.0</ele><time>2026-04-11T10:32:53Z</time></trkpt><trkpt lat="46.39991276599576" lon="9.69576497251152"><ele>1819.0</ele><time>2026-04-11T10:32:54Z</time></trkpt><trkpt lat="46.3998254164875" lon="9.695700469804773"><ele>1819.0</ele><time>2026-04-11T10:32:55Z</time></trkpt><trkpt lat="46.3997361944105" lon="9.695632363923217"><ele>1819.0</ele><time>2026-04-11T10:32:56Z</time></trkpt><trkpt lat="46.39964502044886" lon="9.695555169352176"><ele>1819.0</ele><time>2026-04-11T10:32:57Z</time></trkpt><trkpt lat="46.399549728929166" lon="9.695476032616476"><ele>1819.0</ele><time>2026-04-11T10:32:58Z</time></trkpt><trkpt lat="46.39945251995742" lon="9.695388310249252"><ele>1818.5</ele><time>2026-04-11T10:32:59Z</time></trkpt><trkpt lat="46.39935050111912" lon="9.695293555362992"><ele>1818.0</ele><time>2026-04-11T10:33:00Z</time></trkpt><trkpt lat="46.39924008649128" lon="9.695204867288025"><ele>1817.5</ele><time>2026-04-11T10:33:01Z</time></trkpt><trkpt lat="46.399127824027445" lon="9.695113617740509"><ele>1817.0</ele><time>2026-04-11T10:33:02Z</time></trkpt><trkpt lat="46.39901800335179" lon="9.695012155679429"><ele>1817.0</ele><time>2026-04-11T10:33:03Z</time></trkpt><trkpt lat="46.39890334622756" lon="9.69491206619289"><ele>1817.0</ele><time>2026-04-11T10:33:04Z</time></trkpt><trkpt lat="46.398783381220454" lon="9.694825799320428"><ele>1817.0</ele><time>2026-04-11T10:33:05Z</time></trkpt><trkpt lat="46.3986514251487" lon="9.694757697633257"><ele>1817.0</ele><time>2026-04-11T10:33:06Z</time></trkpt><trkpt lat="46.39851423137678" lon="9.694711672664566"><ele>1815.75</ele><time>2026-04-11T10:33:07Z</time></trkpt><trkpt lat="46.398385604930226" lon="9.694685944273827"><ele>1814.5</ele><time>2026-04-11T10:33:08Z</time></trkpt><trkpt lat="46.39824741372151" lon="9.694782123788276"><ele>1813.25</ele><time>2026-04-11T10:33:09Z</time></trkpt><trkpt lat="46.398122072822424" lon="9.694844496859785"><ele>1812.0</ele><time>2026-04-11T10:33:10Z</time></trkpt><trkpt lat="46.398004492371406" lon="9.694869954979236"><ele>1811.0</ele><time>2026-04-11T10:33:11Z</time></trkpt><trkpt lat="46.39790173491165" lon="9.694902730410009"><ele>1809.9999999999998</ele><time>2026-04-11T10:33:12Z</time></trkpt><trkpt lat="46.39780886197706" lon="9.694901556945327"><ele>1808.9999999999998</ele><time>2026-04-11T10:33:13Z</time></trkpt><trkpt lat="46.397715591933625" lon="9.694871117729024"><ele>1808.0</ele><time>2026-04-11T10:33:14Z</time></trkpt><trkpt lat="46.39762158454443" lon="9.694864433527714"><ele>1807.0</ele><time>2026-04-11T10:33:15Z</time></trkpt><trkpt lat="46.39752408582375" lon="9.694841163183904"><ele>1807.0</ele><time>2026-04-11T10:33:16Z</time></trkpt><trkpt lat="46.39742458161438" lon="9.694818302586082"><ele>1806.9999999999998</ele><time>2026-04-11T10:33:17Z</time></trkpt><trkpt lat="46.39732327727299" lon="9.694786491654114"><ele>1806.9999999999998</ele><time>2026-04-11T10:33:18Z</time></trkpt><trkpt lat="46.39721667360731" lon="9.694756479257089"><ele>1807.0</ele><time>2026-04-11T10:33:19Z</time></trkpt><trkpt lat="46.39709937961871" lon="9.694721985494798"><ele>1807.0</ele><time>2026-04-11T10:33:20Z</time></trkpt><trkpt lat="46.39697145861245" lon="9.69468588005808"><ele>1805.5</ele><time>2026-04-11T10:33:21Z</time></trkpt><trkpt lat="46.396831858008674" lon="9.69465407770327"><ele>1804.0</ele><time>2026-04-11T10:33:22Z</time></trkpt><trkpt lat="46.39668201015047" lon="9.694627043946202"><ele>1802.5</ele><time>2026-04-11T10:33:23Z</time></trkpt><trkpt lat="46.39652846613918" lon="9.694661367748754"><ele>1801.0</ele><time>2026-04-11T10:33:24Z</time></trkpt><trkpt lat="46.39638394847986" lon="9.694734286737212"><ele>1800.4</ele><time>2026-04-11T10:33:25Z</time></trkpt><trkpt lat="46.396256830684216" lon="9.694805401546432"><ele>1799.8</ele><time>2026-04-11T10:33:26Z</time></trkpt><trkpt lat="46.396149748681395" lon="9.69486150495452"><ele>1799.2000000000003</ele><time>2026-04-11T10:33:27Z</time></trkpt><trkpt lat="46.39606301005679" lon="9.6948884057827"><ele>1798.6000000000001</ele><time>2026-04-11T10:33:28Z</time></trkpt><trkpt lat="46.39598881923541" lon="9.69486334035323"><ele>1798.0</ele><time>2026-04-11T10:33:29Z</time></trkpt><trkpt lat="46.39591594974726" lon="9.694698348825845"><ele>1798.0</ele><time>2026-04-11T10:33:31Z</time></trkpt><trkpt lat="46.39590637832258" lon="9.694594231537579"><ele>1798.0000000000002</ele><time>2026-04-11T10:33:32Z</time></trkpt><trkpt lat="46.39597969818099" lon="9.69445824153982"><ele>1798.0000000000002</ele><time>2026-04-11T10:33:33Z</time></trkpt><trkpt lat="46.39603585839981" lon="9.69435601882343"><ele>1798.0</ele><time>2026-04-11T10:33:34Z</time></trkpt><trkpt lat="46.39608486743992" lon="9.694254857605893"><ele>1798.0</ele><time>2026-04-11T10:33:35Z</time></trkpt><trkpt lat="46.39613255171292" lon="9.694152014786757"><ele>1797.5000000000002</ele><time>2026-04-11T10:33:36Z</time></trkpt><trkpt lat="46.396168873589644" lon="9.694042693933559"><ele>1797.0</ele><time>2026-04-11T10:33:37Z</time></trkpt><trkpt lat="46.39618979970356" lon="9.693938110009768"><ele>1796.5</ele><time>2026-04-11T10:33:38Z</time></trkpt><trkpt lat="46.39618151033003" lon="9.693847423169228"><ele>1796.0</ele><time>2026-04-11T10:33:39Z</time></trkpt><trkpt lat="46.39617076882042" lon="9.693755829388058"><ele>1795.5000000000002</ele><time>2026-04-11T10:33:40Z</time></trkpt><trkpt lat="46.39608786852094" lon="9.693707404437868"><ele>1795.0</ele><time>2026-04-11T10:33:41Z</time></trkpt><trkpt lat="46.396005482261344" lon="9.693687526243444"><ele>1795.0</ele><time>2026-04-11T10:33:42Z</time></trkpt><trkpt lat="46.39592738941723" lon="9.69369011547539"><ele>1795.0</ele><time>2026-04-11T10:33:43Z</time></trkpt><trkpt lat="46.39582318423492" lon="9.693659515582045"><ele>1795.0</ele><time>2026-04-11T10:33:45Z</time></trkpt><trkpt lat="46.395761207556966" lon="9.6936246844055"><ele>1795.0</ele><time>2026-04-11T10:33:47Z</time></trkpt><trkpt lat="46.39575140506344" lon="9.69351417337071"><ele>1795.0</ele><time>2026-04-11T10:33:49Z</time></trkpt><trkpt lat="46.39587206529628" lon="9.693470581703904"><ele>1792.3333333333335</ele><time>2026-04-11T10:33:51Z</time></trkpt><trkpt lat="46.395950721035895" lon="9.693515393152477"><ele>1789.6666666666667</ele><time>2026-04-11T10:33:52Z</time></trkpt><trkpt lat="46.3960254964741" lon="9.693552883576762"><ele>1787.0</ele><time>2026-04-11T10:33:53Z</time></trkpt><trkpt lat="46.39609537349172" lon="9.693573403982533"><ele>1784.3333333333335</ele><time>2026-04-11T10:33:54Z</time></trkpt><trkpt lat="46.39617751846237" lon="9.693571342750646"><ele>1781.6666666666667</ele><time>2026-04-11T10:33:56Z</time></trkpt><trkpt lat="46.39623729108152" lon="9.693453030273023"><ele>1779.0</ele><time>2026-04-11T10:33:58Z</time></trkpt><trkpt lat="46.39620332225957" lon="9.693361836609341"><ele>1779.0</ele><time>2026-04-11T10:33:59Z</time></trkpt><trkpt lat="46.39613516622085" lon="9.693301671408966"><ele>1779.0</ele><time>2026-04-11T10:34:00Z</time></trkpt><trkpt lat="46.396028708133606" lon="9.693321216550396"><ele>1779.0</ele><time>2026-04-11T10:34:01Z</time></trkpt><trkpt lat="46.39595299285816" lon="9.693306104465497"><ele>1779.0</ele><time>2026-04-11T10:34:02Z</time></trkpt><trkpt lat="46.3958878013127" lon="9.693271692347315"><ele>1779.0</ele><time>2026-04-11T10:34:03Z</time></trkpt><trkpt lat="46.39583955132181" lon="9.693201489626011"><ele>1779.0</ele><time>2026-04-11T10:34:04Z</time></trkpt><trkpt lat="46.39582039685691" lon="9.693107381512302"><ele>1779.0</ele><time>2026-04-11T10:34:05Z</time></trkpt><trkpt lat="46.395836339536906" lon="9.693007538701618"><ele>1779.0</ele><time>2026-04-11T10:34:06Z</time></trkpt><trkpt lat="46.39581135911217" lon="9.692917772439314"><ele>1779.0</ele><time>2026-04-11T10:34:07Z</time></trkpt><trkpt lat="46.395782447042016" lon="9.692834268521182"><ele>1779.0</ele><time>2026-04-11T10:34:08Z</time></trkpt><trkpt lat="46.39572839380206" lon="9.692779394382145"><ele>1779.0</ele><time>2026-04-11T10:34:09Z</time></trkpt><trkpt lat="46.395648664725904" lon="9.692747231559357"><ele>1779.0</ele><time>2026-04-11T10:34:10Z</time></trkpt><trkpt lat="46.395539741387246" lon="9.692749549589676"><ele>1776.0</ele><time>2026-04-11T10:34:11Z</time></trkpt><trkpt lat="46.39541197648984" lon="9.692712435080288"><ele>1773.0</ele><time>2026-04-11T10:34:12Z</time></trkpt><trkpt lat="46.395267331126284" lon="9.692674735524198"><ele>1770.0</ele><time>2026-04-11T10:34:13Z</time></trkpt><trkpt lat="46.3951326454425" lon="9.69262224036728"><ele>1767.0</ele><time>2026-04-11T10:34:14Z</time></trkpt><trkpt lat="46.39501909958982" lon="9.69253261122856"><ele>1767.0</ele><time>2026-04-11T10:34:15Z</time></trkpt><trkpt lat="46.39493204802055" lon="9.692413936482904"><ele>1766.9999999999998</ele><time>2026-04-11T10:34:16Z</time></trkpt><trkpt lat="46.39485779303439" lon="9.692314796428676"><ele>1766.9999999999998</ele><time>2026-04-11T10:34:17Z</time></trkpt><trkpt lat="46.394795354915345" lon="9.692235769850237"><ele>1767.0</ele><time>2026-04-11T10:34:18Z</time></trkpt><trkpt lat="46.39472884332139" lon="9.692117098104717"><ele>1767.0</ele><time>2026-04-11T10:34:20Z</time></trkpt><trkpt lat="46.39475494997466" lon="9.69203119419031"><ele>1767.0</ele><time>2026-04-11T10:34:22Z</time></trkpt><trkpt lat="46.39483955820849" lon="9.692031499160732"><ele>1767.0</ele><time>2026-04-11T10:34:24Z</time></trkpt><trkpt lat="46.39489286408138" lon="9.692109102845267"><ele>1767.0</ele><time>2026-04-11T10:34:25Z</time></trkpt><trkpt lat="46.39493778556893" lon="9.692193409049024"><ele>1767.0</ele><time>2026-04-11T10:34:26Z</time></trkpt><trkpt lat="46.39503638000336" lon="9.692276701502966"><ele>1767.0</ele><time>2026-04-11T10:34:28Z</time></trkpt><trkpt lat="46.39511909042061" lon="9.692205726025342"><ele>1767.0</ele><time>2026-04-11T10:34:30Z</time></trkpt><trkpt lat="46.395113261750154" lon="9.692110491687487"><ele>1767.0</ele><time>2026-04-11T10:34:31Z</time></trkpt><trkpt lat="46.39509432860516" lon="9.69201778289367"><ele>1767.0</ele><time>2026-04-11T10:34:32Z</time></trkpt><trkpt lat="46.39501600213358" lon="9.691949060830048"><ele>1767.0</ele><time>2026-04-11T10:34:33Z</time></trkpt><trkpt lat="46.39493456287901" lon="9.69191737033239"><ele>1767.0</ele><time>2026-04-11T10:34:34Z</time></trkpt><trkpt lat="46.39484860470536" lon="9.691871819360477"><ele>1767.0</ele><time>2026-04-11T10:34:35Z</time></trkpt><trkpt lat="46.394753234014985" lon="9.69181920057686"><ele>1767.0</ele><time>2026-04-11T10:34:36Z</time></trkpt><trkpt lat="46.39466804841561" lon="9.691752826740503"><ele>1769.1999999999998</ele><time>2026-04-11T10:34:37Z</time></trkpt><trkpt lat="46.3945948269795" lon="9.691673675243038"><ele>1771.3999999999999</ele><time>2026-04-11T10:34:38Z</time></trkpt><trkpt lat="46.39453105029356" lon="9.691572308893582"><ele>1773.6000000000001</ele><time>2026-04-11T10:34:39Z</time></trkpt><trkpt lat="46.3945114113123" lon="9.69142171854695"><ele>1775.8000000000002</ele><time>2026-04-11T10:34:40Z</time></trkpt><trkpt lat="46.39447951940006" lon="9.691276984348606"><ele>1778.0</ele><time>2026-04-11T10:34:41Z</time></trkpt><trkpt lat="46.39444902877715" lon="9.69113887621019"><ele>1775.0</ele><time>2026-04-11T10:34:42Z</time></trkpt><trkpt lat="46.39444253742981" lon="9.691005679125423"><ele>1772.0000000000002</ele><time>2026-04-11T10:34:43Z</time></trkpt><trkpt lat="46.39445462612208" lon="9.690867792523544"><ele>1769.0000000000002</ele><time>2026-04-11T10:34:44Z</time></trkpt><trkpt lat="46.394491241289366" lon="9.690734297403104"><ele>1766.0</ele><time>2026-04-11T10:34:45Z</time></trkpt><trkpt lat="46.39451589231597" lon="9.690607758025557"><ele>1763.0</ele><time>2026-04-11T10:34:46Z</time></trkpt><trkpt lat="46.394527487666814" lon="9.690494378215597"><ele>1762.9999999999998</ele><time>2026-04-11T10:34:47Z</time></trkpt><trkpt lat="46.394510756862445" lon="9.69038157195018"><ele>1763.0</ele><time>2026-04-11T10:34:48Z</time></trkpt><trkpt lat="46.394462691286904" lon="9.690304356517304"><ele>1763.0</ele><time>2026-04-11T10:34:49Z</time></trkpt><trkpt lat="46.39447044007084" lon="9.69018686430335"><ele>1763.0</ele><time>2026-04-11T10:34:51Z</time></trkpt><trkpt lat="46.3945390471362" lon="9.690147935138478"><ele>1762.9999999999998</ele><time>2026-04-11T10:34:53Z</time></trkpt><trkpt lat="46.394594029550966" lon="9.690226190460775"><ele>1763.0</ele><time>2026-04-11T10:34:55Z</time></trkpt><trkpt lat="46.39462706456867" lon="9.690408474824114"><ele>1763.0</ele><time>2026-04-11T10:34:57Z</time></trkpt><trkpt lat="46.394633354330246" lon="9.690556880286637"><ele>1763.0000000000002</ele><time>2026-04-11T10:34:58Z</time></trkpt><trkpt lat="46.394613748783655" lon="9.690693060030483"><ele>1763.0000000000002</ele><time>2026-04-11T10:34:59Z</time></trkpt><trkpt lat="46.39458754624089" lon="9.69081836066875"><ele>1763.0</ele><time>2026-04-11T10:35:00Z</time></trkpt><trkpt lat="46.39460276492759" lon="9.690961180594458"><ele>1763.0</ele><time>2026-04-11T10:35:01Z</time></trkpt><trkpt lat="46.39464625265939" lon="9.691105894952843"><ele>1759.4999999999998</ele><time>2026-04-11T10:35:02Z</time></trkpt><trkpt lat="46.39468632123322" lon="9.691219550268364"><ele>1756.0</ele><time>2026-04-11T10:35:03Z</time></trkpt><trkpt lat="46.39471634867919" lon="9.69130727533951"><ele>1752.5</ele><time>2026-04-11T10:35:04Z</time></trkpt><trkpt lat="46.39474020715394" lon="9.69139720676666"><ele>1749.0</ele><time>2026-04-11T10:35:05Z</time></trkpt><trkpt lat="46.39478002272959" lon="9.69146981976314"><ele>1745.4999999999998</ele><time>2026-04-11T10:35:06Z</time></trkpt><trkpt lat="46.394883717789774" lon="9.691477096795882"><ele>1742.0</ele><time>2026-04-11T10:35:08Z</time></trkpt><trkpt lat="46.39492341908994" lon="9.691312085897863"><ele>1741.9999999999998</ele><time>2026-04-11T10:35:10Z</time></trkpt><trkpt lat="46.39488699628605" lon="9.691223347261051"><ele>1742.0</ele><time>2026-04-11T10:35:11Z</time></trkpt><trkpt lat="46.394820602610366" lon="9.691170186013373"><ele>1742.0</ele><time>2026-04-11T10:35:12Z</time></trkpt><trkpt lat="46.39476743255001" lon="9.691092095489518"><ele>1742.0</ele><time>2026-04-11T10:35:13Z</time></trkpt><trkpt lat="46.394740049926675" lon="9.690987704322396"><ele>1741.9999999999998</ele><time>2026-04-11T10:35:14Z</time></trkpt><trkpt lat="46.39473009023692" lon="9.6908644898303"><ele>1742.0</ele><time>2026-04-11T10:35:15Z</time></trkpt><trkpt lat="46.394776441913784" lon="9.690747853386108"><ele>1738.1666666666665</ele><time>2026-04-11T10:35:16Z</time></trkpt><trkpt lat="46.39480105316131" lon="9.690620519978987"><ele>1734.3333333333333</ele><time>2026-04-11T10:35:17Z</time></trkpt><trkpt lat="46.39480147190141" lon="9.690500025988744"><ele>1730.5</ele><time>2026-04-11T10:35:18Z</time></trkpt><trkpt lat="46.394814178084744" lon="9.690394905141874"><ele>1726.6666666666665</ele><time>2026-04-11T10:35:19Z</time></trkpt><trkpt lat="46.39482389860048" lon="9.690304598832261"><ele>1722.8333333333333</ele><time>2026-04-11T10:35:20Z</time></trkpt><trkpt lat="46.3948634538034" lon="9.690204518378088"><ele>1719.0</ele><time>2026-04-11T10:35:22Z</time></trkpt><trkpt lat="46.39494522608885" lon="9.690232033697338"><ele>1719.0</ele><time>2026-04-11T10:35:25Z</time></trkpt><trkpt lat="46.394940484821966" lon="9.690393512843416"><ele>1719.0</ele><time>2026-04-11T10:35:27Z</time></trkpt><trkpt lat="46.39489908969851" lon="9.690541099732597"><ele>1719.0</ele><time>2026-04-11T10:35:28Z</time></trkpt><trkpt lat="46.39486713812071" lon="9.69069047798143"><ele>1719.0</ele><time>2026-04-11T10:35:29Z</time></trkpt><trkpt lat="46.394865885536696" lon="9.69084747579902"><ele>1719.0</ele><time>2026-04-11T10:35:30Z</time></trkpt><trkpt lat="46.394918074680824" lon="9.69098059466178"><ele>1726.6666666666665</ele><time>2026-04-11T10:35:31Z</time></trkpt><trkpt lat="46.39500028938758" lon="9.691109531994087"><ele>1734.3333333333333</ele><time>2026-04-11T10:35:32Z</time></trkpt><trkpt lat="46.39515551202996" lon="9.691203473935095"><ele>1742.0</ele><time>2026-04-11T10:35:33Z</time></trkpt><trkpt lat="46.39531868272336" lon="9.6913355184047"><ele>1742.0</ele><time>2026-04-11T10:35:34Z</time></trkpt><trkpt lat="46.395483732875846" lon="9.691471845944804"><ele>1742.0</ele><time>2026-04-11T10:35:35Z</time></trkpt><trkpt lat="46.39562296443626" lon="9.691569201014168"><ele>1742.0</ele><time>2026-04-11T10:35:36Z</time></trkpt><trkpt lat="46.395725719650244" lon="9.691656083952587"><ele>1736.3999999999999</ele><time>2026-04-11T10:35:37Z</time></trkpt><trkpt lat="46.395789465529866" lon="9.691773655841263"><ele>1730.7999999999997</ele><time>2026-04-11T10:35:38Z</time></trkpt><trkpt lat="46.395853460596214" lon="9.691848504015603"><ele>1725.2</ele><time>2026-04-11T10:35:39Z</time></trkpt><trkpt lat="46.395962793193675" lon="9.691867859336375"><ele>1719.6</ele><time>2026-04-11T10:35:41Z</time></trkpt><trkpt lat="46.3960187035151" lon="9.691744360797603"><ele>1714.0</ele><time>2026-04-11T10:35:42Z</time></trkpt><trkpt lat="46.39593220862264" lon="9.691589071341353"><ele>1714.0</ele><time>2026-04-11T10:35:43Z</time></trkpt><trkpt lat="46.39582742397074" lon="9.691492681630068"><ele>1714.0</ele><time>2026-04-11T10:35:44Z</time></trkpt><trkpt lat="46.39573346353112" lon="9.691395840989946"><ele>1714.0</ele><time>2026-04-11T10:35:45Z</time></trkpt><trkpt lat="46.395620480713845" lon="9.691272110706905"><ele>1714.0</ele><time>2026-04-11T10:35:46Z</time></trkpt><trkpt lat="46.39551683578772" lon="9.691101284084084"><ele>1715.6666666666667</ele><time>2026-04-11T10:35:47Z</time></trkpt><trkpt lat="46.39545551127368" lon="9.690878717242887"><ele>1717.3333333333335</ele><time>2026-04-11T10:35:48Z</time></trkpt><trkpt lat="46.39537527339008" lon="9.690682135779841"><ele>1719.0</ele><time>2026-04-11T10:35:49Z</time></trkpt><trkpt lat="46.39535510999004" lon="9.690472360865712"><ele>1719.0</ele><time>2026-04-11T10:35:50Z</time></trkpt><trkpt lat="46.3953612739537" lon="9.690264872917696"><ele>1719.0</ele><time>2026-04-11T10:35:51Z</time></trkpt><trkpt lat="46.39536126093622" lon="9.690052536960312"><ele>1719.0</ele><time>2026-04-11T10:35:52Z</time></trkpt><trkpt lat="46.39535341093568" lon="9.689875700183595"><ele>1719.0</ele><time>2026-04-11T10:35:53Z</time></trkpt><trkpt lat="46.395340365310254" lon="9.689741061565087"><ele>1716.0</ele><time>2026-04-11T10:35:54Z</time></trkpt><trkpt lat="46.39532997934542" lon="9.689635159684062"><ele>1713.0</ele><time>2026-04-11T10:35:55Z</time></trkpt><trkpt lat="46.39533174720147" lon="9.689497153139307"><ele>1710.0</ele><time>2026-04-11T10:35:57Z</time></trkpt><trkpt lat="46.39539223677938" lon="9.689468084223387"><ele>1707.0</ele><time>2026-04-11T10:35:59Z</time></trkpt><trkpt lat="46.395425191700774" lon="9.68966078806209"><ele>1704.0</ele><time>2026-04-11T10:36:01Z</time></trkpt><trkpt lat="46.39543203413201" lon="9.68980622301484"><ele>1704.0</ele><time>2026-04-11T10:36:02Z</time></trkpt><trkpt lat="46.39543712435333" lon="9.689959576168025"><ele>1704.0</ele><time>2026-04-11T10:36:03Z</time></trkpt><trkpt lat="46.39544114299659" lon="9.690168253952056"><ele>1704.0</ele><time>2026-04-11T10:36:04Z</time></trkpt><trkpt lat="46.39548243905132" lon="9.69037467251482"><ele>1704.0</ele><time>2026-04-11T10:36:05Z</time></trkpt><trkpt lat="46.39555926875274" lon="9.690568961823313"><ele>1696.3333333333335</ele><time>2026-04-11T10:36:06Z</time></trkpt><trkpt lat="46.39567221727945" lon="9.690723906047836"><ele>1688.6666666666667</ele><time>2026-04-11T10:36:07Z</time></trkpt><trkpt lat="46.39580839847616" lon="9.690870372088146"><ele>1681.0</ele><time>2026-04-11T10:36:08Z</time></trkpt><trkpt lat="46.395954050315424" lon="9.69100062729824"><ele>1685.3333333333335</ele><time>2026-04-11T10:36:09Z</time></trkpt><trkpt lat="46.39609314861994" lon="9.691128970947403"><ele>1689.6666666666665</ele><time>2026-04-11T10:36:10Z</time></trkpt><trkpt lat="46.39623264056496" lon="9.691282514389108"><ele>1694.0</ele><time>2026-04-11T10:36:11Z</time></trkpt><trkpt lat="46.39640510409204" lon="9.69135987464993"><ele>1694.0</ele><time>2026-04-11T10:36:12Z</time></trkpt><trkpt lat="46.39657398506731" lon="9.691377503460322"><ele>1694.0</ele><time>2026-04-11T10:36:13Z</time></trkpt><trkpt lat="46.39672060236766" lon="9.691395367518883"><ele>1694.0</ele><time>2026-04-11T10:36:14Z</time></trkpt><trkpt lat="46.39684163780191" lon="9.69140622363201"><ele>1694.0</ele><time>2026-04-11T10:36:15Z</time></trkpt><trkpt lat="46.396938924492716" lon="9.691416762370803"><ele>1693.9999999999998</ele><time>2026-04-11T10:36:16Z</time></trkpt><trkpt lat="46.39701209389665" lon="9.691423769883647"><ele>1694.0</ele><time>2026-04-11T10:36:17Z</time></trkpt><trkpt lat="46.39708593882112" lon="9.6914019246093"><ele>1694.0</ele><time>2026-04-11T10:36:18Z</time></trkpt><trkpt lat="46.39712865478851" lon="9.691293240398048"><ele>1694.0</ele><time>2026-04-11T10:36:19Z</time></trkpt><trkpt lat="46.39709446737742" lon="9.69117385525722"><ele>1693.9999999999998</ele><time>2026-04-11T10:36:20Z</time></trkpt><trkpt lat="46.39699234691236" lon="9.691144099924655"><ele>1694.0</ele><time>2026-04-11T10:36:21Z</time></trkpt><trkpt lat="46.39689642064698" lon="9.691174207687975"><ele>1694.0</ele><time>2026-04-11T10:36:22Z</time></trkpt><trkpt lat="46.39678240384615" lon="9.691176606965488"><ele>1694.0</ele><time>2026-04-11T10:36:23Z</time></trkpt><trkpt lat="46.39670368988449" lon="9.691191481304301"><ele>1694.0</ele><time>2026-04-11T10:36:24Z</time></trkpt><trkpt lat="46.39657009669045" lon="9.691154310437149"><ele>1694.0</ele><time>2026-04-11T10:36:25Z</time></trkpt><trkpt lat="46.396432192118276" lon="9.691075114486727"><ele>1689.6666666666665</ele><time>2026-04-11T10:36:26Z</time></trkpt><trkpt lat="46.39631479348947" lon="9.690914619667321"><ele>1685.3333333333335</ele><time>2026-04-11T10:36:27Z</time></trkpt><trkpt lat="46.396188650482536" lon="9.69075232925819"><ele>1681.0</ele><time>2026-04-11T10:36:28Z</time></trkpt><trkpt lat="46.39606667626588" lon="9.690625261811768"><ele>1681.0000000000002</ele><time>2026-04-11T10:36:29Z</time></trkpt><trkpt lat="46.39599752624627" lon="9.690480726045937"><ele>1681.0</ele><time>2026-04-11T10:36:30Z</time></trkpt><trkpt lat="46.395944525902166" lon="9.690381997522389"><ele>1681.0</ele><time>2026-04-11T10:36:31Z</time></trkpt><trkpt lat="46.39591105637855" lon="9.690300247306215"><ele>1681.0</ele><time>2026-04-11T10:36:32Z</time></trkpt><trkpt lat="46.39588986859576" lon="9.690194397579399"><ele>1681.0000000000002</ele><time>2026-04-11T10:36:34Z</time></trkpt><trkpt lat="46.395986450188886" lon="9.69018774694541"><ele>1681.0</ele><time>2026-04-11T10:36:36Z</time></trkpt><trkpt lat="46.39605634531757" lon="9.69036378160873"><ele>1681.0</ele><time>2026-04-11T10:36:38Z</time></trkpt><trkpt lat="46.39612035942891" lon="9.690486444853898"><ele>1681.0</ele><time>2026-04-11T10:36:39Z</time></trkpt><trkpt lat="46.39621870441114" lon="9.690586708503877"><ele>1681.0</ele><time>2026-04-11T10:36:40Z</time></trkpt><trkpt lat="46.39634912817413" lon="9.69066928752445"><ele>1681.0</ele><time>2026-04-11T10:36:41Z</time></trkpt><trkpt lat="46.39649280945546" lon="9.690727211135396"><ele>1673.25</ele><time>2026-04-11T10:36:42Z</time></trkpt><trkpt lat="46.39663974669668" lon="9.69077519958732"><ele>1665.5</ele><time>2026-04-11T10:36:43Z</time></trkpt><trkpt lat="46.39677580285799" lon="9.690810547713294"><ele>1657.75</ele><time>2026-04-11T10:36:44Z</time></trkpt><trkpt lat="46.396898776028706" lon="9.690813953867394"><ele>1650.0</ele><time>2026-04-11T10:36:45Z</time></trkpt><trkpt lat="46.39701053276785" lon="9.690727575655947"><ele>1650.0</ele><time>2026-04-11T10:36:46Z</time></trkpt><trkpt lat="46.39711346634171" lon="9.690570089829983"><ele>1650.0</ele><time>2026-04-11T10:36:47Z</time></trkpt><trkpt lat="46.39723708904767" lon="9.690364992972329"><ele>1650.0</ele><time>2026-04-11T10:36:48Z</time></trkpt><trkpt lat="46.397280532371255" lon="9.690134630618516"><ele>1649.0</ele><time>2026-04-11T10:36:49Z</time></trkpt><trkpt lat="46.39732549956816" lon="9.689888833143032"><ele>1648.0</ele><time>2026-04-11T10:36:50Z</time></trkpt><trkpt lat="46.3974060405474" lon="9.689704838896937"><ele>1647.0</ele><time>2026-04-11T10:36:51Z</time></trkpt><trkpt lat="46.39752092017629" lon="9.689532074908868"><ele>1637.3333333333335</ele><time>2026-04-11T10:36:52Z</time></trkpt><trkpt lat="46.39764794489885" lon="9.689338291361734"><ele>1627.6666666666667</ele><time>2026-04-11T10:36:53Z</time></trkpt><trkpt lat="46.39778241213895" lon="9.689133276537362"><ele>1618.0</ele><time>2026-04-11T10:36:54Z</time></trkpt><trkpt lat="46.39788442352569" lon="9.688888417993903"><ele>1618.0</ele><time>2026-04-11T10:36:55Z</time></trkpt><trkpt lat="46.39797419347449" lon="9.688612036048017"><ele>1618.0</ele><time>2026-04-11T10:36:56Z</time></trkpt><trkpt lat="46.39802760957486" lon="9.688317730707972"><ele>1618.0</ele><time>2026-04-11T10:36:57Z</time></trkpt><trkpt lat="46.398130422517056" lon="9.688078064064443"><ele>1620.6666666666667</ele><time>2026-04-11T10:36:58Z</time></trkpt><trkpt lat="46.398212165080025" lon="9.687879229282574"><ele>1623.3333333333335</ele><time>2026-04-11T10:36:59Z</time></trkpt><trkpt lat="46.39833206328952" lon="9.687708303279434"><ele>1626.0</ele><time>2026-04-11T10:37:00Z</time></trkpt><trkpt lat="46.398486323746695" lon="9.687564623531976"><ele>1625.6666666666665</ele><time>2026-04-11T10:37:01Z</time></trkpt><trkpt lat="46.39863580774308" lon="9.687412486739627"><ele>1625.3333333333333</ele><time>2026-04-11T10:37:02Z</time></trkpt><trkpt lat="46.39876659059466" lon="9.687279383279181"><ele>1625.0</ele><time>2026-04-11T10:37:03Z</time></trkpt><trkpt lat="46.398857114254774" lon="9.68714613638816"><ele>1625.0</ele><time>2026-04-11T10:37:04Z</time></trkpt><trkpt lat="46.3989236533359" lon="9.687045963805925"><ele>1625.0</ele><time>2026-04-11T10:37:05Z</time></trkpt><trkpt lat="46.398938866809374" lon="9.686917742492641"><ele>1625.0</ele><time>2026-04-11T10:37:06Z</time></trkpt><trkpt lat="46.398898300542186" lon="9.68677657325643"><ele>1625.0</ele><time>2026-04-11T10:37:07Z</time></trkpt><trkpt lat="46.398813435948824" lon="9.68666538906329"><ele>1625.0</ele><time>2026-04-11T10:37:08Z</time></trkpt><trkpt lat="46.39870246760245" lon="9.686631783099944"><ele>1616.0</ele><time>2026-04-11T10:37:09Z</time></trkpt><trkpt lat="46.3985899555128" lon="9.686685511071524"><ele>1607.0</ele><time>2026-04-11T10:37:10Z</time></trkpt><trkpt lat="46.39848259242382" lon="9.68682526328486"><ele>1598.0</ele><time>2026-04-11T10:37:11Z</time></trkpt><trkpt lat="46.398368176184306" lon="9.68699030600896"><ele>1589.0</ele><time>2026-04-11T10:37:12Z</time></trkpt><trkpt lat="46.398245578428536" lon="9.6871603530482"><ele>1589.0</ele><time>2026-04-11T10:37:13Z</time></trkpt><trkpt lat="46.398105893854975" lon="9.687332971404961"><ele>1589.0</ele><time>2026-04-11T10:37:14Z</time></trkpt><trkpt lat="46.397943660853485" lon="9.687498685790873"><ele>1589.0</ele><time>2026-04-11T10:37:15Z</time></trkpt><trkpt lat="46.397774270394336" lon="9.68766977599128"><ele>1590.6666666666665</ele><time>2026-04-11T10:37:16Z</time></trkpt><trkpt lat="46.39763120804884" lon="9.687850259054438"><ele>1592.3333333333335</ele><time>2026-04-11T10:37:17Z</time></trkpt><trkpt lat="46.3975096247225" lon="9.688019463144993"><ele>1594.0</ele><time>2026-04-11T10:37:18Z</time></trkpt><trkpt lat="46.3974007396128" lon="9.688158308133945"><ele>1594.0</ele><time>2026-04-11T10:37:19Z</time></trkpt><trkpt lat="46.39729965675097" lon="9.688219261791573"><ele>1594.0</ele><time>2026-04-11T10:37:20Z</time></trkpt><trkpt lat="46.39721836759804" lon="9.688239884937607"><ele>1594.0</ele><time>2026-04-11T10:37:21Z</time></trkpt><trkpt lat="46.39714255914232" lon="9.688168939660372"><ele>1594.0</ele><time>2026-04-11T10:37:22Z</time></trkpt><trkpt lat="46.39706746622626" lon="9.688085681904909"><ele>1594.0</ele><time>2026-04-11T10:37:23Z</time></trkpt><trkpt lat="46.39707515028259" lon="9.687923942325268"><ele>1591.75</ele><time>2026-04-11T10:37:24Z</time></trkpt><trkpt lat="46.39713640344532" lon="9.687796859635668"><ele>1589.5</ele><time>2026-04-11T10:37:25Z</time></trkpt><trkpt lat="46.397227202430074" lon="9.687663455002934"><ele>1587.25</ele><time>2026-04-11T10:37:26Z</time></trkpt><trkpt lat="46.39734112264897" lon="9.68751892322628"><ele>1585.0</ele><time>2026-04-11T10:37:27Z</time></trkpt><trkpt lat="46.39745833349263" lon="9.687344177019432"><ele>1581.6666666666667</ele><time>2026-04-11T10:37:28Z</time></trkpt><trkpt lat="46.39755635619105" lon="9.687125102061175"><ele>1578.3333333333335</ele><time>2026-04-11T10:37:29Z</time></trkpt><trkpt lat="46.39765660210758" lon="9.686884628893283"><ele>1575.0</ele><time>2026-04-11T10:37:30Z</time></trkpt><trkpt lat="46.397726025386426" lon="9.686636481715826"><ele>1573.0</ele><time>2026-04-11T10:37:31Z</time></trkpt><trkpt lat="46.39778382647842" lon="9.686374417722728"><ele>1571.0</ele><time>2026-04-11T10:37:32Z</time></trkpt><trkpt lat="46.39786096473811" lon="9.686109137200123"><ele>1569.0</ele><time>2026-04-11T10:37:33Z</time></trkpt><trkpt lat="46.397966418082724" lon="9.685867638903492"><ele>1570.6666666666665</ele><time>2026-04-11T10:37:34Z</time></trkpt><trkpt lat="46.39809509599306" lon="9.685645246680405"><ele>1572.3333333333333</ele><time>2026-04-11T10:37:35Z</time></trkpt><trkpt lat="46.39822225685844" lon="9.685436845651724"><ele>1574.0</ele><time>2026-04-11T10:37:36Z</time></trkpt><trkpt lat="46.39833708662892" lon="9.685231006836172"><ele>1569.6666666666665</ele><time>2026-04-11T10:37:37Z</time></trkpt><trkpt lat="46.39843683880378" lon="9.68500883544614"><ele>1565.3333333333335</ele><time>2026-04-11T10:37:38Z</time></trkpt><trkpt lat="46.39851787284106" lon="9.684766563610536"><ele>1561.0</ele><time>2026-04-11T10:37:39Z</time></trkpt><trkpt lat="46.39858275743843" lon="9.6845111602143"><ele>1561.0</ele><time>2026-04-11T10:37:40Z</time></trkpt><trkpt lat="46.39862695637859" lon="9.68426095845272"><ele>1561.0</ele><time>2026-04-11T10:37:41Z</time></trkpt><trkpt lat="46.398656617611515" lon="9.684026577525332"><ele>1561.0</ele><time>2026-04-11T10:37:42Z</time></trkpt><trkpt lat="46.39867652837128" lon="9.683793527853236"><ele>1559.6666666666667</ele><time>2026-04-11T10:37:43Z</time></trkpt><trkpt lat="46.39869378553733" lon="9.683550945052037"><ele>1558.3333333333335</ele><time>2026-04-11T10:37:44Z</time></trkpt><trkpt lat="46.3987062789636" lon="9.683305782035912"><ele>1557.0</ele><time>2026-04-11T10:37:45Z</time></trkpt><trkpt lat="46.39871049920396" lon="9.683055944357292"><ele>1557.0</ele><time>2026-04-11T10:37:46Z</time></trkpt><trkpt lat="46.398700730825205" lon="9.682805544109538"><ele>1557.0</ele><time>2026-04-11T10:37:47Z</time></trkpt><trkpt lat="46.39867470455866" lon="9.682559993327784"><ele>1557.0</ele><time>2026-04-11T10:37:48Z</time></trkpt><trkpt lat="46.39863331964859" lon="9.682313959409484"><ele>1556.6666666666665</ele><time>2026-04-11T10:37:49Z</time></trkpt><trkpt lat="46.39857382739552" lon="9.682072327185944"><ele>1556.3333333333333</ele><time>2026-04-11T10:37:50Z</time></trkpt><trkpt lat="46.39849436255172" lon="9.681841757591597"><ele>1556.0</ele><time>2026-04-11T10:37:51Z</time></trkpt><trkpt lat="46.398400396444686" lon="9.681616415096693"><ele>1557.6666666666665</ele><time>2026-04-11T10:37:52Z</time></trkpt><trkpt lat="46.398300816882625" lon="9.68139966900767"><ele>1559.3333333333335</ele><time>2026-04-11T10:37:53Z</time></trkpt><trkpt lat="46.398198293914675" lon="9.681191765630098"><ele>1561.0</ele><time>2026-04-11T10:37:54Z</time></trkpt><trkpt lat="46.39810160662289" lon="9.68098051200694"><ele>1563.6666666666667</ele><time>2026-04-11T10:37:55Z</time></trkpt><trkpt lat="46.398018738693" lon="9.68074772754998"><ele>1566.3333333333335</ele><time>2026-04-11T10:37:56Z</time></trkpt><trkpt lat="46.397943888697576" lon="9.68050560537704"><ele>1569.0</ele><time>2026-04-11T10:37:57Z</time></trkpt><trkpt lat="46.397871858821276" lon="9.680263241205054"><ele>1563.3333333333335</ele><time>2026-04-11T10:37:58Z</time></trkpt><trkpt lat="46.397800189930514" lon="9.680023504824762"><ele>1557.6666666666667</ele><time>2026-04-11T10:37:59Z</time></trkpt><trkpt lat="46.39772437990943" lon="9.679790533200201"><ele>1552.0</ele><time>2026-04-11T10:38:00Z</time></trkpt><trkpt lat="46.39763090874112" lon="9.679568862182462"><ele>1556.3333333333335</ele><time>2026-04-11T10:38:01Z</time></trkpt><trkpt lat="46.397522453698464" lon="9.679356727876051"><ele>1560.6666666666665</ele><time>2026-04-11T10:38:02Z</time></trkpt><trkpt lat="46.39740352874198" lon="9.67915547456348"><ele>1565.0</ele><time>2026-04-11T10:38:03Z</time></trkpt><trkpt lat="46.39727749186997" lon="9.67896510912415"><ele>1563.6666666666665</ele><time>2026-04-11T10:38:04Z</time></trkpt><trkpt lat="46.39713665892452" lon="9.678790620957608"><ele>1562.3333333333335</ele><time>2026-04-11T10:38:05Z</time></trkpt><trkpt lat="46.396986208721515" lon="9.678627829615667"><ele>1561.0</ele><time>2026-04-11T10:38:06Z</time></trkpt><trkpt lat="46.39682931146626" lon="9.67847645456272"><ele>1561.0</ele><time>2026-04-11T10:38:07Z</time></trkpt><trkpt lat="46.39666744891174" lon="9.678345868859774"><ele>1561.0</ele><time>2026-04-11T10:38:08Z</time></trkpt><trkpt lat="46.39650624775544" lon="9.67822063747962"><ele>1561.0</ele><time>2026-04-11T10:38:09Z</time></trkpt><trkpt lat="46.39635220152852" lon="9.67808318633795"><ele>1559.3333333333335</ele><time>2026-04-11T10:38:10Z</time></trkpt><trkpt lat="46.396208312107" lon="9.677924447589737"><ele>1557.6666666666665</ele><time>2026-04-11T10:38:11Z</time></trkpt><trkpt lat="46.39607201392117" lon="9.677746151093443"><ele>1556.0</ele><time>2026-04-11T10:38:12Z</time></trkpt><trkpt lat="46.395940763464985" lon="9.677561075582567"><ele>1556.0</ele><time>2026-04-11T10:38:13Z</time></trkpt><trkpt lat="46.39581242166539" lon="9.67738757317573"><ele>1556.0</ele><time>2026-04-11T10:38:14Z</time></trkpt><trkpt lat="46.395676938707076" lon="9.677252366430148"><ele>1556.0</ele><time>2026-04-11T10:38:15Z</time></trkpt><trkpt lat="46.395523481183794" lon="9.677160462062945"><ele>1555.0</ele><time>2026-04-11T10:38:15.999Z</time></trkpt><trkpt lat="46.39536340359075" lon="9.677107980312819"><ele>1554.0</ele><time>2026-04-11T10:38:16.999Z</time></trkpt><trkpt lat="46.395204844307834" lon="9.677075421173061"><ele>1553.0</ele><time>2026-04-11T10:38:18Z</time></trkpt><trkpt lat="46.39506661886539" lon="9.677035244540958"><ele>1553.0</ele><time>2026-04-11T10:38:19Z</time></trkpt><trkpt lat="46.394947715449646" lon="9.67697842991774"><ele>1553.0</ele><time>2026-04-11T10:38:20Z</time></trkpt><trkpt lat="46.394859026879814" lon="9.676855945309619"><ele>1553.0</ele><time>2026-04-11T10:38:21Z</time></trkpt><trkpt lat="46.394787480429514" lon="9.67669794398746"><ele>1553.0</ele><time>2026-04-11T10:38:22Z</time></trkpt><trkpt lat="46.3947384260043" lon="9.67649249194582"><ele>1554.0</ele><time>2026-04-11T10:38:23Z</time></trkpt><trkpt lat="46.394682043230674" lon="9.676272255594595"><ele>1555.0</ele><time>2026-04-11T10:38:24Z</time></trkpt><trkpt lat="46.3946395866292" lon="9.676031714677029"><ele>1556.0</ele><time>2026-04-11T10:38:25Z</time></trkpt><trkpt lat="46.39457277752995" lon="9.67581260558735"><ele>1555.25</ele><time>2026-04-11T10:38:26Z</time></trkpt><trkpt lat="46.39449299189608" lon="9.675608515972469"><ele>1554.5</ele><time>2026-04-11T10:38:27Z</time></trkpt><trkpt lat="46.39444855012245" lon="9.675401630625947"><ele>1553.75</ele><time>2026-04-11T10:38:28Z</time></trkpt><trkpt lat="46.39443062915485" lon="9.6752031865611"><ele>1553.0</ele><time>2026-04-11T10:38:29Z</time></trkpt><trkpt lat="46.394460131433235" lon="9.674990295284331"><ele>1553.0</ele><time>2026-04-11T10:38:30Z</time></trkpt><trkpt lat="46.394490966911775" lon="9.674746792096709"><ele>1553.0</ele><time>2026-04-11T10:38:31Z</time></trkpt><trkpt lat="46.39449624615195" lon="9.674502535142981"><ele>1553.0</ele><time>2026-04-11T10:38:32Z</time></trkpt><trkpt lat="46.39444854474545" lon="9.674269285933683"><ele>1549.0</ele><time>2026-04-11T10:38:33Z</time></trkpt><trkpt lat="46.39438806084594" lon="9.674028882392523"><ele>1545.0</ele><time>2026-04-11T10:38:34Z</time></trkpt><trkpt lat="46.3943636444381" lon="9.673777919443225"><ele>1541.0</ele><time>2026-04-11T10:38:35Z</time></trkpt><trkpt lat="46.39437817227122" lon="9.67351823484212"><ele>1536.3333333333333</ele><time>2026-04-11T10:38:36Z</time></trkpt><trkpt lat="46.39440219425795" lon="9.673267011835687"><ele>1531.6666666666665</ele><time>2026-04-11T10:38:37Z</time></trkpt><trkpt lat="46.39439586351111" lon="9.67302476117458"><ele>1527.0</ele><time>2026-04-11T10:38:38Z</time></trkpt><trkpt lat="46.39434217595645" lon="9.672801060195528"><ele>1525.0</ele><time>2026-04-11T10:38:39Z</time></trkpt><trkpt lat="46.394274647971855" lon="9.672595045323154"><ele>1523.0</ele><time>2026-04-11T10:38:40Z</time></trkpt><trkpt lat="46.39422398633003" lon="9.672410885613786"><ele>1521.0</ele><time>2026-04-11T10:38:41Z</time></trkpt><trkpt lat="46.39422704017445" lon="9.672221710818276"><ele>1519.0</ele><time>2026-04-11T10:38:42Z</time></trkpt><trkpt lat="46.394248725551364" lon="9.672021925238662"><ele>1517.0</ele><time>2026-04-11T10:38:43Z</time></trkpt><trkpt lat="46.39433034156657" lon="9.671824770753611"><ele>1515.0</ele><time>2026-04-11T10:38:44Z</time></trkpt><trkpt lat="46.39442132791484" lon="9.671633222221056"><ele>1513.0</ele><time>2026-04-11T10:38:45Z</time></trkpt><trkpt lat="46.39450590573153" lon="9.671457349201177"><ele>1513.0</ele><time>2026-04-11T10:38:46Z</time></trkpt><trkpt lat="46.394574314748084" lon="9.671304046892828"><ele>1513.0</ele><time>2026-04-11T10:38:47Z</time></trkpt><trkpt lat="46.394618981719184" lon="9.671166914057533"><ele>1513.0</ele><time>2026-04-11T10:38:48Z</time></trkpt><trkpt lat="46.39461403642224" lon="9.671025088434725"><ele>1513.0</ele><time>2026-04-11T10:38:49Z</time></trkpt><trkpt lat="46.39456047783504" lon="9.670904995618924"><ele>1513.0</ele><time>2026-04-11T10:38:50Z</time></trkpt><trkpt lat="46.39447160149053" lon="9.67083536808165"><ele>1513.0</ele><time>2026-04-11T10:38:51Z</time></trkpt><trkpt lat="46.394363043592634" lon="9.670853301496908"><ele>1513.0</ele><time>2026-04-11T10:38:52Z</time></trkpt><trkpt lat="46.39427394652536" lon="9.670997089455964"><ele>1513.0</ele><time>2026-04-11T10:38:53Z</time></trkpt><trkpt lat="46.39421806522327" lon="9.671181476011405"><ele>1513.0</ele><time>2026-04-11T10:38:54Z</time></trkpt><trkpt lat="46.39417822066169" lon="9.67135485409194"><ele>1513.0</ele><time>2026-04-11T10:38:55Z</time></trkpt><trkpt lat="46.394125225828965" lon="9.67148022841059"><ele>1513.0</ele><time>2026-04-11T10:38:56Z</time></trkpt><trkpt lat="46.39405688121233" lon="9.6715515624545"><ele>1513.0</ele><time>2026-04-11T10:38:57Z</time></trkpt><trkpt lat="46.39397687541014" lon="9.671536437453652"><ele>1513.0</ele><time>2026-04-11T10:38:58Z</time></trkpt><trkpt lat="46.393915443092055" lon="9.67145415148002"><ele>1513.0</ele><time>2026-04-11T10:38:59Z</time></trkpt><trkpt lat="46.393890620588195" lon="9.671312379592283"><ele>1513.0</ele><time>2026-04-11T10:39:00Z</time></trkpt><trkpt lat="46.393925738069896" lon="9.671136001106687"><ele>1513.0</ele><time>2026-04-11T10:39:01Z</time></trkpt><trkpt lat="46.39394249305362" lon="9.670926550683724"><ele>1513.0</ele><time>2026-04-11T10:39:02Z</time></trkpt><trkpt lat="46.39395097644553" lon="9.67070028898955"><ele>1513.0</ele><time>2026-04-11T10:39:03Z</time></trkpt><trkpt lat="46.39392590045506" lon="9.670451183844264"><ele>1511.0</ele><time>2026-04-11T10:39:04Z</time></trkpt><trkpt lat="46.39388479907704" lon="9.670198861565625"><ele>1509.0</ele><time>2026-04-11T10:39:05Z</time></trkpt><trkpt lat="46.393845245745766" lon="9.66994286488697"><ele>1507.0</ele><time>2026-04-11T10:39:06Z</time></trkpt><trkpt lat="46.39380902244346" lon="9.669685387980435"><ele>1498.3333333333333</ele><time>2026-04-11T10:39:07Z</time></trkpt><trkpt lat="46.39376384217096" lon="9.6694305228811"><ele>1489.6666666666667</ele><time>2026-04-11T10:39:08Z</time></trkpt><trkpt lat="46.393697891367616" lon="9.669187146105395"><ele>1481.0</ele><time>2026-04-11T10:39:09Z</time></trkpt><trkpt lat="46.39360869537989" lon="9.66896664607123"><ele>1481.0</ele><time>2026-04-11T10:39:10Z</time></trkpt><trkpt lat="46.39351004272143" lon="9.668785786395938"><ele>1481.0</ele><time>2026-04-11T10:39:11Z</time></trkpt><trkpt lat="46.393413309224954" lon="9.668624522755342"><ele>1481.0</ele><time>2026-04-11T10:39:12Z</time></trkpt><trkpt lat="46.393299467308594" lon="9.668525643583175"><ele>1481.0</ele><time>2026-04-11T10:39:13Z</time></trkpt><trkpt lat="46.39319576465555" lon="9.668419730548164"><ele>1481.5</ele><time>2026-04-11T10:39:14Z</time></trkpt><trkpt lat="46.3930935237266" lon="9.668317262144258"><ele>1482.0</ele><time>2026-04-11T10:39:15Z</time></trkpt><trkpt lat="46.392990483546285" lon="9.668202225693715"><ele>1482.5</ele><time>2026-04-11T10:39:16Z</time></trkpt><trkpt lat="46.3928894441745" lon="9.668080550816564"><ele>1483.0</ele><time>2026-04-11T10:39:17Z</time></trkpt><trkpt lat="46.392794120082456" lon="9.6679684561036"><ele>1480.5</ele><time>2026-04-11T10:39:18Z</time></trkpt><trkpt lat="46.39270047772402" lon="9.667858873400762"><ele>1478.0</ele><time>2026-04-11T10:39:19Z</time></trkpt><trkpt lat="46.39260454053238" lon="9.66775619298899"><ele>1475.5</ele><time>2026-04-11T10:39:20Z</time></trkpt><trkpt lat="46.39250703012036" lon="9.667653198862764"><ele>1473.0</ele><time>2026-04-11T10:39:21Z</time></trkpt><trkpt lat="46.392410918879364" lon="9.667551028696566"><ele>1472.25</ele><time>2026-04-11T10:39:22Z</time></trkpt><trkpt lat="46.39231570487386" lon="9.667448401693056"><ele>1471.5</ele><time>2026-04-11T10:39:23Z</time></trkpt><trkpt lat="46.39222267608484" lon="9.667344842200155"><ele>1470.75</ele><time>2026-04-11T10:39:24Z</time></trkpt><trkpt lat="46.39213171340574" lon="9.667241167208307"><ele>1470.0</ele><time>2026-04-11T10:39:25Z</time></trkpt><trkpt lat="46.39204050371314" lon="9.667139453765401"><ele>1470.0</ele><time>2026-04-11T10:39:26Z</time></trkpt><trkpt lat="46.391948747186674" lon="9.667040161690366"><ele>1470.0</ele><time>2026-04-11T10:39:27Z</time></trkpt><trkpt lat="46.39185853626549" lon="9.666942781215976"><ele>1470.0</ele><time>2026-04-11T10:39:28Z</time></trkpt><trkpt lat="46.3917679397255" lon="9.666845696966499"><ele>1470.0</ele><time>2026-04-11T10:39:29Z</time></trkpt><trkpt lat="46.39167449820372" lon="9.666755998461701"><ele>1468.8</ele><time>2026-04-11T10:39:30Z</time></trkpt><trkpt lat="46.391576874516126" lon="9.666673164705088"><ele>1467.6</ele><time>2026-04-11T10:39:31Z</time></trkpt><trkpt lat="46.39147925456283" lon="9.66659345213145"><ele>1466.4</ele><time>2026-04-11T10:39:32Z</time></trkpt><trkpt lat="46.39138163614158" lon="9.66651516869731"><ele>1465.2</ele><time>2026-04-11T10:39:33Z</time></trkpt><trkpt lat="46.39128454004773" lon="9.666437788680303"><ele>1464.0</ele><time>2026-04-11T10:39:34Z</time></trkpt><trkpt lat="46.3911850796475" lon="9.666365225152676"><ele>1464.0</ele><time>2026-04-11T10:39:35Z</time></trkpt><trkpt lat="46.391093453206956" lon="9.666286629282252"><ele>1464.0</ele><time>2026-04-11T10:39:36Z</time></trkpt><trkpt lat="46.390999963839974" lon="9.666214722382277"><ele>1464.0</ele><time>2026-04-11T10:39:37Z</time></trkpt><trkpt lat="46.390907573502005" lon="9.666145458798683"><ele>1464.0</ele><time>2026-04-11T10:39:38Z</time></trkpt><trkpt lat="46.39082046537246" lon="9.6660672672171"><ele>1464.0</ele><time>2026-04-11T10:39:39Z</time></trkpt><trkpt lat="46.39074467900731" lon="9.66596291692534"><ele>1464.0</ele><time>2026-04-11T10:39:40Z</time></trkpt><trkpt lat="46.39065770558832" lon="9.665869647758795"><ele>1464.0</ele><time>2026-04-11T10:39:41Z</time></trkpt><trkpt lat="46.390571186828964" lon="9.665776681818276"><ele>1464.0</ele><time>2026-04-11T10:39:42Z</time></trkpt><trkpt lat="46.39047855435869" lon="9.665684234207648"><ele>1464.0</ele><time>2026-04-11T10:39:43Z</time></trkpt><trkpt lat="46.39038353145672" lon="9.66559941186101"><ele>1464.0</ele><time>2026-04-11T10:39:44Z</time></trkpt><trkpt lat="46.39028190016352" lon="9.66551967918578"><ele>1463.25</ele><time>2026-04-11T10:39:45Z</time></trkpt><trkpt lat="46.39017018404862" lon="9.665448427344362"><ele>1462.5</ele><time>2026-04-11T10:39:46Z</time></trkpt><trkpt lat="46.390049461665654" lon="9.665385248698655"><ele>1461.75</ele><time>2026-04-11T10:39:47Z</time></trkpt><trkpt lat="46.389922351868" lon="9.665315843237506"><ele>1461.0</ele><time>2026-04-11T10:39:48Z</time></trkpt><trkpt lat="46.38979269821842" lon="9.665242976947088"><ele>1459.75</ele><time>2026-04-11T10:39:49Z</time></trkpt><trkpt lat="46.38965549399218" lon="9.665169387841042"><ele>1458.5</ele><time>2026-04-11T10:39:50Z</time></trkpt><trkpt lat="46.38951328733813" lon="9.66510005810306"><ele>1457.25</ele><time>2026-04-11T10:39:51Z</time></trkpt><trkpt lat="46.38936882372217" lon="9.665028322597008"><ele>1456.0</ele><time>2026-04-11T10:39:52Z</time></trkpt><trkpt lat="46.38922073793601" lon="9.664949405844322"><ele>1456.0</ele><time>2026-04-11T10:39:53Z</time></trkpt><trkpt lat="46.389070472544546" lon="9.66487409534225"><ele>1456.0</ele><time>2026-04-11T10:39:54Z</time></trkpt><trkpt lat="46.38891941366777" lon="9.664796471727858"><ele>1456.0</ele><time>2026-04-11T10:39:55Z</time></trkpt><trkpt lat="46.38876354695842" lon="9.664721977099848"><ele>1456.0</ele><time>2026-04-11T10:39:56Z</time></trkpt><trkpt lat="46.38859806298809" lon="9.664620280866943"><ele>1456.0</ele><time>2026-04-11T10:39:57Z</time></trkpt><trkpt lat="46.38842212963068" lon="9.664529603868097"><ele>1456.0</ele><time>2026-04-11T10:39:58Z</time></trkpt><trkpt lat="46.388236833974986" lon="9.664448579133417"><ele>1455.6666666666665</ele><time>2026-04-11T10:39:59Z</time></trkpt><trkpt lat="46.38804930218094" lon="9.66435358955153"><ele>1455.3333333333333</ele><time>2026-04-11T10:40:00Z</time></trkpt><trkpt lat="46.38785843781184" lon="9.66425143555878"><ele>1455.0</ele><time>2026-04-11T10:40:01Z</time></trkpt><trkpt lat="46.38766586806641" lon="9.664153103449314"><ele>1453.6666666666667</ele><time>2026-04-11T10:40:02Z</time></trkpt><trkpt lat="46.38747121834615" lon="9.66405316658963"><ele>1452.3333333333335</ele><time>2026-04-11T10:40:03Z</time></trkpt><trkpt lat="46.38727423539664" lon="9.663957564578121"><ele>1451.0</ele><time>2026-04-11T10:40:04Z</time></trkpt><trkpt lat="46.387082280252244" lon="9.663860715121606"><ele>1451.0</ele><time>2026-04-11T10:40:05Z</time></trkpt><trkpt lat="46.38689381806955" lon="9.663757428281542"><ele>1451.0</ele><time>2026-04-11T10:40:06Z</time></trkpt><trkpt lat="46.386707503151975" lon="9.663654228846118"><ele>1451.0</ele><time>2026-04-11T10:40:07Z</time></trkpt><trkpt lat="46.386519205929005" lon="9.66355882387249"><ele>1450.3333333333335</ele><time>2026-04-11T10:40:08Z</time></trkpt><trkpt lat="46.38633044290889" lon="9.663462079088882"><ele>1449.6666666666667</ele><time>2026-04-11T10:40:09Z</time></trkpt><trkpt lat="46.386141658718785" lon="9.663363630891613"><ele>1449.0</ele><time>2026-04-11T10:40:10Z</time></trkpt><trkpt lat="46.3859540740463" lon="9.663262930449937"><ele>1449.0</ele><time>2026-04-11T10:40:11Z</time></trkpt><trkpt lat="46.385766663263304" lon="9.663160137937247"><ele>1449.0</ele><time>2026-04-11T10:40:12Z</time></trkpt><trkpt lat="46.38558229457857" lon="9.663048991571614"><ele>1449.0</ele><time>2026-04-11T10:40:13Z</time></trkpt><trkpt lat="46.38538756740726" lon="9.662968871478796"><ele>1448.3333333333333</ele><time>2026-04-11T10:40:14Z</time></trkpt><trkpt lat="46.385200005712704" lon="9.662865464670325"><ele>1447.6666666666665</ele><time>2026-04-11T10:40:15Z</time></trkpt><trkpt lat="46.38501302191245" lon="9.66276497763199"><ele>1447.0</ele><time>2026-04-11T10:40:16Z</time></trkpt><trkpt lat="46.38482379582215" lon="9.662667462742021"><ele>1446.0</ele><time>2026-04-11T10:40:17Z</time></trkpt><trkpt lat="46.38463421067427" lon="9.662572022350917"><ele>1445.0</ele><time>2026-04-11T10:40:17.999Z</time></trkpt><trkpt lat="46.384443963142246" lon="9.662479960608609"><ele>1444.0</ele><time>2026-04-11T10:40:18.999Z</time></trkpt><trkpt lat="46.38425407088809" lon="9.662388772181737"><ele>1444.0</ele><time>2026-04-11T10:40:19.999Z</time></trkpt><trkpt lat="46.38406674001358" lon="9.662289981219311"><ele>1444.0</ele><time>2026-04-11T10:40:20.999Z</time></trkpt><trkpt lat="46.38387984634598" lon="9.662189163884753"><ele>1444.0</ele><time>2026-04-11T10:40:21.999Z</time></trkpt><trkpt lat="46.38369268565666" lon="9.662089901630702"><ele>1444.0</ele><time>2026-04-11T10:40:22.999Z</time></trkpt><trkpt lat="46.38350395744243" lon="9.66199226486423"><ele>1444.0</ele><time>2026-04-11T10:40:24Z</time></trkpt><trkpt lat="46.383315262958305" lon="9.661896646431071"><ele>1444.0</ele><time>2026-04-11T10:40:25Z</time></trkpt><trkpt lat="46.38312784193371" lon="9.661799889581944"><ele>1443.0</ele><time>2026-04-11T10:40:26Z</time></trkpt><trkpt lat="46.382939114434784" lon="9.661701664605271"><ele>1442.0</ele><time>2026-04-11T10:40:27Z</time></trkpt><trkpt lat="46.38275145391729" lon="9.66160104554899"><ele>1441.0</ele><time>2026-04-11T10:40:28Z</time></trkpt><trkpt lat="46.382568575400214" lon="9.661498210937234"><ele>1441.0</ele><time>2026-04-11T10:40:29Z</time></trkpt><trkpt lat="46.38237873560772" lon="9.661400893657044"><ele>1441.0</ele><time>2026-04-11T10:40:30Z</time></trkpt><trkpt lat="46.382190863832164" lon="9.66130880389684"><ele>1441.0</ele><time>2026-04-11T10:40:31Z</time></trkpt><trkpt lat="46.38201031931082" lon="9.661223715047262"><ele>1441.3333333333333</ele><time>2026-04-11T10:40:32Z</time></trkpt><trkpt lat="46.38183442797283" lon="9.661154048715915"><ele>1441.6666666666667</ele><time>2026-04-11T10:40:33Z</time></trkpt><trkpt lat="46.38166400352533" lon="9.661108880186875"><ele>1442.0</ele><time>2026-04-11T10:40:34Z</time></trkpt><trkpt lat="46.381495102520496" lon="9.661079496881845"><ele>1442.6666666666667</ele><time>2026-04-11T10:40:35Z</time></trkpt><trkpt lat="46.38131798717766" lon="9.661052689571159"><ele>1443.3333333333333</ele><time>2026-04-11T10:40:36Z</time></trkpt><trkpt lat="46.38114712180344" lon="9.661034549775565"><ele>1444.0</ele><time>2026-04-11T10:40:37Z</time></trkpt><trkpt lat="46.380979658932574" lon="9.661019386525698"><ele>1444.0</ele><time>2026-04-11T10:40:38Z</time></trkpt><trkpt lat="46.38081365347649" lon="9.660999360129711"><ele>1444.0</ele><time>2026-04-11T10:40:39Z</time></trkpt><trkpt lat="46.38064400282234" lon="9.660982397736666"><ele>1444.0</ele><time>2026-04-11T10:40:40Z</time></trkpt><trkpt lat="46.38047818951435" lon="9.660958636462755"><ele>1442.3333333333333</ele><time>2026-04-11T10:40:41Z</time></trkpt><trkpt lat="46.38031880542516" lon="9.660940340108786"><ele>1440.6666666666667</ele><time>2026-04-11T10:40:42Z</time></trkpt><trkpt lat="46.3801580290391" lon="9.660919431376566"><ele>1439.0</ele><time>2026-04-11T10:40:43Z</time></trkpt><trkpt lat="46.37999636638055" lon="9.66090443936586"><ele>1439.0</ele><time>2026-04-11T10:40:44Z</time></trkpt><trkpt lat="46.379834212917515" lon="9.660886304737046"><ele>1439.0</ele><time>2026-04-11T10:40:45Z</time></trkpt><trkpt lat="46.37967265660036" lon="9.660865835002953"><ele>1439.0</ele><time>2026-04-11T10:40:46Z</time></trkpt><trkpt lat="46.37951580065449" lon="9.660849958882926"><ele>1438.6666666666667</ele><time>2026-04-11T10:40:47Z</time></trkpt><trkpt lat="46.37934886256655" lon="9.660829193039534"><ele>1438.3333333333333</ele><time>2026-04-11T10:40:48Z</time></trkpt><trkpt lat="46.37918645414525" lon="9.66080420651375"><ele>1438.0</ele><time>2026-04-11T10:40:49Z</time></trkpt><trkpt lat="46.379020798722124" lon="9.660787725137164"><ele>1438.0</ele><time>2026-04-11T10:40:50Z</time></trkpt><trkpt lat="46.378852424140234" lon="9.660770461653081"><ele>1438.0</ele><time>2026-04-11T10:40:51Z</time></trkpt><trkpt lat="46.37868646366227" lon="9.660756868041313"><ele>1438.0</ele><time>2026-04-11T10:40:52Z</time></trkpt><trkpt lat="46.37851757858858" lon="9.660732111114424"><ele>1437.3333333333333</ele><time>2026-04-11T10:40:53Z</time></trkpt><trkpt lat="46.37835401371929" lon="9.660709131122555"><ele>1436.6666666666667</ele><time>2026-04-11T10:40:54Z</time></trkpt><trkpt lat="46.37819058597003" lon="9.660689488917093"><ele>1436.0</ele><time>2026-04-11T10:40:55Z</time></trkpt><trkpt lat="46.37802583397845" lon="9.660669011851065"><ele>1436.6666666666667</ele><time>2026-04-11T10:40:56Z</time></trkpt><trkpt lat="46.377862876004976" lon="9.66064719521599"><ele>1437.3333333333333</ele><time>2026-04-11T10:40:57Z</time></trkpt><trkpt lat="46.377701807982916" lon="9.660623187778292"><ele>1438.0</ele><time>2026-04-11T10:40:58Z</time></trkpt><trkpt lat="46.37753964398419" lon="9.660594643031985"><ele>1438.0</ele><time>2026-04-11T10:40:59Z</time></trkpt><trkpt lat="46.37737524252956" lon="9.660569499469387"><ele>1438.0</ele><time>2026-04-11T10:41:00Z</time></trkpt><trkpt lat="46.377214829022215" lon="9.660523122465483"><ele>1438.0</ele><time>2026-04-11T10:41:01Z</time></trkpt><trkpt lat="46.37705948265836" lon="9.660471191992736"><ele>1438.3333333333333</ele><time>2026-04-11T10:41:02Z</time></trkpt><trkpt lat="46.37690125346157" lon="9.660420082434111"><ele>1438.6666666666667</ele><time>2026-04-11T10:41:03Z</time></trkpt><trkpt lat="46.37674850380584" lon="9.660361861171216"><ele>1439.0</ele><time>2026-04-11T10:41:04Z</time></trkpt><trkpt lat="46.37657716625701" lon="9.660308187646022"><ele>1437.0</ele><time>2026-04-11T10:41:05Z</time></trkpt><trkpt lat="46.3763936104302" lon="9.660250398643509"><ele>1435.0</ele><time>2026-04-11T10:41:06Z</time></trkpt><trkpt lat="46.376211572464356" lon="9.660187592211717"><ele>1433.0</ele><time>2026-04-11T10:41:07Z</time></trkpt><trkpt lat="46.37602386050971" lon="9.660130317258178"><ele>1433.0</ele><time>2026-04-11T10:41:08Z</time></trkpt><trkpt lat="46.37583388495018" lon="9.66006079770203"><ele>1433.0</ele><time>2026-04-11T10:41:09Z</time></trkpt><trkpt lat="46.37564495526573" lon="9.659995566499157"><ele>1433.0</ele><time>2026-04-11T10:41:10Z</time></trkpt><trkpt lat="46.37545701095575" lon="9.659929357929448"><ele>1435.3333333333335</ele><time>2026-04-11T10:41:11Z</time></trkpt><trkpt lat="46.37527427478345" lon="9.659862488387262"><ele>1437.6666666666667</ele><time>2026-04-11T10:41:12Z</time></trkpt><trkpt lat="46.37509576086346" lon="9.65978801712148"><ele>1440.0</ele><time>2026-04-11T10:41:13Z</time></trkpt><trkpt lat="46.37491627440059" lon="9.659702797113418"><ele>1440.0</ele><time>2026-04-11T10:41:14Z</time></trkpt><trkpt lat="46.374740633877785" lon="9.659602234449812"><ele>1440.0</ele><time>2026-04-11T10:41:15Z</time></trkpt><trkpt lat="46.374575454963875" lon="9.659496657552786"><ele>1440.0</ele><time>2026-04-11T10:41:16Z</time></trkpt><trkpt lat="46.37440791018039" lon="9.65940030922758"><ele>1438.0</ele><time>2026-04-11T10:41:17Z</time></trkpt><trkpt lat="46.37422670152348" lon="9.659339246306404"><ele>1436.0</ele><time>2026-04-11T10:41:18Z</time></trkpt><trkpt lat="46.374037347837366" lon="9.659319141435626"><ele>1434.0</ele><time>2026-04-11T10:41:19Z</time></trkpt><trkpt lat="46.37384155899329" lon="9.659341202317814"><ele>1433.3333333333333</ele><time>2026-04-11T10:41:20Z</time></trkpt><trkpt lat="46.37364469397747" lon="9.65940223236645"><ele>1432.6666666666665</ele><time>2026-04-11T10:41:21Z</time></trkpt><trkpt lat="46.37345032576813" lon="9.659493357560228"><ele>1432.0</ele><time>2026-04-11T10:41:22Z</time></trkpt><trkpt lat="46.37326079582557" lon="9.659597759487069"><ele>1435.3333333333333</ele><time>2026-04-11T10:41:23Z</time></trkpt><trkpt lat="46.37307661770276" lon="9.659685673910678"><ele>1438.6666666666667</ele><time>2026-04-11T10:41:24Z</time></trkpt><trkpt lat="46.37289521532783" lon="9.659739304147957"><ele>1442.0</ele><time>2026-04-11T10:41:25Z</time></trkpt><trkpt lat="46.37270723254081" lon="9.659750150682722"><ele>1442.0</ele><time>2026-04-11T10:41:26Z</time></trkpt><trkpt lat="46.372515983148524" lon="9.659718992352623"><ele>1442.0</ele><time>2026-04-11T10:41:27Z</time></trkpt><trkpt lat="46.37233064352419" lon="9.659671781960828"><ele>1442.0</ele><time>2026-04-11T10:41:28Z</time></trkpt><trkpt lat="46.37215146771469" lon="9.65963733502492"><ele>1440.0</ele><time>2026-04-11T10:41:29Z</time></trkpt><trkpt lat="46.37197072235819" lon="9.659631955141034"><ele>1438.0</ele><time>2026-04-11T10:41:30Z</time></trkpt><trkpt lat="46.371795209561476" lon="9.65966903013656"><ele>1436.0</ele><time>2026-04-11T10:41:31Z</time></trkpt><trkpt lat="46.37164675699481" lon="9.659700268136685"><ele>1436.0</ele><time>2026-04-11T10:41:32Z</time></trkpt><trkpt lat="46.37150899702356" lon="9.659691443320733"><ele>1436.0</ele><time>2026-04-11T10:41:33Z</time></trkpt><trkpt lat="46.3713624150883" lon="9.659602005133918"><ele>1436.0</ele><time>2026-04-11T10:41:34Z</time></trkpt><trkpt lat="46.371234329824254" lon="9.65940153473854"><ele>1431.0</ele><time>2026-04-11T10:41:35Z</time></trkpt><trkpt lat="46.37108003598894" lon="9.659232724762756"><ele>1426.0</ele><time>2026-04-11T10:41:36Z</time></trkpt><trkpt lat="46.37092810100777" lon="9.65904486974042"><ele>1421.0</ele><time>2026-04-11T10:41:37Z</time></trkpt><trkpt lat="46.37076609782972" lon="9.658877626264518"><ele>1421.0</ele><time>2026-04-11T10:41:38Z</time></trkpt><trkpt lat="46.37060004701635" lon="9.658705355670547"><ele>1421.0</ele><time>2026-04-11T10:41:39Z</time></trkpt><trkpt lat="46.37043092130938" lon="9.658529557609596"><ele>1421.0</ele><time>2026-04-11T10:41:40Z</time></trkpt><trkpt lat="46.37025937022738" lon="9.65838001056527"><ele>1417.6666666666667</ele><time>2026-04-11T10:41:41Z</time></trkpt><trkpt lat="46.370080663025405" lon="9.658252240351654"><ele>1414.3333333333333</ele><time>2026-04-11T10:41:42Z</time></trkpt><trkpt lat="46.36990367031598" lon="9.658136081938506"><ele>1411.0</ele><time>2026-04-11T10:41:43Z</time></trkpt><trkpt lat="46.36972646626601" lon="9.658019336732893"><ele>1408.3333333333333</ele><time>2026-04-11T10:41:44Z</time></trkpt><trkpt lat="46.369547790549724" lon="9.657923190066125"><ele>1405.6666666666667</ele><time>2026-04-11T10:41:45Z</time></trkpt><trkpt lat="46.3693519170243" lon="9.657877570006034"><ele>1403.0</ele><time>2026-04-11T10:41:46Z</time></trkpt><trkpt lat="46.36915613701793" lon="9.65787163097555"><ele>1403.0</ele><time>2026-04-11T10:41:47Z</time></trkpt><trkpt lat="46.368956360191426" lon="9.65783957097198"><ele>1403.0</ele><time>2026-04-11T10:41:48Z</time></trkpt><trkpt lat="46.36876207495053" lon="9.657742928473711"><ele>1403.0</ele><time>2026-04-11T10:41:49Z</time></trkpt><trkpt lat="46.368576565197586" lon="9.657607627775329"><ele>1398.6666666666667</ele><time>2026-04-11T10:41:50Z</time></trkpt><trkpt lat="46.3683881487482" lon="9.657491166721725"><ele>1394.3333333333333</ele><time>2026-04-11T10:41:51Z</time></trkpt><trkpt lat="46.368199968897585" lon="9.657397045572175"><ele>1390.0</ele><time>2026-04-11T10:41:52Z</time></trkpt><trkpt lat="46.36800475130847" lon="9.657323801343694"><ele>1387.6666666666665</ele><time>2026-04-11T10:41:53Z</time></trkpt><trkpt lat="46.36780423976326" lon="9.657270940360021"><ele>1385.3333333333333</ele><time>2026-04-11T10:41:54Z</time></trkpt><trkpt lat="46.36760163476465" lon="9.657240020741849"><ele>1383.0</ele><time>2026-04-11T10:41:55Z</time></trkpt><trkpt lat="46.36739944670375" lon="9.657233373026754"><ele>1383.0</ele><time>2026-04-11T10:41:56Z</time></trkpt><trkpt lat="46.36719895148741" lon="9.657250038652048"><ele>1383.0</ele><time>2026-04-11T10:41:57Z</time></trkpt><trkpt lat="46.36700014745886" lon="9.657273138556128"><ele>1383.0</ele><time>2026-04-11T10:41:58Z</time></trkpt><trkpt lat="46.36680657528575" lon="9.657292030035288"><ele>1381.0</ele><time>2026-04-11T10:41:59Z</time></trkpt><trkpt lat="46.366613793835064" lon="9.657274136964935"><ele>1379.0</ele><time>2026-04-11T10:42:00Z</time></trkpt><trkpt lat="46.36642957380834" lon="9.657200011818363"><ele>1377.0</ele><time>2026-04-11T10:42:01Z</time></trkpt><trkpt lat="46.36625392998336" lon="9.657106303195198"><ele>1376.0</ele><time>2026-04-11T10:42:02Z</time></trkpt><trkpt lat="46.36608247770655" lon="9.657015578451626"><ele>1375.0</ele><time>2026-04-11T10:42:03Z</time></trkpt><trkpt lat="46.365905323598014" lon="9.65693231051123"><ele>1374.0</ele><time>2026-04-11T10:42:04Z</time></trkpt><trkpt lat="46.36573532426976" lon="9.656855349811009"><ele>1372.5</ele><time>2026-04-11T10:42:05Z</time></trkpt><trkpt lat="46.36558654802014" lon="9.656783328863767"><ele>1371.0</ele><time>2026-04-11T10:42:06Z</time></trkpt><trkpt lat="46.36546196583" lon="9.656724528899428"><ele>1369.5</ele><time>2026-04-11T10:42:07Z</time></trkpt><trkpt lat="46.365369233274606" lon="9.656662081778537"><ele>1368.0</ele><time>2026-04-11T10:42:08Z</time></trkpt><trkpt lat="46.36530567890245" lon="9.656561240275353"><ele>1368.0</ele><time>2026-04-11T10:42:09Z</time></trkpt><trkpt lat="46.365289836484244" lon="9.65643306299694"><ele>1368.0</ele><time>2026-04-11T10:42:10Z</time></trkpt><trkpt lat="46.36533135874674" lon="9.656305025140684"><ele>1368.0</ele><time>2026-04-11T10:42:11Z</time></trkpt><trkpt lat="46.36543952575017" lon="9.656212933135363"><ele>1368.0</ele><time>2026-04-11T10:42:12Z</time></trkpt><trkpt lat="46.36555918407" lon="9.656117586761857"><ele>1368.0</ele><time>2026-04-11T10:42:13Z</time></trkpt><trkpt lat="46.365679951341406" lon="9.65597803094603"><ele>1362.3333333333333</ele><time>2026-04-11T10:42:14Z</time></trkpt><trkpt lat="46.36582388648651" lon="9.6558519044417"><ele>1356.6666666666665</ele><time>2026-04-11T10:42:15Z</time></trkpt><trkpt lat="46.36597134605699" lon="9.6557065253685"><ele>1351.0</ele><time>2026-04-11T10:42:16Z</time></trkpt><trkpt lat="46.3661193316764" lon="9.655559718839761"><ele>1351.0</ele><time>2026-04-11T10:42:17Z</time></trkpt><trkpt lat="46.366256974397025" lon="9.65542250385921"><ele>1351.0</ele><time>2026-04-11T10:42:18Z</time></trkpt><trkpt lat="46.366378870926034" lon="9.655269592739451"><ele>1351.0</ele><time>2026-04-11T10:42:18.999Z</time></trkpt><trkpt lat="46.366479304218004" lon="9.655085880256426"><ele>1350.0</ele><time>2026-04-11T10:42:19.999Z</time></trkpt><trkpt lat="46.366571635675086" lon="9.654893189501857"><ele>1349.0</ele><time>2026-04-11T10:42:20.999Z</time></trkpt><trkpt lat="46.36665884771826" lon="9.654708004513065"><ele>1348.0</ele><time>2026-04-11T10:42:21.999Z</time></trkpt><trkpt lat="46.36673125978371" lon="9.654549550822173"><ele>1347.0</ele><time>2026-04-11T10:42:22.999Z</time></trkpt><trkpt lat="46.366783489646146" lon="9.654405077701973"><ele>1344.25</ele><time>2026-04-11T10:42:23.999Z</time></trkpt><trkpt lat="46.366801618012914" lon="9.654247826609499"><ele>1341.5</ele><time>2026-04-11T10:42:24.999Z</time></trkpt><trkpt lat="46.36676843682139" lon="9.654093784068806"><ele>1338.75</ele><time>2026-04-11T10:42:25.999Z</time></trkpt><trkpt lat="46.36667737406118" lon="9.65395765497816"><ele>1336.0</ele><time>2026-04-11T10:42:26.999Z</time></trkpt><trkpt lat="46.36655146330552" lon="9.65385727543864"><ele>1336.0</ele><time>2026-04-11T10:42:27.999Z</time></trkpt><trkpt lat="46.36639845563513" lon="9.653808285100533"><ele>1336.0</ele><time>2026-04-11T10:42:28.999Z</time></trkpt><trkpt lat="46.36622901500176" lon="9.653785551282077"><ele>1336.0</ele><time>2026-04-11T10:42:30Z</time></trkpt><trkpt lat="46.366049866733924" lon="9.653751144985529"><ele>1335.6666666666665</ele><time>2026-04-11T10:42:31Z</time></trkpt><trkpt lat="46.36586019550553" lon="9.653705855779068"><ele>1335.3333333333333</ele><time>2026-04-11T10:42:32Z</time></trkpt><trkpt lat="46.36566225865413" lon="9.653661920595479"><ele>1335.0</ele><time>2026-04-11T10:42:33Z</time></trkpt><trkpt lat="46.365460843570304" lon="9.653617636714433"><ele>1332.0</ele><time>2026-04-11T10:42:34Z</time></trkpt><trkpt lat="46.365260164647836" lon="9.653566277373582"><ele>1329.0</ele><time>2026-04-11T10:42:35Z</time></trkpt><trkpt lat="46.36506301151274" lon="9.653514181463265"><ele>1326.0</ele><time>2026-04-11T10:42:36Z</time></trkpt><trkpt lat="46.36486771980466" lon="9.653468931477827"><ele>1328.0</ele><time>2026-04-11T10:42:37Z</time></trkpt><trkpt lat="46.36467892444998" lon="9.653429547442133"><ele>1330.0</ele><time>2026-04-11T10:42:38Z</time></trkpt><trkpt lat="46.36449264147749" lon="9.653381847153605"><ele>1332.0</ele><time>2026-04-11T10:42:39Z</time></trkpt><trkpt lat="46.36431263538806" lon="9.653313091338722"><ele>1332.0</ele><time>2026-04-11T10:42:40Z</time></trkpt><trkpt lat="46.3641406587889" lon="9.653219618133503"><ele>1332.0</ele><time>2026-04-11T10:42:41Z</time></trkpt><trkpt lat="46.363977210059296" lon="9.653100504172855"><ele>1332.0</ele><time>2026-04-11T10:42:42Z</time></trkpt><trkpt lat="46.36382092780132" lon="9.652950510637027"><ele>1329.6666666666667</ele><time>2026-04-11T10:42:43Z</time></trkpt><trkpt lat="46.36367330161065" lon="9.652767244078353"><ele>1327.3333333333335</ele><time>2026-04-11T10:42:44Z</time></trkpt><trkpt lat="46.363544142103954" lon="9.652559391238734"><ele>1325.0</ele><time>2026-04-11T10:42:45Z</time></trkpt><trkpt lat="46.36343342445766" lon="9.652345147058773"><ele>1325.0</ele><time>2026-04-11T10:42:46Z</time></trkpt><trkpt lat="46.36333110460737" lon="9.652145269954886"><ele>1325.0</ele><time>2026-04-11T10:42:47Z</time></trkpt><trkpt lat="46.363217021350586" lon="9.65197490476426"><ele>1325.0</ele><time>2026-04-11T10:42:48Z</time></trkpt><trkpt lat="46.36309178702776" lon="9.651849357725549"><ele>1324.4</ele><time>2026-04-11T10:42:49Z</time></trkpt><trkpt lat="46.36295830258566" lon="9.651775030311574"><ele>1323.8</ele><time>2026-04-11T10:42:50Z</time></trkpt><trkpt lat="46.36283811259942" lon="9.651747450031063"><ele>1323.1999999999998</ele><time>2026-04-11T10:42:51Z</time></trkpt><trkpt lat="46.362734167011574" lon="9.651727663423065"><ele>1322.6</ele><time>2026-04-11T10:42:52Z</time></trkpt><trkpt lat="46.36266533599509" lon="9.651689211934434"><ele>1322.0</ele><time>2026-04-11T10:42:53Z</time></trkpt><trkpt lat="46.36262827615073" lon="9.651594451382884"><ele>1322.0</ele><time>2026-04-11T10:42:54Z</time></trkpt><trkpt lat="46.36264242751584" lon="9.651465979241133"><ele>1322.0</ele><time>2026-04-11T10:42:55Z</time></trkpt><trkpt lat="46.36271160859488" lon="9.65136767885507"><ele>1322.0</ele><time>2026-04-11T10:42:56Z</time></trkpt><trkpt lat="46.36281030950861" lon="9.65133186228292"><ele>1322.0</ele><time>2026-04-11T10:42:57Z</time></trkpt><trkpt lat="46.3629392659271" lon="9.651401386057566"><ele>1322.0</ele><time>2026-04-11T10:42:58Z</time></trkpt><trkpt lat="46.36308304026268" lon="9.651418101027943"><ele>1319.25</ele><time>2026-04-11T10:42:59Z</time></trkpt><trkpt lat="46.36324115870781" lon="9.65143702425835"><ele>1316.5</ele><time>2026-04-11T10:43:00Z</time></trkpt><trkpt lat="46.36339569462207" lon="9.651439628374812"><ele>1313.75</ele><time>2026-04-11T10:43:01Z</time></trkpt><trkpt lat="46.363529737378265" lon="9.651442053538585"><ele>1311.0</ele><time>2026-04-11T10:43:02Z</time></trkpt><trkpt lat="46.36364250713175" lon="9.651410613606206"><ele>1311.0</ele><time>2026-04-11T10:43:03Z</time></trkpt><trkpt lat="46.36373972229302" lon="9.651307970709329"><ele>1311.0</ele><time>2026-04-11T10:43:04Z</time></trkpt><trkpt lat="46.36381211641022" lon="9.651126906535094"><ele>1311.0</ele><time>2026-04-11T10:43:05Z</time></trkpt><trkpt lat="46.36385751982425" lon="9.650907626058858"><ele>1311.0</ele><time>2026-04-11T10:43:06Z</time></trkpt><trkpt lat="46.36391188453032" lon="9.65071401079397"><ele>1307.6</ele><time>2026-04-11T10:43:07Z</time></trkpt><trkpt lat="46.364017270304615" lon="9.650607000178134"><ele>1304.1999999999998</ele><time>2026-04-11T10:43:08Z</time></trkpt><trkpt lat="46.36407212887552" lon="9.6504879868706"><ele>1300.8000000000002</ele><time>2026-04-11T10:43:09Z</time></trkpt><trkpt lat="46.36410808830075" lon="9.650391825126087"><ele>1297.4</ele><time>2026-04-11T10:43:10Z</time></trkpt><trkpt lat="46.36408847438968" lon="9.650272822598428"><ele>1294.0</ele><time>2026-04-11T10:43:11Z</time></trkpt><trkpt lat="46.36401316541586" lon="9.65017477317705"><ele>1292.5</ele><time>2026-04-11T10:43:12Z</time></trkpt><trkpt lat="46.36389634394089" lon="9.650137077718155"><ele>1291.0</ele><time>2026-04-11T10:43:13Z</time></trkpt><trkpt lat="46.36375509482514" lon="9.650133459705982"><ele>1289.5</ele><time>2026-04-11T10:43:14Z</time></trkpt><trkpt lat="46.36360532432125" lon="9.650103504800459"><ele>1288.0</ele><time>2026-04-11T10:43:15Z</time></trkpt><trkpt lat="46.36345120879703" lon="9.65001666458544"><ele>1288.0</ele><time>2026-04-11T10:43:16Z</time></trkpt><trkpt lat="46.363292267215925" lon="9.649890056124969"><ele>1288.0</ele><time>2026-04-11T10:43:17Z</time></trkpt><trkpt lat="46.36313753661039" lon="9.649720241855597"><ele>1288.0</ele><time>2026-04-11T10:43:18Z</time></trkpt><trkpt lat="46.362985139423" lon="9.649544975151734"><ele>1288.0</ele><time>2026-04-11T10:43:19Z</time></trkpt><trkpt lat="46.362842967367605" lon="9.649383316815769"><ele>1288.0</ele><time>2026-04-11T10:43:20Z</time></trkpt><trkpt lat="46.36272932818211" lon="9.64922197391192"><ele>1288.0</ele><time>2026-04-11T10:43:21Z</time></trkpt><trkpt lat="46.36263546773729" lon="9.649061881233742"><ele>1288.0</ele><time>2026-04-11T10:43:22Z</time></trkpt><trkpt lat="46.3625394850935" lon="9.648943862686808"><ele>1288.0</ele><time>2026-04-11T10:43:23Z</time></trkpt><trkpt lat="46.36239108154395" lon="9.64888840907106"><ele>1288.0</ele><time>2026-04-11T10:43:24Z</time></trkpt><trkpt lat="46.362230652032615" lon="9.648896951349393"><ele>1288.0</ele><time>2026-04-11T10:43:25Z</time></trkpt><trkpt lat="46.36206302010261" lon="9.648917792890984"><ele>1288.0</ele><time>2026-04-11T10:43:26Z</time></trkpt><trkpt lat="46.361882576641484" lon="9.648875475314846"><ele>1288.0</ele><time>2026-04-11T10:43:27Z</time></trkpt><trkpt lat="46.361711325079426" lon="9.648762160849303"><ele>1288.0</ele><time>2026-04-11T10:43:28Z</time></trkpt><trkpt lat="46.361535493355476" lon="9.648634484222324"><ele>1283.0</ele><time>2026-04-11T10:43:29Z</time></trkpt><trkpt lat="46.36137839834858" lon="9.648489704191535"><ele>1278.0</ele><time>2026-04-11T10:43:30Z</time></trkpt><trkpt lat="46.361223930702984" lon="9.648347311449092"><ele>1273.0</ele><time>2026-04-11T10:43:31Z</time></trkpt><trkpt lat="46.36110264493213" lon="9.648180239528275"><ele>1272.4</ele><time>2026-04-11T10:43:32Z</time></trkpt><trkpt lat="46.36099033652493" lon="9.648078229058868"><ele>1271.8</ele><time>2026-04-11T10:43:33Z</time></trkpt><trkpt lat="46.360914130619435" lon="9.64797297158528"><ele>1271.2</ele><time>2026-04-11T10:43:34Z</time></trkpt><trkpt lat="46.36086610235787" lon="9.647862034322044"><ele>1270.6</ele><time>2026-04-11T10:43:35Z</time></trkpt><trkpt lat="46.3608501705264" lon="9.647716096610058"><ele>1270.0</ele><time>2026-04-11T10:43:36Z</time></trkpt><trkpt lat="46.36089574072393" lon="9.647637349223103"><ele>1267.75</ele><time>2026-04-11T10:43:37Z</time></trkpt><trkpt lat="46.360978122068715" lon="9.64759303846693"><ele>1265.5</ele><time>2026-04-11T10:43:38Z</time></trkpt><trkpt lat="46.36109452847118" lon="9.647615042219064"><ele>1263.25</ele><time>2026-04-11T10:43:39Z</time></trkpt><trkpt lat="46.36124322049968" lon="9.647619475537144"><ele>1261.0</ele><time>2026-04-11T10:43:40Z</time></trkpt><trkpt lat="46.36139803377994" lon="9.647554855724632"><ele>1261.0</ele><time>2026-04-11T10:43:41Z</time></trkpt><trkpt lat="46.36155108010717" lon="9.647436787730378"><ele>1261.0</ele><time>2026-04-11T10:43:42Z</time></trkpt><trkpt lat="46.36169898423705" lon="9.647276276618635"><ele>1261.0</ele><time>2026-04-11T10:43:43Z</time></trkpt><trkpt lat="46.3618610848693" lon="9.647117632818052"><ele>1257.25</ele><time>2026-04-11T10:43:44Z</time></trkpt><trkpt lat="46.36199089607819" lon="9.646947718080611"><ele>1253.5</ele><time>2026-04-11T10:43:45Z</time></trkpt><trkpt lat="46.36210726168755" lon="9.646833984841388"><ele>1249.75</ele><time>2026-04-11T10:43:46Z</time></trkpt><trkpt lat="46.36219577868293" lon="9.646740833694896"><ele>1246.0</ele><time>2026-04-11T10:43:47Z</time></trkpt><trkpt lat="46.36225276754395" lon="9.646645112553715"><ele>1246.0</ele><time>2026-04-11T10:43:48Z</time></trkpt><trkpt lat="46.36225658702901" lon="9.646526269453817"><ele>1246.0</ele><time>2026-04-11T10:43:49Z</time></trkpt><trkpt lat="46.36219942875984" lon="9.646409731107491"><ele>1246.0</ele><time>2026-04-11T10:43:50Z</time></trkpt><trkpt lat="46.362086319968334" lon="9.646335015494993"><ele>1246.0</ele><time>2026-04-11T10:43:51Z</time></trkpt><trkpt lat="46.36193246579262" lon="9.646301505422462"><ele>1246.0</ele><time>2026-04-11T10:43:52Z</time></trkpt><trkpt lat="46.361759243921114" lon="9.646256443744956"><ele>1246.0</ele><time>2026-04-11T10:43:53Z</time></trkpt><trkpt lat="46.36158109825866" lon="9.64618207451003"><ele>1246.0</ele><time>2026-04-11T10:43:54Z</time></trkpt><trkpt lat="46.36139741425427" lon="9.64611148343719"><ele>1242.6666666666665</ele><time>2026-04-11T10:43:55Z</time></trkpt><trkpt lat="46.361210563175355" lon="9.646011895585398"><ele>1239.3333333333333</ele><time>2026-04-11T10:43:56Z</time></trkpt><trkpt lat="46.361066497920476" lon="9.645821921599632"><ele>1236.0</ele><time>2026-04-11T10:43:57Z</time></trkpt><trkpt lat="46.3608963311292" lon="9.645638813800383"><ele>1236.0</ele><time>2026-04-11T10:43:58Z</time></trkpt><trkpt lat="46.360714046594296" lon="9.645489113536808"><ele>1236.0</ele><time>2026-04-11T10:43:59Z</time></trkpt><trkpt lat="46.36052284286246" lon="9.64538650708127"><ele>1236.0</ele><time>2026-04-11T10:44:00Z</time></trkpt><trkpt lat="46.36033479823523" lon="9.645297863345872"><ele>1230.6666666666667</ele><time>2026-04-11T10:44:01Z</time></trkpt><trkpt lat="46.36014448995334" lon="9.645243247325851"><ele>1225.3333333333335</ele><time>2026-04-11T10:44:02Z</time></trkpt><trkpt lat="46.35997580571763" lon="9.645192324982624"><ele>1220.0</ele><time>2026-04-11T10:44:03Z</time></trkpt><trkpt lat="46.35984157675087" lon="9.645107500734488"><ele>1220.0</ele><time>2026-04-11T10:44:04Z</time></trkpt><trkpt lat="46.35971524124606" lon="9.64496181362388"><ele>1220.0</ele><time>2026-04-11T10:44:05Z</time></trkpt><trkpt lat="46.35959659792837" lon="9.644809623180734"><ele>1220.0</ele><time>2026-04-11T10:44:06Z</time></trkpt><trkpt lat="46.35947049093496" lon="9.644680919834757"><ele>1220.0</ele><time>2026-04-11T10:44:07Z</time></trkpt><trkpt lat="46.359337345843514" lon="9.644579335742582"><ele>1220.0</ele><time>2026-04-11T10:44:08Z</time></trkpt><trkpt lat="46.35920182808662" lon="9.64449607526374"><ele>1220.0</ele><time>2026-04-11T10:44:09Z</time></trkpt><trkpt lat="46.359078049390476" lon="9.644430779677897"><ele>1220.0</ele><time>2026-04-11T10:44:10Z</time></trkpt><trkpt lat="46.35896633617395" lon="9.64437280700912"><ele>1216.4</ele><time>2026-04-11T10:44:11Z</time></trkpt><trkpt lat="46.358866999662276" lon="9.644326815084392"><ele>1212.8</ele><time>2026-04-11T10:44:12Z</time></trkpt><trkpt lat="46.35876813960372" lon="9.644288371445363"><ele>1209.2</ele><time>2026-04-11T10:44:13Z</time></trkpt><trkpt lat="46.35867560741127" lon="9.644257232026833"><ele>1205.6</ele><time>2026-04-11T10:44:14Z</time></trkpt><trkpt lat="46.35859458578715" lon="9.644221121782298"><ele>1202.0</ele><time>2026-04-11T10:44:15Z</time></trkpt><trkpt lat="46.358520323080384" lon="9.644194918172527"><ele>1202.0</ele><time>2026-04-11T10:44:16Z</time></trkpt><trkpt lat="46.35840714685927" lon="9.644157007980647"><ele>1202.0</ele><time>2026-04-11T10:44:17.999Z</time></trkpt><trkpt lat="46.35833210168563" lon="9.64413043258744"><ele>1202.0</ele><time>2026-04-11T10:44:19.999Z</time></trkpt><trkpt lat="46.358251377442606" lon="9.644033975558163"><ele>1202.0</ele><time>2026-04-11T10:44:21.999Z</time></trkpt><trkpt lat="46.35824259793076" lon="9.64393969087235"><ele>1202.0</ele><time>2026-04-11T10:44:22.999Z</time></trkpt><trkpt lat="46.358268445337984" lon="9.643834294620822"><ele>1202.0</ele><time>2026-04-11T10:44:23.999Z</time></trkpt><trkpt lat="46.3583516634813" lon="9.643765148093669"><ele>1202.0</ele><time>2026-04-11T10:44:24.999Z</time></trkpt><trkpt lat="46.3584448983862" lon="9.64371056658372"><ele>1202.0</ele><time>2026-04-11T10:44:25.999Z</time></trkpt><trkpt lat="46.35856693049061" lon="9.643616845544761"><ele>1202.0</ele><time>2026-04-11T10:44:26.999Z</time></trkpt><trkpt lat="46.3587110989961" lon="9.643506123356248"><ele>1202.0</ele><time>2026-04-11T10:44:27.999Z</time></trkpt><trkpt lat="46.358872124495676" lon="9.643382454912711"><ele>1199.0</ele><time>2026-04-11T10:44:28.999Z</time></trkpt><trkpt lat="46.3590296220251" lon="9.643261495939392"><ele>1196.0</ele><time>2026-04-11T10:44:29.999Z</time></trkpt><trkpt lat="46.35917614607215" lon="9.643149946627284"><ele>1193.0</ele><time>2026-04-11T10:44:30.999Z</time></trkpt><trkpt lat="46.35931231440081" lon="9.643051770916397"><ele>1193.0</ele><time>2026-04-11T10:44:31.999Z</time></trkpt><trkpt lat="46.35941959881161" lon="9.64298099444078"><ele>1193.0</ele><time>2026-04-11T10:44:32.999Z</time></trkpt><trkpt lat="46.35950914682709" lon="9.64292006941089"><ele>1193.0</ele><time>2026-04-11T10:44:33.999Z</time></trkpt><trkpt lat="46.359563849792494" lon="9.642840104409798"><ele>1193.0</ele><time>2026-04-11T10:44:34.999Z</time></trkpt><trkpt lat="46.359620819286796" lon="9.642795221837511"><ele>1193.0</ele><time>2026-04-11T10:44:36Z</time></trkpt><trkpt lat="46.35961950648393" lon="9.642666201817502"><ele>1193.0</ele><time>2026-04-11T10:44:37Z</time></trkpt><trkpt lat="46.35957654504333" lon="9.642540811260215"><ele>1191.2</ele><time>2026-04-11T10:44:38Z</time></trkpt><trkpt lat="46.35951353529952" lon="9.642429003492174"><ele>1189.4</ele><time>2026-04-11T10:44:39Z</time></trkpt><trkpt lat="46.359453353560525" lon="9.642312287079305"><ele>1187.6000000000001</ele><time>2026-04-11T10:44:40Z</time></trkpt><trkpt lat="46.35940036775893" lon="9.642193146607157"><ele>1185.8</ele><time>2026-04-11T10:44:41Z</time></trkpt><trkpt lat="46.359345464962544" lon="9.642062840469878"><ele>1184.0</ele><time>2026-04-11T10:44:42Z</time></trkpt><trkpt lat="46.35928066872642" lon="9.641917459698536"><ele>1182.5</ele><time>2026-04-11T10:44:43Z</time></trkpt><trkpt lat="46.3592149685012" lon="9.64177444726045"><ele>1181.0</ele><time>2026-04-11T10:44:44Z</time></trkpt><trkpt lat="46.359159695433476" lon="9.641628702768196"><ele>1179.5</ele><time>2026-04-11T10:44:45Z</time></trkpt><trkpt lat="46.35909155513957" lon="9.641494175520608"><ele>1178.0</ele><time>2026-04-11T10:44:46Z</time></trkpt><trkpt lat="46.3590209172059" lon="9.64138644074969"><ele>1178.0</ele><time>2026-04-11T10:44:47Z</time></trkpt><trkpt lat="46.35893471398546" lon="9.641301975780165"><ele>1178.0</ele><time>2026-04-11T10:44:48Z</time></trkpt><trkpt lat="46.35884006115117" lon="9.64123897298666"><ele>1178.0</ele><time>2026-04-11T10:44:49Z</time></trkpt><trkpt lat="46.35873773613956" lon="9.64120332977566"><ele>1178.0</ele><time>2026-04-11T10:44:50Z</time></trkpt><trkpt lat="46.358637099994404" lon="9.6411886862751"><ele>1178.0</ele><time>2026-04-11T10:44:51Z</time></trkpt><trkpt lat="46.35853941955629" lon="9.641190438839404"><ele>1177.6</ele><time>2026-04-11T10:44:52Z</time></trkpt><trkpt lat="46.3584487740271" lon="9.641188302591143"><ele>1177.1999999999998</ele><time>2026-04-11T10:44:53Z</time></trkpt><trkpt lat="46.35835781421945" lon="9.641152484071073"><ele>1176.8</ele><time>2026-04-11T10:44:54Z</time></trkpt><trkpt lat="46.35827372563331" lon="9.64107500004567"><ele>1176.3999999999999</ele><time>2026-04-11T10:44:55Z</time></trkpt><trkpt lat="46.35819718970202" lon="9.640948560297762"><ele>1176.0</ele><time>2026-04-11T10:44:56Z</time></trkpt><trkpt lat="46.35810850623572" lon="9.640819595189228"><ele>1173.0</ele><time>2026-04-11T10:44:57Z</time></trkpt><trkpt lat="46.35800521976696" lon="9.640669234743502"><ele>1170.0</ele><time>2026-04-11T10:44:58Z</time></trkpt><trkpt lat="46.357873990091164" lon="9.640480546608128"><ele>1167.0</ele><time>2026-04-11T10:44:59Z</time></trkpt><trkpt lat="46.35772703190205" lon="9.64026936162897"><ele>1163.0</ele><time>2026-04-11T10:45:00Z</time></trkpt><trkpt lat="46.357560517571216" lon="9.640044199838297"><ele>1159.0</ele><time>2026-04-11T10:45:01Z</time></trkpt><trkpt lat="46.35739052556998" lon="9.639778904356723"><ele>1159.0</ele><time>2026-04-11T10:45:02Z</time></trkpt><trkpt lat="46.35720360002141" lon="9.639506066316978"><ele>1159.0</ele><time>2026-04-11T10:45:03Z</time></trkpt><trkpt lat="46.35701028127422" lon="9.639236724900972"><ele>1158.5</ele><time>2026-04-11T10:45:04Z</time></trkpt><trkpt lat="46.35683141876888" lon="9.638980655383113"><ele>1158.0</ele><time>2026-04-11T10:45:05Z</time></trkpt><trkpt lat="46.35666005688183" lon="9.638733320148736"><ele>1154.5</ele><time>2026-04-11T10:45:06Z</time></trkpt><trkpt lat="46.35649443836319" lon="9.63849026066802"><ele>1151.0</ele><time>2026-04-11T10:45:07Z</time></trkpt><trkpt lat="46.35633772927281" lon="9.638244581539288"><ele>1149.6666666666667</ele><time>2026-04-11T10:45:08Z</time></trkpt><trkpt lat="46.35619494365633" lon="9.63799033902376"><ele>1148.3333333333333</ele><time>2026-04-11T10:45:09Z</time></trkpt><trkpt lat="46.356068951752434" lon="9.63773090400107"><ele>1147.0</ele><time>2026-04-11T10:45:10Z</time></trkpt><trkpt lat="46.35595479234358" lon="9.637460599097581"><ele>1146.0</ele><time>2026-04-11T10:45:11Z</time></trkpt><trkpt lat="46.35585221602206" lon="9.637192964926687"><ele>1145.0</ele><time>2026-04-11T10:45:12Z</time></trkpt><trkpt lat="46.35575909614839" lon="9.636923938461118"><ele>1144.0</ele><time>2026-04-11T10:45:13Z</time></trkpt><trkpt lat="46.35567538578544" lon="9.63665243107119"><ele>1142.6666666666665</ele><time>2026-04-11T10:45:14Z</time></trkpt><trkpt lat="46.35559278236381" lon="9.636385019217713"><ele>1141.3333333333333</ele><time>2026-04-11T10:45:15Z</time></trkpt><trkpt lat="46.355509718549406" lon="9.636122128329212"><ele>1140.0</ele><time>2026-04-11T10:45:16Z</time></trkpt><trkpt lat="46.355421510248085" lon="9.635853866381028"><ele>1139.6666666666667</ele><time>2026-04-11T10:45:17Z</time></trkpt><trkpt lat="46.355333621611784" lon="9.635585567805943"><ele>1139.3333333333335</ele><time>2026-04-11T10:45:18Z</time></trkpt><trkpt lat="46.35524740866866" lon="9.635310510064699"><ele>1139.0</ele><time>2026-04-11T10:45:19Z</time></trkpt><trkpt lat="46.355161657982244" lon="9.635040884022647"><ele>1137.0</ele><time>2026-04-11T10:45:20Z</time></trkpt><trkpt lat="46.355069426706514" lon="9.634771352089835"><ele>1135.0</ele><time>2026-04-11T10:45:21Z</time></trkpt><trkpt lat="46.35496750912846" lon="9.6345122252158"><ele>1133.0</ele><time>2026-04-11T10:45:22Z</time></trkpt><trkpt lat="46.35485466428043" lon="9.634262704048243"><ele>1130.3333333333335</ele><time>2026-04-11T10:45:23Z</time></trkpt><trkpt lat="46.354733398817366" lon="9.634016840431231"><ele>1127.6666666666667</ele><time>2026-04-11T10:45:24Z</time></trkpt><trkpt lat="46.354603872581514" lon="9.633777325930998"><ele>1125.0</ele><time>2026-04-11T10:45:25Z</time></trkpt><trkpt lat="46.354466806277856" lon="9.633549062383368"><ele>1121.3333333333333</ele><time>2026-04-11T10:45:26Z</time></trkpt><trkpt lat="46.35432428810088" lon="9.633331499255696"><ele>1117.6666666666665</ele><time>2026-04-11T10:45:27Z</time></trkpt><trkpt lat="46.35418641670135" lon="9.633112258227296"><ele>1114.0</ele><time>2026-04-11T10:45:28Z</time></trkpt><trkpt lat="46.354053116811194" lon="9.632891992784481"><ele>1113.0</ele><time>2026-04-11T10:45:29Z</time></trkpt><trkpt lat="46.35392055524347" lon="9.632671674746653"><ele>1112.0</ele><time>2026-04-11T10:45:30Z</time></trkpt><trkpt lat="46.35378337577006" lon="9.632453749843402"><ele>1111.0</ele><time>2026-04-11T10:45:31Z</time></trkpt><trkpt lat="46.35364455132317" lon="9.632232273370786"><ele>1110.6666666666665</ele><time>2026-04-11T10:45:32Z</time></trkpt><trkpt lat="46.353507936274774" lon="9.63200991076714"><ele>1110.3333333333333</ele><time>2026-04-11T10:45:33Z</time></trkpt><trkpt lat="46.353368578244925" lon="9.631790842140068"><ele>1110.0</ele><time>2026-04-11T10:45:34Z</time></trkpt><trkpt lat="46.35322976987366" lon="9.631571137896575"><ele>1108.0</ele><time>2026-04-11T10:45:35Z</time></trkpt><trkpt lat="46.35309280540167" lon="9.631352351034035"><ele>1106.0</ele><time>2026-04-11T10:45:36Z</time></trkpt><trkpt lat="46.35295431537245" lon="9.631132770912936"><ele>1104.0</ele><time>2026-04-11T10:45:37Z</time></trkpt><trkpt lat="46.352817307150126" lon="9.630913168642051"><ele>1104.0</ele><time>2026-04-11T10:45:38Z</time></trkpt><trkpt lat="46.352680955275254" lon="9.630690195075955"><ele>1104.0</ele><time>2026-04-11T10:45:39Z</time></trkpt><trkpt lat="46.352542419651954" lon="9.63047108916309"><ele>1104.0</ele><time>2026-04-11T10:45:40Z</time></trkpt><trkpt lat="46.35240395911669" lon="9.63025431425329"><ele>1101.0</ele><time>2026-04-11T10:45:41Z</time></trkpt><trkpt lat="46.35226607769643" lon="9.630036248080541"><ele>1098.0</ele><time>2026-04-11T10:45:42Z</time></trkpt><trkpt lat="46.352127568044175" lon="9.629814613704628"><ele>1095.0</ele><time>2026-04-11T10:45:43Z</time></trkpt><trkpt lat="46.35199348042282" lon="9.629592531549491"><ele>1093.0</ele><time>2026-04-11T10:45:44Z</time></trkpt><trkpt lat="46.35186113238665" lon="9.629369086719567"><ele>1091.0</ele><time>2026-04-11T10:45:45Z</time></trkpt><trkpt lat="46.351730971952975" lon="9.629139531575046"><ele>1089.0</ele><time>2026-04-11T10:45:46Z</time></trkpt><trkpt lat="46.35160928955008" lon="9.628900652323939"><ele>1089.0</ele><time>2026-04-11T10:45:47Z</time></trkpt><trkpt lat="46.351497482489755" lon="9.628652663743868"><ele>1089.0</ele><time>2026-04-11T10:45:48Z</time></trkpt><trkpt lat="46.351389440649015" lon="9.628400565970766"><ele>1089.0</ele><time>2026-04-11T10:45:49Z</time></trkpt><trkpt lat="46.351286289785904" lon="9.628146654238078"><ele>1089.0</ele><time>2026-04-11T10:45:50Z</time></trkpt><trkpt lat="46.35118958583151" lon="9.62788656645411"><ele>1089.0</ele><time>2026-04-11T10:45:51Z</time></trkpt><trkpt lat="46.3511090748748" lon="9.627612554704816"><ele>1089.0</ele><time>2026-04-11T10:45:52Z</time></trkpt><trkpt lat="46.35103138952833" lon="9.627342941176485"><ele>1087.6666666666667</ele><time>2026-04-11T10:45:53Z</time></trkpt><trkpt lat="46.35095102354567" lon="9.627071331320744"><ele>1086.3333333333335</ele><time>2026-04-11T10:45:54Z</time></trkpt><trkpt lat="46.35087405988919" lon="9.626794490768875"><ele>1085.0</ele><time>2026-04-11T10:45:55Z</time></trkpt><trkpt lat="46.35079877130902" lon="9.626518165508793"><ele>1084.3333333333335</ele><time>2026-04-11T10:45:56Z</time></trkpt><trkpt lat="46.350722740725786" lon="9.626242734372898"><ele>1083.6666666666667</ele><time>2026-04-11T10:45:57Z</time></trkpt><trkpt lat="46.35064743444348" lon="9.625965889377339"><ele>1083.0</ele><time>2026-04-11T10:45:58Z</time></trkpt><trkpt lat="46.35057376195622" lon="9.625691324810186"><ele>1082.6666666666667</ele><time>2026-04-11T10:45:59Z</time></trkpt><trkpt lat="46.35050046337301" lon="9.625414160035836"><ele>1082.3333333333335</ele><time>2026-04-11T10:46:00Z</time></trkpt><trkpt lat="46.35042590516406" lon="9.625138770439124"><ele>1082.0</ele><time>2026-04-11T10:46:01Z</time></trkpt><trkpt lat="46.35035193628921" lon="9.624864511128365"><ele>1081.0</ele><time>2026-04-11T10:46:02Z</time></trkpt><trkpt lat="46.3502743836859" lon="9.624588946180179"><ele>1080.0</ele><time>2026-04-11T10:46:03Z</time></trkpt><trkpt lat="46.350202693503405" lon="9.624315400872977"><ele>1079.0</ele><time>2026-04-11T10:46:04Z</time></trkpt><trkpt lat="46.35013778202284" lon="9.62403677519425"><ele>1078.0</ele><time>2026-04-11T10:46:05Z</time></trkpt><trkpt lat="46.35008193717599" lon="9.623754922631521"><ele>1077.0</ele><time>2026-04-11T10:46:06Z</time></trkpt><trkpt lat="46.350044100995355" lon="9.623463415372076"><ele>1076.0</ele><time>2026-04-11T10:46:07Z</time></trkpt><trkpt lat="46.35002041785646" lon="9.6231658566466"><ele>1075.6666666666667</ele><time>2026-04-11T10:46:08Z</time></trkpt><trkpt lat="46.35000789319262" lon="9.622872409256674"><ele>1075.3333333333333</ele><time>2026-04-11T10:46:09Z</time></trkpt><trkpt lat="46.350012159105034" lon="9.622577107013033"><ele>1075.0</ele><time>2026-04-11T10:46:10Z</time></trkpt><trkpt lat="46.3500247554381" lon="9.622276968753663"><ele>1074.0</ele><time>2026-04-11T10:46:11Z</time></trkpt><trkpt lat="46.35004112210222" lon="9.621979672617664"><ele>1073.0</ele><time>2026-04-11T10:46:12Z</time></trkpt><trkpt lat="46.350055377280206" lon="9.621690928826334"><ele>1072.0</ele><time>2026-04-11T10:46:13Z</time></trkpt><trkpt lat="46.350065298441194" lon="9.621421071374403"><ele>1072.0</ele><time>2026-04-11T10:46:14Z</time></trkpt><trkpt lat="46.35006715933346" lon="9.621169413728158"><ele>1072.0</ele><time>2026-04-11T10:46:15Z</time></trkpt><trkpt lat="46.35007095876409" lon="9.620941909837699"><ele>1072.0</ele><time>2026-04-11T10:46:16Z</time></trkpt><trkpt lat="46.35008041269515" lon="9.62072902884057"><ele>1071.0</ele><time>2026-04-11T10:46:17Z</time></trkpt><trkpt lat="46.35008395640553" lon="9.62054101966121"><ele>1070.0</ele><time>2026-04-11T10:46:18Z</time></trkpt><trkpt lat="46.35009248148944" lon="9.620337072959833"><ele>1069.0</ele><time>2026-04-11T10:46:19Z</time></trkpt><trkpt lat="46.35008318648377" lon="9.620160180400628"><ele>1068.0</ele><time>2026-04-11T10:46:19.999Z</time></trkpt><trkpt lat="46.350054297814566" lon="9.619997585939426"><ele>1068.0</ele><time>2026-04-11T10:46:20.999Z</time></trkpt><trkpt lat="46.350029416690546" lon="9.619825968448108"><ele>1068.0</ele><time>2026-04-11T10:46:21.999Z</time></trkpt><trkpt lat="46.35001400008769" lon="9.6196637875036"><ele>1068.0</ele><time>2026-04-11T10:46:22.999Z</time></trkpt><trkpt lat="46.34999491191795" lon="9.61950232751548"><ele>1068.0</ele><time>2026-04-11T10:46:23.999Z</time></trkpt><trkpt lat="46.34998345219249" lon="9.619339690023567"><ele>1067.8</ele><time>2026-04-11T10:46:24.999Z</time></trkpt><trkpt lat="46.34996525484186" lon="9.619184777343332"><ele>1067.6</ele><time>2026-04-11T10:46:25.999Z</time></trkpt><trkpt lat="46.349944841199104" lon="9.61903045137045"><ele>1067.4</ele><time>2026-04-11T10:46:26.999Z</time></trkpt><trkpt lat="46.34992013382856" lon="9.618878469934716"><ele>1067.2</ele><time>2026-04-11T10:46:27.999Z</time></trkpt><trkpt lat="46.3498996928908" lon="9.618722472215401"><ele>1067.0</ele><time>2026-04-11T10:46:28.999Z</time></trkpt><trkpt lat="46.349881497310385" lon="9.618559748802065"><ele>1066.4</ele><time>2026-04-11T10:46:29.999Z</time></trkpt><trkpt lat="46.34986452933886" lon="9.61840041343296"><ele>1065.8000000000002</ele><time>2026-04-11T10:46:30.999Z</time></trkpt><trkpt lat="46.34984553681677" lon="9.618239640791538"><ele>1065.2</ele><time>2026-04-11T10:46:31.999Z</time></trkpt><trkpt lat="46.3498222652522" lon="9.618075484330483"><ele>1064.6000000000001</ele><time>2026-04-11T10:46:32.999Z</time></trkpt><trkpt lat="46.349810266654124" lon="9.617920132240117"><ele>1064.0</ele><time>2026-04-11T10:46:33.999Z</time></trkpt><trkpt lat="46.349794672895094" lon="9.617766568420675"><ele>1063.75</ele><time>2026-04-11T10:46:34.999Z</time></trkpt><trkpt lat="46.349774029022434" lon="9.617609553848906"><ele>1063.5</ele><time>2026-04-11T10:46:35.999Z</time></trkpt><trkpt lat="46.34975146978364" lon="9.617448365338305"><ele>1063.25</ele><time>2026-04-11T10:46:36.999Z</time></trkpt><trkpt lat="46.34972559347809" lon="9.617273146969374"><ele>1063.0</ele><time>2026-04-11T10:46:37.999Z</time></trkpt><trkpt lat="46.34970852301183" lon="9.617081097781458"><ele>1065.5</ele><time>2026-04-11T10:46:38.999Z</time></trkpt><trkpt lat="46.349689073316014" lon="9.616883269918931"><ele>1068.0</ele><time>2026-04-11T10:46:39.999Z</time></trkpt><trkpt lat="46.34966567021243" lon="9.616686750322488"><ele>1070.5</ele><time>2026-04-11T10:46:40.999Z</time></trkpt><trkpt lat="46.349639190989" lon="9.61647392592826"><ele>1073.0</ele><time>2026-04-11T10:46:42Z</time></trkpt><trkpt lat="46.34961884128036" lon="9.616274600746854"><ele>1071.5</ele><time>2026-04-11T10:46:43Z</time></trkpt><trkpt lat="46.34959814848182" lon="9.616073940996781"><ele>1070.0</ele><time>2026-04-11T10:46:44Z</time></trkpt><trkpt lat="46.349572717142756" lon="9.615875569097897"><ele>1068.5</ele><time>2026-04-11T10:46:45Z</time></trkpt><trkpt lat="46.34954863253396" lon="9.615673829213279"><ele>1067.0</ele><time>2026-04-11T10:46:46Z</time></trkpt><trkpt lat="46.34952829716518" lon="9.615470730498577"><ele>1066.75</ele><time>2026-04-11T10:46:47Z</time></trkpt><trkpt lat="46.3495060584354" lon="9.615269399664701"><ele>1066.5</ele><time>2026-04-11T10:46:48Z</time></trkpt><trkpt lat="46.34948067974746" lon="9.615064409789305"><ele>1066.25</ele><time>2026-04-11T10:46:49Z</time></trkpt><trkpt lat="46.34945803211099" lon="9.614843065402201"><ele>1066.0</ele><time>2026-04-11T10:46:50Z</time></trkpt><trkpt lat="46.34943369104841" lon="9.614613089675133"><ele>1067.6666666666665</ele><time>2026-04-11T10:46:51Z</time></trkpt><trkpt lat="46.34940426367401" lon="9.6143730594259"><ele>1069.3333333333333</ele><time>2026-04-11T10:46:52Z</time></trkpt><trkpt lat="46.34937503091929" lon="9.614121664324735"><ele>1071.0</ele><time>2026-04-11T10:46:53Z</time></trkpt><trkpt lat="46.34934666992849" lon="9.61386335824275"><ele>1072.3333333333333</ele><time>2026-04-11T10:46:54Z</time></trkpt><trkpt lat="46.3493178937007" lon="9.613597923631582"><ele>1073.6666666666665</ele><time>2026-04-11T10:46:55Z</time></trkpt><trkpt lat="46.34928245565559" lon="9.61333112853294"><ele>1075.0</ele><time>2026-04-11T10:46:56Z</time></trkpt><trkpt lat="46.349251053172445" lon="9.613059127430542"><ele>1073.3333333333333</ele><time>2026-04-11T10:46:57Z</time></trkpt><trkpt lat="46.3492210453476" lon="9.612782153723208"><ele>1071.6666666666667</ele><time>2026-04-11T10:46:58Z</time></trkpt><trkpt lat="46.3491925194644" lon="9.612501852722906"><ele>1070.0</ele><time>2026-04-11T10:46:59Z</time></trkpt><trkpt lat="46.349161652182765" lon="9.612220727413943"><ele>1067.0</ele><time>2026-04-11T10:47:00Z</time></trkpt><trkpt lat="46.34912738376533" lon="9.611937927570905"><ele>1064.0</ele><time>2026-04-11T10:47:01Z</time></trkpt><trkpt lat="46.34909461416373" lon="9.611650954689829"><ele>1061.0</ele><time>2026-04-11T10:47:02Z</time></trkpt><trkpt lat="46.34905980069924" lon="9.61136642922868"><ele>1059.3333333333335</ele><time>2026-04-11T10:47:03Z</time></trkpt><trkpt lat="46.34902739110126" lon="9.611081821023536"><ele>1057.6666666666667</ele><time>2026-04-11T10:47:04Z</time></trkpt><trkpt lat="46.34899708912551" lon="9.610799079788704"><ele>1056.0</ele><time>2026-04-11T10:47:05Z</time></trkpt><trkpt lat="46.34896571986647" lon="9.610520103514325"><ele>1056.6666666666667</ele><time>2026-04-11T10:47:06Z</time></trkpt><trkpt lat="46.34893149552374" lon="9.610236967643608"><ele>1057.3333333333335</ele><time>2026-04-11T10:47:07Z</time></trkpt><trkpt lat="46.348897620318844" lon="9.609955837666421"><ele>1058.0</ele><time>2026-04-11T10:47:08Z</time></trkpt><trkpt lat="46.34887033985497" lon="9.609677849451804"><ele>1058.6666666666667</ele><time>2026-04-11T10:47:09Z</time></trkpt><trkpt lat="46.348843652056594" lon="9.609394632068947"><ele>1059.3333333333333</ele><time>2026-04-11T10:47:10Z</time></trkpt><trkpt lat="46.348817873527935" lon="9.609112880645839"><ele>1060.0</ele><time>2026-04-11T10:47:11Z</time></trkpt><trkpt lat="46.34880204929276" lon="9.608827809029329"><ele>1062.6666666666665</ele><time>2026-04-11T10:47:12Z</time></trkpt><trkpt lat="46.348789030634286" lon="9.608541984705251"><ele>1065.3333333333333</ele><time>2026-04-11T10:47:13Z</time></trkpt><trkpt lat="46.34878985390979" lon="9.60826377926378"><ele>1068.0</ele><time>2026-04-11T10:47:14Z</time></trkpt><trkpt lat="46.348796707404425" lon="9.607978181286438"><ele>1064.3333333333333</ele><time>2026-04-11T10:47:15Z</time></trkpt><trkpt lat="46.348822950140175" lon="9.607689727873868"><ele>1060.6666666666665</ele><time>2026-04-11T10:47:16Z</time></trkpt><trkpt lat="46.34885493617095" lon="9.60739897921883"><ele>1057.0</ele><time>2026-04-11T10:47:17Z</time></trkpt><trkpt lat="46.34888499314686" lon="9.607111351720906"><ele>1051.0</ele><time>2026-04-11T10:47:18Z</time></trkpt><trkpt lat="46.348914527009065" lon="9.60682221273717"><ele>1045.0</ele><time>2026-04-11T10:47:19Z</time></trkpt><trkpt lat="46.348935682750806" lon="9.606526230920869"><ele>1039.0</ele><time>2026-04-11T10:47:20Z</time></trkpt><trkpt lat="46.34894804528395" lon="9.60622101252478"><ele>1039.0</ele><time>2026-04-11T10:47:21Z</time></trkpt><trkpt lat="46.34895690254152" lon="9.605912367678114"><ele>1039.0</ele><time>2026-04-11T10:47:22Z</time></trkpt><trkpt lat="46.34895864351616" lon="9.605602809432638"><ele>1039.0</ele><time>2026-04-11T10:47:23Z</time></trkpt><trkpt lat="46.34894437609912" lon="9.605293939711883"><ele>1039.3333333333333</ele><time>2026-04-11T10:47:24Z</time></trkpt><trkpt lat="46.34890379310809" lon="9.604991648759658"><ele>1039.6666666666667</ele><time>2026-04-11T10:47:25Z</time></trkpt><trkpt lat="46.34884397635998" lon="9.604697103454793"><ele>1040.0</ele><time>2026-04-11T10:47:26Z</time></trkpt><trkpt lat="46.34876555159622" lon="9.604413197290258"><ele>1040.6666666666667</ele><time>2026-04-11T10:47:27Z</time></trkpt><trkpt lat="46.34867135854158" lon="9.60413987501063"><ele>1041.3333333333333</ele><time>2026-04-11T10:47:28Z</time></trkpt><trkpt lat="46.34856109896423" lon="9.603882947609282"><ele>1042.0</ele><time>2026-04-11T10:47:29Z</time></trkpt><trkpt lat="46.34843428279016" lon="9.603640415602397"><ele>1040.3333333333333</ele><time>2026-04-11T10:47:30Z</time></trkpt><trkpt lat="46.34829458045299" lon="9.603422529598395"><ele>1038.6666666666667</ele><time>2026-04-11T10:47:31Z</time></trkpt><trkpt lat="46.34814178759619" lon="9.60322377557732"><ele>1037.0</ele><time>2026-04-11T10:47:32Z</time></trkpt><trkpt lat="46.34798017130673" lon="9.603041329923661"><ele>1036.0</ele><time>2026-04-11T10:47:33Z</time></trkpt><trkpt lat="46.34781497487609" lon="9.602869669985372"><ele>1035.0</ele><time>2026-04-11T10:47:34Z</time></trkpt><trkpt lat="46.34765342809508" lon="9.602707340066363"><ele>1034.0</ele><time>2026-04-11T10:47:35Z</time></trkpt><trkpt lat="46.347498766927586" lon="9.602551028368577"><ele>1034.0</ele><time>2026-04-11T10:47:36Z</time></trkpt><trkpt lat="46.347349006927374" lon="9.602381655537126"><ele>1034.0</ele><time>2026-04-11T10:47:37Z</time></trkpt><trkpt lat="46.34720535120652" lon="9.6021809383302"><ele>1034.0</ele><time>2026-04-11T10:47:38Z</time></trkpt><trkpt lat="46.347082506953434" lon="9.601967862320224"><ele>1034.3333333333335</ele><time>2026-04-11T10:47:39Z</time></trkpt><trkpt lat="46.34697037461838" lon="9.601745130076017"><ele>1034.6666666666667</ele><time>2026-04-11T10:47:40Z</time></trkpt><trkpt lat="46.34687143733966" lon="9.601509225335255"><ele>1035.0</ele><time>2026-04-11T10:47:41Z</time></trkpt><trkpt lat="46.34678550442856" lon="9.60125700554153"><ele>1033.3333333333333</ele><time>2026-04-11T10:47:42Z</time></trkpt><trkpt lat="46.34671542233487" lon="9.60099467179592"><ele>1031.6666666666665</ele><time>2026-04-11T10:47:43Z</time></trkpt><trkpt lat="46.3466596014286" lon="9.600723420963664"><ele>1030.0</ele><time>2026-04-11T10:47:44Z</time></trkpt><trkpt lat="46.346621944995896" lon="9.600446102135457"><ele>1028.3333333333333</ele><time>2026-04-11T10:47:45Z</time></trkpt><trkpt lat="46.346601404960914" lon="9.60016702947783"><ele>1026.6666666666667</ele><time>2026-04-11T10:47:46Z</time></trkpt><trkpt lat="46.34659643137743" lon="9.59988635747252"><ele>1025.0</ele><time>2026-04-11T10:47:47Z</time></trkpt><trkpt lat="46.346603470951855" lon="9.599602016469458"><ele>1024.6666666666667</ele><time>2026-04-11T10:47:48Z</time></trkpt><trkpt lat="46.346614902898644" lon="9.599314984030093"><ele>1024.3333333333333</ele><time>2026-04-11T10:47:49Z</time></trkpt><trkpt lat="46.346621075389514" lon="9.599026878196995"><ele>1024.0</ele><time>2026-04-11T10:47:50Z</time></trkpt><trkpt lat="46.346613880042185" lon="9.59873723408595"><ele>1024.0</ele><time>2026-04-11T10:47:51Z</time></trkpt><trkpt lat="46.34658829299467" lon="9.598446507909374"><ele>1024.0</ele><time>2026-04-11T10:47:52Z</time></trkpt><trkpt lat="46.34654350267182" lon="9.598160931888495"><ele>1024.0</ele><time>2026-04-11T10:47:53Z</time></trkpt><trkpt lat="46.346480622790054" lon="9.597882556633751"><ele>1023.0</ele><time>2026-04-11T10:47:54Z</time></trkpt><trkpt lat="46.34639795186505" lon="9.597628619117803"><ele>1022.0</ele><time>2026-04-11T10:47:55Z</time></trkpt><trkpt lat="46.34629945338422" lon="9.59740758701091"><ele>1021.0</ele><time>2026-04-11T10:47:56Z</time></trkpt><trkpt lat="46.34619297145342" lon="9.597207207108026"><ele>1022.0</ele><time>2026-04-11T10:47:57Z</time></trkpt><trkpt lat="46.34608154354156" lon="9.597026595941179"><ele>1023.0</ele><time>2026-04-11T10:47:58Z</time></trkpt><trkpt lat="46.345965924591965" lon="9.59686829317783"><ele>1024.0</ele><time>2026-04-11T10:47:59Z</time></trkpt><trkpt lat="46.34585659406025" lon="9.596723856951598"><ele>1024.0</ele><time>2026-04-11T10:48:00Z</time></trkpt><trkpt lat="46.34575489265303" lon="9.596584669683708"><ele>1024.0</ele><time>2026-04-11T10:48:01Z</time></trkpt><trkpt lat="46.345657897095705" lon="9.596443654181748"><ele>1024.0</ele><time>2026-04-11T10:48:02Z</time></trkpt><trkpt lat="46.34556078475521" lon="9.596303646459445"><ele>1024.0</ele><time>2026-04-11T10:48:03Z</time></trkpt><trkpt lat="46.34545894718646" lon="9.596160598138228"><ele>1024.5</ele><time>2026-04-11T10:48:04Z</time></trkpt><trkpt lat="46.345356899992545" lon="9.596020478092647"><ele>1025.0</ele><time>2026-04-11T10:48:05Z</time></trkpt><trkpt lat="46.345256656137536" lon="9.59588322385288"><ele>1025.5</ele><time>2026-04-11T10:48:06Z</time></trkpt><trkpt lat="46.34515553040807" lon="9.59573791482457"><ele>1026.0</ele><time>2026-04-11T10:48:07Z</time></trkpt><trkpt lat="46.34505060294432" lon="9.595587767597438"><ele>1026.0</ele><time>2026-04-11T10:48:08Z</time></trkpt><trkpt lat="46.34494329538809" lon="9.595436868044436"><ele>1026.0</ele><time>2026-04-11T10:48:09Z</time></trkpt><trkpt lat="46.34484007528116" lon="9.595292096745307"><ele>1026.0</ele><time>2026-04-11T10:48:10Z</time></trkpt><trkpt lat="46.3447380619288" lon="9.59514942147224"><ele>1026.0</ele><time>2026-04-11T10:48:11Z</time></trkpt><trkpt lat="46.34464316697465" lon="9.595014064418601"><ele>1025.0</ele><time>2026-04-11T10:48:12Z</time></trkpt><trkpt lat="46.34455409803634" lon="9.594889939673955"><ele>1024.0</ele><time>2026-04-11T10:48:13Z</time></trkpt><trkpt lat="46.34447083458933" lon="9.594773510553361"><ele>1023.0</ele><time>2026-04-11T10:48:14Z</time></trkpt><trkpt lat="46.344387522165874" lon="9.594654387277036"><ele>1022.0</ele><time>2026-04-11T10:48:15Z</time></trkpt><trkpt lat="46.3443104162285" lon="9.594529481727987"><ele>1021.0</ele><time>2026-04-11T10:48:16Z</time></trkpt><trkpt lat="46.34425094201706" lon="9.594382987226412"><ele>1020.0</ele><time>2026-04-11T10:48:17Z</time></trkpt><trkpt lat="46.34418979421644" lon="9.594236240343388"><ele>1019.0</ele><time>2026-04-11T10:48:18Z</time></trkpt><trkpt lat="46.344130326810124" lon="9.59408325894899"><ele>1018.0</ele><time>2026-04-11T10:48:19Z</time></trkpt><trkpt lat="46.344062789666914" lon="9.593937199991393"><ele>1018.0</ele><time>2026-04-11T10:48:20Z</time></trkpt><trkpt lat="46.344018700020804" lon="9.59377881493894"><ele>1018.0</ele><time>2026-04-11T10:48:21Z</time></trkpt><trkpt lat="46.34398001030892" lon="9.59361142044765"><ele>1018.0</ele><time>2026-04-11T10:48:22Z</time></trkpt><trkpt lat="46.34394564708475" lon="9.593437569917736"><ele>1018.0</ele><time>2026-04-11T10:48:23Z</time></trkpt><trkpt lat="46.343908339523374" lon="9.593260151497502"><ele>1018.75</ele><time>2026-04-11T10:48:23.999Z</time></trkpt><trkpt lat="46.34386494086238" lon="9.593084225753419"><ele>1019.5</ele><time>2026-04-11T10:48:24.999Z</time></trkpt><trkpt lat="46.34382344465347" lon="9.592910969732586"><ele>1020.25</ele><time>2026-04-11T10:48:25.999Z</time></trkpt><trkpt lat="46.34378574170323" lon="9.592735259806744"><ele>1021.0</ele><time>2026-04-11T10:48:26.999Z</time></trkpt><trkpt lat="46.34375548643879" lon="9.592561255062177"><ele>1019.5</ele><time>2026-04-11T10:48:27.999Z</time></trkpt><trkpt lat="46.34372803228677" lon="9.592384954572184"><ele>1018.0</ele><time>2026-04-11T10:48:28.999Z</time></trkpt><trkpt lat="46.343692405333066" lon="9.592216763865256"><ele>1016.5</ele><time>2026-04-11T10:48:29.999Z</time></trkpt><trkpt lat="46.34364698779243" lon="9.59205215987323"><ele>1015.0</ele><time>2026-04-11T10:48:30.999Z</time></trkpt><trkpt lat="46.343611889978845" lon="9.591882743959507"><ele>1014.0</ele><time>2026-04-11T10:48:31.999Z</time></trkpt><trkpt lat="46.34359440614694" lon="9.591709432518302"><ele>1013.0</ele><time>2026-04-11T10:48:32.999Z</time></trkpt><trkpt lat="46.34359012657391" lon="9.591534133475184"><ele>1012.0</ele><time>2026-04-11T10:48:33.999Z</time></trkpt><trkpt lat="46.343579605290905" lon="9.591360435078174"><ele>1011.0</ele><time>2026-04-11T10:48:34.999Z</time></trkpt><trkpt lat="46.34355138050553" lon="9.591196819038283"><ele>1009.25</ele><time>2026-04-11T10:48:35.999Z</time></trkpt><trkpt lat="46.34351258948387" lon="9.591027189387436"><ele>1007.5</ele><time>2026-04-11T10:48:36.999Z</time></trkpt><trkpt lat="46.34347622283591" lon="9.590861935562009"><ele>1005.75</ele><time>2026-04-11T10:48:37.999Z</time></trkpt><trkpt lat="46.34343091547407" lon="9.590694109074093"><ele>1004.0</ele><time>2026-04-11T10:48:38.999Z</time></trkpt><trkpt lat="46.3434009046809" lon="9.590525274769103"><ele>1004.0</ele><time>2026-04-11T10:48:39.999Z</time></trkpt><trkpt lat="46.34331820610079" lon="9.590381166508914"><ele>1004.0</ele><time>2026-04-11T10:48:40.999Z</time></trkpt><trkpt lat="46.34322848368175" lon="9.590249557993305"><ele>1004.0</ele><time>2026-04-11T10:48:41.999Z</time></trkpt><trkpt lat="46.34314315264935" lon="9.590104480638137"><ele>1004.0</ele><time>2026-04-11T10:48:42.999Z</time></trkpt><trkpt lat="46.343056592907416" lon="9.589963891476998"><ele>1002.5</ele><time>2026-04-11T10:48:43.999Z</time></trkpt><trkpt lat="46.34296553157613" lon="9.589829481153046"><ele>1001.0</ele><time>2026-04-11T10:48:44.999Z</time></trkpt><trkpt lat="46.34287139127756" lon="9.589693227964162"><ele>999.5</ele><time>2026-04-11T10:48:45.999Z</time></trkpt><trkpt lat="46.342775608206125" lon="9.589559596984806"><ele>998.0</ele><time>2026-04-11T10:48:46.999Z</time></trkpt><trkpt lat="46.342685249819716" lon="9.589426467756846"><ele>996.5</ele><time>2026-04-11T10:48:48Z</time></trkpt><trkpt lat="46.342596784297086" lon="9.589296402760224"><ele>995.0</ele><time>2026-04-11T10:48:49Z</time></trkpt><trkpt lat="46.34251143669099" lon="9.589174822651747"><ele>993.5</ele><time>2026-04-11T10:48:50Z</time></trkpt><trkpt lat="46.34242862815019" lon="9.58905469568519"><ele>992.0</ele><time>2026-04-11T10:48:51Z</time></trkpt><trkpt lat="46.34234477005075" lon="9.588928243184492"><ele>992.0</ele><time>2026-04-11T10:48:52Z</time></trkpt><trkpt lat="46.34226160098844" lon="9.588804209676313"><ele>992.0</ele><time>2026-04-11T10:48:53Z</time></trkpt><trkpt lat="46.34217646470295" lon="9.588672640479357"><ele>992.0</ele><time>2026-04-11T10:48:54Z</time></trkpt><trkpt lat="46.34208843142673" lon="9.588537643295043"><ele>992.0</ele><time>2026-04-11T10:48:55Z</time></trkpt><trkpt lat="46.34200205001199" lon="9.588388898299401"><ele>991.75</ele><time>2026-04-11T10:48:56Z</time></trkpt><trkpt lat="46.34193865403062" lon="9.588213943330803"><ele>991.5</ele><time>2026-04-11T10:48:57Z</time></trkpt><trkpt lat="46.341892991952584" lon="9.588025026783216"><ele>991.25</ele><time>2026-04-11T10:48:58Z</time></trkpt><trkpt lat="46.3418544749324" lon="9.587824796640096"><ele>991.0</ele><time>2026-04-11T10:48:59Z</time></trkpt><trkpt lat="46.34180926818342" lon="9.587622035674428"><ele>991.0</ele><time>2026-04-11T10:49:00Z</time></trkpt><trkpt lat="46.34176738711056" lon="9.58740964629983"><ele>991.0</ele><time>2026-04-11T10:49:01Z</time></trkpt><trkpt lat="46.34172376637921" lon="9.587198690796956"><ele>991.0</ele><time>2026-04-11T10:49:02Z</time></trkpt><trkpt lat="46.34167770707808" lon="9.586986419198283"><ele>989.3333333333333</ele><time>2026-04-11T10:49:03Z</time></trkpt><trkpt lat="46.341631072761814" lon="9.586778542705304"><ele>987.6666666666667</ele><time>2026-04-11T10:49:04Z</time></trkpt><trkpt lat="46.34158164620721" lon="9.586570447852136"><ele>986.0</ele><time>2026-04-11T10:49:05Z</time></trkpt><trkpt lat="46.341534763768344" lon="9.586363112644875"><ele>986.0</ele><time>2026-04-11T10:49:06Z</time></trkpt><trkpt lat="46.34148831388505" lon="9.586151690678678"><ele>986.0</ele><time>2026-04-11T10:49:07Z</time></trkpt><trkpt lat="46.341443922647535" lon="9.585940437799268"><ele>986.0</ele><time>2026-04-11T10:49:08Z</time></trkpt><trkpt lat="46.34139748099093" lon="9.585731776014434"><ele>994.25</ele><time>2026-04-11T10:49:09Z</time></trkpt><trkpt lat="46.341353130048155" lon="9.585522756689716"><ele>1002.5</ele><time>2026-04-11T10:49:10Z</time></trkpt><trkpt lat="46.341309621491064" lon="9.58531526231837"><ele>1010.75</ele><time>2026-04-11T10:49:11Z</time></trkpt><trkpt lat="46.341266904691416" lon="9.585110649924781"><ele>1019.0</ele><time>2026-04-11T10:49:12Z</time></trkpt><trkpt lat="46.34122613404017" lon="9.584902386748636"><ele>1019.0</ele><time>2026-04-11T10:49:13Z</time></trkpt><trkpt lat="46.34119209209429" lon="9.584691160546281"><ele>1019.0</ele><time>2026-04-11T10:49:14Z</time></trkpt><trkpt lat="46.34116098207307" lon="9.584484605318178"><ele>1019.0</ele><time>2026-04-11T10:49:15Z</time></trkpt><trkpt lat="46.34113420354357" lon="9.584277149353351"><ele>1019.0</ele><time>2026-04-11T10:49:16Z</time></trkpt><trkpt lat="46.341108809830835" lon="9.584066687845198"><ele>1016.0</ele><time>2026-04-11T10:49:17Z</time></trkpt><trkpt lat="46.34108151240059" lon="9.583857023650992"><ele>1013.0</ele><time>2026-04-11T10:49:18Z</time></trkpt><trkpt lat="46.34105269121963" lon="9.583643278989006"><ele>1010.0</ele><time>2026-04-11T10:49:19Z</time></trkpt><trkpt lat="46.34102086260123" lon="9.583419811562054"><ele>1005.0</ele><time>2026-04-11T10:49:20Z</time></trkpt><trkpt lat="46.340988553238475" lon="9.583181725534223"><ele>1000.0</ele><time>2026-04-11T10:49:21Z</time></trkpt><trkpt lat="46.34097039048439" lon="9.58292992540968"><ele>995.0</ele><time>2026-04-11T10:49:22Z</time></trkpt><trkpt lat="46.340935358494924" lon="9.582678537844043"><ele>990.6666666666667</ele><time>2026-04-11T10:49:23Z</time></trkpt><trkpt lat="46.34089147147713" lon="9.582435368043331"><ele>986.3333333333333</ele><time>2026-04-11T10:49:24Z</time></trkpt><trkpt lat="46.34087394351058" lon="9.582193385670461"><ele>982.0</ele><time>2026-04-11T10:49:25Z</time></trkpt><trkpt lat="46.340836792414215" lon="9.581966972373477"><ele>980.6666666666666</ele><time>2026-04-11T10:49:26Z</time></trkpt><trkpt lat="46.34078465327852" lon="9.581732460235761"><ele>979.3333333333333</ele><time>2026-04-11T10:49:27Z</time></trkpt><trkpt lat="46.34072269608213" lon="9.58156480802287"><ele>978.0</ele><time>2026-04-11T10:49:28Z</time></trkpt><trkpt lat="46.340638776722" lon="9.581382913590216"><ele>978.0</ele><time>2026-04-11T10:49:29Z</time></trkpt><trkpt lat="46.34055873274283" lon="9.581191670898189"><ele>978.0</ele><time>2026-04-11T10:49:30Z</time></trkpt><trkpt lat="46.34048969781707" lon="9.581006217401166"><ele>978.0</ele><time>2026-04-11T10:49:31Z</time></trkpt><trkpt lat="46.340441046503095" lon="9.580832301429181"><ele>978.0</ele><time>2026-04-11T10:49:32Z</time></trkpt><trkpt lat="46.34039601419973" lon="9.580658215062252"><ele>983.0</ele><time>2026-04-11T10:49:33Z</time></trkpt><trkpt lat="46.340362936683135" lon="9.580476993091759"><ele>988.0</ele><time>2026-04-11T10:49:34Z</time></trkpt><trkpt lat="46.34029946234628" lon="9.580295795885034"><ele>993.0</ele><time>2026-04-11T10:49:35Z</time></trkpt><trkpt lat="46.34025768223539" lon="9.58008544983382"><ele>998.0</ele><time>2026-04-11T10:49:36Z</time></trkpt><trkpt lat="46.340203503850674" lon="9.579865855554651"><ele>998.0</ele><time>2026-04-11T10:49:37Z</time></trkpt><trkpt lat="46.34013856011004" lon="9.579643659434277"><ele>998.0</ele><time>2026-04-11T10:49:38Z</time></trkpt><trkpt lat="46.340085218519285" lon="9.579418894265189"><ele>998.0</ele><time>2026-04-11T10:49:39Z</time></trkpt><trkpt lat="46.34002985315912" lon="9.579209249709333"><ele>993.75</ele><time>2026-04-11T10:49:40Z</time></trkpt><trkpt lat="46.33997460097109" lon="9.57901064571807"><ele>989.5</ele><time>2026-04-11T10:49:41Z</time></trkpt><trkpt lat="46.33992870628688" lon="9.578834138764877"><ele>985.25</ele><time>2026-04-11T10:49:42Z</time></trkpt><trkpt lat="46.33989292558791" lon="9.57865087111283"><ele>981.0</ele><time>2026-04-11T10:49:43Z</time></trkpt><trkpt lat="46.339886787457665" lon="9.578458179379243"><ele>978.25</ele><time>2026-04-11T10:49:44Z</time></trkpt><trkpt lat="46.339915535328764" lon="9.578271555564257"><ele>975.5</ele><time>2026-04-11T10:49:45Z</time></trkpt><trkpt lat="46.339950334738695" lon="9.578079257649314"><ele>972.75</ele><time>2026-04-11T10:49:46Z</time></trkpt><trkpt lat="46.33998441771004" lon="9.577884173498788"><ele>970.0</ele><time>2026-04-11T10:49:47Z</time></trkpt><trkpt lat="46.34006470873041" lon="9.577714289743858"><ele>968.75</ele><time>2026-04-11T10:49:48Z</time></trkpt><trkpt lat="46.34016073213298" lon="9.57755320365844"><ele>967.5</ele><time>2026-04-11T10:49:49Z</time></trkpt><trkpt lat="46.34024133995707" lon="9.577382439257233"><ele>966.25</ele><time>2026-04-11T10:49:50Z</time></trkpt><trkpt lat="46.340281970241676" lon="9.57718729186861"><ele>965.0</ele><time>2026-04-11T10:49:51Z</time></trkpt><trkpt lat="46.34027857798069" lon="9.57699348292249"><ele>964.5</ele><time>2026-04-11T10:49:52Z</time></trkpt><trkpt lat="46.34024204061739" lon="9.576821025114768"><ele>964.0</ele><time>2026-04-11T10:49:53Z</time></trkpt><trkpt lat="46.34017031636244" lon="9.576655500152404"><ele>963.5</ele><time>2026-04-11T10:49:54Z</time></trkpt><trkpt lat="46.34006957410548" lon="9.576493552706431"><ele>963.0</ele><time>2026-04-11T10:49:55Z</time></trkpt><trkpt lat="46.33998189976302" lon="9.576312945448107"><ele>962.25</ele><time>2026-04-11T10:49:56Z</time></trkpt><trkpt lat="46.33992924368261" lon="9.576118731287373"><ele>961.5</ele><time>2026-04-11T10:49:57Z</time></trkpt><trkpt lat="46.3399020937585" lon="9.57591602193436"><ele>960.75</ele><time>2026-04-11T10:49:58Z</time></trkpt><trkpt lat="46.33992058627365" lon="9.5756989562396"><ele>960.0</ele><time>2026-04-11T10:49:59Z</time></trkpt><trkpt lat="46.33995677113853" lon="9.57546517671216"><ele>957.6666666666667</ele><time>2026-04-11T10:50:00Z</time></trkpt><trkpt lat="46.339989178891486" lon="9.575235806106402"><ele>955.3333333333334</ele><time>2026-04-11T10:50:01Z</time></trkpt><trkpt lat="46.339986276544856" lon="9.574987719642232"><ele>953.0</ele><time>2026-04-11T10:50:02Z</time></trkpt><trkpt lat="46.33996075103286" lon="9.57470804558728"><ele>950.5</ele><time>2026-04-11T10:50:03Z</time></trkpt><trkpt lat="46.3399362279979" lon="9.574361719532591"><ele>948.0</ele><time>2026-04-11T10:50:04Z</time></trkpt><trkpt lat="46.339900366561416" lon="9.574028857264496"><ele>948.0</ele><time>2026-04-11T10:50:05Z</time></trkpt><trkpt lat="46.33989020690416" lon="9.573706166047112"><ele>948.0</ele><time>2026-04-11T10:50:06Z</time></trkpt><trkpt lat="46.33988519145653" lon="9.573405726229424"><ele>948.0</ele><time>2026-04-11T10:50:07Z</time></trkpt><trkpt lat="46.33987234290566" lon="9.573115402571252"><ele>944.3333333333333</ele><time>2026-04-11T10:50:08Z</time></trkpt><trkpt lat="46.33985278508388" lon="9.572856541821551"><ele>940.6666666666666</ele><time>2026-04-11T10:50:09Z</time></trkpt><trkpt lat="46.339833255253794" lon="9.572625920729111"><ele>937.0</ele><time>2026-04-11T10:50:10Z</time></trkpt><trkpt lat="46.33981019756429" lon="9.572384455453305"><ele>932.6666666666666</ele><time>2026-04-11T10:50:11Z</time></trkpt><trkpt lat="46.33976564590264" lon="9.572126270540691"><ele>928.3333333333333</ele><time>2026-04-11T10:50:12Z</time></trkpt><trkpt lat="46.33969871869324" lon="9.57184599423336"><ele>924.0</ele><time>2026-04-11T10:50:13Z</time></trkpt><trkpt lat="46.33961631099102" lon="9.571549391552203"><ele>933.0</ele><time>2026-04-11T10:50:14Z</time></trkpt><trkpt lat="46.33951279445131" lon="9.571252894413739"><ele>942.0</ele><time>2026-04-11T10:50:15Z</time></trkpt><trkpt lat="46.339404496189765" lon="9.570974709836957"><ele>942.0</ele><time>2026-04-11T10:50:16Z</time></trkpt><trkpt lat="46.339304808069095" lon="9.570722078242884"><ele>942.0</ele><time>2026-04-11T10:50:17Z</time></trkpt><trkpt lat="46.339221307352005" lon="9.57047599483341"><ele>942.0</ele><time>2026-04-11T10:50:18Z</time></trkpt><trkpt lat="46.33915475434483" lon="9.570212520953044"><ele>939.3333333333333</ele><time>2026-04-11T10:50:19Z</time></trkpt><trkpt lat="46.339108567253525" lon="9.569942513763701"><ele>936.6666666666666</ele><time>2026-04-11T10:50:20Z</time></trkpt><trkpt lat="46.339067397591506" lon="9.569661115093533"><ele>934.0</ele><time>2026-04-11T10:50:21Z</time></trkpt><trkpt lat="46.339049042651375" lon="9.569376593343206"><ele>928.6666666666666</ele><time>2026-04-11T10:50:22Z</time></trkpt><trkpt lat="46.339061706775176" lon="9.569099213521365"><ele>923.3333333333333</ele><time>2026-04-11T10:50:23Z</time></trkpt><trkpt lat="46.33905683316254" lon="9.568827728318963"><ele>918.0</ele><time>2026-04-11T10:50:23.999Z</time></trkpt><trkpt lat="46.339074146552825" lon="9.568559858543983"><ele>915.3333333333333</ele><time>2026-04-11T10:50:24.999Z</time></trkpt><trkpt lat="46.33908809840304" lon="9.568295181492251"><ele>912.6666666666666</ele><time>2026-04-11T10:50:25.999Z</time></trkpt><trkpt lat="46.33910095355094" lon="9.568033054102626"><ele>910.0</ele><time>2026-04-11T10:50:26.999Z</time></trkpt><trkpt lat="46.33911492956169" lon="9.567780262688341"><ele>909.6666666666666</ele><time>2026-04-11T10:50:27.999Z</time></trkpt><trkpt lat="46.33912922360547" lon="9.567547487606014"><ele>909.3333333333333</ele><time>2026-04-11T10:50:28.999Z</time></trkpt><trkpt lat="46.339145436851126" lon="9.567324150744097"><ele>909.0</ele><time>2026-04-11T10:50:29.999Z</time></trkpt><trkpt lat="46.339167195954204" lon="9.567098159139556"><ele>911.0</ele><time>2026-04-11T10:50:30.999Z</time></trkpt><trkpt lat="46.3391970304973" lon="9.566869810828596"><ele>913.0</ele><time>2026-04-11T10:50:31.999Z</time></trkpt><trkpt lat="46.339225525964665" lon="9.566638950007906"><ele>915.0</ele><time>2026-04-11T10:50:32.999Z</time></trkpt><trkpt lat="46.33926280894804" lon="9.566422103505523"><ele>913.3333333333333</ele><time>2026-04-11T10:50:33.999Z</time></trkpt><trkpt lat="46.339300266163484" lon="9.566194246048243"><ele>911.6666666666666</ele><time>2026-04-11T10:50:34.999Z</time></trkpt><trkpt lat="46.339343160567765" lon="9.565958194453508"><ele>910.0</ele><time>2026-04-11T10:50:35.999Z</time></trkpt><trkpt lat="46.33938725868863" lon="9.565718619056959"><ele>910.0</ele><time>2026-04-11T10:50:36.999Z</time></trkpt><trkpt lat="46.33942683927055" lon="9.565487478156754"><ele>910.0</ele><time>2026-04-11T10:50:37.999Z</time></trkpt><trkpt lat="46.33946115839882" lon="9.5652681653107"><ele>910.0</ele><time>2026-04-11T10:50:38.999Z</time></trkpt><trkpt lat="46.339502776285286" lon="9.565065505674037"><ele>909.3333333333333</ele><time>2026-04-11T10:50:39.999Z</time></trkpt><trkpt lat="46.33953318679246" lon="9.564847662762835"><ele>908.6666666666667</ele><time>2026-04-11T10:50:40.999Z</time></trkpt><trkpt lat="46.33956481310771" lon="9.564614992892144"><ele>908.0</ele><time>2026-04-11T10:50:41.999Z</time></trkpt><trkpt lat="46.33959429068568" lon="9.564375030962985"><ele>908.0</ele><time>2026-04-11T10:50:42.999Z</time></trkpt><trkpt lat="46.33960843319556" lon="9.564117257929729"><ele>908.0</ele><time>2026-04-11T10:50:43.999Z</time></trkpt><trkpt lat="46.33960321549299" lon="9.563857351895836"><ele>908.0</ele><time>2026-04-11T10:50:44.999Z</time></trkpt><trkpt lat="46.339604511732944" lon="9.56358852801932"><ele>911.0</ele><time>2026-04-11T10:50:45.999Z</time></trkpt><trkpt lat="46.339579990710355" lon="9.563325925118153"><ele>914.0</ele><time>2026-04-11T10:50:46.999Z</time></trkpt><trkpt lat="46.33954405888565" lon="9.563078619646566"><ele>917.0</ele><time>2026-04-11T10:50:47.999Z</time></trkpt><trkpt lat="46.3395509095567" lon="9.562895867891402"><ele>921.3333333333334</ele><time>2026-04-11T10:50:48.999Z</time></trkpt><trkpt lat="46.339526467725086" lon="9.56267099094387"><ele>925.6666666666667</ele><time>2026-04-11T10:50:49.999Z</time></trkpt><trkpt lat="46.33947058417095" lon="9.562444097530214"><ele>930.0</ele><time>2026-04-11T10:50:51.072Z</time></trkpt><trkpt lat="46.33941145382295" lon="9.562244063009459"><ele>930.0</ele><time>2026-04-11T10:50:52.056Z</time></trkpt><trkpt lat="46.339346052747295" lon="9.562056755604297"><ele>930.0</ele><time>2026-04-11T10:50:53.055Z</time></trkpt><trkpt lat="46.33927719847502" lon="9.561888738427294"><ele>930.0</ele><time>2026-04-11T10:50:54.054Z</time></trkpt><trkpt lat="46.33795718590351" lon="9.559651334035197"><ele>900.0</ele><time>2026-04-11T10:50:57.134Z</time></trkpt><trkpt lat="46.33751107492257" lon="9.558836790100171"><ele>869.0</ele><time>2026-04-11T10:50:58.133Z</time></trkpt><trkpt lat="46.33716678171655" lon="9.557927780869969"><ele>822.0</ele><time>2026-04-11T10:50:59.134Z</time></trkpt><trkpt lat="46.33699848189773" lon="9.556920296060312"><ele>822.0</ele><time>2026-04-11T10:51:00.134Z</time></trkpt><trkpt lat="46.33708995691128" lon="9.556430239250798"><ele>822.0</ele><time>2026-04-11T10:51:16.999Z</time></trkpt><trkpt lat="46.33708667885384" lon="9.556162857696892"><ele>819.0</ele><time>2026-04-11T10:51:17.999Z</time></trkpt><trkpt lat="46.33701394576129" lon="9.555862770841486"><ele>816.0</ele><time>2026-04-11T10:51:18.999Z</time></trkpt><trkpt lat="46.337042328553544" lon="9.55558700020864"><ele>813.0</ele><time>2026-04-11T10:51:19.999Z</time></trkpt><trkpt lat="46.337057206744646" lon="9.555318163198994"><ele>812.3333333333333</ele><time>2026-04-11T10:51:20.999Z</time></trkpt><trkpt lat="46.33707114724008" lon="9.555052822892183"><ele>811.6666666666666</ele><time>2026-04-11T10:51:21.999Z</time></trkpt><trkpt lat="46.33708474397872" lon="9.554791615258301"><ele>811.0</ele><time>2026-04-11T10:51:22.999Z</time></trkpt><trkpt lat="46.33709776899755" lon="9.554535238741625"><ele>811.0</ele><time>2026-04-11T10:51:24Z</time></trkpt><trkpt lat="46.337108901697604" lon="9.55430223204231"><ele>811.0</ele><time>2026-04-11T10:51:25Z</time></trkpt><trkpt lat="46.3371179567243" lon="9.554096793300635"><ele>811.0</ele><time>2026-04-11T10:51:26Z</time></trkpt><trkpt lat="46.33712386810596" lon="9.553905911668448"><ele>811.0</ele><time>2026-04-11T10:51:27Z</time></trkpt><trkpt lat="46.33712284402858" lon="9.553723151354403"><ele>810.4</ele><time>2026-04-11T10:51:28Z</time></trkpt><trkpt lat="46.33711786962416" lon="9.5535571791344"><ele>809.8</ele><time>2026-04-11T10:51:29Z</time></trkpt><trkpt lat="46.337110482334836" lon="9.55341092721191"><ele>809.1999999999999</ele><time>2026-04-11T10:51:30Z</time></trkpt><trkpt lat="46.337099209194164" lon="9.553275614378412"><ele>808.5999999999999</ele><time>2026-04-11T10:51:31Z</time></trkpt><trkpt lat="46.337083811124" lon="9.553153466552832"><ele>808.0</ele><time>2026-04-11T10:51:32Z</time></trkpt><trkpt lat="46.33706813088839" lon="9.553061330802432"><ele>807.9999999999999</ele><time>2026-04-11T10:51:33Z</time></trkpt><trkpt lat="46.337043008983564" lon="9.55290715352224"><ele>808.0</ele><time>2026-04-11T10:51:35Z</time></trkpt><trkpt lat="46.33707341527727" lon="9.552822873070891"><ele>808.0</ele><time>2026-04-11T10:51:36Z</time></trkpt><trkpt lat="46.337093923407345" lon="9.552661482109981"><ele>808.0</ele><time>2026-04-11T10:51:38Z</time></trkpt><trkpt lat="46.337048872360995" lon="9.552571999152935"><ele>807.9999999999999</ele><time>2026-04-11T10:51:39Z</time></trkpt><trkpt lat="46.33699899936445" lon="9.552496980362209"><ele>808.0</ele><time>2026-04-11T10:51:40Z</time></trkpt><trkpt lat="46.336946074873296" lon="9.55239244695132"><ele>806.75</ele><time>2026-04-11T10:51:41Z</time></trkpt><trkpt lat="46.336916816050966" lon="9.552270284739667"><ele>805.5</ele><time>2026-04-11T10:51:42Z</time></trkpt><trkpt lat="46.33691005415243" lon="9.552086660906578"><ele>804.25</ele><time>2026-04-11T10:51:43Z</time></trkpt><trkpt lat="46.336858713209615" lon="9.551878153644086"><ele>803.0</ele><time>2026-04-11T10:51:44Z</time></trkpt><trkpt lat="46.33678970448137" lon="9.551640154984133"><ele>803.0</ele><time>2026-04-11T10:51:45Z</time></trkpt><trkpt lat="46.33670416389925" lon="9.551385771115434"><ele>803.0</ele><time>2026-04-11T10:51:46Z</time></trkpt><trkpt lat="46.33660673372486" lon="9.55111674199607"><ele>803.0</ele><time>2026-04-11T10:51:47Z</time></trkpt><trkpt lat="46.336508330016336" lon="9.550849928231147"><ele>803.3333333333334</ele><time>2026-04-11T10:51:48Z</time></trkpt><trkpt lat="46.3364090670735" lon="9.550574811477066"><ele>803.6666666666667</ele><time>2026-04-11T10:51:49Z</time></trkpt><trkpt lat="46.33631763784534" lon="9.550287187407513"><ele>804.0</ele><time>2026-04-11T10:51:50Z</time></trkpt><trkpt lat="46.33623927035762" lon="9.549993009260142"><ele>799.5</ele><time>2026-04-11T10:51:51Z</time></trkpt><trkpt lat="46.33617811834811" lon="9.549679903118259"><ele>795.0</ele><time>2026-04-11T10:51:52Z</time></trkpt><trkpt lat="46.33612624347259" lon="9.549362063882834"><ele>794.0</ele><time>2026-04-11T10:51:53Z</time></trkpt><trkpt lat="46.33607735161293" lon="9.549039507097277"><ele>793.0</ele><time>2026-04-11T10:51:54Z</time></trkpt><trkpt lat="46.336061507571465" lon="9.548711059586761"><ele>792.6666666666666</ele><time>2026-04-11T10:51:55Z</time></trkpt><trkpt lat="46.336062783646234" lon="9.548388472327622"><ele>792.3333333333333</ele><time>2026-04-11T10:51:56Z</time></trkpt><trkpt lat="46.33607842711946" lon="9.548073196661255"><ele>792.0</ele><time>2026-04-11T10:51:57Z</time></trkpt><trkpt lat="46.33610727740296" lon="9.547763667076648"><ele>791.6666666666667</ele><time>2026-04-11T10:51:58Z</time></trkpt><trkpt lat="46.33614662409667" lon="9.547453163743942"><ele>791.3333333333334</ele><time>2026-04-11T10:51:59Z</time></trkpt><trkpt lat="46.336195530036505" lon="9.547153740280342"><ele>791.0</ele><time>2026-04-11T10:52:00Z</time></trkpt><trkpt lat="46.33625376093839" lon="9.546868264705546"><ele>789.3333333333334</ele><time>2026-04-11T10:52:01Z</time></trkpt><trkpt lat="46.33631262011932" lon="9.546586554459589"><ele>787.6666666666667</ele><time>2026-04-11T10:52:02Z</time></trkpt><trkpt lat="46.33636907673388" lon="9.546313159447614"><ele>786.0</ele><time>2026-04-11T10:52:03Z</time></trkpt><trkpt lat="46.33642083582099" lon="9.54604851920458"><ele>794.0</ele><time>2026-04-11T10:52:04Z</time></trkpt><trkpt lat="46.33646941134149" lon="9.545787340394167"><ele>802.0</ele><time>2026-04-11T10:52:05Z</time></trkpt><trkpt lat="46.336510838258626" lon="9.545526066028398"><ele>810.0</ele><time>2026-04-11T10:52:06Z</time></trkpt><trkpt lat="46.33654479966185" lon="9.545263465177166"><ele>810.0</ele><time>2026-04-11T10:52:07Z</time></trkpt><trkpt lat="46.33656234268563" lon="9.544993732660679"><ele>810.0</ele><time>2026-04-11T10:52:08Z</time></trkpt><trkpt lat="46.33656595702797" lon="9.54471985637669"><ele>810.0</ele><time>2026-04-11T10:52:09Z</time></trkpt><trkpt lat="46.33655049773792" lon="9.544449695673597"><ele>810.0</ele><time>2026-04-11T10:52:10Z</time></trkpt><trkpt lat="46.33652096400442" lon="9.544188143863906"><ele>810.0</ele><time>2026-04-11T10:52:11Z</time></trkpt><trkpt lat="46.336469525989926" lon="9.543935966036104"><ele>810.0</ele><time>2026-04-11T10:52:12Z</time></trkpt><trkpt lat="46.33640503960668" lon="9.543689976248228"><ele>801.6666666666667</ele><time>2026-04-11T10:52:13Z</time></trkpt><trkpt lat="46.336322381556" lon="9.543459099728823"><ele>793.3333333333334</ele><time>2026-04-11T10:52:14Z</time></trkpt><trkpt lat="46.33623157545753" lon="9.543236289738303"><ele>785.0</ele><time>2026-04-11T10:52:15Z</time></trkpt><trkpt lat="46.336144391738706" lon="9.54300107250208"><ele>787.6666666666667</ele><time>2026-04-11T10:52:16Z</time></trkpt><trkpt lat="46.3360404375148" lon="9.542775011429697"><ele>790.3333333333333</ele><time>2026-04-11T10:52:17Z</time></trkpt><trkpt lat="46.3359265294899" lon="9.54256365697333"><ele>793.0</ele><time>2026-04-11T10:52:18Z</time></trkpt><trkpt lat="46.33583607543839" lon="9.542332353688325"><ele>793.0</ele><time>2026-04-11T10:52:19Z</time></trkpt><trkpt lat="46.33577998040707" lon="9.542080670220365"><ele>793.0</ele><time>2026-04-11T10:52:20Z</time></trkpt><trkpt lat="46.33571391858939" lon="9.541836510078419"><ele>793.0</ele><time>2026-04-11T10:52:21Z</time></trkpt><trkpt lat="46.335670391323056" lon="9.541564930403577"><ele>797.0</ele><time>2026-04-11T10:52:22Z</time></trkpt><trkpt lat="46.335597037984165" lon="9.541257356544017"><ele>801.0</ele><time>2026-04-11T10:52:23Z</time></trkpt><trkpt lat="46.33549217842691" lon="9.54094111795218"><ele>796.0</ele><time>2026-04-11T10:52:24Z</time></trkpt><trkpt lat="46.335367156112156" lon="9.540619526334694"><ele>791.0</ele><time>2026-04-11T10:52:25Z</time></trkpt><trkpt lat="46.33523154682525" lon="9.540303841967173"><ele>791.0</ele><time>2026-04-11T10:52:26Z</time></trkpt><trkpt lat="46.33511532530765" lon="9.539983430895552"><ele>791.0</ele><time>2026-04-11T10:52:27Z</time></trkpt><trkpt lat="46.335000961071124" lon="9.539703705019699"><ele>795.0</ele><time>2026-04-11T10:52:28Z</time></trkpt><trkpt lat="46.33490177163936" lon="9.539409055667628"><ele>799.0</ele><time>2026-04-11T10:52:29Z</time></trkpt><trkpt lat="46.33480655768971" lon="9.539110685089948"><ele>799.0</ele><time>2026-04-11T10:52:30Z</time></trkpt><trkpt lat="46.33472592465841" lon="9.538825996113038"><ele>799.0</ele><time>2026-04-11T10:52:31Z</time></trkpt><trkpt lat="46.334646399726765" lon="9.538551975498235"><ele>799.0</ele><time>2026-04-11T10:52:32Z</time></trkpt><trkpt lat="46.33456637420683" lon="9.538292674776464"><ele>793.0</ele><time>2026-04-11T10:52:33Z</time></trkpt><trkpt lat="46.33449259794829" lon="9.53804466883538"><ele>787.0</ele><time>2026-04-11T10:52:34Z</time></trkpt><trkpt lat="46.33445888774657" lon="9.537778907844276"><ele>781.0</ele><time>2026-04-11T10:52:35Z</time></trkpt><trkpt lat="46.334428850160286" lon="9.537511831177323"><ele>779.6666666666666</ele><time>2026-04-11T10:52:36Z</time></trkpt><trkpt lat="46.3344100336389" lon="9.53724548915827"><ele>778.3333333333333</ele><time>2026-04-11T10:52:37Z</time></trkpt><trkpt lat="46.33439460295128" lon="9.53697177608956"><ele>777.0</ele><time>2026-04-11T10:52:38Z</time></trkpt><trkpt lat="46.334372416090666" lon="9.53669410667129"><ele>776.6666666666667</ele><time>2026-04-11T10:52:39Z</time></trkpt><trkpt lat="46.33437572083243" lon="9.536412635178086"><ele>776.3333333333334</ele><time>2026-04-11T10:52:40Z</time></trkpt><trkpt lat="46.334382187727535" lon="9.5361249191629"><ele>776.0</ele><time>2026-04-11T10:52:41Z</time></trkpt><trkpt lat="46.33440286408361" lon="9.53583083300798"><ele>776.0</ele><time>2026-04-11T10:52:42Z</time></trkpt><trkpt lat="46.33445603722575" lon="9.535537460973607"><ele>776.0</ele><time>2026-04-11T10:52:43Z</time></trkpt><trkpt lat="46.334490869785924" lon="9.535250118563669"><ele>776.0</ele><time>2026-04-11T10:52:44Z</time></trkpt><trkpt lat="46.33451077587167" lon="9.53495911124095"><ele>776.0</ele><time>2026-04-11T10:52:45Z</time></trkpt><trkpt lat="46.334540590759616" lon="9.53467680097537"><ele>776.0</ele><time>2026-04-11T10:52:46Z</time></trkpt><trkpt lat="46.334573841151354" lon="9.534393100332792"><ele>776.0</ele><time>2026-04-11T10:52:47Z</time></trkpt><trkpt lat="46.33460976741091" lon="9.534112141297475"><ele>774.3333333333334</ele><time>2026-04-11T10:52:48Z</time></trkpt><trkpt lat="46.334638444466705" lon="9.53383308741134"><ele>772.6666666666667</ele><time>2026-04-11T10:52:49Z</time></trkpt><trkpt lat="46.33464787634274" lon="9.533560433308667"><ele>771.0</ele><time>2026-04-11T10:52:50Z</time></trkpt><trkpt lat="46.33463474393404" lon="9.533274098848054"><ele>771.6666666666667</ele><time>2026-04-11T10:52:51Z</time></trkpt><trkpt lat="46.334592521621616" lon="9.532990405277609"><ele>772.3333333333334</ele><time>2026-04-11T10:52:52Z</time></trkpt><trkpt lat="46.334521936066174" lon="9.532728654370894"><ele>773.0</ele><time>2026-04-11T10:52:53Z</time></trkpt><trkpt lat="46.33443057244694" lon="9.532497851758617"><ele>773.0</ele><time>2026-04-11T10:52:54Z</time></trkpt><trkpt lat="46.33432503101328" lon="9.532287747199705"><ele>773.0</ele><time>2026-04-11T10:52:55Z</time></trkpt><trkpt lat="46.334198395321884" lon="9.5320985058218"><ele>773.0</ele><time>2026-04-11T10:52:56Z</time></trkpt><trkpt lat="46.33406148559043" lon="9.531921195395492"><ele>770.3333333333334</ele><time>2026-04-11T10:52:56.999Z</time></trkpt><trkpt lat="46.333923311279875" lon="9.531744503798887"><ele>767.6666666666667</ele><time>2026-04-11T10:52:57.999Z</time></trkpt><trkpt lat="46.333793149126244" lon="9.531575712383981"><ele>765.0</ele><time>2026-04-11T10:52:58.999Z</time></trkpt><trkpt lat="46.3336744793657" lon="9.531403586535925"><ele>765.3333333333334</ele><time>2026-04-11T10:52:59.999Z</time></trkpt><trkpt lat="46.33357748398405" lon="9.5311932877744"><ele>765.6666666666667</ele><time>2026-04-11T10:53:00.999Z</time></trkpt><trkpt lat="46.33352469348013" lon="9.530938115353736"><ele>766.0</ele><time>2026-04-11T10:53:01.999Z</time></trkpt><trkpt lat="46.333491065158945" lon="9.530672127974865"><ele>766.0</ele><time>2026-04-11T10:53:02.999Z</time></trkpt><trkpt lat="46.33346102786697" lon="9.530402193994838"><ele>766.0</ele><time>2026-04-11T10:53:03.999Z</time></trkpt><trkpt lat="46.33346813808574" lon="9.530125643050495"><ele>766.0</ele><time>2026-04-11T10:53:04.999Z</time></trkpt><trkpt lat="46.33349100055014" lon="9.529852865939125"><ele>766.0</ele><time>2026-04-11T10:53:05.999Z</time></trkpt><trkpt lat="46.33351477368868" lon="9.529587372855191"><ele>766.0</ele><time>2026-04-11T10:53:06.999Z</time></trkpt><trkpt lat="46.33351720235307" lon="9.529322869884048"><ele>766.0</ele><time>2026-04-11T10:53:07.999Z</time></trkpt><trkpt lat="46.33348300465493" lon="9.529049402286057"><ele>766.0</ele><time>2026-04-11T10:53:08.999Z</time></trkpt><trkpt lat="46.33343725437695" lon="9.528768811652842"><ele>766.0</ele><time>2026-04-11T10:53:09.999Z</time></trkpt><trkpt lat="46.33339017996303" lon="9.528483350534053"><ele>766.0</ele><time>2026-04-11T10:53:10.999Z</time></trkpt><trkpt lat="46.33334705465978" lon="9.528197818401898"><ele>766.6666666666667</ele><time>2026-04-11T10:53:11.999Z</time></trkpt><trkpt lat="46.33330895677944" lon="9.527914920469836"><ele>767.3333333333334</ele><time>2026-04-11T10:53:12.999Z</time></trkpt><trkpt lat="46.33327480315385" lon="9.52763827521234"><ele>768.0</ele><time>2026-04-11T10:53:13.999Z</time></trkpt><trkpt lat="46.33324348313312" lon="9.527369768054523"><ele>764.6666666666666</ele><time>2026-04-11T10:53:14.999Z</time></trkpt><trkpt lat="46.33322144105675" lon="9.52711481928905"><ele>761.3333333333333</ele><time>2026-04-11T10:53:15.999Z</time></trkpt><trkpt lat="46.3332253591755" lon="9.526874706929712"><ele>758.0</ele><time>2026-04-11T10:53:16.999Z</time></trkpt><trkpt lat="46.33329293160822" lon="9.52664977640694"><ele>754.6666666666666</ele><time>2026-04-11T10:53:17.999Z</time></trkpt><trkpt lat="46.333394924552685" lon="9.526429239425049"><ele>751.3333333333334</ele><time>2026-04-11T10:53:18.999Z</time></trkpt><trkpt lat="46.33350848199976" lon="9.526198613829449"><ele>748.0</ele><time>2026-04-11T10:53:19.999Z</time></trkpt><trkpt lat="46.33362118419156" lon="9.525974177861324"><ele>746.3333333333334</ele><time>2026-04-11T10:53:20.999Z</time></trkpt><trkpt lat="46.333719995889965" lon="9.525747194913844"><ele>744.6666666666666</ele><time>2026-04-11T10:53:21.999Z</time></trkpt><trkpt lat="46.333802580444726" lon="9.525521535967764"><ele>743.0</ele><time>2026-04-11T10:53:22.999Z</time></trkpt><trkpt lat="46.33385264534406" lon="9.525270467843558"><ele>742.0</ele><time>2026-04-11T10:53:23.999Z</time></trkpt><trkpt lat="46.33387593798496" lon="9.524996505491963"><ele>741.0</ele><time>2026-04-11T10:53:24.999Z</time></trkpt><trkpt lat="46.33386350318541" lon="9.524709750865402"><ele>740.0</ele><time>2026-04-11T10:53:25.999Z</time></trkpt><trkpt lat="46.333839385233915" lon="9.524427918344049"><ele>738.6666666666666</ele><time>2026-04-11T10:53:26.999Z</time></trkpt><trkpt lat="46.33382649547446" lon="9.52415273510518"><ele>737.3333333333334</ele><time>2026-04-11T10:53:27.999Z</time></trkpt><trkpt lat="46.33383315897632" lon="9.523876145356558"><ele>736.0</ele><time>2026-04-11T10:53:29Z</time></trkpt><trkpt lat="46.33385696930593" lon="9.523600278794696"><ele>737.6666666666667</ele><time>2026-04-11T10:53:30Z</time></trkpt><trkpt lat="46.33390929968634" lon="9.523331297568607"><ele>739.3333333333334</ele><time>2026-04-11T10:53:31Z</time></trkpt><trkpt lat="46.333978552918936" lon="9.523071905941002"><ele>741.0</ele><time>2026-04-11T10:53:32Z</time></trkpt><trkpt lat="46.33405359091312" lon="9.522818806063418"><ele>736.0</ele><time>2026-04-11T10:53:33Z</time></trkpt><trkpt lat="46.3341294632702" lon="9.52256592780812"><ele>731.0</ele><time>2026-04-11T10:53:34Z</time></trkpt><trkpt lat="46.33419586787739" lon="9.522311140394345"><ele>726.0</ele><time>2026-04-11T10:53:35Z</time></trkpt><trkpt lat="46.33424725966662" lon="9.522049422970477"><ele>722.3333333333334</ele><time>2026-04-11T10:53:36Z</time></trkpt><trkpt lat="46.334283890217655" lon="9.52178149894038"><ele>718.6666666666667</ele><time>2026-04-11T10:53:37Z</time></trkpt><trkpt lat="46.33430778955009" lon="9.521514084531576"><ele>715.0</ele><time>2026-04-11T10:53:38Z</time></trkpt><trkpt lat="46.33432195968876" lon="9.521243396996631"><ele>712.3333333333334</ele><time>2026-04-11T10:53:39Z</time></trkpt><trkpt lat="46.33432553209958" lon="9.520971591244471"><ele>709.6666666666666</ele><time>2026-04-11T10:53:40Z</time></trkpt><trkpt lat="46.334316376972694" lon="9.520700484337691"><ele>707.0</ele><time>2026-04-11T10:53:41Z</time></trkpt><trkpt lat="46.33429132593977" lon="9.520434196000116"><ele>706.0</ele><time>2026-04-11T10:53:42Z</time></trkpt><trkpt lat="46.334249730527084" lon="9.520168319203357"><ele>705.0</ele><time>2026-04-11T10:53:43Z</time></trkpt><trkpt lat="46.33419338999302" lon="9.519909200871613"><ele>704.0</ele><time>2026-04-11T10:53:44Z</time></trkpt><trkpt lat="46.33412988943433" lon="9.519656489654873"><ele>705.0</ele><time>2026-04-11T10:53:45Z</time></trkpt><trkpt lat="46.33405914711756" lon="9.519393518795571"><ele>706.0</ele><time>2026-04-11T10:53:46Z</time></trkpt><trkpt lat="46.33396748192107" lon="9.519152242351092"><ele>707.0</ele><time>2026-04-11T10:53:47Z</time></trkpt><trkpt lat="46.333891951440336" lon="9.518907141901254"><ele>701.6666666666666</ele><time>2026-04-11T10:53:48Z</time></trkpt><trkpt lat="46.33378691323057" lon="9.51865679761641"><ele>696.3333333333334</ele><time>2026-04-11T10:53:49Z</time></trkpt><trkpt lat="46.33369101266155" lon="9.518412770178413"><ele>691.0</ele><time>2026-04-11T10:53:50Z</time></trkpt><trkpt lat="46.33356200348398" lon="9.518226933008084"><ele>691.0</ele><time>2026-04-11T10:53:51Z</time></trkpt><trkpt lat="46.33346462186893" lon="9.518010834654126"><ele>691.0</ele><time>2026-04-11T10:53:52Z</time></trkpt><trkpt lat="46.33336758445476" lon="9.517793250551696"><ele>691.0</ele><time>2026-04-11T10:53:53Z</time></trkpt><trkpt lat="46.333273913195036" lon="9.51757953977434"><ele>690.6666666666667</ele><time>2026-04-11T10:53:54Z</time></trkpt><trkpt lat="46.33318730358714" lon="9.517360142455587"><ele>690.3333333333334</ele><time>2026-04-11T10:53:55Z</time></trkpt><trkpt lat="46.33311800851274" lon="9.517146993551057"><ele>690.0</ele><time>2026-04-11T10:53:56Z</time></trkpt><trkpt lat="46.333067497128724" lon="9.516925632324178"><ele>688.3333333333334</ele><time>2026-04-11T10:53:57Z</time></trkpt><trkpt lat="46.333027992263894" lon="9.516679261399842"><ele>686.6666666666667</ele><time>2026-04-11T10:53:58Z</time></trkpt><trkpt lat="46.333020422810826" lon="9.516423785651426"><ele>685.0</ele><time>2026-04-11T10:53:59Z</time></trkpt><trkpt lat="46.33299959490558" lon="9.51621747173348"><ele>684.8</ele><time>2026-04-11T10:54:00Z</time></trkpt><trkpt lat="46.33298394620893" lon="9.51604048232163"><ele>684.6</ele><time>2026-04-11T10:54:01Z</time></trkpt><trkpt lat="46.33297749729614" lon="9.515871723822915"><ele>684.4000000000001</ele><time>2026-04-11T10:54:02Z</time></trkpt><trkpt lat="46.332981416166085" lon="9.515733136669645"><ele>684.2</ele><time>2026-04-11T10:54:03Z</time></trkpt><trkpt lat="46.33299700460188" lon="9.51561295800592"><ele>684.0</ele><time>2026-04-11T10:54:04Z</time></trkpt><trkpt lat="46.33302076391921" lon="9.51549652549009"><ele>683.1666666666666</ele><time>2026-04-11T10:54:05Z</time></trkpt><trkpt lat="46.333036308896425" lon="9.515385510685402"><ele>682.3333333333334</ele><time>2026-04-11T10:54:06Z</time></trkpt><trkpt lat="46.33302284527133" lon="9.515279627588152"><ele>681.5</ele><time>2026-04-11T10:54:07Z</time></trkpt><trkpt lat="46.33300702845984" lon="9.515172175071582"><ele>680.6666666666667</ele><time>2026-04-11T10:54:08Z</time></trkpt><trkpt lat="46.332998344300584" lon="9.51505974775523"><ele>679.8333333333334</ele><time>2026-04-11T10:54:09Z</time></trkpt><trkpt lat="46.332999785002094" lon="9.51494784797626"><ele>679.0</ele><time>2026-04-11T10:54:10Z</time></trkpt><trkpt lat="46.332997227338" lon="9.514840452693951"><ele>679.0</ele><time>2026-04-11T10:54:11Z</time></trkpt><trkpt lat="46.33299159326924" lon="9.514742187538683"><ele>679.0</ele><time>2026-04-11T10:54:12Z</time></trkpt><trkpt lat="46.33298159218762" lon="9.514648099951245"><ele>679.0</ele><time>2026-04-11T10:54:13Z</time></trkpt><trkpt lat="46.33295982209181" lon="9.514506661836338"><ele>679.0</ele><time>2026-04-11T10:54:15Z</time></trkpt><trkpt lat="46.33294828190045" lon="9.514406477093887"><ele>679.0</ele><time>2026-04-11T10:54:16Z</time></trkpt><trkpt lat="46.33290801111314" lon="9.514315231608183"><ele>679.0</ele><time>2026-04-11T10:54:17Z</time></trkpt><trkpt lat="46.332903441927655" lon="9.514215843188472"><ele>679.0</ele><time>2026-04-11T10:54:18Z</time></trkpt><trkpt lat="46.332870603426656" lon="9.514122629460383"><ele>677.6666666666667</ele><time>2026-04-11T10:54:19Z</time></trkpt><trkpt lat="46.33283964012586" lon="9.514023525251403"><ele>676.3333333333334</ele><time>2026-04-11T10:54:20Z</time></trkpt><trkpt lat="46.332811847287054" lon="9.513924429236074"><ele>675.0</ele><time>2026-04-11T10:54:21Z</time></trkpt><trkpt lat="46.33278687475039" lon="9.5138324607466"><ele>673.6666666666666</ele><time>2026-04-11T10:54:22Z</time></trkpt><trkpt lat="46.332744609849264" lon="9.513679423342237"><ele>672.3333333333333</ele><time>2026-04-11T10:54:24Z</time></trkpt><trkpt lat="46.33270436972812" lon="9.51354854886795"><ele>671.0</ele><time>2026-04-11T10:54:26Z</time></trkpt><trkpt lat="46.332677662876044" lon="9.513451215513093"><ele>670.1999999999999</ele><time>2026-04-11T10:54:27Z</time></trkpt><trkpt lat="46.33265892002593" lon="9.513336948298955"><ele>669.4</ele><time>2026-04-11T10:54:28Z</time></trkpt><trkpt lat="46.33262461530485" lon="9.51320379743279"><ele>668.6</ele><time>2026-04-11T10:54:29Z</time></trkpt><trkpt lat="46.33256556506987" lon="9.513056397857373"><ele>667.8</ele><time>2026-04-11T10:54:30Z</time></trkpt><trkpt lat="46.33251728200163" lon="9.512883874051044"><ele>667.0</ele><time>2026-04-11T10:54:31Z</time></trkpt><trkpt lat="46.332470906519035" lon="9.51269863913223"><ele>666.75</ele><time>2026-04-11T10:54:32Z</time></trkpt><trkpt lat="46.3324258005841" lon="9.512494831155722"><ele>666.5</ele><time>2026-04-11T10:54:33Z</time></trkpt><trkpt lat="46.33238335919361" lon="9.512292537397204"><ele>666.25</ele><time>2026-04-11T10:54:34Z</time></trkpt><trkpt lat="46.33234978517168" lon="9.512074635332613"><ele>666.0</ele><time>2026-04-11T10:54:35Z</time></trkpt><trkpt lat="46.33232807806494" lon="9.511845397676"><ele>666.0</ele><time>2026-04-11T10:54:36Z</time></trkpt><trkpt lat="46.33230680888937" lon="9.511616957134036"><ele>666.0</ele><time>2026-04-11T10:54:37Z</time></trkpt><trkpt lat="46.3322919407071" lon="9.511398740863696"><ele>666.0</ele><time>2026-04-11T10:54:38Z</time></trkpt><trkpt lat="46.33228278595613" lon="9.51118555362746"><ele>667.5</ele><time>2026-04-11T10:54:39Z</time></trkpt><trkpt lat="46.33228866417519" lon="9.510979575367843"><ele>669.0</ele><time>2026-04-11T10:54:40Z</time></trkpt><trkpt lat="46.332308163487106" lon="9.510767224532906"><ele>670.5</ele><time>2026-04-11T10:54:41Z</time></trkpt><trkpt lat="46.332334813386645" lon="9.510549893958887"><ele>672.0</ele><time>2026-04-11T10:54:42Z</time></trkpt><trkpt lat="46.33236258786892" lon="9.51034851717083"><ele>672.6</ele><time>2026-04-11T10:54:43Z</time></trkpt><trkpt lat="46.33238661135253" lon="9.510165617364832"><ele>673.2</ele><time>2026-04-11T10:54:44Z</time></trkpt><trkpt lat="46.332410048938954" lon="9.51001414624546"><ele>673.8</ele><time>2026-04-11T10:54:45Z</time></trkpt><trkpt lat="46.332438703119635" lon="9.50988718845906"><ele>674.4</ele><time>2026-04-11T10:54:46Z</time></trkpt><trkpt lat="46.332493982788655" lon="9.50980186648478"><ele>675.0</ele><time>2026-04-11T10:54:47Z</time></trkpt><trkpt lat="46.33255323513367" lon="9.509729045903631"><ele>675.0</ele><time>2026-04-11T10:54:48Z</time></trkpt><trkpt lat="46.332578275993285" lon="9.509602020748984"><ele>675.0</ele><time>2026-04-11T10:54:49Z</time></trkpt><trkpt lat="46.33257349241656" lon="9.50942818767388"><ele>675.0</ele><time>2026-04-11T10:54:50Z</time></trkpt><trkpt lat="46.33254830235868" lon="9.509231649925583"><ele>675.0</ele><time>2026-04-11T10:54:51Z</time></trkpt><trkpt lat="46.33251775227347" lon="9.509020025483204"><ele>676.6666666666666</ele><time>2026-04-11T10:54:52Z</time></trkpt><trkpt lat="46.33247430249795" lon="9.508797715083244"><ele>678.3333333333333</ele><time>2026-04-11T10:54:53Z</time></trkpt><trkpt lat="46.33241453183117" lon="9.508568205568414"><ele>680.0</ele><time>2026-04-11T10:54:53.999Z</time></trkpt><trkpt lat="46.3323383362136" lon="9.508348000820119"><ele>681.3333333333333</ele><time>2026-04-11T10:54:54.999Z</time></trkpt><trkpt lat="46.33223887460785" lon="9.508126255924594"><ele>682.6666666666666</ele><time>2026-04-11T10:54:55.999Z</time></trkpt><trkpt lat="46.33212849634355" lon="9.507914890297027"><ele>684.0</ele><time>2026-04-11T10:54:56.999Z</time></trkpt><trkpt lat="46.33202165473726" lon="9.507692771836979"><ele>675.3333333333334</ele><time>2026-04-11T10:54:57.999Z</time></trkpt><trkpt lat="46.331939099958895" lon="9.507439011088291"><ele>666.6666666666667</ele><time>2026-04-11T10:54:58.999Z</time></trkpt><trkpt lat="46.33189423486411" lon="9.507142154874284"><ele>658.0</ele><time>2026-04-11T10:54:59.999Z</time></trkpt><trkpt lat="46.33186299806651" lon="9.506849780750027"><ele>658.0</ele><time>2026-04-11T10:55:00.999Z</time></trkpt><trkpt lat="46.33183272637851" lon="9.506567362313513"><ele>658.0</ele><time>2026-04-11T10:55:01.999Z</time></trkpt><trkpt lat="46.331803322825735" lon="9.506290929842294"><ele>658.0</ele><time>2026-04-11T10:55:02.999Z</time></trkpt><trkpt lat="46.33177385496078" lon="9.506021424675849"><ele>660.0</ele><time>2026-04-11T10:55:03.999Z</time></trkpt><trkpt lat="46.33174422383822" lon="9.505748532420718"><ele>662.0</ele><time>2026-04-11T10:55:04.999Z</time></trkpt><trkpt lat="46.3317153705316" lon="9.505472145265163"><ele>664.0</ele><time>2026-04-11T10:55:05.999Z</time></trkpt><trkpt lat="46.33168363960341" lon="9.505202773806612"><ele>664.0</ele><time>2026-04-11T10:55:06.999Z</time></trkpt><trkpt lat="46.331653551565786" lon="9.504942130772914"><ele>664.0</ele><time>2026-04-11T10:55:07.999Z</time></trkpt><trkpt lat="46.331627537448284" lon="9.504689018042725"><ele>664.0</ele><time>2026-04-11T10:55:08.999Z</time></trkpt><trkpt lat="46.33160382218349" lon="9.504444566526749"><ele>662.6666666666667</ele><time>2026-04-11T10:55:09.999Z</time></trkpt><trkpt lat="46.33158925720911" lon="9.504210604358967"><ele>661.3333333333334</ele><time>2026-04-11T10:55:10.999Z</time></trkpt><trkpt lat="46.33160052477856" lon="9.503974099398885"><ele>660.0</ele><time>2026-04-11T10:55:11.999Z</time></trkpt><trkpt lat="46.33163401371638" lon="9.503737853094963"><ele>659.0</ele><time>2026-04-11T10:55:12.999Z</time></trkpt><trkpt lat="46.33167078159597" lon="9.503502036795751"><ele>658.0</ele><time>2026-04-11T10:55:13.999Z</time></trkpt><trkpt lat="46.33169100665931" lon="9.503281100181574"><ele>657.0</ele><time>2026-04-11T10:55:14.999Z</time></trkpt><trkpt lat="46.33169089625765" lon="9.503066305026259"><ele>656.25</ele><time>2026-04-11T10:55:15.999Z</time></trkpt><trkpt lat="46.33167406654149" lon="9.502858169723321"><ele>655.5</ele><time>2026-04-11T10:55:16.999Z</time></trkpt><trkpt lat="46.33165159240848" lon="9.502662944617635"><ele>654.75</ele><time>2026-04-11T10:55:17.999Z</time></trkpt><trkpt lat="46.33163788581464" lon="9.502468550176701"><ele>654.0</ele><time>2026-04-11T10:55:18.999Z</time></trkpt><trkpt lat="46.331626072162024" lon="9.5022808232067"><ele>654.0</ele><time>2026-04-11T10:55:19.999Z</time></trkpt><trkpt lat="46.331607297758346" lon="9.50209895001268"><ele>654.0</ele><time>2026-04-11T10:55:20.999Z</time></trkpt><trkpt lat="46.331594385817795" lon="9.50192164394569"><ele>654.0</ele><time>2026-04-11T10:55:21.999Z</time></trkpt><trkpt lat="46.331582249043144" lon="9.501743092978629"><ele>654.0</ele><time>2026-04-11T10:55:22.999Z</time></trkpt><trkpt lat="46.33156937178698" lon="9.501559497072584"><ele>654.75</ele><time>2026-04-11T10:55:23.999Z</time></trkpt><trkpt lat="46.33155519949157" lon="9.501377960092906"><ele>655.5</ele><time>2026-04-11T10:55:24.999Z</time></trkpt><trkpt lat="46.33154288992414" lon="9.501201412765761"><ele>656.25</ele><time>2026-04-11T10:55:25.999Z</time></trkpt><trkpt lat="46.331530670966785" lon="9.501023711632046"><ele>657.0</ele><time>2026-04-11T10:55:26.999Z</time></trkpt><trkpt lat="46.3315160428681" lon="9.5008365971792"><ele>657.75</ele><time>2026-04-11T10:55:27.999Z</time></trkpt><trkpt lat="46.3314988932715" lon="9.500659806260437"><ele>658.5</ele><time>2026-04-11T10:55:28.999Z</time></trkpt><trkpt lat="46.33147740127429" lon="9.500488159003602"><ele>659.25</ele><time>2026-04-11T10:55:29.999Z</time></trkpt><trkpt lat="46.3314350231374" lon="9.50032346848671"><ele>660.0</ele><time>2026-04-11T10:55:30.999Z</time></trkpt><trkpt lat="46.33139500881814" lon="9.500152307489897"><ele>653.75</ele><time>2026-04-11T10:55:31.999Z</time></trkpt><trkpt lat="46.331361339921905" lon="9.499988535625135"><ele>647.5</ele><time>2026-04-11T10:55:32.999Z</time></trkpt><trkpt lat="46.33132868814975" lon="9.499832300608086"><ele>641.25</ele><time>2026-04-11T10:55:34Z</time></trkpt><trkpt lat="46.331294835492486" lon="9.499677597654808"><ele>635.0</ele><time>2026-04-11T10:55:35Z</time></trkpt><trkpt lat="46.33126167570384" lon="9.499525555937858"><ele>635.0</ele><time>2026-04-11T10:55:36Z</time></trkpt><trkpt lat="46.331232643909296" lon="9.499368597878757"><ele>635.0</ele><time>2026-04-11T10:55:37Z</time></trkpt><trkpt lat="46.33120404098086" lon="9.499204928895102"><ele>635.0</ele><time>2026-04-11T10:55:38Z</time></trkpt><trkpt lat="46.331184015996804" lon="9.499025150641803"><ele>635.0</ele><time>2026-04-11T10:55:39Z</time></trkpt><trkpt lat="46.33117126894435" lon="9.498835769983001"><ele>634.5</ele><time>2026-04-11T10:55:40Z</time></trkpt><trkpt lat="46.33116092759455" lon="9.498651531235808"><ele>634.0</ele><time>2026-04-11T10:55:41Z</time></trkpt><trkpt lat="46.33115203114245" lon="9.498463332804983"><ele>633.5</ele><time>2026-04-11T10:55:42Z</time></trkpt><trkpt lat="46.331145048843545" lon="9.498280978561569"><ele>633.0</ele><time>2026-04-11T10:55:43Z</time></trkpt><trkpt lat="46.33113866646165" lon="9.498115850751399"><ele>633.0</ele><time>2026-04-11T10:55:44Z</time></trkpt><trkpt lat="46.33113074492605" lon="9.497966113832236"><ele>633.0</ele><time>2026-04-11T10:55:45Z</time></trkpt><trkpt lat="46.331123319413415" lon="9.497824043756353"><ele>633.0</ele><time>2026-04-11T10:55:46Z</time></trkpt><trkpt lat="46.33111804279706" lon="9.497682271920358"><ele>633.0</ele><time>2026-04-11T10:55:47Z</time></trkpt><trkpt lat="46.331110329822955" lon="9.497537839557607"><ele>633.0</ele><time>2026-04-11T10:55:48Z</time></trkpt><trkpt lat="46.33110983194118" lon="9.497379128746632"><ele>633.1999999999999</ele><time>2026-04-11T10:55:49Z</time></trkpt><trkpt lat="46.331113800067584" lon="9.497222404583175"><ele>633.4</ele><time>2026-04-11T10:55:50Z</time></trkpt><trkpt lat="46.331128700915436" lon="9.49706645890585"><ele>633.5999999999999</ele><time>2026-04-11T10:55:51Z</time></trkpt><trkpt lat="46.33115344113122" lon="9.49691015391217"><ele>633.8</ele><time>2026-04-11T10:55:52Z</time></trkpt><trkpt lat="46.331183133581156" lon="9.496753352525047"><ele>634.0</ele><time>2026-04-11T10:55:53Z</time></trkpt><trkpt lat="46.331216991124755" lon="9.496590079410485"><ele>634.0</ele><time>2026-04-11T10:55:54Z</time></trkpt><trkpt lat="46.33124848234488" lon="9.496437664623091"><ele>634.0</ele><time>2026-04-11T10:55:55Z</time></trkpt><trkpt lat="46.331279036903474" lon="9.496280095728821"><ele>634.0</ele><time>2026-04-11T10:55:56Z</time></trkpt><trkpt lat="46.33130581448371" lon="9.49611371837343"><ele>634.0</ele><time>2026-04-11T10:55:57Z</time></trkpt><trkpt lat="46.331327893208716" lon="9.495945968961028"><ele>634.0</ele><time>2026-04-11T10:55:58Z</time></trkpt><trkpt lat="46.33134201343533" lon="9.49578876020353"><ele>634.0</ele><time>2026-04-11T10:55:59Z</time></trkpt><trkpt lat="46.33134747387804" lon="9.49563812187866"><ele>634.0</ele><time>2026-04-11T10:56:00Z</time></trkpt><trkpt lat="46.331346637220264" lon="9.49549184209554"><ele>634.0</ele><time>2026-04-11T10:56:01Z</time></trkpt><trkpt lat="46.33134407306827" lon="9.49533383693"><ele>634.0</ele><time>2026-04-11T10:56:02Z</time></trkpt><trkpt lat="46.331340803409326" lon="9.49517609863098"><ele>634.0</ele><time>2026-04-11T10:56:03Z</time></trkpt><trkpt lat="46.331335535750824" lon="9.495024962918883"><ele>634.0</ele><time>2026-04-11T10:56:04Z</time></trkpt><trkpt lat="46.331327425420014" lon="9.494881588810324"><ele>634.0</ele><time>2026-04-11T10:56:05Z</time></trkpt><trkpt lat="46.33131694065701" lon="9.494739333163373"><ele>634.0</ele><time>2026-04-11T10:56:06Z</time></trkpt><trkpt lat="46.33130727250178" lon="9.494600726364919"><ele>634.0</ele><time>2026-04-11T10:56:07Z</time></trkpt><trkpt lat="46.33129272108574" lon="9.494461917852213"><ele>634.0</ele><time>2026-04-11T10:56:08Z</time></trkpt><trkpt lat="46.33127667655357" lon="9.494322930845147"><ele>634.0</ele><time>2026-04-11T10:56:09Z</time></trkpt><trkpt lat="46.33125179114977" lon="9.49416925655964"><ele>634.0</ele><time>2026-04-11T10:56:10Z</time></trkpt><trkpt lat="46.33122500225313" lon="9.494008344779008"><ele>634.0</ele><time>2026-04-11T10:56:11Z</time></trkpt><trkpt lat="46.331193958954486" lon="9.493836233295077"><ele>634.0</ele><time>2026-04-11T10:56:12Z</time></trkpt><trkpt lat="46.33116470385269" lon="9.49366494860549"><ele>633.5</ele><time>2026-04-11T10:56:13Z</time></trkpt><trkpt lat="46.33114376599486" lon="9.493489639334573"><ele>633.0</ele><time>2026-04-11T10:56:14Z</time></trkpt><trkpt lat="46.33113784481759" lon="9.493314229142353"><ele>632.5</ele><time>2026-04-11T10:56:15Z</time></trkpt><trkpt lat="46.33114665935937" lon="9.49314743275086"><ele>632.0</ele><time>2026-04-11T10:56:16Z</time></trkpt><trkpt lat="46.33117032886799" lon="9.492990123318052"><ele>631.6</ele><time>2026-04-11T10:56:17Z</time></trkpt><trkpt lat="46.3312007715276" lon="9.492838916183922"><ele>631.2</ele><time>2026-04-11T10:56:18Z</time></trkpt><trkpt lat="46.3312315194935" lon="9.492688642425472"><ele>630.8</ele><time>2026-04-11T10:56:19Z</time></trkpt><trkpt lat="46.33126142098952" lon="9.492544335987303"><ele>630.4</ele><time>2026-04-11T10:56:20Z</time></trkpt><trkpt lat="46.331290948375965" lon="9.492405978562926"><ele>630.0</ele><time>2026-04-11T10:56:21Z</time></trkpt><trkpt lat="46.33132326757703" lon="9.492276724870125"><ele>630.0</ele><time>2026-04-11T10:56:22Z</time></trkpt><trkpt lat="46.331348481502125" lon="9.49215290571124"><ele>630.0</ele><time>2026-04-11T10:56:23Z</time></trkpt><trkpt lat="46.331372048678425" lon="9.492039923059425"><ele>630.0</ele><time>2026-04-11T10:56:24Z</time></trkpt><trkpt lat="46.33137695633931" lon="9.491922743077078"><ele>630.0</ele><time>2026-04-11T10:56:25Z</time></trkpt><trkpt lat="46.331365461070824" lon="9.491799216763164"><ele>630.0</ele><time>2026-04-11T10:56:26Z</time></trkpt><trkpt lat="46.33135971262036" lon="9.491666881071216"><ele>630.0</ele><time>2026-04-11T10:56:27Z</time></trkpt><trkpt lat="46.3313115803352" lon="9.491541873550863"><ele>631.4</ele><time>2026-04-11T10:56:28Z</time></trkpt><trkpt lat="46.33122575861394" lon="9.491458973972755"><ele>632.8</ele><time>2026-04-11T10:56:29Z</time></trkpt><trkpt lat="46.33113513878874" lon="9.491384179166056"><ele>634.2</ele><time>2026-04-11T10:56:30Z</time></trkpt><trkpt lat="46.331033690555344" lon="9.491328465928708"><ele>635.6</ele><time>2026-04-11T10:56:31Z</time></trkpt><trkpt lat="46.330938208995136" lon="9.491255217664051"><ele>637.0</ele><time>2026-04-11T10:56:32Z</time></trkpt><trkpt lat="46.33083870400119" lon="9.491210675956715"><ele>638.8</ele><time>2026-04-11T10:56:33Z</time></trkpt><trkpt lat="46.33074072438683" lon="9.491166817060941"><ele>640.6</ele><time>2026-04-11T10:56:34Z</time></trkpt><trkpt lat="46.330642799807556" lon="9.491118393552515"><ele>642.4</ele><time>2026-04-11T10:56:35Z</time></trkpt><trkpt lat="46.33055248714207" lon="9.491060274595133"><ele>644.1999999999999</ele><time>2026-04-11T10:56:36Z</time></trkpt><trkpt lat="46.330460126456245" lon="9.490999772402748"><ele>646.0</ele><time>2026-04-11T10:56:37Z</time></trkpt><trkpt lat="46.33040215252787" lon="9.490871906193378"><ele>642.0</ele><time>2026-04-11T10:56:38Z</time></trkpt><trkpt lat="46.33034970493675" lon="9.490752122001847"><ele>638.0</ele><time>2026-04-11T10:56:39Z</time></trkpt><trkpt lat="46.33031560558853" lon="9.490627492668146"><ele>634.0</ele><time>2026-04-11T10:56:40Z</time></trkpt><trkpt lat="46.33027263774922" lon="9.490505957134886"><ele>630.0</ele><time>2026-04-11T10:56:41Z</time></trkpt><trkpt lat="46.330285514478184" lon="9.490355171770705"><ele>626.0</ele><time>2026-04-11T10:56:42Z</time></trkpt><trkpt lat="46.33026464617775" lon="9.490195073929163"><ele>625.8333333333333</ele><time>2026-04-11T10:56:43Z</time></trkpt><trkpt lat="46.330260277770115" lon="9.490044888464098"><ele>625.6666666666666</ele><time>2026-04-11T10:56:44Z</time></trkpt><trkpt lat="46.33027441361889" lon="9.489904558789537"><ele>625.5</ele><time>2026-04-11T10:56:45Z</time></trkpt><trkpt lat="46.33027761887882" lon="9.48977911251033"><ele>625.3333333333334</ele><time>2026-04-11T10:56:46Z</time></trkpt><trkpt lat="46.33029073362253" lon="9.489660785109692"><ele>625.1666666666667</ele><time>2026-04-11T10:56:47Z</time></trkpt><trkpt lat="46.33029341948186" lon="9.489551260295174"><ele>625.0</ele><time>2026-04-11T10:56:48Z</time></trkpt><trkpt lat="46.330325934921085" lon="9.489415001200861"><ele>624.2</ele><time>2026-04-11T10:56:50Z</time></trkpt><trkpt lat="46.33036191334137" lon="9.48928079928856"><ele>623.4</ele><time>2026-04-11T10:56:52Z</time></trkpt><trkpt lat="46.330415044088404" lon="9.489142755492635"><ele>622.6</ele><time>2026-04-11T10:56:54Z</time></trkpt><trkpt lat="46.33044710092486" lon="9.489035335570295"><ele>621.8</ele><time>2026-04-11T10:56:55Z</time></trkpt><trkpt lat="46.33049050588833" lon="9.488927109221384"><ele>621.0</ele><time>2026-04-11T10:56:55.999Z</time></trkpt><trkpt lat="46.33053322996459" lon="9.488810492144529"><ele>622.9999999999999</ele><time>2026-04-11T10:56:56.999Z</time></trkpt><trkpt lat="46.330576343061814" lon="9.488710325872553"><ele>625.0</ele><time>2026-04-11T10:56:57.999Z</time></trkpt><trkpt lat="46.33061743423868" lon="9.488622775461504"><ele>627.0</ele><time>2026-04-11T10:56:58.999Z</time></trkpt><trkpt lat="46.33064140671852" lon="9.488538000780911"><ele>629.0</ele><time>2026-04-11T10:56:59.999Z</time></trkpt><trkpt lat="46.3306701763834" lon="9.488454797916662"><ele>631.0</ele><time>2026-04-11T10:57:00.999Z</time></trkpt><trkpt lat="46.33070482470579" lon="9.488358957693041"><ele>632.9999999999999</ele><time>2026-04-11T10:57:01.999Z</time></trkpt><trkpt lat="46.33074307656662" lon="9.488252983249996"><ele>635.0</ele><time>2026-04-11T10:57:02.999Z</time></trkpt><trkpt lat="46.33077955155579" lon="9.488143013317368"><ele>635.0</ele><time>2026-04-11T10:57:03.999Z</time></trkpt><trkpt lat="46.330818333427516" lon="9.48802018434475"><ele>635.0</ele><time>2026-04-11T10:57:04.999Z</time></trkpt><trkpt lat="46.330865866937565" lon="9.487883392055135"><ele>635.0</ele><time>2026-04-11T10:57:05.999Z</time></trkpt><trkpt lat="46.33091651423567" lon="9.487737549752799"><ele>635.0</ele><time>2026-04-11T10:57:06.999Z</time></trkpt><trkpt lat="46.330972388841786" lon="9.487606866399899"><ele>635.0</ele><time>2026-04-11T10:57:07.999Z</time></trkpt><trkpt lat="46.33101901272831" lon="9.48747011665647"><ele>634.0</ele><time>2026-04-11T10:57:08.999Z</time></trkpt><trkpt lat="46.331050446946826" lon="9.487331754253786"><ele>633.0</ele><time>2026-04-11T10:57:09.999Z</time></trkpt><trkpt lat="46.33104404141687" lon="9.487189985469415"><ele>632.0</ele><time>2026-04-11T10:57:10.999Z</time></trkpt><trkpt lat="46.331003360036384" lon="9.487065071237096"><ele>631.0</ele><time>2026-04-11T10:57:11.999Z</time></trkpt><trkpt lat="46.330951420982394" lon="9.486955645252754"><ele>630.0</ele><time>2026-04-11T10:57:12.999Z</time></trkpt><trkpt lat="46.330882400421956" lon="9.486854198574258"><ele>630.0</ele><time>2026-04-11T10:57:13.999Z</time></trkpt><trkpt lat="46.33079360557108" lon="9.48675687950865"><ele>630.0</ele><time>2026-04-11T10:57:14.999Z</time></trkpt><trkpt lat="46.330703872638985" lon="9.486669249159924"><ele>630.0</ele><time>2026-04-11T10:57:15.999Z</time></trkpt><trkpt lat="46.33062492161307" lon="9.486556071473528"><ele>630.0</ele><time>2026-04-11T10:57:16.999Z</time></trkpt><trkpt lat="46.33055489302659" lon="9.486434359164944"><ele>630.0</ele><time>2026-04-11T10:57:17.999Z</time></trkpt><trkpt lat="46.330488063200185" lon="9.486292617385697"><ele>625.0</ele><time>2026-04-11T10:57:18.999Z</time></trkpt><trkpt lat="46.330420100562876" lon="9.486144063604193"><ele>620.0</ele><time>2026-04-11T10:57:19.999Z</time></trkpt><trkpt lat="46.33035655972101" lon="9.485976057814634"><ele>615.0</ele><time>2026-04-11T10:57:20.999Z</time></trkpt><trkpt lat="46.33029282642366" lon="9.485798708665461"><ele>610.0</ele><time>2026-04-11T10:57:21.999Z</time></trkpt><trkpt lat="46.330235182431906" lon="9.485618679632442"><ele>610.0</ele><time>2026-04-11T10:57:22.999Z</time></trkpt><trkpt lat="46.33019654128526" lon="9.485440331071214"><ele>610.0</ele><time>2026-04-11T10:57:23.999Z</time></trkpt><trkpt lat="46.33017500704415" lon="9.485261206890193"><ele>610.0</ele><time>2026-04-11T10:57:24.999Z</time></trkpt><trkpt lat="46.330167974963395" lon="9.485087007558354"><ele>610.0</ele><time>2026-04-11T10:57:25.999Z</time></trkpt><trkpt lat="46.33016277050815" lon="9.48492393361705"><ele>612.6</ele><time>2026-04-11T10:57:26.999Z</time></trkpt><trkpt lat="46.33014138625884" lon="9.484778285633768"><ele>615.2</ele><time>2026-04-11T10:57:27.999Z</time></trkpt><trkpt lat="46.330100054500726" lon="9.484645220021783"><ele>617.8</ele><time>2026-04-11T10:57:28.999Z</time></trkpt><trkpt lat="46.33003769188216" lon="9.484533766697371"><ele>620.4</ele><time>2026-04-11T10:57:29.999Z</time></trkpt><trkpt lat="46.32995323584025" lon="9.48445693741464"><ele>623.0</ele><time>2026-04-11T10:57:30.999Z</time></trkpt><trkpt lat="46.32987340469353" lon="9.484361062161724"><ele>623.8333333333333</ele><time>2026-04-11T10:57:31.999Z</time></trkpt><trkpt lat="46.32979115931975" lon="9.484273748131786"><ele>624.6666666666666</ele><time>2026-04-11T10:57:32.999Z</time></trkpt><trkpt lat="46.32971167892925" lon="9.484189369466161"><ele>625.5</ele><time>2026-04-11T10:57:33.999Z</time></trkpt><trkpt lat="46.32963323213993" lon="9.484131375713295"><ele>626.3333333333334</ele><time>2026-04-11T10:57:34.999Z</time></trkpt><trkpt lat="46.3295851742019" lon="9.484053811954787"><ele>627.1666666666667</ele><time>2026-04-11T10:57:35.999Z</time></trkpt><trkpt lat="46.32956651225318" lon="9.48395881850492"><ele>628.0</ele><time>2026-04-11T10:57:36.999Z</time></trkpt><trkpt lat="46.32957552059648" lon="9.483852183328285"><ele>626.3333333333334</ele><time>2026-04-11T10:57:37.999Z</time></trkpt><trkpt lat="46.3295991548862" lon="9.48375059476544"><ele>624.6666666666667</ele><time>2026-04-11T10:57:38.999Z</time></trkpt><trkpt lat="46.32963032946165" lon="9.483662997832301"><ele>623.0</ele><time>2026-04-11T10:57:40Z</time></trkpt><trkpt lat="46.329675557961494" lon="9.48359574281099"><ele>621.3333333333334</ele><time>2026-04-11T10:57:41Z</time></trkpt><trkpt lat="46.329740333955826" lon="9.483532873091404"><ele>619.6666666666666</ele><time>2026-04-11T10:57:42Z</time></trkpt><trkpt lat="46.32982460530094" lon="9.483491167099226"><ele>618.0</ele><time>2026-04-11T10:57:43Z</time></trkpt><trkpt lat="46.32992029479207" lon="9.483470784155319"><ele>618.0</ele><time>2026-04-11T10:57:44Z</time></trkpt><trkpt lat="46.33001653284308" lon="9.48346073134014"><ele>618.0</ele><time>2026-04-11T10:57:45Z</time></trkpt><trkpt lat="46.330115382526536" lon="9.483441365908263"><ele>618.0</ele><time>2026-04-11T10:57:46Z</time></trkpt><trkpt lat="46.330219851893325" lon="9.48342248738393"><ele>618.0</ele><time>2026-04-11T10:57:47Z</time></trkpt><trkpt lat="46.33031906977599" lon="9.483398091140208"><ele>618.0</ele><time>2026-04-11T10:57:48Z</time></trkpt><trkpt lat="46.33040493677896" lon="9.483349851377293"><ele>618.0</ele><time>2026-04-11T10:57:49Z</time></trkpt><trkpt lat="46.33048925624084" lon="9.48326044781987"><ele>618.0</ele><time>2026-04-11T10:57:50Z</time></trkpt><trkpt lat="46.33056483242638" lon="9.483128133237232"><ele>618.0</ele><time>2026-04-11T10:57:51Z</time></trkpt><trkpt lat="46.33064797685789" lon="9.482998106026033"><ele>618.0</ele><time>2026-04-11T10:57:52Z</time></trkpt><trkpt lat="46.330732901384415" lon="9.482875900785789"><ele>618.0</ele><time>2026-04-11T10:57:53Z</time></trkpt><trkpt lat="46.33081642398941" lon="9.482756011610432"><ele>618.0</ele><time>2026-04-11T10:57:54Z</time></trkpt><trkpt lat="46.33089984134117" lon="9.482643173797621"><ele>618.0</ele><time>2026-04-11T10:57:55Z</time></trkpt><trkpt lat="46.33096682628161" lon="9.482531020089338"><ele>618.0</ele><time>2026-04-11T10:57:56Z</time></trkpt><trkpt lat="46.331019747590396" lon="9.482426816352316"><ele>618.0</ele><time>2026-04-11T10:57:57Z</time></trkpt><trkpt lat="46.33105377098228" lon="9.4823026270805"><ele>618.0</ele><time>2026-04-11T10:57:58Z</time></trkpt><trkpt lat="46.3310594478683" lon="9.482168860646935"><ele>618.0</ele><time>2026-04-11T10:57:59Z</time></trkpt><trkpt lat="46.331069184084456" lon="9.482031906288285"><ele>618.0</ele><time>2026-04-11T10:58:00Z</time></trkpt><trkpt lat="46.33102314070399" lon="9.481906210587077"><ele>618.0</ele><time>2026-04-11T10:58:01Z</time></trkpt><trkpt lat="46.33098428958444" lon="9.481787647122559"><ele>618.0</ele><time>2026-04-11T10:58:02Z</time></trkpt><trkpt lat="46.33094420579856" lon="9.481688008690698"><ele>618.0</ele><time>2026-04-11T10:58:03Z</time></trkpt><trkpt lat="46.330911871163266" lon="9.481599005498305"><ele>618.0</ele><time>2026-04-11T10:58:04Z</time></trkpt><trkpt lat="46.33084927904787" lon="9.48144647869353"><ele>618.0</ele><time>2026-04-11T10:58:06Z</time></trkpt><trkpt lat="46.33082837348962" lon="9.481353861917412"><ele>618.0</ele><time>2026-04-11T10:58:07Z</time></trkpt><trkpt lat="46.33078348677246" lon="9.481281447515574"><ele>618.0</ele><time>2026-04-11T10:58:08Z</time></trkpt><trkpt lat="46.330752652841205" lon="9.481199629093684"><ele>618.0</ele><time>2026-04-11T10:58:09Z</time></trkpt><trkpt lat="46.33071921737932" lon="9.48111670788915"><ele>618.0</ele><time>2026-04-11T10:58:10Z</time></trkpt><trkpt lat="46.33067973583949" lon="9.481013358741343"><ele>618.0</ele><time>2026-04-11T10:58:11Z</time></trkpt><trkpt lat="46.33063802616821" lon="9.480897875862569"><ele>618.0</ele><time>2026-04-11T10:58:12Z</time></trkpt><trkpt lat="46.330593524974695" lon="9.480781369612034"><ele>618.0</ele><time>2026-04-11T10:58:13Z</time></trkpt><trkpt lat="46.33055110462814" lon="9.48065944400297"><ele>618.0</ele><time>2026-04-11T10:58:14Z</time></trkpt><trkpt lat="46.33050677211401" lon="9.480543430575162"><ele>618.0</ele><time>2026-04-11T10:58:15Z</time></trkpt><trkpt lat="46.33046686476649" lon="9.48044819696569"><ele>618.0</ele><time>2026-04-11T10:58:16Z</time></trkpt><trkpt lat="46.33043321617134" lon="9.480319294160376"><ele>618.0</ele><time>2026-04-11T10:58:18Z</time></trkpt><trkpt lat="46.33046956504192" lon="9.480414773076024"><ele>618.0</ele><time>2026-04-11T10:58:54.999Z</time></trkpt><trkpt lat="46.33050910475797" lon="9.480518633631425"><ele>618.0</ele><time>2026-04-11T10:59:09.999Z</time></trkpt><trkpt lat="46.33055318194367" lon="9.480637070544962"><ele>618.0</ele><time>2026-04-11T10:59:10.999Z</time></trkpt><trkpt lat="46.33056637734703" lon="9.480774600567324"><ele>618.0</ele><time>2026-04-11T10:59:11.999Z</time></trkpt><trkpt lat="46.33060674585213" lon="9.48084889677879"><ele>618.0</ele><time>2026-04-11T10:59:12.999Z</time></trkpt><trkpt lat="46.330653158675624" lon="9.480957831964341"><ele>618.0</ele><time>2026-04-11T10:59:13.999Z</time></trkpt><trkpt lat="46.33069716812316" lon="9.481067390259998"><ele>618.0</ele><time>2026-04-11T10:59:14.999Z</time></trkpt><trkpt lat="46.33073984129255" lon="9.481179188227124"><ele>618.0</ele><time>2026-04-11T10:59:15.999Z</time></trkpt><trkpt lat="46.33077077596403" lon="9.481279203563373"><ele>618.0</ele><time>2026-04-11T10:59:16.999Z</time></trkpt><trkpt lat="46.330795764159525" lon="9.481371190569636"><ele>618.0</ele><time>2026-04-11T10:59:17.999Z</time></trkpt><trkpt lat="46.3308586796774" lon="9.481511367415015"><ele>617.3333333333334</ele><time>2026-04-11T10:59:19.999Z</time></trkpt><trkpt lat="46.33091607813934" lon="9.481575934412467"><ele>616.6666666666666</ele><time>2026-04-11T10:59:21.999Z</time></trkpt><trkpt lat="46.33097028793021" lon="9.481509765675963"><ele>616.0</ele><time>2026-04-11T10:59:24.999Z</time></trkpt><trkpt lat="46.331007272346014" lon="9.481434250946126"><ele>615.3333333333333</ele><time>2026-04-11T10:59:38.999Z</time></trkpt><trkpt lat="46.331077024633" lon="9.48145790405415"><ele>614.6666666666666</ele><time>2026-04-11T10:59:59Z</time></trkpt><trkpt lat="46.331172938028374" lon="9.481388890803117"><ele>614.0</ele><time>2026-04-11T11:03:34.999Z</time></trkpt><trkpt lat="46.331163994278356" lon="9.481502030446826"><ele>614.0</ele><time>2026-04-11T11:32:20.999Z</time></trkpt><trkpt lat="46.33122486172445" lon="9.481547228258156"><ele>614.0</ele><time>2026-04-11T11:32:30.999Z</time></trkpt><trkpt lat="46.331316306123" lon="9.48147064072627"><ele>614.0</ele><time>2026-04-11T11:32:31.999Z</time></trkpt><trkpt lat="46.33139603318074" lon="9.481432687314577"><ele>614.0</ele><time>2026-04-11T11:32:32.999Z</time></trkpt><trkpt lat="46.331685911820315" lon="9.481967206153147"><ele>619.4</ele><time>2026-04-11T11:32:35.068Z</time></trkpt><trkpt lat="46.331726692610935" lon="9.482059281228194"><ele>624.8</ele><time>2026-04-11T11:32:36.038Z</time></trkpt><trkpt lat="46.331702462992695" lon="9.482215676076073"><ele>630.1999999999999</ele><time>2026-04-11T11:32:37.032Z</time></trkpt><trkpt lat="46.33174557898274" lon="9.482307895717582"><ele>635.5999999999999</ele><time>2026-04-11T11:32:38.037Z</time></trkpt><trkpt lat="46.33182170863312" lon="9.482390395002733"><ele>641.0</ele><time>2026-04-11T11:32:40.031Z</time></trkpt><trkpt lat="46.3318699198839" lon="9.482539023587217"><ele>641.5999999999999</ele><time>2026-04-11T11:32:42.033Z</time></trkpt><trkpt lat="46.331921665445925" lon="9.482595747598053"><ele>642.2</ele><time>2026-04-11T11:32:43.033Z</time></trkpt><trkpt lat="46.331817877039796" lon="9.482395824092672"><ele>642.8</ele><time>2026-04-11T11:32:44.035Z</time></trkpt><trkpt lat="46.331730871785915" lon="9.482272875412892"><ele>643.4000000000001</ele><time>2026-04-11T11:32:45.032Z</time></trkpt><trkpt lat="46.331683327419405" lon="9.482192097196915"><ele>644.0</ele><time>2026-04-11T11:32:46.033Z</time></trkpt><trkpt lat="46.331256086961154" lon="9.481672445574489"><ele>639.0</ele><time>2026-04-11T11:33:05.033Z</time></trkpt><trkpt lat="46.331193314567706" lon="9.481583262289679"><ele>634.0</ele><time>2026-04-11T11:33:06.999Z</time></trkpt><trkpt lat="46.33114970909123" lon="9.481440689026341"><ele>629.0</ele><time>2026-04-11T11:33:16.999Z</time></trkpt><trkpt lat="46.331087277330944" lon="9.481421880926213"><ele>624.0</ele><time>2026-04-11T11:34:32.999Z</time></trkpt><trkpt lat="46.331037755471606" lon="9.481481953155344"><ele>619.0</ele><time>2026-04-11T11:34:39.999Z</time></trkpt><trkpt lat="46.330968852068004" lon="9.481488841369076"><ele>614.0</ele><time>2026-04-11T11:36:39.999Z</time></trkpt><trkpt lat="46.33088644549243" lon="9.4815167457689"><ele>614.0</ele><time>2026-04-11T11:36:42.999Z</time></trkpt><trkpt lat="46.33082798153728" lon="9.481464398489782"><ele>614.0</ele><time>2026-04-11T11:36:43.999Z</time></trkpt><trkpt lat="46.33078761569075" lon="9.481356639592846"><ele>614.0</ele><time>2026-04-11T11:36:44.999Z</time></trkpt><trkpt lat="46.33074877566594" lon="9.481234679271932"><ele>614.0</ele><time>2026-04-11T11:36:45.999Z</time></trkpt><trkpt lat="46.330725472658244" lon="9.481086431348109"><ele>614.0</ele><time>2026-04-11T11:36:46.999Z</time></trkpt><trkpt lat="46.330668460458014" lon="9.480937218953137"><ele>615.0</ele><time>2026-04-11T11:36:47.999Z</time></trkpt><trkpt lat="46.33060950157214" lon="9.480782349538568"><ele>616.0</ele><time>2026-04-11T11:36:48.999Z</time></trkpt><trkpt lat="46.330545501627526" lon="9.480614238587826"><ele>617.0</ele><time>2026-04-11T11:36:49.999Z</time></trkpt><trkpt lat="46.33047950044325" lon="9.480440870912817"><ele>618.0</ele><time>2026-04-11T11:36:50.999Z</time></trkpt><trkpt lat="46.33041212861895" lon="9.48026390293271"><ele>615.5</ele><time>2026-04-11T11:36:51.999Z</time></trkpt><trkpt lat="46.3303489709334" lon="9.480098573582776"><ele>613.0</ele><time>2026-04-11T11:36:52.999Z</time></trkpt><trkpt lat="46.330290103056406" lon="9.47994458751321"><ele>610.5</ele><time>2026-04-11T11:36:53.999Z</time></trkpt><trkpt lat="46.330234613534664" lon="9.479799438509671"><ele>608.0</ele><time>2026-04-11T11:36:54.999Z</time></trkpt><trkpt lat="46.33017627969135" lon="9.47964684944396"><ele>608.75</ele><time>2026-04-11T11:36:55.999Z</time></trkpt><trkpt lat="46.33011095921989" lon="9.47947598471675"><ele>609.5</ele><time>2026-04-11T11:36:56.999Z</time></trkpt><trkpt lat="46.33004220013918" lon="9.479296125422897"><ele>610.25</ele><time>2026-04-11T11:36:57.999Z</time></trkpt><trkpt lat="46.32997659914886" lon="9.47912452689041"><ele>611.0</ele><time>2026-04-11T11:36:58.999Z</time></trkpt><trkpt lat="46.32991440747937" lon="9.478961846641026"><ele>611.0</ele><time>2026-04-11T11:36:59.999Z</time></trkpt><trkpt lat="46.32984078362741" lon="9.4788194795718"><ele>611.0</ele><time>2026-04-11T11:37:00.999Z</time></trkpt><trkpt lat="46.32978096039653" lon="9.478671700930512"><ele>611.0</ele><time>2026-04-11T11:37:01.999Z</time></trkpt><trkpt lat="46.329722860099004" lon="9.478548778699423"><ele>611.0</ele><time>2026-04-11T11:37:02.999Z</time></trkpt><trkpt lat="46.32965669546665" lon="9.478446571457457"><ele>611.0</ele><time>2026-04-11T11:37:03.999Z</time></trkpt><trkpt lat="46.32959407981627" lon="9.478323465775071"><ele>610.4</ele><time>2026-04-11T11:37:04.999Z</time></trkpt><trkpt lat="46.32951838838695" lon="9.478223080290524"><ele>609.8</ele><time>2026-04-11T11:37:05.999Z</time></trkpt><trkpt lat="46.329442059909205" lon="9.478118267195562"><ele>609.1999999999999</ele><time>2026-04-11T11:37:06.999Z</time></trkpt><trkpt lat="46.32936930508949" lon="9.478023536910863"><ele>608.6</ele><time>2026-04-11T11:37:07.999Z</time></trkpt><trkpt lat="46.329294939983775" lon="9.477922681504788"><ele>608.0</ele><time>2026-04-11T11:37:08.999Z</time></trkpt><trkpt lat="46.32922240245776" lon="9.477819340632518"><ele>608.0</ele><time>2026-04-11T11:37:09.999Z</time></trkpt><trkpt lat="46.329150908953345" lon="9.477712706999956"><ele>608.0</ele><time>2026-04-11T11:37:10.999Z</time></trkpt><trkpt lat="46.329079920600584" lon="9.477606970597785"><ele>608.0</ele><time>2026-04-11T11:37:11.999Z</time></trkpt><trkpt lat="46.32901050325873" lon="9.477501833285313"><ele>608.0</ele><time>2026-04-11T11:37:12.999Z</time></trkpt><trkpt lat="46.32895335238025" lon="9.477389289914155"><ele>608.0</ele><time>2026-04-11T11:37:13.999Z</time></trkpt><trkpt lat="46.3289000617481" lon="9.477272472653324"><ele>603.8</ele><time>2026-04-11T11:37:14.999Z</time></trkpt><trkpt lat="46.32885350087307" lon="9.477141950752252"><ele>599.5999999999999</ele><time>2026-04-11T11:37:15.999Z</time></trkpt><trkpt lat="46.32881306557543" lon="9.477002822449885"><ele>595.4000000000001</ele><time>2026-04-11T11:37:16.999Z</time></trkpt><trkpt lat="46.32877541177723" lon="9.476857055451125"><ele>591.2</ele><time>2026-04-11T11:37:17.999Z</time></trkpt><trkpt lat="46.328738557753496" lon="9.47671145857723"><ele>587.0</ele><time>2026-04-11T11:37:18.999Z</time></trkpt><trkpt lat="46.3287110383136" lon="9.476568990145633"><ele>587.0</ele><time>2026-04-11T11:37:19.999Z</time></trkpt><trkpt lat="46.328684378622604" lon="9.476419784310204"><ele>587.0</ele><time>2026-04-11T11:37:20.999Z</time></trkpt><trkpt lat="46.32865531302807" lon="9.47626611104976"><ele>587.0</ele><time>2026-04-11T11:37:21.999Z</time></trkpt><trkpt lat="46.32862267188175" lon="9.476087294781433"><ele>587.0</ele><time>2026-04-11T11:37:22.999Z</time></trkpt><trkpt lat="46.32858693073968" lon="9.475889034546833"><ele>586.75</ele><time>2026-04-11T11:37:23.999Z</time></trkpt><trkpt lat="46.3285481525285" lon="9.475687715184561"><ele>586.5</ele><time>2026-04-11T11:37:24.999Z</time></trkpt><trkpt lat="46.32851750521617" lon="9.47551592759984"><ele>586.25</ele><time>2026-04-11T11:37:25.999Z</time></trkpt><trkpt lat="46.32849277994023" lon="9.475371806164148"><ele>586.0</ele><time>2026-04-11T11:37:26.999Z</time></trkpt><trkpt lat="46.3284704848542" lon="9.475247967172864"><ele>585.6</ele><time>2026-04-11T11:37:27.999Z</time></trkpt><trkpt lat="46.32844837336574" lon="9.475112241523563"><ele>585.2</ele><time>2026-04-11T11:37:28.999Z</time></trkpt><trkpt lat="46.32843677856571" lon="9.474969041751095"><ele>584.8</ele><time>2026-04-11T11:37:29.999Z</time></trkpt><trkpt lat="46.3284413532041" lon="9.47482489967838"><ele>584.4</ele><time>2026-04-11T11:37:30.999Z</time></trkpt><trkpt lat="46.3284535308685" lon="9.474674001366996"><ele>584.0</ele><time>2026-04-11T11:37:31.999Z</time></trkpt><trkpt lat="46.32847306907899" lon="9.474532357927215"><ele>582.6</ele><time>2026-04-11T11:37:32.999Z</time></trkpt><trkpt lat="46.32850390251548" lon="9.47438842859012"><ele>581.2</ele><time>2026-04-11T11:37:33.999Z</time></trkpt><trkpt lat="46.328544929459994" lon="9.474232054064226"><ele>579.8000000000001</ele><time>2026-04-11T11:37:34.999Z</time></trkpt><trkpt lat="46.32857023207089" lon="9.474072197614856"><ele>578.4</ele><time>2026-04-11T11:37:35.999Z</time></trkpt><trkpt lat="46.32858041601233" lon="9.473919292253303"><ele>577.0</ele><time>2026-04-11T11:37:36.999Z</time></trkpt><trkpt lat="46.32857818846267" lon="9.473766415494273"><ele>576.2</ele><time>2026-04-11T11:37:37.999Z</time></trkpt><trkpt lat="46.3285674769044" lon="9.473612374359696"><ele>575.4000000000001</ele><time>2026-04-11T11:37:38.999Z</time></trkpt><trkpt lat="46.328556978336316" lon="9.473457844013788"><ele>574.5999999999999</ele><time>2026-04-11T11:37:39.999Z</time></trkpt><trkpt lat="46.328547048110686" lon="9.473295859099096"><ele>573.8</ele><time>2026-04-11T11:37:40.999Z</time></trkpt><trkpt lat="46.32854003439726" lon="9.47312967290637"><ele>573.0</ele><time>2026-04-11T11:37:41.999Z</time></trkpt><trkpt lat="46.32853317360043" lon="9.472962631274603"><ele>573.0</ele><time>2026-04-11T11:37:42.999Z</time></trkpt><trkpt lat="46.328525147879176" lon="9.472803013617424"><ele>573.0</ele><time>2026-04-11T11:37:43.999Z</time></trkpt><trkpt lat="46.32851948749928" lon="9.472663459192793"><ele>573.0</ele><time>2026-04-11T11:37:44.999Z</time></trkpt><trkpt lat="46.32851266254185" lon="9.47252719910444"><ele>573.0</ele><time>2026-04-11T11:37:45.999Z</time></trkpt><trkpt lat="46.3285034633197" lon="9.472381803536962"><ele>573.0</ele><time>2026-04-11T11:37:46.999Z</time></trkpt><trkpt lat="46.328484753780224" lon="9.472237033460134"><ele>574.5</ele><time>2026-04-11T11:37:47.999Z</time></trkpt><trkpt lat="46.328453792007274" lon="9.472102393179798"><ele>576.0</ele><time>2026-04-11T11:37:48.999Z</time></trkpt><trkpt lat="46.32839794831574" lon="9.471963491028776"><ele>577.5</ele><time>2026-04-11T11:37:49.999Z</time></trkpt><trkpt lat="46.328335587195106" lon="9.471774197505257"><ele>579.0</ele><time>2026-04-11T11:37:50.999Z</time></trkpt><trkpt lat="46.3282493830483" lon="9.471552848062275"><ele>579.0</ele><time>2026-04-11T11:37:51.999Z</time></trkpt><trkpt lat="46.328150061962745" lon="9.471311402248217"><ele>579.0</ele><time>2026-04-11T11:37:52.999Z</time></trkpt><trkpt lat="46.328051959345245" lon="9.471044410917441"><ele>579.0</ele><time>2026-04-11T11:37:53.999Z</time></trkpt><trkpt lat="46.32794930230595" lon="9.470795905489243"><ele>569.0</ele><time>2026-04-11T11:37:54.999Z</time></trkpt><trkpt lat="46.32785859834048" lon="9.470574891741986"><ele>559.0</ele><time>2026-04-11T11:37:55.999Z</time></trkpt><trkpt lat="46.327781550312984" lon="9.470368913893363"><ele>549.0</ele><time>2026-04-11T11:37:56.999Z</time></trkpt><trkpt lat="46.327730986688934" lon="9.470144516646247"><ele>548.0</ele><time>2026-04-11T11:37:57.999Z</time></trkpt><trkpt lat="46.327709504065204" lon="9.469894528143211"><ele>547.0</ele><time>2026-04-11T11:37:58.999Z</time></trkpt><trkpt lat="46.32772414208214" lon="9.469644965317624"><ele>546.0</ele><time>2026-04-11T11:37:59.999Z</time></trkpt><trkpt lat="46.327792880240885" lon="9.46940259230896"><ele>545.3333333333334</ele><time>2026-04-11T11:38:00.999Z</time></trkpt><trkpt lat="46.327850055531734" lon="9.469153360491342"><ele>544.6666666666667</ele><time>2026-04-11T11:38:01.999Z</time></trkpt><trkpt lat="46.327911825647384" lon="9.46892236630547"><ele>544.0</ele><time>2026-04-11T11:38:02.999Z</time></trkpt><trkpt lat="46.3279210136015" lon="9.468684634441624"><ele>543.0</ele><time>2026-04-11T11:38:03.999Z</time></trkpt><trkpt lat="46.32786765540223" lon="9.46843528999103"><ele>542.0</ele><time>2026-04-11T11:38:04.999Z</time></trkpt><trkpt lat="46.32778541933557" lon="9.468190711996028"><ele>541.0</ele><time>2026-04-11T11:38:05.999Z</time></trkpt><trkpt lat="46.32773069841124" lon="9.46795019293029"><ele>541.3333333333334</ele><time>2026-04-11T11:38:06.999Z</time></trkpt><trkpt lat="46.3277333721163" lon="9.467688772524992"><ele>541.6666666666666</ele><time>2026-04-11T11:38:07.999Z</time></trkpt><trkpt lat="46.3277458900925" lon="9.46740169058105"><ele>542.0</ele><time>2026-04-11T11:38:08.999Z</time></trkpt><trkpt lat="46.327791641387186" lon="9.467108749167608"><ele>542.0</ele><time>2026-04-11T11:38:09.999Z</time></trkpt><trkpt lat="46.327820049945515" lon="9.466815367519358"><ele>542.0</ele><time>2026-04-11T11:38:10.999Z</time></trkpt><trkpt lat="46.32781137364773" lon="9.466526152177105"><ele>542.0</ele><time>2026-04-11T11:38:11.999Z</time></trkpt><trkpt lat="46.327776536705834" lon="9.466239553904122"><ele>544.0</ele><time>2026-04-11T11:38:12.999Z</time></trkpt><trkpt lat="46.32771023137788" lon="9.465952496285793"><ele>546.0</ele><time>2026-04-11T11:38:13.999Z</time></trkpt><trkpt lat="46.32761762149012" lon="9.465678930556441"><ele>548.0</ele><time>2026-04-11T11:38:14.999Z</time></trkpt><trkpt lat="46.327513736328335" lon="9.465422210575923"><ele>550.6666666666666</ele><time>2026-04-11T11:38:15.999Z</time></trkpt><trkpt lat="46.327402063449206" lon="9.465188143452524"><ele>553.3333333333334</ele><time>2026-04-11T11:38:16.999Z</time></trkpt><trkpt lat="46.32729194013704" lon="9.464966872665215"><ele>556.0</ele><time>2026-04-11T11:38:17.999Z</time></trkpt><trkpt lat="46.3271722091672" lon="9.464769103361283"><ele>550.6666666666667</ele><time>2026-04-11T11:38:18.999Z</time></trkpt><trkpt lat="46.327017306718915" lon="9.464615687726504"><ele>545.3333333333334</ele><time>2026-04-11T11:38:19.999Z</time></trkpt><trkpt lat="46.3268666288662" lon="9.464492303988512"><ele>540.0</ele><time>2026-04-11T11:38:20.999Z</time></trkpt><trkpt lat="46.3267497684065" lon="9.464339989215677"><ele>540.0</ele><time>2026-04-11T11:38:21.999Z</time></trkpt><trkpt lat="46.326651092163296" lon="9.464144851584969"><ele>540.0</ele><time>2026-04-11T11:38:22.999Z</time></trkpt><trkpt lat="46.32657419121037" lon="9.46390731437453"><ele>540.0</ele><time>2026-04-11T11:38:23.999Z</time></trkpt><trkpt lat="46.326547622748784" lon="9.463657587412358"><ele>540.0</ele><time>2026-04-11T11:38:24.999Z</time></trkpt><trkpt lat="46.32655130149674" lon="9.463406710020896"><ele>540.0</ele><time>2026-04-11T11:38:25.999Z</time></trkpt><trkpt lat="46.32659646411718" lon="9.463153881085761"><ele>540.0</ele><time>2026-04-11T11:38:26.999Z</time></trkpt><trkpt lat="46.32666225372541" lon="9.462894066118933"><ele>537.3333333333334</ele><time>2026-04-11T11:38:27.999Z</time></trkpt><trkpt lat="46.32672897148127" lon="9.46262896850538"><ele>534.6666666666667</ele><time>2026-04-11T11:38:28.999Z</time></trkpt><trkpt lat="46.32679766774442" lon="9.462364235718454"><ele>532.0</ele><time>2026-04-11T11:38:29.999Z</time></trkpt><trkpt lat="46.326833249789956" lon="9.462094437629604"><ele>531.6666666666667</ele><time>2026-04-11T11:38:30.999Z</time></trkpt><trkpt lat="46.32682187295556" lon="9.461820510524072"><ele>531.3333333333334</ele><time>2026-04-11T11:38:31.999Z</time></trkpt><trkpt lat="46.32675856127806" lon="9.461543074545844"><ele>531.0</ele><time>2026-04-11T11:38:32.999Z</time></trkpt><trkpt lat="46.32665949229633" lon="9.461273996755626"><ele>531.0</ele><time>2026-04-11T11:38:33.999Z</time></trkpt><trkpt lat="46.326557767790426" lon="9.461003855853763"><ele>531.0</ele><time>2026-04-11T11:38:34.999Z</time></trkpt><trkpt lat="46.326469444088076" lon="9.460732445438099"><ele>531.0</ele><time>2026-04-11T11:38:35.999Z</time></trkpt><trkpt lat="46.326388004611964" lon="9.46047269894431"><ele>525.3333333333334</ele><time>2026-04-11T11:38:36.999Z</time></trkpt><trkpt lat="46.32632278619688" lon="9.460215225434983"><ele>519.6666666666667</ele><time>2026-04-11T11:38:37.999Z</time></trkpt><trkpt lat="46.326310074665884" lon="9.459953047543056"><ele>514.0</ele><time>2026-04-11T11:38:38.999Z</time></trkpt><trkpt lat="46.32628776523715" lon="9.459697542957647"><ele>512.3333333333334</ele><time>2026-04-11T11:38:39.999Z</time></trkpt><trkpt lat="46.3262871965958" lon="9.459445031779742"><ele>510.66666666666663</ele><time>2026-04-11T11:38:40.999Z</time></trkpt><trkpt lat="46.326283759152034" lon="9.459206378116018"><ele>509.0</ele><time>2026-04-11T11:38:41.999Z</time></trkpt><trkpt lat="46.32626546449892" lon="9.458982414078326"><ele>511.0</ele><time>2026-04-11T11:38:42.999Z</time></trkpt><trkpt lat="46.32621768256703" lon="9.458768213619955"><ele>513.0</ele><time>2026-04-11T11:38:43.999Z</time></trkpt><trkpt lat="46.32613927643251" lon="9.458584404998708"><ele>515.0</ele><time>2026-04-11T11:38:44.999Z</time></trkpt><trkpt lat="46.326017245119694" lon="9.458462455829027"><ele>515.0</ele><time>2026-04-11T11:38:45.999Z</time></trkpt><trkpt lat="46.32588470867476" lon="9.458362911817359"><ele>515.0</ele><time>2026-04-11T11:38:46.999Z</time></trkpt><trkpt lat="46.32576524040441" lon="9.458241149433823"><ele>515.0</ele><time>2026-04-11T11:38:47.999Z</time></trkpt><trkpt lat="46.32566904688249" lon="9.458095018197222"><ele>515.0</ele><time>2026-04-11T11:38:48.999Z</time></trkpt><trkpt lat="46.325604330061445" lon="9.457918066651475"><ele>512.5</ele><time>2026-04-11T11:38:49.999Z</time></trkpt><trkpt lat="46.325533267542" lon="9.457756951540917"><ele>510.0</ele><time>2026-04-11T11:38:50.999Z</time></trkpt><trkpt lat="46.32545504375432" lon="9.45761240760994"><ele>507.5</ele><time>2026-04-11T11:38:51.999Z</time></trkpt><trkpt lat="46.325399371922764" lon="9.457454847191698"><ele>505.0</ele><time>2026-04-11T11:38:52.999Z</time></trkpt><trkpt lat="46.325369267513125" lon="9.457287888853138"><ele>505.0</ele><time>2026-04-11T11:38:53.999Z</time></trkpt><trkpt lat="46.32536471240942" lon="9.457123136195849"><ele>505.0</ele><time>2026-04-11T11:38:54.999Z</time></trkpt><trkpt lat="46.325379330654016" lon="9.456950341188405"><ele>505.0</ele><time>2026-04-11T11:38:55.999Z</time></trkpt><trkpt lat="46.325398738418244" lon="9.456776001453003"><ele>505.0</ele><time>2026-04-11T11:38:56.999Z</time></trkpt><trkpt lat="46.32541086345261" lon="9.456597858077055"><ele>504.5</ele><time>2026-04-11T11:38:57.999Z</time></trkpt><trkpt lat="46.325428670782514" lon="9.456416457539248"><ele>504.0</ele><time>2026-04-11T11:38:58.999Z</time></trkpt><trkpt lat="46.32544875544059" lon="9.456236484257092"><ele>503.5</ele><time>2026-04-11T11:38:59.999Z</time></trkpt><trkpt lat="46.32546648713599" lon="9.45605395060602"><ele>503.0</ele><time>2026-04-11T11:39:00.999Z</time></trkpt><trkpt lat="46.32548262048422" lon="9.455877051330214"><ele>503.0</ele><time>2026-04-11T11:39:01.999Z</time></trkpt><trkpt lat="46.3254956950461" lon="9.455696876872425"><ele>503.0</ele><time>2026-04-11T11:39:02.999Z</time></trkpt><trkpt lat="46.32551467401915" lon="9.455520797180839"><ele>503.0</ele><time>2026-04-11T11:39:03.999Z</time></trkpt><trkpt lat="46.32554119140727" lon="9.455347665968183"><ele>503.0</ele><time>2026-04-11T11:39:04.999Z</time></trkpt><trkpt lat="46.325581773171734" lon="9.455180642176042"><ele>503.0</ele><time>2026-04-11T11:39:05.999Z</time></trkpt><trkpt lat="46.32564286654458" lon="9.45502320467551"><ele>503.0</ele><time>2026-04-11T11:39:06.999Z</time></trkpt><trkpt lat="46.325721140749955" lon="9.454868227040995"><ele>503.0</ele><time>2026-04-11T11:39:07.999Z</time></trkpt><trkpt lat="46.32581782527094" lon="9.454730969064451"><ele>503.0</ele><time>2026-04-11T11:39:08.999Z</time></trkpt><trkpt lat="46.32593319360471" lon="9.454617819948725"><ele>498.66666666666663</ele><time>2026-04-11T11:39:10Z</time></trkpt><trkpt lat="46.32606090763224" lon="9.454525301792776"><ele>494.33333333333337</ele><time>2026-04-11T11:39:11Z</time></trkpt><trkpt lat="46.32619680156406" lon="9.454437554057588"><ele>490.0</ele><time>2026-04-11T11:39:12Z</time></trkpt><trkpt lat="46.326339218492954" lon="9.454335483399445"><ele>495.0</ele><time>2026-04-11T11:39:13Z</time></trkpt><trkpt lat="46.326471246138034" lon="9.454192683410662"><ele>500.0</ele><time>2026-04-11T11:39:14Z</time></trkpt><trkpt lat="46.32656713241041" lon="9.45400204890296"><ele>505.0</ele><time>2026-04-11T11:39:15Z</time></trkpt><trkpt lat="46.326654571224545" lon="9.45378887018055"><ele>497.6666666666667</ele><time>2026-04-11T11:39:16Z</time></trkpt><trkpt lat="46.326736408484436" lon="9.453560844594957"><ele>490.33333333333337</ele><time>2026-04-11T11:39:17Z</time></trkpt><trkpt lat="46.326860254809326" lon="9.453370031276984"><ele>483.0</ele><time>2026-04-11T11:39:18Z</time></trkpt><trkpt lat="46.326986251054656" lon="9.453163906080157"><ele>483.0</ele><time>2026-04-11T11:39:19Z</time></trkpt><trkpt lat="46.32713369508329" lon="9.452973190497307"><ele>483.0</ele><time>2026-04-11T11:39:20Z</time></trkpt><trkpt lat="46.327277987901944" lon="9.452766465997506"><ele>483.0</ele><time>2026-04-11T11:39:21Z</time></trkpt><trkpt lat="46.327429627094176" lon="9.452560783144351"><ele>484.0</ele><time>2026-04-11T11:39:22Z</time></trkpt><trkpt lat="46.327584628848165" lon="9.452360549332647"><ele>485.0</ele><time>2026-04-11T11:39:23Z</time></trkpt><trkpt lat="46.32773620571541" lon="9.452166202998976"><ele>486.0</ele><time>2026-04-11T11:39:24Z</time></trkpt><trkpt lat="46.3278707893496" lon="9.451989885109967"><ele>479.0</ele><time>2026-04-11T11:39:25Z</time></trkpt><trkpt lat="46.32796430577114" lon="9.45182104715801"><ele>472.0</ele><time>2026-04-11T11:39:26Z</time></trkpt><trkpt lat="46.32801462215446" lon="9.451621330927772"><ele>465.0</ele><time>2026-04-11T11:39:27Z</time></trkpt><trkpt lat="46.32802073880996" lon="9.451379432702335"><ele>461.0</ele><time>2026-04-11T11:39:28Z</time></trkpt><trkpt lat="46.32800764935302" lon="9.451103529300857"><ele>457.0</ele><time>2026-04-11T11:39:29Z</time></trkpt><trkpt lat="46.328017897519175" lon="9.450812199147228"><ele>453.0</ele><time>2026-04-11T11:39:30Z</time></trkpt><trkpt lat="46.32805028896965" lon="9.450518975357237"><ele>465.66666666666663</ele><time>2026-04-11T11:39:31Z</time></trkpt><trkpt lat="46.328097948154834" lon="9.450233634095856"><ele>478.3333333333333</ele><time>2026-04-11T11:39:32Z</time></trkpt><trkpt lat="46.32814619860592" lon="9.449962333930522"><ele>491.0</ele><time>2026-04-11T11:39:33Z</time></trkpt><trkpt lat="46.32817288369786" lon="9.449692980535046"><ele>488.66666666666663</ele><time>2026-04-11T11:39:34Z</time></trkpt><trkpt lat="46.32816686442132" lon="9.449424106852671"><ele>486.33333333333337</ele><time>2026-04-11T11:39:35Z</time></trkpt><trkpt lat="46.32813839380811" lon="9.449159004437261"><ele>484.0</ele><time>2026-04-11T11:39:36Z</time></trkpt><trkpt lat="46.328085273312574" lon="9.448906707127549"><ele>483.33333333333337</ele><time>2026-04-11T11:39:37Z</time></trkpt><trkpt lat="46.328075734858174" lon="9.448632687314333"><ele>482.66666666666663</ele><time>2026-04-11T11:39:38Z</time></trkpt><trkpt lat="46.32809579256578" lon="9.44834376725044"><ele>482.0</ele><time>2026-04-11T11:39:39Z</time></trkpt><trkpt lat="46.32812404931579" lon="9.448047278108442"><ele>479.0</ele><time>2026-04-11T11:39:40Z</time></trkpt><trkpt lat="46.328151113293856" lon="9.447761829564024"><ele>476.0</ele><time>2026-04-11T11:39:41Z</time></trkpt><trkpt lat="46.32816158927518" lon="9.447479706440376"><ele>473.0</ele><time>2026-04-11T11:39:42Z</time></trkpt><trkpt lat="46.32816265362734" lon="9.447204402344054"><ele>469.0</ele><time>2026-04-11T11:39:43Z</time></trkpt><trkpt lat="46.32816380026978" lon="9.446930498809472"><ele>465.0</ele><time>2026-04-11T11:39:44Z</time></trkpt><trkpt lat="46.328185661009925" lon="9.446664633207769"><ele>461.0</ele><time>2026-04-11T11:39:45Z</time></trkpt><trkpt lat="46.32822939838002" lon="9.446408241045956"><ele>456.66666666666663</ele><time>2026-04-11T11:39:46Z</time></trkpt><trkpt lat="46.328278880547636" lon="9.446149474398872"><ele>452.33333333333337</ele><time>2026-04-11T11:39:47Z</time></trkpt><trkpt lat="46.32832564250676" lon="9.445881392700914"><ele>448.0</ele><time>2026-04-11T11:39:48Z</time></trkpt><trkpt lat="46.32837412331572" lon="9.44561416377739"><ele>445.6666666666667</ele><time>2026-04-11T11:39:49Z</time></trkpt><trkpt lat="46.32842313792301" lon="9.445353290398984"><ele>443.33333333333337</ele><time>2026-04-11T11:39:50Z</time></trkpt><trkpt lat="46.32846846604182" lon="9.445096238541009"><ele>441.0</ele><time>2026-04-11T11:39:51Z</time></trkpt><trkpt lat="46.328513328341906" lon="9.444843566347588"><ele>439.33333333333337</ele><time>2026-04-11T11:39:52Z</time></trkpt><trkpt lat="46.32855515198549" lon="9.44461598668546"><ele>437.6666666666667</ele><time>2026-04-11T11:39:53Z</time></trkpt><trkpt lat="46.328593344447654" lon="9.444395961169887"><ele>436.0</ele><time>2026-04-11T11:39:54Z</time></trkpt><trkpt lat="46.328643515802625" lon="9.44417677458186"><ele>436.0</ele><time>2026-04-11T11:39:55Z</time></trkpt><trkpt lat="46.328695103348025" lon="9.443963130168383"><ele>436.0</ele><time>2026-04-11T11:39:56Z</time></trkpt><trkpt lat="46.3287609077111" lon="9.44377550679344"><ele>436.0</ele><time>2026-04-11T11:39:57Z</time></trkpt><trkpt lat="46.32883857583398" lon="9.44358848465856"><ele>435.75</ele><time>2026-04-11T11:39:58Z</time></trkpt><trkpt lat="46.328906343997176" lon="9.443403835139199"><ele>435.5</ele><time>2026-04-11T11:39:59Z</time></trkpt><trkpt lat="46.32897482622041" lon="9.443210163880494"><ele>435.25</ele><time>2026-04-11T11:40:00Z</time></trkpt><trkpt lat="46.32904456652142" lon="9.443033384207286"><ele>435.0</ele><time>2026-04-11T11:40:01Z</time></trkpt><trkpt lat="46.329109955390436" lon="9.44285649893873"><ele>435.0</ele><time>2026-04-11T11:40:02Z</time></trkpt><trkpt lat="46.32917300580752" lon="9.442692144322082"><ele>435.0</ele><time>2026-04-11T11:40:03Z</time></trkpt><trkpt lat="46.32923422984118" lon="9.44253568568685"><ele>435.0</ele><time>2026-04-11T11:40:04Z</time></trkpt><trkpt lat="46.32928824457965" lon="9.442363348765092"><ele>435.0</ele><time>2026-04-11T11:40:05Z</time></trkpt><trkpt lat="46.32931262807657" lon="9.44218252534277"><ele>432.25</ele><time>2026-04-11T11:40:06Z</time></trkpt><trkpt lat="46.32931563326993" lon="9.44199532454702"><ele>429.5</ele><time>2026-04-11T11:40:07Z</time></trkpt><trkpt lat="46.32931690289714" lon="9.441804608915536"><ele>426.75</ele><time>2026-04-11T11:40:08Z</time></trkpt><trkpt lat="46.32932026298418" lon="9.441606042090168"><ele>424.0</ele><time>2026-04-11T11:40:09Z</time></trkpt><trkpt lat="46.329325661058924" lon="9.441404527676099"><ele>423.5</ele><time>2026-04-11T11:40:10Z</time></trkpt><trkpt lat="46.329333110652954" lon="9.441204310705901"><ele>423.0</ele><time>2026-04-11T11:40:11Z</time></trkpt><trkpt lat="46.32933571313344" lon="9.441013014693517"><ele>422.5</ele><time>2026-04-11T11:40:12Z</time></trkpt><trkpt lat="46.329330984346235" lon="9.440823436392524"><ele>422.0</ele><time>2026-04-11T11:40:13Z</time></trkpt><trkpt lat="46.32930931491192" lon="9.440636170199065"><ele>422.25</ele><time>2026-04-11T11:40:14Z</time></trkpt><trkpt lat="46.329275201554616" lon="9.440457267772057"><ele>422.5</ele><time>2026-04-11T11:40:15Z</time></trkpt><trkpt lat="46.329243047153334" lon="9.440290914284143"><ele>422.75</ele><time>2026-04-11T11:40:16Z</time></trkpt><trkpt lat="46.32921412337038" lon="9.440115687948927"><ele>423.0</ele><time>2026-04-11T11:40:17Z</time></trkpt><trkpt lat="46.32916017254718" lon="9.439953567056643"><ele>423.0</ele><time>2026-04-11T11:40:18Z</time></trkpt><trkpt lat="46.329084916362916" lon="9.439810702455885"><ele>423.0</ele><time>2026-04-11T11:40:19Z</time></trkpt><trkpt lat="46.32900597286288" lon="9.439664652467794"><ele>423.0</ele><time>2026-04-11T11:40:20Z</time></trkpt><trkpt lat="46.32893432773814" lon="9.439495830927443"><ele>423.0</ele><time>2026-04-11T11:40:21Z</time></trkpt><trkpt lat="46.328886480507514" lon="9.439301806298399"><ele>421.0</ele><time>2026-04-11T11:40:22Z</time></trkpt><trkpt lat="46.32882808120146" lon="9.439126588876118"><ele>419.0</ele><time>2026-04-11T11:40:23Z</time></trkpt><trkpt lat="46.328780962721005" lon="9.43895993145161"><ele>417.0</ele><time>2026-04-11T11:40:24Z</time></trkpt><trkpt lat="46.328738695961285" lon="9.438787632779052"><ele>415.0</ele><time>2026-04-11T11:40:25Z</time></trkpt><trkpt lat="46.328728038007405" lon="9.438599101221953"><ele>415.0</ele><time>2026-04-11T11:40:26Z</time></trkpt><trkpt lat="46.32871188770713" lon="9.43839777675285"><ele>415.0</ele><time>2026-04-11T11:40:27Z</time></trkpt><trkpt lat="46.32868841777455" lon="9.438185318065164"><ele>415.0</ele><time>2026-04-11T11:40:28Z</time></trkpt><trkpt lat="46.328674215985615" lon="9.437982862933051"><ele>415.0</ele><time>2026-04-11T11:40:29Z</time></trkpt><trkpt lat="46.32866601305445" lon="9.437777292157872"><ele>414.75</ele><time>2026-04-11T11:40:30Z</time></trkpt><trkpt lat="46.32865781691304" lon="9.43756998093185"><ele>414.5</ele><time>2026-04-11T11:40:31Z</time></trkpt><trkpt lat="46.32864516445581" lon="9.437363206138974"><ele>414.25</ele><time>2026-04-11T11:40:32Z</time></trkpt><trkpt lat="46.32862542512336" lon="9.437141309036267"><ele>414.0</ele><time>2026-04-11T11:40:33Z</time></trkpt><trkpt lat="46.32860941345915" lon="9.436918526089684"><ele>413.33333333333337</ele><time>2026-04-11T11:40:34Z</time></trkpt><trkpt lat="46.328592167834536" lon="9.436689267858938"><ele>412.6666666666667</ele><time>2026-04-11T11:40:35Z</time></trkpt><trkpt lat="46.32857673494173" lon="9.436452779681334"><ele>412.0</ele><time>2026-04-11T11:40:36Z</time></trkpt><trkpt lat="46.328560580246844" lon="9.436209978808641"><ele>411.33333333333337</ele><time>2026-04-11T11:40:37Z</time></trkpt><trkpt lat="46.32854251952751" lon="9.435964024399038"><ele>410.66666666666663</ele><time>2026-04-11T11:40:38Z</time></trkpt><trkpt lat="46.32852383922054" lon="9.435719023682166"><ele>410.0</ele><time>2026-04-11T11:40:39Z</time></trkpt><trkpt lat="46.32850330888203" lon="9.435472953527071"><ele>410.0</ele><time>2026-04-11T11:40:40Z</time></trkpt><trkpt lat="46.328484048983775" lon="9.43522542117761"><ele>410.0</ele><time>2026-04-11T11:40:41Z</time></trkpt><trkpt lat="46.3284680499715" lon="9.434978725156173"><ele>410.0</ele><time>2026-04-11T11:40:42Z</time></trkpt><trkpt lat="46.328453282758346" lon="9.434739510074127"><ele>409.3333333333333</ele><time>2026-04-11T11:40:43Z</time></trkpt><trkpt lat="46.32843657099087" lon="9.43450181723428"><ele>408.66666666666663</ele><time>2026-04-11T11:40:44Z</time></trkpt><trkpt lat="46.328418191458674" lon="9.434268590796883"><ele>408.0</ele><time>2026-04-11T11:40:45Z</time></trkpt><trkpt lat="46.328403032755034" lon="9.434034057775714"><ele>407.66666666666663</ele><time>2026-04-11T11:40:46Z</time></trkpt><trkpt lat="46.32838509380002" lon="9.433799105142219"><ele>407.3333333333333</ele><time>2026-04-11T11:40:47Z</time></trkpt><trkpt lat="46.328342531416986" lon="9.433574401731498"><ele>407.0</ele><time>2026-04-11T11:40:48Z</time></trkpt><trkpt lat="46.32826900663366" lon="9.43337771786751"><ele>407.0</ele><time>2026-04-11T11:40:49Z</time></trkpt><trkpt lat="46.328158144752784" lon="9.433198847671607"><ele>407.0</ele><time>2026-04-11T11:40:50Z</time></trkpt><trkpt lat="46.32804642164843" lon="9.433003333399874"><ele>407.0</ele><time>2026-04-11T11:40:51Z</time></trkpt><trkpt lat="46.32794709632698" lon="9.4327962931442"><ele>405.0</ele><time>2026-04-11T11:40:52Z</time></trkpt><trkpt lat="46.327839790643715" lon="9.432580548564525"><ele>403.0</ele><time>2026-04-11T11:40:53Z</time></trkpt><trkpt lat="46.32773234671185" lon="9.43236621515191"><ele>401.0</ele><time>2026-04-11T11:40:54Z</time></trkpt><trkpt lat="46.32762404242252" lon="9.432153354837629"><ele>401.66666666666663</ele><time>2026-04-11T11:40:55Z</time></trkpt><trkpt lat="46.3275170817435" lon="9.431945483213072"><ele>402.33333333333337</ele><time>2026-04-11T11:40:56Z</time></trkpt><trkpt lat="46.327405698359186" lon="9.431738771868028"><ele>403.0</ele><time>2026-04-11T11:40:57Z</time></trkpt><trkpt lat="46.32729321738652" lon="9.431527852800835"><ele>400.0</ele><time>2026-04-11T11:40:58Z</time></trkpt><trkpt lat="46.32718298746283" lon="9.431307574686285"><ele>397.0</ele><time>2026-04-11T11:40:59Z</time></trkpt><trkpt lat="46.32707503884118" lon="9.431085624628011"><ele>394.0</ele><time>2026-04-11T11:41:00Z</time></trkpt><trkpt lat="46.32696605680991" lon="9.430864245677657"><ele>394.0</ele><time>2026-04-11T11:41:01Z</time></trkpt><trkpt lat="46.32685747553341" lon="9.430650728727597"><ele>394.0</ele><time>2026-04-11T11:41:02Z</time></trkpt><trkpt lat="46.32675175349875" lon="9.430440860724614"><ele>394.0</ele><time>2026-04-11T11:41:03Z</time></trkpt><trkpt lat="46.326650333243286" lon="9.430225352939246"><ele>394.6666666666667</ele><time>2026-04-11T11:41:04Z</time></trkpt><trkpt lat="46.32655396725545" lon="9.429994856484804"><ele>395.33333333333337</ele><time>2026-04-11T11:41:05Z</time></trkpt><trkpt lat="46.32646461208568" lon="9.429746098243584"><ele>396.0</ele><time>2026-04-11T11:41:06Z</time></trkpt><trkpt lat="46.32638555985982" lon="9.429484216680406"><ele>393.33333333333337</ele><time>2026-04-11T11:41:07Z</time></trkpt><trkpt lat="46.326317922807924" lon="9.429212127578152"><ele>390.6666666666667</ele><time>2026-04-11T11:41:08Z</time></trkpt><trkpt lat="46.32626102749055" lon="9.428931970739827"><ele>388.0</ele><time>2026-04-11T11:41:09Z</time></trkpt><trkpt lat="46.32621689243736" lon="9.428650039570503"><ele>387.33333333333337</ele><time>2026-04-11T11:41:10Z</time></trkpt><trkpt lat="46.32618533122326" lon="9.42836378334474"><ele>386.66666666666663</ele><time>2026-04-11T11:41:11Z</time></trkpt><trkpt lat="46.32616654027643" lon="9.428079053909668"><ele>386.0</ele><time>2026-04-11T11:41:12Z</time></trkpt><trkpt lat="46.32615852669976" lon="9.427793742240876"><ele>385.66666666666663</ele><time>2026-04-11T11:41:13Z</time></trkpt><trkpt lat="46.32615738078496" lon="9.42751094792519"><ele>385.33333333333337</ele><time>2026-04-11T11:41:14Z</time></trkpt><trkpt lat="46.32615837588604" lon="9.42723699949158"><ele>385.0</ele><time>2026-04-11T11:41:15Z</time></trkpt><trkpt lat="46.32615585018604" lon="9.426963487152866"><ele>385.0</ele><time>2026-04-11T11:41:16Z</time></trkpt><trkpt lat="46.326154542922914" lon="9.4266943250646"><ele>385.0</ele><time>2026-04-11T11:41:17Z</time></trkpt><trkpt lat="46.32615463980239" lon="9.426428309985331"><ele>385.0</ele><time>2026-04-11T11:41:18Z</time></trkpt><trkpt lat="46.32615425324409" lon="9.42616297848916"><ele>385.0</ele><time>2026-04-11T11:41:19Z</time></trkpt><trkpt lat="46.326150821003814" lon="9.425899396506916"><ele>385.0</ele><time>2026-04-11T11:41:20Z</time></trkpt><trkpt lat="46.32614734509725" lon="9.425635216040881"><ele>385.0</ele><time>2026-04-11T11:41:21Z</time></trkpt><trkpt lat="46.3261462990092" lon="9.425373537820363"><ele>384.0</ele><time>2026-04-11T11:41:22Z</time></trkpt><trkpt lat="46.32614532291827" lon="9.425109527741014"><ele>383.0</ele><time>2026-04-11T11:41:23Z</time></trkpt><trkpt lat="46.32614414410151" lon="9.424848235115185"><ele>382.0</ele><time>2026-04-11T11:41:24Z</time></trkpt><trkpt lat="46.326142717857024" lon="9.424605366266565"><ele>381.0</ele><time>2026-04-11T11:41:25Z</time></trkpt><trkpt lat="46.32614347889569" lon="9.424366639088838"><ele>380.0</ele><time>2026-04-11T11:41:26Z</time></trkpt><trkpt lat="46.32614831582551" lon="9.424138045136464"><ele>379.0</ele><time>2026-04-11T11:41:27Z</time></trkpt><trkpt lat="46.326174022044036" lon="9.423909905330863"><ele>378.3333333333333</ele><time>2026-04-11T11:41:28Z</time></trkpt><trkpt lat="46.32624695406135" lon="9.423698789124355"><ele>377.6666666666667</ele><time>2026-04-11T11:41:29Z</time></trkpt><trkpt lat="46.326332706761626" lon="9.423505004545413"><ele>377.0</ele><time>2026-04-11T11:41:30Z</time></trkpt><trkpt lat="46.32643310772483" lon="9.42329349512078"><ele>378.0</ele><time>2026-04-11T11:41:31Z</time></trkpt><trkpt lat="46.32656476945546" lon="9.423124403755278"><ele>379.0</ele><time>2026-04-11T11:41:32Z</time></trkpt><trkpt lat="46.32668283829978" lon="9.422967009098604"><ele>380.0</ele><time>2026-04-11T11:41:33Z</time></trkpt><trkpt lat="46.326791042106045" lon="9.422803734022816"><ele>380.0</ele><time>2026-04-11T11:41:34Z</time></trkpt><trkpt lat="46.32688598234779" lon="9.422626272401324"><ele>380.0</ele><time>2026-04-11T11:41:35Z</time></trkpt><trkpt lat="46.32697193194508" lon="9.422430030503278"><ele>380.0</ele><time>2026-04-11T11:41:36Z</time></trkpt><trkpt lat="46.327039989230336" lon="9.422209066116505"><ele>378.6666666666667</ele><time>2026-04-11T11:41:37Z</time></trkpt><trkpt lat="46.327093067918" lon="9.421975070439233"><ele>377.3333333333333</ele><time>2026-04-11T11:41:38Z</time></trkpt><trkpt lat="46.32713494542461" lon="9.421728572819536"><ele>376.0</ele><time>2026-04-11T11:41:39Z</time></trkpt><trkpt lat="46.32718580866317" lon="9.421488269059962"><ele>376.66666666666663</ele><time>2026-04-11T11:41:40Z</time></trkpt><trkpt lat="46.32723729714539" lon="9.421258448286293"><ele>377.3333333333333</ele><time>2026-04-11T11:41:41Z</time></trkpt><trkpt lat="46.32728516438195" lon="9.421036415975749"><ele>378.0</ele><time>2026-04-11T11:41:42.001Z</time></trkpt><trkpt lat="46.32732927192343" lon="9.420820828590097"><ele>378.0</ele><time>2026-04-11T11:41:43.001Z</time></trkpt><trkpt lat="46.327365643360196" lon="9.420598525560829"><ele>378.0</ele><time>2026-04-11T11:41:44.001Z</time></trkpt><trkpt lat="46.32739400687998" lon="9.420373286643507"><ele>378.0</ele><time>2026-04-11T11:41:45.001Z</time></trkpt><trkpt lat="46.32739032452528" lon="9.42013449495606"><ele>378.3333333333333</ele><time>2026-04-11T11:41:46.001Z</time></trkpt><trkpt lat="46.3273687548127" lon="9.419891619167602"><ele>378.66666666666663</ele><time>2026-04-11T11:41:47.001Z</time></trkpt><trkpt lat="46.32734705992465" lon="9.41964718046385"><ele>379.0</ele><time>2026-04-11T11:41:48.001Z</time></trkpt><trkpt lat="46.32733045517766" lon="9.419396581106747"><ele>378.3333333333333</ele><time>2026-04-11T11:41:49.001Z</time></trkpt><trkpt lat="46.327316216543544" lon="9.419151083203513"><ele>377.6666666666667</ele><time>2026-04-11T11:41:50.001Z</time></trkpt><trkpt lat="46.32730101169886" lon="9.418908874134997"><ele>377.0</ele><time>2026-04-11T11:41:51.001Z</time></trkpt><trkpt lat="46.327278893515434" lon="9.418672493635448"><ele>377.0</ele><time>2026-04-11T11:41:52.001Z</time></trkpt><trkpt lat="46.32726494227599" lon="9.418428187058039"><ele>377.0</ele><time>2026-04-11T11:41:53.001Z</time></trkpt><trkpt lat="46.32724818034339" lon="9.418194144612752"><ele>377.0</ele><time>2026-04-11T11:41:54.001Z</time></trkpt><trkpt lat="46.32722790494241" lon="9.41795314753291"><ele>373.6666666666667</ele><time>2026-04-11T11:41:55.001Z</time></trkpt><trkpt lat="46.327212565115" lon="9.417714352648929"><ele>370.3333333333333</ele><time>2026-04-11T11:41:56.001Z</time></trkpt><trkpt lat="46.327195663011196" lon="9.417476024244445"><ele>367.0</ele><time>2026-04-11T11:41:57.001Z</time></trkpt><trkpt lat="46.327180238605614" lon="9.417236400477472"><ele>368.0</ele><time>2026-04-11T11:41:58.001Z</time></trkpt><trkpt lat="46.32716715159126" lon="9.41700772146475"><ele>369.0</ele><time>2026-04-11T11:41:59.001Z</time></trkpt><trkpt lat="46.327161489339076" lon="9.416764272284755"><ele>370.0</ele><time>2026-04-11T11:42:00.001Z</time></trkpt><trkpt lat="46.327149897198055" lon="9.416529311253063"><ele>369.0</ele><time>2026-04-11T11:42:01.001Z</time></trkpt><trkpt lat="46.327151744543826" lon="9.416290018732054"><ele>368.0</ele><time>2026-04-11T11:42:02.001Z</time></trkpt><trkpt lat="46.3271676762199" lon="9.41605291819252"><ele>367.0</ele><time>2026-04-11T11:42:03.001Z</time></trkpt><trkpt lat="46.32718888146867" lon="9.415808243708495"><ele>367.0</ele><time>2026-04-11T11:42:04.001Z</time></trkpt><trkpt lat="46.32721198572086" lon="9.41557091678497"><ele>367.0</ele><time>2026-04-11T11:42:05.001Z</time></trkpt><trkpt lat="46.32723165111373" lon="9.415328209241817"><ele>367.0</ele><time>2026-04-11T11:42:06.001Z</time></trkpt><trkpt lat="46.32725007176596" lon="9.415084748863114"><ele>368.0</ele><time>2026-04-11T11:42:07.001Z</time></trkpt><trkpt lat="46.32727156233835" lon="9.41484119983166"><ele>369.0</ele><time>2026-04-11T11:42:08.001Z</time></trkpt><trkpt lat="46.32728805997368" lon="9.414610857692198"><ele>370.0</ele><time>2026-04-11T11:42:09.001Z</time></trkpt><trkpt lat="46.32729853456403" lon="9.414377564109992"><ele>370.0</ele><time>2026-04-11T11:42:10.001Z</time></trkpt><trkpt lat="46.32731703859143" lon="9.414127997146513"><ele>370.0</ele><time>2026-04-11T11:42:11.001Z</time></trkpt><trkpt lat="46.32733543220455" lon="9.413880726449262"><ele>370.0</ele><time>2026-04-11T11:42:12.001Z</time></trkpt><trkpt lat="46.32737726168022" lon="9.413607690170455"><ele>370.0</ele><time>2026-04-11T11:42:13.001Z</time></trkpt><trkpt lat="46.32732637329897" lon="9.413415054598188"><ele>370.0</ele><time>2026-04-11T11:42:14.001Z</time></trkpt><trkpt lat="46.3273241633948" lon="9.413177803461345"><ele>370.0</ele><time>2026-04-11T11:42:15.001Z</time></trkpt><trkpt lat="46.327318940024035" lon="9.412954498142813"><ele>369.75</ele><time>2026-04-11T11:42:16.001Z</time></trkpt><trkpt lat="46.32731087158329" lon="9.412740255557429"><ele>369.5</ele><time>2026-04-11T11:42:17.001Z</time></trkpt><trkpt lat="46.3273075297878" lon="9.41252798174724"><ele>369.25</ele><time>2026-04-11T11:42:18.001Z</time></trkpt><trkpt lat="46.327318863659045" lon="9.412305205300143"><ele>369.0</ele><time>2026-04-11T11:42:19.001Z</time></trkpt><trkpt lat="46.327339568090835" lon="9.412091393752586"><ele>369.0</ele><time>2026-04-11T11:42:20.001Z</time></trkpt><trkpt lat="46.327351731649514" lon="9.411859175485882"><ele>369.0</ele><time>2026-04-11T11:42:21.001Z</time></trkpt><trkpt lat="46.32736390968002" lon="9.411639151374503"><ele>369.0</ele><time>2026-04-11T11:42:22.001Z</time></trkpt><trkpt lat="46.327381718182586" lon="9.41142009336909"><ele>368.25</ele><time>2026-04-11T11:42:23Z</time></trkpt><trkpt lat="46.32736592397463" lon="9.411209498032518"><ele>367.5</ele><time>2026-04-11T11:42:24Z</time></trkpt><trkpt lat="46.32736582792426" lon="9.411001603997315"><ele>366.75</ele><time>2026-04-11T11:42:25Z</time></trkpt><trkpt lat="46.327358760664765" lon="9.410799040712934"><ele>366.0</ele><time>2026-04-11T11:42:26Z</time></trkpt><trkpt lat="46.32735680456173" lon="9.410591417421418"><ele>365.75</ele><time>2026-04-11T11:42:27Z</time></trkpt><trkpt lat="46.32736196056403" lon="9.410405639627701"><ele>365.5</ele><time>2026-04-11T11:42:28Z</time></trkpt><trkpt lat="46.3273595292189" lon="9.410223667422386"><ele>365.25</ele><time>2026-04-11T11:42:29Z</time></trkpt><trkpt lat="46.32734877620409" lon="9.41003856750683"><ele>365.0</ele><time>2026-04-11T11:42:30Z</time></trkpt><trkpt lat="46.327327151381915" lon="9.409848673768932"><ele>365.0</ele><time>2026-04-11T11:42:31Z</time></trkpt><trkpt lat="46.32727914613453" lon="9.40966223563524"><ele>365.0</ele><time>2026-04-11T11:42:32Z</time></trkpt><trkpt lat="46.32722232104144" lon="9.409472948194493"><ele>365.0</ele><time>2026-04-11T11:42:33Z</time></trkpt><trkpt lat="46.327154225688446" lon="9.409293147195763"><ele>365.0</ele><time>2026-04-11T11:42:34Z</time></trkpt><trkpt lat="46.32709269885417" lon="9.409121110117923"><ele>363.0</ele><time>2026-04-11T11:42:35Z</time></trkpt><trkpt lat="46.32703246054115" lon="9.408953655500776"><ele>361.0</ele><time>2026-04-11T11:42:36Z</time></trkpt><trkpt lat="46.32694882151534" lon="9.408822702215419"><ele>359.0</ele><time>2026-04-11T11:42:37Z</time></trkpt><trkpt lat="46.32684764475422" lon="9.408712292732512"><ele>357.0</ele><time>2026-04-11T11:42:38Z</time></trkpt><trkpt lat="46.326740127288936" lon="9.40862824501181"><ele>357.0</ele><time>2026-04-11T11:42:39Z</time></trkpt><trkpt lat="46.32662742637759" lon="9.408568897700142"><ele>357.0</ele><time>2026-04-11T11:42:40Z</time></trkpt><trkpt lat="46.3265104598535" lon="9.408535582629929"><ele>357.0</ele><time>2026-04-11T11:42:41Z</time></trkpt><trkpt lat="46.32639170642196" lon="9.408494767982425"><ele>357.0</ele><time>2026-04-11T11:42:42Z</time></trkpt><trkpt lat="46.32627480256122" lon="9.408443494666894"><ele>354.25</ele><time>2026-04-11T11:42:43Z</time></trkpt><trkpt lat="46.326160350144846" lon="9.408390572503619"><ele>351.5</ele><time>2026-04-11T11:42:44Z</time></trkpt><trkpt lat="46.32605335960787" lon="9.408295764395863"><ele>348.75</ele><time>2026-04-11T11:42:45Z</time></trkpt><trkpt lat="46.32594972648321" lon="9.40817722276733"><ele>346.0</ele><time>2026-04-11T11:42:46Z</time></trkpt><trkpt lat="46.32583789198577" lon="9.408059062400582"><ele>347.0</ele><time>2026-04-11T11:42:47Z</time></trkpt><trkpt lat="46.32574546621566" lon="9.407925842059699"><ele>348.0</ele><time>2026-04-11T11:42:48Z</time></trkpt><trkpt lat="46.32565794423615" lon="9.407796231715732"><ele>349.0</ele><time>2026-04-11T11:42:49Z</time></trkpt><trkpt lat="46.32558015491239" lon="9.40766176838877"><ele>350.0</ele><time>2026-04-11T11:42:50Z</time></trkpt><trkpt lat="46.32551667193492" lon="9.407516389254504"><ele>347.5</ele><time>2026-04-11T11:42:51Z</time></trkpt><trkpt lat="46.32548087757431" lon="9.407363446395122"><ele>345.0</ele><time>2026-04-11T11:42:52Z</time></trkpt><trkpt lat="46.32543791608579" lon="9.407202635004802"><ele>342.5</ele><time>2026-04-11T11:42:53Z</time></trkpt><trkpt lat="46.325398578479025" lon="9.407049674767194"><ele>340.0</ele><time>2026-04-11T11:42:54Z</time></trkpt><trkpt lat="46.32536354593767" lon="9.406898670172714"><ele>339.8</ele><time>2026-04-11T11:42:55Z</time></trkpt><trkpt lat="46.325326969032155" lon="9.406753298787045"><ele>339.6</ele><time>2026-04-11T11:42:56Z</time></trkpt><trkpt lat="46.325291121792986" lon="9.40660944017385"><ele>339.4</ele><time>2026-04-11T11:42:57Z</time></trkpt><trkpt lat="46.32526069391586" lon="9.40650102729669"><ele>339.2</ele><time>2026-04-11T11:42:58Z</time></trkpt><trkpt lat="46.32522195860606" lon="9.406360757645297"><ele>339.0</ele><time>2026-04-11T11:43:00Z</time></trkpt><trkpt lat="46.32516887630571" lon="9.406162901201235"><ele>339.0</ele><time>2026-04-11T11:43:02Z</time></trkpt><trkpt lat="46.32513312896821" lon="9.40600492106952"><ele>339.0</ele><time>2026-04-11T11:43:03Z</time></trkpt><trkpt lat="46.325079724881434" lon="9.40583376205941"><ele>339.0</ele><time>2026-04-11T11:43:04Z</time></trkpt><trkpt lat="46.325018689870795" lon="9.405667419062116"><ele>339.0</ele><time>2026-04-11T11:43:05Z</time></trkpt><trkpt lat="46.324962290652365" lon="9.405527199495548"><ele>339.6</ele><time>2026-04-11T11:43:06Z</time></trkpt><trkpt lat="46.32491685792212" lon="9.40541128742344"><ele>340.2</ele><time>2026-04-11T11:43:07Z</time></trkpt><trkpt lat="46.32487119769717" lon="9.405298962648786"><ele>340.8</ele><time>2026-04-11T11:43:08Z</time></trkpt><trkpt lat="46.32482408354459" lon="9.405169728414497"><ele>341.40000000000003</ele><time>2026-04-11T11:43:09Z</time></trkpt><trkpt lat="46.32476851270495" lon="9.405036030152184"><ele>342.0</ele><time>2026-04-11T11:43:10Z</time></trkpt><trkpt lat="46.324708381278775" lon="9.404895324773083"><ele>339.5</ele><time>2026-04-11T11:43:11Z</time></trkpt><trkpt lat="46.32464986250527" lon="9.404747162427535"><ele>337.0</ele><time>2026-04-11T11:43:12Z</time></trkpt><trkpt lat="46.32459121353019" lon="9.404596767115414"><ele>334.5</ele><time>2026-04-11T11:43:13Z</time></trkpt><trkpt lat="46.324530771046774" lon="9.404447442634927"><ele>332.0</ele><time>2026-04-11T11:43:14Z</time></trkpt><trkpt lat="46.32447014739737" lon="9.404301119980472"><ele>331.8</ele><time>2026-04-11T11:43:15Z</time></trkpt><trkpt lat="46.324410638037286" lon="9.404155424076553"><ele>331.6</ele><time>2026-04-11T11:43:16Z</time></trkpt><trkpt lat="46.32435837799368" lon="9.404020030890148"><ele>331.40000000000003</ele><time>2026-04-11T11:43:17Z</time></trkpt><trkpt lat="46.32431781587239" lon="9.403909935288395"><ele>331.20000000000005</ele><time>2026-04-11T11:43:18Z</time></trkpt><trkpt lat="46.3242827912724" lon="9.403819943656508"><ele>331.0</ele><time>2026-04-11T11:43:19Z</time></trkpt><trkpt lat="46.324237175089" lon="9.403688888171779"><ele>331.0</ele><time>2026-04-11T11:43:21Z</time></trkpt><trkpt lat="46.324266121976756" lon="9.40359660868019"><ele>331.0</ele><time>2026-04-11T11:43:23Z</time></trkpt><trkpt lat="46.324361529445845" lon="9.403546686406468"><ele>331.0</ele><time>2026-04-11T11:43:24Z</time></trkpt><trkpt lat="46.32444583653984" lon="9.40351291286162"><ele>331.0</ele><time>2026-04-11T11:43:26Z</time></trkpt><trkpt lat="46.32444571396615" lon="9.403382095347208"><ele>331.0</ele><time>2026-04-11T11:43:28Z</time></trkpt><trkpt lat="46.32442606052103" lon="9.403261694606076"><ele>331.0</ele><time>2026-04-11T11:43:30Z</time></trkpt><trkpt lat="46.32441058059265" lon="9.403150810461353"><ele>331.0</ele><time>2026-04-11T11:43:33Z</time></trkpt><trkpt lat="46.32438727881247" lon="9.403043984308495"><ele>331.0</ele><time>2026-04-11T11:43:37Z</time></trkpt><trkpt lat="46.32436266003018" lon="9.402932510422483"><ele>331.0</ele><time>2026-04-11T11:43:39Z</time></trkpt><trkpt lat="46.32440381770013" lon="9.403116390850917"><ele>331.0</ele><time>2026-04-11T11:44:00.001Z</time></trkpt><trkpt lat="46.32434614172557" lon="9.40328585955011"><ele>331.0</ele><time>2026-04-11T11:44:01.001Z</time></trkpt><trkpt lat="46.32439953458473" lon="9.403407898780145"><ele>331.0</ele><time>2026-04-11T11:44:03.001Z</time></trkpt><trkpt lat="46.32444171403616" lon="9.403490905409694"><ele>331.0</ele><time>2026-04-11T11:44:06.001Z</time></trkpt><trkpt lat="46.32451287772849" lon="9.403482269035"><ele>331.0</ele><time>2026-04-11T11:44:10.001Z</time></trkpt><trkpt lat="46.324577179980515" lon="9.403456844982989"><ele>331.0</ele><time>2026-04-11T11:44:13.001Z</time></trkpt><trkpt lat="46.32451390351483" lon="9.403448266622433"><ele>331.0</ele><time>2026-04-11T11:45:44Z</time></trkpt><trkpt lat="46.324595006808835" lon="9.403420514546077"><ele>331.0</ele><time>2026-04-11T11:46:35.001Z</time></trkpt><trkpt lat="46.32453137783953" lon="9.403469286464077"><ele>331.0</ele><time>2026-04-11T11:47:37Z</time></trkpt><trkpt lat="46.324631246028005" lon="9.403592805489868"><ele>331.0</ele><time>2026-04-11T11:47:55Z</time></trkpt><trkpt lat="46.32455762383926" lon="9.403609294414242"><ele>331.0</ele><time>2026-04-11T11:48:14.001Z</time></trkpt><trkpt lat="46.32454512077228" lon="9.403718522467072"><ele>331.0</ele><time>2026-04-11T11:48:27Z</time></trkpt><trkpt lat="46.32448756506477" lon="9.403624482288858"><ele>331.0</ele><time>2026-04-11T11:48:29Z</time></trkpt><trkpt lat="46.32443428558317" lon="9.403541791994579"><ele>331.0</ele><time>2026-04-11T11:48:32Z</time></trkpt><trkpt lat="46.32451557163903" lon="9.403566536978847"><ele>331.0</ele><time>2026-04-11T11:48:37Z</time></trkpt><trkpt lat="46.324498958595285" lon="9.40347106568952"><ele>331.0</ele><time>2026-04-11T11:48:47Z</time></trkpt><trkpt lat="46.324422295063776" lon="9.403463450071651"><ele>331.0</ele><time>2026-04-11T11:50:02Z</time></trkpt><trkpt lat="46.32435239857383" lon="9.403460464093811"><ele>331.0</ele><time>2026-04-11T11:50:08.999Z</time></trkpt><trkpt lat="46.3242901862917" lon="9.403523479440134"><ele>331.0</ele><time>2026-04-11T11:50:13.999Z</time></trkpt><trkpt lat="46.32158173950156" lon="9.405605700110444"><ele>331.4</ele><time>2026-04-11T11:50:32Z</time></trkpt><trkpt lat="46.3214682529522" lon="9.405704020692646"><ele>331.8</ele><time>2026-04-11T11:50:33Z</time></trkpt><trkpt lat="46.321388440834305" lon="9.405761620743439"><ele>332.2</ele><time>2026-04-11T11:50:34Z</time></trkpt><trkpt lat="46.321326167087214" lon="9.40582002543415"><ele>332.59999999999997</ele><time>2026-04-11T11:50:35Z</time></trkpt><trkpt lat="46.32125371530401" lon="9.405882583106713"><ele>333.0</ele><time>2026-04-11T11:50:36Z</time></trkpt><trkpt lat="46.32120612765757" lon="9.405997367850654"><ele>337.0</ele><time>2026-04-11T11:50:37Z</time></trkpt><trkpt lat="46.322885767520276" lon="9.404952667235296"><ele>337.0</ele><time>2026-04-11T11:50:52.034Z</time></trkpt><trkpt lat="46.322948985492985" lon="9.404875952243971"><ele>337.0</ele><time>2026-04-11T11:50:53.033Z</time></trkpt><trkpt lat="46.32300957062729" lon="9.40479951121035"><ele>337.0</ele><time>2026-04-11T11:50:54.031Z</time></trkpt><trkpt lat="46.32314149301317" lon="9.404575682694793"><ele>337.0</ele><time>2026-04-11T11:51:00.036Z</time></trkpt><trkpt lat="46.323213256389316" lon="9.404502282600964"><ele>330.0</ele><time>2026-04-11T11:51:05.034Z</time></trkpt><trkpt lat="46.323611937526245" lon="9.404138739130758"><ele>330.0</ele><time>2026-04-11T11:51:15.035Z</time></trkpt><trkpt lat="46.32373515553452" lon="9.404026080614688"><ele>330.0</ele><time>2026-04-11T11:51:16.034Z</time></trkpt><trkpt lat="46.32379938812696" lon="9.403967271517258"><ele>330.0</ele><time>2026-04-11T11:51:17.034Z</time></trkpt><trkpt lat="46.323892479069244" lon="9.403915669450038"><ele>330.0</ele><time>2026-04-11T11:51:19.034Z</time></trkpt><trkpt lat="46.32399334622245" lon="9.403829611496386"><ele>330.0</ele><time>2026-04-11T11:51:23.036Z</time></trkpt><trkpt lat="46.32417682587044" lon="9.403657796127506"><ele>330.3333333333333</ele><time>2026-04-11T11:51:24.034Z</time></trkpt><trkpt lat="46.324376688228355" lon="9.403515214138688"><ele>330.66666666666663</ele><time>2026-04-11T11:51:38.031Z</time></trkpt><trkpt lat="46.324565378805204" lon="9.40350719736777"><ele>331.0</ele><time>2026-04-11T11:52:07Z</time></trkpt><trkpt lat="46.324463830588236" lon="9.403524322892128"><ele>331.0</ele><time>2026-04-11T11:54:34Z</time></trkpt><trkpt lat="46.32431822066921" lon="9.403999440995642"><ele>331.0</ele><time>2026-04-11T11:56:04Z</time></trkpt><trkpt lat="46.32446166981058" lon="9.403559673793152"><ele>331.0</ele><time>2026-04-11T11:56:06Z</time></trkpt><trkpt lat="46.32461068957284" lon="9.40333085258565"><ele>331.0</ele><time>2026-04-11T11:56:21Z</time></trkpt><trkpt lat="46.32449049675498" lon="9.403510440004537"><ele>331.0</ele><time>2026-04-11T11:56:23Z</time></trkpt><trkpt lat="46.32452314655144" lon="9.403594846719388"><ele>331.0</ele><time>2026-04-11T12:32:45Z</time></trkpt><trkpt lat="46.32445492651806" lon="9.403564857449467"><ele>331.0</ele><time>2026-04-11T12:32:51Z</time></trkpt><trkpt lat="46.32439452311405" lon="9.403496650799656"><ele>331.0</ele><time>2026-04-11T12:35:47.999Z</time></trkpt><trkpt lat="46.32445362149108" lon="9.403533996550953"><ele>331.0</ele><time>2026-04-11T12:36:39.999Z</time></trkpt><trkpt lat="46.324528606132425" lon="9.403573445262868"><ele>331.0</ele><time>2026-04-11T12:45:55Z</time></trkpt><trkpt lat="46.3244858100473" lon="9.40346966811894"><ele>331.0</ele><time>2026-04-11T13:06:09Z</time></trkpt><trkpt lat="46.324502694008764" lon="9.40356903215732"><ele>331.0</ele><time>2026-04-11T13:07:48.999Z</time></trkpt><trkpt lat="46.3244459772007" lon="9.403516504171288"><ele>331.0</ele><time>2026-04-11T13:12:54Z</time></trkpt><trkpt lat="46.324405218387106" lon="9.403438599850618"><ele>331.0</ele><time>2026-04-11T13:13:09Z</time></trkpt><trkpt lat="46.32423322204664" lon="9.403338771525668"><ele>331.0</ele><time>2026-04-11T13:13:15Z</time></trkpt><trkpt lat="46.32413371488428" lon="9.403321545280246"><ele>331.0</ele><time>2026-04-11T13:13:17Z</time></trkpt><trkpt lat="46.323974937433555" lon="9.40331324194174"><ele>331.0</ele><time>2026-04-11T13:13:20Z</time></trkpt><trkpt lat="46.323911962064614" lon="9.403291470063149"><ele>331.0</ele><time>2026-04-11T13:13:21Z</time></trkpt><trkpt lat="46.32385728461237" lon="9.403205133688791"><ele>331.0</ele><time>2026-04-11T13:13:23Z</time></trkpt><trkpt lat="46.32397687974117" lon="9.403309425056088"><ele>331.0</ele><time>2026-04-11T13:13:25Z</time></trkpt><trkpt lat="46.32412522768886" lon="9.403423940324013"><ele>331.0</ele><time>2026-04-11T13:13:29Z</time></trkpt><trkpt lat="46.32419376761214" lon="9.403560947063966"><ele>331.0</ele><time>2026-04-11T13:13:32Z</time></trkpt><trkpt lat="46.3242597057888" lon="9.403614324229702"><ele>331.0</ele><time>2026-04-11T13:13:33Z</time></trkpt><trkpt lat="46.32445224583507" lon="9.403674944761553"><ele>331.0</ele><time>2026-04-11T13:13:35Z</time></trkpt><trkpt lat="46.32453991175953" lon="9.403707132871773"><ele>331.0</ele><time>2026-04-11T13:13:36Z</time></trkpt><trkpt lat="46.32460348760755" lon="9.403737120415958"><ele>331.0</ele><time>2026-04-11T13:13:37Z</time></trkpt><trkpt lat="46.32473183580495" lon="9.403780564887184"><ele>331.0</ele><time>2026-04-11T13:13:39Z</time></trkpt><trkpt lat="46.32484095182088" lon="9.403824694052217"><ele>331.0</ele><time>2026-04-11T13:13:41Z</time></trkpt><trkpt lat="46.324907729166526" lon="9.40385042808828"><ele>331.0</ele><time>2026-04-11T13:13:44Z</time></trkpt><trkpt lat="46.32479789368751" lon="9.403794787165127"><ele>331.0</ele><time>2026-04-11T13:13:46Z</time></trkpt><trkpt lat="46.32471579744994" lon="9.40378074632441"><ele>331.0</ele><time>2026-04-11T13:14:27Z</time></trkpt><trkpt lat="46.3244514988404" lon="9.403579926180344"><ele>331.0</ele><time>2026-04-11T13:16:38Z</time></trkpt><trkpt lat="46.32440930339401" lon="9.403508750052644"><ele>331.0</ele><time>2026-04-11T13:17:37Z</time></trkpt><trkpt lat="46.324290628981274" lon="9.403501294253372"><ele>331.0</ele><time>2026-04-11T13:17:57Z</time></trkpt><trkpt lat="46.32444545281387" lon="9.403529758506675"><ele>331.0</ele><time>2026-04-11T13:19:08Z</time></trkpt><trkpt lat="46.32448889536676" lon="9.403628662550203"><ele>331.0</ele><time>2026-04-11T13:32:40Z</time></trkpt><trkpt lat="46.32445763844543" lon="9.403544964770624"><ele>331.0</ele><time>2026-04-11T13:38:25Z</time></trkpt><trkpt lat="46.32453969912579" lon="9.403568270572036"><ele>331.0</ele><time>2026-04-11T13:39:08Z</time></trkpt><trkpt lat="46.32447488404704" lon="9.403603806394527"><ele>331.0</ele><time>2026-04-11T13:39:16.999Z</time></trkpt><trkpt lat="46.324411201396586" lon="9.403596169563755"><ele>331.0</ele><time>2026-04-11T13:39:43Z</time></trkpt><trkpt lat="46.32431470026419" lon="9.403632213640888"><ele>331.0</ele><time>2026-04-11T13:39:45Z</time></trkpt><trkpt lat="46.32419655646169" lon="9.40365786249778"><ele>331.0</ele><time>2026-04-11T13:39:47Z</time></trkpt><trkpt lat="46.32426892743512" lon="9.403630323873655"><ele>331.0</ele><time>2026-04-11T13:39:49Z</time></trkpt><trkpt lat="46.32433483449486" lon="9.403588773226408"><ele>331.0</ele><time>2026-04-11T13:39:55Z</time></trkpt><trkpt lat="46.32443995764398" lon="9.403560040690007"><ele>331.0</ele><time>2026-04-11T13:40:08Z</time></trkpt><trkpt lat="46.324360709329625" lon="9.403575894606297"><ele>331.0</ele><time>2026-04-11T13:43:25.999Z</time></trkpt><trkpt lat="46.324430011636075" lon="9.403585450050137"><ele>331.0</ele><time>2026-04-11T13:43:41.999Z</time></trkpt><trkpt lat="46.32449670855101" lon="9.403555261171837"><ele>331.0</ele><time>2026-04-11T13:43:45.999Z</time></trkpt><trkpt lat="46.324609741549565" lon="9.403668639662184"><ele>331.0</ele><time>2026-04-11T13:45:46.999Z</time></trkpt><trkpt lat="46.32456573566452" lon="9.403599043381208"><ele>331.0</ele><time>2026-04-11T13:45:50.999Z</time></trkpt><trkpt lat="46.324486190788676" lon="9.403581948048314"><ele>331.0</ele><time>2026-04-11T13:48:04Z</time></trkpt><trkpt lat="46.32441034865387" lon="9.403561133892346"><ele>331.0</ele><time>2026-04-11T13:48:07Z</time></trkpt><trkpt lat="46.32439230431493" lon="9.40344791078678"><ele>331.0</ele><time>2026-04-11T13:48:28.389Z</time></trkpt><trkpt lat="46.32427267833116" lon="9.403425921197277"><ele>331.0</ele><time>2026-04-11T13:48:34.486Z</time></trkpt><trkpt lat="46.32443572203869" lon="9.403441627968428"><ele>331.0</ele><time>2026-04-11T13:49:34.665Z</time></trkpt><trkpt lat="46.32452476946398" lon="9.403507361063735"><ele>331.0</ele><time>2026-04-11T13:49:40.013Z</time></trkpt><trkpt lat="46.32445678256157" lon="9.4034937312216"><ele>331.0</ele><time>2026-04-11T13:49:45.01Z</time></trkpt><trkpt lat="46.3243897985324" lon="9.403462920878447"><ele>331.0</ele><time>2026-04-11T13:51:34.367Z</time></trkpt><trkpt lat="46.324304211651274" lon="9.403463847239447"><ele>331.0</ele><time>2026-04-11T13:51:40.368Z</time></trkpt><trkpt lat="46.32440752683534" lon="9.403441042215947"><ele>331.0</ele><time>2026-04-11T13:52:54.367Z</time></trkpt><trkpt lat="46.32451973839043" lon="9.403611873051599"><ele>331.0</ele><time>2026-04-11T13:53:32.016Z</time></trkpt><trkpt lat="46.32446267803521" lon="9.403676103677906"><ele>331.0</ele><time>2026-04-11T13:53:34.017Z</time></trkpt><trkpt lat="46.32453211508221" lon="9.403629885591506"><ele>331.0</ele><time>2026-04-11T13:53:43.019Z</time></trkpt><trkpt lat="46.32456281157114" lon="9.40349027904837"><ele>331.0</ele><time>2026-04-11T13:53:45.02Z</time></trkpt><trkpt lat="46.324550539788305" lon="9.403367641141221"><ele>331.0</ele><time>2026-04-11T13:53:47.019Z</time></trkpt><trkpt lat="46.324619574118266" lon="9.403338279803814"><ele>331.0</ele><time>2026-04-11T13:53:50.02Z</time></trkpt><trkpt lat="46.32465599214667" lon="9.403431587165626"><ele>331.0</ele><time>2026-04-11T13:53:53.015Z</time></trkpt><trkpt lat="46.32464145470136" lon="9.403548741873912"><ele>331.0</ele><time>2026-04-11T13:53:56.016Z</time></trkpt><trkpt lat="46.324582896226424" lon="9.403510098013397"><ele>331.0</ele><time>2026-04-11T13:54:02.003Z</time></trkpt><trkpt lat="46.324642340496766" lon="9.403475697983376"><ele>331.0</ele><time>2026-04-11T13:54:05.999Z</time></trkpt><trkpt lat="46.32455577855605" lon="9.403522496877075"><ele>331.0</ele><time>2026-04-11T13:55:22Z</time></trkpt><trkpt lat="46.32457294127527" lon="9.40338884845075"><ele>331.0</ele><time>2026-04-11T14:01:59.001Z</time></trkpt><trkpt lat="46.324497561842776" lon="9.403408314020513"><ele>331.0</ele><time>2026-04-11T14:02:27.001Z</time></trkpt><trkpt lat="46.32442150927918" lon="9.403489321469953"><ele>331.0</ele><time>2026-04-11T14:02:29.001Z</time></trkpt><trkpt lat="46.32431701853044" lon="9.403511985996902"><ele>331.0</ele><time>2026-04-11T14:02:31.001Z</time></trkpt><trkpt lat="46.32423050111462" lon="9.403572100059948"><ele>331.0</ele><time>2026-04-11T14:02:33.001Z</time></trkpt><trkpt lat="46.32414927394024" lon="9.403520179612565"><ele>331.0</ele><time>2026-04-11T14:02:43.001Z</time></trkpt><trkpt lat="46.32410773214616" lon="9.403438994688608"><ele>331.0</ele><time>2026-04-11T14:02:44.001Z</time></trkpt><trkpt lat="46.32406162536622" lon="9.403317746241783"><ele>331.0</ele><time>2026-04-11T14:02:45.001Z</time></trkpt><trkpt lat="46.32401794945655" lon="9.403191658689478"><ele>331.0</ele><time>2026-04-11T14:02:46.001Z</time></trkpt><trkpt lat="46.323970509590076" lon="9.403064168650467"><ele>331.0</ele><time>2026-04-11T14:02:47Z</time></trkpt><trkpt lat="46.323916259767756" lon="9.402928708224614"><ele>331.0</ele><time>2026-04-11T14:02:48Z</time></trkpt><trkpt lat="46.32385394915626" lon="9.402778884280755"><ele>330.25</ele><time>2026-04-11T14:02:49Z</time></trkpt><trkpt lat="46.32378987306747" lon="9.402622614374604"><ele>329.5</ele><time>2026-04-11T14:02:50Z</time></trkpt><trkpt lat="46.32372273685" lon="9.402454432694961"><ele>328.75</ele><time>2026-04-11T14:02:51Z</time></trkpt><trkpt lat="46.32365503764363" lon="9.402279542261434"><ele>328.0</ele><time>2026-04-11T14:02:52Z</time></trkpt><trkpt lat="46.323580606964946" lon="9.402097402682651"><ele>328.0</ele><time>2026-04-11T14:02:53Z</time></trkpt><trkpt lat="46.32350544956773" lon="9.40191393108589"><ele>328.0</ele><time>2026-04-11T14:02:54Z</time></trkpt><trkpt lat="46.323430606718055" lon="9.401733459639594"><ele>328.0</ele><time>2026-04-11T14:02:55Z</time></trkpt><trkpt lat="46.32336644857022" lon="9.401564865432125"><ele>328.0</ele><time>2026-04-11T14:02:56Z</time></trkpt><trkpt lat="46.32330078658646" lon="9.401403124548352"><ele>327.25</ele><time>2026-04-11T14:02:57Z</time></trkpt><trkpt lat="46.323234182325145" lon="9.401247549340173"><ele>326.5</ele><time>2026-04-11T14:02:58Z</time></trkpt><trkpt lat="46.323168728968504" lon="9.401085013308604"><ele>325.75</ele><time>2026-04-11T14:02:59Z</time></trkpt><trkpt lat="46.32310244028341" lon="9.400914955429718"><ele>325.0</ele><time>2026-04-11T14:03:00Z</time></trkpt><trkpt lat="46.323035970554066" lon="9.400741495393662"><ele>325.0</ele><time>2026-04-11T14:03:01Z</time></trkpt><trkpt lat="46.32296775046088" lon="9.400565109280743"><ele>325.0</ele><time>2026-04-11T14:03:02Z</time></trkpt><trkpt lat="46.32290130922925" lon="9.40039404562659"><ele>325.0</ele><time>2026-04-11T14:03:03Z</time></trkpt><trkpt lat="46.322834001954554" lon="9.400232014532952"><ele>325.0</ele><time>2026-04-11T14:03:04Z</time></trkpt><trkpt lat="46.32276664581692" lon="9.400069569227893"><ele>326.2</ele><time>2026-04-11T14:03:05Z</time></trkpt><trkpt lat="46.32270784564029" lon="9.39992538897789"><ele>327.4</ele><time>2026-04-11T14:03:06.001Z</time></trkpt><trkpt lat="46.32265996655273" lon="9.39980391767994"><ele>328.6</ele><time>2026-04-11T14:03:07.001Z</time></trkpt><trkpt lat="46.32261253272758" lon="9.399684097176763"><ele>329.8</ele><time>2026-04-11T14:03:08.001Z</time></trkpt><trkpt lat="46.32256169097388" lon="9.399562848806099"><ele>331.0</ele><time>2026-04-11T14:03:09.001Z</time></trkpt><trkpt lat="46.32252211656411" lon="9.399428491906484"><ele>331.8</ele><time>2026-04-11T14:03:10.001Z</time></trkpt><trkpt lat="46.322460113437195" lon="9.399313575581655"><ele>332.6</ele><time>2026-04-11T14:03:11.001Z</time></trkpt><trkpt lat="46.322410512591546" lon="9.399188139150155"><ele>333.4</ele><time>2026-04-11T14:03:12.001Z</time></trkpt><trkpt lat="46.32237035736319" lon="9.399044165806805"><ele>334.2</ele><time>2026-04-11T14:03:13.001Z</time></trkpt><trkpt lat="46.32231032648863" lon="9.398903901473798"><ele>335.0</ele><time>2026-04-11T14:03:14.001Z</time></trkpt><trkpt lat="46.322244773844886" lon="9.398760473737243"><ele>333.0</ele><time>2026-04-11T14:03:15.001Z</time></trkpt><trkpt lat="46.32216853305857" lon="9.398606562704526"><ele>331.0</ele><time>2026-04-11T14:03:16.001Z</time></trkpt><trkpt lat="46.322072051990446" lon="9.398483995998728"><ele>329.0</ele><time>2026-04-11T14:03:17.001Z</time></trkpt><trkpt lat="46.32198851286029" lon="9.398342441224566"><ele>327.0</ele><time>2026-04-11T14:03:18.001Z</time></trkpt><trkpt lat="46.321914985867934" lon="9.398240047459547"><ele>327.0</ele><time>2026-04-11T14:03:19.001Z</time></trkpt><trkpt lat="46.32182393564338" lon="9.398139201807"><ele>327.0</ele><time>2026-04-11T14:03:20.001Z</time></trkpt><trkpt lat="46.32172632347843" lon="9.398064513786593"><ele>327.0</ele><time>2026-04-11T14:03:21.001Z</time></trkpt><trkpt lat="46.32162899447409" lon="9.39798902271733"><ele>327.0</ele><time>2026-04-11T14:03:22.001Z</time></trkpt><trkpt lat="46.32153328547618" lon="9.39793240790331"><ele>327.0</ele><time>2026-04-11T14:03:23.001Z</time></trkpt><trkpt lat="46.321445845631125" lon="9.397882338671264"><ele>326.8333333333333</ele><time>2026-04-11T14:03:24.001Z</time></trkpt><trkpt lat="46.3213622253714" lon="9.397847791072058"><ele>326.6666666666667</ele><time>2026-04-11T14:03:25.001Z</time></trkpt><trkpt lat="46.321291001972526" lon="9.397810742608614"><ele>326.5</ele><time>2026-04-11T14:03:26.001Z</time></trkpt><trkpt lat="46.32122912343605" lon="9.397777696524921"><ele>326.33333333333337</ele><time>2026-04-11T14:03:27.001Z</time></trkpt><trkpt lat="46.32112035534657" lon="9.397728271192237"><ele>326.1666666666667</ele><time>2026-04-11T14:03:29.001Z</time></trkpt><trkpt lat="46.32103575558168" lon="9.39770072151682"><ele>326.0</ele><time>2026-04-11T14:03:31.001Z</time></trkpt><trkpt lat="46.3209239604803" lon="9.39765527089395"><ele>326.0</ele><time>2026-04-11T14:03:37.001Z</time></trkpt><trkpt lat="46.32085708758351" lon="9.397616970125352"><ele>326.0</ele><time>2026-04-11T14:03:38.001Z</time></trkpt><trkpt lat="46.32076420530795" lon="9.397687966013716"><ele>326.0</ele><time>2026-04-11T14:03:40.001Z</time></trkpt><trkpt lat="46.320703557754534" lon="9.397865060744333"><ele>326.0</ele><time>2026-04-11T14:03:42.001Z</time></trkpt><trkpt lat="46.3206269262218" lon="9.397943539912252"><ele>326.0</ele><time>2026-04-11T14:03:43.001Z</time></trkpt><trkpt lat="46.32053407468798" lon="9.398015405041482"><ele>325.8</ele><time>2026-04-11T14:03:44.001Z</time></trkpt><trkpt lat="46.32043933257586" lon="9.398084439400078"><ele>325.6</ele><time>2026-04-11T14:03:45.001Z</time></trkpt><trkpt lat="46.32035804543775" lon="9.398153594418902"><ele>325.4</ele><time>2026-04-11T14:03:46.001Z</time></trkpt><trkpt lat="46.32028239927732" lon="9.3982261603604"><ele>325.2</ele><time>2026-04-11T14:03:47.001Z</time></trkpt><trkpt lat="46.32019511156964" lon="9.398299619241175"><ele>325.0</ele><time>2026-04-11T14:03:48.001Z</time></trkpt><trkpt lat="46.32009912511677" lon="9.398388837883873"><ele>325.0</ele><time>2026-04-11T14:03:49.001Z</time></trkpt><trkpt lat="46.32001489012893" lon="9.3984622206147"><ele>325.0</ele><time>2026-04-11T14:03:50.001Z</time></trkpt><trkpt lat="46.319940659133785" lon="9.39852935311292"><ele>325.0</ele><time>2026-04-11T14:03:51.001Z</time></trkpt><trkpt lat="46.319865173857266" lon="9.398599384985575"><ele>325.0</ele><time>2026-04-11T14:03:52.001Z</time></trkpt><trkpt lat="46.31978636462139" lon="9.398666207160149"><ele>325.0</ele><time>2026-04-11T14:03:53.001Z</time></trkpt><trkpt lat="46.31971065173348" lon="9.398730536909595"><ele>324.1428571428571</ele><time>2026-04-11T14:03:54.001Z</time></trkpt><trkpt lat="46.31964035507401" lon="9.398794688099876"><ele>323.28571428571433</ele><time>2026-04-11T14:03:55.001Z</time></trkpt><trkpt lat="46.31957469710443" lon="9.398851055987734"><ele>322.42857142857144</ele><time>2026-04-11T14:03:56.001Z</time></trkpt><trkpt lat="46.31951046767038" lon="9.398909504646774"><ele>321.57142857142856</ele><time>2026-04-11T14:03:57.001Z</time></trkpt><trkpt lat="46.3194535595774" lon="9.398960556521704"><ele>320.71428571428567</ele><time>2026-04-11T14:03:58.001Z</time></trkpt><trkpt lat="46.319395807604764" lon="9.399006148219021"><ele>319.8571428571429</ele><time>2026-04-11T14:03:59.001Z</time></trkpt><trkpt lat="46.31934126620917" lon="9.399054704702703"><ele>319.0</ele><time>2026-04-11T14:04:00.001Z</time></trkpt><trkpt lat="46.31928604262757" lon="9.3991007747889"><ele>319.0</ele><time>2026-04-11T14:04:01.001Z</time></trkpt><trkpt lat="46.31922907158809" lon="9.399148119224275"><ele>319.0</ele><time>2026-04-11T14:04:02.001Z</time></trkpt><trkpt lat="46.319127039725764" lon="9.399241592785303"><ele>319.0</ele><time>2026-04-11T14:04:04.001Z</time></trkpt><trkpt lat="46.31906691959426" lon="9.399296109491493"><ele>319.0</ele><time>2026-04-11T14:04:06.001Z</time></trkpt><trkpt lat="46.318996106215046" lon="9.399356939681006"><ele>319.0</ele><time>2026-04-11T14:04:11.001Z</time></trkpt><trkpt lat="46.31892559685634" lon="9.399414495842645"><ele>319.0</ele><time>2026-04-11T14:04:13.001Z</time></trkpt><trkpt lat="46.318866392896425" lon="9.399469360571667"><ele>319.79999999999995</ele><time>2026-04-11T14:04:15.001Z</time></trkpt><trkpt lat="46.31880019261846" lon="9.399529951977748"><ele>320.59999999999997</ele><time>2026-04-11T14:04:18.001Z</time></trkpt><trkpt lat="46.31872785682675" lon="9.399588854474885"><ele>321.4</ele><time>2026-04-11T14:04:21.001Z</time></trkpt><trkpt lat="46.31866735208603" lon="9.399643768372853"><ele>322.2</ele><time>2026-04-11T14:04:23.001Z</time></trkpt><trkpt lat="46.31856760645165" lon="9.399720604243061"><ele>323.0</ele><time>2026-04-11T14:04:25.001Z</time></trkpt><trkpt lat="46.31844018382264" lon="9.39977211975286"><ele>323.2</ele><time>2026-04-11T14:04:27.001Z</time></trkpt><trkpt lat="46.31834505179575" lon="9.399786267344055"><ele>323.4</ele><time>2026-04-11T14:04:28.001Z</time></trkpt><trkpt lat="46.31823923087145" lon="9.399801519395934"><ele>323.59999999999997</ele><time>2026-04-11T14:04:29.001Z</time></trkpt><trkpt lat="46.31812181085107" lon="9.399813121789323"><ele>323.79999999999995</ele><time>2026-04-11T14:04:30.001Z</time></trkpt><trkpt lat="46.31800023106481" lon="9.399823105336747"><ele>324.0</ele><time>2026-04-11T14:04:31Z</time></trkpt><trkpt lat="46.31787156796631" lon="9.399813850002737"><ele>323.5</ele><time>2026-04-11T14:04:32Z</time></trkpt><trkpt lat="46.317735823451045" lon="9.399791523648577"><ele>323.0</ele><time>2026-04-11T14:04:33Z</time></trkpt><trkpt lat="46.31759618913165" lon="9.399751303419725"><ele>322.5</ele><time>2026-04-11T14:04:34Z</time></trkpt><trkpt lat="46.317447614454096" lon="9.399683143379137"><ele>322.0</ele><time>2026-04-11T14:04:35Z</time></trkpt><trkpt lat="46.31731044498626" lon="9.399608557612325"><ele>319.66666666666663</ele><time>2026-04-11T14:04:36Z</time></trkpt><trkpt lat="46.31717338974167" lon="9.399507171727727"><ele>317.3333333333333</ele><time>2026-04-11T14:04:37Z</time></trkpt><trkpt lat="46.31704410860997" lon="9.399394344676315"><ele>315.0</ele><time>2026-04-11T14:04:38Z</time></trkpt><trkpt lat="46.31691890960909" lon="9.399281558227674"><ele>315.0</ele><time>2026-04-11T14:04:39Z</time></trkpt><trkpt lat="46.31679930813583" lon="9.399168088929343"><ele>315.0</ele><time>2026-04-11T14:04:40Z</time></trkpt><trkpt lat="46.31668339523962" lon="9.399057573347056"><ele>315.0</ele><time>2026-04-11T14:04:41Z</time></trkpt><trkpt lat="46.3165719434592" lon="9.398952410742769"><ele>315.0</ele><time>2026-04-11T14:04:42Z</time></trkpt><trkpt lat="46.31646757203278" lon="9.398855933657607"><ele>312.0</ele><time>2026-04-11T14:04:43Z</time></trkpt><trkpt lat="46.316371801557295" lon="9.398748772027846"><ele>309.0</ele><time>2026-04-11T14:04:44Z</time></trkpt><trkpt lat="46.316263016248264" lon="9.398683724706835"><ele>306.0</ele><time>2026-04-11T14:04:45Z</time></trkpt><trkpt lat="46.31616419993406" lon="9.398603298378493"><ele>303.0</ele><time>2026-04-11T14:04:46Z</time></trkpt><trkpt lat="46.316063814055" lon="9.39852504379262"><ele>303.0</ele><time>2026-04-11T14:04:47Z</time></trkpt><trkpt lat="46.31596172628434" lon="9.398457913951603"><ele>303.0</ele><time>2026-04-11T14:04:48Z</time></trkpt><trkpt lat="46.315857999067084" lon="9.39838871716715"><ele>303.0</ele><time>2026-04-11T14:04:49Z</time></trkpt><trkpt lat="46.315747217377464" lon="9.398316394911511"><ele>303.0</ele><time>2026-04-11T14:04:50Z</time></trkpt><trkpt lat="46.31563297270005" lon="9.398251556185253"><ele>302.0</ele><time>2026-04-11T14:04:51Z</time></trkpt><trkpt lat="46.315517782157265" lon="9.398191827330896"><ele>301.0</ele><time>2026-04-11T14:04:52Z</time></trkpt><trkpt lat="46.315402513834705" lon="9.398141483077229"><ele>300.0</ele><time>2026-04-11T14:04:53Z</time></trkpt><trkpt lat="46.3152917234894" lon="9.398089274885598"><ele>299.0</ele><time>2026-04-11T14:04:54Z</time></trkpt><trkpt lat="46.31517971676731" lon="9.398044347863712"><ele>299.0</ele><time>2026-04-11T14:04:55Z</time></trkpt><trkpt lat="46.315068648965585" lon="9.398002203404472"><ele>299.0</ele><time>2026-04-11T14:04:56Z</time></trkpt><trkpt lat="46.31494678604204" lon="9.397950830660022"><ele>299.0</ele><time>2026-04-11T14:04:57Z</time></trkpt><trkpt lat="46.314805210652466" lon="9.397903962188803"><ele>299.0</ele><time>2026-04-11T14:04:58Z</time></trkpt><trkpt lat="46.31464787715847" lon="9.397852613412105"><ele>298.6666666666667</ele><time>2026-04-11T14:04:59Z</time></trkpt><trkpt lat="46.314480275075084" lon="9.397796790112828"><ele>298.3333333333333</ele><time>2026-04-11T14:05:00Z</time></trkpt><trkpt lat="46.314319390366805" lon="9.397711864034571"><ele>298.0</ele><time>2026-04-11T14:05:01Z</time></trkpt><trkpt lat="46.31415406601823" lon="9.397673806690328"><ele>298.0</ele><time>2026-04-11T14:05:02Z</time></trkpt><trkpt lat="46.31399819029526" lon="9.397616613307921"><ele>298.0</ele><time>2026-04-11T14:05:03Z</time></trkpt><trkpt lat="46.31384205165822" lon="9.397558341390399"><ele>298.0</ele><time>2026-04-11T14:05:04Z</time></trkpt><trkpt lat="46.31369001064272" lon="9.397502389080552"><ele>298.0</ele><time>2026-04-11T14:05:05Z</time></trkpt><trkpt lat="46.313537367197696" lon="9.397447807991664"><ele>298.0</ele><time>2026-04-11T14:05:06Z</time></trkpt><trkpt lat="46.313389625406565" lon="9.397394608463358"><ele>298.0</ele><time>2026-04-11T14:05:07Z</time></trkpt><trkpt lat="46.313261968973414" lon="9.397349012338191"><ele>298.0</ele><time>2026-04-11T14:05:08Z</time></trkpt><trkpt lat="46.313161467780816" lon="9.397309044178797"><ele>298.0</ele><time>2026-04-11T14:05:09Z</time></trkpt><trkpt lat="46.31307228401698" lon="9.397263938224468"><ele>298.0</ele><time>2026-04-11T14:05:10Z</time></trkpt><trkpt lat="46.31298056588825" lon="9.397221844298677"><ele>298.0</ele><time>2026-04-11T14:05:11Z</time></trkpt><trkpt lat="46.312873534737726" lon="9.39718217490596"><ele>298.0</ele><time>2026-04-11T14:05:12Z</time></trkpt><trkpt lat="46.312756404039376" lon="9.397143012602442"><ele>298.0</ele><time>2026-04-11T14:05:13Z</time></trkpt><trkpt lat="46.31263404603825" lon="9.39710646543391"><ele>297.25</ele><time>2026-04-11T14:05:14Z</time></trkpt><trkpt lat="46.31250726014357" lon="9.397064705265578"><ele>296.5</ele><time>2026-04-11T14:05:15Z</time></trkpt><trkpt lat="46.312378387867106" lon="9.397019035169825"><ele>295.75</ele><time>2026-04-11T14:05:16Z</time></trkpt><trkpt lat="46.312249591705196" lon="9.396970834579301"><ele>295.0</ele><time>2026-04-11T14:05:17Z</time></trkpt><trkpt lat="46.312124128135416" lon="9.396925499798067"><ele>295.0</ele><time>2026-04-11T14:05:18Z</time></trkpt><trkpt lat="46.312003241062335" lon="9.396881740673194"><ele>295.0</ele><time>2026-04-11T14:05:19Z</time></trkpt><trkpt lat="46.31188443771785" lon="9.396829521555816"><ele>295.0</ele><time>2026-04-11T14:05:20Z</time></trkpt><trkpt lat="46.31177095555706" lon="9.396776931896506"><ele>295.0</ele><time>2026-04-11T14:05:21Z</time></trkpt><trkpt lat="46.31166425381008" lon="9.39672406276727"><ele>295.0</ele><time>2026-04-11T14:05:22Z</time></trkpt><trkpt lat="46.31156130477431" lon="9.396685885213664"><ele>295.0</ele><time>2026-04-11T14:05:23Z</time></trkpt><trkpt lat="46.311465647538334" lon="9.396654867219095"><ele>295.0</ele><time>2026-04-11T14:05:24Z</time></trkpt><trkpt lat="46.311375108988294" lon="9.396627617902265"><ele>295.0</ele><time>2026-04-11T14:05:25Z</time></trkpt><trkpt lat="46.311295429064025" lon="9.396605567732417"><ele>295.0</ele><time>2026-04-11T14:05:26Z</time></trkpt><trkpt lat="46.31122593665461" lon="9.396587556706406"><ele>295.0</ele><time>2026-04-11T14:05:27Z</time></trkpt><trkpt lat="46.31113693569529" lon="9.396547860392241"><ele>294.66666666666663</ele><time>2026-04-11T14:05:29Z</time></trkpt><trkpt lat="46.31107954196578" lon="9.39648783653842"><ele>294.3333333333333</ele><time>2026-04-11T14:05:35Z</time></trkpt><trkpt lat="46.31099735897486" lon="9.396358361751556"><ele>294.0</ele><time>2026-04-11T14:05:37Z</time></trkpt><trkpt lat="46.31093927698812" lon="9.396269960338744"><ele>293.6666666666667</ele><time>2026-04-11T14:05:38Z</time></trkpt><trkpt lat="46.31088007941329" lon="9.396228863907863"><ele>293.33333333333337</ele><time>2026-04-11T14:05:39Z</time></trkpt><trkpt lat="46.31077979690653" lon="9.396256946423678"><ele>293.0</ele><time>2026-04-11T14:05:41Z</time></trkpt><trkpt lat="46.310704823714836" lon="9.396307461807686"><ele>293.0</ele><time>2026-04-11T14:05:42Z</time></trkpt><trkpt lat="46.31060894962841" lon="9.396382701940208"><ele>293.0</ele><time>2026-04-11T14:05:43Z</time></trkpt><trkpt lat="46.31046237494654" lon="9.39631099440362"><ele>293.0</ele><time>2026-04-11T14:05:44Z</time></trkpt><trkpt lat="46.31031034967172" lon="9.396276691047635"><ele>293.0</ele><time>2026-04-11T14:05:45Z</time></trkpt><trkpt lat="46.31015645512121" lon="9.3961985546487"><ele>292.6666666666667</ele><time>2026-04-11T14:05:46Z</time></trkpt><trkpt lat="46.30999310762816" lon="9.396129804100124"><ele>292.3333333333333</ele><time>2026-04-11T14:05:47Z</time></trkpt><trkpt lat="46.30982135164807" lon="9.396066390585052"><ele>292.0</ele><time>2026-04-11T14:05:48Z</time></trkpt><trkpt lat="46.309665231188326" lon="9.395987456067743"><ele>291.75</ele><time>2026-04-11T14:05:49Z</time></trkpt><trkpt lat="46.30953209691606" lon="9.395889488885116"><ele>291.5</ele><time>2026-04-11T14:05:50Z</time></trkpt><trkpt lat="46.309410982383596" lon="9.395774237217571"><ele>291.25</ele><time>2026-04-11T14:05:51Z</time></trkpt><trkpt lat="46.30930411300755" lon="9.39563644498002"><ele>291.0</ele><time>2026-04-11T14:05:52Z</time></trkpt><trkpt lat="46.309201410924025" lon="9.395490617536767"><ele>291.0</ele><time>2026-04-11T14:05:53Z</time></trkpt><trkpt lat="46.309109147291615" lon="9.395339829612672"><ele>291.0</ele><time>2026-04-11T14:05:54Z</time></trkpt><trkpt lat="46.309024567619716" lon="9.395181324735763"><ele>291.0</ele><time>2026-04-11T14:05:55.001Z</time></trkpt><trkpt lat="46.30894764845188" lon="9.395008855024587"><ele>291.0</ele><time>2026-04-11T14:05:56.001Z</time></trkpt><trkpt lat="46.30887756199484" lon="9.394830345651007"><ele>292.0</ele><time>2026-04-11T14:05:57.001Z</time></trkpt><trkpt lat="46.30881054598918" lon="9.394646820233584"><ele>293.0</ele><time>2026-04-11T14:05:58.001Z</time></trkpt><trkpt lat="46.308753774846544" lon="9.394469436643735"><ele>294.0</ele><time>2026-04-11T14:05:59.001Z</time></trkpt><trkpt lat="46.30869911346944" lon="9.394295348317023"><ele>295.0</ele><time>2026-04-11T14:06:00.001Z</time></trkpt><trkpt lat="46.30865318897649" lon="9.394111719624389"><ele>295.0</ele><time>2026-04-11T14:06:01.001Z</time></trkpt><trkpt lat="46.30860802658228" lon="9.393924731494511"><ele>295.0</ele><time>2026-04-11T14:06:02.001Z</time></trkpt><trkpt lat="46.30850404100438" lon="9.39376780887896"><ele>295.0</ele><time>2026-04-11T14:06:03.001Z</time></trkpt><trkpt lat="46.30845483618331" lon="9.39357337622019"><ele>295.0</ele><time>2026-04-11T14:06:04.001Z</time></trkpt><trkpt lat="46.30839494199595" lon="9.393401732595185"><ele>294.25</ele><time>2026-04-11T14:06:05.001Z</time></trkpt><trkpt lat="46.308320791492434" lon="9.3932306308031"><ele>293.5</ele><time>2026-04-11T14:06:06.001Z</time></trkpt><trkpt lat="46.30826203014472" lon="9.393049116899654"><ele>292.75</ele><time>2026-04-11T14:06:07.001Z</time></trkpt><trkpt lat="46.308202553355066" lon="9.392886536997075"><ele>292.0</ele><time>2026-04-11T14:06:08.001Z</time></trkpt><trkpt lat="46.3081334381299" lon="9.392717176091153"><ele>292.5</ele><time>2026-04-11T14:06:09.001Z</time></trkpt><trkpt lat="46.30805490937247" lon="9.392559111546086"><ele>293.0</ele><time>2026-04-11T14:06:10.001Z</time></trkpt><trkpt lat="46.30796039640913" lon="9.392416110371395"><ele>293.5</ele><time>2026-04-11T14:06:11.001Z</time></trkpt><trkpt lat="46.30785362958055" lon="9.392283693931292"><ele>294.0</ele><time>2026-04-11T14:06:12.001Z</time></trkpt><trkpt lat="46.30773567232262" lon="9.392161782693917"><ele>292.0</ele><time>2026-04-11T14:06:13.001Z</time></trkpt><trkpt lat="46.30760864955768" lon="9.392047646727788"><ele>290.0</ele><time>2026-04-11T14:06:14.001Z</time></trkpt><trkpt lat="46.30748047345783" lon="9.391925084320922"><ele>288.0</ele><time>2026-04-11T14:06:15.001Z</time></trkpt><trkpt lat="46.307356317898424" lon="9.391812055281903"><ele>290.0</ele><time>2026-04-11T14:06:16.001Z</time></trkpt><trkpt lat="46.30724170693839" lon="9.391695822765318"><ele>292.0</ele><time>2026-04-11T14:06:17.001Z</time></trkpt><trkpt lat="46.307118349184144" lon="9.391578350313429"><ele>294.0</ele><time>2026-04-11T14:06:18.001Z</time></trkpt><trkpt lat="46.30698245100081" lon="9.391450263416536"><ele>291.6666666666667</ele><time>2026-04-11T14:06:19.001Z</time></trkpt><trkpt lat="46.30683138003139" lon="9.39130619819284"><ele>289.33333333333337</ele><time>2026-04-11T14:06:20.001Z</time></trkpt><trkpt lat="46.30667608380522" lon="9.391126996926843"><ele>287.0</ele><time>2026-04-11T14:06:21.001Z</time></trkpt><trkpt lat="46.30650121141697" lon="9.390957377567808"><ele>286.33333333333337</ele><time>2026-04-11T14:06:22.001Z</time></trkpt><trkpt lat="46.30631564749584" lon="9.390803967953346"><ele>285.6666666666667</ele><time>2026-04-11T14:06:23.001Z</time></trkpt><trkpt lat="46.306139045735954" lon="9.390628403913906"><ele>285.0</ele><time>2026-04-11T14:06:24.001Z</time></trkpt><trkpt lat="46.30595647809034" lon="9.39047602422284"><ele>285.0</ele><time>2026-04-11T14:06:25.001Z</time></trkpt><trkpt lat="46.30577824582023" lon="9.39033278114972"><ele>285.0</ele><time>2026-04-11T14:06:26.001Z</time></trkpt><trkpt lat="46.30560396577296" lon="9.390205171180005"><ele>285.0</ele><time>2026-04-11T14:06:27.001Z</time></trkpt><trkpt lat="46.30543610096099" lon="9.390093183922943"><ele>287.3333333333333</ele><time>2026-04-11T14:06:28.001Z</time></trkpt><trkpt lat="46.3052684990577" lon="9.389992808189524"><ele>289.66666666666663</ele><time>2026-04-11T14:06:29.001Z</time></trkpt><trkpt lat="46.30510306101681" lon="9.389897407373974"><ele>292.0</ele><time>2026-04-11T14:06:30.001Z</time></trkpt><trkpt lat="46.30494162618666" lon="9.389811256664991"><ele>292.0</ele><time>2026-04-11T14:06:31.001Z</time></trkpt><trkpt lat="46.30478779373798" lon="9.389732470986312"><ele>292.0</ele><time>2026-04-11T14:06:32.001Z</time></trkpt><trkpt lat="46.304638395222305" lon="9.3896702939433"><ele>292.0</ele><time>2026-04-11T14:06:33.001Z</time></trkpt><trkpt lat="46.30449054688552" lon="9.389606495529328"><ele>290.3333333333333</ele><time>2026-04-11T14:06:34.001Z</time></trkpt><trkpt lat="46.30434654073846" lon="9.389547890035947"><ele>288.6666666666667</ele><time>2026-04-11T14:06:35.001Z</time></trkpt><trkpt lat="46.30420012623477" lon="9.389498981825666"><ele>287.0</ele><time>2026-04-11T14:06:36.001Z</time></trkpt><trkpt lat="46.304045936576316" lon="9.38945167528689"><ele>286.6666666666667</ele><time>2026-04-11T14:06:37Z</time></trkpt><trkpt lat="46.30389452208093" lon="9.389402336418213"><ele>286.3333333333333</ele><time>2026-04-11T14:06:38Z</time></trkpt><trkpt lat="46.30374768871095" lon="9.389338671618235"><ele>286.0</ele><time>2026-04-11T14:06:39Z</time></trkpt><trkpt lat="46.30360067124842" lon="9.389255978638674"><ele>286.0</ele><time>2026-04-11T14:06:40Z</time></trkpt><trkpt lat="46.30346114475982" lon="9.38913890507929"><ele>286.0</ele><time>2026-04-11T14:06:41Z</time></trkpt><trkpt lat="46.30331173640625" lon="9.389039812616703"><ele>286.0</ele><time>2026-04-11T14:06:42Z</time></trkpt><trkpt lat="46.303150814377695" lon="9.388956099297111"><ele>285.3333333333333</ele><time>2026-04-11T14:06:43Z</time></trkpt><trkpt lat="46.30299256960295" lon="9.38882813071787"><ele>284.6666666666667</ele><time>2026-04-11T14:06:44Z</time></trkpt><trkpt lat="46.302813838605246" lon="9.38873597725581"><ele>284.0</ele><time>2026-04-11T14:06:45Z</time></trkpt><trkpt lat="46.302635489274515" lon="9.388611407772368"><ele>284.0</ele><time>2026-04-11T14:06:46Z</time></trkpt><trkpt lat="46.30245431116061" lon="9.388488430081468"><ele>284.0</ele><time>2026-04-11T14:06:47Z</time></trkpt><trkpt lat="46.302263288859024" lon="9.388368495394982"><ele>284.0</ele><time>2026-04-11T14:06:48Z</time></trkpt><trkpt lat="46.30207758870082" lon="9.388251898760878"><ele>283.33333333333337</ele><time>2026-04-11T14:06:49Z</time></trkpt><trkpt lat="46.3018988056374" lon="9.388139535274583"><ele>282.6666666666667</ele><time>2026-04-11T14:06:50Z</time></trkpt><trkpt lat="46.301722172729114" lon="9.388032526584265"><ele>282.0</ele><time>2026-04-11T14:06:51Z</time></trkpt><trkpt lat="46.301549230038695" lon="9.387930362201322"><ele>281.0</ele><time>2026-04-11T14:06:52Z</time></trkpt><trkpt lat="46.30137799988619" lon="9.387825469451428"><ele>280.0</ele><time>2026-04-11T14:06:53Z</time></trkpt><trkpt lat="46.301211594369136" lon="9.387716371733005"><ele>279.0</ele><time>2026-04-11T14:06:54Z</time></trkpt><trkpt lat="46.30102871111596" lon="9.387595661668616"><ele>279.0</ele><time>2026-04-11T14:06:55Z</time></trkpt><trkpt lat="46.30088009974823" lon="9.38750474310415"><ele>279.0</ele><time>2026-04-11T14:06:56Z</time></trkpt><trkpt lat="46.30072327265922" lon="9.387380652513906"><ele>279.0</ele><time>2026-04-11T14:06:57Z</time></trkpt><trkpt lat="46.30056477192931" lon="9.38727920441997"><ele>279.3333333333333</ele><time>2026-04-11T14:06:58Z</time></trkpt><trkpt lat="46.300400433950614" lon="9.38719822283766"><ele>279.66666666666663</ele><time>2026-04-11T14:06:59Z</time></trkpt><trkpt lat="46.30024556844566" lon="9.387099339797846"><ele>280.0</ele><time>2026-04-11T14:07:00Z</time></trkpt><trkpt lat="46.30010431375383" lon="9.386981926964195"><ele>278.66666666666663</ele><time>2026-04-11T14:07:01Z</time></trkpt><trkpt lat="46.29995824293477" lon="9.38689181285443"><ele>277.3333333333333</ele><time>2026-04-11T14:07:02Z</time></trkpt><trkpt lat="46.29980258334068" lon="9.386827351190881"><ele>276.0</ele><time>2026-04-11T14:07:03Z</time></trkpt><trkpt lat="46.29964377729779" lon="9.386759337304625"><ele>276.0</ele><time>2026-04-11T14:07:04Z</time></trkpt><trkpt lat="46.29948312452641" lon="9.386716194286633"><ele>276.0</ele><time>2026-04-11T14:07:05Z</time></trkpt><trkpt lat="46.29932617824697" lon="9.386695323020733"><ele>276.0</ele><time>2026-04-11T14:07:06Z</time></trkpt><trkpt lat="46.29916999785286" lon="9.38666711442005"><ele>276.0</ele><time>2026-04-11T14:07:07Z</time></trkpt><trkpt lat="46.299011903646736" lon="9.386621835338104"><ele>276.0</ele><time>2026-04-11T14:07:08Z</time></trkpt><trkpt lat="46.29884369296427" lon="9.386592911650173"><ele>276.0</ele><time>2026-04-11T14:07:09Z</time></trkpt><trkpt lat="46.29867135581253" lon="9.386583859251646"><ele>275.3333333333333</ele><time>2026-04-11T14:07:10Z</time></trkpt><trkpt lat="46.298500236745305" lon="9.386547896292559"><ele>274.66666666666663</ele><time>2026-04-11T14:07:11Z</time></trkpt><trkpt lat="46.29833292361853" lon="9.386519130766171"><ele>274.0</ele><time>2026-04-11T14:07:12Z</time></trkpt><trkpt lat="46.29816691487755" lon="9.386488225987126"><ele>273.3333333333333</ele><time>2026-04-11T14:07:13Z</time></trkpt><trkpt lat="46.29800118154685" lon="9.386456223896097"><ele>272.6666666666667</ele><time>2026-04-11T14:07:14Z</time></trkpt><trkpt lat="46.29783457483813" lon="9.386425141296636"><ele>272.0</ele><time>2026-04-11T14:07:15Z</time></trkpt><trkpt lat="46.29766883989314" lon="9.386396902822032"><ele>272.0</ele><time>2026-04-11T14:07:16Z</time></trkpt><trkpt lat="46.29750242662307" lon="9.386364775702463"><ele>272.0</ele><time>2026-04-11T14:07:17Z</time></trkpt><trkpt lat="46.29733255389863" lon="9.386331162554685"><ele>272.0</ele><time>2026-04-11T14:07:18Z</time></trkpt><trkpt lat="46.29716087129261" lon="9.386300509591283"><ele>269.0</ele><time>2026-04-11T14:07:19Z</time></trkpt><trkpt lat="46.29699148208515" lon="9.38627104591879"><ele>266.0</ele><time>2026-04-11T14:07:20Z</time></trkpt><trkpt lat="46.296824286986556" lon="9.386239506458583"><ele>263.0</ele><time>2026-04-11T14:07:21Z</time></trkpt><trkpt lat="46.29666013936538" lon="9.386208048140638"><ele>263.0</ele><time>2026-04-11T14:07:22Z</time></trkpt><trkpt lat="46.29650085773867" lon="9.386176325152652"><ele>263.0</ele><time>2026-04-11T14:07:23Z</time></trkpt><trkpt lat="46.29633883318822" lon="9.386146941641936"><ele>263.0</ele><time>2026-04-11T14:07:24Z</time></trkpt><trkpt lat="46.29617937507553" lon="9.386117445667747"><ele>263.0</ele><time>2026-04-11T14:07:25Z</time></trkpt><trkpt lat="46.29602182624702" lon="9.386089470683224"><ele>263.0</ele><time>2026-04-11T14:07:26Z</time></trkpt><trkpt lat="46.29586505620332" lon="9.386066780038021"><ele>263.0</ele><time>2026-04-11T14:07:27Z</time></trkpt><trkpt lat="46.29571209758861" lon="9.386037370502786"><ele>262.0</ele><time>2026-04-11T14:07:28Z</time></trkpt><trkpt lat="46.29555644707241" lon="9.38600634831101"><ele>261.0</ele><time>2026-04-11T14:07:29Z</time></trkpt><trkpt lat="46.29540113960916" lon="9.385975882274876"><ele>260.0</ele><time>2026-04-11T14:07:30Z</time></trkpt><trkpt lat="46.29524716975999" lon="9.385947604683235"><ele>260.0</ele><time>2026-04-11T14:07:31Z</time></trkpt><trkpt lat="46.29508926592072" lon="9.385917329247679"><ele>260.0</ele><time>2026-04-11T14:07:32Z</time></trkpt><trkpt lat="46.29492745776369" lon="9.385888041956374"><ele>260.0</ele><time>2026-04-11T14:07:33Z</time></trkpt><trkpt lat="46.29476560744871" lon="9.385837597340586"><ele>259.0</ele><time>2026-04-11T14:07:34Z</time></trkpt><trkpt lat="46.2945992628016" lon="9.385828635926837"><ele>258.0</ele><time>2026-04-11T14:07:35Z</time></trkpt><trkpt lat="46.294429948519216" lon="9.385797982132189"><ele>257.0</ele><time>2026-04-11T14:07:36Z</time></trkpt><trkpt lat="46.294259868824916" lon="9.38577369587451"><ele>257.0</ele><time>2026-04-11T14:07:37Z</time></trkpt><trkpt lat="46.29408848531479" lon="9.385767898803602"><ele>257.0</ele><time>2026-04-11T14:07:38Z</time></trkpt><trkpt lat="46.29392000870593" lon="9.38578138491971"><ele>257.0</ele><time>2026-04-11T14:07:39Z</time></trkpt><trkpt lat="46.29375534715739" lon="9.38581406996934"><ele>257.0</ele><time>2026-04-11T14:07:40Z</time></trkpt><trkpt lat="46.29359862523832" lon="9.38585582757185"><ele>257.0</ele><time>2026-04-11T14:07:41Z</time></trkpt><trkpt lat="46.29344420797111" lon="9.385907086463783"><ele>257.0</ele><time>2026-04-11T14:07:42Z</time></trkpt><trkpt lat="46.29329226473216" lon="9.385963753377355"><ele>257.0</ele><time>2026-04-11T14:07:43Z</time></trkpt><trkpt lat="46.293142222906916" lon="9.386041144602139"><ele>257.0</ele><time>2026-04-11T14:07:44Z</time></trkpt><trkpt lat="46.292992218824146" lon="9.386133750148996"><ele>257.0</ele><time>2026-04-11T14:07:45Z</time></trkpt><trkpt lat="46.29284612538527" lon="9.386244744066094"><ele>256.0</ele><time>2026-04-11T14:07:46Z</time></trkpt><trkpt lat="46.292699232029804" lon="9.386377665270361"><ele>255.0</ele><time>2026-04-11T14:07:47Z</time></trkpt><trkpt lat="46.29255059721421" lon="9.386522878981056"><ele>254.0</ele><time>2026-04-11T14:07:48Z</time></trkpt><trkpt lat="46.292402098936435" lon="9.38668322079097"><ele>252.33333333333334</ele><time>2026-04-11T14:07:49Z</time></trkpt><trkpt lat="46.29225529669468" lon="9.386842069276085"><ele>250.66666666666669</ele><time>2026-04-11T14:07:50Z</time></trkpt><trkpt lat="46.29211184505978" lon="9.386996872900264"><ele>249.0</ele><time>2026-04-11T14:07:51Z</time></trkpt><trkpt lat="46.29197173772187" lon="9.387148316222618"><ele>248.66666666666669</ele><time>2026-04-11T14:07:52Z</time></trkpt><trkpt lat="46.291828766741205" lon="9.387296379959468"><ele>248.33333333333334</ele><time>2026-04-11T14:07:53Z</time></trkpt><trkpt lat="46.29168258104105" lon="9.387451961370218"><ele>248.0</ele><time>2026-04-11T14:07:54Z</time></trkpt><trkpt lat="46.29153893857754" lon="9.38760674991278"><ele>248.0</ele><time>2026-04-11T14:07:55Z</time></trkpt><trkpt lat="46.29139520846042" lon="9.387762770984825"><ele>248.0</ele><time>2026-04-11T14:07:56Z</time></trkpt><trkpt lat="46.291252679701266" lon="9.387916363284159"><ele>248.0</ele><time>2026-04-11T14:07:57Z</time></trkpt><trkpt lat="46.29111276236822" lon="9.388068144747587"><ele>248.0</ele><time>2026-04-11T14:07:58Z</time></trkpt><trkpt lat="46.29097845618859" lon="9.38821033951671"><ele>248.0</ele><time>2026-04-11T14:07:59Z</time></trkpt><trkpt lat="46.29084924627197" lon="9.388346936615857"><ele>248.0</ele><time>2026-04-11T14:08:00Z</time></trkpt><trkpt lat="46.290722534004026" lon="9.38848594713437"><ele>248.0</ele><time>2026-04-11T14:08:01Z</time></trkpt><trkpt lat="46.29059660678429" lon="9.388616914133035"><ele>248.0</ele><time>2026-04-11T14:08:02Z</time></trkpt><trkpt lat="46.29047324042755" lon="9.388751875274554"><ele>248.0</ele><time>2026-04-11T14:08:03Z</time></trkpt><trkpt lat="46.290356893295844" lon="9.388877155535113"><ele>248.0</ele><time>2026-04-11T14:08:04Z</time></trkpt><trkpt lat="46.29024457748609" lon="9.388996842807522"><ele>248.0</ele><time>2026-04-11T14:08:05Z</time></trkpt><trkpt lat="46.29013405323497" lon="9.389116066971699"><ele>248.0</ele><time>2026-04-11T14:08:06Z</time></trkpt><trkpt lat="46.290028988576026" lon="9.389226326160722"><ele>248.0</ele><time>2026-04-11T14:08:07Z</time></trkpt><trkpt lat="46.28992616616591" lon="9.3893341549276"><ele>248.0</ele><time>2026-04-11T14:08:08Z</time></trkpt><trkpt lat="46.28982499102145" lon="9.389440158168691"><ele>248.0</ele><time>2026-04-11T14:08:09Z</time></trkpt><trkpt lat="46.28971387165969" lon="9.38954999558275"><ele>248.0</ele><time>2026-04-11T14:08:10Z</time></trkpt><trkpt lat="46.28960147973327" lon="9.389652195066086"><ele>248.0</ele><time>2026-04-11T14:08:11Z</time></trkpt><trkpt lat="46.28948617769033" lon="9.389740562401112"><ele>247.5</ele><time>2026-04-11T14:08:12Z</time></trkpt><trkpt lat="46.2893673449683" lon="9.38982246279656"><ele>247.0</ele><time>2026-04-11T14:08:13Z</time></trkpt><trkpt lat="46.28925305007938" lon="9.38989811995875"><ele>246.5</ele><time>2026-04-11T14:08:14Z</time></trkpt><trkpt lat="46.289139245867815" lon="9.389972510760721"><ele>246.0</ele><time>2026-04-11T14:08:15Z</time></trkpt><trkpt lat="46.28902686133225" lon="9.390044863436804"><ele>245.0</ele><time>2026-04-11T14:08:16.001Z</time></trkpt><trkpt lat="46.288915943236745" lon="9.390114493513236"><ele>244.00000000000003</ele><time>2026-04-11T14:08:17.001Z</time></trkpt><trkpt lat="46.28880761995319" lon="9.39017306701568"><ele>243.00000000000003</ele><time>2026-04-11T14:08:18.001Z</time></trkpt><trkpt lat="46.28870475253966" lon="9.390218806528257"><ele>242.0</ele><time>2026-04-11T14:08:19.001Z</time></trkpt><trkpt lat="46.288625408513326" lon="9.390252351838296"><ele>241.0</ele><time>2026-04-11T14:08:20.001Z</time></trkpt><trkpt lat="46.28855309831562" lon="9.390264477976931"><ele>241.0</ele><time>2026-04-11T14:08:21.001Z</time></trkpt><trkpt lat="46.288474585318774" lon="9.390248039967327"><ele>241.00000000000003</ele><time>2026-04-11T14:08:22.001Z</time></trkpt><trkpt lat="46.28839757613386" lon="9.390215217836225"><ele>241.00000000000003</ele><time>2026-04-11T14:08:23.001Z</time></trkpt><trkpt lat="46.288321946087066" lon="9.390250486087515"><ele>241.0</ele><time>2026-04-11T14:08:24.001Z</time></trkpt><trkpt lat="46.28825978025222" lon="9.390353776254736"><ele>241.0</ele><time>2026-04-11T14:08:25.001Z</time></trkpt><trkpt lat="46.2881900263369" lon="9.390504972415714"><ele>241.33333333333331</ele><time>2026-04-11T14:08:26.001Z</time></trkpt><trkpt lat="46.28808854982225" lon="9.390634348593098"><ele>241.66666666666669</ele><time>2026-04-11T14:08:27.001Z</time></trkpt><trkpt lat="46.287943507247455" lon="9.390708201440622"><ele>242.0</ele><time>2026-04-11T14:08:28.001Z</time></trkpt><trkpt lat="46.287798669593755" lon="9.390832068160934"><ele>242.0</ele><time>2026-04-11T14:08:29.001Z</time></trkpt><trkpt lat="46.28764944360661" lon="9.390934104182152"><ele>242.0</ele><time>2026-04-11T14:08:30.001Z</time></trkpt><trkpt lat="46.2875012929408" lon="9.39104016055114"><ele>242.0</ele><time>2026-04-11T14:08:31.001Z</time></trkpt><trkpt lat="46.28735688198535" lon="9.391136733880833"><ele>241.0</ele><time>2026-04-11T14:08:32.001Z</time></trkpt><trkpt lat="46.28721449794844" lon="9.39122888938928"><ele>240.0</ele><time>2026-04-11T14:08:33.001Z</time></trkpt><trkpt lat="46.28707544591575" lon="9.391320269098365"><ele>239.0</ele><time>2026-04-11T14:08:34.001Z</time></trkpt><trkpt lat="46.286930162437116" lon="9.391417122921721"><ele>239.0</ele><time>2026-04-11T14:08:35.001Z</time></trkpt><trkpt lat="46.286785188600774" lon="9.391512278312758"><ele>239.0</ele><time>2026-04-11T14:08:36.001Z</time></trkpt><trkpt lat="46.28664425055864" lon="9.391604337142981"><ele>239.0</ele><time>2026-04-11T14:08:37.001Z</time></trkpt><trkpt lat="46.28650824138861" lon="9.39169140273771"><ele>238.66666666666669</ele><time>2026-04-11T14:08:38.001Z</time></trkpt><trkpt lat="46.2863680776794" lon="9.391785753148685"><ele>238.33333333333331</ele><time>2026-04-11T14:08:39.001Z</time></trkpt><trkpt lat="46.28622069244794" lon="9.391884264400762"><ele>238.0</ele><time>2026-04-11T14:08:40.001Z</time></trkpt><trkpt lat="46.28606464970614" lon="9.391987106854279"><ele>238.0</ele><time>2026-04-11T14:08:41.001Z</time></trkpt><trkpt lat="46.285881088685386" lon="9.392084855487523"><ele>238.0</ele><time>2026-04-11T14:08:42Z</time></trkpt><trkpt lat="46.285686476773876" lon="9.392211850716764"><ele>238.0</ele><time>2026-04-11T14:08:43Z</time></trkpt><trkpt lat="46.28547890935288" lon="9.392347334281244"><ele>236.66666666666666</ele><time>2026-04-11T14:08:44Z</time></trkpt><trkpt lat="46.285290455131396" lon="9.392494825217856"><ele>235.33333333333331</ele><time>2026-04-11T14:08:45Z</time></trkpt><trkpt lat="46.28510679399446" lon="9.392613714978935"><ele>234.0</ele><time>2026-04-11T14:08:46Z</time></trkpt><trkpt lat="46.2849261373825" lon="9.392731935973769"><ele>233.33333333333331</ele><time>2026-04-11T14:08:47Z</time></trkpt><trkpt lat="46.28475420181659" lon="9.39284061578189"><ele>232.66666666666666</ele><time>2026-04-11T14:08:48Z</time></trkpt><trkpt lat="46.284578167243616" lon="9.392951731056076"><ele>232.0</ele><time>2026-04-11T14:08:49Z</time></trkpt><trkpt lat="46.28439988363914" lon="9.393056545581912"><ele>232.0</ele><time>2026-04-11T14:08:50Z</time></trkpt><trkpt lat="46.28422042292693" lon="9.393151012128172"><ele>232.0</ele><time>2026-04-11T14:08:51Z</time></trkpt><trkpt lat="46.2840392326956" lon="9.393238650141258"><ele>232.0</ele><time>2026-04-11T14:08:52Z</time></trkpt><trkpt lat="46.2838586761787" lon="9.393321706947477"><ele>232.33333333333331</ele><time>2026-04-11T14:08:53Z</time></trkpt><trkpt lat="46.28367970267006" lon="9.393401929437024"><ele>232.66666666666669</ele><time>2026-04-11T14:08:54Z</time></trkpt><trkpt lat="46.28350164885852" lon="9.39348232919679"><ele>233.0</ele><time>2026-04-11T14:08:55Z</time></trkpt><trkpt lat="46.283322053170245" lon="9.393563036850198"><ele>233.0</ele><time>2026-04-11T14:08:56Z</time></trkpt><trkpt lat="46.28314126854868" lon="9.393647367674104"><ele>233.0</ele><time>2026-04-11T14:08:57Z</time></trkpt><trkpt lat="46.28295926673389" lon="9.393737924084801"><ele>233.0</ele><time>2026-04-11T14:08:58Z</time></trkpt><trkpt lat="46.28277928995092" lon="9.393840601020479"><ele>232.33333333333334</ele><time>2026-04-11T14:08:59Z</time></trkpt><trkpt lat="46.28260085196962" lon="9.393947512791868"><ele>231.66666666666669</ele><time>2026-04-11T14:09:00Z</time></trkpt><trkpt lat="46.28242526165539" lon="9.394055219873069"><ele>231.0</ele><time>2026-04-11T14:09:01Z</time></trkpt><trkpt lat="46.282250198691855" lon="9.39416678518331"><ele>231.0</ele><time>2026-04-11T14:09:02Z</time></trkpt><trkpt lat="46.282078148484935" lon="9.394277231040537"><ele>231.0</ele><time>2026-04-11T14:09:03Z</time></trkpt><trkpt lat="46.281901128616916" lon="9.394388607727908"><ele>231.0</ele><time>2026-04-11T14:09:04Z</time></trkpt><trkpt lat="46.28172676409576" lon="9.394497286347884"><ele>231.0</ele><time>2026-04-11T14:09:05Z</time></trkpt><trkpt lat="46.28155745469012" lon="9.394602193042392"><ele>231.0</ele><time>2026-04-11T14:09:06Z</time></trkpt><trkpt lat="46.2813888776989" lon="9.394704431378246"><ele>231.0</ele><time>2026-04-11T14:09:07Z</time></trkpt><trkpt lat="46.281218568860865" lon="9.39481065345627"><ele>231.0</ele><time>2026-04-11T14:09:08Z</time></trkpt><trkpt lat="46.281049802098245" lon="9.394919512920191"><ele>231.0</ele><time>2026-04-11T14:09:09Z</time></trkpt><trkpt lat="46.280881106284355" lon="9.395026898877564"><ele>231.0</ele><time>2026-04-11T14:09:10Z</time></trkpt><trkpt lat="46.28071461481421" lon="9.395132117470254"><ele>229.66666666666669</ele><time>2026-04-11T14:09:11Z</time></trkpt><trkpt lat="46.28055324808346" lon="9.39523376273528"><ele>228.33333333333334</ele><time>2026-04-11T14:09:12Z</time></trkpt><trkpt lat="46.28039001471855" lon="9.395335265465757"><ele>227.0</ele><time>2026-04-11T14:09:13Z</time></trkpt><trkpt lat="46.28023070306234" lon="9.395434001636197"><ele>227.33333333333334</ele><time>2026-04-11T14:09:14Z</time></trkpt><trkpt lat="46.28007376755049" lon="9.395532126811704"><ele>227.66666666666669</ele><time>2026-04-11T14:09:15Z</time></trkpt><trkpt lat="46.27991563849455" lon="9.39563290328707"><ele>228.0</ele><time>2026-04-11T14:09:16Z</time></trkpt><trkpt lat="46.27975808857366" lon="9.395730965121336"><ele>228.0</ele><time>2026-04-11T14:09:17Z</time></trkpt><trkpt lat="46.279605507643346" lon="9.395826748999076"><ele>228.0</ele><time>2026-04-11T14:09:18Z</time></trkpt><trkpt lat="46.27945624660489" lon="9.395920488781277"><ele>228.0</ele><time>2026-04-11T14:09:19Z</time></trkpt><trkpt lat="46.27930598463953" lon="9.39601327638959"><ele>228.0</ele><time>2026-04-11T14:09:20Z</time></trkpt><trkpt lat="46.2791577918257" lon="9.396106695344185"><ele>228.0</ele><time>2026-04-11T14:09:21Z</time></trkpt><trkpt lat="46.27901476226973" lon="9.396200448505065"><ele>228.0</ele><time>2026-04-11T14:09:22Z</time></trkpt><trkpt lat="46.27887345849866" lon="9.396287762073502"><ele>227.66666666666669</ele><time>2026-04-11T14:09:23Z</time></trkpt><trkpt lat="46.2787306294576" lon="9.396373166544512"><ele>227.33333333333334</ele><time>2026-04-11T14:09:24Z</time></trkpt><trkpt lat="46.27859065328859" lon="9.396458953606944"><ele>227.0</ele><time>2026-04-11T14:09:25Z</time></trkpt><trkpt lat="46.27845114951087" lon="9.396543834143289"><ele>227.0</ele><time>2026-04-11T14:09:26Z</time></trkpt><trkpt lat="46.27831550130836" lon="9.396625802647012"><ele>227.0</ele><time>2026-04-11T14:09:27Z</time></trkpt><trkpt lat="46.278178155961" lon="9.396698111842136"><ele>227.0</ele><time>2026-04-11T14:09:28Z</time></trkpt><trkpt lat="46.278035886490756" lon="9.396753475635563"><ele>227.0</ele><time>2026-04-11T14:09:29Z</time></trkpt><trkpt lat="46.277886941269486" lon="9.396793665972568"><ele>226.66666666666669</ele><time>2026-04-11T14:09:30Z</time></trkpt><trkpt lat="46.277737783867735" lon="9.39682305333581"><ele>226.33333333333331</ele><time>2026-04-11T14:09:31Z</time></trkpt><trkpt lat="46.27758769900883" lon="9.39684325961966"><ele>226.0</ele><time>2026-04-11T14:09:32Z</time></trkpt><trkpt lat="46.27743822780246" lon="9.396857224783663"><ele>226.0</ele><time>2026-04-11T14:09:33Z</time></trkpt><trkpt lat="46.27729484092058" lon="9.396866796011663"><ele>226.0</ele><time>2026-04-11T14:09:34Z</time></trkpt><trkpt lat="46.27715336151091" lon="9.396877950223388"><ele>226.0</ele><time>2026-04-11T14:09:35Z</time></trkpt><trkpt lat="46.27701127523991" lon="9.396891161944874"><ele>226.0</ele><time>2026-04-11T14:09:36Z</time></trkpt><trkpt lat="46.27687212810708" lon="9.396903428102144"><ele>226.25</ele><time>2026-04-11T14:09:37Z</time></trkpt><trkpt lat="46.27673405340039" lon="9.396914876414732"><ele>226.5</ele><time>2026-04-11T14:09:38Z</time></trkpt><trkpt lat="46.276596104270595" lon="9.396922002389415"><ele>226.75</ele><time>2026-04-11T14:09:39Z</time></trkpt><trkpt lat="46.27646083191498" lon="9.396927901171518"><ele>227.0</ele><time>2026-04-11T14:09:40Z</time></trkpt><trkpt lat="46.27632883617945" lon="9.39692130704181"><ele>226.5</ele><time>2026-04-11T14:09:41Z</time></trkpt><trkpt lat="46.276199897454866" lon="9.396909068281667"><ele>226.0</ele><time>2026-04-11T14:09:42Z</time></trkpt><trkpt lat="46.27606404525986" lon="9.39697517920104"><ele>225.5</ele><time>2026-04-11T14:09:43Z</time></trkpt><trkpt lat="46.275932462908585" lon="9.396998323910323"><ele>225.0</ele><time>2026-04-11T14:09:44Z</time></trkpt><trkpt lat="46.27581009100499" lon="9.397023160124576"><ele>225.0</ele><time>2026-04-11T14:09:45Z</time></trkpt><trkpt lat="46.27567733623276" lon="9.39702891940756"><ele>225.0</ele><time>2026-04-11T14:09:46Z</time></trkpt><trkpt lat="46.275549078561575" lon="9.397076388122086"><ele>225.0</ele><time>2026-04-11T14:09:47Z</time></trkpt><trkpt lat="46.27542577723035" lon="9.397097576336838"><ele>225.0</ele><time>2026-04-11T14:09:48Z</time></trkpt><trkpt lat="46.27530650957146" lon="9.397123243146087"><ele>225.0</ele><time>2026-04-11T14:09:49Z</time></trkpt><trkpt lat="46.27518816094135" lon="9.397147071617034"><ele>225.0</ele><time>2026-04-11T14:09:50Z</time></trkpt><trkpt lat="46.27506205962361" lon="9.397173582464765"><ele>225.0</ele><time>2026-04-11T14:09:51Z</time></trkpt><trkpt lat="46.274934071261306" lon="9.397200917565073"><ele>225.0</ele><time>2026-04-11T14:09:52Z</time></trkpt><trkpt lat="46.274803910799626" lon="9.397232206657344"><ele>225.25</ele><time>2026-04-11T14:09:53Z</time></trkpt><trkpt lat="46.27466950568791" lon="9.397259406351074"><ele>225.5</ele><time>2026-04-11T14:09:54Z</time></trkpt><trkpt lat="46.27454485132234" lon="9.397283355596166"><ele>225.75</ele><time>2026-04-11T14:09:55Z</time></trkpt><trkpt lat="46.27442651453148" lon="9.39730758549761"><ele>226.0</ele><time>2026-04-11T14:09:56Z</time></trkpt><trkpt lat="46.2743067074185" lon="9.397339942066816"><ele>226.0</ele><time>2026-04-11T14:09:57Z</time></trkpt><trkpt lat="46.274173671464794" lon="9.397374855086179"><ele>226.0</ele><time>2026-04-11T14:09:58Z</time></trkpt><trkpt lat="46.274036828878536" lon="9.397409491771517"><ele>226.0</ele><time>2026-04-11T14:09:59Z</time></trkpt><trkpt lat="46.27390230658763" lon="9.397449173382931"><ele>226.0</ele><time>2026-04-11T14:10:00Z</time></trkpt><trkpt lat="46.273777431747426" lon="9.397491084129966"><ele>225.0</ele><time>2026-04-11T14:10:01Z</time></trkpt><trkpt lat="46.27364823503474" lon="9.397537435675325"><ele>224.0</ele><time>2026-04-11T14:10:02Z</time></trkpt><trkpt lat="46.273514707210275" lon="9.397587827726513"><ele>223.0</ele><time>2026-04-11T14:10:03Z</time></trkpt><trkpt lat="46.27337606760528" lon="9.397634823746403"><ele>222.0</ele><time>2026-04-11T14:10:04Z</time></trkpt><trkpt lat="46.27323528186493" lon="9.397679256711962"><ele>222.0</ele><time>2026-04-11T14:10:05Z</time></trkpt><trkpt lat="46.273106994569666" lon="9.397716581596812"><ele>222.0</ele><time>2026-04-11T14:10:06Z</time></trkpt><trkpt lat="46.27298335532599" lon="9.397758448699138"><ele>222.0</ele><time>2026-04-11T14:10:07Z</time></trkpt><trkpt lat="46.272863882286146" lon="9.397796503285996"><ele>222.0</ele><time>2026-04-11T14:10:08Z</time></trkpt><trkpt lat="46.27274285961412" lon="9.397837806974259"><ele>221.25</ele><time>2026-04-11T14:10:09Z</time></trkpt><trkpt lat="46.27261639769246" lon="9.397882435243586"><ele>220.5</ele><time>2026-04-11T14:10:10Z</time></trkpt><trkpt lat="46.27248974030581" lon="9.39792700531515"><ele>219.75</ele><time>2026-04-11T14:10:11Z</time></trkpt><trkpt lat="46.272366910687275" lon="9.397967143173384"><ele>219.0</ele><time>2026-04-11T14:10:12Z</time></trkpt><trkpt lat="46.27224773247172" lon="9.398004758618262"><ele>219.0</ele><time>2026-04-11T14:10:13Z</time></trkpt><trkpt lat="46.27212999376938" lon="9.398045704714734"><ele>219.0</ele><time>2026-04-11T14:10:14Z</time></trkpt><trkpt lat="46.272014329119045" lon="9.39809338024954"><ele>219.0</ele><time>2026-04-11T14:10:15Z</time></trkpt><trkpt lat="46.27191009071599" lon="9.398169711182566"><ele>219.0</ele><time>2026-04-11T14:10:16Z</time></trkpt><trkpt lat="46.27182371943357" lon="9.398273733264125"><ele>219.0</ele><time>2026-04-11T14:10:17Z</time></trkpt><trkpt lat="46.27175009017831" lon="9.398386304080443"><ele>218.99999999999997</ele><time>2026-04-11T14:10:18Z</time></trkpt><trkpt lat="46.271685891212414" lon="9.398506991814763"><ele>218.99999999999997</ele><time>2026-04-11T14:10:19Z</time></trkpt><trkpt lat="46.27163580565174" lon="9.398651353438686"><ele>219.0</ele><time>2026-04-11T14:10:20Z</time></trkpt><trkpt lat="46.271600553603356" lon="9.398810544144663"><ele>219.0</ele><time>2026-04-11T14:10:21Z</time></trkpt><trkpt lat="46.27158924222775" lon="9.39896660270622"><ele>219.5</ele><time>2026-04-11T14:10:22Z</time></trkpt><trkpt lat="46.27158413235537" lon="9.399122008220358"><ele>220.0</ele><time>2026-04-11T14:10:23Z</time></trkpt><trkpt lat="46.27156952457147" lon="9.399291953298466"><ele>220.5</ele><time>2026-04-11T14:10:24Z</time></trkpt><trkpt lat="46.27154840037696" lon="9.399466759207034"><ele>221.0</ele><time>2026-04-11T14:10:25Z</time></trkpt><trkpt lat="46.27150083868847" lon="9.399632776529433"><ele>220.5</ele><time>2026-04-11T14:10:26Z</time></trkpt><trkpt lat="46.27141964063525" lon="9.399768627623763"><ele>220.0</ele><time>2026-04-11T14:10:27Z</time></trkpt><trkpt lat="46.27132708749611" lon="9.399890876162106"><ele>219.5</ele><time>2026-04-11T14:10:28Z</time></trkpt><trkpt lat="46.27122008226687" lon="9.399998848815624"><ele>219.0</ele><time>2026-04-11T14:10:29Z</time></trkpt><trkpt lat="46.27110068627055" lon="9.400129645552138"><ele>219.0</ele><time>2026-04-11T14:10:30Z</time></trkpt><trkpt lat="46.27095785484304" lon="9.400269371532481"><ele>219.0</ele><time>2026-04-11T14:10:31Z</time></trkpt><trkpt lat="46.270798834060855" lon="9.400427952569295"><ele>219.0</ele><time>2026-04-11T14:10:32Z</time></trkpt><trkpt lat="46.27062941571435" lon="9.400599123837216"><ele>219.0</ele><time>2026-04-11T14:10:33Z</time></trkpt><trkpt lat="46.270457291099646" lon="9.400784954593618"><ele>219.0</ele><time>2026-04-11T14:10:34.001Z</time></trkpt><trkpt lat="46.270293757953056" lon="9.400974004892372"><ele>219.0</ele><time>2026-04-11T14:10:35.001Z</time></trkpt><trkpt lat="46.27014246291005" lon="9.401156423154582"><ele>219.33333333333331</ele><time>2026-04-11T14:10:36.001Z</time></trkpt><trkpt lat="46.27000389311446" lon="9.40133254382142"><ele>219.66666666666666</ele><time>2026-04-11T14:10:37.001Z</time></trkpt><trkpt lat="46.269882036647886" lon="9.401507923038503"><ele>220.0</ele><time>2026-04-11T14:10:38.001Z</time></trkpt><trkpt lat="46.269782207523875" lon="9.401671028898475"><ele>219.25</ele><time>2026-04-11T14:10:39.001Z</time></trkpt><trkpt lat="46.269697759105334" lon="9.401813215788076"><ele>218.5</ele><time>2026-04-11T14:10:40.001Z</time></trkpt><trkpt lat="46.2696132520766" lon="9.401956558500986"><ele>217.75</ele><time>2026-04-11T14:10:41.001Z</time></trkpt><trkpt lat="46.269525443851684" lon="9.40209853068186"><ele>217.0</ele><time>2026-04-11T14:10:42.001Z</time></trkpt><trkpt lat="46.26943522029278" lon="9.402242133669878"><ele>217.0</ele><time>2026-04-11T14:10:43.001Z</time></trkpt><trkpt lat="46.26933426772697" lon="9.402409443360941"><ele>217.0</ele><time>2026-04-11T14:10:44.001Z</time></trkpt><trkpt lat="46.26922016472644" lon="9.402599447142867"><ele>217.0</ele><time>2026-04-11T14:10:45.001Z</time></trkpt><trkpt lat="46.26909685577061" lon="9.402792091373092"><ele>216.66666666666666</ele><time>2026-04-11T14:10:46.001Z</time></trkpt><trkpt lat="46.26896363443834" lon="9.402998874950244"><ele>216.33333333333331</ele><time>2026-04-11T14:10:47.001Z</time></trkpt><trkpt lat="46.26882771945701" lon="9.403209983889315"><ele>216.0</ele><time>2026-04-11T14:10:48Z</time></trkpt><trkpt lat="46.26869672582239" lon="9.403416623301858"><ele>216.0</ele><time>2026-04-11T14:10:49Z</time></trkpt><trkpt lat="46.26857598872746" lon="9.403614438963473"><ele>216.0</ele><time>2026-04-11T14:10:50Z</time></trkpt><trkpt lat="46.268461146241904" lon="9.40380238322952"><ele>216.0</ele><time>2026-04-11T14:10:51Z</time></trkpt><trkpt lat="46.26834869022956" lon="9.403984040814137"><ele>216.66666666666669</ele><time>2026-04-11T14:10:52Z</time></trkpt><trkpt lat="46.2682372307759" lon="9.404160804555293"><ele>217.33333333333334</ele><time>2026-04-11T14:10:53Z</time></trkpt><trkpt lat="46.268126761695406" lon="9.404337339256296"><ele>218.0</ele><time>2026-04-11T14:10:54Z</time></trkpt><trkpt lat="46.26801926303825" lon="9.404509680486749"><ele>217.66666666666669</ele><time>2026-04-11T14:10:55Z</time></trkpt><trkpt lat="46.26791299804823" lon="9.404678289533617"><ele>217.33333333333331</ele><time>2026-04-11T14:10:56Z</time></trkpt><trkpt lat="46.26781170614878" lon="9.404847701152377"><ele>217.0</ele><time>2026-04-11T14:10:57Z</time></trkpt><trkpt lat="46.267710024709395" lon="9.405010249475987"><ele>217.0</ele><time>2026-04-11T14:10:58Z</time></trkpt><trkpt lat="46.26760811492411" lon="9.405173243930273"><ele>217.0</ele><time>2026-04-11T14:10:59Z</time></trkpt><trkpt lat="46.267505391687386" lon="9.405339302919161"><ele>217.0</ele><time>2026-04-11T14:11:00Z</time></trkpt><trkpt lat="46.26740274810284" lon="9.40550035605149"><ele>217.0</ele><time>2026-04-11T14:11:01Z</time></trkpt><trkpt lat="46.26729943606363" lon="9.405661224486458"><ele>217.0</ele><time>2026-04-11T14:11:02Z</time></trkpt><trkpt lat="46.26719386447562" lon="9.40581927470305"><ele>217.0</ele><time>2026-04-11T14:11:03Z</time></trkpt><trkpt lat="46.26708760390654" lon="9.405970505306867"><ele>217.0</ele><time>2026-04-11T14:11:04Z</time></trkpt><trkpt lat="46.26698053760064" lon="9.40611529257038"><ele>217.0</ele><time>2026-04-11T14:11:05Z</time></trkpt><trkpt lat="46.26687011089277" lon="9.406256318356089"><ele>217.0</ele><time>2026-04-11T14:11:06Z</time></trkpt><trkpt lat="46.266758403879734" lon="9.40638671735505"><ele>217.0</ele><time>2026-04-11T14:11:07Z</time></trkpt><trkpt lat="46.26664950948653" lon="9.406511080312802"><ele>216.25</ele><time>2026-04-11T14:11:08Z</time></trkpt><trkpt lat="46.26653978520078" lon="9.406630271939276"><ele>215.5</ele><time>2026-04-11T14:11:09Z</time></trkpt><trkpt lat="46.266433504899275" lon="9.406741280806111"><ele>214.75</ele><time>2026-04-11T14:11:10Z</time></trkpt><trkpt lat="46.266327635140314" lon="9.406845068663937"><ele>214.0</ele><time>2026-04-11T14:11:11Z</time></trkpt><trkpt lat="46.2662120435078" lon="9.40695034896583"><ele>214.0</ele><time>2026-04-11T14:11:12Z</time></trkpt><trkpt lat="46.26609081966172" lon="9.407057416997972"><ele>214.0</ele><time>2026-04-11T14:11:13Z</time></trkpt><trkpt lat="46.26597028057371" lon="9.407159429607237"><ele>214.0</ele><time>2026-04-11T14:11:14Z</time></trkpt><trkpt lat="46.26584847014395" lon="9.407258904926945"><ele>214.0</ele><time>2026-04-11T14:11:15Z</time></trkpt><trkpt lat="46.26572801607945" lon="9.407353613518657"><ele>213.0</ele><time>2026-04-11T14:11:16Z</time></trkpt><trkpt lat="46.26560616426155" lon="9.407445781610424"><ele>212.0</ele><time>2026-04-11T14:11:17Z</time></trkpt><trkpt lat="46.26547240078708" lon="9.407531717640717"><ele>211.0</ele><time>2026-04-11T14:11:18Z</time></trkpt><trkpt lat="46.26533329664532" lon="9.40762205981577"><ele>210.0</ele><time>2026-04-11T14:11:19Z</time></trkpt><trkpt lat="46.265193586128674" lon="9.407712411945065"><ele>210.0</ele><time>2026-04-11T14:11:20Z</time></trkpt><trkpt lat="46.26506031828084" lon="9.407786714186937"><ele>210.0</ele><time>2026-04-11T14:11:21Z</time></trkpt><trkpt lat="46.26492419786131" lon="9.407860257897536"><ele>210.0</ele><time>2026-04-11T14:11:22Z</time></trkpt><trkpt lat="46.26478379529043" lon="9.407935156553364"><ele>210.0</ele><time>2026-04-11T14:11:23Z</time></trkpt><trkpt lat="46.264644853631566" lon="9.408013589335106"><ele>210.0</ele><time>2026-04-11T14:11:24Z</time></trkpt><trkpt lat="46.26450418575769" lon="9.408090383174562"><ele>210.0</ele><time>2026-04-11T14:11:25Z</time></trkpt><trkpt lat="46.26435688500228" lon="9.408168510112006"><ele>210.0</ele><time>2026-04-11T14:11:26Z</time></trkpt><trkpt lat="46.264208334930295" lon="9.408249470724268"><ele>210.0</ele><time>2026-04-11T14:11:27Z</time></trkpt><trkpt lat="46.26406271593894" lon="9.408329651039072"><ele>210.0</ele><time>2026-04-11T14:11:28Z</time></trkpt><trkpt lat="46.26392762598873" lon="9.408407223002303"><ele>210.0</ele><time>2026-04-11T14:11:29Z</time></trkpt><trkpt lat="46.26379914038376" lon="9.408483649837507"><ele>210.0</ele><time>2026-04-11T14:11:30Z</time></trkpt><trkpt lat="46.263671264789906" lon="9.408570460567006"><ele>210.0</ele><time>2026-04-11T14:11:31Z</time></trkpt><trkpt lat="46.26354797644171" lon="9.408673898986258"><ele>210.0</ele><time>2026-04-11T14:11:32Z</time></trkpt><trkpt lat="46.26343772263042" lon="9.408783492951326"><ele>210.0</ele><time>2026-04-11T14:11:33Z</time></trkpt><trkpt lat="46.26333764192235" lon="9.408914745746891"><ele>210.0</ele><time>2026-04-11T14:11:34Z</time></trkpt><trkpt lat="46.26323213024591" lon="9.409064764251289"><ele>210.0</ele><time>2026-04-11T14:11:35Z</time></trkpt><trkpt lat="46.26311586191111" lon="9.409261428481644"><ele>210.0</ele><time>2026-04-11T14:11:36Z</time></trkpt><trkpt lat="46.2629895495699" lon="9.409488955252119"><ele>210.0</ele><time>2026-04-11T14:11:37Z</time></trkpt><trkpt lat="46.262849520037406" lon="9.40972497393345"><ele>209.33333333333331</ele><time>2026-04-11T14:11:38Z</time></trkpt><trkpt lat="46.262708510490015" lon="9.409949719983299"><ele>208.66666666666666</ele><time>2026-04-11T14:11:39Z</time></trkpt><trkpt lat="46.262579746725635" lon="9.41015699057833"><ele>208.0</ele><time>2026-04-11T14:11:40Z</time></trkpt><trkpt lat="46.262458400265004" lon="9.410357844644873"><ele>208.0</ele><time>2026-04-11T14:11:41Z</time></trkpt><trkpt lat="46.26233726024681" lon="9.410558059890558"><ele>208.0</ele><time>2026-04-11T14:11:42Z</time></trkpt><trkpt lat="46.26222593856979" lon="9.410747913721186"><ele>208.0</ele><time>2026-04-11T14:11:43Z</time></trkpt><trkpt lat="46.2621206907761" lon="9.410928874004286"><ele>208.0</ele><time>2026-04-11T14:11:44Z</time></trkpt><trkpt lat="46.26201933395322" lon="9.411098968388844"><ele>208.0</ele><time>2026-04-11T14:11:45Z</time></trkpt><trkpt lat="46.26192312236032" lon="9.411261858516418"><ele>208.0</ele><time>2026-04-11T14:11:46Z</time></trkpt><trkpt lat="46.2618312405917" lon="9.411422493522728"><ele>208.0</ele><time>2026-04-11T14:11:47Z</time></trkpt><trkpt lat="46.26174712600326" lon="9.411591932230216"><ele>208.0</ele><time>2026-04-11T14:11:48Z</time></trkpt><trkpt lat="46.261682623253016" lon="9.411781653683096"><ele>208.0</ele><time>2026-04-11T14:11:49Z</time></trkpt><trkpt lat="46.261644609653935" lon="9.411986172625275"><ele>208.0</ele><time>2026-04-11T14:11:50Z</time></trkpt><trkpt lat="46.26162323222147" lon="9.412191112960912"><ele>208.0</ele><time>2026-04-11T14:11:51Z</time></trkpt><trkpt lat="46.2616061682546" lon="9.412394353639089"><ele>208.0</ele><time>2026-04-11T14:11:52Z</time></trkpt><trkpt lat="46.26158233128387" lon="9.412596056814866"><ele>208.0</ele><time>2026-04-11T14:11:53Z</time></trkpt><trkpt lat="46.2615561999997" lon="9.412796476968484"><ele>208.0</ele><time>2026-04-11T14:11:54Z</time></trkpt><trkpt lat="46.26153028982052" lon="9.412999574460613"><ele>208.0</ele><time>2026-04-11T14:11:55Z</time></trkpt><trkpt lat="46.26150467723654" lon="9.413196995630845"><ele>208.0</ele><time>2026-04-11T14:11:56Z</time></trkpt><trkpt lat="46.26147257529559" lon="9.413382921399783"><ele>208.0</ele><time>2026-04-11T14:11:57Z</time></trkpt><trkpt lat="46.26142793765024" lon="9.413563674136917"><ele>208.0</ele><time>2026-04-11T14:11:58Z</time></trkpt><trkpt lat="46.261365919616125" lon="9.413744355594588"><ele>208.0</ele><time>2026-04-11T14:11:59Z</time></trkpt><trkpt lat="46.26127567760471" lon="9.413914356298614"><ele>208.0</ele><time>2026-04-11T14:12:00Z</time></trkpt><trkpt lat="46.26115703207979" lon="9.414080937003293"><ele>208.0</ele><time>2026-04-11T14:12:01Z</time></trkpt><trkpt lat="46.261040682093544" lon="9.41427892353849"><ele>208.0</ele><time>2026-04-11T14:12:02Z</time></trkpt><trkpt lat="46.26091948997712" lon="9.414514301972192"><ele>207.0</ele><time>2026-04-11T14:12:03Z</time></trkpt><trkpt lat="46.26076703115783" lon="9.414775009708618"><ele>206.0</ele><time>2026-04-11T14:12:04Z</time></trkpt><trkpt lat="46.26059146960944" lon="9.4150348292035"><ele>205.0</ele><time>2026-04-11T14:12:05Z</time></trkpt><trkpt lat="46.26042615011339" lon="9.415336575373317"><ele>204.0</ele><time>2026-04-11T14:12:06Z</time></trkpt><trkpt lat="46.260238566341876" lon="9.41563658437488"><ele>206.0</ele><time>2026-04-11T14:12:07Z</time></trkpt><trkpt lat="46.26004827838344" lon="9.415967044527948"><ele>208.0</ele><time>2026-04-11T14:12:08Z</time></trkpt><trkpt lat="46.25985100550081" lon="9.416317540537735"><ele>207.5</ele><time>2026-04-11T14:12:09Z</time></trkpt><trkpt lat="46.25964163777971" lon="9.416656181415995"><ele>207.0</ele><time>2026-04-11T14:12:10Z</time></trkpt><trkpt lat="46.25944054224308" lon="9.416961282854043"><ele>207.5</ele><time>2026-04-11T14:12:11Z</time></trkpt><trkpt lat="46.25926381322203" lon="9.41725652407515"><ele>208.0</ele><time>2026-04-11T14:12:12Z</time></trkpt><trkpt lat="46.259096444413835" lon="9.417544315972744"><ele>207.0</ele><time>2026-04-11T14:12:13Z</time></trkpt><trkpt lat="46.25893103914583" lon="9.417818223258692"><ele>206.0</ele><time>2026-04-11T14:12:14Z</time></trkpt><trkpt lat="46.2587748768571" lon="9.418086262576688"><ele>206.0</ele><time>2026-04-11T14:12:15Z</time></trkpt><trkpt lat="46.258633330183756" lon="9.418330357564702"><ele>206.0</ele><time>2026-04-11T14:12:16Z</time></trkpt><trkpt lat="46.25849364488681" lon="9.418567405211284"><ele>206.0</ele><time>2026-04-11T14:12:17Z</time></trkpt><trkpt lat="46.2583465186008" lon="9.418810620852122"><ele>206.33333333333334</ele><time>2026-04-11T14:12:18Z</time></trkpt><trkpt lat="46.25819754544128" lon="9.419050254401224"><ele>206.66666666666669</ele><time>2026-04-11T14:12:19Z</time></trkpt><trkpt lat="46.258050659408376" lon="9.419294042727147"><ele>207.0</ele><time>2026-04-11T14:12:20Z</time></trkpt><trkpt lat="46.25790275090118" lon="9.419542146623877"><ele>210.0</ele><time>2026-04-11T14:12:21Z</time></trkpt><trkpt lat="46.25775618059889" lon="9.419793888473613"><ele>213.0</ele><time>2026-04-11T14:12:22Z</time></trkpt><trkpt lat="46.25760868823351" lon="9.420043431639467"><ele>213.0</ele><time>2026-04-11T14:12:23Z</time></trkpt><trkpt lat="46.25746181913116" lon="9.420287946736265"><ele>213.0</ele><time>2026-04-11T14:12:24Z</time></trkpt><trkpt lat="46.257319685941916" lon="9.42052655358664"><ele>213.0</ele><time>2026-04-11T14:12:25Z</time></trkpt><trkpt lat="46.257181416229294" lon="9.420757967362336"><ele>210.33333333333331</ele><time>2026-04-11T14:12:26Z</time></trkpt><trkpt lat="46.25703711159195" lon="9.420972725755128"><ele>207.66666666666666</ele><time>2026-04-11T14:12:27Z</time></trkpt><trkpt lat="46.256887106910156" lon="9.42114975191493"><ele>205.0</ele><time>2026-04-11T14:12:28Z</time></trkpt><trkpt lat="46.2567214634624" lon="9.421302036898428"><ele>206.33333333333331</ele><time>2026-04-11T14:12:29Z</time></trkpt><trkpt lat="46.25654295749186" lon="9.42142857705335"><ele>207.66666666666669</ele><time>2026-04-11T14:12:30Z</time></trkpt><trkpt lat="46.25635752889652" lon="9.421525169109685"><ele>209.0</ele><time>2026-04-11T14:12:31Z</time></trkpt><trkpt lat="46.256173926125584" lon="9.421602684641357"><ele>209.0</ele><time>2026-04-11T14:12:32Z</time></trkpt><trkpt lat="46.25600031761233" lon="9.421678624168495"><ele>209.0</ele><time>2026-04-11T14:12:33Z</time></trkpt><trkpt lat="46.25583083934934" lon="9.421755481695744"><ele>209.0</ele><time>2026-04-11T14:12:34Z</time></trkpt><trkpt lat="46.25565978572337" lon="9.42183193085983"><ele>209.0</ele><time>2026-04-11T14:12:35Z</time></trkpt><trkpt lat="46.255489574973545" lon="9.421907188961168"><ele>209.0</ele><time>2026-04-11T14:12:36Z</time></trkpt><trkpt lat="46.25532343590076" lon="9.42198285139434"><ele>209.0</ele><time>2026-04-11T14:12:37Z</time></trkpt><trkpt lat="46.255158624129656" lon="9.422057187263814"><ele>209.0</ele><time>2026-04-11T14:12:38Z</time></trkpt><trkpt lat="46.25499440534049" lon="9.42213617863249"><ele>209.0</ele><time>2026-04-11T14:12:39Z</time></trkpt><trkpt lat="46.25483014451474" lon="9.422213496727235"><ele>209.0</ele><time>2026-04-11T14:12:40Z</time></trkpt><trkpt lat="46.25466622518399" lon="9.42229056992921"><ele>209.66666666666669</ele><time>2026-04-11T14:12:41.001Z</time></trkpt><trkpt lat="46.25450725877667" lon="9.422372204111793"><ele>210.33333333333331</ele><time>2026-04-11T14:12:42.001Z</time></trkpt><trkpt lat="46.25435351739344" lon="9.422464201548545"><ele>211.0</ele><time>2026-04-11T14:12:43.001Z</time></trkpt><trkpt lat="46.25420073697703" lon="9.422558547177992"><ele>211.0</ele><time>2026-04-11T14:12:44.001Z</time></trkpt><trkpt lat="46.25405099134416" lon="9.422663882456298"><ele>211.0</ele><time>2026-04-11T14:12:45.001Z</time></trkpt><trkpt lat="46.25390610358431" lon="9.422779831305848"><ele>211.0</ele><time>2026-04-11T14:12:46.001Z</time></trkpt><trkpt lat="46.25376609552925" lon="9.422907987147992"><ele>210.33333333333331</ele><time>2026-04-11T14:12:47.001Z</time></trkpt><trkpt lat="46.25361344395299" lon="9.422999902694494"><ele>209.66666666666669</ele><time>2026-04-11T14:12:48.001Z</time></trkpt><trkpt lat="46.25346780597802" lon="9.42311227430263"><ele>209.0</ele><time>2026-04-11T14:12:49.001Z</time></trkpt><trkpt lat="46.25335518149763" lon="9.423321864918702"><ele>209.0</ele><time>2026-04-11T14:12:50.001Z</time></trkpt><trkpt lat="46.25321528954745" lon="9.423463595883517"><ele>209.0</ele><time>2026-04-11T14:12:51.001Z</time></trkpt><trkpt lat="46.25307365715964" lon="9.42360853115772"><ele>209.0</ele><time>2026-04-11T14:12:52.001Z</time></trkpt><trkpt lat="46.2529308658652" lon="9.423755898807926"><ele>209.0</ele><time>2026-04-11T14:12:53.001Z</time></trkpt><trkpt lat="46.25278733714328" lon="9.42390423434127"><ele>209.0</ele><time>2026-04-11T14:12:54Z</time></trkpt><trkpt lat="46.25264026215405" lon="9.424048080617608"><ele>209.0</ele><time>2026-04-11T14:12:55Z</time></trkpt><trkpt lat="46.25248994072581" lon="9.424177205674335"><ele>209.0</ele><time>2026-04-11T14:12:56Z</time></trkpt><trkpt lat="46.25233216249555" lon="9.42427399229862"><ele>209.0</ele><time>2026-04-11T14:12:57Z</time></trkpt><trkpt lat="46.2521664089711" lon="9.424340074096568"><ele>209.0</ele><time>2026-04-11T14:12:58Z</time></trkpt><trkpt lat="46.2519963982532" lon="9.424379016259714"><ele>209.33333333333334</ele><time>2026-04-11T14:12:59Z</time></trkpt><trkpt lat="46.251824942873895" lon="9.42438342725148"><ele>209.66666666666669</ele><time>2026-04-11T14:13:00Z</time></trkpt><trkpt lat="46.251652879219115" lon="9.42434780984972"><ele>210.0</ele><time>2026-04-11T14:13:01Z</time></trkpt><trkpt lat="46.25148213996688" lon="9.424293748056614"><ele>210.0</ele><time>2026-04-11T14:13:02Z</time></trkpt><trkpt lat="46.251313080842465" lon="9.424241971013467"><ele>210.0</ele><time>2026-04-11T14:13:03Z</time></trkpt><trkpt lat="46.251143992274464" lon="9.424195286076623"><ele>210.0</ele><time>2026-04-11T14:13:04Z</time></trkpt><trkpt lat="46.25097514984812" lon="9.424146504605535"><ele>210.0</ele><time>2026-04-11T14:13:05Z</time></trkpt><trkpt lat="46.25080557169738" lon="9.424096405999906"><ele>210.0</ele><time>2026-04-11T14:13:06Z</time></trkpt><trkpt lat="46.25063604767223" lon="9.424050388187334"><ele>210.0</ele><time>2026-04-11T14:13:07Z</time></trkpt><trkpt lat="46.25046793682506" lon="9.424002029863553"><ele>209.66666666666669</ele><time>2026-04-11T14:13:08Z</time></trkpt><trkpt lat="46.25029931277997" lon="9.42395082001515"><ele>209.33333333333334</ele><time>2026-04-11T14:13:09Z</time></trkpt><trkpt lat="46.25012902145626" lon="9.423901176766499"><ele>209.0</ele><time>2026-04-11T14:13:10Z</time></trkpt><trkpt lat="46.24995774799953" lon="9.42384990711116"><ele>208.33333333333334</ele><time>2026-04-11T14:13:11Z</time></trkpt><trkpt lat="46.2497870074966" lon="9.423801095643578"><ele>207.66666666666669</ele><time>2026-04-11T14:13:12Z</time></trkpt><trkpt lat="46.24961657611544" lon="9.423752137727913"><ele>207.0</ele><time>2026-04-11T14:13:13Z</time></trkpt><trkpt lat="46.24944533730048" lon="9.423703573343683"><ele>207.0</ele><time>2026-04-11T14:13:14Z</time></trkpt><trkpt lat="46.24927424670619" lon="9.42365271152088"><ele>207.0</ele><time>2026-04-11T14:13:15Z</time></trkpt><trkpt lat="46.249103173634055" lon="9.423601906590651"><ele>207.0</ele><time>2026-04-11T14:13:16Z</time></trkpt><trkpt lat="46.24893595452168" lon="9.423552037097531"><ele>206.66666666666669</ele><time>2026-04-11T14:13:17Z</time></trkpt><trkpt lat="46.24877917537932" lon="9.42350496696189"><ele>206.33333333333334</ele><time>2026-04-11T14:13:18Z</time></trkpt><trkpt lat="46.24863212019422" lon="9.423463617374683"><ele>206.0</ele><time>2026-04-11T14:13:19Z</time></trkpt><trkpt lat="46.24849113454608" lon="9.423416456304293"><ele>206.0</ele><time>2026-04-11T14:13:20Z</time></trkpt><trkpt lat="46.248361321678" lon="9.423372186995499"><ele>206.0</ele><time>2026-04-11T14:13:21Z</time></trkpt><trkpt lat="46.2482182210608" lon="9.42340970281193"><ele>206.0</ele><time>2026-04-11T14:13:22Z</time></trkpt><trkpt lat="46.248088380503056" lon="9.42338549330817"><ele>206.0</ele><time>2026-04-11T14:13:23Z</time></trkpt><trkpt lat="46.247962098852646" lon="9.423392551443097"><ele>206.0</ele><time>2026-04-11T14:13:24Z</time></trkpt><trkpt lat="46.24783506668377" lon="9.423472121041105"><ele>206.0</ele><time>2026-04-11T14:13:25Z</time></trkpt><trkpt lat="46.24769186693044" lon="9.423512568253045"><ele>206.0</ele><time>2026-04-11T14:13:26Z</time></trkpt><trkpt lat="46.247541002640546" lon="9.423552533595139"><ele>206.0</ele><time>2026-04-11T14:13:27Z</time></trkpt><trkpt lat="46.24739102240524" lon="9.423659000062084"><ele>205.33333333333334</ele><time>2026-04-11T14:13:28Z</time></trkpt><trkpt lat="46.24723423289658" lon="9.4237792417059"><ele>204.66666666666669</ele><time>2026-04-11T14:13:29Z</time></trkpt><trkpt lat="46.24708016466868" lon="9.423911889544064"><ele>204.0</ele><time>2026-04-11T14:13:30Z</time></trkpt><trkpt lat="46.24692260629382" lon="9.42403171778559"><ele>204.0</ele><time>2026-04-11T14:13:31Z</time></trkpt><trkpt lat="46.24675432201793" lon="9.424159559292828"><ele>204.0</ele><time>2026-04-11T14:13:32Z</time></trkpt><trkpt lat="46.24657886655494" lon="9.424279266197843"><ele>204.0</ele><time>2026-04-11T14:13:33Z</time></trkpt><trkpt lat="46.246416116202774" lon="9.424399311673131"><ele>204.33333333333331</ele><time>2026-04-11T14:13:34Z</time></trkpt><trkpt lat="46.246247951696375" lon="9.42453239987254"><ele>204.66666666666666</ele><time>2026-04-11T14:13:35Z</time></trkpt><trkpt lat="46.24607605378062" lon="9.424666586520944"><ele>205.0</ele><time>2026-04-11T14:13:36Z</time></trkpt><trkpt lat="46.24590755738684" lon="9.424804299348205"><ele>205.0</ele><time>2026-04-11T14:13:37Z</time></trkpt><trkpt lat="46.24573228926724" lon="9.424933171401783"><ele>205.0</ele><time>2026-04-11T14:13:38Z</time></trkpt><trkpt lat="46.2455536975125" lon="9.42507205988012"><ele>205.0</ele><time>2026-04-11T14:13:39Z</time></trkpt><trkpt lat="46.24537982867962" lon="9.425212468372958"><ele>204.66666666666666</ele><time>2026-04-11T14:13:40Z</time></trkpt><trkpt lat="46.245198320593666" lon="9.425345564180688"><ele>204.33333333333331</ele><time>2026-04-11T14:13:41Z</time></trkpt><trkpt lat="46.24502098408917" lon="9.425486948599076"><ele>204.0</ele><time>2026-04-11T14:13:42Z</time></trkpt><trkpt lat="46.244850160679526" lon="9.425648503581018"><ele>203.66666666666669</ele><time>2026-04-11T14:13:43Z</time></trkpt><trkpt lat="46.244685786641455" lon="9.425823815941603"><ele>203.33333333333334</ele><time>2026-04-11T14:13:44Z</time></trkpt><trkpt lat="46.244522211857706" lon="9.425998971622478"><ele>203.0</ele><time>2026-04-11T14:13:45Z</time></trkpt><trkpt lat="46.244362783219685" lon="9.426188365880536"><ele>202.0</ele><time>2026-04-11T14:13:46Z</time></trkpt><trkpt lat="46.24420350495281" lon="9.426379034999563"><ele>201.0</ele><time>2026-04-11T14:13:47Z</time></trkpt><trkpt lat="46.24404703823339" lon="9.426575347797392"><ele>200.0</ele><time>2026-04-11T14:13:48Z</time></trkpt><trkpt lat="46.24389100140165" lon="9.426766445724027"><ele>200.0</ele><time>2026-04-11T14:13:49Z</time></trkpt><trkpt lat="46.24372788984804" lon="9.426952832652733"><ele>200.0</ele><time>2026-04-11T14:13:50Z</time></trkpt><trkpt lat="46.24356344253118" lon="9.427139200605604"><ele>200.0</ele><time>2026-04-11T14:13:51Z</time></trkpt><trkpt lat="46.24339426030959" lon="9.427324102695508"><ele>200.0</ele><time>2026-04-11T14:13:52Z</time></trkpt><trkpt lat="46.24321832045188" lon="9.427501443136933"><ele>200.0</ele><time>2026-04-11T14:13:53Z</time></trkpt><trkpt lat="46.24303858895713" lon="9.42766986865013"><ele>200.0</ele><time>2026-04-11T14:13:54Z</time></trkpt><trkpt lat="46.242855401833744" lon="9.427840470574022"><ele>200.0</ele><time>2026-04-11T14:13:55Z</time></trkpt><trkpt lat="46.242670708763065" lon="9.428006980178765"><ele>200.0</ele><time>2026-04-11T14:13:56Z</time></trkpt><trkpt lat="46.24248418929588" lon="9.42817471042992"><ele>200.0</ele><time>2026-04-11T14:13:57Z</time></trkpt><trkpt lat="46.242300269724" lon="9.428343766665282"><ele>200.0</ele><time>2026-04-11T14:13:58Z</time></trkpt><trkpt lat="46.24211773887377" lon="9.428514382814697"><ele>200.0</ele><time>2026-04-11T14:13:59Z</time></trkpt><trkpt lat="46.2419326833926" lon="9.428682436824655"><ele>200.0</ele><time>2026-04-11T14:14:00Z</time></trkpt><trkpt lat="46.241745332827165" lon="9.428852918502338"><ele>200.0</ele><time>2026-04-11T14:14:01Z</time></trkpt><trkpt lat="46.24155838838437" lon="9.429022200732991"><ele>200.0</ele><time>2026-04-11T14:14:02Z</time></trkpt><trkpt lat="46.241372814597845" lon="9.429192486252422"><ele>200.0</ele><time>2026-04-11T14:14:03Z</time></trkpt><trkpt lat="46.241187374558116" lon="9.429364916826126"><ele>200.0</ele><time>2026-04-11T14:14:04Z</time></trkpt><trkpt lat="46.241001199800436" lon="9.429537626382716"><ele>200.0</ele><time>2026-04-11T14:14:05Z</time></trkpt><trkpt lat="46.24081411293921" lon="9.429708610556569"><ele>200.0</ele><time>2026-04-11T14:14:06Z</time></trkpt><trkpt lat="46.240626623853444" lon="9.429877178689537"><ele>200.33333333333334</ele><time>2026-04-11T14:14:07Z</time></trkpt><trkpt lat="46.240437413208774" lon="9.430044341476872"><ele>200.66666666666669</ele><time>2026-04-11T14:14:08Z</time></trkpt><trkpt lat="46.24025065599387" lon="9.430213594744465"><ele>201.0</ele><time>2026-04-11T14:14:09Z</time></trkpt><trkpt lat="46.24006483559172" lon="9.430385293797434"><ele>201.0</ele><time>2026-04-11T14:14:10Z</time></trkpt><trkpt lat="46.23987824700837" lon="9.430559099748255"><ele>201.0</ele><time>2026-04-11T14:14:11Z</time></trkpt><trkpt lat="46.23968975589884" lon="9.430733575356724"><ele>201.0</ele><time>2026-04-11T14:14:12Z</time></trkpt><trkpt lat="46.23950296837175" lon="9.430905596981264"><ele>201.0</ele><time>2026-04-11T14:14:13Z</time></trkpt><trkpt lat="46.239315070531916" lon="9.431076282245415"><ele>201.0</ele><time>2026-04-11T14:14:14Z</time></trkpt><trkpt lat="46.23912602126746" lon="9.431247832079057"><ele>201.0</ele><time>2026-04-11T14:14:15Z</time></trkpt><trkpt lat="46.23893727830435" lon="9.431418349263943"><ele>199.5</ele><time>2026-04-11T14:14:16Z</time></trkpt><trkpt lat="46.23874805883097" lon="9.431591070679564"><ele>198.0</ele><time>2026-04-11T14:14:17Z</time></trkpt><trkpt lat="46.23855560059238" lon="9.431767104109571"><ele>198.0</ele><time>2026-04-11T14:14:18Z</time></trkpt><trkpt lat="46.23836255073082" lon="9.43194146099949"><ele>198.0</ele><time>2026-04-11T14:14:19Z</time></trkpt><trkpt lat="46.23817074030707" lon="9.43211563783442"><ele>199.0</ele><time>2026-04-11T14:14:20Z</time></trkpt><trkpt lat="46.23798025007044" lon="9.432291200964903"><ele>200.0</ele><time>2026-04-11T14:14:21Z</time></trkpt><trkpt lat="46.23779103665199" lon="9.432466983372354"><ele>200.0</ele><time>2026-04-11T14:14:22Z</time></trkpt><trkpt lat="46.23759933082371" lon="9.432637394837762"><ele>200.0</ele><time>2026-04-11T14:14:23Z</time></trkpt><trkpt lat="46.237410216620844" lon="9.432807924403983"><ele>200.0</ele><time>2026-04-11T14:14:24Z</time></trkpt><trkpt lat="46.23722501511651" lon="9.432977843444881"><ele>199.66666666666669</ele><time>2026-04-11T14:14:25Z</time></trkpt><trkpt lat="46.237038507573956" lon="9.433151562883674"><ele>199.33333333333331</ele><time>2026-04-11T14:14:26Z</time></trkpt><trkpt lat="46.23686130806004" lon="9.433332339072571"><ele>199.0</ele><time>2026-04-11T14:14:27Z</time></trkpt><trkpt lat="46.23668870496058" lon="9.433516409839639"><ele>199.0</ele><time>2026-04-11T14:14:28Z</time></trkpt><trkpt lat="46.23652424779313" lon="9.43371256476876"><ele>199.0</ele><time>2026-04-11T14:14:29Z</time></trkpt><trkpt lat="46.236356160381874" lon="9.433911046304322"><ele>199.0</ele><time>2026-04-11T14:14:30Z</time></trkpt><trkpt lat="46.236191585984024" lon="9.434108240159649"><ele>199.0</ele><time>2026-04-11T14:14:31Z</time></trkpt><trkpt lat="46.236030744282516" lon="9.434311944644206"><ele>199.0</ele><time>2026-04-11T14:14:32Z</time></trkpt><trkpt lat="46.23587239466293" lon="9.434512883537922"><ele>199.0</ele><time>2026-04-11T14:14:33Z</time></trkpt><trkpt lat="46.235722477046814" lon="9.434696618708683"><ele>199.66666666666666</ele><time>2026-04-11T14:14:34Z</time></trkpt><trkpt lat="46.23557957885654" lon="9.434871117944382"><ele>200.33333333333331</ele><time>2026-04-11T14:14:35Z</time></trkpt><trkpt lat="46.23543617448502" lon="9.435042624367876"><ele>201.0</ele><time>2026-04-11T14:14:36Z</time></trkpt><trkpt lat="46.235295893392546" lon="9.435212087532664"><ele>201.0</ele><time>2026-04-11T14:14:37Z</time></trkpt><trkpt lat="46.23516057178644" lon="9.435370831703073"><ele>201.0</ele><time>2026-04-11T14:14:38Z</time></trkpt><trkpt lat="46.235023252307045" lon="9.43552293535871"><ele>201.0</ele><time>2026-04-11T14:14:39Z</time></trkpt><trkpt lat="46.23488094584001" lon="9.435678037479834"><ele>200.66666666666669</ele><time>2026-04-11T14:14:40Z</time></trkpt><trkpt lat="46.234730024526165" lon="9.435828425691863"><ele>200.33333333333334</ele><time>2026-04-11T14:14:41Z</time></trkpt><trkpt lat="46.23457356311917" lon="9.435977114467923"><ele>200.0</ele><time>2026-04-11T14:14:42Z</time></trkpt><trkpt lat="46.234417636458275" lon="9.436124996231257"><ele>200.0</ele><time>2026-04-11T14:14:43Z</time></trkpt><trkpt lat="46.23425345732531" lon="9.436286002302905"><ele>200.0</ele><time>2026-04-11T14:14:44Z</time></trkpt><trkpt lat="46.23407596961257" lon="9.436440733641984"><ele>200.0</ele><time>2026-04-11T14:14:45Z</time></trkpt><trkpt lat="46.23388573817706" lon="9.436583542730126"><ele>199.33333333333334</ele><time>2026-04-11T14:14:46Z</time></trkpt><trkpt lat="46.2336908535581" lon="9.436733864300908"><ele>198.66666666666669</ele><time>2026-04-11T14:14:47Z</time></trkpt><trkpt lat="46.23349758853921" lon="9.436897224783273"><ele>198.0</ele><time>2026-04-11T14:14:48Z</time></trkpt><trkpt lat="46.233301032217895" lon="9.437068134297437"><ele>199.0</ele><time>2026-04-11T14:14:49Z</time></trkpt><trkpt lat="46.23310102955726" lon="9.437234991883328"><ele>200.0</ele><time>2026-04-11T14:14:50Z</time></trkpt><trkpt lat="46.23290279415797" lon="9.437401330885706"><ele>200.0</ele><time>2026-04-11T14:14:51Z</time></trkpt><trkpt lat="46.23270684185411" lon="9.437565053399872"><ele>200.0</ele><time>2026-04-11T14:14:52Z</time></trkpt><trkpt lat="46.232513445118876" lon="9.437735434746912"><ele>200.0</ele><time>2026-04-11T14:14:53Z</time></trkpt><trkpt lat="46.23231985349229" lon="9.437902677124795"><ele>200.0</ele><time>2026-04-11T14:14:54Z</time></trkpt><trkpt lat="46.232126335542624" lon="9.438070756249253"><ele>198.5</ele><time>2026-04-11T14:14:55Z</time></trkpt><trkpt lat="46.2319326326315" lon="9.438242346795649"><ele>197.0</ele><time>2026-04-11T14:14:56Z</time></trkpt><trkpt lat="46.231742306228156" lon="9.438418075895576"><ele>197.0</ele><time>2026-04-11T14:14:57Z</time></trkpt><trkpt lat="46.231554799412905" lon="9.438601719909059"><ele>197.0</ele><time>2026-04-11T14:14:58Z</time></trkpt><trkpt lat="46.23137146555785" lon="9.438789585930122"><ele>197.33333333333334</ele><time>2026-04-11T14:14:59Z</time></trkpt><trkpt lat="46.231189416361204" lon="9.438977623007514"><ele>197.66666666666669</ele><time>2026-04-11T14:15:00Z</time></trkpt><trkpt lat="46.23100932882876" lon="9.439166370442688"><ele>198.0</ele><time>2026-04-11T14:15:01Z</time></trkpt><trkpt lat="46.23083301341825" lon="9.439349674437922"><ele>198.0</ele><time>2026-04-11T14:15:02Z</time></trkpt><trkpt lat="46.230656285914286" lon="9.439535820883496"><ele>198.0</ele><time>2026-04-11T14:15:03Z</time></trkpt><trkpt lat="46.23048029950845" lon="9.439722508254555"><ele>198.0</ele><time>2026-04-11T14:15:04Z</time></trkpt><trkpt lat="46.23030688931177" lon="9.439904040781832"><ele>197.66666666666669</ele><time>2026-04-11T14:15:05Z</time></trkpt><trkpt lat="46.230133820434226" lon="9.440089189439444"><ele>197.33333333333334</ele><time>2026-04-11T14:15:06Z</time></trkpt><trkpt lat="46.229966204449504" lon="9.440266740500437"><ele>197.0</ele><time>2026-04-11T14:15:07Z</time></trkpt><trkpt lat="46.229800854006" lon="9.44044488759981"><ele>198.0</ele><time>2026-04-11T14:15:08Z</time></trkpt><trkpt lat="46.22963853625179" lon="9.44062441775939"><ele>199.0</ele><time>2026-04-11T14:15:09Z</time></trkpt><trkpt lat="46.229484015012076" lon="9.440810911839932"><ele>200.0</ele><time>2026-04-11T14:15:10Z</time></trkpt><trkpt lat="46.2293398174387" lon="9.4410067001217"><ele>200.0</ele><time>2026-04-11T14:15:11Z</time></trkpt><trkpt lat="46.22920706195578" lon="9.44121779068057"><ele>200.0</ele><time>2026-04-11T14:15:12Z</time></trkpt><trkpt lat="46.229088556051714" lon="9.441442727445267"><ele>200.0</ele><time>2026-04-11T14:15:13Z</time></trkpt><trkpt lat="46.22898119958588" lon="9.441679669674901"><ele>198.66666666666669</ele><time>2026-04-11T14:15:14Z</time></trkpt><trkpt lat="46.22888342506455" lon="9.441925297116471"><ele>197.33333333333331</ele><time>2026-04-11T14:15:15Z</time></trkpt><trkpt lat="46.22879588832311" lon="9.44218436817102"><ele>196.0</ele><time>2026-04-11T14:15:16Z</time></trkpt><trkpt lat="46.22871876474723" lon="9.442452693535076"><ele>196.0</ele><time>2026-04-11T14:15:17Z</time></trkpt><trkpt lat="46.228647790725404" lon="9.442729185894702"><ele>196.0</ele><time>2026-04-11T14:15:18Z</time></trkpt><trkpt lat="46.22857326979414" lon="9.443000628104754"><ele>196.0</ele><time>2026-04-11T14:15:19Z</time></trkpt><trkpt lat="46.22849754548776" lon="9.443273406378422"><ele>197.33333333333331</ele><time>2026-04-11T14:15:20Z</time></trkpt><trkpt lat="46.228415449323045" lon="9.4435473830894"><ele>198.66666666666669</ele><time>2026-04-11T14:15:21Z</time></trkpt><trkpt lat="46.22833145043204" lon="9.443818346057364"><ele>200.0</ele><time>2026-04-11T14:15:22Z</time></trkpt><trkpt lat="46.22825050958213" lon="9.444091558268093"><ele>199.33333333333334</ele><time>2026-04-11T14:15:23Z</time></trkpt><trkpt lat="46.228172747955945" lon="9.444363882790647"><ele>198.66666666666669</ele><time>2026-04-11T14:15:24Z</time></trkpt><trkpt lat="46.22809559429717" lon="9.444633666082161"><ele>198.0</ele><time>2026-04-11T14:15:25Z</time></trkpt><trkpt lat="46.228019034528856" lon="9.444903761971212"><ele>198.0</ele><time>2026-04-11T14:15:26Z</time></trkpt><trkpt lat="46.22793879007851" lon="9.44517118049708"><ele>198.0</ele><time>2026-04-11T14:15:27Z</time></trkpt><trkpt lat="46.227853386439996" lon="9.445432291599726"><ele>198.0</ele><time>2026-04-11T14:15:28Z</time></trkpt><trkpt lat="46.22775840362603" lon="9.445689928358105"><ele>201.33333333333331</ele><time>2026-04-11T14:15:29Z</time></trkpt><trkpt lat="46.22764877122334" lon="9.445938892666817"><ele>204.66666666666666</ele><time>2026-04-11T14:15:30Z</time></trkpt><trkpt lat="46.22752232546309" lon="9.446173498571135"><ele>208.0</ele><time>2026-04-11T14:15:31Z</time></trkpt><trkpt lat="46.22738142954248" lon="9.446391637666594"><ele>206.33333333333331</ele><time>2026-04-11T14:15:32Z</time></trkpt><trkpt lat="46.22722895840869" lon="9.446591023901572"><ele>204.66666666666669</ele><time>2026-04-11T14:15:33Z</time></trkpt><trkpt lat="46.227063257765295" lon="9.44676838576933"><ele>203.0</ele><time>2026-04-11T14:15:34Z</time></trkpt><trkpt lat="46.226889899560334" lon="9.446927621587667"><ele>203.0</ele><time>2026-04-11T14:15:35Z</time></trkpt><trkpt lat="46.2267167524701" lon="9.447083757024991"><ele>203.0</ele><time>2026-04-11T14:15:36Z</time></trkpt><trkpt lat="46.22654466276275" lon="9.447227503231424"><ele>203.0</ele><time>2026-04-11T14:15:37Z</time></trkpt><trkpt lat="46.22637260916531" lon="9.447361393810116"><ele>206.33333333333334</ele><time>2026-04-11T14:15:38Z</time></trkpt><trkpt lat="46.22620405598885" lon="9.447491870356107"><ele>209.66666666666669</ele><time>2026-04-11T14:15:39Z</time></trkpt><trkpt lat="46.22603650141964" lon="9.447617470373952"><ele>213.0</ele><time>2026-04-11T14:15:40Z</time></trkpt><trkpt lat="46.225863355228476" lon="9.44771777005663"><ele>213.0</ele><time>2026-04-11T14:15:41Z</time></trkpt><trkpt lat="46.225678523574324" lon="9.447780457017936"><ele>213.0</ele><time>2026-04-11T14:15:42Z</time></trkpt><trkpt lat="46.22548922381235" lon="9.447814769461345"><ele>213.0</ele><time>2026-04-11T14:15:43Z</time></trkpt><trkpt lat="46.225301307937606" lon="9.447825707873543"><ele>211.66666666666669</ele><time>2026-04-11T14:15:44Z</time></trkpt><trkpt lat="46.22511578781445" lon="9.447807897383568"><ele>210.33333333333334</ele><time>2026-04-11T14:15:45Z</time></trkpt><trkpt lat="46.22494395346804" lon="9.447767609487975"><ele>209.0</ele><time>2026-04-11T14:15:46Z</time></trkpt><trkpt lat="46.22478464026179" lon="9.447706618869848"><ele>209.0</ele><time>2026-04-11T14:15:47Z</time></trkpt><trkpt lat="46.22462634241877" lon="9.447626985019493"><ele>209.0</ele><time>2026-04-11T14:15:48Z</time></trkpt><trkpt lat="46.224478525662946" lon="9.447544804095001"><ele>209.0</ele><time>2026-04-11T14:15:49Z</time></trkpt><trkpt lat="46.2243266546439" lon="9.447458098983002"><ele>209.0</ele><time>2026-04-11T14:15:50Z</time></trkpt><trkpt lat="46.224173262775516" lon="9.447370879271347"><ele>209.0</ele><time>2026-04-11T14:15:51Z</time></trkpt><trkpt lat="46.22401684001203" lon="9.447285098274039"><ele>209.0</ele><time>2026-04-11T14:15:52Z</time></trkpt><trkpt lat="46.22386332187726" lon="9.447200657599716"><ele>208.33333333333334</ele><time>2026-04-11T14:15:53Z</time></trkpt><trkpt lat="46.22371121308813" lon="9.447122654428624"><ele>207.66666666666669</ele><time>2026-04-11T14:15:54Z</time></trkpt><trkpt lat="46.22356394063039" lon="9.44703953021137"><ele>207.0</ele><time>2026-04-11T14:15:55Z</time></trkpt><trkpt lat="46.22341555667759" lon="9.446956643802448"><ele>207.0</ele><time>2026-04-11T14:15:56Z</time></trkpt><trkpt lat="46.22326492367985" lon="9.446872149464541"><ele>207.0</ele><time>2026-04-11T14:15:57Z</time></trkpt><trkpt lat="46.223110235663455" lon="9.446789309026245"><ele>207.0</ele><time>2026-04-11T14:15:58Z</time></trkpt><trkpt lat="46.222950454304225" lon="9.44669913208303"><ele>207.0</ele><time>2026-04-11T14:15:59Z</time></trkpt><trkpt lat="46.22278977895015" lon="9.446609610709379"><ele>207.0</ele><time>2026-04-11T14:16:00Z</time></trkpt><trkpt lat="46.222623811228345" lon="9.446521156276283"><ele>207.0</ele><time>2026-04-11T14:16:01Z</time></trkpt><trkpt lat="46.22245658055975" lon="9.446432318770855"><ele>207.66666666666669</ele><time>2026-04-11T14:16:02Z</time></trkpt><trkpt lat="46.22228902041545" lon="9.44634540285971"><ele>208.33333333333334</ele><time>2026-04-11T14:16:03Z</time></trkpt><trkpt lat="46.22211639855745" lon="9.446265410995645"><ele>209.0</ele><time>2026-04-11T14:16:04Z</time></trkpt><trkpt lat="46.221937401513316" lon="9.446200763945788"><ele>207.66666666666669</ele><time>2026-04-11T14:16:05Z</time></trkpt><trkpt lat="46.22175674744859" lon="9.446154540227917"><ele>206.33333333333331</ele><time>2026-04-11T14:16:06Z</time></trkpt><trkpt lat="46.221571368665074" lon="9.44612285525629"><ele>205.0</ele><time>2026-04-11T14:16:07Z</time></trkpt><trkpt lat="46.221380667634165" lon="9.44610083178446"><ele>205.0</ele><time>2026-04-11T14:16:08Z</time></trkpt><trkpt lat="46.221190007265115" lon="9.446088123913679"><ele>205.0</ele><time>2026-04-11T14:16:09Z</time></trkpt><trkpt lat="46.221000634095915" lon="9.4460895413263"><ele>205.0</ele><time>2026-04-11T14:16:10Z</time></trkpt><trkpt lat="46.220811538525524" lon="9.44610785325792"><ele>204.0</ele><time>2026-04-11T14:16:11Z</time></trkpt><trkpt lat="46.22062392164029" lon="9.446135717015162"><ele>203.0</ele><time>2026-04-11T14:16:12Z</time></trkpt><trkpt lat="46.22043784923425" lon="9.446162841329151"><ele>202.0</ele><time>2026-04-11T14:16:13Z</time></trkpt><trkpt lat="46.220253722334164" lon="9.446187748981135"><ele>202.0</ele><time>2026-04-11T14:16:14Z</time></trkpt><trkpt lat="46.2200702863784" lon="9.446212625789004"><ele>202.0</ele><time>2026-04-11T14:16:15Z</time></trkpt><trkpt lat="46.219885897959585" lon="9.446236735685265"><ele>202.0</ele><time>2026-04-11T14:16:16Z</time></trkpt><trkpt lat="46.21970225356443" lon="9.44626348723154"><ele>201.33333333333331</ele><time>2026-04-11T14:16:17Z</time></trkpt><trkpt lat="46.219518935596376" lon="9.446291317942304"><ele>200.66666666666669</ele><time>2026-04-11T14:16:18Z</time></trkpt><trkpt lat="46.21933477402482" lon="9.446317593219156"><ele>200.0</ele><time>2026-04-11T14:16:19Z</time></trkpt><trkpt lat="46.21915270488341" lon="9.446343566881074"><ele>201.0</ele><time>2026-04-11T14:16:20Z</time></trkpt><trkpt lat="46.21897121489506" lon="9.446370583910769"><ele>202.0</ele><time>2026-04-11T14:16:21Z</time></trkpt><trkpt lat="46.21879123329545" lon="9.44639848146573"><ele>203.0</ele><time>2026-04-11T14:16:22Z</time></trkpt><trkpt lat="46.218611280865105" lon="9.446422846077178"><ele>203.0</ele><time>2026-04-11T14:16:23Z</time></trkpt><trkpt lat="46.218432246275604" lon="9.44644817071277"><ele>203.0</ele><time>2026-04-11T14:16:24Z</time></trkpt><trkpt lat="46.218255108956015" lon="9.446474567812038"><ele>203.0</ele><time>2026-04-11T14:16:25Z</time></trkpt><trkpt lat="46.218080298516696" lon="9.446502829973294"><ele>205.0</ele><time>2026-04-11T14:16:26Z</time></trkpt><trkpt lat="46.2179057132059" lon="9.446527716296924"><ele>207.0</ele><time>2026-04-11T14:16:27Z</time></trkpt><trkpt lat="46.21773145109433" lon="9.446552317360997"><ele>209.0</ele><time>2026-04-11T14:16:28Z</time></trkpt><trkpt lat="46.217556992892504" lon="9.446585283705879"><ele>209.0</ele><time>2026-04-11T14:16:29Z</time></trkpt><trkpt lat="46.217383772383926" lon="9.44662622407007"><ele>209.0</ele><time>2026-04-11T14:16:30Z</time></trkpt><trkpt lat="46.217213498693326" lon="9.446683828250421"><ele>209.0</ele><time>2026-04-11T14:16:31Z</time></trkpt><trkpt lat="46.21705752618746" lon="9.446764475559831"><ele>208.25</ele><time>2026-04-11T14:16:32Z</time></trkpt><trkpt lat="46.21691463696025" lon="9.446853887036067"><ele>207.5</ele><time>2026-04-11T14:16:33Z</time></trkpt><trkpt lat="46.21677186325106" lon="9.446915076544096"><ele>206.75</ele><time>2026-04-11T14:16:34Z</time></trkpt><trkpt lat="46.216643465296116" lon="9.446989954090972"><ele>206.0</ele><time>2026-04-11T14:16:35Z</time></trkpt><trkpt lat="46.21651639722334" lon="9.447070597278522"><ele>206.0</ele><time>2026-04-11T14:16:36Z</time></trkpt><trkpt lat="46.216392436523584" lon="9.447087159108314"><ele>206.0</ele><time>2026-04-11T14:16:37Z</time></trkpt><trkpt lat="46.21628073293249" lon="9.447105904217423"><ele>206.0</ele><time>2026-04-11T14:16:38Z</time></trkpt><trkpt lat="46.21617416813742" lon="9.447106324681595"><ele>206.0</ele><time>2026-04-11T14:16:39Z</time></trkpt><trkpt lat="46.21607312712062" lon="9.447098224681655"><ele>206.0</ele><time>2026-04-11T14:16:40Z</time></trkpt><trkpt lat="46.21598467977165" lon="9.447118172585068"><ele>206.0</ele><time>2026-04-11T14:16:41Z</time></trkpt><trkpt lat="46.215864148255825" lon="9.447136096856372"><ele>206.0</ele><time>2026-04-11T14:16:43Z</time></trkpt><trkpt lat="46.21578813402031" lon="9.447149496818726"><ele>206.0</ele><time>2026-04-11T14:16:44Z</time></trkpt><trkpt lat="46.21569423845997" lon="9.447144119244397"><ele>206.0</ele><time>2026-04-11T14:16:45Z</time></trkpt><trkpt lat="46.215591721172835" lon="9.447139411164489"><ele>206.0</ele><time>2026-04-11T14:16:46Z</time></trkpt><trkpt lat="46.215476073220316" lon="9.447126208414902"><ele>206.0</ele><time>2026-04-11T14:16:47Z</time></trkpt><trkpt lat="46.21536469916059" lon="9.447088564844975"><ele>206.0</ele><time>2026-04-11T14:16:48Z</time></trkpt><trkpt lat="46.21523612142564" lon="9.447050154960701"><ele>206.0</ele><time>2026-04-11T14:16:49Z</time></trkpt><trkpt lat="46.2151024282357" lon="9.447011018463186"><ele>206.0</ele><time>2026-04-11T14:16:50Z</time></trkpt><trkpt lat="46.2149749508172" lon="9.446985709315129"><ele>206.0</ele><time>2026-04-11T14:16:51Z</time></trkpt><trkpt lat="46.214835620723605" lon="9.446976957878206"><ele>206.0</ele><time>2026-04-11T14:16:52Z</time></trkpt><trkpt lat="46.214687702234926" lon="9.44700263129307"><ele>206.0</ele><time>2026-04-11T14:16:53Z</time></trkpt><trkpt lat="46.21453459437778" lon="9.447022880688793"><ele>206.0</ele><time>2026-04-11T14:16:54Z</time></trkpt><trkpt lat="46.21438718435364" lon="9.447045754685085"><ele>206.0</ele><time>2026-04-11T14:16:55Z</time></trkpt><trkpt lat="46.214237043152615" lon="9.447069188040704"><ele>206.0</ele><time>2026-04-11T14:16:56Z</time></trkpt><trkpt lat="46.21408681515951" lon="9.447090880976628"><ele>206.0</ele><time>2026-04-11T14:16:57Z</time></trkpt><trkpt lat="46.21394099811405" lon="9.447118557861305"><ele>206.0</ele><time>2026-04-11T14:16:58Z</time></trkpt><trkpt lat="46.213788795063316" lon="9.44715666406887"><ele>206.0</ele><time>2026-04-11T14:16:59Z</time></trkpt><trkpt lat="46.21363391218409" lon="9.447205652771093"><ele>206.0</ele><time>2026-04-11T14:17:00Z</time></trkpt><trkpt lat="46.21348610525587" lon="9.447263287066598"><ele>206.0</ele><time>2026-04-11T14:17:01Z</time></trkpt><trkpt lat="46.213348361294" lon="9.447334188155198"><ele>206.0</ele><time>2026-04-11T14:17:02Z</time></trkpt><trkpt lat="46.21321681203077" lon="9.447424644699128"><ele>206.0</ele><time>2026-04-11T14:17:03Z</time></trkpt><trkpt lat="46.2130844317976" lon="9.447530118012047"><ele>206.0</ele><time>2026-04-11T14:17:04Z</time></trkpt><trkpt lat="46.21296072761084" lon="9.447641467677753"><ele>206.0</ele><time>2026-04-11T14:17:05Z</time></trkpt><trkpt lat="46.212836190393354" lon="9.447757852633057"><ele>205.75</ele><time>2026-04-11T14:17:06Z</time></trkpt><trkpt lat="46.212712283514485" lon="9.447875294733826"><ele>205.5</ele><time>2026-04-11T14:17:07Z</time></trkpt><trkpt lat="46.21259014748265" lon="9.447993660016309"><ele>205.25</ele><time>2026-04-11T14:17:08Z</time></trkpt><trkpt lat="46.21246915335655" lon="9.448109489096067"><ele>205.0</ele><time>2026-04-11T14:17:09Z</time></trkpt><trkpt lat="46.21235220929939" lon="9.4482226429958"><ele>204.0</ele><time>2026-04-11T14:17:10Z</time></trkpt><trkpt lat="46.212235017864785" lon="9.448336126866993"><ele>203.0</ele><time>2026-04-11T14:17:11Z</time></trkpt><trkpt lat="46.21211450664951" lon="9.44845070531964"><ele>202.0</ele><time>2026-04-11T14:17:12Z</time></trkpt><trkpt lat="46.21199489393185" lon="9.448569990747597"><ele>201.0</ele><time>2026-04-11T14:17:13Z</time></trkpt><trkpt lat="46.21187561975561" lon="9.448697116641124"><ele>200.75</ele><time>2026-04-11T14:17:14Z</time></trkpt><trkpt lat="46.21175948089181" lon="9.448823215139257"><ele>200.5</ele><time>2026-04-11T14:17:15Z</time></trkpt><trkpt lat="46.211649408898076" lon="9.448954140972987"><ele>200.25</ele><time>2026-04-11T14:17:16Z</time></trkpt><trkpt lat="46.21154294699176" lon="9.449101126848303"><ele>200.0</ele><time>2026-04-11T14:17:17Z</time></trkpt><trkpt lat="46.211439965615526" lon="9.449260744525068"><ele>200.0</ele><time>2026-04-11T14:17:18Z</time></trkpt><trkpt lat="46.21134162857397" lon="9.449434532484647"><ele>200.0</ele><time>2026-04-11T14:17:19Z</time></trkpt><trkpt lat="46.211244405446465" lon="9.44963208229188"><ele>200.0</ele><time>2026-04-11T14:17:20Z</time></trkpt><trkpt lat="46.21113719818779" lon="9.449877834449536"><ele>200.33333333333334</ele><time>2026-04-11T14:17:21Z</time></trkpt><trkpt lat="46.21102297611121" lon="9.450138916558913"><ele>200.66666666666669</ele><time>2026-04-11T14:17:22Z</time></trkpt><trkpt lat="46.21091124612755" lon="9.450421175226966"><ele>201.0</ele><time>2026-04-11T14:17:23Z</time></trkpt><trkpt lat="46.210804355113126" lon="9.450711774521368"><ele>201.5</ele><time>2026-04-11T14:17:24Z</time></trkpt><trkpt lat="46.21069779796778" lon="9.451007843151011"><ele>202.0</ele><time>2026-04-11T14:17:25Z</time></trkpt><trkpt lat="46.210593415292415" lon="9.451303318252284"><ele>202.0</ele><time>2026-04-11T14:17:26Z</time></trkpt><trkpt lat="46.210494788581414" lon="9.451605462659167"><ele>202.0</ele><time>2026-04-11T14:17:27Z</time></trkpt><trkpt lat="46.21040260675785" lon="9.451910819523786"><ele>203.0</ele><time>2026-04-11T14:17:28Z</time></trkpt><trkpt lat="46.210313888015804" lon="9.452225211210482"><ele>204.0</ele><time>2026-04-11T14:17:29Z</time></trkpt><trkpt lat="46.21023065770197" lon="9.452543663616625"><ele>204.0</ele><time>2026-04-11T14:17:30Z</time></trkpt><trkpt lat="46.21015357678802" lon="9.452866311645883"><ele>204.0</ele><time>2026-04-11T14:17:31Z</time></trkpt><trkpt lat="46.210085302598685" lon="9.453188035127479"><ele>204.66666666666669</ele><time>2026-04-11T14:17:32Z</time></trkpt><trkpt lat="46.2100294479406" lon="9.453497925127813"><ele>205.33333333333334</ele><time>2026-04-11T14:17:33Z</time></trkpt><trkpt lat="46.209981915064155" lon="9.45380010514889"><ele>206.0</ele><time>2026-04-11T14:17:34Z</time></trkpt><trkpt lat="46.20993922348372" lon="9.454101876155237"><ele>206.33333333333334</ele><time>2026-04-11T14:17:35Z</time></trkpt><trkpt lat="46.20989926687973" lon="9.45440827855792"><ele>206.66666666666669</ele><time>2026-04-11T14:17:36Z</time></trkpt><trkpt lat="46.20986387890368" lon="9.454716889285615"><ele>207.0</ele><time>2026-04-11T14:17:37Z</time></trkpt><trkpt lat="46.20983495100228" lon="9.45501690881719"><ele>205.66666666666669</ele><time>2026-04-11T14:17:38Z</time></trkpt><trkpt lat="46.2098068691651" lon="9.455310327829345"><ele>204.33333333333334</ele><time>2026-04-11T14:17:39Z</time></trkpt><trkpt lat="46.20977931297875" lon="9.455597552427463"><ele>203.0</ele><time>2026-04-11T14:17:40Z</time></trkpt><trkpt lat="46.20975346025423" lon="9.455885688851497"><ele>202.66666666666669</ele><time>2026-04-11T14:17:41Z</time></trkpt><trkpt lat="46.20972717182304" lon="9.456170430322786"><ele>202.33333333333331</ele><time>2026-04-11T14:17:42Z</time></trkpt><trkpt lat="46.209698980301724" lon="9.456455515993555"><ele>202.0</ele><time>2026-04-11T14:17:43Z</time></trkpt><trkpt lat="46.209669810903684" lon="9.456742462721712"><ele>201.33333333333331</ele><time>2026-04-11T14:17:44Z</time></trkpt><trkpt lat="46.20964157972291" lon="9.457032181344752"><ele>200.66666666666669</ele><time>2026-04-11T14:17:45Z</time></trkpt><trkpt lat="46.209611311549494" lon="9.457323119588352"><ele>200.0</ele><time>2026-04-11T14:17:46Z</time></trkpt><trkpt lat="46.20958251091775" lon="9.457610054477355"><ele>200.0</ele><time>2026-04-11T14:17:47Z</time></trkpt><trkpt lat="46.209556683962894" lon="9.457897654684379"><ele>200.0</ele><time>2026-04-11T14:17:48Z</time></trkpt><trkpt lat="46.20952909373076" lon="9.458183591997178"><ele>200.0</ele><time>2026-04-11T14:17:49Z</time></trkpt><trkpt lat="46.20949974627029" lon="9.458469967929416"><ele>200.66666666666669</ele><time>2026-04-11T14:17:50Z</time></trkpt><trkpt lat="46.20946621473216" lon="9.458755918166762"><ele>201.33333333333331</ele><time>2026-04-11T14:17:51Z</time></trkpt><trkpt lat="46.20942352089665" lon="9.45902449576669"><ele>202.0</ele><time>2026-04-11T14:17:52Z</time></trkpt><trkpt lat="46.20934162173748" lon="9.459261064828873"><ele>202.33333333333331</ele><time>2026-04-11T14:17:53Z</time></trkpt><trkpt lat="46.20924247726618" lon="9.459478588799568"><ele>202.66666666666669</ele><time>2026-04-11T14:17:54Z</time></trkpt><trkpt lat="46.20913557046815" lon="9.459685317562199"><ele>203.0</ele><time>2026-04-11T14:17:55Z</time></trkpt><trkpt lat="46.20900907941811" lon="9.459862324649512"><ele>202.66666666666669</ele><time>2026-04-11T14:17:56Z</time></trkpt><trkpt lat="46.20887461389153" lon="9.460024120446814"><ele>202.33333333333331</ele><time>2026-04-11T14:17:57Z</time></trkpt><trkpt lat="46.20873597291082" lon="9.460173497439579"><ele>202.0</ele><time>2026-04-11T14:17:58Z</time></trkpt><trkpt lat="46.20859240330189" lon="9.4603112226517"><ele>202.0</ele><time>2026-04-11T14:17:59Z</time></trkpt><trkpt lat="46.208451792272676" lon="9.460424331177217"><ele>202.0</ele><time>2026-04-11T14:18:00Z</time></trkpt><trkpt lat="46.20830598118657" lon="9.460486347200419"><ele>202.0</ele><time>2026-04-11T14:18:01Z</time></trkpt><trkpt lat="46.20816263361517" lon="9.460539958872603"><ele>204.25</ele><time>2026-04-11T14:18:02Z</time></trkpt><trkpt lat="46.20801867493132" lon="9.460566374790712"><ele>206.5</ele><time>2026-04-11T14:18:03Z</time></trkpt><trkpt lat="46.207870403387" lon="9.460544232880924"><ele>208.75</ele><time>2026-04-11T14:18:04Z</time></trkpt><trkpt lat="46.207726089430516" lon="9.460521071573465"><ele>211.0</ele><time>2026-04-11T14:18:05Z</time></trkpt><trkpt lat="46.207585874504396" lon="9.460507815661604"><ele>211.0</ele><time>2026-04-11T14:18:06Z</time></trkpt><trkpt lat="46.20745145343161" lon="9.46051107249004"><ele>211.0</ele><time>2026-04-11T14:18:07Z</time></trkpt><trkpt lat="46.207310430326444" lon="9.460535337959833"><ele>211.0</ele><time>2026-04-11T14:18:08Z</time></trkpt><trkpt lat="46.20716574197772" lon="9.460578034855914"><ele>211.0</ele><time>2026-04-11T14:18:09Z</time></trkpt><trkpt lat="46.207021682203106" lon="9.460633876114773"><ele>215.25</ele><time>2026-04-11T14:18:10Z</time></trkpt><trkpt lat="46.20688157603349" lon="9.460695993075623"><ele>219.5</ele><time>2026-04-11T14:18:11Z</time></trkpt><trkpt lat="46.206738884763254" lon="9.460756198289847"><ele>223.75</ele><time>2026-04-11T14:18:12Z</time></trkpt><trkpt lat="46.2065930102471" lon="9.460819459817001"><ele>228.0</ele><time>2026-04-11T14:18:13Z</time></trkpt><trkpt lat="46.20642539542867" lon="9.460883073645869"><ele>250.0</ele><time>2026-04-11T14:18:14Z</time></trkpt><trkpt lat="46.206250114095894" lon="9.460948205980982"><ele>272.0</ele><time>2026-04-11T14:18:15Z</time></trkpt><trkpt lat="46.206069322786796" lon="9.460980064319234"><ele>294.0</ele><time>2026-04-11T14:18:16Z</time></trkpt><trkpt lat="46.205894689936784" lon="9.461010437808971"><ele>294.0</ele><time>2026-04-11T14:18:17Z</time></trkpt><trkpt lat="46.20572188738488" lon="9.461025412425343"><ele>294.0</ele><time>2026-04-11T14:18:18Z</time></trkpt><trkpt lat="46.20555885398251" lon="9.461029158963896"><ele>294.0</ele><time>2026-04-11T14:18:19Z</time></trkpt><trkpt lat="46.20538743479636" lon="9.461020837584712"><ele>301.6666666666667</ele><time>2026-04-11T14:18:20.063Z</time></trkpt><trkpt lat="46.205234096336284" lon="9.46100225338602"><ele>309.33333333333337</ele><time>2026-04-11T14:18:21.068Z</time></trkpt><trkpt lat="46.205081439781694" lon="9.460972835488697"><ele>317.0</ele><time>2026-04-11T14:18:22.06Z</time></trkpt><trkpt lat="46.204928437414814" lon="9.460934090824452"><ele>269.0</ele><time>2026-04-11T14:18:23.053Z</time></trkpt><trkpt lat="46.20369369689364" lon="9.460227448478607"><ele>269.0</ele><time>2026-04-11T14:18:26.14Z</time></trkpt><trkpt lat="46.203301256754735" lon="9.459911387393609"><ele>269.0</ele><time>2026-04-11T14:18:27.139Z</time></trkpt><trkpt lat="46.20291790735866" lon="9.45957386717872"><ele>207.0</ele><time>2026-04-11T14:18:28.139Z</time></trkpt><trkpt lat="46.2025610295429" lon="9.458643750372827"><ele>207.0</ele><time>2026-04-11T14:18:41Z</time></trkpt><trkpt lat="46.202514900287156" lon="9.458432483840157"><ele>207.0</ele><time>2026-04-11T14:18:42Z</time></trkpt><trkpt lat="46.20242251270182" lon="9.458204637550537"><ele>207.0</ele><time>2026-04-11T14:18:43Z</time></trkpt><trkpt lat="46.20235053105497" lon="9.457955208099655"><ele>208.33333333333331</ele><time>2026-04-11T14:18:44Z</time></trkpt><trkpt lat="46.20229010539987" lon="9.457713606692117"><ele>209.66666666666666</ele><time>2026-04-11T14:18:45Z</time></trkpt><trkpt lat="46.2022477546044" lon="9.45746341521816"><ele>211.0</ele><time>2026-04-11T14:18:46Z</time></trkpt><trkpt lat="46.20218557736348" lon="9.457209409291545"><ele>209.66666666666666</ele><time>2026-04-11T14:18:47Z</time></trkpt><trkpt lat="46.20210315326377" lon="9.456944405263922"><ele>208.33333333333331</ele><time>2026-04-11T14:18:48Z</time></trkpt><trkpt lat="46.202036451669734" lon="9.456671678775255"><ele>207.0</ele><time>2026-04-11T14:18:49Z</time></trkpt><trkpt lat="46.20197215999025" lon="9.456396583413376"><ele>206.33333333333331</ele><time>2026-04-11T14:18:50Z</time></trkpt><trkpt lat="46.20190659535307" lon="9.456126965248194"><ele>205.66666666666666</ele><time>2026-04-11T14:18:51Z</time></trkpt><trkpt lat="46.20184101641683" lon="9.455861842489105"><ele>205.0</ele><time>2026-04-11T14:18:52Z</time></trkpt><trkpt lat="46.201774426718764" lon="9.455595250616884"><ele>204.66666666666666</ele><time>2026-04-11T14:18:53Z</time></trkpt><trkpt lat="46.20170906678192" lon="9.455325456484093"><ele>204.33333333333331</ele><time>2026-04-11T14:18:54Z</time></trkpt><trkpt lat="46.20164019053134" lon="9.455052238584244"><ele>204.0</ele><time>2026-04-11T14:18:55Z</time></trkpt><trkpt lat="46.201563068391735" lon="9.454779564081543"><ele>204.66666666666669</ele><time>2026-04-11T14:18:56Z</time></trkpt><trkpt lat="46.201475924890765" lon="9.454517177344849"><ele>205.33333333333334</ele><time>2026-04-11T14:18:57Z</time></trkpt><trkpt lat="46.20137933873957" lon="9.454261492523399"><ele>206.0</ele><time>2026-04-11T14:18:58Z</time></trkpt><trkpt lat="46.20127935079477" lon="9.454007405251987"><ele>206.0</ele><time>2026-04-11T14:18:59Z</time></trkpt><trkpt lat="46.20117999400056" lon="9.45375374064388"><ele>206.0</ele><time>2026-04-11T14:19:00Z</time></trkpt><trkpt lat="46.20107807944842" lon="9.4535025165996"><ele>206.0</ele><time>2026-04-11T14:19:01Z</time></trkpt><trkpt lat="46.20097102877313" lon="9.453256754440789"><ele>206.0</ele><time>2026-04-11T14:19:02Z</time></trkpt><trkpt lat="46.200845775025556" lon="9.453026925253425"><ele>206.0</ele><time>2026-04-11T14:19:03Z</time></trkpt><trkpt lat="46.20070848098143" lon="9.45281540349895"><ele>206.0</ele><time>2026-04-11T14:19:04Z</time></trkpt><trkpt lat="46.20055630896965" lon="9.45261496708491"><ele>205.66666666666669</ele><time>2026-04-11T14:19:05Z</time></trkpt><trkpt lat="46.200393836047645" lon="9.452429438609617"><ele>205.33333333333331</ele><time>2026-04-11T14:19:06Z</time></trkpt><trkpt lat="46.200220597683234" lon="9.45226571572886"><ele>205.0</ele><time>2026-04-11T14:19:07Z</time></trkpt><trkpt lat="46.20003756784418" lon="9.452121081242813"><ele>205.33333333333331</ele><time>2026-04-11T14:19:08Z</time></trkpt><trkpt lat="46.19984352811749" lon="9.45200436163807"><ele>205.66666666666669</ele><time>2026-04-11T14:19:09Z</time></trkpt><trkpt lat="46.19964911359165" lon="9.451896776345697"><ele>206.0</ele><time>2026-04-11T14:19:10Z</time></trkpt><trkpt lat="46.19945501555605" lon="9.451799960802077"><ele>206.0</ele><time>2026-04-11T14:19:11Z</time></trkpt><trkpt lat="46.19926302352181" lon="9.451702114805306"><ele>206.0</ele><time>2026-04-11T14:19:12Z</time></trkpt><trkpt lat="46.19907095981543" lon="9.451608310370268"><ele>206.0</ele><time>2026-04-11T14:19:13Z</time></trkpt><trkpt lat="46.19887954034603" lon="9.45153263878299"><ele>206.0</ele><time>2026-04-11T14:19:14Z</time></trkpt><trkpt lat="46.198680936256764" lon="9.45147577443472"><ele>206.0</ele><time>2026-04-11T14:19:15Z</time></trkpt><trkpt lat="46.19848015105576" lon="9.45144506172373"><ele>206.0</ele><time>2026-04-11T14:19:16Z</time></trkpt><trkpt lat="46.19827993391951" lon="9.451436226948124"><ele>205.66666666666669</ele><time>2026-04-11T14:19:17Z</time></trkpt><trkpt lat="46.19808238357337" lon="9.451438032296906"><ele>205.33333333333331</ele><time>2026-04-11T14:19:18Z</time></trkpt><trkpt lat="46.19788494112279" lon="9.451444027766202"><ele>205.0</ele><time>2026-04-11T14:19:19Z</time></trkpt><trkpt lat="46.197689252305274" lon="9.451453572115954"><ele>205.0</ele><time>2026-04-11T14:19:20Z</time></trkpt><trkpt lat="46.197500200977" lon="9.451460388626074"><ele>205.0</ele><time>2026-04-11T14:19:21Z</time></trkpt><trkpt lat="46.19732367552601" lon="9.451464954575018"><ele>205.0</ele><time>2026-04-11T14:19:22Z</time></trkpt><trkpt lat="46.197154199841144" lon="9.451471909390587"><ele>204.33333333333331</ele><time>2026-04-11T14:19:23Z</time></trkpt><trkpt lat="46.19698773920049" lon="9.451471519240641"><ele>203.66666666666669</ele><time>2026-04-11T14:19:24Z</time></trkpt><trkpt lat="46.19682281940582" lon="9.45146721585269"><ele>203.0</ele><time>2026-04-11T14:19:25Z</time></trkpt><trkpt lat="46.19665130044935" lon="9.45146450977832"><ele>203.0</ele><time>2026-04-11T14:19:26Z</time></trkpt><trkpt lat="46.19647607141569" lon="9.45144936103618"><ele>203.0</ele><time>2026-04-11T14:19:27Z</time></trkpt><trkpt lat="46.19630056895686" lon="9.451415342621532"><ele>203.0</ele><time>2026-04-11T14:19:28Z</time></trkpt><trkpt lat="46.19612539793084" lon="9.451367034962407"><ele>203.0</ele><time>2026-04-11T14:19:29Z</time></trkpt><trkpt lat="46.195951289945874" lon="9.451302813137366"><ele>203.0</ele><time>2026-04-11T14:19:30Z</time></trkpt><trkpt lat="46.195780601175834" lon="9.451223590919387"><ele>203.0</ele><time>2026-04-11T14:19:31Z</time></trkpt><trkpt lat="46.19560898580084" lon="9.451136854587308"><ele>203.0</ele><time>2026-04-11T14:19:32Z</time></trkpt><trkpt lat="46.195434422581826" lon="9.451041115548842"><ele>203.0</ele><time>2026-04-11T14:19:33Z</time></trkpt><trkpt lat="46.19525372587213" lon="9.450951850562678"><ele>203.0</ele><time>2026-04-11T14:19:34Z</time></trkpt><trkpt lat="46.19506322756049" lon="9.450880585265468"><ele>203.0</ele><time>2026-04-11T14:19:35Z</time></trkpt><trkpt lat="46.194869281223326" lon="9.450826341444817"><ele>203.0</ele><time>2026-04-11T14:19:36Z</time></trkpt><trkpt lat="46.19467024513774" lon="9.450790743301551"><ele>203.0</ele><time>2026-04-11T14:19:37Z</time></trkpt><trkpt lat="46.19446578581001" lon="9.450768992381974"><ele>213.0</ele><time>2026-04-11T14:19:38Z</time></trkpt><trkpt lat="46.19425656449811" lon="9.450749840822672"><ele>223.0</ele><time>2026-04-11T14:19:39Z</time></trkpt><trkpt lat="46.194044058266556" lon="9.450722032219668"><ele>233.0</ele><time>2026-04-11T14:19:40Z</time></trkpt><trkpt lat="46.19383059256309" lon="9.450680343645812"><ele>234.66666666666669</ele><time>2026-04-11T14:19:41Z</time></trkpt><trkpt lat="46.19362735685987" lon="9.450601455838754"><ele>236.33333333333331</ele><time>2026-04-11T14:19:42Z</time></trkpt><trkpt lat="46.193430354458066" lon="9.450525734900037"><ele>238.0</ele><time>2026-04-11T14:19:43Z</time></trkpt><trkpt lat="46.193227167184205" lon="9.450431934236422"><ele>245.5</ele><time>2026-04-11T14:19:44.078Z</time></trkpt><trkpt lat="46.19304519329049" lon="9.450336799707845"><ele>253.0</ele><time>2026-04-11T14:19:45.065Z</time></trkpt><trkpt lat="46.19131847046588" lon="9.449435427094981"><ele>266.0</ele><time>2026-04-11T14:19:49.139Z</time></trkpt><trkpt lat="46.19089690895097" lon="9.449209684436251"><ele>288.0</ele><time>2026-04-11T14:19:50.139Z</time></trkpt><trkpt lat="46.190476938884935" lon="9.448977591159279"><ele>285.5</ele><time>2026-04-11T14:19:51.139Z</time></trkpt><trkpt lat="46.190075227244265" lon="9.44868688043232"><ele>283.0</ele><time>2026-04-11T14:19:52.139Z</time></trkpt><trkpt lat="46.189701595100715" lon="9.448327428979978"><ele>283.0</ele><time>2026-04-11T14:19:53.139Z</time></trkpt><trkpt lat="46.1896244" lon="9.4482422"><ele>283.0</ele><time>2026-04-11T14:19:54.139Z</time></trkpt><trkpt lat="46.188475896864475" lon="9.446070324218342"><ele>261.66666666666663</ele><time>2026-04-11T14:20:13Z</time></trkpt><trkpt lat="46.18838914387827" lon="9.445893902986638"><ele>240.33333333333331</ele><time>2026-04-11T14:20:14Z</time></trkpt><trkpt lat="46.18830769402116" lon="9.445723814022665"><ele>219.0</ele><time>2026-04-11T14:20:15Z</time></trkpt><trkpt lat="46.18817819748395" lon="9.445570308198427"><ele>219.33333333333331</ele><time>2026-04-11T14:20:16Z</time></trkpt><trkpt lat="46.188048475089275" lon="9.445419104842141"><ele>219.66666666666666</ele><time>2026-04-11T14:20:17Z</time></trkpt><trkpt lat="46.18793516728079" lon="9.445263092870631"><ele>220.0</ele><time>2026-04-11T14:20:18Z</time></trkpt><trkpt lat="46.18781143529437" lon="9.445126060910455"><ele>220.0</ele><time>2026-04-11T14:20:19Z</time></trkpt><trkpt lat="46.18767969833895" lon="9.445003241766175"><ele>220.0</ele><time>2026-04-11T14:20:20Z</time></trkpt><trkpt lat="46.187530732547714" lon="9.444867511523075"><ele>220.0</ele><time>2026-04-11T14:20:21Z</time></trkpt><trkpt lat="46.18737610614161" lon="9.444751805561271"><ele>215.0</ele><time>2026-04-11T14:20:22Z</time></trkpt><trkpt lat="46.187219604784445" lon="9.44464494511247"><ele>210.0</ele><time>2026-04-11T14:20:23Z</time></trkpt><trkpt lat="46.187071798873816" lon="9.444533696600992"><ele>205.0</ele><time>2026-04-11T14:20:24Z</time></trkpt><trkpt lat="46.18691532116241" lon="9.444449015581801"><ele>205.0</ele><time>2026-04-11T14:20:25Z</time></trkpt><trkpt lat="46.186760287242464" lon="9.444378072639024"><ele>205.0</ele><time>2026-04-11T14:20:26Z</time></trkpt><trkpt lat="46.18659588288039" lon="9.444323977554625"><ele>205.0</ele><time>2026-04-11T14:20:27Z</time></trkpt><trkpt lat="46.186427126229106" lon="9.444283084738068"><ele>206.0</ele><time>2026-04-11T14:20:28Z</time></trkpt><trkpt lat="46.18625647208705" lon="9.444246789251887"><ele>207.0</ele><time>2026-04-11T14:20:29Z</time></trkpt><trkpt lat="46.18607867935814" lon="9.444208969763707"><ele>208.0</ele><time>2026-04-11T14:20:30Z</time></trkpt><trkpt lat="46.18590129676086" lon="9.444171124784619"><ele>208.0</ele><time>2026-04-11T14:20:31Z</time></trkpt><trkpt lat="46.1857302185475" lon="9.444134643880643"><ele>208.0</ele><time>2026-04-11T14:20:32Z</time></trkpt><trkpt lat="46.1855599630128" lon="9.444098966537627"><ele>208.0</ele><time>2026-04-11T14:20:33Z</time></trkpt><trkpt lat="46.185409345264176" lon="9.444067356029114"><ele>207.66666666666666</ele><time>2026-04-11T14:20:34Z</time></trkpt><trkpt lat="46.18523635859886" lon="9.444024315859853"><ele>207.33333333333331</ele><time>2026-04-11T14:20:35Z</time></trkpt><trkpt lat="46.18506809490485" lon="9.443974373403819"><ele>207.0</ele><time>2026-04-11T14:20:36Z</time></trkpt><trkpt lat="46.18488924131736" lon="9.443907835746861"><ele>205.0</ele><time>2026-04-11T14:20:37Z</time></trkpt><trkpt lat="46.184708246225455" lon="9.4438309840906"><ele>203.0</ele><time>2026-04-11T14:20:38Z</time></trkpt><trkpt lat="46.18454122308011" lon="9.443750653673746"><ele>201.0</ele><time>2026-04-11T14:20:39Z</time></trkpt><trkpt lat="46.18437708235371" lon="9.443684433543094"><ele>200.66666666666669</ele><time>2026-04-11T14:20:40Z</time></trkpt><trkpt lat="46.184210883434915" lon="9.443580488895769"><ele>200.33333333333334</ele><time>2026-04-11T14:20:41Z</time></trkpt><trkpt lat="46.18404128826859" lon="9.443465886026607"><ele>200.0</ele><time>2026-04-11T14:20:42Z</time></trkpt><trkpt lat="46.18388647992493" lon="9.4433539905885"><ele>200.0</ele><time>2026-04-11T14:20:43Z</time></trkpt><trkpt lat="46.18373065297418" lon="9.443229897047363"><ele>200.0</ele><time>2026-04-11T14:20:44Z</time></trkpt><trkpt lat="46.18357460044401" lon="9.443096650431665"><ele>200.0</ele><time>2026-04-11T14:20:45Z</time></trkpt><trkpt lat="46.183404302103625" lon="9.442939585282302"><ele>200.0</ele><time>2026-04-11T14:20:46Z</time></trkpt><trkpt lat="46.1832410912586" lon="9.442773942553623"><ele>200.0</ele><time>2026-04-11T14:20:47Z</time></trkpt><trkpt lat="46.183080403619705" lon="9.442610474004805"><ele>200.0</ele><time>2026-04-11T14:20:48Z</time></trkpt><trkpt lat="46.18291839312882" lon="9.44243973252238"><ele>200.33333333333334</ele><time>2026-04-11T14:20:49Z</time></trkpt><trkpt lat="46.18275183729663" lon="9.442280220481313"><ele>200.66666666666669</ele><time>2026-04-11T14:20:50Z</time></trkpt><trkpt lat="46.18258528691026" lon="9.442123140863096"><ele>201.0</ele><time>2026-04-11T14:20:51Z</time></trkpt><trkpt lat="46.18241828859779" lon="9.441956586886953"><ele>200.66666666666669</ele><time>2026-04-11T14:20:52Z</time></trkpt><trkpt lat="46.18225026910308" lon="9.441785390662119"><ele>200.33333333333334</ele><time>2026-04-11T14:20:53Z</time></trkpt><trkpt lat="46.18208047878581" lon="9.44159097629036"><ele>200.0</ele><time>2026-04-11T14:20:54Z</time></trkpt><trkpt lat="46.18190052681535" lon="9.441437649063701"><ele>199.33333333333334</ele><time>2026-04-11T14:20:55Z</time></trkpt><trkpt lat="46.18172789237102" lon="9.441263967296894"><ele>198.66666666666669</ele><time>2026-04-11T14:20:56Z</time></trkpt><trkpt lat="46.18156570450583" lon="9.441073736420261"><ele>198.0</ele><time>2026-04-11T14:20:57Z</time></trkpt><trkpt lat="46.1813851784186" lon="9.440922877126601"><ele>198.33333333333331</ele><time>2026-04-11T14:20:58Z</time></trkpt><trkpt lat="46.181214918480926" lon="9.440749049033112"><ele>198.66666666666666</ele><time>2026-04-11T14:20:59Z</time></trkpt><trkpt lat="46.1810460273606" lon="9.440574783995348"><ele>199.0</ele><time>2026-04-11T14:21:00Z</time></trkpt><trkpt lat="46.18087563801881" lon="9.440401921261335"><ele>199.0</ele><time>2026-04-11T14:21:01Z</time></trkpt><trkpt lat="46.18070089578706" lon="9.440229326491371"><ele>199.0</ele><time>2026-04-11T14:21:02Z</time></trkpt><trkpt lat="46.180525289530024" lon="9.440054718755768"><ele>199.0</ele><time>2026-04-11T14:21:03Z</time></trkpt><trkpt lat="46.18034618807624" lon="9.439876803127992"><ele>199.0</ele><time>2026-04-11T14:21:04Z</time></trkpt><trkpt lat="46.18016799718103" lon="9.439707866356825"><ele>199.0</ele><time>2026-04-11T14:21:05Z</time></trkpt><trkpt lat="46.17999359127528" lon="9.439528562496625"><ele>199.0</ele><time>2026-04-11T14:21:06Z</time></trkpt><trkpt lat="46.17981891741285" lon="9.439348972209062"><ele>199.66666666666666</ele><time>2026-04-11T14:21:07Z</time></trkpt><trkpt lat="46.17964676470134" lon="9.439170164894206"><ele>200.33333333333331</ele><time>2026-04-11T14:21:08Z</time></trkpt><trkpt lat="46.17946995873769" lon="9.4389974947519"><ele>201.0</ele><time>2026-04-11T14:21:09Z</time></trkpt><trkpt lat="46.179294900287765" lon="9.438827245941807"><ele>200.66666666666669</ele><time>2026-04-11T14:21:10Z</time></trkpt><trkpt lat="46.179125204239796" lon="9.438652590693115"><ele>200.33333333333334</ele><time>2026-04-11T14:21:11Z</time></trkpt><trkpt lat="46.178955282475265" lon="9.438480673054128"><ele>200.0</ele><time>2026-04-11T14:21:12Z</time></trkpt><trkpt lat="46.17878447807539" lon="9.43830754176172"><ele>199.66666666666669</ele><time>2026-04-11T14:21:13Z</time></trkpt><trkpt lat="46.17862164936777" lon="9.438144655109273"><ele>199.33333333333331</ele><time>2026-04-11T14:21:14Z</time></trkpt><trkpt lat="46.17846321319864" lon="9.43798837195942"><ele>199.0</ele><time>2026-04-11T14:21:15Z</time></trkpt><trkpt lat="46.17830636135534" lon="9.437832563004461"><ele>199.0</ele><time>2026-04-11T14:21:16Z</time></trkpt><trkpt lat="46.178154572176076" lon="9.437676473302366"><ele>199.0</ele><time>2026-04-11T14:21:17Z</time></trkpt><trkpt lat="46.178003367014036" lon="9.437525467794961"><ele>199.0</ele><time>2026-04-11T14:21:18Z</time></trkpt><trkpt lat="46.17785719874248" lon="9.437382105922252"><ele>199.0</ele><time>2026-04-11T14:21:19Z</time></trkpt><trkpt lat="46.17771692692703" lon="9.437243778380925"><ele>199.0</ele><time>2026-04-11T14:21:20Z</time></trkpt><trkpt lat="46.1775776965792" lon="9.437098961549603"><ele>199.0</ele><time>2026-04-11T14:21:21Z</time></trkpt><trkpt lat="46.177437942995105" lon="9.436949115382276"><ele>199.66666666666666</ele><time>2026-04-11T14:21:22Z</time></trkpt><trkpt lat="46.177293142878234" lon="9.436795438702063"><ele>200.33333333333331</ele><time>2026-04-11T14:21:23Z</time></trkpt><trkpt lat="46.177143593833655" lon="9.436640969058116"><ele>201.0</ele><time>2026-04-11T14:21:24Z</time></trkpt><trkpt lat="46.176972786661935" lon="9.436481886020964"><ele>201.0</ele><time>2026-04-11T14:21:25Z</time></trkpt><trkpt lat="46.17680242522698" lon="9.436311353481459"><ele>201.0</ele><time>2026-04-11T14:21:26Z</time></trkpt><trkpt lat="46.17662817836396" lon="9.436129657178986"><ele>201.0</ele><time>2026-04-11T14:21:27Z</time></trkpt><trkpt lat="46.17645051827819" lon="9.435945531087786"><ele>201.0</ele><time>2026-04-11T14:21:28Z</time></trkpt><trkpt lat="46.17626696372111" lon="9.435759267155364"><ele>201.0</ele><time>2026-04-11T14:21:29Z</time></trkpt><trkpt lat="46.17607933330266" lon="9.435571754580799"><ele>201.5</ele><time>2026-04-11T14:21:30Z</time></trkpt><trkpt lat="46.17589259563056" lon="9.43538100082296"><ele>202.0</ele><time>2026-04-11T14:21:31Z</time></trkpt><trkpt lat="46.1757063003003" lon="9.435189478771917"><ele>202.5</ele><time>2026-04-11T14:21:32Z</time></trkpt><trkpt lat="46.17551741014431" lon="9.435003834975333"><ele>203.0</ele><time>2026-04-11T14:21:33Z</time></trkpt><trkpt lat="46.17532591889995" lon="9.434827078228174"><ele>203.0</ele><time>2026-04-11T14:21:34Z</time></trkpt><trkpt lat="46.17513421488099" lon="9.43466787009307"><ele>203.0</ele><time>2026-04-11T14:21:35Z</time></trkpt><trkpt lat="46.17494526916194" lon="9.434535842637569"><ele>203.0</ele><time>2026-04-11T14:21:36Z</time></trkpt><trkpt lat="46.17475927741176" lon="9.434432988350844"><ele>201.66666666666669</ele><time>2026-04-11T14:21:37Z</time></trkpt><trkpt lat="46.17457334400444" lon="9.434340338551412"><ele>200.33333333333331</ele><time>2026-04-11T14:21:38Z</time></trkpt><trkpt lat="46.17438226571901" lon="9.434255004502022"><ele>199.0</ele><time>2026-04-11T14:21:39Z</time></trkpt><trkpt lat="46.17419180276358" lon="9.434171568980378"><ele>199.66666666666666</ele><time>2026-04-11T14:21:40Z</time></trkpt><trkpt lat="46.174011287802294" lon="9.434091464064258"><ele>200.33333333333331</ele><time>2026-04-11T14:21:41Z</time></trkpt><trkpt lat="46.17384016441092" lon="9.434017852015915"><ele>201.0</ele><time>2026-04-11T14:21:42Z</time></trkpt><trkpt lat="46.173679834353" lon="9.433951789178545"><ele>201.0</ele><time>2026-04-11T14:21:43Z</time></trkpt><trkpt lat="46.17352807638609" lon="9.433886374277245"><ele>201.0</ele><time>2026-04-11T14:21:44Z</time></trkpt><trkpt lat="46.173382043792394" lon="9.433821578064363"><ele>201.0</ele><time>2026-04-11T14:21:45Z</time></trkpt><trkpt lat="46.17324258185226" lon="9.433758698590559"><ele>200.75</ele><time>2026-04-11T14:21:46Z</time></trkpt><trkpt lat="46.173111728821965" lon="9.433699895228045"><ele>200.5</ele><time>2026-04-11T14:21:47Z</time></trkpt><trkpt lat="46.17298734934143" lon="9.433643959141413"><ele>200.25</ele><time>2026-04-11T14:21:48Z</time></trkpt><trkpt lat="46.17286987313538" lon="9.433592672683028"><ele>200.0</ele><time>2026-04-11T14:21:49Z</time></trkpt><trkpt lat="46.17275264174469" lon="9.433542020863769"><ele>200.0</ele><time>2026-04-11T14:21:50Z</time></trkpt><trkpt lat="46.172625300457305" lon="9.4334891423884"><ele>200.0</ele><time>2026-04-11T14:21:51Z</time></trkpt><trkpt lat="46.17249523110688" lon="9.433430556168815"><ele>200.0</ele><time>2026-04-11T14:21:52Z</time></trkpt><trkpt lat="46.17237322529877" lon="9.43337322504969"><ele>200.0</ele><time>2026-04-11T14:21:53Z</time></trkpt><trkpt lat="46.17226326201531" lon="9.43332603896954"><ele>200.2</ele><time>2026-04-11T14:21:54Z</time></trkpt><trkpt lat="46.172161662961734" lon="9.433272024685984"><ele>200.4</ele><time>2026-04-11T14:21:55Z</time></trkpt><trkpt lat="46.17206407919568" lon="9.4332145352994"><ele>200.60000000000002</ele><time>2026-04-11T14:21:56Z</time></trkpt><trkpt lat="46.17197428808583" lon="9.433147446394733"><ele>200.8</ele><time>2026-04-11T14:21:57Z</time></trkpt><trkpt lat="46.17189293942549" lon="9.433064392182002"><ele>201.0</ele><time>2026-04-11T14:21:58Z</time></trkpt><trkpt lat="46.17180849920727" lon="9.432968476408185"><ele>201.0</ele><time>2026-04-11T14:21:59Z</time></trkpt><trkpt lat="46.17171445156506" lon="9.432861428889252"><ele>201.0</ele><time>2026-04-11T14:22:00Z</time></trkpt><trkpt lat="46.17162706197777" lon="9.432754655455575"><ele>201.0</ele><time>2026-04-11T14:22:01Z</time></trkpt><trkpt lat="46.171552003284454" lon="9.432648645366069"><ele>201.0</ele><time>2026-04-11T14:22:02Z</time></trkpt><trkpt lat="46.171504720640094" lon="9.432523922178913"><ele>201.0</ele><time>2026-04-11T14:22:03Z</time></trkpt><trkpt lat="46.17149759478796" lon="9.432371189808068"><ele>201.5</ele><time>2026-04-11T14:22:04Z</time></trkpt><trkpt lat="46.17151435603067" lon="9.43220827460139"><ele>202.0</ele><time>2026-04-11T14:22:05Z</time></trkpt><trkpt lat="46.17152327811189" lon="9.432030938392561"><ele>202.5</ele><time>2026-04-11T14:22:06Z</time></trkpt><trkpt lat="46.171526896744304" lon="9.431842774241819"><ele>203.0</ele><time>2026-04-11T14:22:07Z</time></trkpt><trkpt lat="46.17153062144444" lon="9.431643711952146"><ele>203.0</ele><time>2026-04-11T14:22:08Z</time></trkpt><trkpt lat="46.171535055925986" lon="9.431453629787006"><ele>203.0</ele><time>2026-04-11T14:22:09Z</time></trkpt><trkpt lat="46.17154311426457" lon="9.43128099482635"><ele>203.0</ele><time>2026-04-11T14:22:10Z</time></trkpt><trkpt lat="46.17154690972616" lon="9.43112808654974"><ele>203.0</ele><time>2026-04-11T14:22:11Z</time></trkpt><trkpt lat="46.17155020053671" lon="9.43098437850682"><ele>202.75</ele><time>2026-04-11T14:22:12Z</time></trkpt><trkpt lat="46.17155510691807" lon="9.43083078687381"><ele>202.5</ele><time>2026-04-11T14:22:13Z</time></trkpt><trkpt lat="46.17156114102671" lon="9.430655455975232"><ele>202.25</ele><time>2026-04-11T14:22:14Z</time></trkpt><trkpt lat="46.17156750877363" lon="9.430456260729649"><ele>202.0</ele><time>2026-04-11T14:22:15Z</time></trkpt><trkpt lat="46.17157701443275" lon="9.430248053700652"><ele>202.0</ele><time>2026-04-11T14:22:16Z</time></trkpt><trkpt lat="46.17158215388585" lon="9.430033797099394"><ele>202.0</ele><time>2026-04-11T14:22:17Z</time></trkpt><trkpt lat="46.17159106177697" lon="9.4298119600247"><ele>202.0</ele><time>2026-04-11T14:22:18Z</time></trkpt><trkpt lat="46.17159807674506" lon="9.429591382394904"><ele>202.0</ele><time>2026-04-11T14:22:19Z</time></trkpt><trkpt lat="46.17160925046746" lon="9.429363191043722"><ele>202.0</ele><time>2026-04-11T14:22:20Z</time></trkpt><trkpt lat="46.171619422545724" lon="9.42913398964491"><ele>202.0</ele><time>2026-04-11T14:22:21Z</time></trkpt><trkpt lat="46.171627070779614" lon="9.428904516718376"><ele>202.0</ele><time>2026-04-11T14:22:22Z</time></trkpt><trkpt lat="46.17163515216305" lon="9.428667541616745"><ele>202.0</ele><time>2026-04-11T14:22:23Z</time></trkpt><trkpt lat="46.17164190188402" lon="9.428427542176044"><ele>202.0</ele><time>2026-04-11T14:22:24Z</time></trkpt><trkpt lat="46.17164959793917" lon="9.428177262054824"><ele>201.66666666666666</ele><time>2026-04-11T14:22:25Z</time></trkpt><trkpt lat="46.17165765757708" lon="9.427924748969744"><ele>201.33333333333331</ele><time>2026-04-11T14:22:26Z</time></trkpt><trkpt lat="46.171666005189856" lon="9.42766689110544"><ele>201.0</ele><time>2026-04-11T14:22:27Z</time></trkpt><trkpt lat="46.17167677651417" lon="9.42740738171081"><ele>201.0</ele><time>2026-04-11T14:22:28Z</time></trkpt><trkpt lat="46.17168939926244" lon="9.427141982134762"><ele>201.0</ele><time>2026-04-11T14:22:29Z</time></trkpt><trkpt lat="46.17169960685396" lon="9.426873563509956"><ele>201.0</ele><time>2026-04-11T14:22:30Z</time></trkpt><trkpt lat="46.17170303250082" lon="9.426593179188803"><ele>200.33333333333331</ele><time>2026-04-11T14:22:31Z</time></trkpt><trkpt lat="46.171700889433836" lon="9.42630240748825"><ele>199.66666666666666</ele><time>2026-04-11T14:22:32Z</time></trkpt><trkpt lat="46.1717078502716" lon="9.42598894096209"><ele>199.0</ele><time>2026-04-11T14:22:33Z</time></trkpt><trkpt lat="46.171721452812136" lon="9.42565815474867"><ele>199.0</ele><time>2026-04-11T14:22:34Z</time></trkpt><trkpt lat="46.17174189470192" lon="9.425316797968621"><ele>199.0</ele><time>2026-04-11T14:22:35Z</time></trkpt><trkpt lat="46.17175989393824" lon="9.424964132160088"><ele>199.5</ele><time>2026-04-11T14:22:36Z</time></trkpt><trkpt lat="46.17177297324015" lon="9.42460717440468"><ele>200.0</ele><time>2026-04-11T14:22:37Z</time></trkpt><trkpt lat="46.17178379242613" lon="9.424249768621658"><ele>200.0</ele><time>2026-04-11T14:22:38Z</time></trkpt><trkpt lat="46.171794635521515" lon="9.423895998772737"><ele>200.0</ele><time>2026-04-11T14:22:39Z</time></trkpt><trkpt lat="46.17180630698397" lon="9.423541966911207"><ele>200.0</ele><time>2026-04-11T14:22:40Z</time></trkpt><trkpt lat="46.171819199908256" lon="9.423189989958255"><ele>200.0</ele><time>2026-04-11T14:22:41Z</time></trkpt><trkpt lat="46.17183069718581" lon="9.422835487237672"><ele>200.0</ele><time>2026-04-11T14:22:42Z</time></trkpt><trkpt lat="46.171841975717754" lon="9.422483914630774"><ele>200.0</ele><time>2026-04-11T14:22:43Z</time></trkpt><trkpt lat="46.17185333076117" lon="9.42212968800597"><ele>200.5</ele><time>2026-04-11T14:22:44Z</time></trkpt><trkpt lat="46.1718655580759" lon="9.421776500855929"><ele>201.0</ele><time>2026-04-11T14:22:45Z</time></trkpt><trkpt lat="46.171876898983406" lon="9.421425530282098"><ele>200.5</ele><time>2026-04-11T14:22:46Z</time></trkpt><trkpt lat="46.17188727126911" lon="9.421078029416815"><ele>200.0</ele><time>2026-04-11T14:22:47Z</time></trkpt><trkpt lat="46.17191463724392" lon="9.420730498051578"><ele>199.0</ele><time>2026-04-11T14:22:48Z</time></trkpt><trkpt lat="46.171909646146176" lon="9.420381331593541"><ele>198.0</ele><time>2026-04-11T14:22:49Z</time></trkpt><trkpt lat="46.17192395848994" lon="9.420032222557785"><ele>198.0</ele><time>2026-04-11T14:22:50Z</time></trkpt><trkpt lat="46.171936268999325" lon="9.41968087737062"><ele>198.0</ele><time>2026-04-11T14:22:51Z</time></trkpt><trkpt lat="46.17194671501572" lon="9.419331339953175"><ele>199.5</ele><time>2026-04-11T14:22:52Z</time></trkpt><trkpt lat="46.17195870039515" lon="9.41898641524634"><ele>201.0</ele><time>2026-04-11T14:22:53Z</time></trkpt><trkpt lat="46.171972172304585" lon="9.418639873537646"><ele>201.0</ele><time>2026-04-11T14:22:54Z</time></trkpt><trkpt lat="46.171983989786966" lon="9.418289819207462"><ele>201.0</ele><time>2026-04-11T14:22:55Z</time></trkpt><trkpt lat="46.17201110641926" lon="9.417936997693635"><ele>200.0</ele><time>2026-04-11T14:22:56Z</time></trkpt><trkpt lat="46.17202320475982" lon="9.417581293543432"><ele>199.0</ele><time>2026-04-11T14:22:57Z</time></trkpt><trkpt lat="46.172035018345056" lon="9.417221171033866"><ele>199.5</ele><time>2026-04-11T14:22:58Z</time></trkpt><trkpt lat="46.17204667537944" lon="9.416860021359879"><ele>200.0</ele><time>2026-04-11T14:22:59Z</time></trkpt><trkpt lat="46.172059114957094" lon="9.416503224110224"><ele>200.0</ele><time>2026-04-11T14:23:00Z</time></trkpt><trkpt lat="46.172071645574206" lon="9.416147909770526"><ele>200.0</ele><time>2026-04-11T14:23:01Z</time></trkpt><trkpt lat="46.17208326103138" lon="9.41579178761919"><ele>200.0</ele><time>2026-04-11T14:23:02Z</time></trkpt><trkpt lat="46.17207918069364" lon="9.415434072273328"><ele>200.0</ele><time>2026-04-11T14:23:03Z</time></trkpt><trkpt lat="46.172090606700685" lon="9.415074799019168"><ele>200.0</ele><time>2026-04-11T14:23:04Z</time></trkpt><trkpt lat="46.172120619328155" lon="9.414714831549324"><ele>200.0</ele><time>2026-04-11T14:23:05Z</time></trkpt><trkpt lat="46.172118806807454" lon="9.4143528057423"><ele>200.5</ele><time>2026-04-11T14:23:06Z</time></trkpt><trkpt lat="46.172133754121" lon="9.41399472070862"><ele>201.0</ele><time>2026-04-11T14:23:07Z</time></trkpt><trkpt lat="46.17214843154007" lon="9.413635932291992"><ele>201.0</ele><time>2026-04-11T14:23:08Z</time></trkpt><trkpt lat="46.172159980679446" lon="9.413276264417048"><ele>201.0</ele><time>2026-04-11T14:23:09Z</time></trkpt><trkpt lat="46.17217105035072" lon="9.412915071300755"><ele>201.5</ele><time>2026-04-11T14:23:10Z</time></trkpt><trkpt lat="46.17218024124287" lon="9.412552300472504"><ele>202.0</ele><time>2026-04-11T14:23:11Z</time></trkpt><trkpt lat="46.172208384444104" lon="9.412190978365622"><ele>202.0</ele><time>2026-04-11T14:23:12Z</time></trkpt><trkpt lat="46.172219858637575" lon="9.411827568955703"><ele>202.0</ele><time>2026-04-11T14:23:13Z</time></trkpt><trkpt lat="46.17223176236036" lon="9.411474754117185"><ele>202.0</ele><time>2026-04-11T14:23:14Z</time></trkpt><trkpt lat="46.17222819095872" lon="9.41114523852912"><ele>202.0</ele><time>2026-04-11T14:23:15Z</time></trkpt><trkpt lat="46.172239712355186" lon="9.410834519980508"><ele>202.0</ele><time>2026-04-11T14:23:16Z</time></trkpt><trkpt lat="46.17225067073205" lon="9.410530790248583"><ele>201.66666666666666</ele><time>2026-04-11T14:23:17Z</time></trkpt><trkpt lat="46.172264160069126" lon="9.410228786744701"><ele>201.33333333333331</ele><time>2026-04-11T14:23:18Z</time></trkpt><trkpt lat="46.17227416352938" lon="9.40994254386975"><ele>201.0</ele><time>2026-04-11T14:23:19Z</time></trkpt><trkpt lat="46.17227483236435" lon="9.409668110248333"><ele>201.0</ele><time>2026-04-11T14:23:20Z</time></trkpt><trkpt lat="46.17229905097137" lon="9.409401540848146"><ele>201.0</ele><time>2026-04-11T14:23:21Z</time></trkpt><trkpt lat="46.172306645431014" lon="9.409133616035446"><ele>201.0</ele><time>2026-04-11T14:23:22Z</time></trkpt><trkpt lat="46.172313759109194" lon="9.408878801366189"><ele>201.33333333333331</ele><time>2026-04-11T14:23:23Z</time></trkpt><trkpt lat="46.17232128094249" lon="9.408615059614707"><ele>201.66666666666666</ele><time>2026-04-11T14:23:24Z</time></trkpt><trkpt lat="46.17232879643955" lon="9.408342738765905"><ele>202.0</ele><time>2026-04-11T14:23:25Z</time></trkpt><trkpt lat="46.172321708632886" lon="9.408070751930648"><ele>201.33333333333331</ele><time>2026-04-11T14:23:26Z</time></trkpt><trkpt lat="46.17233128401341" lon="9.4077932385118"><ele>200.66666666666669</ele><time>2026-04-11T14:23:27Z</time></trkpt><trkpt lat="46.17233801655142" lon="9.407524428957439"><ele>200.0</ele><time>2026-04-11T14:23:28Z</time></trkpt><trkpt lat="46.172346024690206" lon="9.407265570345848"><ele>201.0</ele><time>2026-04-11T14:23:29Z</time></trkpt><trkpt lat="46.172352043483755" lon="9.407011726722228"><ele>202.0</ele><time>2026-04-11T14:23:30Z</time></trkpt><trkpt lat="46.17235701957291" lon="9.406758793591571"><ele>203.0</ele><time>2026-04-11T14:23:31Z</time></trkpt><trkpt lat="46.172352139854205" lon="9.406506602938588"><ele>203.25</ele><time>2026-04-11T14:23:32Z</time></trkpt><trkpt lat="46.17232556892385" lon="9.406273524588453"><ele>203.5</ele><time>2026-04-11T14:23:33Z</time></trkpt><trkpt lat="46.17229708603916" lon="9.406065521170662"><ele>203.75</ele><time>2026-04-11T14:23:34Z</time></trkpt><trkpt lat="46.17224846523594" lon="9.40588535385315"><ele>204.0</ele><time>2026-04-11T14:23:35Z</time></trkpt><trkpt lat="46.17219090813945" lon="9.40573635739538"><ele>204.0</ele><time>2026-04-11T14:23:36Z</time></trkpt><trkpt lat="46.17214400923954" lon="9.405573963259323"><ele>204.0</ele><time>2026-04-11T14:23:37Z</time></trkpt><trkpt lat="46.17207020131012" lon="9.405448334474064"><ele>204.0</ele><time>2026-04-11T14:23:38Z</time></trkpt><trkpt lat="46.172010629360614" lon="9.40532403591584"><ele>204.0</ele><time>2026-04-11T14:23:39Z</time></trkpt><trkpt lat="46.17195294338469" lon="9.40521480608929"><ele>204.0</ele><time>2026-04-11T14:23:40Z</time></trkpt><trkpt lat="46.1719048003445" lon="9.405121024789489"><ele>203.75</ele><time>2026-04-11T14:23:41Z</time></trkpt><trkpt lat="46.17186898001579" lon="9.405043624482296"><ele>203.5</ele><time>2026-04-11T14:23:42Z</time></trkpt><trkpt lat="46.17181143962271" lon="9.404916860123041"><ele>203.25</ele><time>2026-04-11T14:23:44Z</time></trkpt><trkpt lat="46.17178137162332" lon="9.404785800006762"><ele>203.0</ele><time>2026-04-11T14:23:53Z</time></trkpt><trkpt lat="46.17190906149243" lon="9.404513703091203"><ele>203.0</ele><time>2026-04-11T14:23:55Z</time></trkpt><trkpt lat="46.17201514474542" lon="9.404408197851485"><ele>203.0</ele><time>2026-04-11T14:23:56Z</time></trkpt><trkpt lat="46.17213380330865" lon="9.404332141065131"><ele>203.0</ele><time>2026-04-11T14:23:57Z</time></trkpt><trkpt lat="46.17226356482977" lon="9.404281403667165"><ele>203.0</ele><time>2026-04-11T14:23:58Z</time></trkpt><trkpt lat="46.17239004838808" lon="9.404202879067956"><ele>201.8</ele><time>2026-04-11T14:23:59Z</time></trkpt><trkpt lat="46.172499965918576" lon="9.404138444251364"><ele>200.60000000000002</ele><time>2026-04-11T14:24:00Z</time></trkpt><trkpt lat="46.172596963197634" lon="9.404070009650308"><ele>199.39999999999998</ele><time>2026-04-11T14:24:01Z</time></trkpt><trkpt lat="46.17269191150559" lon="9.404006880236828"><ele>198.2</ele><time>2026-04-11T14:24:02Z</time></trkpt><trkpt lat="46.17278672717219" lon="9.40395258271283"><ele>197.0</ele><time>2026-04-11T14:24:03Z</time></trkpt><trkpt lat="46.1728856846932" lon="9.4038823061579"><ele>198.6</ele><time>2026-04-11T14:24:04Z</time></trkpt><trkpt lat="46.172971305172496" lon="9.40382493068158"><ele>200.2</ele><time>2026-04-11T14:24:05Z</time></trkpt><trkpt lat="46.17304990013088" lon="9.403772216123265"><ele>201.8</ele><time>2026-04-11T14:24:06Z</time></trkpt><trkpt lat="46.17313306022149" lon="9.403710235566084"><ele>203.4</ele><time>2026-04-11T14:24:07Z</time></trkpt><trkpt lat="46.173209953995155" lon="9.40361850002486"><ele>205.0</ele><time>2026-04-11T14:24:08Z</time></trkpt><trkpt lat="46.17326639703617" lon="9.403501869698818"><ele>206.6</ele><time>2026-04-11T14:24:09Z</time></trkpt><trkpt lat="46.173297229632176" lon="9.40337488694765"><ele>208.2</ele><time>2026-04-11T14:24:10Z</time></trkpt><trkpt lat="46.173287867311856" lon="9.403265545293559"><ele>209.8</ele><time>2026-04-11T14:24:12Z</time></trkpt><trkpt lat="46.17327825491271" lon="9.403099581652862"><ele>211.4</ele><time>2026-04-11T14:24:15Z</time></trkpt><trkpt lat="46.173251736148124" lon="9.402977974821756"><ele>213.0</ele><time>2026-04-11T14:24:16Z</time></trkpt><trkpt lat="46.17321179340826" lon="9.402851762957205"><ele>212.5</ele><time>2026-04-11T14:24:17Z</time></trkpt><trkpt lat="46.173159720706536" lon="9.402720010046933"><ele>212.0</ele><time>2026-04-11T14:24:18Z</time></trkpt><trkpt lat="46.17310557978905" lon="9.402574741527177"><ele>211.5</ele><time>2026-04-11T14:24:19Z</time></trkpt><trkpt lat="46.17304646917977" lon="9.402415136587877"><ele>211.0</ele><time>2026-04-11T14:24:20Z</time></trkpt><trkpt lat="46.17298066501223" lon="9.402253530135471"><ele>210.25</ele><time>2026-04-11T14:24:21Z</time></trkpt><trkpt lat="46.17290491383842" lon="9.402091731287008"><ele>209.5</ele><time>2026-04-11T14:24:22Z</time></trkpt><trkpt lat="46.17281701290244" lon="9.401946336010699"><ele>208.75</ele><time>2026-04-11T14:24:23Z</time></trkpt><trkpt lat="46.17272509249801" lon="9.401798590506843"><ele>208.0</ele><time>2026-04-11T14:24:24Z</time></trkpt><trkpt lat="46.172637441174984" lon="9.401642650461321"><ele>208.0</ele><time>2026-04-11T14:24:25Z</time></trkpt><trkpt lat="46.17254624058702" lon="9.401482352130454"><ele>208.0</ele><time>2026-04-11T14:24:26Z</time></trkpt><trkpt lat="46.17245439160274" lon="9.401314561620529"><ele>208.0</ele><time>2026-04-11T14:24:27Z</time></trkpt><trkpt lat="46.1723668844786" lon="9.401154026368248"><ele>208.0</ele><time>2026-04-11T14:24:28Z</time></trkpt><trkpt lat="46.17229468761146" lon="9.400997289606126"><ele>206.75</ele><time>2026-04-11T14:24:29Z</time></trkpt><trkpt lat="46.172238868479305" lon="9.400830119878398"><ele>205.5</ele><time>2026-04-11T14:24:30Z</time></trkpt><trkpt lat="46.17220661850567" lon="9.400632873507123"><ele>204.25</ele><time>2026-04-11T14:24:31Z</time></trkpt><trkpt lat="46.17221091055705" lon="9.400408282090467"><ele>203.0</ele><time>2026-04-11T14:24:32Z</time></trkpt><trkpt lat="46.17224015659831" lon="9.400174758601564"><ele>203.0</ele><time>2026-04-11T14:24:33Z</time></trkpt><trkpt lat="46.172275562919175" lon="9.399920666954154"><ele>203.0</ele><time>2026-04-11T14:24:34Z</time></trkpt><trkpt lat="46.172275091482376" lon="9.399661617027688"><ele>203.0</ele><time>2026-04-11T14:24:35Z</time></trkpt><trkpt lat="46.172261037889015" lon="9.399401358666006"><ele>203.0</ele><time>2026-04-11T14:24:36Z</time></trkpt><trkpt lat="46.17226124352827" lon="9.399147596589025"><ele>203.0</ele><time>2026-04-11T14:24:37Z</time></trkpt><trkpt lat="46.17227877682006" lon="9.398892287583841"><ele>203.0</ele><time>2026-04-11T14:24:38Z</time></trkpt><trkpt lat="46.17229928822793" lon="9.39863277872672"><ele>203.0</ele><time>2026-04-11T14:24:39Z</time></trkpt><trkpt lat="46.17229795971685" lon="9.398376533235705"><ele>203.0</ele><time>2026-04-11T14:24:40Z</time></trkpt><trkpt lat="46.17226798156095" lon="9.398136253918052"><ele>203.0</ele><time>2026-04-11T14:24:41Z</time></trkpt><trkpt lat="46.17221732711686" lon="9.397915859724018"><ele>204.0</ele><time>2026-04-11T14:24:42Z</time></trkpt><trkpt lat="46.172152689517574" lon="9.397698744004341"><ele>205.0</ele><time>2026-04-11T14:24:43Z</time></trkpt><trkpt lat="46.17209288477124" lon="9.397468323533637"><ele>206.0</ele><time>2026-04-11T14:24:44Z</time></trkpt><trkpt lat="46.17203130238027" lon="9.397229737177994"><ele>207.0</ele><time>2026-04-11T14:24:45Z</time></trkpt><trkpt lat="46.17197180966786" lon="9.396993810914024"><ele>208.0</ele><time>2026-04-11T14:24:46Z</time></trkpt><trkpt lat="46.17191869549676" lon="9.396774887380317"><ele>209.0</ele><time>2026-04-11T14:24:47Z</time></trkpt><trkpt lat="46.171885391322746" lon="9.396557420913025"><ele>209.0</ele><time>2026-04-11T14:24:48Z</time></trkpt><trkpt lat="46.171894866779695" lon="9.39633817373427"><ele>209.0</ele><time>2026-04-11T14:24:49Z</time></trkpt><trkpt lat="46.17191547217345" lon="9.396110916688434"><ele>209.0</ele><time>2026-04-11T14:24:50Z</time></trkpt><trkpt lat="46.17193042942022" lon="9.395864349583205"><ele>209.66666666666669</ele><time>2026-04-11T14:24:51Z</time></trkpt><trkpt lat="46.171957599935155" lon="9.395614960021613"><ele>210.33333333333331</ele><time>2026-04-11T14:24:52Z</time></trkpt><trkpt lat="46.17198202964817" lon="9.395358560106612"><ele>211.0</ele><time>2026-04-11T14:24:53Z</time></trkpt><trkpt lat="46.1720055900278" lon="9.395110824437312"><ele>208.66666666666666</ele><time>2026-04-11T14:24:54Z</time></trkpt><trkpt lat="46.172028335094765" lon="9.394863477582863"><ele>206.33333333333331</ele><time>2026-04-11T14:24:55Z</time></trkpt><trkpt lat="46.1720496951205" lon="9.394613271055462"><ele>204.0</ele><time>2026-04-11T14:24:56Z</time></trkpt><trkpt lat="46.1720727482819" lon="9.394361695211991"><ele>203.66666666666669</ele><time>2026-04-11T14:24:57Z</time></trkpt><trkpt lat="46.17209537363087" lon="9.394116096067748"><ele>203.33333333333334</ele><time>2026-04-11T14:24:58Z</time></trkpt><trkpt lat="46.17211840679676" lon="9.39388147290325"><ele>203.0</ele><time>2026-04-11T14:24:59Z</time></trkpt><trkpt lat="46.172142028775156" lon="9.393651732073188"><ele>203.0</ele><time>2026-04-11T14:25:00Z</time></trkpt><trkpt lat="46.17216388981308" lon="9.39341943882706"><ele>203.0</ele><time>2026-04-11T14:25:01Z</time></trkpt><trkpt lat="46.17218025691169" lon="9.393178447497297"><ele>203.0</ele><time>2026-04-11T14:25:02Z</time></trkpt><trkpt lat="46.172192718586984" lon="9.39293757412033"><ele>203.33333333333334</ele><time>2026-04-11T14:25:03Z</time></trkpt><trkpt lat="46.172189423693624" lon="9.392689856635393"><ele>203.66666666666669</ele><time>2026-04-11T14:25:04Z</time></trkpt><trkpt lat="46.17217341970998" lon="9.392448888557132"><ele>204.0</ele><time>2026-04-11T14:25:05Z</time></trkpt><trkpt lat="46.17216422643699" lon="9.392213081369873"><ele>204.0</ele><time>2026-04-11T14:25:06Z</time></trkpt><trkpt lat="46.17217641183572" lon="9.391977284199035"><ele>204.0</ele><time>2026-04-11T14:25:07Z</time></trkpt><trkpt lat="46.172221510141185" lon="9.391741821911769"><ele>204.0</ele><time>2026-04-11T14:25:08Z</time></trkpt><trkpt lat="46.17225799290854" lon="9.3915194044012"><ele>203.66666666666669</ele><time>2026-04-11T14:25:09Z</time></trkpt><trkpt lat="46.17228186065085" lon="9.391298406604822"><ele>203.33333333333334</ele><time>2026-04-11T14:25:10Z</time></trkpt><trkpt lat="46.17232302929008" lon="9.391062785622639"><ele>203.0</ele><time>2026-04-11T14:25:11Z</time></trkpt><trkpt lat="46.17235792617344" lon="9.390821161513967"><ele>207.33333333333334</ele><time>2026-04-11T14:25:12Z</time></trkpt><trkpt lat="46.17239995703338" lon="9.390571501094024"><ele>211.66666666666669</ele><time>2026-04-11T14:25:13Z</time></trkpt><trkpt lat="46.172419440617" lon="9.390299527739986"><ele>216.0</ele><time>2026-04-11T14:25:14Z</time></trkpt><trkpt lat="46.17243959059321" lon="9.390010809764764"><ele>216.0</ele><time>2026-04-11T14:25:15Z</time></trkpt><trkpt lat="46.172442851894836" lon="9.389712312561675"><ele>216.0</ele><time>2026-04-11T14:25:16Z</time></trkpt><trkpt lat="46.172461002580455" lon="9.38942464063056"><ele>216.0</ele><time>2026-04-11T14:25:17Z</time></trkpt><trkpt lat="46.17248018456763" lon="9.389160581810682"><ele>212.66666666666669</ele><time>2026-04-11T14:25:18Z</time></trkpt><trkpt lat="46.17252566569537" lon="9.388919369737701"><ele>209.33333333333334</ele><time>2026-04-11T14:25:19Z</time></trkpt><trkpt lat="46.17257994577964" lon="9.388692266272106"><ele>206.0</ele><time>2026-04-11T14:25:20Z</time></trkpt><trkpt lat="46.17262678808643" lon="9.388470089271731"><ele>205.66666666666669</ele><time>2026-04-11T14:25:21Z</time></trkpt><trkpt lat="46.172685491775695" lon="9.388260857481482"><ele>205.33333333333331</ele><time>2026-04-11T14:25:22Z</time></trkpt><trkpt lat="46.17274299592553" lon="9.38805728387142"><ele>205.0</ele><time>2026-04-11T14:25:23Z</time></trkpt><trkpt lat="46.17279471135234" lon="9.387853543529152"><ele>205.0</ele><time>2026-04-11T14:25:24Z</time></trkpt><trkpt lat="46.1728665554915" lon="9.387647593322123"><ele>205.0</ele><time>2026-04-11T14:25:25Z</time></trkpt><trkpt lat="46.172926881683914" lon="9.38742709729121"><ele>205.0</ele><time>2026-04-11T14:25:26Z</time></trkpt><trkpt lat="46.17298576311132" lon="9.387208746285255"><ele>204.25</ele><time>2026-04-11T14:25:27Z</time></trkpt><trkpt lat="46.17304045407255" lon="9.387005263962113"><ele>203.5</ele><time>2026-04-11T14:25:28Z</time></trkpt><trkpt lat="46.173092886874784" lon="9.386810183719524"><ele>202.75</ele><time>2026-04-11T14:25:29Z</time></trkpt><trkpt lat="46.173142789688235" lon="9.386624998605246"><ele>202.0</ele><time>2026-04-11T14:25:30Z</time></trkpt><trkpt lat="46.1731943825747" lon="9.38643783430248"><ele>204.66666666666666</ele><time>2026-04-11T14:25:31Z</time></trkpt><trkpt lat="46.173249163916545" lon="9.386239103293484"><ele>207.33333333333331</ele><time>2026-04-11T14:25:32Z</time></trkpt><trkpt lat="46.17330519790345" lon="9.386032534680782"><ele>210.0</ele><time>2026-04-11T14:25:33Z</time></trkpt><trkpt lat="46.17335990310723" lon="9.38582558773457"><ele>210.0</ele><time>2026-04-11T14:25:34Z</time></trkpt><trkpt lat="46.17341282380063" lon="9.385620565093042"><ele>210.0</ele><time>2026-04-11T14:25:35Z</time></trkpt><trkpt lat="46.17344977690657" lon="9.385411429400047"><ele>210.0</ele><time>2026-04-11T14:25:36Z</time></trkpt><trkpt lat="46.17350369569462" lon="9.3852159838218"><ele>210.0</ele><time>2026-04-11T14:25:37Z</time></trkpt><trkpt lat="46.173561876188614" lon="9.38501509290969"><ele>210.5</ele><time>2026-04-11T14:25:38Z</time></trkpt><trkpt lat="46.17361368471059" lon="9.38480758131797"><ele>211.0</ele><time>2026-04-11T14:25:39Z</time></trkpt><trkpt lat="46.17365585349328" lon="9.384604267880745"><ele>211.5</ele><time>2026-04-11T14:25:40Z</time></trkpt><trkpt lat="46.17368729184605" lon="9.384406829513717"><ele>212.0</ele><time>2026-04-11T14:25:41Z</time></trkpt><trkpt lat="46.17371292501414" lon="9.384221439936567"><ele>212.0</ele><time>2026-04-11T14:25:42Z</time></trkpt><trkpt lat="46.17373581516808" lon="9.384041288031291"><ele>212.0</ele><time>2026-04-11T14:25:43Z</time></trkpt><trkpt lat="46.1737735698789" lon="9.383865122750251"><ele>212.0</ele><time>2026-04-11T14:25:44Z</time></trkpt><trkpt lat="46.173775993827306" lon="9.383687673905083"><ele>212.0</ele><time>2026-04-11T14:25:45Z</time></trkpt><trkpt lat="46.173768196391855" lon="9.383512323266018"><ele>212.0</ele><time>2026-04-11T14:25:46Z</time></trkpt><trkpt lat="46.17372558006519" lon="9.383337555667563"><ele>212.0</ele><time>2026-04-11T14:25:47Z</time></trkpt><trkpt lat="46.1736658602492" lon="9.383175099878203"><ele>212.0</ele><time>2026-04-11T14:25:48Z</time></trkpt><trkpt lat="46.17361202803927" lon="9.383032655080601"><ele>212.0</ele><time>2026-04-11T14:25:49Z</time></trkpt><trkpt lat="46.173566111037864" lon="9.382896837658864"><ele>212.0</ele><time>2026-04-11T14:25:50Z</time></trkpt><trkpt lat="46.173512733471235" lon="9.3827512706928"><ele>212.0</ele><time>2026-04-11T14:25:51Z</time></trkpt><trkpt lat="46.17344981664303" lon="9.382607512502446"><ele>212.0</ele><time>2026-04-11T14:25:52Z</time></trkpt><trkpt lat="46.17337915369716" lon="9.382468471601836"><ele>212.0</ele><time>2026-04-11T14:25:53Z</time></trkpt><trkpt lat="46.17330246556785" lon="9.382331882655102"><ele>212.0</ele><time>2026-04-11T14:25:54Z</time></trkpt><trkpt lat="46.17322353941601" lon="9.38218740704508"><ele>212.0</ele><time>2026-04-11T14:25:55Z</time></trkpt><trkpt lat="46.17314540960282" lon="9.38204185591454"><ele>212.0</ele><time>2026-04-11T14:25:56Z</time></trkpt><trkpt lat="46.17306238467749" lon="9.381899561013062"><ele>212.0</ele><time>2026-04-11T14:25:57Z</time></trkpt><trkpt lat="46.17298370608714" lon="9.381754782499188"><ele>210.0</ele><time>2026-04-11T14:25:58Z</time></trkpt><trkpt lat="46.17290662475471" lon="9.381612352639397"><ele>208.0</ele><time>2026-04-11T14:25:59Z</time></trkpt><trkpt lat="46.17282930569442" lon="9.381475885798775"><ele>206.0</ele><time>2026-04-11T14:26:00Z</time></trkpt><trkpt lat="46.1727552281537" lon="9.381341119322814"><ele>204.0</ele><time>2026-04-11T14:26:01Z</time></trkpt><trkpt lat="46.172692511121205" lon="9.3812002931204"><ele>204.0</ele><time>2026-04-11T14:26:02Z</time></trkpt><trkpt lat="46.17262351148071" lon="9.381079102995137"><ele>204.0</ele><time>2026-04-11T14:26:03Z</time></trkpt><trkpt lat="46.17254494890002" lon="9.380977474328521"><ele>204.0</ele><time>2026-04-11T14:26:04Z</time></trkpt><trkpt lat="46.17249254480137" lon="9.380841255824041"><ele>204.0</ele><time>2026-04-11T14:26:05Z</time></trkpt><trkpt lat="46.17242594071785" lon="9.380708942813923"><ele>204.0</ele><time>2026-04-11T14:26:06Z</time></trkpt><trkpt lat="46.1723707608455" lon="9.38057336475428"><ele>204.25</ele><time>2026-04-11T14:26:07Z</time></trkpt><trkpt lat="46.17233640384965" lon="9.380430825786782"><ele>204.5</ele><time>2026-04-11T14:26:08Z</time></trkpt><trkpt lat="46.17231414754122" lon="9.38026852152599"><ele>204.75</ele><time>2026-04-11T14:26:09Z</time></trkpt><trkpt lat="46.172293928077956" lon="9.380104185299745"><ele>205.0</ele><time>2026-04-11T14:26:10Z</time></trkpt><trkpt lat="46.172271461116466" lon="9.379921474786183"><ele>205.0</ele><time>2026-04-11T14:26:11Z</time></trkpt><trkpt lat="46.17224569812252" lon="9.37969876380463"><ele>205.0</ele><time>2026-04-11T14:26:12Z</time></trkpt><trkpt lat="46.17221797931248" lon="9.379459297538034"><ele>205.0</ele><time>2026-04-11T14:26:13Z</time></trkpt><trkpt lat="46.172180703872435" lon="9.379211113987168"><ele>205.0</ele><time>2026-04-11T14:26:14Z</time></trkpt><trkpt lat="46.17215725823972" lon="9.378969088786295"><ele>205.0</ele><time>2026-04-11T14:26:15Z</time></trkpt><trkpt lat="46.17213139279057" lon="9.378743200317373"><ele>205.0</ele><time>2026-04-11T14:26:16Z</time></trkpt><trkpt lat="46.17210240806905" lon="9.378520719354272"><ele>205.0</ele><time>2026-04-11T14:26:17Z</time></trkpt><trkpt lat="46.172079220325124" lon="9.37831140128393"><ele>205.0</ele><time>2026-04-11T14:26:18Z</time></trkpt><trkpt lat="46.17205583114475" lon="9.378099282802031"><ele>205.0</ele><time>2026-04-11T14:26:19Z</time></trkpt><trkpt lat="46.17202611387044" lon="9.377874379137467"><ele>204.66666666666666</ele><time>2026-04-11T14:26:20Z</time></trkpt><trkpt lat="46.17200291712993" lon="9.37764233735352"><ele>204.33333333333331</ele><time>2026-04-11T14:26:21Z</time></trkpt><trkpt lat="46.17199281016009" lon="9.377414110090163"><ele>204.0</ele><time>2026-04-11T14:26:22Z</time></trkpt><trkpt lat="46.172007326686725" lon="9.37718704736373"><ele>203.66666666666669</ele><time>2026-04-11T14:26:23Z</time></trkpt><trkpt lat="46.172050359780606" lon="9.37696318233963"><ele>203.33333333333334</ele><time>2026-04-11T14:26:24Z</time></trkpt><trkpt lat="46.172111735030846" lon="9.376740461688927"><ele>203.0</ele><time>2026-04-11T14:26:25Z</time></trkpt><trkpt lat="46.1721650771527" lon="9.376523640259277"><ele>202.75</ele><time>2026-04-11T14:26:26Z</time></trkpt><trkpt lat="46.17221465250791" lon="9.376320002623947"><ele>202.5</ele><time>2026-04-11T14:26:27Z</time></trkpt><trkpt lat="46.17226126159048" lon="9.376125370833147"><ele>202.25</ele><time>2026-04-11T14:26:28Z</time></trkpt><trkpt lat="46.17230611104807" lon="9.375942785351736"><ele>202.0</ele><time>2026-04-11T14:26:29Z</time></trkpt><trkpt lat="46.17235057469905" lon="9.375767702872704"><ele>204.5</ele><time>2026-04-11T14:26:30Z</time></trkpt><trkpt lat="46.172390669022214" lon="9.37559382428735"><ele>207.0</ele><time>2026-04-11T14:26:31Z</time></trkpt><trkpt lat="46.17241334596244" lon="9.375413586306328"><ele>209.5</ele><time>2026-04-11T14:26:32Z</time></trkpt><trkpt lat="46.17241318292246" lon="9.375228851270547"><ele>212.0</ele><time>2026-04-11T14:26:33Z</time></trkpt><trkpt lat="46.17238803659643" lon="9.375048108254795"><ele>213.8</ele><time>2026-04-11T14:26:34Z</time></trkpt><trkpt lat="46.17236947381182" lon="9.374882887095247"><ele>215.6</ele><time>2026-04-11T14:26:35Z</time></trkpt><trkpt lat="46.17235353594974" lon="9.374720230382673"><ele>217.40000000000003</ele><time>2026-04-11T14:26:36Z</time></trkpt><trkpt lat="46.17232913446083" lon="9.37456862672191"><ele>219.20000000000002</ele><time>2026-04-11T14:26:37Z</time></trkpt><trkpt lat="46.17230689648669" lon="9.374410419695431"><ele>221.0</ele><time>2026-04-11T14:26:38Z</time></trkpt><trkpt lat="46.17227252961039" lon="9.374243116382715"><ele>217.0</ele><time>2026-04-11T14:26:39Z</time></trkpt><trkpt lat="46.172231082077225" lon="9.37406951716241"><ele>213.0</ele><time>2026-04-11T14:26:40Z</time></trkpt><trkpt lat="46.17220951421396" lon="9.373882053606062"><ele>209.0</ele><time>2026-04-11T14:26:41Z</time></trkpt><trkpt lat="46.17220935967548" lon="9.37368458146541"><ele>205.0</ele><time>2026-04-11T14:26:42Z</time></trkpt><trkpt lat="46.17220229578775" lon="9.373502183936358"><ele>205.0</ele><time>2026-04-11T14:26:43Z</time></trkpt><trkpt lat="46.17219608413621" lon="9.37333881431767"><ele>205.0</ele><time>2026-04-11T14:26:44Z</time></trkpt><trkpt lat="46.172182999007305" lon="9.373180483336748"><ele>205.0</ele><time>2026-04-11T14:26:45Z</time></trkpt><trkpt lat="46.17215860444351" lon="9.373021859346647"><ele>205.0</ele><time>2026-04-11T14:26:46Z</time></trkpt><trkpt lat="46.172122834768665" lon="9.37285964684737"><ele>205.0</ele><time>2026-04-11T14:26:47Z</time></trkpt><trkpt lat="46.17206316002236" lon="9.372707345269015"><ele>205.0</ele><time>2026-04-11T14:26:48Z</time></trkpt><trkpt lat="46.17199044502293" lon="9.372566328677587"><ele>205.0</ele><time>2026-04-11T14:26:49Z</time></trkpt><trkpt lat="46.17190691300188" lon="9.372442534893642"><ele>205.0</ele><time>2026-04-11T14:26:50Z</time></trkpt><trkpt lat="46.17181317742176" lon="9.37234325664151"><ele>205.0</ele><time>2026-04-11T14:26:51Z</time></trkpt><trkpt lat="46.17171393078476" lon="9.372261345247715"><ele>205.0</ele><time>2026-04-11T14:26:52Z</time></trkpt><trkpt lat="46.17161545367708" lon="9.3721678292018"><ele>205.0</ele><time>2026-04-11T14:26:53Z</time></trkpt><trkpt lat="46.17152283310823" lon="9.372070553234428"><ele>205.0</ele><time>2026-04-11T14:26:54Z</time></trkpt><trkpt lat="46.17142889917682" lon="9.371971859041908"><ele>204.75</ele><time>2026-04-11T14:26:55Z</time></trkpt><trkpt lat="46.17133402813302" lon="9.37186788282999"><ele>204.5</ele><time>2026-04-11T14:26:56Z</time></trkpt><trkpt lat="46.17123708608488" lon="9.37176094483968"><ele>204.25</ele><time>2026-04-11T14:26:57Z</time></trkpt><trkpt lat="46.1711406530311" lon="9.371664234643873"><ele>204.0</ele><time>2026-04-11T14:26:58Z</time></trkpt><trkpt lat="46.17104564903427" lon="9.371568292055969"><ele>204.0</ele><time>2026-04-11T14:26:59Z</time></trkpt><trkpt lat="46.17094176088324" lon="9.371482616119058"><ele>204.0</ele><time>2026-04-11T14:27:00Z</time></trkpt><trkpt lat="46.17082562644791" lon="9.371412852003367"><ele>204.0</ele><time>2026-04-11T14:27:01Z</time></trkpt><trkpt lat="46.17070623759515" lon="9.371364915445415"><ele>204.0</ele><time>2026-04-11T14:27:02Z</time></trkpt><trkpt lat="46.17058812543835" lon="9.371316995727613"><ele>204.6</ele><time>2026-04-11T14:27:03Z</time></trkpt><trkpt lat="46.17047488183888" lon="9.37130825940146"><ele>205.2</ele><time>2026-04-11T14:27:04Z</time></trkpt><trkpt lat="46.17036477027886" lon="9.371295107685565"><ele>205.79999999999998</ele><time>2026-04-11T14:27:05Z</time></trkpt><trkpt lat="46.17026349950658" lon="9.371286206618464"><ele>206.39999999999998</ele><time>2026-04-11T14:27:06Z</time></trkpt><trkpt lat="46.17016176507759" lon="9.371274325645874"><ele>207.0</ele><time>2026-04-11T14:27:07Z</time></trkpt><trkpt lat="46.17005226443555" lon="9.371248300928379"><ele>207.0</ele><time>2026-04-11T14:27:08Z</time></trkpt><trkpt lat="46.16993564233995" lon="9.371203577708652"><ele>207.0</ele><time>2026-04-11T14:27:09Z</time></trkpt><trkpt lat="46.16981306116239" lon="9.371152675021563"><ele>207.0</ele><time>2026-04-11T14:27:10Z</time></trkpt><trkpt lat="46.16972325932161" lon="9.37114724828546"><ele>207.0</ele><time>2026-04-11T14:27:11Z</time></trkpt><trkpt lat="46.169630747140225" lon="9.371115553481834"><ele>207.0</ele><time>2026-04-11T14:27:12Z</time></trkpt><trkpt lat="46.16953935891819" lon="9.371057151448264"><ele>206.8</ele><time>2026-04-11T14:27:13Z</time></trkpt><trkpt lat="46.169445293062864" lon="9.370999293352599"><ele>206.6</ele><time>2026-04-11T14:27:14Z</time></trkpt><trkpt lat="46.16935345174165" lon="9.370929281926625"><ele>206.4</ele><time>2026-04-11T14:27:15Z</time></trkpt><trkpt lat="46.169271771795714" lon="9.370820803373709"><ele>206.20000000000002</ele><time>2026-04-11T14:27:16Z</time></trkpt><trkpt lat="46.16920868731521" lon="9.370675981838517"><ele>206.0</ele><time>2026-04-11T14:27:17Z</time></trkpt><trkpt lat="46.1691471247739" lon="9.370524159570014"><ele>206.0</ele><time>2026-04-11T14:27:18Z</time></trkpt><trkpt lat="46.169093617084904" lon="9.370365641585103"><ele>206.0</ele><time>2026-04-11T14:27:19Z</time></trkpt><trkpt lat="46.16904147292522" lon="9.370204983258013"><ele>206.0</ele><time>2026-04-11T14:27:20Z</time></trkpt><trkpt lat="46.16899264622287" lon="9.370048139777891"><ele>206.0</ele><time>2026-04-11T14:27:21Z</time></trkpt><trkpt lat="46.16894890576565" lon="9.369886119746678"><ele>205.5</ele><time>2026-04-11T14:27:22Z</time></trkpt><trkpt lat="46.1689093789664" lon="9.369721322525118"><ele>205.0</ele><time>2026-04-11T14:27:23Z</time></trkpt><trkpt lat="46.16887637257793" lon="9.369556630237609"><ele>204.5</ele><time>2026-04-11T14:27:24Z</time></trkpt><trkpt lat="46.16885576823172" lon="9.369380180987553"><ele>204.0</ele><time>2026-04-11T14:27:25Z</time></trkpt><trkpt lat="46.16883644869818" lon="9.369205836266273"><ele>204.0</ele><time>2026-04-11T14:27:26Z</time></trkpt><trkpt lat="46.16882518073518" lon="9.369035809418953"><ele>204.0</ele><time>2026-04-11T14:27:27Z</time></trkpt><trkpt lat="46.16881813303595" lon="9.368863650756332"><ele>204.0</ele><time>2026-04-11T14:27:28Z</time></trkpt><trkpt lat="46.16882566382841" lon="9.36868574146281"><ele>204.0</ele><time>2026-04-11T14:27:29Z</time></trkpt><trkpt lat="46.16884433034585" lon="9.368516168486165"><ele>204.0</ele><time>2026-04-11T14:27:30Z</time></trkpt><trkpt lat="46.16888670221837" lon="9.368342603212001"><ele>204.0</ele><time>2026-04-11T14:27:31Z</time></trkpt><trkpt lat="46.16892830881165" lon="9.368172793753764"><ele>204.0</ele><time>2026-04-11T14:27:32Z</time></trkpt><trkpt lat="46.16896840457055" lon="9.368003358527398"><ele>204.0</ele><time>2026-04-11T14:27:33Z</time></trkpt><trkpt lat="46.16900279761174" lon="9.367840613987532"><ele>206.25</ele><time>2026-04-11T14:27:34Z</time></trkpt><trkpt lat="46.16903549846358" lon="9.367671533138093"><ele>208.5</ele><time>2026-04-11T14:27:35Z</time></trkpt><trkpt lat="46.16906967425542" lon="9.367501116693163"><ele>210.75</ele><time>2026-04-11T14:27:36Z</time></trkpt><trkpt lat="46.16910441320009" lon="9.367335427086012"><ele>213.0</ele><time>2026-04-11T14:27:37Z</time></trkpt><trkpt lat="46.169138833957696" lon="9.36716838544154"><ele>213.0</ele><time>2026-04-11T14:27:38Z</time></trkpt><trkpt lat="46.16916990321923" lon="9.367006255709855"><ele>213.0</ele><time>2026-04-11T14:27:39Z</time></trkpt><trkpt lat="46.16920260448945" lon="9.366840693043784"><ele>213.0</ele><time>2026-04-11T14:27:40Z</time></trkpt><trkpt lat="46.16923746487533" lon="9.366678129672199"><ele>213.0</ele><time>2026-04-11T14:27:41Z</time></trkpt><trkpt lat="46.169271118970464" lon="9.366505514795925"><ele>212.25</ele><time>2026-04-11T14:27:42Z</time></trkpt><trkpt lat="46.16930686872191" lon="9.366330147201973"><ele>211.5</ele><time>2026-04-11T14:27:43Z</time></trkpt><trkpt lat="46.16934223614511" lon="9.36614524358553"><ele>210.75</ele><time>2026-04-11T14:27:44Z</time></trkpt><trkpt lat="46.169379794230835" lon="9.365958932146905"><ele>210.0</ele><time>2026-04-11T14:27:45Z</time></trkpt><trkpt lat="46.169422302518" lon="9.365777246664216"><ele>210.0</ele><time>2026-04-11T14:27:46Z</time></trkpt><trkpt lat="46.169459853022474" lon="9.365602062078741"><ele>210.0</ele><time>2026-04-11T14:27:47Z</time></trkpt><trkpt lat="46.1694932869132" lon="9.36543112576841"><ele>210.0</ele><time>2026-04-11T14:27:48Z</time></trkpt><trkpt lat="46.16952785044873" lon="9.365257205894814"><ele>210.0</ele><time>2026-04-11T14:27:49Z</time></trkpt><trkpt lat="46.169567578072446" lon="9.365078234598865"><ele>209.0</ele><time>2026-04-11T14:27:50Z</time></trkpt><trkpt lat="46.169607843760225" lon="9.364892602389668"><ele>208.0</ele><time>2026-04-11T14:27:51Z</time></trkpt><trkpt lat="46.169648562700246" lon="9.364700113639405"><ele>207.0</ele><time>2026-04-11T14:27:52Z</time></trkpt><trkpt lat="46.169692494558625" lon="9.364512606598211"><ele>206.0</ele><time>2026-04-11T14:27:53Z</time></trkpt><trkpt lat="46.16973558227339" lon="9.364320057196668"><ele>205.5</ele><time>2026-04-11T14:27:54Z</time></trkpt><trkpt lat="46.16977588511329" lon="9.36412237419189"><ele>205.0</ele><time>2026-04-11T14:27:55Z</time></trkpt><trkpt lat="46.16981011696731" lon="9.363930502969614"><ele>204.5</ele><time>2026-04-11T14:27:56Z</time></trkpt><trkpt lat="46.16983868584289" lon="9.363732960419433"><ele>204.0</ele><time>2026-04-11T14:27:57Z</time></trkpt><trkpt lat="46.16986302634015" lon="9.363531854204448"><ele>207.0</ele><time>2026-04-11T14:27:58Z</time></trkpt><trkpt lat="46.169879014307" lon="9.363327036521685"><ele>210.0</ele><time>2026-04-11T14:27:59Z</time></trkpt><trkpt lat="46.16988693161893" lon="9.363121715882112"><ele>213.0</ele><time>2026-04-11T14:28:00Z</time></trkpt><trkpt lat="46.16990267190418" lon="9.362917265646187"><ele>216.0</ele><time>2026-04-11T14:28:01Z</time></trkpt><trkpt lat="46.169915529885955" lon="9.362716085529689"><ele>217.0</ele><time>2026-04-11T14:28:02Z</time></trkpt><trkpt lat="46.16992592361876" lon="9.36252197771582"><ele>218.0</ele><time>2026-04-11T14:28:03Z</time></trkpt><trkpt lat="46.16991949258316" lon="9.362326202345962"><ele>219.0</ele><time>2026-04-11T14:28:04Z</time></trkpt><trkpt lat="46.169889498406" lon="9.362128112293492"><ele>220.0</ele><time>2026-04-11T14:28:05Z</time></trkpt><trkpt lat="46.169833276978004" lon="9.36193034339781"><ele>214.33333333333331</ele><time>2026-04-11T14:28:06Z</time></trkpt><trkpt lat="46.169760742406055" lon="9.361723544288303"><ele>208.66666666666669</ele><time>2026-04-11T14:28:07Z</time></trkpt><trkpt lat="46.16968971783156" lon="9.361511410333133"><ele>203.0</ele><time>2026-04-11T14:28:08Z</time></trkpt><trkpt lat="46.169628294355505" lon="9.361309140675594"><ele>203.0</ele><time>2026-04-11T14:28:09Z</time></trkpt><trkpt lat="46.16957053122019" lon="9.3611222724152"><ele>203.0</ele><time>2026-04-11T14:28:10Z</time></trkpt><trkpt lat="46.169516448790716" lon="9.360951415021647"><ele>203.0</ele><time>2026-04-11T14:28:11Z</time></trkpt><trkpt lat="46.16946638108498" lon="9.36078589370978"><ele>203.0</ele><time>2026-04-11T14:28:12Z</time></trkpt><trkpt lat="46.16941542688966" lon="9.36062223103999"><ele>204.75</ele><time>2026-04-11T14:28:13Z</time></trkpt><trkpt lat="46.16936127407414" lon="9.360458851466348"><ele>206.5</ele><time>2026-04-11T14:28:14Z</time></trkpt><trkpt lat="46.169321727012836" lon="9.360293416925673"><ele>208.25</ele><time>2026-04-11T14:28:15Z</time></trkpt><trkpt lat="46.16931789055386" lon="9.360109712192953"><ele>210.0</ele><time>2026-04-11T14:28:16Z</time></trkpt><trkpt lat="46.16932890822752" lon="9.359909795490466"><ele>210.0</ele><time>2026-04-11T14:28:17Z</time></trkpt><trkpt lat="46.16932132170614" lon="9.359701734658003"><ele>210.0</ele><time>2026-04-11T14:28:18Z</time></trkpt><trkpt lat="46.16930933167171" lon="9.35950178517004"><ele>210.0</ele><time>2026-04-11T14:28:19Z</time></trkpt><trkpt lat="46.169287896228816" lon="9.359306168793164"><ele>210.0</ele><time>2026-04-11T14:28:20Z</time></trkpt><trkpt lat="46.16925214590506" lon="9.35911045807531"><ele>210.75</ele><time>2026-04-11T14:28:21Z</time></trkpt><trkpt lat="46.16919573839414" lon="9.358919405832134"><ele>211.5</ele><time>2026-04-11T14:28:22Z</time></trkpt><trkpt lat="46.16912190991262" lon="9.35873778552626"><ele>212.25</ele><time>2026-04-11T14:28:23Z</time></trkpt><trkpt lat="46.16904118602023" lon="9.358559516551447"><ele>213.0</ele><time>2026-04-11T14:28:24Z</time></trkpt><trkpt lat="46.168959918874855" lon="9.358372381323209"><ele>211.0</ele><time>2026-04-11T14:28:25Z</time></trkpt><trkpt lat="46.168874630947286" lon="9.358174265140573"><ele>209.0</ele><time>2026-04-11T14:28:26Z</time></trkpt><trkpt lat="46.16880303948235" lon="9.357950769749687"><ele>207.0</ele><time>2026-04-11T14:28:27Z</time></trkpt><trkpt lat="46.16870528361777" lon="9.357751431361228"><ele>207.0</ele><time>2026-04-11T14:28:28Z</time></trkpt><trkpt lat="46.16862240689961" lon="9.3575399473018"><ele>207.0</ele><time>2026-04-11T14:28:29Z</time></trkpt><trkpt lat="46.16854453027811" lon="9.357341434209966"><ele>207.0</ele><time>2026-04-11T14:28:30Z</time></trkpt><trkpt lat="46.1684705276832" lon="9.357157281387018"><ele>205.5</ele><time>2026-04-11T14:28:31Z</time></trkpt><trkpt lat="46.16839925649615" lon="9.356977828212434"><ele>204.0</ele><time>2026-04-11T14:28:32Z</time></trkpt><trkpt lat="46.16832972912133" lon="9.356798403221054"><ele>202.5</ele><time>2026-04-11T14:28:33Z</time></trkpt><trkpt lat="46.168256916756604" lon="9.356621416938045"><ele>201.0</ele><time>2026-04-11T14:28:34Z</time></trkpt><trkpt lat="46.16818813258976" lon="9.356447901663335"><ele>201.75</ele><time>2026-04-11T14:28:35Z</time></trkpt><trkpt lat="46.16811740924114" lon="9.356274066925"><ele>202.5</ele><time>2026-04-11T14:28:36Z</time></trkpt><trkpt lat="46.16804998690859" lon="9.356095982430638"><ele>203.25</ele><time>2026-04-11T14:28:37Z</time></trkpt><trkpt lat="46.16798593107148" lon="9.35591491374935"><ele>204.0</ele><time>2026-04-11T14:28:38Z</time></trkpt><trkpt lat="46.16792237631266" lon="9.355720836332905"><ele>205.25</ele><time>2026-04-11T14:28:39Z</time></trkpt><trkpt lat="46.167857897868984" lon="9.355531960932613"><ele>206.5</ele><time>2026-04-11T14:28:40Z</time></trkpt><trkpt lat="46.16779221592953" lon="9.355342825190208"><ele>207.75</ele><time>2026-04-11T14:28:41Z</time></trkpt><trkpt lat="46.167727779093674" lon="9.35514904995903"><ele>209.0</ele><time>2026-04-11T14:28:42Z</time></trkpt><trkpt lat="46.1676652697909" lon="9.354963232713017"><ele>209.0</ele><time>2026-04-11T14:28:43Z</time></trkpt><trkpt lat="46.167602276201116" lon="9.354781556955585"><ele>209.0</ele><time>2026-04-11T14:28:44Z</time></trkpt><trkpt lat="46.16753676713534" lon="9.354596749058283"><ele>209.0</ele><time>2026-04-11T14:28:45Z</time></trkpt><trkpt lat="46.16746647151369" lon="9.354416710838342"><ele>209.0</ele><time>2026-04-11T14:28:46Z</time></trkpt><trkpt lat="46.16739274456807" lon="9.35424631572795"><ele>209.0</ele><time>2026-04-11T14:28:47Z</time></trkpt><trkpt lat="46.167314184952055" lon="9.35408534436645"><ele>209.0</ele><time>2026-04-11T14:28:48Z</time></trkpt><trkpt lat="46.167234021297304" lon="9.353929046841687"><ele>209.0</ele><time>2026-04-11T14:28:49Z</time></trkpt><trkpt lat="46.167150806442606" lon="9.353774566532165"><ele>209.0</ele><time>2026-04-11T14:28:50Z</time></trkpt><trkpt lat="46.16706415322763" lon="9.353619484777468"><ele>209.0</ele><time>2026-04-11T14:28:51Z</time></trkpt><trkpt lat="46.16697548675413" lon="9.353462596313285"><ele>209.0</ele><time>2026-04-11T14:28:52Z</time></trkpt><trkpt lat="46.166886419132965" lon="9.353305475012647"><ele>209.0</ele><time>2026-04-11T14:28:53Z</time></trkpt><trkpt lat="46.16679523982141" lon="9.353155688521454"><ele>209.0</ele><time>2026-04-11T14:28:54Z</time></trkpt><trkpt lat="46.16671137967719" lon="9.353018609948506"><ele>208.0</ele><time>2026-04-11T14:28:55Z</time></trkpt><trkpt lat="46.16662688388011" lon="9.352886594733638"><ele>207.0</ele><time>2026-04-11T14:28:56Z</time></trkpt><trkpt lat="46.16654075037683" lon="9.352748876257321"><ele>206.0</ele><time>2026-04-11T14:28:57Z</time></trkpt><trkpt lat="46.16644945416064" lon="9.352608496734824"><ele>205.0</ele><time>2026-04-11T14:28:58Z</time></trkpt><trkpt lat="46.16635519994987" lon="9.35247139514972"><ele>205.0</ele><time>2026-04-11T14:28:59Z</time></trkpt><trkpt lat="46.166267996038684" lon="9.35233542329599"><ele>205.0</ele><time>2026-04-11T14:29:00Z</time></trkpt><trkpt lat="46.16618462734648" lon="9.35220293010646"><ele>205.0</ele><time>2026-04-11T14:29:01Z</time></trkpt><trkpt lat="46.16609965363992" lon="9.352068203712706"><ele>205.0</ele><time>2026-04-11T14:29:02Z</time></trkpt><trkpt lat="46.166009265273836" lon="9.35192569657401"><ele>204.75</ele><time>2026-04-11T14:29:03Z</time></trkpt><trkpt lat="46.16592007061223" lon="9.351769885671837"><ele>204.5</ele><time>2026-04-11T14:29:04Z</time></trkpt><trkpt lat="46.165836721733314" lon="9.351600239212651"><ele>204.25</ele><time>2026-04-11T14:29:05Z</time></trkpt><trkpt lat="46.16575623100461" lon="9.351420282109556"><ele>204.0</ele><time>2026-04-11T14:29:06Z</time></trkpt><trkpt lat="46.16567624808128" lon="9.351251646104691"><ele>204.0</ele><time>2026-04-11T14:29:07Z</time></trkpt><trkpt lat="46.165599023556176" lon="9.351087921994637"><ele>204.0</ele><time>2026-04-11T14:29:08Z</time></trkpt><trkpt lat="46.16552497649279" lon="9.35092791281153"><ele>204.0</ele><time>2026-04-11T14:29:09Z</time></trkpt><trkpt lat="46.16544670825554" lon="9.350763835719277"><ele>204.0</ele><time>2026-04-11T14:29:10Z</time></trkpt><trkpt lat="46.16536638448022" lon="9.350599022894103"><ele>205.75</ele><time>2026-04-11T14:29:11Z</time></trkpt><trkpt lat="46.16528613616469" lon="9.350435111995578"><ele>207.5</ele><time>2026-04-11T14:29:12Z</time></trkpt><trkpt lat="46.16520763023462" lon="9.35027594176694"><ele>209.25</ele><time>2026-04-11T14:29:13Z</time></trkpt><trkpt lat="46.165129785642804" lon="9.350116635550517"><ele>211.0</ele><time>2026-04-11T14:29:14Z</time></trkpt><trkpt lat="46.16504999703599" lon="9.349961483387993"><ele>211.0</ele><time>2026-04-11T14:29:15Z</time></trkpt><trkpt lat="46.164968911779674" lon="9.349803645167054"><ele>211.0</ele><time>2026-04-11T14:29:16Z</time></trkpt><trkpt lat="46.16488900792545" lon="9.349647111492924"><ele>211.0</ele><time>2026-04-11T14:29:17Z</time></trkpt><trkpt lat="46.16481540493844" lon="9.349491728363146"><ele>211.0</ele><time>2026-04-11T14:29:18Z</time></trkpt><trkpt lat="46.16474206427649" lon="9.349340046660261"><ele>211.0</ele><time>2026-04-11T14:29:19Z</time></trkpt><trkpt lat="46.16466779887833" lon="9.349181404971162"><ele>211.0</ele><time>2026-04-11T14:29:20Z</time></trkpt><trkpt lat="46.16458883484994" lon="9.349029001167768"><ele>211.0</ele><time>2026-04-11T14:29:21Z</time></trkpt><trkpt lat="46.16449499375039" lon="9.34888079278395"><ele>211.0</ele><time>2026-04-11T14:29:22Z</time></trkpt><trkpt lat="46.164399273051494" lon="9.348737647456637"><ele>211.0</ele><time>2026-04-11T14:29:23Z</time></trkpt><trkpt lat="46.164307095494095" lon="9.348591765786106"><ele>211.0</ele><time>2026-04-11T14:29:24Z</time></trkpt><trkpt lat="46.16422614135472" lon="9.348427638256807"><ele>211.0</ele><time>2026-04-11T14:29:25Z</time></trkpt><trkpt lat="46.16415867052723" lon="9.348247699912266"><ele>211.0</ele><time>2026-04-11T14:29:26Z</time></trkpt><trkpt lat="46.16410265114037" lon="9.348068132769164"><ele>208.5</ele><time>2026-04-11T14:29:27Z</time></trkpt><trkpt lat="46.164048980642185" lon="9.347894990277501"><ele>206.0</ele><time>2026-04-11T14:29:28Z</time></trkpt><trkpt lat="46.163994085506445" lon="9.347730367777203"><ele>203.5</ele><time>2026-04-11T14:29:29Z</time></trkpt><trkpt lat="46.16392899860917" lon="9.347571030781316"><ele>201.0</ele><time>2026-04-11T14:29:30Z</time></trkpt><trkpt lat="46.16385476314793" lon="9.347413154962396"><ele>201.0</ele><time>2026-04-11T14:29:31Z</time></trkpt><trkpt lat="46.16376838523766" lon="9.3472640273499"><ele>201.0</ele><time>2026-04-11T14:29:32Z</time></trkpt><trkpt lat="46.16368095356066" lon="9.347104640557522"><ele>201.0</ele><time>2026-04-11T14:29:33Z</time></trkpt><trkpt lat="46.163599291109676" lon="9.346943295756043"><ele>201.0</ele><time>2026-04-11T14:29:34Z</time></trkpt><trkpt lat="46.16351322140063" lon="9.346790370596514"><ele>202.66666666666669</ele><time>2026-04-11T14:29:35Z</time></trkpt><trkpt lat="46.16341492360174" lon="9.346645998410493"><ele>204.33333333333334</ele><time>2026-04-11T14:29:36Z</time></trkpt><trkpt lat="46.16329156987022" lon="9.346493328181635"><ele>206.0</ele><time>2026-04-11T14:29:37Z</time></trkpt><trkpt lat="46.16316677810942" lon="9.34629822679036"><ele>206.0</ele><time>2026-04-11T14:29:38Z</time></trkpt><trkpt lat="46.16301999711518" lon="9.346103140358126"><ele>206.0</ele><time>2026-04-11T14:29:39Z</time></trkpt><trkpt lat="46.162866898738216" lon="9.345892084059336"><ele>206.0</ele><time>2026-04-11T14:29:40Z</time></trkpt><trkpt lat="46.162699395622106" lon="9.345699476407077"><ele>204.33333333333334</ele><time>2026-04-11T14:29:41Z</time></trkpt><trkpt lat="46.16254096915191" lon="9.345493069547437"><ele>202.66666666666669</ele><time>2026-04-11T14:29:42Z</time></trkpt><trkpt lat="46.162388295090366" lon="9.345290300256098"><ele>201.0</ele><time>2026-04-11T14:29:43Z</time></trkpt><trkpt lat="46.16223741013825" lon="9.345083948432984"><ele>201.0</ele><time>2026-04-11T14:29:44Z</time></trkpt><trkpt lat="46.162086356797836" lon="9.344878997653687"><ele>201.0</ele><time>2026-04-11T14:29:45Z</time></trkpt><trkpt lat="46.16193998206298" lon="9.344686986329522"><ele>201.0</ele><time>2026-04-11T14:29:46Z</time></trkpt><trkpt lat="46.16179651945104" lon="9.344515456813118"><ele>200.33333333333331</ele><time>2026-04-11T14:29:47Z</time></trkpt><trkpt lat="46.16163929915899" lon="9.344361221205716"><ele>199.66666666666666</ele><time>2026-04-11T14:29:48Z</time></trkpt><trkpt lat="46.16146214618418" lon="9.344216790474814"><ele>199.0</ele><time>2026-04-11T14:29:49Z</time></trkpt><trkpt lat="46.16128036613151" lon="9.344066043371203"><ele>199.0</ele><time>2026-04-11T14:29:50Z</time></trkpt><trkpt lat="46.16110473269726" lon="9.34391827412844"><ele>199.0</ele><time>2026-04-11T14:29:51Z</time></trkpt><trkpt lat="46.160936551789696" lon="9.34376550736487"><ele>199.0</ele><time>2026-04-11T14:29:52Z</time></trkpt><trkpt lat="46.160777344175834" lon="9.34360046243017"><ele>200.33333333333331</ele><time>2026-04-11T14:29:53Z</time></trkpt><trkpt lat="46.160615989964775" lon="9.343457007116752"><ele>201.66666666666669</ele><time>2026-04-11T14:29:54Z</time></trkpt><trkpt lat="46.160457285762504" lon="9.343316021273512"><ele>203.0</ele><time>2026-04-11T14:29:55Z</time></trkpt><trkpt lat="46.160303591743286" lon="9.343180330232467"><ele>203.0</ele><time>2026-04-11T14:29:56Z</time></trkpt><trkpt lat="46.160155909827154" lon="9.343073194375089"><ele>203.0</ele><time>2026-04-11T14:29:57Z</time></trkpt><trkpt lat="46.16002358590844" lon="9.342939481148948"><ele>203.0</ele><time>2026-04-11T14:29:58Z</time></trkpt><trkpt lat="46.15991760731629" lon="9.342770271147023"><ele>203.33333333333334</ele><time>2026-04-11T14:29:59Z</time></trkpt><trkpt lat="46.159809150788014" lon="9.342609954665647"><ele>203.66666666666669</ele><time>2026-04-11T14:30:00Z</time></trkpt><trkpt lat="46.15966811563655" lon="9.342395225351027"><ele>204.0</ele><time>2026-04-11T14:30:01Z</time></trkpt><trkpt lat="46.15952745012146" lon="9.342177556337578"><ele>206.33333333333331</ele><time>2026-04-11T14:30:02.001Z</time></trkpt><trkpt lat="46.15941508278573" lon="9.341998776427893"><ele>208.66666666666666</ele><time>2026-04-11T14:30:03.001Z</time></trkpt><trkpt lat="46.15927549501498" lon="9.341763523008755"><ele>211.0</ele><time>2026-04-11T14:30:04.001Z</time></trkpt><trkpt lat="46.15914325380607" lon="9.341531517145414"><ele>208.0</ele><time>2026-04-11T14:30:05.001Z</time></trkpt><trkpt lat="46.159023976344116" lon="9.341320941261733"><ele>205.0</ele><time>2026-04-11T14:30:06.001Z</time></trkpt><trkpt lat="46.15891940049613" lon="9.341118268296393"><ele>202.0</ele><time>2026-04-11T14:30:07.001Z</time></trkpt><trkpt lat="46.15882713814227" lon="9.340911566694958"><ele>202.0</ele><time>2026-04-11T14:30:08.001Z</time></trkpt><trkpt lat="46.158735454914044" lon="9.340711669496391"><ele>202.0</ele><time>2026-04-11T14:30:09.001Z</time></trkpt><trkpt lat="46.158665297210916" lon="9.340497709015299"><ele>202.0</ele><time>2026-04-11T14:30:10.001Z</time></trkpt><trkpt lat="46.15858743326412" lon="9.340289060520707"><ele>205.33333333333331</ele><time>2026-04-11T14:30:11.001Z</time></trkpt><trkpt lat="46.15850695136878" lon="9.340090328916702"><ele>208.66666666666669</ele><time>2026-04-11T14:30:12.001Z</time></trkpt><trkpt lat="46.158416416708775" lon="9.339914952761863"><ele>212.0</ele><time>2026-04-11T14:30:13.001Z</time></trkpt><trkpt lat="46.15831288782225" lon="9.339770953714643"><ele>210.25</ele><time>2026-04-11T14:30:14.001Z</time></trkpt><trkpt lat="46.1582001204362" lon="9.339642719535068"><ele>208.5</ele><time>2026-04-11T14:30:15.001Z</time></trkpt><trkpt lat="46.158091193688435" lon="9.339513979416388"><ele>206.75</ele><time>2026-04-11T14:30:16.001Z</time></trkpt><trkpt lat="46.15799062093971" lon="9.33938785490295"><ele>205.0</ele><time>2026-04-11T14:30:17.001Z</time></trkpt><trkpt lat="46.157895774201556" lon="9.339268007165522"><ele>205.0</ele><time>2026-04-11T14:30:18.001Z</time></trkpt><trkpt lat="46.15780078130637" lon="9.339152217481852"><ele>205.0</ele><time>2026-04-11T14:30:19.001Z</time></trkpt><trkpt lat="46.15771068270348" lon="9.339033221867522"><ele>205.0</ele><time>2026-04-11T14:30:20.001Z</time></trkpt><trkpt lat="46.15762446568497" lon="9.338900236315638"><ele>205.0</ele><time>2026-04-11T14:30:21.001Z</time></trkpt><trkpt lat="46.157549520168956" lon="9.338767318370728"><ele>204.2</ele><time>2026-04-11T14:30:22.001Z</time></trkpt><trkpt lat="46.15748788643904" lon="9.338639731286491"><ele>203.4</ele><time>2026-04-11T14:30:23.001Z</time></trkpt><trkpt lat="46.15743085040687" lon="9.338501884767854"><ele>202.60000000000002</ele><time>2026-04-11T14:30:24.001Z</time></trkpt><trkpt lat="46.15737224413813" lon="9.338372697085411"><ele>201.8</ele><time>2026-04-11T14:30:25.001Z</time></trkpt><trkpt lat="46.15730088580246" lon="9.33827083245048"><ele>201.0</ele><time>2026-04-11T14:30:26.001Z</time></trkpt><trkpt lat="46.15719999012808" lon="9.338186318009098"><ele>201.0</ele><time>2026-04-11T14:30:27.001Z</time></trkpt><trkpt lat="46.15707970958055" lon="9.338128122700965"><ele>201.0</ele><time>2026-04-11T14:30:28.001Z</time></trkpt><trkpt lat="46.15695676234164" lon="9.338125671652357"><ele>201.0</ele><time>2026-04-11T14:30:29.001Z</time></trkpt><trkpt lat="46.156847016988" lon="9.338102145494284"><ele>201.0</ele><time>2026-04-11T14:30:30.001Z</time></trkpt><trkpt lat="46.15672740639522" lon="9.338096782746453"><ele>201.0</ele><time>2026-04-11T14:30:31.001Z</time></trkpt><trkpt lat="46.15661630250957" lon="9.338081081852273"><ele>201.0</ele><time>2026-04-11T14:30:32.001Z</time></trkpt><trkpt lat="46.156512284236285" lon="9.338066398648179"><ele>201.0</ele><time>2026-04-11T14:30:33.001Z</time></trkpt><trkpt lat="46.156397836623526" lon="9.338050185664311"><ele>201.0</ele><time>2026-04-11T14:30:34.001Z</time></trkpt><trkpt lat="46.156277496431464" lon="9.338022247929338"><ele>201.5</ele><time>2026-04-11T14:30:35.001Z</time></trkpt><trkpt lat="46.156157199519214" lon="9.337980822211014"><ele>202.0</ele><time>2026-04-11T14:30:36.001Z</time></trkpt><trkpt lat="46.156045448701036" lon="9.337931128693898"><ele>202.5</ele><time>2026-04-11T14:30:37.001Z</time></trkpt><trkpt lat="46.155936563612684" lon="9.337837304065511"><ele>203.0</ele><time>2026-04-11T14:30:38.001Z</time></trkpt><trkpt lat="46.155812620748314" lon="9.337740587913595"><ele>202.75</ele><time>2026-04-11T14:30:39.001Z</time></trkpt><trkpt lat="46.155686701086246" lon="9.33763089038634"><ele>202.5</ele><time>2026-04-11T14:30:40.001Z</time></trkpt><trkpt lat="46.15557058256721" lon="9.337505388186173"><ele>202.25</ele><time>2026-04-11T14:30:41.001Z</time></trkpt><trkpt lat="46.15543850389941" lon="9.337392239688935"><ele>202.0</ele><time>2026-04-11T14:30:42.001Z</time></trkpt><trkpt lat="46.15531724053261" lon="9.337257128686838"><ele>202.0</ele><time>2026-04-11T14:30:43.001Z</time></trkpt><trkpt lat="46.15519686464469" lon="9.337126476589528"><ele>202.0</ele><time>2026-04-11T14:30:44.001Z</time></trkpt><trkpt lat="46.15508415193732" lon="9.337006227805213"><ele>202.0</ele><time>2026-04-11T14:30:45.001Z</time></trkpt><trkpt lat="46.15497562629016" lon="9.336885281472396"><ele>202.0</ele><time>2026-04-11T14:30:46.001Z</time></trkpt><trkpt lat="46.15486425784004" lon="9.33675477894049"><ele>202.0</ele><time>2026-04-11T14:30:47.001Z</time></trkpt><trkpt lat="46.15475216537164" lon="9.336628950400257"><ele>202.0</ele><time>2026-04-11T14:30:48.001Z</time></trkpt><trkpt lat="46.15464144943463" lon="9.33651407266385"><ele>202.0</ele><time>2026-04-11T14:30:49.001Z</time></trkpt><trkpt lat="46.15452434746193" lon="9.336391451492602"><ele>202.0</ele><time>2026-04-11T14:30:50.001Z</time></trkpt><trkpt lat="46.154410862717505" lon="9.33626524062261"><ele>202.25</ele><time>2026-04-11T14:30:51.001Z</time></trkpt><trkpt lat="46.154301046107705" lon="9.336137002701255"><ele>202.5</ele><time>2026-04-11T14:30:52.001Z</time></trkpt><trkpt lat="46.15419571315025" lon="9.336017483443209"><ele>202.75</ele><time>2026-04-11T14:30:53.001Z</time></trkpt><trkpt lat="46.15408170390277" lon="9.335897203151003"><ele>203.0</ele><time>2026-04-11T14:30:54.001Z</time></trkpt><trkpt lat="46.15396928304245" lon="9.335778101410769"><ele>203.25</ele><time>2026-04-11T14:30:55.001Z</time></trkpt><trkpt lat="46.15385732510845" lon="9.335660118981536"><ele>203.5</ele><time>2026-04-11T14:30:56.001Z</time></trkpt><trkpt lat="46.15374736362174" lon="9.335538406511652"><ele>203.75</ele><time>2026-04-11T14:30:57.001Z</time></trkpt><trkpt lat="46.15363934865879" lon="9.335416762863174"><ele>204.0</ele><time>2026-04-11T14:30:58.001Z</time></trkpt><trkpt lat="46.15352919680508" lon="9.335297360430037"><ele>204.25</ele><time>2026-04-11T14:30:59.001Z</time></trkpt><trkpt lat="46.153419496861986" lon="9.33517692221303"><ele>204.5</ele><time>2026-04-11T14:31:00.001Z</time></trkpt><trkpt lat="46.15331474604168" lon="9.335063152559178"><ele>204.75</ele><time>2026-04-11T14:31:01.001Z</time></trkpt><trkpt lat="46.15320908614447" lon="9.334949267941013"><ele>205.0</ele><time>2026-04-11T14:31:02.001Z</time></trkpt><trkpt lat="46.15310832246508" lon="9.334834227132644"><ele>205.0</ele><time>2026-04-11T14:31:03.001Z</time></trkpt><trkpt lat="46.15300674249721" lon="9.334722643740562"><ele>205.0</ele><time>2026-04-11T14:31:04.001Z</time></trkpt><trkpt lat="46.15290762858166" lon="9.33461271478856"><ele>205.0</ele><time>2026-04-11T14:31:05.001Z</time></trkpt><trkpt lat="46.15281285138033" lon="9.334509030344417"><ele>205.0</ele><time>2026-04-11T14:31:06.001Z</time></trkpt><trkpt lat="46.15271374324787" lon="9.33439909469755"><ele>205.0</ele><time>2026-04-11T14:31:07.001Z</time></trkpt><trkpt lat="46.15261374363806" lon="9.334290500901403"><ele>205.0</ele><time>2026-04-11T14:31:08Z</time></trkpt><trkpt lat="46.15251248556841" lon="9.334178678089943"><ele>205.0</ele><time>2026-04-11T14:31:09.001Z</time></trkpt><trkpt lat="46.15240831894676" lon="9.334065710689222"><ele>205.0</ele><time>2026-04-11T14:31:10Z</time></trkpt><trkpt lat="46.15230409201847" lon="9.333952934666502"><ele>205.0</ele><time>2026-04-11T14:31:11Z</time></trkpt><trkpt lat="46.15219685780171" lon="9.333835974301323"><ele>205.0</ele><time>2026-04-11T14:31:12Z</time></trkpt><trkpt lat="46.15209712003681" lon="9.33372643038747"><ele>205.0</ele><time>2026-04-11T14:31:13Z</time></trkpt><trkpt lat="46.15199595403568" lon="9.333617975220408"><ele>205.0</ele><time>2026-04-11T14:31:14Z</time></trkpt><trkpt lat="46.15189397015485" lon="9.333507086517585"><ele>205.0</ele><time>2026-04-11T14:31:15Z</time></trkpt><trkpt lat="46.151792059260636" lon="9.333394502410254"><ele>205.0</ele><time>2026-04-11T14:31:16Z</time></trkpt><trkpt lat="46.151685374375504" lon="9.333283369453715"><ele>205.0</ele><time>2026-04-11T14:31:17Z</time></trkpt><trkpt lat="46.15158454854106" lon="9.333171877469107"><ele>205.0</ele><time>2026-04-11T14:31:18Z</time></trkpt><trkpt lat="46.151488069074524" lon="9.3330635546655"><ele>205.0</ele><time>2026-04-11T14:31:19Z</time></trkpt><trkpt lat="46.1514004689163" lon="9.332950059676511"><ele>205.0</ele><time>2026-04-11T14:31:20Z</time></trkpt><trkpt lat="46.15131853743228" lon="9.332835274717052"><ele>205.0</ele><time>2026-04-11T14:31:21Z</time></trkpt><trkpt lat="46.15124395322873" lon="9.332720281051385"><ele>205.0</ele><time>2026-04-11T14:31:22Z</time></trkpt><trkpt lat="46.15117440842935" lon="9.33260639865787"><ele>205.0</ele><time>2026-04-11T14:31:23Z</time></trkpt><trkpt lat="46.15110713641975" lon="9.332485142930723"><ele>205.0</ele><time>2026-04-11T14:31:24Z</time></trkpt><trkpt lat="46.15103900585948" lon="9.332354584469549"><ele>205.0</ele><time>2026-04-11T14:31:25Z</time></trkpt><trkpt lat="46.15097569721271" lon="9.332215992464766"><ele>205.0</ele><time>2026-04-11T14:31:26Z</time></trkpt><trkpt lat="46.15091867101948" lon="9.332071952867782"><ele>205.0</ele><time>2026-04-11T14:31:27Z</time></trkpt><trkpt lat="46.15086712964047" lon="9.331925838794268"><ele>205.0</ele><time>2026-04-11T14:31:28Z</time></trkpt><trkpt lat="46.150822791023984" lon="9.331792245888233"><ele>205.0</ele><time>2026-04-11T14:31:29Z</time></trkpt><trkpt lat="46.15078330302687" lon="9.331653758382833"><ele>205.0</ele><time>2026-04-11T14:31:30Z</time></trkpt><trkpt lat="46.15074695258997" lon="9.331517930069053"><ele>205.0</ele><time>2026-04-11T14:31:31Z</time></trkpt><trkpt lat="46.15071696130509" lon="9.331372012811347"><ele>205.0</ele><time>2026-04-11T14:31:32Z</time></trkpt><trkpt lat="46.150688909101525" lon="9.331220786696544"><ele>205.0</ele><time>2026-04-11T14:31:33Z</time></trkpt><trkpt lat="46.150667703676056" lon="9.331059119586614"><ele>205.0</ele><time>2026-04-11T14:31:34Z</time></trkpt><trkpt lat="46.15064565679193" lon="9.330891710591198"><ele>205.0</ele><time>2026-04-11T14:31:35Z</time></trkpt><trkpt lat="46.150619472297144" lon="9.330720607793975"><ele>205.0</ele><time>2026-04-11T14:31:36Z</time></trkpt><trkpt lat="46.15059652033321" lon="9.33054980496066"><ele>204.5</ele><time>2026-04-11T14:31:37Z</time></trkpt><trkpt lat="46.15056206155149" lon="9.330380964214715"><ele>204.0</ele><time>2026-04-11T14:31:38Z</time></trkpt><trkpt lat="46.150518394347884" lon="9.330219430457241"><ele>203.5</ele><time>2026-04-11T14:31:39Z</time></trkpt><trkpt lat="46.150452135837604" lon="9.330079155642933"><ele>203.0</ele><time>2026-04-11T14:31:40Z</time></trkpt><trkpt lat="46.150385670316716" lon="9.329948204014022"><ele>203.0</ele><time>2026-04-11T14:31:41Z</time></trkpt><trkpt lat="46.150314890791094" lon="9.329844478984384"><ele>203.0</ele><time>2026-04-11T14:31:42Z</time></trkpt><trkpt lat="46.15024285881524" lon="9.329763679395274"><ele>203.0</ele><time>2026-04-11T14:31:43Z</time></trkpt><trkpt lat="46.150161347079084" lon="9.329688172634011"><ele>203.0</ele><time>2026-04-11T14:31:44Z</time></trkpt><trkpt lat="46.150071118699834" lon="9.329623264692348"><ele>203.0</ele><time>2026-04-11T14:31:45Z</time></trkpt><trkpt lat="46.14997416816816" lon="9.329572321983543"><ele>202.8</ele><time>2026-04-11T14:31:46Z</time></trkpt><trkpt lat="46.149881307708156" lon="9.329507806984568"><ele>202.60000000000002</ele><time>2026-04-11T14:31:47Z</time></trkpt><trkpt lat="46.14980157141222" lon="9.32941327531083"><ele>202.39999999999998</ele><time>2026-04-11T14:31:48.001Z</time></trkpt><trkpt lat="46.14973993557883" lon="9.329279415705601"><ele>202.2</ele><time>2026-04-11T14:31:49.001Z</time></trkpt><trkpt lat="46.14970238618657" lon="9.329135286397255"><ele>202.0</ele><time>2026-04-11T14:31:50.001Z</time></trkpt><trkpt lat="46.14969577428306" lon="9.328985846202402"><ele>202.33333333333331</ele><time>2026-04-11T14:31:51.001Z</time></trkpt><trkpt lat="46.14973512307558" lon="9.328841159701147"><ele>202.66666666666666</ele><time>2026-04-11T14:31:52.001Z</time></trkpt><trkpt lat="46.149780529353215" lon="9.328718175637924"><ele>203.0</ele><time>2026-04-11T14:31:53.001Z</time></trkpt><trkpt lat="46.14980551195378" lon="9.32859673099307"><ele>203.33333333333331</ele><time>2026-04-11T14:31:54.001Z</time></trkpt><trkpt lat="46.149841320056794" lon="9.328501318565628"><ele>203.66666666666666</ele><time>2026-04-11T14:31:55.001Z</time></trkpt><trkpt lat="46.14987306074936" lon="9.328417309167426"><ele>204.0</ele><time>2026-04-11T14:31:56.001Z</time></trkpt><trkpt lat="46.149921613003116" lon="9.328267342097941"><ele>204.0</ele><time>2026-04-11T14:31:58.001Z</time></trkpt><trkpt lat="46.149968529791025" lon="9.328143650364312"><ele>204.0</ele><time>2026-04-11T14:31:59.001Z</time></trkpt><trkpt lat="46.1500215949145" lon="9.327986062904595"><ele>204.0</ele><time>2026-04-11T14:32:00.001Z</time></trkpt><trkpt lat="46.15007417248701" lon="9.327807325731637"><ele>204.0</ele><time>2026-04-11T14:32:01.001Z</time></trkpt><trkpt lat="46.15013040265764" lon="9.327635430049302"><ele>203.75</ele><time>2026-04-11T14:32:02.001Z</time></trkpt><trkpt lat="46.150189786688614" lon="9.32746205042072"><ele>203.5</ele><time>2026-04-11T14:32:03.001Z</time></trkpt><trkpt lat="46.15024162384459" lon="9.327298543239968"><ele>203.25</ele><time>2026-04-11T14:32:04.001Z</time></trkpt><trkpt lat="46.150290765334745" lon="9.327154191200291"><ele>203.0</ele><time>2026-04-11T14:32:05.001Z</time></trkpt><trkpt lat="46.150332603641004" lon="9.327008684825582"><ele>202.4</ele><time>2026-04-11T14:32:06.001Z</time></trkpt><trkpt lat="46.15037930808294" lon="9.326878804591995"><ele>201.8</ele><time>2026-04-11T14:32:07.001Z</time></trkpt><trkpt lat="46.15042870742776" lon="9.326738880794537"><ele>201.2</ele><time>2026-04-11T14:32:08.001Z</time></trkpt><trkpt lat="46.150476914525875" lon="9.326594311967817"><ele>200.6</ele><time>2026-04-11T14:32:09.001Z</time></trkpt><trkpt lat="46.15052295078703" lon="9.326449327784228"><ele>200.0</ele><time>2026-04-11T14:32:10.001Z</time></trkpt><trkpt lat="46.150560811670296" lon="9.326315479035364"><ele>200.00000000000003</ele><time>2026-04-11T14:32:11.001Z</time></trkpt><trkpt lat="46.150602050996355" lon="9.32619423418914"><ele>200.0</ele><time>2026-04-11T14:32:12.001Z</time></trkpt><trkpt lat="46.15063773940855" lon="9.326079719071732"><ele>200.0</ele><time>2026-04-11T14:32:13.001Z</time></trkpt><trkpt lat="46.15067008550197" lon="9.32597330117284"><ele>200.0</ele><time>2026-04-11T14:32:14.001Z</time></trkpt><trkpt lat="46.1506960117209" lon="9.32587448521761"><ele>200.00000000000003</ele><time>2026-04-11T14:32:15.001Z</time></trkpt><trkpt lat="46.15071986090061" lon="9.325784647523648"><ele>200.0</ele><time>2026-04-11T14:32:16.001Z</time></trkpt><trkpt lat="46.150743765384206" lon="9.325686514003316"><ele>200.16666666666669</ele><time>2026-04-11T14:32:17.001Z</time></trkpt><trkpt lat="46.15075711664898" lon="9.325570961779073"><ele>200.33333333333334</ele><time>2026-04-11T14:32:18.001Z</time></trkpt><trkpt lat="46.15075792784009" lon="9.325447017518535"><ele>200.5</ele><time>2026-04-11T14:32:19.001Z</time></trkpt><trkpt lat="46.150751802924624" lon="9.325320296590613"><ele>200.66666666666669</ele><time>2026-04-11T14:32:20.001Z</time></trkpt><trkpt lat="46.1507355567227" lon="9.325191880861153"><ele>200.83333333333334</ele><time>2026-04-11T14:32:21.001Z</time></trkpt><trkpt lat="46.15071513107629" lon="9.325064979554273"><ele>201.0</ele><time>2026-04-11T14:32:22.001Z</time></trkpt><trkpt lat="46.15068496106513" lon="9.324948067976177"><ele>201.0</ele><time>2026-04-11T14:32:23.001Z</time></trkpt><trkpt lat="46.15064621013226" lon="9.32483636497502"><ele>201.0</ele><time>2026-04-11T14:32:24.001Z</time></trkpt><trkpt lat="46.150594772819744" lon="9.324725359929504"><ele>201.0</ele><time>2026-04-11T14:32:25.001Z</time></trkpt><trkpt lat="46.15053973383176" lon="9.324630908435386"><ele>201.0</ele><time>2026-04-11T14:32:26.001Z</time></trkpt><trkpt lat="46.15048676995254" lon="9.32453417151091"><ele>201.0</ele><time>2026-04-11T14:32:27.001Z</time></trkpt><trkpt lat="46.15043011214541" lon="9.32442824295262"><ele>201.0</ele><time>2026-04-11T14:32:28.001Z</time></trkpt><trkpt lat="46.15037187266641" lon="9.324324073276822"><ele>201.5</ele><time>2026-04-11T14:32:29.001Z</time></trkpt><trkpt lat="46.15031487527482" lon="9.324226106259115"><ele>202.0</ele><time>2026-04-11T14:32:30.001Z</time></trkpt><trkpt lat="46.15026588114197" lon="9.324141588264865"><ele>202.5</ele><time>2026-04-11T14:32:31.001Z</time></trkpt><trkpt lat="46.150225985188094" lon="9.324065121985706"><ele>203.0</ele><time>2026-04-11T14:32:32.001Z</time></trkpt><trkpt lat="46.15016686198819" lon="9.32396434999971"><ele>203.5</ele><time>2026-04-11T14:32:34.001Z</time></trkpt><trkpt lat="46.15010138783809" lon="9.323814290080229"><ele>204.0</ele><time>2026-04-11T14:32:36.001Z</time></trkpt><trkpt lat="46.1500457600526" lon="9.323738000978421"><ele>204.33333333333334</ele><time>2026-04-11T14:32:37.001Z</time></trkpt><trkpt lat="46.14999857505067" lon="9.323650105291721"><ele>204.66666666666669</ele><time>2026-04-11T14:32:38.001Z</time></trkpt><trkpt lat="46.149955049999576" lon="9.323565254528894"><ele>205.0</ele><time>2026-04-11T14:32:39.001Z</time></trkpt><trkpt lat="46.149911127547895" lon="9.323474398149028"><ele>205.33333333333334</ele><time>2026-04-11T14:32:40.001Z</time></trkpt><trkpt lat="46.149868069690235" lon="9.32336588043926"><ele>205.66666666666669</ele><time>2026-04-11T14:32:41.001Z</time></trkpt><trkpt lat="46.14983400937413" lon="9.323238165209196"><ele>206.0</ele><time>2026-04-11T14:32:42.001Z</time></trkpt><trkpt lat="46.149820647717675" lon="9.3231029862351"><ele>204.60000000000002</ele><time>2026-04-11T14:32:43.001Z</time></trkpt><trkpt lat="46.14980555199962" lon="9.322964302234674"><ele>203.2</ele><time>2026-04-11T14:32:44.001Z</time></trkpt><trkpt lat="46.149789337542366" lon="9.322819372902192"><ele>201.8</ele><time>2026-04-11T14:32:45.001Z</time></trkpt><trkpt lat="46.14977050437721" lon="9.322667382438453"><ele>200.39999999999998</ele><time>2026-04-11T14:32:46.001Z</time></trkpt><trkpt lat="46.14974893505664" lon="9.32250974592845"><ele>199.0</ele><time>2026-04-11T14:32:47.001Z</time></trkpt><trkpt lat="46.14972668860554" lon="9.322356856621003"><ele>200.0</ele><time>2026-04-11T14:32:48.001Z</time></trkpt><trkpt lat="46.149709518472385" lon="9.32221910490959"><ele>201.0</ele><time>2026-04-11T14:32:49.001Z</time></trkpt><trkpt lat="46.14968619336541" lon="9.322092820349143"><ele>202.0</ele><time>2026-04-11T14:32:50.001Z</time></trkpt><trkpt lat="46.149651771611616" lon="9.321967024574521"><ele>203.0</ele><time>2026-04-11T14:32:51.001Z</time></trkpt><trkpt lat="46.14960572951583" lon="9.321841364918654"><ele>204.0</ele><time>2026-04-11T14:32:52.001Z</time></trkpt><trkpt lat="46.14955330334862" lon="9.321716613128766"><ele>204.0</ele><time>2026-04-11T14:32:53.001Z</time></trkpt><trkpt lat="46.14949937403495" lon="9.321595016825931"><ele>204.0</ele><time>2026-04-11T14:32:54.001Z</time></trkpt><trkpt lat="46.14944417684714" lon="9.321481567105513"><ele>204.0</ele><time>2026-04-11T14:32:55.001Z</time></trkpt><trkpt lat="46.149388951118205" lon="9.321371687667028"><ele>204.0</ele><time>2026-04-11T14:32:56Z</time></trkpt><trkpt lat="46.149335040974094" lon="9.321261317405096"><ele>204.0</ele><time>2026-04-11T14:32:57Z</time></trkpt><trkpt lat="46.149279740587374" lon="9.32114740358513"><ele>203.5</ele><time>2026-04-11T14:32:58Z</time></trkpt><trkpt lat="46.1492294365833" lon="9.321007871717523"><ele>203.0</ele><time>2026-04-11T14:32:59Z</time></trkpt><trkpt lat="46.149183901080065" lon="9.320856125482976"><ele>202.5</ele><time>2026-04-11T14:33:00Z</time></trkpt><trkpt lat="46.14914631511267" lon="9.320700239764529"><ele>202.0</ele><time>2026-04-11T14:33:01Z</time></trkpt><trkpt lat="46.14912107730595" lon="9.320526618383042"><ele>203.0</ele><time>2026-04-11T14:33:02Z</time></trkpt><trkpt lat="46.14910834220168" lon="9.320345316384849"><ele>204.0</ele><time>2026-04-11T14:33:03Z</time></trkpt><trkpt lat="46.149101881047805" lon="9.320155353435617"><ele>205.0</ele><time>2026-04-11T14:33:04Z</time></trkpt><trkpt lat="46.149093851158796" lon="9.319966971235674"><ele>206.0</ele><time>2026-04-11T14:33:05Z</time></trkpt><trkpt lat="46.14909066767685" lon="9.319771114327342"><ele>206.0</ele><time>2026-04-11T14:33:06Z</time></trkpt><trkpt lat="46.14909065436408" lon="9.319575869025432"><ele>206.0</ele><time>2026-04-11T14:33:07Z</time></trkpt><trkpt lat="46.149094128884194" lon="9.319379314327591"><ele>206.0</ele><time>2026-04-11T14:33:08Z</time></trkpt><trkpt lat="46.14910339978305" lon="9.319188674396427"><ele>206.0</ele><time>2026-04-11T14:33:09Z</time></trkpt><trkpt lat="46.1491210417151" lon="9.319009894310062"><ele>206.75</ele><time>2026-04-11T14:33:10Z</time></trkpt><trkpt lat="46.1491319908349" lon="9.318826959629527"><ele>207.5</ele><time>2026-04-11T14:33:11Z</time></trkpt><trkpt lat="46.149147002440124" lon="9.318642742027082"><ele>208.25</ele><time>2026-04-11T14:33:12Z</time></trkpt><trkpt lat="46.14916655217097" lon="9.318449924966165"><ele>209.0</ele><time>2026-04-11T14:33:13Z</time></trkpt><trkpt lat="46.149190355317195" lon="9.318257344173041"><ele>210.0</ele><time>2026-04-11T14:33:14Z</time></trkpt><trkpt lat="46.14921908147727" lon="9.318067598464719"><ele>211.0</ele><time>2026-04-11T14:33:15Z</time></trkpt><trkpt lat="46.14924639927812" lon="9.317876937270501"><ele>212.0</ele><time>2026-04-11T14:33:16Z</time></trkpt><trkpt lat="46.1492722164881" lon="9.317688233892992"><ele>213.0</ele><time>2026-04-11T14:33:17Z</time></trkpt><trkpt lat="46.1492994234664" lon="9.317497409490759"><ele>213.0</ele><time>2026-04-11T14:33:18Z</time></trkpt><trkpt lat="46.14932521276433" lon="9.31730387039164"><ele>213.0</ele><time>2026-04-11T14:33:19Z</time></trkpt><trkpt lat="46.149349304311805" lon="9.317098872508891"><ele>213.0</ele><time>2026-04-11T14:33:20Z</time></trkpt><trkpt lat="46.1493777184631" lon="9.316887618574956"><ele>213.0</ele><time>2026-04-11T14:33:21Z</time></trkpt><trkpt lat="46.14940850297271" lon="9.3166639340042"><ele>212.33333333333331</ele><time>2026-04-11T14:33:22Z</time></trkpt><trkpt lat="46.14943039466651" lon="9.316446886232722"><ele>211.66666666666666</ele><time>2026-04-11T14:33:23Z</time></trkpt><trkpt lat="46.149439726967394" lon="9.316220567532211"><ele>211.0</ele><time>2026-04-11T14:33:24Z</time></trkpt><trkpt lat="46.149432605704234" lon="9.316014203182542"><ele>211.0</ele><time>2026-04-11T14:33:25Z</time></trkpt><trkpt lat="46.14941725445243" lon="9.315817988523708"><ele>211.0</ele><time>2026-04-11T14:33:26Z</time></trkpt><trkpt lat="46.14939590143985" lon="9.315624500539524"><ele>211.0</ele><time>2026-04-11T14:33:27Z</time></trkpt><trkpt lat="46.14936670789627" lon="9.315438113912357"><ele>211.0</ele><time>2026-04-11T14:33:28Z</time></trkpt><trkpt lat="46.149334721208014" lon="9.315255368616267"><ele>211.5</ele><time>2026-04-11T14:33:29Z</time></trkpt><trkpt lat="46.14929923293217" lon="9.315070537706047"><ele>212.0</ele><time>2026-04-11T14:33:30Z</time></trkpt><trkpt lat="46.14926445069276" lon="9.31488511467728"><ele>212.5</ele><time>2026-04-11T14:33:31Z</time></trkpt><trkpt lat="46.14924062927338" lon="9.314695073151334"><ele>213.0</ele><time>2026-04-11T14:33:32Z</time></trkpt><trkpt lat="46.14922842452962" lon="9.3144969999023"><ele>214.25</ele><time>2026-04-11T14:33:33Z</time></trkpt><trkpt lat="46.149222861063244" lon="9.314301086177354"><ele>215.5</ele><time>2026-04-11T14:33:34Z</time></trkpt><trkpt lat="46.149214730523184" lon="9.314121775306539"><ele>216.75</ele><time>2026-04-11T14:33:35Z</time></trkpt><trkpt lat="46.149211072819256" lon="9.313943458780319"><ele>218.0</ele><time>2026-04-11T14:33:36Z</time></trkpt><trkpt lat="46.149206213690285" lon="9.313761584869548"><ele>218.25</ele><time>2026-04-11T14:33:37Z</time></trkpt><trkpt lat="46.14919806880533" lon="9.313570606771131"><ele>218.5</ele><time>2026-04-11T14:33:38Z</time></trkpt><trkpt lat="46.14919159639998" lon="9.313371192218318"><ele>218.75</ele><time>2026-04-11T14:33:39Z</time></trkpt><trkpt lat="46.14917706267599" lon="9.313170381129583"><ele>219.0</ele><time>2026-04-11T14:33:40Z</time></trkpt><trkpt lat="46.14917215904179" lon="9.312973027519206"><ele>219.25</ele><time>2026-04-11T14:33:41Z</time></trkpt><trkpt lat="46.14916848764146" lon="9.3127808015302"><ele>219.5</ele><time>2026-04-11T14:33:42Z</time></trkpt><trkpt lat="46.149159812874075" lon="9.312595306824779"><ele>219.75</ele><time>2026-04-11T14:33:43Z</time></trkpt><trkpt lat="46.14914302540524" lon="9.312407324232584"><ele>220.0</ele><time>2026-04-11T14:33:44Z</time></trkpt><trkpt lat="46.14912490958397" lon="9.312213178163862"><ele>220.75</ele><time>2026-04-11T14:33:45Z</time></trkpt><trkpt lat="46.14908817877502" lon="9.312012277939598"><ele>221.5</ele><time>2026-04-11T14:33:46Z</time></trkpt><trkpt lat="46.14905315167017" lon="9.311797853253822"><ele>222.25</ele><time>2026-04-11T14:33:47Z</time></trkpt><trkpt lat="46.14902339848122" lon="9.311595413752277"><ele>223.0</ele><time>2026-04-11T14:33:48Z</time></trkpt><trkpt lat="46.14899734680223" lon="9.311402131761229"><ele>218.5</ele><time>2026-04-11T14:33:49Z</time></trkpt><trkpt lat="46.14897174186798" lon="9.311211369561162"><ele>214.0</ele><time>2026-04-11T14:33:50Z</time></trkpt><trkpt lat="46.148947782880064" lon="9.311017179377464"><ele>209.5</ele><time>2026-04-11T14:33:51Z</time></trkpt><trkpt lat="46.14892585287076" lon="9.310826840226042"><ele>205.0</ele><time>2026-04-11T14:33:52Z</time></trkpt><trkpt lat="46.14890316874509" lon="9.310638566075152"><ele>206.25</ele><time>2026-04-11T14:33:53Z</time></trkpt><trkpt lat="46.148876657847325" lon="9.310451033539762"><ele>207.5</ele><time>2026-04-11T14:33:54.001Z</time></trkpt><trkpt lat="46.14885093330894" lon="9.310264866160932"><ele>208.75</ele><time>2026-04-11T14:33:55.001Z</time></trkpt><trkpt lat="46.14883395872899" lon="9.310094625973765"><ele>210.0</ele><time>2026-04-11T14:33:56.001Z</time></trkpt><trkpt lat="46.14881141005295" lon="9.309928010414326"><ele>210.0</ele><time>2026-04-11T14:33:57.001Z</time></trkpt><trkpt lat="46.14878717280597" lon="9.309764552959257"><ele>210.0</ele><time>2026-04-11T14:33:58.001Z</time></trkpt><trkpt lat="46.148766280184404" lon="9.309608572946937"><ele>210.0</ele><time>2026-04-11T14:33:59.001Z</time></trkpt><trkpt lat="46.14874238136777" lon="9.309447239313046"><ele>210.0</ele><time>2026-04-11T14:34:00.001Z</time></trkpt><trkpt lat="46.14872324258488" lon="9.309293557185656"><ele>210.0</ele><time>2026-04-11T14:34:01.001Z</time></trkpt><trkpt lat="46.148704618073786" lon="9.309140176758426"><ele>211.16666666666666</ele><time>2026-04-11T14:34:02.001Z</time></trkpt><trkpt lat="46.148686269173375" lon="9.308984302747136"><ele>212.33333333333331</ele><time>2026-04-11T14:34:03.001Z</time></trkpt><trkpt lat="46.14867025360269" lon="9.308844904097661"><ele>213.5</ele><time>2026-04-11T14:34:04.001Z</time></trkpt><trkpt lat="46.14865753372903" lon="9.308724463848641"><ele>214.66666666666666</ele><time>2026-04-11T14:34:05.001Z</time></trkpt><trkpt lat="46.148645491342094" lon="9.308622051194234"><ele>215.83333333333331</ele><time>2026-04-11T14:34:06.001Z</time></trkpt><trkpt lat="46.148639174816914" lon="9.3085192902029"><ele>217.0</ele><time>2026-04-11T14:34:07.001Z</time></trkpt><trkpt lat="46.148635281475066" lon="9.30834439675326"><ele>217.33333333333331</ele><time>2026-04-11T14:34:09.001Z</time></trkpt><trkpt lat="46.14863552590626" lon="9.308251122704421"><ele>217.66666666666666</ele><time>2026-04-11T14:34:10.001Z</time></trkpt><trkpt lat="46.14864015375778" lon="9.308157050852277"><ele>218.0</ele><time>2026-04-11T14:34:11.001Z</time></trkpt><trkpt lat="46.14863953382392" lon="9.308054164401058"><ele>218.33333333333331</ele><time>2026-04-11T14:34:12.001Z</time></trkpt><trkpt lat="46.14865220496486" lon="9.307957284458231"><ele>218.66666666666666</ele><time>2026-04-11T14:34:13.001Z</time></trkpt><trkpt lat="46.14863990878318" lon="9.30785692032784"><ele>219.0</ele><time>2026-04-11T14:34:14.001Z</time></trkpt><trkpt lat="46.14861542698051" lon="9.30770274064013"><ele>219.83333333333334</ele><time>2026-04-11T14:34:16.001Z</time></trkpt><trkpt lat="46.14860974267496" lon="9.307589836491395"><ele>220.66666666666669</ele><time>2026-04-11T14:34:17.001Z</time></trkpt><trkpt lat="46.1485799416204" lon="9.307476324198278"><ele>221.5</ele><time>2026-04-11T14:34:18.001Z</time></trkpt><trkpt lat="46.14856232510047" lon="9.30735211352606"><ele>222.33333333333334</ele><time>2026-04-11T14:34:19.001Z</time></trkpt><trkpt lat="46.14854135472009" lon="9.30721558076714"><ele>223.16666666666669</ele><time>2026-04-11T14:34:20.001Z</time></trkpt><trkpt lat="46.148529822160626" lon="9.307082705207259"><ele>224.0</ele><time>2026-04-11T14:34:21.001Z</time></trkpt><trkpt lat="46.148505010265836" lon="9.30695174588819"><ele>224.16666666666669</ele><time>2026-04-11T14:34:22.001Z</time></trkpt><trkpt lat="46.14848679859175" lon="9.306817266513809"><ele>224.33333333333334</ele><time>2026-04-11T14:34:23.001Z</time></trkpt><trkpt lat="46.14847056461622" lon="9.306688662995516"><ele>224.5</ele><time>2026-04-11T14:34:24.001Z</time></trkpt><trkpt lat="46.14845498917714" lon="9.30657423973624"><ele>224.66666666666669</ele><time>2026-04-11T14:34:25.001Z</time></trkpt><trkpt lat="46.1484415063265" lon="9.306473960961654"><ele>224.83333333333334</ele><time>2026-04-11T14:34:26.001Z</time></trkpt><trkpt lat="46.14843411980405" lon="9.306382128065673"><ele>225.0</ele><time>2026-04-11T14:34:27.001Z</time></trkpt><trkpt lat="46.14841871785022" lon="9.30629068056172"><ele>225.0</ele><time>2026-04-11T14:34:28.001Z</time></trkpt><trkpt lat="46.14841509046491" lon="9.30617821456154"><ele>225.0</ele><time>2026-04-11T14:34:29.001Z</time></trkpt><trkpt lat="46.14838813128171" lon="9.306064812512634"><ele>225.0</ele><time>2026-04-11T14:34:30.001Z</time></trkpt><trkpt lat="46.14836538309095" lon="9.305946219145595"><ele>225.0</ele><time>2026-04-11T14:34:31.001Z</time></trkpt><trkpt lat="46.14835660790704" lon="9.305823336786295"><ele>225.0</ele><time>2026-04-11T14:34:32.001Z</time></trkpt><trkpt lat="46.1483636139989" lon="9.305697034193821"><ele>225.0</ele><time>2026-04-11T14:34:33.001Z</time></trkpt><trkpt lat="46.14837710867114" lon="9.305571162328814"><ele>224.4</ele><time>2026-04-11T14:34:34.001Z</time></trkpt><trkpt lat="46.148401884289946" lon="9.305429585701381"><ele>223.8</ele><time>2026-04-11T14:34:35.001Z</time></trkpt><trkpt lat="46.148458774198915" lon="9.305286838601152"><ele>223.2</ele><time>2026-04-11T14:34:36.001Z</time></trkpt><trkpt lat="46.14850290981392" lon="9.305139436480447"><ele>222.6</ele><time>2026-04-11T14:34:37.001Z</time></trkpt><trkpt lat="46.14854566981059" lon="9.305001308531244"><ele>222.0</ele><time>2026-04-11T14:34:38.001Z</time></trkpt><trkpt lat="46.14857800251103" lon="9.30486134592054"><ele>223.2</ele><time>2026-04-11T14:34:39.001Z</time></trkpt><trkpt lat="46.14860997784133" lon="9.3047209162315"><ele>224.39999999999998</ele><time>2026-04-11T14:34:40.001Z</time></trkpt><trkpt lat="46.148610485599264" lon="9.304578950693466"><ele>225.60000000000002</ele><time>2026-04-11T14:34:41Z</time></trkpt><trkpt lat="46.148576181164664" lon="9.304430670818144"><ele>226.8</ele><time>2026-04-11T14:34:42Z</time></trkpt><trkpt lat="46.14852478954449" lon="9.304290884690053"><ele>228.0</ele><time>2026-04-11T14:34:43Z</time></trkpt><trkpt lat="46.14845993502561" lon="9.304171650139137"><ele>228.0</ele><time>2026-04-11T14:34:44Z</time></trkpt><trkpt lat="46.148411165752364" lon="9.304075020350574"><ele>228.0</ele><time>2026-04-11T14:34:45Z</time></trkpt><trkpt lat="46.14831361788413" lon="9.303953775470447"><ele>228.0</ele><time>2026-04-11T14:34:46Z</time></trkpt><trkpt lat="46.1482510603983" lon="9.303850293881695"><ele>228.0</ele><time>2026-04-11T14:34:47Z</time></trkpt><trkpt lat="46.14818092078496" lon="9.303724675828068"><ele>228.0</ele><time>2026-04-11T14:34:48Z</time></trkpt><trkpt lat="46.14810928413875" lon="9.303609248821349"><ele>227.8</ele><time>2026-04-11T14:34:49Z</time></trkpt><trkpt lat="46.14804966352577" lon="9.303486094785017"><ele>227.60000000000002</ele><time>2026-04-11T14:34:50Z</time></trkpt><trkpt lat="46.147988072511524" lon="9.3033822301052"><ele>227.39999999999998</ele><time>2026-04-11T14:34:51Z</time></trkpt><trkpt lat="46.147921698441316" lon="9.303299013448653"><ele>227.2</ele><time>2026-04-11T14:34:52Z</time></trkpt><trkpt lat="46.147866217516444" lon="9.303197279206787"><ele>227.0</ele><time>2026-04-11T14:34:53Z</time></trkpt><trkpt lat="46.147799765612405" lon="9.303086416466096"><ele>227.33333333333334</ele><time>2026-04-11T14:34:54Z</time></trkpt><trkpt lat="46.147739007312374" lon="9.302983935893687"><ele>227.66666666666669</ele><time>2026-04-11T14:34:55Z</time></trkpt><trkpt lat="46.147683768044914" lon="9.30289145139233"><ele>228.0</ele><time>2026-04-11T14:34:56Z</time></trkpt><trkpt lat="46.14762443453918" lon="9.302787545878456"><ele>228.33333333333331</ele><time>2026-04-11T14:34:57Z</time></trkpt><trkpt lat="46.14756336636778" lon="9.302695835479165"><ele>228.66666666666666</ele><time>2026-04-11T14:34:58Z</time></trkpt><trkpt lat="46.14750255817464" lon="9.302606030920312"><ele>229.0</ele><time>2026-04-11T14:34:59Z</time></trkpt><trkpt lat="46.14743711321322" lon="9.302539214397921"><ele>228.6</ele><time>2026-04-11T14:35:00Z</time></trkpt><trkpt lat="46.1473563729467" lon="9.302513671861746"><ele>228.2</ele><time>2026-04-11T14:35:01Z</time></trkpt><trkpt lat="46.14726378665673" lon="9.30251178284824"><ele>227.79999999999998</ele><time>2026-04-11T14:35:02Z</time></trkpt><trkpt lat="46.14716201535014" lon="9.302506374604887"><ele>227.39999999999998</ele><time>2026-04-11T14:35:03Z</time></trkpt><trkpt lat="46.147062525765996" lon="9.302491351713597"><ele>227.0</ele><time>2026-04-11T14:35:04Z</time></trkpt><trkpt lat="46.14695531994051" lon="9.302474917533983"><ele>227.0</ele><time>2026-04-11T14:35:05Z</time></trkpt><trkpt lat="46.146850639323866" lon="9.302460926932765"><ele>227.0</ele><time>2026-04-11T14:35:06Z</time></trkpt><trkpt lat="46.146750909632885" lon="9.302446754600915"><ele>227.0</ele><time>2026-04-11T14:35:07Z</time></trkpt><trkpt lat="46.146644640361146" lon="9.302430496945252"><ele>227.0</ele><time>2026-04-11T14:35:08Z</time></trkpt><trkpt lat="46.14653417120763" lon="9.302414283492485"><ele>227.0</ele><time>2026-04-11T14:35:09Z</time></trkpt><trkpt lat="46.146417704937235" lon="9.302387356104813"><ele>227.2</ele><time>2026-04-11T14:35:10Z</time></trkpt><trkpt lat="46.14632070022534" lon="9.30231850732195"><ele>227.39999999999998</ele><time>2026-04-11T14:35:11Z</time></trkpt><trkpt lat="46.14622623182932" lon="9.302245714173507"><ele>227.60000000000002</ele><time>2026-04-11T14:35:12Z</time></trkpt><trkpt lat="46.14615078669463" lon="9.30215365904772"><ele>227.8</ele><time>2026-04-11T14:35:13Z</time></trkpt><trkpt lat="46.14607027042561" lon="9.302052687370796"><ele>228.0</ele><time>2026-04-11T14:35:14Z</time></trkpt><trkpt lat="46.14598728411326" lon="9.30194792076377"><ele>228.0</ele><time>2026-04-11T14:35:15Z</time></trkpt><trkpt lat="46.14590288361835" lon="9.301841620388524"><ele>228.0</ele><time>2026-04-11T14:35:16Z</time></trkpt><trkpt lat="46.145819438339046" lon="9.301736522948971"><ele>228.0</ele><time>2026-04-11T14:35:17Z</time></trkpt><trkpt lat="46.145726462014984" lon="9.301644705654748"><ele>228.0</ele><time>2026-04-11T14:35:18Z</time></trkpt><trkpt lat="46.14564080561209" lon="9.301532367278039"><ele>228.0</ele><time>2026-04-11T14:35:19Z</time></trkpt><trkpt lat="46.14554942723693" lon="9.301415448463654"><ele>228.0</ele><time>2026-04-11T14:35:20Z</time></trkpt><trkpt lat="46.145456226825935" lon="9.301302822985209"><ele>228.0</ele><time>2026-04-11T14:35:21Z</time></trkpt><trkpt lat="46.14536677107895" lon="9.301195543205129"><ele>228.0</ele><time>2026-04-11T14:35:22Z</time></trkpt><trkpt lat="46.14529065145089" lon="9.301103891362917"><ele>228.0</ele><time>2026-04-11T14:35:23Z</time></trkpt><trkpt lat="46.14522904351007" lon="9.30101895683223"><ele>228.0</ele><time>2026-04-11T14:35:24Z</time></trkpt><trkpt lat="46.14517118094735" lon="9.300949813155027"><ele>228.0</ele><time>2026-04-11T14:35:25Z</time></trkpt><trkpt lat="46.14509155210195" lon="9.300859732707274"><ele>228.0</ele><time>2026-04-11T14:35:27Z</time></trkpt><trkpt lat="46.144986516817376" lon="9.300739393522013"><ele>228.0</ele><time>2026-04-11T14:35:29Z</time></trkpt><trkpt lat="46.14492866760635" lon="9.300673386761787"><ele>226.83333333333334</ele><time>2026-04-11T14:35:30Z</time></trkpt><trkpt lat="46.14487343282442" lon="9.300611729428542"><ele>225.66666666666669</ele><time>2026-04-11T14:35:31Z</time></trkpt><trkpt lat="46.14480039359486" lon="9.30052099335663"><ele>224.5</ele><time>2026-04-11T14:35:33Z</time></trkpt><trkpt lat="46.14472146229916" lon="9.300417047331324"><ele>223.33333333333334</ele><time>2026-04-11T14:35:35Z</time></trkpt><trkpt lat="46.144658737324626" lon="9.300338558006978"><ele>222.16666666666669</ele><time>2026-04-11T14:35:36Z</time></trkpt><trkpt lat="46.14460521889562" lon="9.300260303737469"><ele>221.0</ele><time>2026-04-11T14:35:37Z</time></trkpt><trkpt lat="46.14455143315781" lon="9.300174278168887"><ele>220.83333333333334</ele><time>2026-04-11T14:35:38Z</time></trkpt><trkpt lat="46.14450266133956" lon="9.30008900115185"><ele>220.66666666666669</ele><time>2026-04-11T14:35:39Z</time></trkpt><trkpt lat="46.14446008428818" lon="9.300015088288367"><ele>220.5</ele><time>2026-04-11T14:35:40Z</time></trkpt><trkpt lat="46.144421034927134" lon="9.299922270309688"><ele>220.33333333333331</ele><time>2026-04-11T14:35:42Z</time></trkpt><trkpt lat="46.14436946397037" lon="9.299813455268337"><ele>220.16666666666666</ele><time>2026-04-11T14:36:05.001Z</time></trkpt><trkpt lat="46.14433164175022" lon="9.299739359002269"><ele>220.0</ele><time>2026-04-11T14:36:06.001Z</time></trkpt><trkpt lat="46.14429410453363" lon="9.299642058526851"><ele>220.5</ele><time>2026-04-11T14:36:07.001Z</time></trkpt><trkpt lat="46.14427246234989" lon="9.299489464245553"><ele>221.0</ele><time>2026-04-11T14:36:08.001Z</time></trkpt><trkpt lat="46.144250658249774" lon="9.299338921814108"><ele>221.5</ele><time>2026-04-11T14:36:09.001Z</time></trkpt><trkpt lat="46.14421524122847" lon="9.299130078751084"><ele>222.0</ele><time>2026-04-11T14:36:10.001Z</time></trkpt><trkpt lat="46.144170805575655" lon="9.298918895893499"><ele>221.0</ele><time>2026-04-11T14:36:11.001Z</time></trkpt><trkpt lat="46.14411706642195" lon="9.298697832655423"><ele>220.0</ele><time>2026-04-11T14:36:12.001Z</time></trkpt><trkpt lat="46.14406147058231" lon="9.298482583891762"><ele>219.0</ele><time>2026-04-11T14:36:13.001Z</time></trkpt><trkpt lat="46.14400709578854" lon="9.298272161258819"><ele>218.0</ele><time>2026-04-11T14:36:14.001Z</time></trkpt><trkpt lat="46.143954911874154" lon="9.298057864578949"><ele>217.0</ele><time>2026-04-11T14:36:15.001Z</time></trkpt><trkpt lat="46.143906992175594" lon="9.297841069022157"><ele>216.0</ele><time>2026-04-11T14:36:16.001Z</time></trkpt><trkpt lat="46.14386148694765" lon="9.297624294648925"><ele>216.0</ele><time>2026-04-11T14:36:17.001Z</time></trkpt><trkpt lat="46.14382023658942" lon="9.297414744417543"><ele>216.0</ele><time>2026-04-11T14:36:18.001Z</time></trkpt><trkpt lat="46.143783196358605" lon="9.297218050089494"><ele>216.0</ele><time>2026-04-11T14:36:19.001Z</time></trkpt><trkpt lat="46.143731429225916" lon="9.297028261422499"><ele>216.0</ele><time>2026-04-11T14:36:20.001Z</time></trkpt><trkpt lat="46.14367060656629" lon="9.296867933096102"><ele>216.5</ele><time>2026-04-11T14:36:21.001Z</time></trkpt><trkpt lat="46.14356432446365" lon="9.29673538821852"><ele>217.0</ele><time>2026-04-11T14:36:22.001Z</time></trkpt><trkpt lat="46.14343815512811" lon="9.2966255833073"><ele>217.5</ele><time>2026-04-11T14:36:23.001Z</time></trkpt><trkpt lat="46.14330918160042" lon="9.2965218907425"><ele>218.0</ele><time>2026-04-11T14:36:24.001Z</time></trkpt><trkpt lat="46.143177031020116" lon="9.296403480881345"><ele>218.0</ele><time>2026-04-11T14:36:25.001Z</time></trkpt><trkpt lat="46.14304563169799" lon="9.296274046250929"><ele>218.0</ele><time>2026-04-11T14:36:26.001Z</time></trkpt><trkpt lat="46.14291074345114" lon="9.296142518271306"><ele>218.0</ele><time>2026-04-11T14:36:27.001Z</time></trkpt><trkpt lat="46.14277867443656" lon="9.296009869057485"><ele>218.0</ele><time>2026-04-11T14:36:28.001Z</time></trkpt><trkpt lat="46.14264794696023" lon="9.295885502582122"><ele>218.0</ele><time>2026-04-11T14:36:29.001Z</time></trkpt><trkpt lat="46.14251874884459" lon="9.29576627539928"><ele>218.0</ele><time>2026-04-11T14:36:30.001Z</time></trkpt><trkpt lat="46.14239254924546" lon="9.295631406343759"><ele>216.66666666666669</ele><time>2026-04-11T14:36:31.001Z</time></trkpt><trkpt lat="46.142277246259845" lon="9.295463642144583"><ele>215.33333333333331</ele><time>2026-04-11T14:36:32.001Z</time></trkpt><trkpt lat="46.14217080074484" lon="9.295272072078562"><ele>214.0</ele><time>2026-04-11T14:36:33.001Z</time></trkpt><trkpt lat="46.1420799610487" lon="9.29506662247677"><ele>214.0</ele><time>2026-04-11T14:36:34Z</time></trkpt><trkpt lat="46.14198919120171" lon="9.294852974956179"><ele>214.0</ele><time>2026-04-11T14:36:35Z</time></trkpt><trkpt lat="46.141894119600806" lon="9.29464601078569"><ele>214.0</ele><time>2026-04-11T14:36:36Z</time></trkpt><trkpt lat="46.14179441941282" lon="9.294445044502528"><ele>214.0</ele><time>2026-04-11T14:36:37Z</time></trkpt><trkpt lat="46.141697432998825" lon="9.294239764071605"><ele>214.0</ele><time>2026-04-11T14:36:38Z</time></trkpt><trkpt lat="46.14160102574799" lon="9.294033016857826"><ele>214.0</ele><time>2026-04-11T14:36:39Z</time></trkpt><trkpt lat="46.14150465407346" lon="9.293823800730513"><ele>213.0</ele><time>2026-04-11T14:36:40Z</time></trkpt><trkpt lat="46.14140858009385" lon="9.29361268546052"><ele>212.0</ele><time>2026-04-11T14:36:41Z</time></trkpt><trkpt lat="46.14131160895717" lon="9.293397635628578"><ele>211.0</ele><time>2026-04-11T14:36:42Z</time></trkpt><trkpt lat="46.141212538621794" lon="9.293183754408576"><ele>211.0</ele><time>2026-04-11T14:36:43Z</time></trkpt><trkpt lat="46.14111178351738" lon="9.29297306216729"><ele>211.0</ele><time>2026-04-11T14:36:44Z</time></trkpt><trkpt lat="46.14101101304925" lon="9.29276438105445"><ele>211.0</ele><time>2026-04-11T14:36:45Z</time></trkpt><trkpt lat="46.14091173738454" lon="9.292551717908248"><ele>211.0</ele><time>2026-04-11T14:36:46Z</time></trkpt><trkpt lat="46.140810764008876" lon="9.292345213196777"><ele>211.0</ele><time>2026-04-11T14:36:47Z</time></trkpt><trkpt lat="46.14069869045179" lon="9.292150855160568"><ele>211.0</ele><time>2026-04-11T14:36:48Z</time></trkpt><trkpt lat="46.14057786791274" lon="9.291981191527897"><ele>210.33333333333331</ele><time>2026-04-11T14:36:49Z</time></trkpt><trkpt lat="46.14045764968322" lon="9.29183168800885"><ele>209.66666666666669</ele><time>2026-04-11T14:36:50Z</time></trkpt><trkpt lat="46.14033577787686" lon="9.29169797694232"><ele>209.0</ele><time>2026-04-11T14:36:51Z</time></trkpt><trkpt lat="46.140204778634505" lon="9.291590834135214"><ele>209.0</ele><time>2026-04-11T14:36:52Z</time></trkpt><trkpt lat="46.140070184845506" lon="9.291476028055806"><ele>209.0</ele><time>2026-04-11T14:36:53Z</time></trkpt><trkpt lat="46.13993609412108" lon="9.291363680463952"><ele>209.0</ele><time>2026-04-11T14:36:54Z</time></trkpt><trkpt lat="46.13980766088236" lon="9.291259911578138"><ele>208.25</ele><time>2026-04-11T14:36:55Z</time></trkpt><trkpt lat="46.13968992747914" lon="9.291134948418053"><ele>207.5</ele><time>2026-04-11T14:36:56Z</time></trkpt><trkpt lat="46.13955578378565" lon="9.291047644118038"><ele>206.75</ele><time>2026-04-11T14:36:57Z</time></trkpt><trkpt lat="46.139431489881694" lon="9.290941154660985"><ele>206.0</ele><time>2026-04-11T14:36:58Z</time></trkpt><trkpt lat="46.13932079008418" lon="9.290820033435521"><ele>206.0</ele><time>2026-04-11T14:36:59Z</time></trkpt><trkpt lat="46.13920482120365" lon="9.290721412103021"><ele>206.0</ele><time>2026-04-11T14:37:00Z</time></trkpt><trkpt lat="46.13908405996441" lon="9.290618715111425"><ele>206.0</ele><time>2026-04-11T14:37:01Z</time></trkpt><trkpt lat="46.138947996102765" lon="9.29050299941623"><ele>206.0</ele><time>2026-04-11T14:37:02Z</time></trkpt><trkpt lat="46.13879779248578" lon="9.290376049899326"><ele>205.33333333333334</ele><time>2026-04-11T14:37:03Z</time></trkpt><trkpt lat="46.138641221499455" lon="9.290243435829217"><ele>204.66666666666669</ele><time>2026-04-11T14:37:04Z</time></trkpt><trkpt lat="46.13847251965255" lon="9.290126722001249"><ele>204.0</ele><time>2026-04-11T14:37:05Z</time></trkpt><trkpt lat="46.13831501232848" lon="9.289986619804774"><ele>203.33333333333331</ele><time>2026-04-11T14:37:06Z</time></trkpt><trkpt lat="46.13815896386739" lon="9.2898548163321"><ele>202.66666666666666</ele><time>2026-04-11T14:37:07Z</time></trkpt><trkpt lat="46.13801174904244" lon="9.289732300202546"><ele>202.0</ele><time>2026-04-11T14:37:08Z</time></trkpt><trkpt lat="46.137870360130755" lon="9.289615632885498"><ele>202.0</ele><time>2026-04-11T14:37:09Z</time></trkpt><trkpt lat="46.13774271739727" lon="9.289482416572394"><ele>202.0</ele><time>2026-04-11T14:37:10Z</time></trkpt><trkpt lat="46.13760404265508" lon="9.289364300791217"><ele>202.0</ele><time>2026-04-11T14:37:11Z</time></trkpt><trkpt lat="46.13745935239138" lon="9.289241781468217"><ele>203.0</ele><time>2026-04-11T14:37:12Z</time></trkpt><trkpt lat="46.137310955538474" lon="9.289116086732038"><ele>204.0</ele><time>2026-04-11T14:37:13Z</time></trkpt><trkpt lat="46.137160741599935" lon="9.28898865948965"><ele>205.0</ele><time>2026-04-11T14:37:14Z</time></trkpt><trkpt lat="46.13700396680257" lon="9.288875840438898"><ele>205.66666666666666</ele><time>2026-04-11T14:37:15Z</time></trkpt><trkpt lat="46.136860835198966" lon="9.288748042755838"><ele>206.33333333333331</ele><time>2026-04-11T14:37:16Z</time></trkpt><trkpt lat="46.13672825160034" lon="9.288620618120168"><ele>207.0</ele><time>2026-04-11T14:37:17Z</time></trkpt><trkpt lat="46.13660255557837" lon="9.288505605942305"><ele>206.5</ele><time>2026-04-11T14:37:18Z</time></trkpt><trkpt lat="46.13648400392491" lon="9.28840003764766"><ele>206.0</ele><time>2026-04-11T14:37:19Z</time></trkpt><trkpt lat="46.13636722366407" lon="9.288295641655301"><ele>205.5</ele><time>2026-04-11T14:37:20Z</time></trkpt><trkpt lat="46.1362388250637" lon="9.288195169872536"><ele>205.0</ele><time>2026-04-11T14:37:21Z</time></trkpt><trkpt lat="46.136100809476005" lon="9.288092429115105"><ele>205.0</ele><time>2026-04-11T14:37:22Z</time></trkpt><trkpt lat="46.13596854048792" lon="9.287990365048445"><ele>205.0</ele><time>2026-04-11T14:37:23Z</time></trkpt><trkpt lat="46.13584739408967" lon="9.287888528597199"><ele>205.0</ele><time>2026-04-11T14:37:24Z</time></trkpt><trkpt lat="46.1357307663625" lon="9.287790112045702"><ele>205.0</ele><time>2026-04-11T14:37:25Z</time></trkpt><trkpt lat="46.13562268163374" lon="9.287700193544923"><ele>204.99999999999997</ele><time>2026-04-11T14:37:26Z</time></trkpt><trkpt lat="46.135534704164954" lon="9.287640724247492"><ele>205.0</ele><time>2026-04-11T14:37:27Z</time></trkpt><trkpt lat="46.135480598077955" lon="9.287584875249642"><ele>205.0</ele><time>2026-04-11T14:37:28Z</time></trkpt><trkpt lat="46.135414740686684" lon="9.287575616474788"><ele>205.0</ele><time>2026-04-11T14:37:30Z</time></trkpt><trkpt lat="46.13535413833748" lon="9.287517510939216"><ele>204.99999999999997</ele><time>2026-04-11T14:37:34Z</time></trkpt><trkpt lat="46.135302768276794" lon="9.287439047033665"><ele>205.0</ele><time>2026-04-11T14:37:35Z</time></trkpt><trkpt lat="46.13523495669533" lon="9.287342298886013"><ele>205.0</ele><time>2026-04-11T14:37:36Z</time></trkpt><trkpt lat="46.13513205899882" lon="9.287274945146121"><ele>205.0</ele><time>2026-04-11T14:37:37Z</time></trkpt><trkpt lat="46.135012113935886" lon="9.287220351854147"><ele>205.0</ele><time>2026-04-11T14:37:38Z</time></trkpt><trkpt lat="46.1349018756456" lon="9.287133381885395"><ele>205.0</ele><time>2026-04-11T14:37:39Z</time></trkpt><trkpt lat="46.13478094884754" lon="9.28705764855479"><ele>205.0</ele><time>2026-04-11T14:37:40Z</time></trkpt><trkpt lat="46.13464597744461" lon="9.286985960771347"><ele>205.0</ele><time>2026-04-11T14:37:41Z</time></trkpt><trkpt lat="46.13450476069085" lon="9.286926884972084"><ele>205.0</ele><time>2026-04-11T14:37:42Z</time></trkpt><trkpt lat="46.13435301296858" lon="9.286870226326862"><ele>205.0</ele><time>2026-04-11T14:37:43Z</time></trkpt><trkpt lat="46.13419355260159" lon="9.286819748800557"><ele>205.66666666666666</ele><time>2026-04-11T14:37:44Z</time></trkpt><trkpt lat="46.134031529455235" lon="9.28677592249908"><ele>206.33333333333331</ele><time>2026-04-11T14:37:45Z</time></trkpt><trkpt lat="46.1338714801109" lon="9.28674506452792"><ele>207.0</ele><time>2026-04-11T14:37:46Z</time></trkpt><trkpt lat="46.133717811909264" lon="9.286724266615455"><ele>207.0</ele><time>2026-04-11T14:37:47Z</time></trkpt><trkpt lat="46.13356282432157" lon="9.286705613575753"><ele>207.0</ele><time>2026-04-11T14:37:48Z</time></trkpt><trkpt lat="46.13339636115766" lon="9.28668630857051"><ele>207.0</ele><time>2026-04-11T14:37:49Z</time></trkpt><trkpt lat="46.13323956310233" lon="9.286664075225278"><ele>207.0</ele><time>2026-04-11T14:37:50Z</time></trkpt><trkpt lat="46.133093847040854" lon="9.286648613673941"><ele>207.0</ele><time>2026-04-11T14:37:51Z</time></trkpt><trkpt lat="46.132960722615735" lon="9.286636213732761"><ele>207.0</ele><time>2026-04-11T14:37:52Z</time></trkpt><trkpt lat="46.132846800142836" lon="9.286626044804642"><ele>207.0</ele><time>2026-04-11T14:37:53Z</time></trkpt><trkpt lat="46.132755874031915" lon="9.286615423840283"><ele>207.0</ele><time>2026-04-11T14:37:54Z</time></trkpt><trkpt lat="46.132687783438904" lon="9.286602733230652"><ele>207.0</ele><time>2026-04-11T14:37:55Z</time></trkpt><trkpt lat="46.13261449939318" lon="9.286592869018195"><ele>207.0</ele><time>2026-04-11T14:37:57Z</time></trkpt><trkpt lat="46.13250346610152" lon="9.286583189400544"><ele>207.0</ele><time>2026-04-11T14:38:06.001Z</time></trkpt><trkpt lat="46.13243078938271" lon="9.286572828554608"><ele>207.0</ele><time>2026-04-11T14:38:07.001Z</time></trkpt><trkpt lat="46.13236545447859" lon="9.286566660989964"><ele>207.0</ele><time>2026-04-11T14:38:08.001Z</time></trkpt><trkpt lat="46.13229533448353" lon="9.28653609059518"><ele>207.16666666666666</ele><time>2026-04-11T14:38:09.001Z</time></trkpt><trkpt lat="46.13222050930485" lon="9.286526621743137"><ele>207.33333333333331</ele><time>2026-04-11T14:38:10.001Z</time></trkpt><trkpt lat="46.13213662512011" lon="9.286538663571303"><ele>207.5</ele><time>2026-04-11T14:38:11.001Z</time></trkpt><trkpt lat="46.13204229259387" lon="9.286523288108382"><ele>207.66666666666666</ele><time>2026-04-11T14:38:12.001Z</time></trkpt><trkpt lat="46.13194906080707" lon="9.286508759706704"><ele>207.83333333333331</ele><time>2026-04-11T14:38:13.001Z</time></trkpt><trkpt lat="46.1318497032739" lon="9.286494466819601"><ele>208.0</ele><time>2026-04-11T14:38:14.001Z</time></trkpt><trkpt lat="46.13174856545153" lon="9.286482798548784"><ele>208.0</ele><time>2026-04-11T14:38:15.001Z</time></trkpt><trkpt lat="46.13164288499651" lon="9.286474812880307"><ele>208.0</ele><time>2026-04-11T14:38:16.001Z</time></trkpt><trkpt lat="46.131531935591205" lon="9.286466665513766"><ele>208.0</ele><time>2026-04-11T14:38:17.001Z</time></trkpt><trkpt lat="46.13141647427163" lon="9.286448967885825"><ele>208.0</ele><time>2026-04-11T14:38:18.001Z</time></trkpt><trkpt lat="46.13130279094966" lon="9.286430701239057"><ele>208.0</ele><time>2026-04-11T14:38:19.001Z</time></trkpt><trkpt lat="46.13118779097424" lon="9.286412639386704"><ele>207.5</ele><time>2026-04-11T14:38:20.001Z</time></trkpt><trkpt lat="46.131071503815846" lon="9.286383729397699"><ele>207.0</ele><time>2026-04-11T14:38:21.001Z</time></trkpt><trkpt lat="46.13095341302774" lon="9.286344610090303"><ele>206.5</ele><time>2026-04-11T14:38:22.001Z</time></trkpt><trkpt lat="46.130826331329224" lon="9.286306317606291"><ele>206.0</ele><time>2026-04-11T14:38:23.001Z</time></trkpt><trkpt lat="46.130692767900385" lon="9.286263361050942"><ele>205.75</ele><time>2026-04-11T14:38:24Z</time></trkpt><trkpt lat="46.13056622992999" lon="9.286217732641207"><ele>205.5</ele><time>2026-04-11T14:38:25Z</time></trkpt><trkpt lat="46.13044025631015" lon="9.286174977268557"><ele>205.25</ele><time>2026-04-11T14:38:26Z</time></trkpt><trkpt lat="46.13031485879893" lon="9.2861312044215"><ele>205.0</ele><time>2026-04-11T14:38:27Z</time></trkpt><trkpt lat="46.130191402900394" lon="9.286084862664126"><ele>205.0</ele><time>2026-04-11T14:38:28Z</time></trkpt><trkpt lat="46.130066432510716" lon="9.286031363492654"><ele>205.0</ele><time>2026-04-11T14:38:29Z</time></trkpt><trkpt lat="46.12994622955002" lon="9.285971385140003"><ele>205.0</ele><time>2026-04-11T14:38:30Z</time></trkpt><trkpt lat="46.1298246971939" lon="9.285891820583924"><ele>205.0</ele><time>2026-04-11T14:38:31Z</time></trkpt><trkpt lat="46.12970127119726" lon="9.285804378703752"><ele>204.75</ele><time>2026-04-11T14:38:32Z</time></trkpt><trkpt lat="46.12958307375648" lon="9.285712122895404"><ele>204.5</ele><time>2026-04-11T14:38:33Z</time></trkpt><trkpt lat="46.129475986931844" lon="9.285614470307687"><ele>204.25</ele><time>2026-04-11T14:38:34Z</time></trkpt><trkpt lat="46.12938420230637" lon="9.28552621888266"><ele>204.0</ele><time>2026-04-11T14:38:35Z</time></trkpt><trkpt lat="46.12929381555178" lon="9.285443624428156"><ele>204.0</ele><time>2026-04-11T14:38:36Z</time></trkpt><trkpt lat="46.12920121415735" lon="9.285373787370434"><ele>204.0</ele><time>2026-04-11T14:38:37Z</time></trkpt><trkpt lat="46.129116903545544" lon="9.285290207288345"><ele>204.0</ele><time>2026-04-11T14:38:38Z</time></trkpt><trkpt lat="46.12903422836918" lon="9.28522041720252"><ele>204.0</ele><time>2026-04-11T14:38:39Z</time></trkpt><trkpt lat="46.12894556939387" lon="9.285147680630324"><ele>204.0</ele><time>2026-04-11T14:38:40Z</time></trkpt><trkpt lat="46.12885217220688" lon="9.285075714412164"><ele>203.6</ele><time>2026-04-11T14:38:41Z</time></trkpt><trkpt lat="46.12875746709069" lon="9.284989828158377"><ele>203.2</ele><time>2026-04-11T14:38:42Z</time></trkpt><trkpt lat="46.12866741991851" lon="9.28491754122318"><ele>202.79999999999998</ele><time>2026-04-11T14:38:43Z</time></trkpt><trkpt lat="46.128574549418836" lon="9.284845201979417"><ele>202.39999999999998</ele><time>2026-04-11T14:38:44Z</time></trkpt><trkpt lat="46.12848725287978" lon="9.284770373528616"><ele>202.0</ele><time>2026-04-11T14:38:45Z</time></trkpt><trkpt lat="46.128399175236275" lon="9.284677405892255"><ele>202.6</ele><time>2026-04-11T14:38:46Z</time></trkpt><trkpt lat="46.12830913035419" lon="9.284607108748709"><ele>203.2</ele><time>2026-04-11T14:38:47Z</time></trkpt><trkpt lat="46.12823012921051" lon="9.284537685503594"><ele>203.8</ele><time>2026-04-11T14:38:48Z</time></trkpt><trkpt lat="46.12814776305425" lon="9.284474288426013"><ele>204.4</ele><time>2026-04-11T14:38:49Z</time></trkpt><trkpt lat="46.128065526336485" lon="9.284394441186247"><ele>205.0</ele><time>2026-04-11T14:38:50Z</time></trkpt><trkpt lat="46.12797604135772" lon="9.284325967613892"><ele>205.0</ele><time>2026-04-11T14:38:51Z</time></trkpt><trkpt lat="46.127888711204015" lon="9.28424906009972"><ele>205.0</ele><time>2026-04-11T14:38:52Z</time></trkpt><trkpt lat="46.12780409465939" lon="9.28417365956507"><ele>205.0</ele><time>2026-04-11T14:38:53Z</time></trkpt><trkpt lat="46.127726853031" lon="9.284108620550683"><ele>205.0</ele><time>2026-04-11T14:38:54Z</time></trkpt><trkpt lat="46.12766081702769" lon="9.284050907635802"><ele>205.0</ele><time>2026-04-11T14:38:55Z</time></trkpt><trkpt lat="46.12757007321486" lon="9.283953351963513"><ele>205.4</ele><time>2026-04-11T14:38:57Z</time></trkpt><trkpt lat="46.12749893246942" lon="9.283851273001126"><ele>205.8</ele><time>2026-04-11T14:38:59Z</time></trkpt><trkpt lat="46.127434727304525" lon="9.2837453526304"><ele>206.2</ele><time>2026-04-11T14:39:01Z</time></trkpt><trkpt lat="46.127373858901436" lon="9.283615718905533"><ele>206.6</ele><time>2026-04-11T14:39:03Z</time></trkpt><trkpt lat="46.12734213872857" lon="9.283525385033249"><ele>207.0</ele><time>2026-04-11T14:39:04Z</time></trkpt><trkpt lat="46.127310366988794" lon="9.283416843904929"><ele>207.0</ele><time>2026-04-11T14:39:05Z</time></trkpt><trkpt lat="46.127279795885606" lon="9.283306786888144"><ele>207.0</ele><time>2026-04-11T14:39:06Z</time></trkpt><trkpt lat="46.12725237642874" lon="9.283206158350474"><ele>207.0</ele><time>2026-04-11T14:39:07Z</time></trkpt><trkpt lat="46.12722862723402" lon="9.283117845551866"><ele>207.0</ele><time>2026-04-11T14:39:08Z</time></trkpt><trkpt lat="46.127190404150774" lon="9.28297672804193"><ele>207.0</ele><time>2026-04-11T14:39:10Z</time></trkpt><trkpt lat="46.1271603635845" lon="9.282823463330455"><ele>207.0</ele><time>2026-04-11T14:39:12Z</time></trkpt><trkpt lat="46.12716109502654" lon="9.282674713339047"><ele>207.5</ele><time>2026-04-11T14:39:14Z</time></trkpt><trkpt lat="46.12713623051462" lon="9.282567765147828"><ele>208.0</ele><time>2026-04-11T14:39:16Z</time></trkpt><trkpt lat="46.12708508066798" lon="9.28250596498325"><ele>208.5</ele><time>2026-04-11T14:39:17Z</time></trkpt><trkpt lat="46.1270303222007" lon="9.2824359802372"><ele>209.0</ele><time>2026-04-11T14:39:18Z</time></trkpt><trkpt lat="46.126966289124404" lon="9.28234252554813"><ele>209.5</ele><time>2026-04-11T14:39:19Z</time></trkpt><trkpt lat="46.12689343984558" lon="9.282218043426573"><ele>210.0</ele><time>2026-04-11T14:39:20Z</time></trkpt><trkpt lat="46.126747600703546" lon="9.282121089006228"><ele>210.25</ele><time>2026-04-11T14:39:21Z</time></trkpt><trkpt lat="46.12661340207055" lon="9.282022810070217"><ele>210.5</ele><time>2026-04-11T14:39:22Z</time></trkpt><trkpt lat="46.12651315685269" lon="9.281952000542526"><ele>210.75</ele><time>2026-04-11T14:39:23Z</time></trkpt><trkpt lat="46.12643003897566" lon="9.281895230926832"><ele>211.0</ele><time>2026-04-11T14:39:24Z</time></trkpt><trkpt lat="46.12634184668255" lon="9.281832130022895"><ele>210.20000000000002</ele><time>2026-04-11T14:39:25Z</time></trkpt><trkpt lat="46.12623961564905" lon="9.281756655647948"><ele>209.4</ele><time>2026-04-11T14:39:26Z</time></trkpt><trkpt lat="46.126129160398" lon="9.281677302971024"><ele>208.6</ele><time>2026-04-11T14:39:27Z</time></trkpt><trkpt lat="46.12602948957409" lon="9.28160410891109"><ele>207.8</ele><time>2026-04-11T14:39:28Z</time></trkpt><trkpt lat="46.1259414878884" lon="9.28153791825908"><ele>207.0</ele><time>2026-04-11T14:39:29Z</time></trkpt><trkpt lat="46.125858704582136" lon="9.28147780939963"><ele>207.0</ele><time>2026-04-11T14:39:30Z</time></trkpt><trkpt lat="46.12577215110162" lon="9.281414175911253"><ele>207.0</ele><time>2026-04-11T14:39:31Z</time></trkpt><trkpt lat="46.125685489258395" lon="9.281354305012657"><ele>207.0</ele><time>2026-04-11T14:39:32Z</time></trkpt><trkpt lat="46.12559998640066" lon="9.28130215683435"><ele>207.0</ele><time>2026-04-11T14:39:33Z</time></trkpt><trkpt lat="46.125512881350296" lon="9.281267508131316"><ele>207.0</ele><time>2026-04-11T14:39:34Z</time></trkpt><trkpt lat="46.12540985264827" lon="9.281266219423498"><ele>207.0</ele><time>2026-04-11T14:39:35Z</time></trkpt><trkpt lat="46.125291004796075" lon="9.281309462069727"><ele>207.0</ele><time>2026-04-11T14:39:36Z</time></trkpt><trkpt lat="46.12515467189955" lon="9.281366522712101"><ele>207.0</ele><time>2026-04-11T14:39:37Z</time></trkpt><trkpt lat="46.12500878698632" lon="9.28144789085832"><ele>207.0</ele><time>2026-04-11T14:39:38Z</time></trkpt><trkpt lat="46.12485826282799" lon="9.281530331454212"><ele>206.66666666666669</ele><time>2026-04-11T14:39:39Z</time></trkpt><trkpt lat="46.124700056119224" lon="9.281613735931014"><ele>206.33333333333334</ele><time>2026-04-11T14:39:40Z</time></trkpt><trkpt lat="46.12455588915726" lon="9.281712782131708"><ele>206.0</ele><time>2026-04-11T14:39:41Z</time></trkpt><trkpt lat="46.124413151457134" lon="9.281785773802246"><ele>206.0</ele><time>2026-04-11T14:39:42Z</time></trkpt><trkpt lat="46.124267371264054" lon="9.281863135452088"><ele>206.0</ele><time>2026-04-11T14:39:43Z</time></trkpt><trkpt lat="46.12411757869542" lon="9.281940883592432"><ele>206.0</ele><time>2026-04-11T14:39:44Z</time></trkpt><trkpt lat="46.1239756522628" lon="9.282014193480942"><ele>206.25</ele><time>2026-04-11T14:39:45Z</time></trkpt><trkpt lat="46.12384138446469" lon="9.282085758859873"><ele>206.5</ele><time>2026-04-11T14:39:46Z</time></trkpt><trkpt lat="46.1237255721845" lon="9.282153290458616"><ele>206.75</ele><time>2026-04-11T14:39:47Z</time></trkpt><trkpt lat="46.1236206099808" lon="9.282192494365722"><ele>207.0</ele><time>2026-04-11T14:39:48Z</time></trkpt><trkpt lat="46.12351612323403" lon="9.282149961628638"><ele>207.0</ele><time>2026-04-11T14:39:49Z</time></trkpt><trkpt lat="46.12341916176961" lon="9.282071852458463"><ele>207.0</ele><time>2026-04-11T14:39:50Z</time></trkpt><trkpt lat="46.12336867102055" lon="9.281892776823588"><ele>207.0</ele><time>2026-04-11T14:39:51Z</time></trkpt><trkpt lat="46.12330255250177" lon="9.281719745733035"><ele>207.0</ele><time>2026-04-11T14:39:52Z</time></trkpt><trkpt lat="46.1232446366198" lon="9.281524670521518"><ele>206.0</ele><time>2026-04-11T14:39:53Z</time></trkpt><trkpt lat="46.12317144330119" lon="9.281359299074682"><ele>205.0</ele><time>2026-04-11T14:39:54Z</time></trkpt><trkpt lat="46.1231014293711" lon="9.281194286349473"><ele>204.0</ele><time>2026-04-11T14:39:55Z</time></trkpt><trkpt lat="46.1230320024922" lon="9.281029249808002"><ele>203.0</ele><time>2026-04-11T14:39:56Z</time></trkpt><trkpt lat="46.1229671371454" lon="9.280857631254138"><ele>203.0</ele><time>2026-04-11T14:39:57Z</time></trkpt><trkpt lat="46.12290936750301" lon="9.280692356717894"><ele>203.0</ele><time>2026-04-11T14:39:58Z</time></trkpt><trkpt lat="46.12285784127167" lon="9.280533559631388"><ele>203.0</ele><time>2026-04-11T14:39:59Z</time></trkpt><trkpt lat="46.12281211796629" lon="9.280368756118648"><ele>203.0</ele><time>2026-04-11T14:40:00Z</time></trkpt><trkpt lat="46.122762630801574" lon="9.280207454122436"><ele>202.8</ele><time>2026-04-11T14:40:01Z</time></trkpt><trkpt lat="46.12269229086862" lon="9.280062514832618"><ele>202.60000000000002</ele><time>2026-04-11T14:40:02Z</time></trkpt><trkpt lat="46.12264797131256" lon="9.279934240134185"><ele>202.39999999999998</ele><time>2026-04-11T14:40:03Z</time></trkpt><trkpt lat="46.12260713096" lon="9.279808177013505"><ele>202.2</ele><time>2026-04-11T14:40:05Z</time></trkpt><trkpt lat="46.122569928281706" lon="9.279720151539776"><ele>202.0</ele><time>2026-04-11T14:40:13Z</time></trkpt><trkpt lat="46.122501164446554" lon="9.279556023162785"><ele>202.8</ele><time>2026-04-11T14:40:15Z</time></trkpt><trkpt lat="46.1224453620487" lon="9.279448170423256"><ele>203.6</ele><time>2026-04-11T14:40:16Z</time></trkpt><trkpt lat="46.12238270370138" lon="9.279344428771916"><ele>204.4</ele><time>2026-04-11T14:40:17Z</time></trkpt><trkpt lat="46.122302270878805" lon="9.279235394449161"><ele>205.20000000000002</ele><time>2026-04-11T14:40:18Z</time></trkpt><trkpt lat="46.122211429617735" lon="9.279146463520108"><ele>206.0</ele><time>2026-04-11T14:40:19Z</time></trkpt><trkpt lat="46.12211405939249" lon="9.279089873804253"><ele>206.20000000000002</ele><time>2026-04-11T14:40:20Z</time></trkpt><trkpt lat="46.12201445457169" lon="9.279062638448503"><ele>206.4</ele><time>2026-04-11T14:40:21Z</time></trkpt><trkpt lat="46.121916247771736" lon="9.27905438236354"><ele>206.6</ele><time>2026-04-11T14:40:22Z</time></trkpt><trkpt lat="46.12181511161859" lon="9.279062356355626"><ele>206.8</ele><time>2026-04-11T14:40:23Z</time></trkpt><trkpt lat="46.12171695200863" lon="9.279087897078753"><ele>207.0</ele><time>2026-04-11T14:40:24Z</time></trkpt><trkpt lat="46.12161403459392" lon="9.279135678735049"><ele>215.0</ele><time>2026-04-11T14:40:25Z</time></trkpt><trkpt lat="46.12151403432151" lon="9.279218294463437"><ele>223.0</ele><time>2026-04-11T14:40:26Z</time></trkpt><trkpt lat="46.121424668381664" lon="9.279328360119635"><ele>231.0</ele><time>2026-04-11T14:40:27Z</time></trkpt><trkpt lat="46.12134487312665" lon="9.279451543174916"><ele>239.0</ele><time>2026-04-11T14:40:28Z</time></trkpt><trkpt lat="46.12124817723566" lon="9.279539869438025"><ele>239.0</ele><time>2026-04-11T14:40:29Z</time></trkpt><trkpt lat="46.12114141708153" lon="9.279624777226822"><ele>239.0</ele><time>2026-04-11T14:40:30Z</time></trkpt><trkpt lat="46.12101062522339" lon="9.279655382164247"><ele>239.0</ele><time>2026-04-11T14:40:31Z</time></trkpt><trkpt lat="46.120868720784955" lon="9.279666406675721"><ele>239.0</ele><time>2026-04-11T14:40:32Z</time></trkpt><trkpt lat="46.12072658053446" lon="9.279658046346215"><ele>235.0</ele><time>2026-04-11T14:40:33Z</time></trkpt><trkpt lat="46.12059808721114" lon="9.279683551876111"><ele>231.0</ele><time>2026-04-11T14:40:34Z</time></trkpt><trkpt lat="46.12047624688172" lon="9.279734157461158"><ele>227.0</ele><time>2026-04-11T14:40:35Z</time></trkpt><trkpt lat="46.120352761726906" lon="9.279786160885013"><ele>223.0</ele><time>2026-04-11T14:40:36Z</time></trkpt><trkpt lat="46.12022975975093" lon="9.279828050323779"><ele>223.0</ele><time>2026-04-11T14:40:37Z</time></trkpt><trkpt lat="46.120096240868094" lon="9.279860069219946"><ele>223.0</ele><time>2026-04-11T14:40:38Z</time></trkpt><trkpt lat="46.11994484796823" lon="9.27987461029996"><ele>223.0</ele><time>2026-04-11T14:40:39Z</time></trkpt><trkpt lat="46.11978680889178" lon="9.279881720234997"><ele>223.0</ele><time>2026-04-11T14:40:40Z</time></trkpt><trkpt lat="46.11962015797034" lon="9.279876341107785"><ele>231.33333333333331</ele><time>2026-04-11T14:40:41Z</time></trkpt><trkpt lat="46.11944686521294" lon="9.279848841037271"><ele>239.66666666666669</ele><time>2026-04-11T14:40:42Z</time></trkpt><trkpt lat="46.11927463858638" lon="9.279809301217414"><ele>248.0</ele><time>2026-04-11T14:40:43Z</time></trkpt><trkpt lat="46.11910486648143" lon="9.279770175158692"><ele>260.33333333333337</ele><time>2026-04-11T14:40:44Z</time></trkpt><trkpt lat="46.11894964881888" lon="9.279682614969815"><ele>272.6666666666667</ele><time>2026-04-11T14:40:45Z</time></trkpt><trkpt lat="46.11879481779379" lon="9.279585625801356"><ele>285.0</ele><time>2026-04-11T14:40:46Z</time></trkpt><trkpt lat="46.11864952164521" lon="9.279457793508449"><ele>285.0</ele><time>2026-04-11T14:40:47.076Z</time></trkpt><trkpt lat="46.118526609356636" lon="9.279333836694365"><ele>285.0</ele><time>2026-04-11T14:40:48.05Z</time></trkpt><trkpt lat="46.11841086285803" lon="9.279206153875077"><ele>285.0</ele><time>2026-04-11T14:40:49.048Z</time></trkpt><trkpt lat="46.11830465561361" lon="9.279073565844353"><ele>285.0</ele><time>2026-04-11T14:40:50.047Z</time></trkpt><trkpt lat="46.11801396340843" lon="9.278631376429903"><ele>285.3333333333333</ele><time>2026-04-11T14:40:53.136Z</time></trkpt><trkpt lat="46.11789394522745" lon="9.278455228168538"><ele>285.66666666666663</ele><time>2026-04-11T14:40:54.136Z</time></trkpt><trkpt lat="46.11777272189991" lon="9.278280189649216"><ele>286.0</ele><time>2026-04-11T14:40:55.137Z</time></trkpt><trkpt lat="46.117650854510934" lon="9.278106979398704"><ele>294.0</ele><time>2026-04-11T14:40:56.136Z</time></trkpt><trkpt lat="46.11753096446801" lon="9.27793140746742"><ele>302.0</ele><time>2026-04-11T14:40:57.136Z</time></trkpt><trkpt lat="46.11741118958035" lon="9.277754872680813"><ele>310.0</ele><time>2026-04-11T14:40:58.136Z</time></trkpt><trkpt lat="46.11727945905603" lon="9.27759521951587"><ele>304.0</ele><time>2026-04-11T14:40:59.136Z</time></trkpt><trkpt lat="46.11717119144501" lon="9.277402588908359"><ele>298.0</ele><time>2026-04-11T14:41:00.136Z</time></trkpt><trkpt lat="46.11705096247463" lon="9.27722660020621"><ele>292.0</ele><time>2026-04-11T14:41:01.137Z</time></trkpt><trkpt lat="46.11691897580862" lon="9.277067551518293"><ele>292.0</ele><time>2026-04-11T14:41:02.136Z</time></trkpt><trkpt lat="46.1168106817709" lon="9.2768748822242"><ele>292.0</ele><time>2026-04-11T14:41:03.136Z</time></trkpt><trkpt lat="46.11667866075322" lon="9.276715783260036"><ele>292.0</ele><time>2026-04-11T14:41:04.136Z</time></trkpt><trkpt lat="46.11655881303944" lon="9.27653954486591"><ele>289.66666666666663</ele><time>2026-04-11T14:41:05.136Z</time></trkpt><trkpt lat="46.11645081427972" lon="9.276346415982632"><ele>287.3333333333333</ele><time>2026-04-11T14:41:06.136Z</time></trkpt><trkpt lat="46.116319125587324" lon="9.276186912276737"><ele>285.0</ele><time>2026-04-11T14:41:07.136Z</time></trkpt><trkpt lat="46.11621114708808" lon="9.275993813197193"><ele>285.0</ele><time>2026-04-11T14:41:08.136Z</time></trkpt><trkpt lat="46.11609127728809" lon="9.275817458521422"><ele>285.0</ele><time>2026-04-11T14:41:09.136Z</time></trkpt><trkpt lat="46.115971348380796" lon="9.275641127081203"><ele>285.0</ele><time>2026-04-11T14:41:10.136Z</time></trkpt><trkpt lat="46.11583905923461" lon="9.275482434884712"><ele>281.6666666666667</ele><time>2026-04-11T14:41:11.136Z</time></trkpt><trkpt lat="46.11571862997669" lon="9.275306952251748"><ele>278.33333333333337</ele><time>2026-04-11T14:41:12.136Z</time></trkpt><trkpt lat="46.11561002339801" lon="9.27511462490822"><ele>275.0</ele><time>2026-04-11T14:41:13.136Z</time></trkpt><trkpt lat="46.11547827001396" lon="9.27495525133919"><ele>275.0</ele><time>2026-04-11T14:41:14.136Z</time></trkpt><trkpt lat="46.115358370407215" lon="9.274779055213799"><ele>275.0</ele><time>2026-04-11T14:41:15.136Z</time></trkpt><trkpt lat="46.115250115640606" lon="9.27458628171539"><ele>275.0</ele><time>2026-04-11T14:41:16.136Z</time></trkpt><trkpt lat="46.115129810643026" lon="9.274410592113195"><ele>272.6666666666667</ele><time>2026-04-11T14:41:17.136Z</time></trkpt><trkpt lat="46.114997645376455" lon="9.27425169236722"><ele>270.3333333333333</ele><time>2026-04-11T14:41:18.136Z</time></trkpt><trkpt lat="46.11487734977298" lon="9.274076016481928"><ele>268.0</ele><time>2026-04-11T14:41:19.136Z</time></trkpt><trkpt lat="46.114756974877494" lon="9.273900224801084"><ele>273.3333333333333</ele><time>2026-04-11T14:41:20.137Z</time></trkpt><trkpt lat="46.11464855026424" lon="9.273707774692301"><ele>278.6666666666667</ele><time>2026-04-11T14:41:21.137Z</time></trkpt><trkpt lat="46.11452881983383" lon="9.273531793523114"><ele>284.0</ele><time>2026-04-11T14:41:22.136Z</time></trkpt><trkpt lat="46.114398390962485" lon="9.273370147950633"><ele>284.0</ele><time>2026-04-11T14:41:23.136Z</time></trkpt><trkpt lat="46.114280257959216" lon="9.27319142274273"><ele>284.0</ele><time>2026-04-11T14:41:24.136Z</time></trkpt><trkpt lat="46.11417117139239" lon="9.27299915103515"><ele>284.0</ele><time>2026-04-11T14:41:25.136Z</time></trkpt><trkpt lat="46.11404450623205" lon="9.272830692431823"><ele>286.5</ele><time>2026-04-11T14:41:26.136Z</time></trkpt><trkpt lat="46.11390228400353" lon="9.27269076291553"><ele>289.0</ele><time>2026-04-11T14:41:27.136Z</time></trkpt><trkpt lat="46.113776672556405" lon="9.272520694537612"><ele>291.5</ele><time>2026-04-11T14:41:28.136Z</time></trkpt><trkpt lat="46.1136902" lon="9.2724609"><ele>294.0</ele><time>2026-04-11T14:41:29.136Z</time></trkpt><trkpt lat="46.091412047585045" lon="9.278915643120042"><ele>267.3333333333333</ele><time>2026-04-11T14:43:47Z</time></trkpt><trkpt lat="46.09125896674906" lon="9.278945979518397"><ele>240.66666666666666</ele><time>2026-04-11T14:43:48Z</time></trkpt><trkpt lat="46.09106868123645" lon="9.27898407372582"><ele>214.0</ele><time>2026-04-11T14:43:49Z</time></trkpt><trkpt lat="46.09093327913626" lon="9.279030036635787"><ele>214.0</ele><time>2026-04-11T14:43:50Z</time></trkpt><trkpt lat="46.09080078640016" lon="9.279071918182376"><ele>214.0</ele><time>2026-04-11T14:43:51Z</time></trkpt><trkpt lat="46.0906743558251" lon="9.279090833557717"><ele>214.0</ele><time>2026-04-11T14:43:52Z</time></trkpt><trkpt lat="46.09054701776635" lon="9.279094109109874"><ele>214.0</ele><time>2026-04-11T14:43:53.001Z</time></trkpt><trkpt lat="46.09041520869777" lon="9.279067586258627"><ele>214.25</ele><time>2026-04-11T14:43:54.001Z</time></trkpt><trkpt lat="46.090294187851185" lon="9.279030505598099"><ele>214.5</ele><time>2026-04-11T14:43:55.001Z</time></trkpt><trkpt lat="46.09017568741879" lon="9.278975100568164"><ele>214.75</ele><time>2026-04-11T14:43:56.001Z</time></trkpt><trkpt lat="46.09005201583885" lon="9.278906357018075"><ele>215.0</ele><time>2026-04-11T14:43:57.001Z</time></trkpt><trkpt lat="46.08994487919051" lon="9.278800729822311"><ele>215.25</ele><time>2026-04-11T14:43:58.001Z</time></trkpt><trkpt lat="46.089836608092185" lon="9.278714349139726"><ele>215.5</ele><time>2026-04-11T14:43:59.001Z</time></trkpt><trkpt lat="46.08971650701898" lon="9.27866119024299"><ele>215.75</ele><time>2026-04-11T14:44:00.001Z</time></trkpt><trkpt lat="46.08960542860639" lon="9.278608387378117"><ele>216.0</ele><time>2026-04-11T14:44:01.001Z</time></trkpt><trkpt lat="46.08949552669185" lon="9.278568181920134"><ele>216.0</ele><time>2026-04-11T14:44:02.001Z</time></trkpt><trkpt lat="46.08938278190827" lon="9.278518528098253"><ele>216.0</ele><time>2026-04-11T14:44:03.001Z</time></trkpt><trkpt lat="46.08926826528549" lon="9.278467243676168"><ele>216.0</ele><time>2026-04-11T14:44:04.001Z</time></trkpt><trkpt lat="46.08915179646605" lon="9.278389761928176"><ele>216.0</ele><time>2026-04-11T14:44:05.001Z</time></trkpt><trkpt lat="46.0890407029749" lon="9.278294121938014"><ele>215.66666666666669</ele><time>2026-04-11T14:44:06.001Z</time></trkpt><trkpt lat="46.08893337470927" lon="9.278150720186044"><ele>215.33333333333334</ele><time>2026-04-11T14:44:07.001Z</time></trkpt><trkpt lat="46.08879322257029" lon="9.278024310357763"><ele>215.0</ele><time>2026-04-11T14:44:08.001Z</time></trkpt><trkpt lat="46.08866982278334" lon="9.27786244842237"><ele>215.0</ele><time>2026-04-11T14:44:09.001Z</time></trkpt><trkpt lat="46.08856341776426" lon="9.277693303078824"><ele>215.0</ele><time>2026-04-11T14:44:10.001Z</time></trkpt><trkpt lat="46.08846014903262" lon="9.277547267015803"><ele>215.0</ele><time>2026-04-11T14:44:11.001Z</time></trkpt><trkpt lat="46.08837991872731" lon="9.277455797957906"><ele>215.0</ele><time>2026-04-11T14:44:12.001Z</time></trkpt><trkpt lat="46.08830192064279" lon="9.277381943833644"><ele>214.2</ele><time>2026-04-11T14:44:13.001Z</time></trkpt><trkpt lat="46.08821608908233" lon="9.277336712180848"><ele>213.4</ele><time>2026-04-11T14:44:14.001Z</time></trkpt><trkpt lat="46.08811964692795" lon="9.27731664563872"><ele>212.60000000000002</ele><time>2026-04-11T14:44:15Z</time></trkpt><trkpt lat="46.08801009824237" lon="9.277301180818302"><ele>211.8</ele><time>2026-04-11T14:44:16Z</time></trkpt><trkpt lat="46.08789306321777" lon="9.277279200637148"><ele>211.0</ele><time>2026-04-11T14:44:17Z</time></trkpt><trkpt lat="46.08775541970288" lon="9.277246743066343"><ele>219.0</ele><time>2026-04-11T14:44:18Z</time></trkpt><trkpt lat="46.08759752956547" lon="9.277194443324294"><ele>227.0</ele><time>2026-04-11T14:44:19Z</time></trkpt><trkpt lat="46.087420912323275" lon="9.277152791505621"><ele>235.0</ele><time>2026-04-11T14:44:20Z</time></trkpt><trkpt lat="46.08723352308936" lon="9.27710859931756"><ele>235.0</ele><time>2026-04-11T14:44:21Z</time></trkpt><trkpt lat="46.08703988577101" lon="9.277066613658286"><ele>235.0</ele><time>2026-04-11T14:44:22Z</time></trkpt><trkpt lat="46.08685236467849" lon="9.277027610823037"><ele>235.0</ele><time>2026-04-11T14:44:23Z</time></trkpt><trkpt lat="46.08666938264152" lon="9.2770251413388"><ele>231.0</ele><time>2026-04-11T14:44:24Z</time></trkpt><trkpt lat="46.08648425946938" lon="9.277071979576167"><ele>227.0</ele><time>2026-04-11T14:44:25Z</time></trkpt><trkpt lat="46.08630453292187" lon="9.277166199266151"><ele>223.0</ele><time>2026-04-11T14:44:26Z</time></trkpt><trkpt lat="46.086123762542556" lon="9.27728707572412"><ele>223.0</ele><time>2026-04-11T14:44:27Z</time></trkpt><trkpt lat="46.08594366807379" lon="9.277418195080271"><ele>223.0</ele><time>2026-04-11T14:44:28Z</time></trkpt><trkpt lat="46.085760589801325" lon="9.277531530532869"><ele>223.0</ele><time>2026-04-11T14:44:29Z</time></trkpt><trkpt lat="46.085572848812944" lon="9.277626353737165"><ele>227.0</ele><time>2026-04-11T14:44:30Z</time></trkpt><trkpt lat="46.08537877932597" lon="9.277699683042712"><ele>231.0</ele><time>2026-04-11T14:44:31Z</time></trkpt><trkpt lat="46.085188443225306" lon="9.277734714555992"><ele>235.0</ele><time>2026-04-11T14:44:32Z</time></trkpt><trkpt lat="46.0850050824922" lon="9.277781019729497"><ele>231.66666666666666</ele><time>2026-04-11T14:44:33Z</time></trkpt><trkpt lat="46.08483218102886" lon="9.277843358650514"><ele>228.33333333333331</ele><time>2026-04-11T14:44:34Z</time></trkpt><trkpt lat="46.084659766364446" lon="9.277870698662728"><ele>225.0</ele><time>2026-04-11T14:44:35Z</time></trkpt><trkpt lat="46.08448200461104" lon="9.277861272123676"><ele>225.0</ele><time>2026-04-11T14:44:36Z</time></trkpt><trkpt lat="46.08429819173793" lon="9.277804526076636"><ele>225.0</ele><time>2026-04-11T14:44:37Z</time></trkpt><trkpt lat="46.084120082823326" lon="9.27770367131897"><ele>225.0</ele><time>2026-04-11T14:44:38Z</time></trkpt><trkpt lat="46.08395935086592" lon="9.277540261124747"><ele>226.66666666666669</ele><time>2026-04-11T14:44:39Z</time></trkpt><trkpt lat="46.08378953718575" lon="9.277390824209476"><ele>228.33333333333334</ele><time>2026-04-11T14:44:40Z</time></trkpt><trkpt lat="46.083635180397" lon="9.277212009686512"><ele>230.0</ele><time>2026-04-11T14:44:41Z</time></trkpt><trkpt lat="46.083473734641146" lon="9.277045044810633"><ele>230.0</ele><time>2026-04-11T14:44:42Z</time></trkpt><trkpt lat="46.083301861117825" lon="9.276900162925607"><ele>230.0</ele><time>2026-04-11T14:44:43Z</time></trkpt><trkpt lat="46.083120438047054" lon="9.276804734822937"><ele>230.0</ele><time>2026-04-11T14:44:44Z</time></trkpt><trkpt lat="46.082935299809336" lon="9.276752649199965"><ele>225.0</ele><time>2026-04-11T14:44:45Z</time></trkpt><trkpt lat="46.08274734673745" lon="9.276708975880942"><ele>220.0</ele><time>2026-04-11T14:44:46Z</time></trkpt><trkpt lat="46.08256762012454" lon="9.276659216038292"><ele>215.0</ele><time>2026-04-11T14:44:47Z</time></trkpt><trkpt lat="46.08240111306284" lon="9.276591261923997"><ele>214.75</ele><time>2026-04-11T14:44:48Z</time></trkpt><trkpt lat="46.08224214534165" lon="9.276563596874071"><ele>214.5</ele><time>2026-04-11T14:44:49Z</time></trkpt><trkpt lat="46.082108691132774" lon="9.27648917335883"><ele>214.25</ele><time>2026-04-11T14:44:50Z</time></trkpt><trkpt lat="46.081978398704386" lon="9.276433783590587"><ele>214.0</ele><time>2026-04-11T14:44:51Z</time></trkpt><trkpt lat="46.08184561245687" lon="9.276400202105549"><ele>219.25</ele><time>2026-04-11T14:44:52Z</time></trkpt><trkpt lat="46.08172175418454" lon="9.276341903059118"><ele>224.5</ele><time>2026-04-11T14:44:53Z</time></trkpt><trkpt lat="46.08159549355924" lon="9.276286353826967"><ele>229.75</ele><time>2026-04-11T14:44:54Z</time></trkpt><trkpt lat="46.08147679024568" lon="9.276235591434927"><ele>235.0</ele><time>2026-04-11T14:44:55Z</time></trkpt><trkpt lat="46.08136391062158" lon="9.276191465848505"><ele>239.25</ele><time>2026-04-11T14:44:56Z</time></trkpt><trkpt lat="46.08125229738841" lon="9.276144705878714"><ele>243.5</ele><time>2026-04-11T14:44:57Z</time></trkpt><trkpt lat="46.08113451788492" lon="9.27609834480794"><ele>247.75</ele><time>2026-04-11T14:44:58Z</time></trkpt><trkpt lat="46.081006950243136" lon="9.276031270430897"><ele>252.0</ele><time>2026-04-11T14:44:59Z</time></trkpt><trkpt lat="46.08087526302485" lon="9.275976159388508"><ele>253.5</ele><time>2026-04-11T14:45:00Z</time></trkpt><trkpt lat="46.08074270981702" lon="9.275921734994345"><ele>255.0</ele><time>2026-04-11T14:45:01Z</time></trkpt><trkpt lat="46.080614710010586" lon="9.27586962422217"><ele>256.5</ele><time>2026-04-11T14:45:02Z</time></trkpt><trkpt lat="46.080479538883935" lon="9.275832550636505"><ele>258.0</ele><time>2026-04-11T14:45:03Z</time></trkpt><trkpt lat="46.08034056767353" lon="9.275728428386953"><ele>258.0</ele><time>2026-04-11T14:45:04Z</time></trkpt><trkpt lat="46.080204503767085" lon="9.275672438032277"><ele>258.0</ele><time>2026-04-11T14:45:05Z</time></trkpt><trkpt lat="46.08007355803074" lon="9.275606797741178"><ele>258.0</ele><time>2026-04-11T14:45:06.059Z</time></trkpt><trkpt lat="46.07994391653686" lon="9.275587608750008"><ele>258.0</ele><time>2026-04-11T14:45:07.065Z</time></trkpt><trkpt lat="46.07981809654912" lon="9.275575240932168"><ele>274.5</ele><time>2026-04-11T14:45:08.06Z</time></trkpt><trkpt lat="46.07969011337685" lon="9.275568544367106"><ele>291.0</ele><time>2026-04-11T14:45:09.057Z</time></trkpt><trkpt lat="46.077847126308995" lon="9.276277612665748"><ele>263.0</ele><time>2026-04-11T14:45:12.135Z</time></trkpt><trkpt lat="46.07724825993442" lon="9.276559202553583"><ele>263.0</ele><time>2026-04-11T14:45:13.135Z</time></trkpt><trkpt lat="46.076647592905296" lon="9.276831080696903"><ele>280.0</ele><time>2026-04-11T14:45:14.135Z</time></trkpt><trkpt lat="46.0760408383128" lon="9.277072933174992"><ele>291.0</ele><time>2026-04-11T14:45:15.135Z</time></trkpt><trkpt lat="46.0754260436988" lon="9.277265644814493"><ele>265.0</ele><time>2026-04-11T14:45:16.135Z</time></trkpt><trkpt lat="46.07479945890087" lon="9.277352642496286"><ele>265.0</ele><time>2026-04-11T14:45:17.135Z</time></trkpt><trkpt lat="46.074170645719676" lon="9.277330969898825"><ele>294.0</ele><time>2026-04-11T14:45:18.135Z</time></trkpt><trkpt lat="46.073546357533786" lon="9.27721412059859"><ele>275.5</ele><time>2026-04-11T14:45:19.135Z</time></trkpt><trkpt lat="46.0732306" lon="9.2771044"><ele>257.0</ele><time>2026-04-11T14:45:20.135Z</time></trkpt><trkpt lat="46.07197819965062" lon="9.276346097884646"><ele>249.66666666666669</ele><time>2026-04-11T14:46:05Z</time></trkpt><trkpt lat="46.07185162964728" lon="9.276292000957067"><ele>242.33333333333331</ele><time>2026-04-11T14:46:06Z</time></trkpt><trkpt lat="46.07171292668091" lon="9.276183172950498"><ele>235.0</ele><time>2026-04-11T14:46:07Z</time></trkpt><trkpt lat="46.07158590871108" lon="9.276021458163695"><ele>233.33333333333331</ele><time>2026-04-11T14:46:08Z</time></trkpt><trkpt lat="46.07145252185482" lon="9.275903213704083"><ele>231.66666666666669</ele><time>2026-04-11T14:46:09Z</time></trkpt><trkpt lat="46.071327267740166" lon="9.275772060665359"><ele>230.0</ele><time>2026-04-11T14:46:10Z</time></trkpt><trkpt lat="46.07120641136468" lon="9.27564705341243"><ele>233.75</ele><time>2026-04-11T14:46:11.001Z</time></trkpt><trkpt lat="46.071081194579655" lon="9.275520340987201"><ele>237.5</ele><time>2026-04-11T14:46:12.001Z</time></trkpt><trkpt lat="46.0709572335555" lon="9.275394926718556"><ele>241.25</ele><time>2026-04-11T14:46:13.001Z</time></trkpt><trkpt lat="46.07084445651644" lon="9.275286520297529"><ele>245.0</ele><time>2026-04-11T14:46:14.001Z</time></trkpt><trkpt lat="46.07074079165911" lon="9.275187628509016"><ele>246.0</ele><time>2026-04-11T14:46:15.001Z</time></trkpt><trkpt lat="46.07061352929365" lon="9.275039032123956"><ele>247.0</ele><time>2026-04-11T14:46:16.001Z</time></trkpt><trkpt lat="46.07048486004267" lon="9.274913420260347"><ele>248.0</ele><time>2026-04-11T14:46:17.001Z</time></trkpt><trkpt lat="46.070364397002365" lon="9.274795682076734"><ele>246.0</ele><time>2026-04-11T14:46:18.001Z</time></trkpt><trkpt lat="46.07024666072259" lon="9.274680411859393"><ele>244.0</ele><time>2026-04-11T14:46:19.001Z</time></trkpt><trkpt lat="46.07012734691268" lon="9.274563595650097"><ele>242.0</ele><time>2026-04-11T14:46:20.001Z</time></trkpt><trkpt lat="46.07000626605454" lon="9.2744450492607"><ele>240.0</ele><time>2026-04-11T14:46:21.055Z</time></trkpt><trkpt lat="46.0698890151375" lon="9.274330252718746"><ele>240.0</ele><time>2026-04-11T14:46:22.05Z</time></trkpt><trkpt lat="46.06977348766811" lon="9.27421544915644"><ele>240.0</ele><time>2026-04-11T14:46:23.051Z</time></trkpt><trkpt lat="46.06791218927735" lon="9.272602448996771"><ele>228.0</ele><time>2026-04-11T14:46:32Z</time></trkpt><trkpt lat="46.06772341300218" lon="9.272509259108476"><ele>216.0</ele><time>2026-04-11T14:46:33Z</time></trkpt><trkpt lat="46.06750519397406" lon="9.272400258598868"><ele>204.0</ele><time>2026-04-11T14:46:34Z</time></trkpt><trkpt lat="46.06731874036362" lon="9.27234881495571"><ele>203.66666666666669</ele><time>2026-04-11T14:46:35Z</time></trkpt><trkpt lat="46.067137766910065" lon="9.272274800067528"><ele>203.33333333333334</ele><time>2026-04-11T14:46:36Z</time></trkpt><trkpt lat="46.066971429576625" lon="9.272162350392481"><ele>203.0</ele><time>2026-04-11T14:46:37Z</time></trkpt><trkpt lat="46.06681434021107" lon="9.27205461070503"><ele>203.0</ele><time>2026-04-11T14:46:38Z</time></trkpt><trkpt lat="46.06665960016697" lon="9.27188874322702"><ele>203.0</ele><time>2026-04-11T14:46:39Z</time></trkpt><trkpt lat="46.066521113204246" lon="9.271719563110166"><ele>203.0</ele><time>2026-04-11T14:46:40Z</time></trkpt><trkpt lat="46.0664045144432" lon="9.271510896177558"><ele>202.33333333333334</ele><time>2026-04-11T14:46:41Z</time></trkpt><trkpt lat="46.06629796767545" lon="9.27128453227268"><ele>201.66666666666669</ele><time>2026-04-11T14:46:42Z</time></trkpt><trkpt lat="46.066200638948324" lon="9.271041685269594"><ele>201.0</ele><time>2026-04-11T14:46:43Z</time></trkpt><trkpt lat="46.06609527240861" lon="9.27080754725026"><ele>202.0</ele><time>2026-04-11T14:46:44Z</time></trkpt><trkpt lat="46.0660035759229" lon="9.27057025050259"><ele>203.0</ele><time>2026-04-11T14:46:45Z</time></trkpt><trkpt lat="46.06591789048218" lon="9.270357072896267"><ele>204.0</ele><time>2026-04-11T14:46:46Z</time></trkpt><trkpt lat="46.06583676724644" lon="9.270154605108152"><ele>204.0</ele><time>2026-04-11T14:46:47Z</time></trkpt><trkpt lat="46.065749125605215" lon="9.2699548280627"><ele>204.0</ele><time>2026-04-11T14:46:48Z</time></trkpt><trkpt lat="46.065655259149054" lon="9.269777118027896"><ele>204.0</ele><time>2026-04-11T14:46:49Z</time></trkpt><trkpt lat="46.06555141210877" lon="9.269627017588638"><ele>204.0</ele><time>2026-04-11T14:46:50Z</time></trkpt><trkpt lat="46.065427499985425" lon="9.2695139149239"><ele>204.0</ele><time>2026-04-11T14:46:51Z</time></trkpt><trkpt lat="46.06528816972177" lon="9.269418144678019"><ele>204.0</ele><time>2026-04-11T14:46:52Z</time></trkpt><trkpt lat="46.06514787673955" lon="9.26935231332569"><ele>204.0</ele><time>2026-04-11T14:46:53Z</time></trkpt><trkpt lat="46.06501096985587" lon="9.26931807301806"><ele>203.79999999999998</ele><time>2026-04-11T14:46:54Z</time></trkpt><trkpt lat="46.06488124463996" lon="9.26930101836887"><ele>203.6</ele><time>2026-04-11T14:46:55Z</time></trkpt><trkpt lat="46.06476052712653" lon="9.269284793241313"><ele>203.4</ele><time>2026-04-11T14:46:56Z</time></trkpt><trkpt lat="46.06468960479449" lon="9.269275057904023"><ele>203.2</ele><time>2026-04-11T14:46:57Z</time></trkpt><trkpt lat="46.064615938457834" lon="9.269267916465992"><ele>203.0</ele><time>2026-04-11T14:46:59Z</time></trkpt><trkpt lat="46.06453902862313" lon="9.269259352741804"><ele>203.0</ele><time>2026-04-11T14:47:00Z</time></trkpt><trkpt lat="46.0644473959299" lon="9.269244071159493"><ele>203.0</ele><time>2026-04-11T14:47:01Z</time></trkpt><trkpt lat="46.0643504996723" lon="9.26922291539655"><ele>203.0</ele><time>2026-04-11T14:47:02Z</time></trkpt><trkpt lat="46.06426348385784" lon="9.269206067705893"><ele>203.0</ele><time>2026-04-11T14:47:03Z</time></trkpt><trkpt lat="46.06417779109699" lon="9.269185495321194"><ele>203.0</ele><time>2026-04-11T14:47:04Z</time></trkpt><trkpt lat="46.06407281031461" lon="9.269168069619688"><ele>203.25</ele><time>2026-04-11T14:47:05Z</time></trkpt><trkpt lat="46.063954477111615" lon="9.269145542414087"><ele>203.5</ele><time>2026-04-11T14:47:06Z</time></trkpt><trkpt lat="46.06382861397359" lon="9.269122018420791"><ele>203.75</ele><time>2026-04-11T14:47:07Z</time></trkpt><trkpt lat="46.063702041409115" lon="9.269099682649523"><ele>204.0</ele><time>2026-04-11T14:47:08Z</time></trkpt><trkpt lat="46.06356477550964" lon="9.269075817776379"><ele>204.0</ele><time>2026-04-11T14:47:09Z</time></trkpt><trkpt lat="46.06342163269448" lon="9.269048141187648"><ele>204.0</ele><time>2026-04-11T14:47:10Z</time></trkpt><trkpt lat="46.06327072277893" lon="9.269024477416998"><ele>204.0</ele><time>2026-04-11T14:47:11Z</time></trkpt><trkpt lat="46.06311716045843" lon="9.268994450263122"><ele>203.5</ele><time>2026-04-11T14:47:12Z</time></trkpt><trkpt lat="46.06296883693936" lon="9.268950830937293"><ele>203.0</ele><time>2026-04-11T14:47:13Z</time></trkpt><trkpt lat="46.06283003331799" lon="9.268875280195957"><ele>202.5</ele><time>2026-04-11T14:47:14Z</time></trkpt><trkpt lat="46.062701458434404" lon="9.26877306969544"><ele>202.0</ele><time>2026-04-11T14:47:15Z</time></trkpt><trkpt lat="46.062592753613536" lon="9.268628358050782"><ele>202.0</ele><time>2026-04-11T14:47:16Z</time></trkpt><trkpt lat="46.062475969017534" lon="9.268488050939826"><ele>202.0</ele><time>2026-04-11T14:47:17Z</time></trkpt><trkpt lat="46.062384738445246" lon="9.268307813348166"><ele>202.0</ele><time>2026-04-11T14:47:18Z</time></trkpt><trkpt lat="46.06231000964119" lon="9.268108523825958"><ele>201.25</ele><time>2026-04-11T14:47:19Z</time></trkpt><trkpt lat="46.062246291119486" lon="9.267906272307757"><ele>200.5</ele><time>2026-04-11T14:47:20Z</time></trkpt><trkpt lat="46.06218990184037" lon="9.267713252608322"><ele>199.75</ele><time>2026-04-11T14:47:21Z</time></trkpt><trkpt lat="46.062128135139304" lon="9.267522010262176"><ele>199.0</ele><time>2026-04-11T14:47:22Z</time></trkpt><trkpt lat="46.06206206398971" lon="9.26732803305004"><ele>200.0</ele><time>2026-04-11T14:47:23Z</time></trkpt><trkpt lat="46.06198599410248" lon="9.267138689239534"><ele>201.0</ele><time>2026-04-11T14:47:24Z</time></trkpt><trkpt lat="46.0618912904807" lon="9.266971506127488"><ele>202.0</ele><time>2026-04-11T14:47:25Z</time></trkpt><trkpt lat="46.06178278774663" lon="9.266848439688264"><ele>203.0</ele><time>2026-04-11T14:47:26Z</time></trkpt><trkpt lat="46.06167790394752" lon="9.266737642532242"><ele>202.0</ele><time>2026-04-11T14:47:27Z</time></trkpt><trkpt lat="46.06160724821501" lon="9.26661037453625"><ele>201.0</ele><time>2026-04-11T14:47:28Z</time></trkpt><trkpt lat="46.061546384648096" lon="9.266482015784977"><ele>200.0</ele><time>2026-04-11T14:47:29Z</time></trkpt><trkpt lat="46.061489311461294" lon="9.266341298818107"><ele>199.0</ele><time>2026-04-11T14:47:30Z</time></trkpt><trkpt lat="46.06145569130255" lon="9.26617646580358"><ele>199.0</ele><time>2026-04-11T14:47:31Z</time></trkpt><trkpt lat="46.061424584699445" lon="9.266011448060528"><ele>199.0</ele><time>2026-04-11T14:47:32Z</time></trkpt><trkpt lat="46.06138773969101" lon="9.265833692787325"><ele>199.0</ele><time>2026-04-11T14:47:33Z</time></trkpt><trkpt lat="46.06133104274603" lon="9.265658529694832"><ele>199.0</ele><time>2026-04-11T14:47:34Z</time></trkpt><trkpt lat="46.061252933818594" lon="9.265489597745441"><ele>200.5</ele><time>2026-04-11T14:47:35Z</time></trkpt><trkpt lat="46.06116235433477" lon="9.26533783388003"><ele>202.0</ele><time>2026-04-11T14:47:36Z</time></trkpt><trkpt lat="46.0610593823456" lon="9.265196759141533"><ele>203.5</ele><time>2026-04-11T14:47:37Z</time></trkpt><trkpt lat="46.06095292159793" lon="9.265046041282735"><ele>205.0</ele><time>2026-04-11T14:47:38Z</time></trkpt><trkpt lat="46.060850980941815" lon="9.264910335319554"><ele>205.0</ele><time>2026-04-11T14:47:39Z</time></trkpt><trkpt lat="46.06075426868596" lon="9.264782275703222"><ele>205.0</ele><time>2026-04-11T14:47:40Z</time></trkpt><trkpt lat="46.06065988033896" lon="9.264653074345677"><ele>205.0</ele><time>2026-04-11T14:47:41Z</time></trkpt><trkpt lat="46.06056641123298" lon="9.264521588719449"><ele>205.0</ele><time>2026-04-11T14:47:42Z</time></trkpt><trkpt lat="46.06047321636779" lon="9.264391995564138"><ele>205.0</ele><time>2026-04-11T14:47:43Z</time></trkpt><trkpt lat="46.06040607766311" lon="9.26423910311176"><ele>205.0</ele><time>2026-04-11T14:47:44Z</time></trkpt><trkpt lat="46.06033888445504" lon="9.264080800623054"><ele>205.0</ele><time>2026-04-11T14:47:45Z</time></trkpt><trkpt lat="46.06027208402261" lon="9.263927799742458"><ele>205.0</ele><time>2026-04-11T14:47:46Z</time></trkpt><trkpt lat="46.06023024653696" lon="9.263757061046379"><ele>204.0</ele><time>2026-04-11T14:47:47Z</time></trkpt><trkpt lat="46.060163416237245" lon="9.26358773904879"><ele>203.0</ele><time>2026-04-11T14:47:48Z</time></trkpt><trkpt lat="46.060073371109446" lon="9.263430882780536"><ele>202.0</ele><time>2026-04-11T14:47:49Z</time></trkpt><trkpt lat="46.05997162081508" lon="9.263287797795488"><ele>201.0</ele><time>2026-04-11T14:47:50Z</time></trkpt><trkpt lat="46.059870615477045" lon="9.263146193658141"><ele>202.75</ele><time>2026-04-11T14:47:51Z</time></trkpt><trkpt lat="46.05977301592694" lon="9.26299899447061"><ele>204.5</ele><time>2026-04-11T14:47:52Z</time></trkpt><trkpt lat="46.05967507761049" lon="9.262848654833682"><ele>206.25</ele><time>2026-04-11T14:47:53Z</time></trkpt><trkpt lat="46.05957657129024" lon="9.26269719300631"><ele>208.0</ele><time>2026-04-11T14:47:54Z</time></trkpt><trkpt lat="46.059477054730095" lon="9.262544486457228"><ele>208.0</ele><time>2026-04-11T14:47:55Z</time></trkpt><trkpt lat="46.05937566690785" lon="9.262393368063096"><ele>208.0</ele><time>2026-04-11T14:47:56Z</time></trkpt><trkpt lat="46.059291884072316" lon="9.2622286559542"><ele>208.0</ele><time>2026-04-11T14:47:57Z</time></trkpt><trkpt lat="46.059188822869494" lon="9.262089843730973"><ele>208.0</ele><time>2026-04-11T14:47:58Z</time></trkpt><trkpt lat="46.05909718663142" lon="9.261930477309235"><ele>207.25</ele><time>2026-04-11T14:47:59Z</time></trkpt><trkpt lat="46.0590048283777" lon="9.261769621587987"><ele>206.5</ele><time>2026-04-11T14:48:00Z</time></trkpt><trkpt lat="46.05891167212983" lon="9.261612443598493"><ele>205.75</ele><time>2026-04-11T14:48:01Z</time></trkpt><trkpt lat="46.058818780388506" lon="9.261466291502847"><ele>205.0</ele><time>2026-04-11T14:48:02Z</time></trkpt><trkpt lat="46.058726564858276" lon="9.261325686185517"><ele>206.0</ele><time>2026-04-11T14:48:03Z</time></trkpt><trkpt lat="46.05861905832962" lon="9.26120732395142"><ele>207.0</ele><time>2026-04-11T14:48:04Z</time></trkpt><trkpt lat="46.058503352679026" lon="9.261107183670411"><ele>208.0</ele><time>2026-04-11T14:48:05Z</time></trkpt><trkpt lat="46.05837806682687" lon="9.261033219334871"><ele>209.0</ele><time>2026-04-11T14:48:06Z</time></trkpt><trkpt lat="46.0582461309191" lon="9.260974218541616"><ele>209.0</ele><time>2026-04-11T14:48:07Z</time></trkpt><trkpt lat="46.058125400090944" lon="9.260912405561662"><ele>209.0</ele><time>2026-04-11T14:48:08Z</time></trkpt><trkpt lat="46.05800956144642" lon="9.260819660236496"><ele>209.0</ele><time>2026-04-11T14:48:09Z</time></trkpt><trkpt lat="46.05789041816881" lon="9.260704678920359"><ele>209.0</ele><time>2026-04-11T14:48:10Z</time></trkpt><trkpt lat="46.05779460873886" lon="9.260541816259739"><ele>208.75</ele><time>2026-04-11T14:48:11Z</time></trkpt><trkpt lat="46.0576903366696" lon="9.260415629645653"><ele>208.5</ele><time>2026-04-11T14:48:12Z</time></trkpt><trkpt lat="46.057594622216634" lon="9.260275293477575"><ele>208.25</ele><time>2026-04-11T14:48:13Z</time></trkpt><trkpt lat="46.05747408685105" lon="9.260167590675897"><ele>208.0</ele><time>2026-04-11T14:48:14Z</time></trkpt><trkpt lat="46.057340651265406" lon="9.260087783093459"><ele>208.0</ele><time>2026-04-11T14:48:15Z</time></trkpt><trkpt lat="46.0572114541716" lon="9.260024327800208"><ele>208.0</ele><time>2026-04-11T14:48:16.001Z</time></trkpt><trkpt lat="46.0570925306711" lon="9.259937508834595"><ele>208.0</ele><time>2026-04-11T14:48:17.001Z</time></trkpt><trkpt lat="46.05698022722123" lon="9.259827268452355"><ele>208.0</ele><time>2026-04-11T14:48:18.001Z</time></trkpt><trkpt lat="46.05687656412553" lon="9.259699953722658"><ele>209.0</ele><time>2026-04-11T14:48:19.001Z</time></trkpt><trkpt lat="46.05677885837131" lon="9.259562964693938"><ele>210.0</ele><time>2026-04-11T14:48:20.001Z</time></trkpt><trkpt lat="46.056671428355294" lon="9.259427856109678"><ele>211.0</ele><time>2026-04-11T14:48:21.001Z</time></trkpt><trkpt lat="46.05656022431833" lon="9.259302033451883"><ele>212.0</ele><time>2026-04-11T14:48:22.001Z</time></trkpt><trkpt lat="46.05645183217318" lon="9.259192783266688"><ele>212.0</ele><time>2026-04-11T14:48:23.001Z</time></trkpt><trkpt lat="46.056347675636815" lon="9.259094446217786"><ele>212.0</ele><time>2026-04-11T14:48:24.001Z</time></trkpt><trkpt lat="46.05624245294679" lon="9.258990139647286"><ele>212.0</ele><time>2026-04-11T14:48:25.001Z</time></trkpt><trkpt lat="46.056132916177084" lon="9.258883691891413"><ele>212.0</ele><time>2026-04-11T14:48:26.001Z</time></trkpt><trkpt lat="46.05602337772261" lon="9.258785698692494"><ele>215.75</ele><time>2026-04-11T14:48:27.001Z</time></trkpt><trkpt lat="46.05590667259922" lon="9.258714400466822"><ele>219.5</ele><time>2026-04-11T14:48:28.001Z</time></trkpt><trkpt lat="46.055786104886785" lon="9.258673318805844"><ele>223.25</ele><time>2026-04-11T14:48:29.001Z</time></trkpt><trkpt lat="46.05565694941716" lon="9.258680974522917"><ele>227.0</ele><time>2026-04-11T14:48:30.001Z</time></trkpt><trkpt lat="46.055528433017194" lon="9.25871315230462"><ele>227.0</ele><time>2026-04-11T14:48:31.001Z</time></trkpt><trkpt lat="46.05539658112413" lon="9.258757473903614"><ele>227.0</ele><time>2026-04-11T14:48:32.001Z</time></trkpt><trkpt lat="46.05526235625661" lon="9.258799729618486"><ele>227.0</ele><time>2026-04-11T14:48:33Z</time></trkpt><trkpt lat="46.05513385908122" lon="9.258831271442032"><ele>227.0</ele><time>2026-04-11T14:48:34Z</time></trkpt><trkpt lat="46.05500228905993" lon="9.25885855303267"><ele>227.5</ele><time>2026-04-11T14:48:35Z</time></trkpt><trkpt lat="46.05487456684692" lon="9.258878220099811"><ele>228.0</ele><time>2026-04-11T14:48:36Z</time></trkpt><trkpt lat="46.054746942722296" lon="9.258898078071331"><ele>228.5</ele><time>2026-04-11T14:48:37Z</time></trkpt><trkpt lat="46.05462284386241" lon="9.258919655423645"><ele>229.0</ele><time>2026-04-11T14:48:38Z</time></trkpt><trkpt lat="46.054497991703975" lon="9.258940021653322"><ele>227.5</ele><time>2026-04-11T14:48:39Z</time></trkpt><trkpt lat="46.05437472311284" lon="9.25896098200363"><ele>226.0</ele><time>2026-04-11T14:48:40Z</time></trkpt><trkpt lat="46.0542531746451" lon="9.258980020814594"><ele>224.5</ele><time>2026-04-11T14:48:41Z</time></trkpt><trkpt lat="46.05413133392267" lon="9.258992130661186"><ele>223.0</ele><time>2026-04-11T14:48:42Z</time></trkpt><trkpt lat="46.05400438203438" lon="9.258987722395084"><ele>223.0</ele><time>2026-04-11T14:48:43Z</time></trkpt><trkpt lat="46.053875623628464" lon="9.258968962781353"><ele>223.0</ele><time>2026-04-11T14:48:44Z</time></trkpt><trkpt lat="46.05374339614517" lon="9.25893779861573"><ele>223.0</ele><time>2026-04-11T14:48:45Z</time></trkpt><trkpt lat="46.05361320419855" lon="9.258913079370302"><ele>223.0</ele><time>2026-04-11T14:48:46Z</time></trkpt><trkpt lat="46.05348176600311" lon="9.25891514899838"><ele>224.0</ele><time>2026-04-11T14:48:47Z</time></trkpt><trkpt lat="46.05335262112983" lon="9.258930997441825"><ele>225.0</ele><time>2026-04-11T14:48:48Z</time></trkpt><trkpt lat="46.05322476803734" lon="9.25894381948084"><ele>226.0</ele><time>2026-04-11T14:48:49Z</time></trkpt><trkpt lat="46.053098906174" lon="9.258947903098276"><ele>227.0</ele><time>2026-04-11T14:48:50Z</time></trkpt><trkpt lat="46.05297070574661" lon="9.258947035300103"><ele>227.0</ele><time>2026-04-11T14:48:51Z</time></trkpt><trkpt lat="46.05284575069463" lon="9.258941018215177"><ele>227.0</ele><time>2026-04-11T14:48:52Z</time></trkpt><trkpt lat="46.05271565107383" lon="9.258919762820858"><ele>227.0</ele><time>2026-04-11T14:48:53Z</time></trkpt><trkpt lat="46.05258444106178" lon="9.258876918711058"><ele>227.0</ele><time>2026-04-11T14:48:54Z</time></trkpt><trkpt lat="46.052460235190054" lon="9.2588277030507"><ele>223.75</ele><time>2026-04-11T14:48:55Z</time></trkpt><trkpt lat="46.05234328974787" lon="9.25875886428594"><ele>220.5</ele><time>2026-04-11T14:48:56Z</time></trkpt><trkpt lat="46.052227439663916" lon="9.258670265950457"><ele>217.25</ele><time>2026-04-11T14:48:57Z</time></trkpt><trkpt lat="46.05210972589613" lon="9.258561370012409"><ele>214.0</ele><time>2026-04-11T14:48:58Z</time></trkpt><trkpt lat="46.05199954817196" lon="9.258437635252832"><ele>214.0</ele><time>2026-04-11T14:48:59Z</time></trkpt><trkpt lat="46.051896238764236" lon="9.258302563144246"><ele>214.0</ele><time>2026-04-11T14:49:00Z</time></trkpt><trkpt lat="46.05180488506976" lon="9.258140813228502"><ele>214.0</ele><time>2026-04-11T14:49:01Z</time></trkpt><trkpt lat="46.051691418033336" lon="9.258007728446971"><ele>214.0</ele><time>2026-04-11T14:49:02Z</time></trkpt><trkpt lat="46.051586433398974" lon="9.257877520043396"><ele>215.0</ele><time>2026-04-11T14:49:03Z</time></trkpt><trkpt lat="46.051463939442215" lon="9.257767542863093"><ele>216.0</ele><time>2026-04-11T14:49:04Z</time></trkpt><trkpt lat="46.05132952503881" lon="9.257680671473885"><ele>217.0</ele><time>2026-04-11T14:49:05Z</time></trkpt><trkpt lat="46.05118539625149" lon="9.257606102773755"><ele>218.0</ele><time>2026-04-11T14:49:06Z</time></trkpt><trkpt lat="46.05104569513302" lon="9.257502294558748"><ele>218.0</ele><time>2026-04-11T14:49:07Z</time></trkpt><trkpt lat="46.05089866849428" lon="9.257417253754802"><ele>218.0</ele><time>2026-04-11T14:49:08Z</time></trkpt><trkpt lat="46.05075097463592" lon="9.257355707490682"><ele>218.0</ele><time>2026-04-11T14:49:09Z</time></trkpt><trkpt lat="46.05061212364244" lon="9.257275201756226"><ele>219.5</ele><time>2026-04-11T14:49:10Z</time></trkpt><trkpt lat="46.05047757223865" lon="9.257198294639599"><ele>221.0</ele><time>2026-04-11T14:49:11Z</time></trkpt><trkpt lat="46.05034728290774" lon="9.257114143276597"><ele>222.5</ele><time>2026-04-11T14:49:12Z</time></trkpt><trkpt lat="46.05022253957885" lon="9.257017492283804"><ele>224.0</ele><time>2026-04-11T14:49:13Z</time></trkpt><trkpt lat="46.05010426087641" lon="9.256897798700754"><ele>224.0</ele><time>2026-04-11T14:49:14Z</time></trkpt><trkpt lat="46.04999089604155" lon="9.256752791130666"><ele>224.0</ele><time>2026-04-11T14:49:15Z</time></trkpt><trkpt lat="46.049894161806414" lon="9.256585804885747"><ele>224.0</ele><time>2026-04-11T14:49:16Z</time></trkpt><trkpt lat="46.04981819120113" lon="9.25641230005622"><ele>224.0</ele><time>2026-04-11T14:49:17Z</time></trkpt><trkpt lat="46.049744227760094" lon="9.256246543468372"><ele>223.66666666666669</ele><time>2026-04-11T14:49:18Z</time></trkpt><trkpt lat="46.04966706669363" lon="9.256078085887927"><ele>223.33333333333331</ele><time>2026-04-11T14:49:19Z</time></trkpt><trkpt lat="46.049583390561" lon="9.255896158941331"><ele>223.0</ele><time>2026-04-11T14:49:20Z</time></trkpt><trkpt lat="46.0494922187785" lon="9.255708852309496"><ele>239.66666666666666</ele><time>2026-04-11T14:49:21Z</time></trkpt><trkpt lat="46.04938723018563" lon="9.255524994654621"><ele>256.3333333333333</ele><time>2026-04-11T14:49:22Z</time></trkpt><trkpt lat="46.04927625274356" lon="9.255352250535909"><ele>273.0</ele><time>2026-04-11T14:49:23Z</time></trkpt><trkpt lat="46.04916251096091" lon="9.2551932486436"><ele>275.25</ele><time>2026-04-11T14:49:24Z</time></trkpt><trkpt lat="46.049043874546896" lon="9.25504989632083"><ele>277.5</ele><time>2026-04-11T14:49:25Z</time></trkpt><trkpt lat="46.04892298715583" lon="9.254919891875241"><ele>279.75</ele><time>2026-04-11T14:49:26Z</time></trkpt><trkpt lat="46.0489073425972" lon="9.254802849889526"><ele>282.0</ele><time>2026-04-11T14:49:27Z</time></trkpt><trkpt lat="46.048797481718346" lon="9.254711875652267"><ele>282.0</ele><time>2026-04-11T14:49:28Z</time></trkpt><trkpt lat="46.04868166339412" lon="9.254628275972424"><ele>282.0</ele><time>2026-04-11T14:49:29.053Z</time></trkpt><trkpt lat="46.0473045757027" lon="9.254235172560033"><ele>233.0</ele><time>2026-04-11T14:49:32.134Z</time></trkpt><trkpt lat="46.04560713463877" lon="9.25345570460494"><ele>233.0</ele><time>2026-04-11T14:49:36.134Z</time></trkpt><trkpt lat="46.04520972936659" lon="9.253152477347937"><ele>248.5</ele><time>2026-04-11T14:49:37.134Z</time></trkpt><trkpt lat="46.044811965998846" lon="9.252851541303151"><ele>264.0</ele><time>2026-04-11T14:49:38.134Z</time></trkpt><trkpt lat="46.04441485323206" lon="9.252547995411913"><ele>253.0</ele><time>2026-04-11T14:49:39.134Z</time></trkpt><trkpt lat="46.044017811741526" lon="9.252244330703919"><ele>242.0</ele><time>2026-04-11T14:49:40.134Z</time></trkpt><trkpt lat="46.0465793987757" lon="9.253839724257373"><ele>242.0</ele><time>2026-04-11T14:49:41Z</time></trkpt><trkpt lat="46.046398155017336" lon="9.253973438147089"><ele>242.0</ele><time>2026-04-11T14:49:42Z</time></trkpt><trkpt lat="46.046252652572036" lon="9.25385429628781"><ele>242.0</ele><time>2026-04-11T14:49:43Z</time></trkpt><trkpt lat="46.046107900465444" lon="9.25370566626734"><ele>242.0</ele><time>2026-04-11T14:49:44Z</time></trkpt><trkpt lat="46.04592718489584" lon="9.253648451275428"><ele>242.0</ele><time>2026-04-11T14:49:45Z</time></trkpt><trkpt lat="46.04577268139846" lon="9.253534149052026"><ele>242.0</ele><time>2026-04-11T14:49:46Z</time></trkpt><trkpt lat="46.045623207899666" lon="9.253425950443031"><ele>239.0</ele><time>2026-04-11T14:49:47Z</time></trkpt><trkpt lat="46.04547769278531" lon="9.253316926474577"><ele>236.0</ele><time>2026-04-11T14:49:48Z</time></trkpt><trkpt lat="46.04533155470989" lon="9.25320791034019"><ele>233.0</ele><time>2026-04-11T14:49:49Z</time></trkpt><trkpt lat="46.04518613373613" lon="9.253099429921672"><ele>243.33333333333334</ele><time>2026-04-11T14:49:50Z</time></trkpt><trkpt lat="46.0450507741737" lon="9.253005192343538"><ele>253.66666666666669</ele><time>2026-04-11T14:49:51Z</time></trkpt><trkpt lat="46.04486608503265" lon="9.252865468953829"><ele>264.0</ele><time>2026-04-11T14:49:52Z</time></trkpt><trkpt lat="46.04470798178927" lon="9.25274560743861"><ele>264.0</ele><time>2026-04-11T14:49:53Z</time></trkpt><trkpt lat="46.04454648919888" lon="9.252621810999722"><ele>264.0</ele><time>2026-04-11T14:49:54.057Z</time></trkpt><trkpt lat="46.044396339916645" lon="9.252506710081697"><ele>264.0</ele><time>2026-04-11T14:49:55.045Z</time></trkpt><trkpt lat="46.04424325773314" lon="9.252389360843063"><ele>272.0</ele><time>2026-04-11T14:49:56.041Z</time></trkpt><trkpt lat="46.044090754305" lon="9.252272455279893"><ele>280.0</ele><time>2026-04-11T14:49:57.039Z</time></trkpt><trkpt lat="46.04283541331968" lon="9.251407649689211"><ele>260.0</ele><time>2026-04-11T14:50:00.134Z</time></trkpt><trkpt lat="46.042388828340975" lon="9.251257549848686"><ele>260.0</ele><time>2026-04-11T14:50:01.134Z</time></trkpt><trkpt lat="46.041952534562334" lon="9.251098693898422"><ele>238.0</ele><time>2026-04-11T14:50:02.134Z</time></trkpt><trkpt lat="46.04152544634879" lon="9.25089388780082"><ele>238.0</ele><time>2026-04-11T14:50:03.134Z</time></trkpt><trkpt lat="46.04109266410007" lon="9.250719034416944"><ele>238.0</ele><time>2026-04-11T14:50:04.134Z</time></trkpt><trkpt lat="46.0407098" lon="9.2504883"><ele>225.0</ele><time>2026-04-11T14:50:05.134Z</time></trkpt><trkpt lat="46.04051250218547" lon="9.25005608945089"><ele>212.0</ele><time>2026-04-11T14:50:23Z</time></trkpt><trkpt lat="46.04044026960568" lon="9.24990567401804"><ele>212.0</ele><time>2026-04-11T14:50:24Z</time></trkpt><trkpt lat="46.04031520493117" lon="9.249808519509175"><ele>212.0</ele><time>2026-04-11T14:50:25Z</time></trkpt><trkpt lat="46.040261246930186" lon="9.249664246005038"><ele>212.0</ele><time>2026-04-11T14:50:26Z</time></trkpt><trkpt lat="46.040216810912916" lon="9.249495490470105"><ele>212.0</ele><time>2026-04-11T14:50:27Z</time></trkpt><trkpt lat="46.04018881624338" lon="9.24932342927404"><ele>211.75</ele><time>2026-04-11T14:50:28Z</time></trkpt><trkpt lat="46.04016997222942" lon="9.249119069628849"><ele>211.5</ele><time>2026-04-11T14:50:29Z</time></trkpt><trkpt lat="46.04016460043323" lon="9.248916088314699"><ele>211.25</ele><time>2026-04-11T14:50:30Z</time></trkpt><trkpt lat="46.04017827488978" lon="9.248715606067561"><ele>211.0</ele><time>2026-04-11T14:50:31Z</time></trkpt><trkpt lat="46.040196936947055" lon="9.248511222511627"><ele>213.0</ele><time>2026-04-11T14:50:32Z</time></trkpt><trkpt lat="46.04021657378567" lon="9.248307969802104"><ele>215.0</ele><time>2026-04-11T14:50:33Z</time></trkpt><trkpt lat="46.04022591065616" lon="9.248101406698787"><ele>217.0</ele><time>2026-04-11T14:50:34Z</time></trkpt><trkpt lat="46.04025115485447" lon="9.247905508394892"><ele>219.0</ele><time>2026-04-11T14:50:35Z</time></trkpt><trkpt lat="46.04032636242091" lon="9.247506855664826"><ele>220.0</ele><time>2026-04-11T14:50:37Z</time></trkpt><trkpt lat="46.04035392495286" lon="9.24730978289705"><ele>221.0</ele><time>2026-04-11T14:50:38Z</time></trkpt><trkpt lat="46.04038297353386" lon="9.247126570951023"><ele>222.0</ele><time>2026-04-11T14:50:39Z</time></trkpt><trkpt lat="46.040409694074704" lon="9.246901154487079"><ele>223.0</ele><time>2026-04-11T14:50:40.055Z</time></trkpt><trkpt lat="46.039528878743845" lon="9.243081016925345"><ele>223.0</ele><time>2026-04-11T14:50:44.134Z</time></trkpt><trkpt lat="46.03914139567735" lon="9.242061783184454"><ele>223.5</ele><time>2026-04-11T14:50:45.134Z</time></trkpt><trkpt lat="46.0388858" lon="9.241597"><ele>224.0</ele><time>2026-04-11T14:50:46.133Z</time></trkpt><trkpt lat="46.03843623048855" lon="9.240719607771995"><ele>224.25</ele><time>2026-04-11T14:51:14Z</time></trkpt><trkpt lat="46.03830530407455" lon="9.240614991978134"><ele>224.5</ele><time>2026-04-11T14:51:15Z</time></trkpt><trkpt lat="46.038181900887416" lon="9.240504057219738"><ele>224.75</ele><time>2026-04-11T14:51:16Z</time></trkpt><trkpt lat="46.038118758600575" lon="9.240385881125036"><ele>225.0</ele><time>2026-04-11T14:51:17Z</time></trkpt><trkpt lat="46.03807077797746" lon="9.240212467655308"><ele>222.75</ele><time>2026-04-11T14:51:18Z</time></trkpt><trkpt lat="46.03803592483665" lon="9.24002726410762"><ele>220.5</ele><time>2026-04-11T14:51:19Z</time></trkpt><trkpt lat="46.03800660069005" lon="9.239837081287305"><ele>218.25</ele><time>2026-04-11T14:51:20Z</time></trkpt><trkpt lat="46.03797472336932" lon="9.239639074679681"><ele>216.0</ele><time>2026-04-11T14:51:21Z</time></trkpt><trkpt lat="46.03794228806373" lon="9.239445635136928"><ele>216.0</ele><time>2026-04-11T14:51:22Z</time></trkpt><trkpt lat="46.03791139311919" lon="9.239274397115116"><ele>216.0</ele><time>2026-04-11T14:51:23Z</time></trkpt><trkpt lat="46.03788179146438" lon="9.239118274187518"><ele>216.0</ele><time>2026-04-11T14:51:24Z</time></trkpt><trkpt lat="46.03784838592392" lon="9.238958314432521"><ele>216.0</ele><time>2026-04-11T14:51:25Z</time></trkpt><trkpt lat="46.03782010066965" lon="9.238792696331737"><ele>224.0</ele><time>2026-04-11T14:51:26Z</time></trkpt><trkpt lat="46.03778344834136" lon="9.238616434604243"><ele>232.0</ele><time>2026-04-11T14:51:27Z</time></trkpt><trkpt lat="46.037753568278035" lon="9.23843948870354"><ele>240.0</ele><time>2026-04-11T14:51:28Z</time></trkpt><trkpt lat="46.03772405631062" lon="9.238258708018906"><ele>248.0</ele><time>2026-04-11T14:51:29Z</time></trkpt><trkpt lat="46.03769206610392" lon="9.238084745744473"><ele>257.5</ele><time>2026-04-11T14:51:30Z</time></trkpt><trkpt lat="46.03765009373668" lon="9.237907121636349"><ele>267.0</ele><time>2026-04-11T14:51:31.066Z</time></trkpt><trkpt lat="46.03760268350358" lon="9.237760139831877"><ele>276.5</ele><time>2026-04-11T14:51:32.054Z</time></trkpt><trkpt lat="46.03754953821743" lon="9.23761147040116"><ele>286.0</ele><time>2026-04-11T14:51:33.049Z</time></trkpt><trkpt lat="46.03749830589989" lon="9.237457774492572"><ele>267.0</ele><time>2026-04-11T14:51:34.035Z</time></trkpt><trkpt lat="46.037448996451644" lon="9.23730625600834"><ele>248.0</ele><time>2026-04-11T14:51:35.029Z</time></trkpt><trkpt lat="46.03605218818135" lon="9.235391187911892"><ele>316.0</ele><time>2026-04-11T14:51:38.133Z</time></trkpt><trkpt lat="46.035490990303316" lon="9.23498178052248"><ele>332.0</ele><time>2026-04-11T14:51:39.133Z</time></trkpt><trkpt lat="46.03490015764131" lon="9.234669253739177"><ele>332.0</ele><time>2026-04-11T14:51:40.134Z</time></trkpt><trkpt lat="46.034287599095386" lon="9.234466698884198"><ele>320.0</ele><time>2026-04-11T14:51:41.133Z</time></trkpt><trkpt lat="46.0336614230149" lon="9.234370978308432"><ele>330.0</ele><time>2026-04-11T14:51:42.133Z</time></trkpt><trkpt lat="46.0330340805796" lon="9.234287961906352"><ele>330.0</ele><time>2026-04-11T14:51:43.134Z</time></trkpt><trkpt lat="46.0327851" lon="9.2342576"><ele>330.0</ele><time>2026-04-11T14:51:44.133Z</time></trkpt><trkpt lat="46.02314325111678" lon="9.233450630199057"><ele>314.75</ele><time>2026-04-11T14:53:02Z</time></trkpt><trkpt lat="46.023022701529726" lon="9.23345273782107"><ele>299.5</ele><time>2026-04-11T14:53:03Z</time></trkpt><trkpt lat="46.022895922124256" lon="9.233339795089403"><ele>284.25</ele><time>2026-04-11T14:53:04Z</time></trkpt><trkpt lat="46.02282083361591" lon="9.233239348042753"><ele>269.0</ele><time>2026-04-11T14:53:05Z</time></trkpt><trkpt lat="46.02276988603283" lon="9.233100971677885"><ele>269.0</ele><time>2026-04-11T14:53:06Z</time></trkpt><trkpt lat="46.022758866258016" lon="9.232927018978897"><ele>269.0</ele><time>2026-04-11T14:53:07Z</time></trkpt><trkpt lat="46.02279055656788" lon="9.232745642554997"><ele>269.0</ele><time>2026-04-11T14:53:08Z</time></trkpt><trkpt lat="46.02285462421827" lon="9.232579388018955"><ele>269.0</ele><time>2026-04-11T14:53:09Z</time></trkpt><trkpt lat="46.02294086209107" lon="9.232445862981011"><ele>269.0</ele><time>2026-04-11T14:53:10Z</time></trkpt><trkpt lat="46.02302715793075" lon="9.232362455674073"><ele>269.0</ele><time>2026-04-11T14:53:11Z</time></trkpt><trkpt lat="46.02312091344089" lon="9.23234672079109"><ele>269.0</ele><time>2026-04-11T14:53:12Z</time></trkpt><trkpt lat="46.02320828219779" lon="9.23238814234261"><ele>269.0</ele><time>2026-04-11T14:53:13Z</time></trkpt><trkpt lat="46.02327446502633" lon="9.232498605255929"><ele>269.0</ele><time>2026-04-11T14:53:14Z</time></trkpt><trkpt lat="46.023306004564695" lon="9.232631287697494"><ele>269.0</ele><time>2026-04-11T14:53:15Z</time></trkpt><trkpt lat="46.0232942041104" lon="9.232770716946872"><ele>269.0</ele><time>2026-04-11T14:53:16Z</time></trkpt><trkpt lat="46.023233468415164" lon="9.232888661797642"><ele>269.0</ele><time>2026-04-11T14:53:17Z</time></trkpt><trkpt lat="46.023151847308654" lon="9.23296758489993"><ele>269.0</ele><time>2026-04-11T14:53:18Z</time></trkpt><trkpt lat="46.02304978849633" lon="9.233033392399257"><ele>269.0</ele><time>2026-04-11T14:53:19Z</time></trkpt><trkpt lat="46.022940007592766" lon="9.233108009721372"><ele>266.75</ele><time>2026-04-11T14:53:20Z</time></trkpt><trkpt lat="46.022835134281465" lon="9.233204301561821"><ele>264.5</ele><time>2026-04-11T14:53:21Z</time></trkpt><trkpt lat="46.02273987372016" lon="9.23331211456449"><ele>262.25</ele><time>2026-04-11T14:53:22Z</time></trkpt><trkpt lat="46.0226542900345" lon="9.23342242084402"><ele>260.0</ele><time>2026-04-11T14:53:23Z</time></trkpt><trkpt lat="46.02257600041153" lon="9.233544981148771"><ele>260.0</ele><time>2026-04-11T14:53:24Z</time></trkpt><trkpt lat="46.02250687673447" lon="9.233671365011682"><ele>260.0</ele><time>2026-04-11T14:53:25Z</time></trkpt><trkpt lat="46.02244741908996" lon="9.233796471637895"><ele>260.0</ele><time>2026-04-11T14:53:26Z</time></trkpt><trkpt lat="46.02238585209066" lon="9.233915953113035"><ele>260.0</ele><time>2026-04-11T14:53:27Z</time></trkpt><trkpt lat="46.02231461696675" lon="9.234024212368766"><ele>260.0</ele><time>2026-04-11T14:53:28Z</time></trkpt><trkpt lat="46.02224099110451" lon="9.234129937364854"><ele>260.8</ele><time>2026-04-11T14:53:29Z</time></trkpt><trkpt lat="46.022166833724555" lon="9.234230799983978"><ele>261.6</ele><time>2026-04-11T14:53:30Z</time></trkpt><trkpt lat="46.02216749348168" lon="9.234386276059785"><ele>262.4</ele><time>2026-04-11T14:53:31Z</time></trkpt><trkpt lat="46.022107400254576" lon="9.234483754721067"><ele>263.2</ele><time>2026-04-11T14:53:32Z</time></trkpt><trkpt lat="46.02203766681989" lon="9.234559876001045"><ele>264.0</ele><time>2026-04-11T14:53:33Z</time></trkpt><trkpt lat="46.021961448956525" lon="9.23459342901574"><ele>264.0</ele><time>2026-04-11T14:53:34Z</time></trkpt><trkpt lat="46.02189002196649" lon="9.234597836140393"><ele>264.0</ele><time>2026-04-11T14:53:35Z</time></trkpt><trkpt lat="46.021822670627685" lon="9.234586571569475"><ele>264.0</ele><time>2026-04-11T14:53:36Z</time></trkpt><trkpt lat="46.021749554683765" lon="9.23456489624984"><ele>264.0</ele><time>2026-04-11T14:53:37Z</time></trkpt><trkpt lat="46.02169100924884" lon="9.234529790195934"><ele>264.0</ele><time>2026-04-11T14:53:38Z</time></trkpt><trkpt lat="46.02162100071491" lon="9.234458008179859"><ele>264.0</ele><time>2026-04-11T14:53:40Z</time></trkpt><trkpt lat="46.021579289717984" lon="9.234360170670914"><ele>264.0</ele><time>2026-04-11T14:53:43Z</time></trkpt><trkpt lat="46.02155618926383" lon="9.234234063934423"><ele>264.6666666666667</ele><time>2026-04-11T14:53:54Z</time></trkpt><trkpt lat="46.02158301951374" lon="9.234138553868226"><ele>265.3333333333333</ele><time>2026-04-11T14:53:55Z</time></trkpt><trkpt lat="46.02164169942765" lon="9.234051877831963"><ele>266.0</ele><time>2026-04-11T14:53:56Z</time></trkpt><trkpt lat="46.02171104408537" lon="9.233964738013299"><ele>266.66666666666663</ele><time>2026-04-11T14:53:57Z</time></trkpt><trkpt lat="46.02176595554694" lon="9.23386327796579"><ele>267.3333333333333</ele><time>2026-04-11T14:53:58Z</time></trkpt><trkpt lat="46.02181807331766" lon="9.233738285384801"><ele>268.0</ele><time>2026-04-11T14:53:59Z</time></trkpt><trkpt lat="46.02187061890922" lon="9.233597260833998"><ele>270.0</ele><time>2026-04-11T14:54:00Z</time></trkpt><trkpt lat="46.02191599322553" lon="9.233448646150041"><ele>272.0</ele><time>2026-04-11T14:54:01Z</time></trkpt><trkpt lat="46.021954093269336" lon="9.233295548117146"><ele>274.0</ele><time>2026-04-11T14:54:02Z</time></trkpt><trkpt lat="46.0219910804767" lon="9.233149182199172"><ele>276.0</ele><time>2026-04-11T14:54:03Z</time></trkpt><trkpt lat="46.022022344071154" lon="9.233011249506898"><ele>278.0</ele><time>2026-04-11T14:54:04Z</time></trkpt><trkpt lat="46.022076663064595" lon="9.232876509823262"><ele>279.0</ele><time>2026-04-11T14:54:05Z</time></trkpt><trkpt lat="46.022158734592566" lon="9.23275555369336"><ele>280.0</ele><time>2026-04-11T14:54:06Z</time></trkpt><trkpt lat="46.022257465475626" lon="9.232646513056334"><ele>281.0</ele><time>2026-04-11T14:54:07Z</time></trkpt><trkpt lat="46.022359815919934" lon="9.232533180930346"><ele>282.0</ele><time>2026-04-11T14:54:08Z</time></trkpt><trkpt lat="46.0224454193654" lon="9.232417394843905"><ele>281.0</ele><time>2026-04-11T14:54:09Z</time></trkpt><trkpt lat="46.022502704656745" lon="9.23229777053095"><ele>280.0</ele><time>2026-04-11T14:54:10Z</time></trkpt><trkpt lat="46.022527212554614" lon="9.232142266318567"><ele>279.0</ele><time>2026-04-11T14:54:11Z</time></trkpt><trkpt lat="46.02250829772461" lon="9.231959473667667"><ele>278.0</ele><time>2026-04-11T14:54:12Z</time></trkpt><trkpt lat="46.02246560703406" lon="9.231776731727507"><ele>280.25</ele><time>2026-04-11T14:54:13Z</time></trkpt><trkpt lat="46.02242356086119" lon="9.231613932925946"><ele>282.5</ele><time>2026-04-11T14:54:14Z</time></trkpt><trkpt lat="46.02235897878051" lon="9.23147213883521"><ele>284.75</ele><time>2026-04-11T14:54:15Z</time></trkpt><trkpt lat="46.0222531439197" lon="9.23135866227368"><ele>287.0</ele><time>2026-04-11T14:54:16Z</time></trkpt><trkpt lat="46.02213468268953" lon="9.231265443207295"><ele>289.75</ele><time>2026-04-11T14:54:17Z</time></trkpt><trkpt lat="46.02200596550465" lon="9.231184676962467"><ele>292.5</ele><time>2026-04-11T14:54:18Z</time></trkpt><trkpt lat="46.02186993227717" lon="9.231123477731488"><ele>295.25</ele><time>2026-04-11T14:54:19Z</time></trkpt><trkpt lat="46.02173262195598" lon="9.231088479999125"><ele>298.0</ele><time>2026-04-11T14:54:20Z</time></trkpt><trkpt lat="46.02160583846293" lon="9.23108259368817"><ele>299.75</ele><time>2026-04-11T14:54:21Z</time></trkpt><trkpt lat="46.0214801975786" lon="9.231095870163369"><ele>301.5</ele><time>2026-04-11T14:54:22Z</time></trkpt><trkpt lat="46.0213561167425" lon="9.231090291662817"><ele>303.25</ele><time>2026-04-11T14:54:23Z</time></trkpt><trkpt lat="46.02124010095402" lon="9.231099393886327"><ele>305.0</ele><time>2026-04-11T14:54:24Z</time></trkpt><trkpt lat="46.021115962906286" lon="9.231109048689898"><ele>305.0</ele><time>2026-04-11T14:54:25Z</time></trkpt><trkpt lat="46.02097655603791" lon="9.23112041931509"><ele>305.0</ele><time>2026-04-11T14:54:26Z</time></trkpt><trkpt lat="46.02084588949758" lon="9.231131738301155"><ele>305.0</ele><time>2026-04-11T14:54:27Z</time></trkpt><trkpt lat="46.02073297525946" lon="9.231141519494999"><ele>305.0</ele><time>2026-04-11T14:54:28Z</time></trkpt><trkpt lat="46.02063426753273" lon="9.231173928293648"><ele>304.5</ele><time>2026-04-11T14:54:29Z</time></trkpt><trkpt lat="46.02054199215965" lon="9.231180261880848"><ele>304.0</ele><time>2026-04-11T14:54:30Z</time></trkpt><trkpt lat="46.0204520741856" lon="9.231166426653154"><ele>303.5</ele><time>2026-04-11T14:54:31Z</time></trkpt><trkpt lat="46.02036795971155" lon="9.23117437751934"><ele>303.0</ele><time>2026-04-11T14:54:32Z</time></trkpt><trkpt lat="46.02028809054601" lon="9.231181927100007"><ele>302.5</ele><time>2026-04-11T14:54:33Z</time></trkpt><trkpt lat="46.020225017597014" lon="9.231187889029465"><ele>302.0</ele><time>2026-04-11T14:54:34Z</time></trkpt><trkpt lat="46.020137537042594" lon="9.231184922812437"><ele>302.0</ele><time>2026-04-11T14:54:36Z</time></trkpt><trkpt lat="46.020139699489235" lon="9.23103026271282"><ele>302.0</ele><time>2026-04-11T14:54:38Z</time></trkpt><trkpt lat="46.020201669604084" lon="9.23098539318455"><ele>302.0</ele><time>2026-04-11T14:54:39Z</time></trkpt><trkpt lat="46.02027451753657" lon="9.231007152092744"><ele>302.0</ele><time>2026-04-11T14:54:40Z</time></trkpt><trkpt lat="46.020343231056216" lon="9.231060281085373"><ele>302.0</ele><time>2026-04-11T14:54:41Z</time></trkpt><trkpt lat="46.02041537130148" lon="9.231085707215097"><ele>302.0</ele><time>2026-04-11T14:54:42Z</time></trkpt><trkpt lat="46.02049301374973" lon="9.231076654718983"><ele>302.0</ele><time>2026-04-11T14:54:43Z</time></trkpt><trkpt lat="46.02058045719104" lon="9.231038406439563"><ele>302.0</ele><time>2026-04-11T14:54:44Z</time></trkpt><trkpt lat="46.02068192006494" lon="9.23096768232121"><ele>302.0</ele><time>2026-04-11T14:54:45Z</time></trkpt><trkpt lat="46.02079866660653" lon="9.230883259369913"><ele>302.0</ele><time>2026-04-11T14:54:46Z</time></trkpt><trkpt lat="46.020926840701435" lon="9.230801768735187"><ele>302.6</ele><time>2026-04-11T14:54:47Z</time></trkpt><trkpt lat="46.02103941827489" lon="9.230755228651223"><ele>303.2</ele><time>2026-04-11T14:54:48Z</time></trkpt><trkpt lat="46.021134431474835" lon="9.230737842766779"><ele>303.8</ele><time>2026-04-11T14:54:49Z</time></trkpt><trkpt lat="46.02120798800971" lon="9.230728021450567"><ele>304.4</ele><time>2026-04-11T14:54:50Z</time></trkpt><trkpt lat="46.02126833729575" lon="9.230601776030632"><ele>305.0</ele><time>2026-04-11T14:54:52Z</time></trkpt><trkpt lat="46.02123937894718" lon="9.23049697025498"><ele>308.6</ele><time>2026-04-11T14:54:53Z</time></trkpt><trkpt lat="46.02119974535332" lon="9.230415051574221"><ele>312.2</ele><time>2026-04-11T14:54:54Z</time></trkpt><trkpt lat="46.021085354474565" lon="9.230466142896184"><ele>315.79999999999995</ele><time>2026-04-11T14:54:55Z</time></trkpt><trkpt lat="46.020994885357695" lon="9.230532843855686"><ele>319.4</ele><time>2026-04-11T14:54:56Z</time></trkpt><trkpt lat="46.02089257123046" lon="9.230553916702371"><ele>323.0</ele><time>2026-04-11T14:54:57Z</time></trkpt><trkpt lat="46.02079684093968" lon="9.230569209884916"><ele>323.0</ele><time>2026-04-11T14:54:58Z</time></trkpt><trkpt lat="46.02070347588561" lon="9.230554585764832"><ele>323.0</ele><time>2026-04-11T14:54:59Z</time></trkpt><trkpt lat="46.0206023862726" lon="9.230510207145613"><ele>323.0</ele><time>2026-04-11T14:55:00Z</time></trkpt><trkpt lat="46.02048577760683" lon="9.230483093851317"><ele>323.0</ele><time>2026-04-11T14:55:01Z</time></trkpt><trkpt lat="46.02038212761678" lon="9.230433872508966"><ele>323.0</ele><time>2026-04-11T14:55:02Z</time></trkpt><trkpt lat="46.0202939286596" lon="9.230396582927032"><ele>323.0</ele><time>2026-04-11T14:55:03Z</time></trkpt><trkpt lat="46.020216368552134" lon="9.23036267682362"><ele>323.0</ele><time>2026-04-11T14:55:04Z</time></trkpt><trkpt lat="46.02014041734778" lon="9.230328435410176"><ele>323.0</ele><time>2026-04-11T14:55:05Z</time></trkpt><trkpt lat="46.02006058914978" lon="9.230285131200702"><ele>323.0</ele><time>2026-04-11T14:55:06Z</time></trkpt><trkpt lat="46.019980695778" lon="9.230235985413495"><ele>323.0</ele><time>2026-04-11T14:55:07Z</time></trkpt><trkpt lat="46.0199044906899" lon="9.23016568144901"><ele>323.0</ele><time>2026-04-11T14:55:08Z</time></trkpt><trkpt lat="46.01983831150263" lon="9.230068365747124"><ele>322.2</ele><time>2026-04-11T14:55:09Z</time></trkpt><trkpt lat="46.01978471987238" lon="9.229956255584648"><ele>321.4</ele><time>2026-04-11T14:55:10Z</time></trkpt><trkpt lat="46.01973976866071" lon="9.229831967852734"><ele>320.59999999999997</ele><time>2026-04-11T14:55:11Z</time></trkpt><trkpt lat="46.01969056050665" lon="9.229710724704903"><ele>319.79999999999995</ele><time>2026-04-11T14:55:12Z</time></trkpt><trkpt lat="46.01964447988069" lon="9.229592707713834"><ele>319.0</ele><time>2026-04-11T14:55:13Z</time></trkpt><trkpt lat="46.019606777109274" lon="9.229494448006337"><ele>321.16666666666663</ele><time>2026-04-11T14:55:14Z</time></trkpt><trkpt lat="46.01956474063199" lon="9.229414614083765"><ele>323.3333333333333</ele><time>2026-04-11T14:55:15Z</time></trkpt><trkpt lat="46.019507685040985" lon="9.229345790182144"><ele>325.5</ele><time>2026-04-11T14:55:16Z</time></trkpt><trkpt lat="46.01942117380041" lon="9.22931373643862"><ele>327.6666666666667</ele><time>2026-04-11T14:55:17Z</time></trkpt><trkpt lat="46.01932566980976" lon="9.229324252814665"><ele>329.83333333333337</ele><time>2026-04-11T14:55:18Z</time></trkpt><trkpt lat="46.019228092653925" lon="9.2293617202043"><ele>332.0</ele><time>2026-04-11T14:55:19Z</time></trkpt><trkpt lat="46.01913912262077" lon="9.229404633368441"><ele>334.0</ele><time>2026-04-11T14:55:20Z</time></trkpt><trkpt lat="46.01905001136504" lon="9.229419735457768"><ele>336.0</ele><time>2026-04-11T14:55:21Z</time></trkpt><trkpt lat="46.0189641703489" lon="9.229459106753158"><ele>338.0</ele><time>2026-04-11T14:55:22Z</time></trkpt><trkpt lat="46.01888968397625" lon="9.22950336681057"><ele>340.0</ele><time>2026-04-11T14:55:23Z</time></trkpt><trkpt lat="46.01883403873304" lon="9.229548775108647"><ele>342.0</ele><time>2026-04-11T14:55:24Z</time></trkpt><trkpt lat="46.01875483544253" lon="9.229599959844817"><ele>344.0</ele><time>2026-04-11T14:55:26Z</time></trkpt><trkpt lat="46.01868936464627" lon="9.229570352487855"><ele>344.0</ele><time>2026-04-11T14:55:28Z</time></trkpt><trkpt lat="46.018703502605554" lon="9.229422086018674"><ele>344.0</ele><time>2026-04-11T14:55:30Z</time></trkpt><trkpt lat="46.01876045615733" lon="9.229376253270502"><ele>344.0</ele><time>2026-04-11T14:55:31Z</time></trkpt><trkpt lat="46.01882309177265" lon="9.22935190026861"><ele>344.0</ele><time>2026-04-11T14:55:32Z</time></trkpt><trkpt lat="46.01888981963784" lon="9.229325644647306"><ele>344.0</ele><time>2026-04-11T14:55:33Z</time></trkpt><trkpt lat="46.01895880657505" lon="9.229286627965108"><ele>344.0</ele><time>2026-04-11T14:55:34Z</time></trkpt><trkpt lat="46.01902589678038" lon="9.229219607920896"><ele>344.0</ele><time>2026-04-11T14:55:35Z</time></trkpt><trkpt lat="46.019088314526876" lon="9.229132377689051"><ele>344.0</ele><time>2026-04-11T14:55:36Z</time></trkpt><trkpt lat="46.01914800603055" lon="9.22903194331059"><ele>344.0</ele><time>2026-04-11T14:55:37Z</time></trkpt><trkpt lat="46.01920186441478" lon="9.228921736154328"><ele>344.0</ele><time>2026-04-11T14:55:38Z</time></trkpt><trkpt lat="46.019249253787514" lon="9.228811994130307"><ele>344.0</ele><time>2026-04-11T14:55:39Z</time></trkpt><trkpt lat="46.01929164564907" lon="9.228703437240394"><ele>344.0</ele><time>2026-04-11T14:55:40Z</time></trkpt><trkpt lat="46.01933206005938" lon="9.22859166831875"><ele>345.0</ele><time>2026-04-11T14:55:41Z</time></trkpt><trkpt lat="46.01937412324559" lon="9.228486282873188"><ele>346.0</ele><time>2026-04-11T14:55:42Z</time></trkpt><trkpt lat="46.01941414652173" lon="9.228402731897049"><ele>347.0</ele><time>2026-04-11T14:55:43Z</time></trkpt><trkpt lat="46.01946414851396" lon="9.22834274044956"><ele>348.0</ele><time>2026-04-11T14:55:44Z</time></trkpt><trkpt lat="46.01958673786913" lon="9.228324015377785"><ele>349.0</ele><time>2026-04-11T14:55:46Z</time></trkpt><trkpt lat="46.01965318518075" lon="9.22835827121557"><ele>350.0</ele><time>2026-04-11T14:55:47Z</time></trkpt><trkpt lat="46.019716527360174" lon="9.228417904652357"><ele>350.0</ele><time>2026-04-11T14:55:48Z</time></trkpt><trkpt lat="46.01978167823052" lon="9.228484762962161"><ele>350.0</ele><time>2026-04-11T14:55:49Z</time></trkpt><trkpt lat="46.019856126204296" lon="9.228550700974834"><ele>350.0</ele><time>2026-04-11T14:55:50Z</time></trkpt><trkpt lat="46.01993720569849" lon="9.228611238624442"><ele>350.0</ele><time>2026-04-11T14:55:51Z</time></trkpt><trkpt lat="46.02003376808508" lon="9.228659415106076"><ele>350.0</ele><time>2026-04-11T14:55:52Z</time></trkpt><trkpt lat="46.02013576966685" lon="9.228705873924985"><ele>351.2</ele><time>2026-04-11T14:55:53Z</time></trkpt><trkpt lat="46.02023387542201" lon="9.228749818857981"><ele>352.4</ele><time>2026-04-11T14:55:54Z</time></trkpt><trkpt lat="46.02033025623166" lon="9.228794654083487"><ele>353.6</ele><time>2026-04-11T14:55:55Z</time></trkpt><trkpt lat="46.02042455488855" lon="9.228837101564551"><ele>354.8</ele><time>2026-04-11T14:55:56Z</time></trkpt><trkpt lat="46.02050847020201" lon="9.228876019151993"><ele>356.0</ele><time>2026-04-11T14:55:57Z</time></trkpt><trkpt lat="46.0205943135126" lon="9.228914040871576"><ele>356.0</ele><time>2026-04-11T14:55:58Z</time></trkpt><trkpt lat="46.02068854632992" lon="9.22895336257715"><ele>356.0</ele><time>2026-04-11T14:55:59Z</time></trkpt><trkpt lat="46.02078789771998" lon="9.228973344176602"><ele>356.0</ele><time>2026-04-11T14:56:00Z</time></trkpt><trkpt lat="46.0208886151611" lon="9.228952747974702"><ele>356.0</ele><time>2026-04-11T14:56:01Z</time></trkpt><trkpt lat="46.02097797149019" lon="9.228921096514059"><ele>356.0</ele><time>2026-04-11T14:56:02Z</time></trkpt><trkpt lat="46.02105712346448" lon="9.228887074444861"><ele>358.0</ele><time>2026-04-11T14:56:03Z</time></trkpt><trkpt lat="46.02114009055795" lon="9.228855833105234"><ele>360.0</ele><time>2026-04-11T14:56:04Z</time></trkpt><trkpt lat="46.02122521477257" lon="9.228825205562094"><ele>362.0</ele><time>2026-04-11T14:56:05Z</time></trkpt><trkpt lat="46.02129057067723" lon="9.228797886269032"><ele>364.0</ele><time>2026-04-11T14:56:06Z</time></trkpt><trkpt lat="46.02135309965349" lon="9.228776716668369"><ele>366.0</ele><time>2026-04-11T14:56:07Z</time></trkpt><trkpt lat="46.02145089419448" lon="9.228720763901567"><ele>368.0</ele><time>2026-04-11T14:56:09Z</time></trkpt><trkpt lat="46.02149558839055" lon="9.228653967222954"><ele>368.0</ele><time>2026-04-11T14:56:10Z</time></trkpt><trkpt lat="46.02150339825892" lon="9.228562450951664"><ele>368.0</ele><time>2026-04-11T14:56:11Z</time></trkpt><trkpt lat="46.02142327279639" lon="9.228440738420634"><ele>368.0</ele><time>2026-04-11T14:56:13Z</time></trkpt><trkpt lat="46.021343457112465" lon="9.228435250197851"><ele>368.0</ele><time>2026-04-11T14:56:14Z</time></trkpt><trkpt lat="46.021255168672255" lon="9.228444863893717"><ele>368.0</ele><time>2026-04-11T14:56:15Z</time></trkpt><trkpt lat="46.02116643420289" lon="9.228459087057193"><ele>368.0</ele><time>2026-04-11T14:56:16Z</time></trkpt><trkpt lat="46.02107069693868" lon="9.228440466502413"><ele>368.0</ele><time>2026-04-11T14:56:17Z</time></trkpt><trkpt lat="46.020981936079075" lon="9.22843728508731"><ele>368.0</ele><time>2026-04-11T14:56:18Z</time></trkpt><trkpt lat="46.02089874028804" lon="9.228428660259672"><ele>368.0</ele><time>2026-04-11T14:56:19Z</time></trkpt><trkpt lat="46.02082188169718" lon="9.228394950950372"><ele>368.0</ele><time>2026-04-11T14:56:20Z</time></trkpt><trkpt lat="46.0207557127711" lon="9.228353993418992"><ele>368.0</ele><time>2026-04-11T14:56:21Z</time></trkpt><trkpt lat="46.02069183272723" lon="9.228301697701012"><ele>368.0</ele><time>2026-04-11T14:56:22Z</time></trkpt><trkpt lat="46.020624160013575" lon="9.228228252661822"><ele>368.5</ele><time>2026-04-11T14:56:23Z</time></trkpt><trkpt lat="46.02055355190923" lon="9.228148870465663"><ele>369.0</ele><time>2026-04-11T14:56:24Z</time></trkpt><trkpt lat="46.02048458176418" lon="9.22807132976936"><ele>369.5</ele><time>2026-04-11T14:56:25Z</time></trkpt><trkpt lat="46.02041694635536" lon="9.227995289670496"><ele>370.0</ele><time>2026-04-11T14:56:26Z</time></trkpt><trkpt lat="46.0203479704268" lon="9.227917742470128"><ele>370.5</ele><time>2026-04-11T14:56:27Z</time></trkpt><trkpt lat="46.020266131086636" lon="9.227853490737989"><ele>371.0</ele><time>2026-04-11T14:56:28Z</time></trkpt><trkpt lat="46.02020714608349" lon="9.227746331266713"><ele>371.0</ele><time>2026-04-11T14:56:29Z</time></trkpt><trkpt lat="46.020154747344456" lon="9.227663091310012"><ele>371.0</ele><time>2026-04-11T14:56:30Z</time></trkpt><trkpt lat="46.02011952248177" lon="9.227566922500978"><ele>371.0</ele><time>2026-04-11T14:56:31Z</time></trkpt><trkpt lat="46.020074052392715" lon="9.227457320930352"><ele>371.0</ele><time>2026-04-11T14:56:32Z</time></trkpt><trkpt lat="46.020054585412105" lon="9.227333511154644"><ele>371.0</ele><time>2026-04-11T14:56:33Z</time></trkpt><trkpt lat="46.02004123345536" lon="9.227213414609606"><ele>371.0</ele><time>2026-04-11T14:56:34Z</time></trkpt><trkpt lat="46.020024115278126" lon="9.227083883568831"><ele>371.33333333333337</ele><time>2026-04-11T14:56:35Z</time></trkpt><trkpt lat="46.02000786894303" lon="9.226954421380736"><ele>371.6666666666667</ele><time>2026-04-11T14:56:36Z</time></trkpt><trkpt lat="46.01998107647678" lon="9.226845380894774"><ele>372.0</ele><time>2026-04-11T14:56:37Z</time></trkpt><trkpt lat="46.01993330393241" lon="9.226762008498849"><ele>372.3333333333333</ele><time>2026-04-11T14:56:38Z</time></trkpt><trkpt lat="46.019890990726125" lon="9.22667539343238"><ele>372.66666666666663</ele><time>2026-04-11T14:56:39Z</time></trkpt><trkpt lat="46.019796033958016" lon="9.22665262750485"><ele>373.0</ele><time>2026-04-11T14:56:40Z</time></trkpt><trkpt lat="46.01971030032279" lon="9.226609970224931"><ele>373.0</ele><time>2026-04-11T14:56:41Z</time></trkpt><trkpt lat="46.019629109467175" lon="9.226548420017906"><ele>373.0</ele><time>2026-04-11T14:56:42Z</time></trkpt><trkpt lat="46.01954466128569" lon="9.226508075339206"><ele>373.0</ele><time>2026-04-11T14:56:43Z</time></trkpt><trkpt lat="46.019460959419455" lon="9.226468087209918"><ele>373.0</ele><time>2026-04-11T14:56:44Z</time></trkpt><trkpt lat="46.019380430786406" lon="9.226424094366108"><ele>373.0</ele><time>2026-04-11T14:56:45Z</time></trkpt><trkpt lat="46.01930413744111" lon="9.22637939811074"><ele>373.0</ele><time>2026-04-11T14:56:46Z</time></trkpt><trkpt lat="46.01923823157767" lon="9.226311004463044"><ele>375.3333333333333</ele><time>2026-04-11T14:56:47Z</time></trkpt><trkpt lat="46.01917969280762" lon="9.226231699885611"><ele>377.66666666666663</ele><time>2026-04-11T14:56:48Z</time></trkpt><trkpt lat="46.01913865107104" lon="9.226151111038778"><ele>380.0</ele><time>2026-04-11T14:56:49Z</time></trkpt><trkpt lat="46.0191015951444" lon="9.226071585519906"><ele>382.3333333333333</ele><time>2026-04-11T14:56:50Z</time></trkpt><trkpt lat="46.01904593326784" lon="9.225993905815363"><ele>384.6666666666667</ele><time>2026-04-11T14:56:51Z</time></trkpt><trkpt lat="46.01899899018699" lon="9.225887990595766"><ele>387.0</ele><time>2026-04-11T14:56:52Z</time></trkpt><trkpt lat="46.01894500520335" lon="9.2257722999589"><ele>387.0</ele><time>2026-04-11T14:56:53Z</time></trkpt><trkpt lat="46.01889616987496" lon="9.225658478939232"><ele>387.0</ele><time>2026-04-11T14:56:54Z</time></trkpt><trkpt lat="46.01886624790383" lon="9.225531748909706"><ele>387.0</ele><time>2026-04-11T14:56:55Z</time></trkpt><trkpt lat="46.01882312002198" lon="9.225419549459787"><ele>387.0</ele><time>2026-04-11T14:56:56Z</time></trkpt><trkpt lat="46.01877369713233" lon="9.225327330296052"><ele>387.0</ele><time>2026-04-11T14:56:57Z</time></trkpt><trkpt lat="46.018765361339455" lon="9.225221344070054"><ele>387.0</ele><time>2026-04-11T14:56:58Z</time></trkpt><trkpt lat="46.01875124583883" lon="9.225061398633812"><ele>388.20000000000005</ele><time>2026-04-11T14:57:00Z</time></trkpt><trkpt lat="46.01873823894161" lon="9.224900827266145"><ele>389.4</ele><time>2026-04-11T14:57:02Z</time></trkpt><trkpt lat="46.01876229849549" lon="9.224794800617232"><ele>390.6</ele><time>2026-04-11T14:57:04Z</time></trkpt><trkpt lat="46.0187549895145" lon="9.224647600278162"><ele>391.79999999999995</ele><time>2026-04-11T14:57:07Z</time></trkpt><trkpt lat="46.01873423522401" lon="9.224550413642902"><ele>393.0</ele><time>2026-04-11T14:57:12Z</time></trkpt><trkpt lat="46.018722014430985" lon="9.224420058719891"><ele>393.59999999999997</ele><time>2026-04-11T14:57:14Z</time></trkpt><trkpt lat="46.018686683673984" lon="9.224292222904163"><ele>394.2</ele><time>2026-04-11T14:57:15Z</time></trkpt><trkpt lat="46.018672621403184" lon="9.22415330383704"><ele>394.8</ele><time>2026-04-11T14:57:16Z</time></trkpt><trkpt lat="46.01868350185364" lon="9.224002433810846"><ele>395.4</ele><time>2026-04-11T14:57:17Z</time></trkpt><trkpt lat="46.018743097823375" lon="9.223840247369958"><ele>396.0</ele><time>2026-04-11T14:57:18Z</time></trkpt><trkpt lat="46.01879070739039" lon="9.22365646118012"><ele>397.5</ele><time>2026-04-11T14:57:19Z</time></trkpt><trkpt lat="46.01885446932493" lon="9.223484091256704"><ele>399.0</ele><time>2026-04-11T14:57:20Z</time></trkpt><trkpt lat="46.018912272817005" lon="9.223304221910212"><ele>400.5</ele><time>2026-04-11T14:57:21Z</time></trkpt><trkpt lat="46.018968972424446" lon="9.223113858540465"><ele>402.0</ele><time>2026-04-11T14:57:22Z</time></trkpt><trkpt lat="46.01902909210653" lon="9.222922422751289"><ele>398.0</ele><time>2026-04-11T14:57:23Z</time></trkpt><trkpt lat="46.019090858522674" lon="9.222730537674591"><ele>394.0</ele><time>2026-04-11T14:57:24Z</time></trkpt><trkpt lat="46.01916101870564" lon="9.222531929738677"><ele>390.0</ele><time>2026-04-11T14:57:25Z</time></trkpt><trkpt lat="46.019245021832866" lon="9.222334684392155"><ele>393.0</ele><time>2026-04-11T14:57:26Z</time></trkpt><trkpt lat="46.01934610086749" lon="9.222152137763334"><ele>396.0</ele><time>2026-04-11T14:57:27Z</time></trkpt><trkpt lat="46.01945440411392" lon="9.221982534922988"><ele>399.0</ele><time>2026-04-11T14:57:28Z</time></trkpt><trkpt lat="46.01955225930408" lon="9.221805666154536"><ele>399.0</ele><time>2026-04-11T14:57:29Z</time></trkpt><trkpt lat="46.01963663804669" lon="9.22161087134749"><ele>399.0</ele><time>2026-04-11T14:57:30Z</time></trkpt><trkpt lat="46.01971651837114" lon="9.22140675782383"><ele>399.0</ele><time>2026-04-11T14:57:31Z</time></trkpt><trkpt lat="46.01978494829782" lon="9.221194124910026"><ele>401.33333333333337</ele><time>2026-04-11T14:57:32Z</time></trkpt><trkpt lat="46.01985039394266" lon="9.220973696233076"><ele>403.6666666666667</ele><time>2026-04-11T14:57:33Z</time></trkpt><trkpt lat="46.01991821896112" lon="9.220749078228478"><ele>406.0</ele><time>2026-04-11T14:57:34Z</time></trkpt><trkpt lat="46.019988998916986" lon="9.220521750825583"><ele>400.6666666666667</ele><time>2026-04-11T14:57:35Z</time></trkpt><trkpt lat="46.020060684614705" lon="9.220291686340024"><ele>395.33333333333337</ele><time>2026-04-11T14:57:36Z</time></trkpt><trkpt lat="46.02013406177822" lon="9.220057672055814"><ele>390.0</ele><time>2026-04-11T14:57:37Z</time></trkpt><trkpt lat="46.02021056797205" lon="9.21982325159576"><ele>390.66666666666663</ele><time>2026-04-11T14:57:38Z</time></trkpt><trkpt lat="46.02028587708532" lon="9.219587655921334"><ele>391.3333333333333</ele><time>2026-04-11T14:57:39Z</time></trkpt><trkpt lat="46.0203611878687" lon="9.219351379607097"><ele>392.0</ele><time>2026-04-11T14:57:40Z</time></trkpt><trkpt lat="46.020435257773634" lon="9.219114175408457"><ele>396.3333333333333</ele><time>2026-04-11T14:57:41Z</time></trkpt><trkpt lat="46.02050791464339" lon="9.21887928473167"><ele>400.66666666666663</ele><time>2026-04-11T14:57:42Z</time></trkpt><trkpt lat="46.02057874283981" lon="9.21864843993455"><ele>405.0</ele><time>2026-04-11T14:57:43Z</time></trkpt><trkpt lat="46.020650034325705" lon="9.218416925182602"><ele>405.0</ele><time>2026-04-11T14:57:44Z</time></trkpt><trkpt lat="46.02072131820623" lon="9.218191965880782"><ele>405.0</ele><time>2026-04-11T14:57:45Z</time></trkpt><trkpt lat="46.02079632094194" lon="9.21797038438596"><ele>405.0</ele><time>2026-04-11T14:57:46Z</time></trkpt><trkpt lat="46.02088032476663" lon="9.217751727100472"><ele>406.66666666666663</ele><time>2026-04-11T14:57:47Z</time></trkpt><trkpt lat="46.02098007046894" lon="9.217544852269821"><ele>408.3333333333333</ele><time>2026-04-11T14:57:48Z</time></trkpt><trkpt lat="46.021098224595534" lon="9.217356899650424"><ele>410.0</ele><time>2026-04-11T14:57:49Z</time></trkpt><trkpt lat="46.021220916843255" lon="9.217176501062246"><ele>410.0</ele><time>2026-04-11T14:57:50Z</time></trkpt><trkpt lat="46.02134210013117" lon="9.216999114074172"><ele>410.0</ele><time>2026-04-11T14:57:51Z</time></trkpt><trkpt lat="46.02145959897676" lon="9.216817841942648"><ele>410.0</ele><time>2026-04-11T14:57:52Z</time></trkpt><trkpt lat="46.02157615330478" lon="9.216636464121187"><ele>405.0</ele><time>2026-04-11T14:57:53Z</time></trkpt><trkpt lat="46.02169318514323" lon="9.21646263642653"><ele>400.0</ele><time>2026-04-11T14:57:54Z</time></trkpt><trkpt lat="46.02181939602321" lon="9.216291323798051"><ele>395.0</ele><time>2026-04-11T14:57:55Z</time></trkpt><trkpt lat="46.021946308236174" lon="9.21612485268374"><ele>395.0</ele><time>2026-04-11T14:57:56Z</time></trkpt><trkpt lat="46.02206947905185" lon="9.2159524498982"><ele>395.0</ele><time>2026-04-11T14:57:57Z</time></trkpt><trkpt lat="46.02217322243812" lon="9.215754504881293"><ele>395.0</ele><time>2026-04-11T14:57:58Z</time></trkpt><trkpt lat="46.022247790484954" lon="9.215525076064793"><ele>398.0</ele><time>2026-04-11T14:57:59Z</time></trkpt><trkpt lat="46.0223048997081" lon="9.21528169494211"><ele>401.0</ele><time>2026-04-11T14:58:00Z</time></trkpt><trkpt lat="46.022377568121115" lon="9.215047417243786"><ele>404.0</ele><time>2026-04-11T14:58:01Z</time></trkpt><trkpt lat="46.022481951836525" lon="9.214832224958451"><ele>399.66666666666663</ele><time>2026-04-11T14:58:02Z</time></trkpt><trkpt lat="46.022607672502566" lon="9.214643939251959"><ele>395.33333333333337</ele><time>2026-04-11T14:58:03Z</time></trkpt><trkpt lat="46.022730310399155" lon="9.214479088301621"><ele>391.0</ele><time>2026-04-11T14:58:04Z</time></trkpt><trkpt lat="46.02284216831632" lon="9.214316064354325"><ele>391.0</ele><time>2026-04-11T14:58:05Z</time></trkpt><trkpt lat="46.02294738279934" lon="9.214164441614056"><ele>391.0</ele><time>2026-04-11T14:58:06Z</time></trkpt><trkpt lat="46.023041160133346" lon="9.21403191893366"><ele>391.0</ele><time>2026-04-11T14:58:07Z</time></trkpt><trkpt lat="46.02312511426062" lon="9.213914460603908"><ele>391.0</ele><time>2026-04-11T14:58:08Z</time></trkpt><trkpt lat="46.02320287129059" lon="9.213797158359847"><ele>388.75</ele><time>2026-04-11T14:58:09Z</time></trkpt><trkpt lat="46.0232862080316" lon="9.213677837703276"><ele>386.5</ele><time>2026-04-11T14:58:10Z</time></trkpt><trkpt lat="46.02337036619393" lon="9.213554142127112"><ele>384.25</ele><time>2026-04-11T14:58:11Z</time></trkpt><trkpt lat="46.023455787155136" lon="9.213429930371797"><ele>382.0</ele><time>2026-04-11T14:58:12Z</time></trkpt><trkpt lat="46.02354285796396" lon="9.213302825978419"><ele>382.0</ele><time>2026-04-11T14:58:13Z</time></trkpt><trkpt lat="46.02363036273163" lon="9.213172450041828"><ele>382.0</ele><time>2026-04-11T14:58:14Z</time></trkpt><trkpt lat="46.023715962255025" lon="9.2130391848931"><ele>382.0</ele><time>2026-04-11T14:58:15Z</time></trkpt><trkpt lat="46.023805632517615" lon="9.212906964271879"><ele>382.0</ele><time>2026-04-11T14:58:16Z</time></trkpt><trkpt lat="46.02389526402037" lon="9.212767405500587"><ele>382.5</ele><time>2026-04-11T14:58:17Z</time></trkpt><trkpt lat="46.02399111968013" lon="9.212623540667789"><ele>383.0</ele><time>2026-04-11T14:58:18Z</time></trkpt><trkpt lat="46.02408691323189" lon="9.212477069502063"><ele>383.5</ele><time>2026-04-11T14:58:19Z</time></trkpt><trkpt lat="46.02417502563856" lon="9.21232784353558"><ele>384.0</ele><time>2026-04-11T14:58:20Z</time></trkpt><trkpt lat="46.024251082896996" lon="9.212176937307547"><ele>384.75</ele><time>2026-04-11T14:58:21Z</time></trkpt><trkpt lat="46.02431732458499" lon="9.212008492614695"><ele>385.5</ele><time>2026-04-11T14:58:22Z</time></trkpt><trkpt lat="46.024366434059985" lon="9.211818188027092"><ele>386.25</ele><time>2026-04-11T14:58:23Z</time></trkpt><trkpt lat="46.02439437530235" lon="9.211609900289128"><ele>387.0</ele><time>2026-04-11T14:58:24Z</time></trkpt><trkpt lat="46.02441055898107" lon="9.2113961101024"><ele>391.0</ele><time>2026-04-11T14:58:25Z</time></trkpt><trkpt lat="46.02443233830586" lon="9.211177434496015"><ele>395.0</ele><time>2026-04-11T14:58:26Z</time></trkpt><trkpt lat="46.024476510324504" lon="9.210956609511191"><ele>399.0</ele><time>2026-04-11T14:58:27Z</time></trkpt><trkpt lat="46.0245483010464" lon="9.210742910046271"><ele>401.0</ele><time>2026-04-11T14:58:28Z</time></trkpt><trkpt lat="46.02463789272462" lon="9.21053336832449"><ele>403.0</ele><time>2026-04-11T14:58:29Z</time></trkpt><trkpt lat="46.024715869770674" lon="9.210310736678368"><ele>405.0</ele><time>2026-04-11T14:58:30Z</time></trkpt><trkpt lat="46.02476049422067" lon="9.210064914604748"><ele>406.0</ele><time>2026-04-11T14:58:31Z</time></trkpt><trkpt lat="46.02477630427264" lon="9.20981051017079"><ele>407.0</ele><time>2026-04-11T14:58:32Z</time></trkpt><trkpt lat="46.0247815045248" lon="9.209564830089692"><ele>408.0</ele><time>2026-04-11T14:58:33Z</time></trkpt><trkpt lat="46.02478749136712" lon="9.209327499351119"><ele>408.0</ele><time>2026-04-11T14:58:34Z</time></trkpt><trkpt lat="46.024803119071194" lon="9.2091008445521"><ele>408.0</ele><time>2026-04-11T14:58:35Z</time></trkpt><trkpt lat="46.024844970888346" lon="9.208884758479908"><ele>408.0</ele><time>2026-04-11T14:58:36Z</time></trkpt><trkpt lat="46.02492318659927" lon="9.208702730591876"><ele>399.0</ele><time>2026-04-11T14:58:37Z</time></trkpt><trkpt lat="46.02499469771367" lon="9.20851890491244"><ele>390.0</ele><time>2026-04-11T14:58:38Z</time></trkpt><trkpt lat="46.02509733879373" lon="9.208357060774102"><ele>381.0</ele><time>2026-04-11T14:58:39Z</time></trkpt><trkpt lat="46.025206734961536" lon="9.208200900381172"><ele>381.25</ele><time>2026-04-11T14:58:40Z</time></trkpt><trkpt lat="46.0253085123306" lon="9.20804859364754"><ele>381.5</ele><time>2026-04-11T14:58:41Z</time></trkpt><trkpt lat="46.02540479929082" lon="9.207898592032311"><ele>381.75</ele><time>2026-04-11T14:58:42Z</time></trkpt><trkpt lat="46.02550004445937" lon="9.20774823210767"><ele>382.0</ele><time>2026-04-11T14:58:43Z</time></trkpt><trkpt lat="46.0255968234285" lon="9.207595140533249"><ele>382.0</ele><time>2026-04-11T14:58:44Z</time></trkpt><trkpt lat="46.02569192608119" lon="9.207443075123267"><ele>382.0</ele><time>2026-04-11T14:58:45Z</time></trkpt><trkpt lat="46.0257864435379" lon="9.207296267912506"><ele>382.0</ele><time>2026-04-11T14:58:46Z</time></trkpt><trkpt lat="46.025883748388175" lon="9.207146323095806"><ele>382.0</ele><time>2026-04-11T14:58:47Z</time></trkpt><trkpt lat="46.02598181259151" lon="9.206992178019812"><ele>378.3333333333333</ele><time>2026-04-11T14:58:48Z</time></trkpt><trkpt lat="46.026081098247225" lon="9.206834027476685"><ele>374.6666666666667</ele><time>2026-04-11T14:58:49Z</time></trkpt><trkpt lat="46.02618230525312" lon="9.206668036988765"><ele>371.0</ele><time>2026-04-11T14:58:50Z</time></trkpt><trkpt lat="46.02628214574661" lon="9.206491840007219"><ele>370.33333333333337</ele><time>2026-04-11T14:58:51Z</time></trkpt><trkpt lat="46.02637977950445" lon="9.206301256498712"><ele>369.6666666666667</ele><time>2026-04-11T14:58:52Z</time></trkpt><trkpt lat="46.02647469335991" lon="9.206098142496804"><ele>369.0</ele><time>2026-04-11T14:58:53Z</time></trkpt><trkpt lat="46.0265664840928" lon="9.205882952491942"><ele>367.6666666666667</ele><time>2026-04-11T14:58:54Z</time></trkpt><trkpt lat="46.02665795140831" lon="9.205660218737556"><ele>366.33333333333337</ele><time>2026-04-11T14:58:55Z</time></trkpt><trkpt lat="46.02674985867854" lon="9.205435533900426"><ele>365.0</ele><time>2026-04-11T14:58:56Z</time></trkpt><trkpt lat="46.02684134459915" lon="9.205204627431547"><ele>365.0</ele><time>2026-04-11T14:58:57Z</time></trkpt><trkpt lat="46.02693555298249" lon="9.204971015231461"><ele>365.0</ele><time>2026-04-11T14:58:58Z</time></trkpt><trkpt lat="46.027031881265685" lon="9.204738603626147"><ele>365.0</ele><time>2026-04-11T14:58:59Z</time></trkpt><trkpt lat="46.02712728276056" lon="9.204504702030341"><ele>366.33333333333337</ele><time>2026-04-11T14:59:00Z</time></trkpt><trkpt lat="46.02722443575873" lon="9.204263920445989"><ele>367.6666666666667</ele><time>2026-04-11T14:59:01Z</time></trkpt><trkpt lat="46.02732596019561" lon="9.204021742311218"><ele>369.0</ele><time>2026-04-11T14:59:02Z</time></trkpt><trkpt lat="46.027425790677256" lon="9.203782822748323"><ele>371.6666666666667</ele><time>2026-04-11T14:59:03Z</time></trkpt><trkpt lat="46.027521439731" lon="9.203539621255683"><ele>374.33333333333337</ele><time>2026-04-11T14:59:04Z</time></trkpt><trkpt lat="46.02761382726846" lon="9.203296583990134"><ele>377.0</ele><time>2026-04-11T14:59:05Z</time></trkpt><trkpt lat="46.02769872201298" lon="9.203051866271917"><ele>377.6666666666667</ele><time>2026-04-11T14:59:06Z</time></trkpt><trkpt lat="46.027772583230465" lon="9.202795793063315"><ele>378.3333333333333</ele><time>2026-04-11T14:59:07Z</time></trkpt><trkpt lat="46.02783751683324" lon="9.202531679570312"><ele>379.0</ele><time>2026-04-11T14:59:08Z</time></trkpt><trkpt lat="46.02789428282154" lon="9.202267475487211"><ele>380.3333333333333</ele><time>2026-04-11T14:59:09Z</time></trkpt><trkpt lat="46.027947116118526" lon="9.202009793441537"><ele>381.6666666666667</ele><time>2026-04-11T14:59:10Z</time></trkpt><trkpt lat="46.02799902503215" lon="9.201754426260171"><ele>383.0</ele><time>2026-04-11T14:59:11Z</time></trkpt><trkpt lat="46.02805083595389" lon="9.201499569859555"><ele>380.33333333333337</ele><time>2026-04-11T14:59:12Z</time></trkpt><trkpt lat="46.02810617749857" lon="9.201245952905186"><ele>377.6666666666667</ele><time>2026-04-11T14:59:13Z</time></trkpt><trkpt lat="46.028169368027434" lon="9.20099486093926"><ele>375.0</ele><time>2026-04-11T14:59:14Z</time></trkpt><trkpt lat="46.028238176473444" lon="9.200742664614623"><ele>376.0</ele><time>2026-04-11T14:59:15Z</time></trkpt><trkpt lat="46.02831093063002" lon="9.200491186259926"><ele>377.0</ele><time>2026-04-11T14:59:16Z</time></trkpt><trkpt lat="46.028387100198955" lon="9.200242194438438"><ele>378.0</ele><time>2026-04-11T14:59:17Z</time></trkpt><trkpt lat="46.02846483599993" lon="9.19999868465455"><ele>376.3333333333333</ele><time>2026-04-11T14:59:18Z</time></trkpt><trkpt lat="46.02853799611805" lon="9.199758550063432"><ele>374.66666666666663</ele><time>2026-04-11T14:59:19Z</time></trkpt><trkpt lat="46.02860617228656" lon="9.199520581715653"><ele>373.0</ele><time>2026-04-11T14:59:20Z</time></trkpt><trkpt lat="46.02867407272085" lon="9.199293274735206"><ele>373.0</ele><time>2026-04-11T14:59:21Z</time></trkpt><trkpt lat="46.028739540130445" lon="9.199081997810065"><ele>373.0</ele><time>2026-04-11T14:59:22Z</time></trkpt><trkpt lat="46.02879991682099" lon="9.198879099292338"><ele>373.0</ele><time>2026-04-11T14:59:23Z</time></trkpt><trkpt lat="46.02886769140591" lon="9.19868073941675"><ele>370.75</ele><time>2026-04-11T14:59:24Z</time></trkpt><trkpt lat="46.02892443010942" lon="9.19850547112766"><ele>368.5</ele><time>2026-04-11T14:59:25Z</time></trkpt><trkpt lat="46.028977918358336" lon="9.198335978412786"><ele>366.25</ele><time>2026-04-11T14:59:26Z</time></trkpt><trkpt lat="46.02902644745094" lon="9.198174591046458"><ele>364.0</ele><time>2026-04-11T14:59:27Z</time></trkpt><trkpt lat="46.02907606410722" lon="9.198019655020932"><ele>362.25</ele><time>2026-04-11T14:59:28Z</time></trkpt><trkpt lat="46.02913056542605" lon="9.197846795877142"><ele>360.5</ele><time>2026-04-11T14:59:29Z</time></trkpt><trkpt lat="46.029186756155774" lon="9.19767086552363"><ele>358.75</ele><time>2026-04-11T14:59:30Z</time></trkpt><trkpt lat="46.02925652507855" lon="9.197486533333793"><ele>357.0</ele><time>2026-04-11T14:59:31Z</time></trkpt><trkpt lat="46.029328792065925" lon="9.197296690147693"><ele>362.3333333333333</ele><time>2026-04-11T14:59:32Z</time></trkpt><trkpt lat="46.029407291784416" lon="9.197105236797503"><ele>367.66666666666663</ele><time>2026-04-11T14:59:33Z</time></trkpt><trkpt lat="46.029489998347884" lon="9.196909638980436"><ele>373.0</ele><time>2026-04-11T14:59:34Z</time></trkpt><trkpt lat="46.029572174662285" lon="9.196723993227964"><ele>373.0</ele><time>2026-04-11T14:59:35Z</time></trkpt><trkpt lat="46.02965854032663" lon="9.196532260181725"><ele>373.0</ele><time>2026-04-11T14:59:36Z</time></trkpt><trkpt lat="46.029756754707954" lon="9.196362975166478"><ele>373.0</ele><time>2026-04-11T14:59:37Z</time></trkpt><trkpt lat="46.02985057042853" lon="9.196192201338585"><ele>373.0</ele><time>2026-04-11T14:59:38Z</time></trkpt><trkpt lat="46.02993810578806" lon="9.196031134834133"><ele>373.0</ele><time>2026-04-11T14:59:39Z</time></trkpt><trkpt lat="46.03002575413252" lon="9.195873715213787"><ele>373.0</ele><time>2026-04-11T14:59:40Z</time></trkpt><trkpt lat="46.030111356936004" lon="9.19571568041429"><ele>373.0</ele><time>2026-04-11T14:59:41Z</time></trkpt><trkpt lat="46.03020021676528" lon="9.195546234789665"><ele>373.0</ele><time>2026-04-11T14:59:42Z</time></trkpt><trkpt lat="46.030294638597844" lon="9.195372912001902"><ele>373.0</ele><time>2026-04-11T14:59:43Z</time></trkpt><trkpt lat="46.03039047613371" lon="9.19518766130421"><ele>373.0</ele><time>2026-04-11T14:59:44Z</time></trkpt><trkpt lat="46.03049471019789" lon="9.194994763597373"><ele>375.0</ele><time>2026-04-11T14:59:45Z</time></trkpt><trkpt lat="46.03059510530562" lon="9.194800023545053"><ele>377.0</ele><time>2026-04-11T14:59:46Z</time></trkpt><trkpt lat="46.030700494128105" lon="9.194603479256502"><ele>379.0</ele><time>2026-04-11T14:59:47Z</time></trkpt><trkpt lat="46.030815972336924" lon="9.194398947264858"><ele>379.0</ele><time>2026-04-11T14:59:48Z</time></trkpt><trkpt lat="46.030924996830045" lon="9.194194421740596"><ele>379.0</ele><time>2026-04-11T14:59:49Z</time></trkpt><trkpt lat="46.03103417383537" lon="9.193977917264222"><ele>379.0</ele><time>2026-04-11T14:59:50Z</time></trkpt><trkpt lat="46.03115317608777" lon="9.19374796663759"><ele>376.0</ele><time>2026-04-11T14:59:51Z</time></trkpt><trkpt lat="46.03128243898256" lon="9.193512268452436"><ele>373.0</ele><time>2026-04-11T14:59:52Z</time></trkpt><trkpt lat="46.0314190028562" lon="9.1932712633923"><ele>370.0</ele><time>2026-04-11T14:59:53Z</time></trkpt><trkpt lat="46.03155340374298" lon="9.193031775935575"><ele>371.3333333333333</ele><time>2026-04-11T14:59:54Z</time></trkpt><trkpt lat="46.03167500068796" lon="9.192801988584627"><ele>372.6666666666667</ele><time>2026-04-11T14:59:55Z</time></trkpt><trkpt lat="46.03178600248214" lon="9.192581125832778"><ele>374.0</ele><time>2026-04-11T14:59:56Z</time></trkpt><trkpt lat="46.03189079001887" lon="9.192370613072063"><ele>371.0</ele><time>2026-04-11T14:59:57Z</time></trkpt><trkpt lat="46.03198917443919" lon="9.192170738884927"><ele>368.0</ele><time>2026-04-11T14:59:58Z</time></trkpt><trkpt lat="46.032083500496036" lon="9.191982628218712"><ele>365.0</ele><time>2026-04-11T14:59:59Z</time></trkpt><trkpt lat="46.03217288825609" lon="9.191802108838663"><ele>365.0</ele><time>2026-04-11T15:00:00Z</time></trkpt><trkpt lat="46.03226852005603" lon="9.191623745530771"><ele>365.0</ele><time>2026-04-11T15:00:01Z</time></trkpt><trkpt lat="46.032363683758064" lon="9.191440777986221"><ele>365.0</ele><time>2026-04-11T15:00:02Z</time></trkpt><trkpt lat="46.03246138042678" lon="9.191254051439135"><ele>367.0</ele><time>2026-04-11T15:00:03Z</time></trkpt><trkpt lat="46.032554706529424" lon="9.191057601537818"><ele>369.0</ele><time>2026-04-11T15:00:04Z</time></trkpt><trkpt lat="46.032643689342365" lon="9.190881272529602"><ele>371.0</ele><time>2026-04-11T15:00:05Z</time></trkpt><trkpt lat="46.032735586513496" lon="9.190698811577711"><ele>370.5</ele><time>2026-04-11T15:00:06Z</time></trkpt><trkpt lat="46.032825575160494" lon="9.190516838848156"><ele>370.0</ele><time>2026-04-11T15:00:07Z</time></trkpt><trkpt lat="46.03291226199461" lon="9.190343711670286"><ele>369.5</ele><time>2026-04-11T15:00:08Z</time></trkpt><trkpt lat="46.03299268065599" lon="9.19017675982773"><ele>369.0</ele><time>2026-04-11T15:00:09Z</time></trkpt><trkpt lat="46.03308817853028" lon="9.190028087242021"><ele>369.0</ele><time>2026-04-11T15:00:10Z</time></trkpt><trkpt lat="46.03316732655963" lon="9.189871590364005"><ele>369.0</ele><time>2026-04-11T15:00:11Z</time></trkpt><trkpt lat="46.03324281985761" lon="9.18972177864325"><ele>369.0</ele><time>2026-04-11T15:00:12Z</time></trkpt><trkpt lat="46.0333174681293" lon="9.189569303675022"><ele>369.0</ele><time>2026-04-11T15:00:13Z</time></trkpt><trkpt lat="46.03339285010582" lon="9.18940802447883"><ele>368.0</ele><time>2026-04-11T15:00:14Z</time></trkpt><trkpt lat="46.03345518447391" lon="9.189216462945216"><ele>367.0</ele><time>2026-04-11T15:00:15Z</time></trkpt><trkpt lat="46.03353567789956" lon="9.189029526142809"><ele>366.0</ele><time>2026-04-11T15:00:16Z</time></trkpt><trkpt lat="46.03361728385863" lon="9.188843933197203"><ele>366.0</ele><time>2026-04-11T15:00:17Z</time></trkpt><trkpt lat="46.03371727763835" lon="9.18868546051294"><ele>366.0</ele><time>2026-04-11T15:00:18Z</time></trkpt><trkpt lat="46.03381786507794" lon="9.188539348616835"><ele>366.0</ele><time>2026-04-11T15:00:19Z</time></trkpt><trkpt lat="46.03392626035197" lon="9.188401259436333"><ele>366.0</ele><time>2026-04-11T15:00:20Z</time></trkpt><trkpt lat="46.03404429790688" lon="9.188257946875698"><ele>367.6666666666667</ele><time>2026-04-11T15:00:21Z</time></trkpt><trkpt lat="46.03416718134131" lon="9.188116757700799"><ele>369.33333333333337</ele><time>2026-04-11T15:00:22Z</time></trkpt><trkpt lat="46.034291460545916" lon="9.187974158804845"><ele>371.0</ele><time>2026-04-11T15:00:23Z</time></trkpt><trkpt lat="46.03440573406997" lon="9.18781104718705"><ele>371.0</ele><time>2026-04-11T15:00:24Z</time></trkpt><trkpt lat="46.03454085104336" lon="9.18768051427466"><ele>371.0</ele><time>2026-04-11T15:00:25Z</time></trkpt><trkpt lat="46.03464972721695" lon="9.187521868132318"><ele>371.0</ele><time>2026-04-11T15:00:26Z</time></trkpt><trkpt lat="46.03477420738719" lon="9.187413898529385"><ele>372.0</ele><time>2026-04-11T15:00:27Z</time></trkpt><trkpt lat="46.03489195768281" lon="9.187305399526602"><ele>373.0</ele><time>2026-04-11T15:00:28Z</time></trkpt><trkpt lat="46.03500218251252" lon="9.187188275986578"><ele>374.0</ele><time>2026-04-11T15:00:29Z</time></trkpt><trkpt lat="46.0350995918204" lon="9.187055553932918"><ele>375.0</ele><time>2026-04-11T15:00:30Z</time></trkpt><trkpt lat="46.03516657245913" lon="9.186888174537437"><ele>375.0</ele><time>2026-04-11T15:00:31Z</time></trkpt><trkpt lat="46.035251322260386" lon="9.186731745933498"><ele>375.0</ele><time>2026-04-11T15:00:32Z</time></trkpt><trkpt lat="46.03533749047762" lon="9.186576830237998"><ele>375.0</ele><time>2026-04-11T15:00:33Z</time></trkpt><trkpt lat="46.035435742359404" lon="9.186437828737903"><ele>375.0</ele><time>2026-04-11T15:00:34Z</time></trkpt><trkpt lat="46.03554848886665" lon="9.18631120924818"><ele>373.25</ele><time>2026-04-11T15:00:35Z</time></trkpt><trkpt lat="46.03566343018195" lon="9.186183309070863"><ele>371.5</ele><time>2026-04-11T15:00:36Z</time></trkpt><trkpt lat="46.03576285409153" lon="9.186064820182313"><ele>369.75</ele><time>2026-04-11T15:00:37Z</time></trkpt><trkpt lat="46.035866063300205" lon="9.185971580957478"><ele>368.0</ele><time>2026-04-11T15:00:38Z</time></trkpt><trkpt lat="46.03596069609901" lon="9.185858408890935"><ele>367.33333333333337</ele><time>2026-04-11T15:00:39Z</time></trkpt><trkpt lat="46.0360467926816" lon="9.185724024370627"><ele>366.6666666666667</ele><time>2026-04-11T15:00:40Z</time></trkpt><trkpt lat="46.036172450035316" lon="9.185630237616257"><ele>366.0</ele><time>2026-04-11T15:00:41Z</time></trkpt><trkpt lat="46.03608929214832" lon="9.18528637387592"><ele>361.6666666666667</ele><time>2026-04-11T15:00:42Z</time></trkpt><trkpt lat="46.03611995827375" lon="9.185041968311564"><ele>357.33333333333337</ele><time>2026-04-11T15:00:43Z</time></trkpt><trkpt lat="46.036171271122626" lon="9.18477525206799"><ele>353.0</ele><time>2026-04-11T15:00:44Z</time></trkpt><trkpt lat="46.03625684133056" lon="9.184498616248389"><ele>350.33333333333337</ele><time>2026-04-11T15:00:45Z</time></trkpt><trkpt lat="46.03637224536016" lon="9.18423354585411"><ele>347.6666666666667</ele><time>2026-04-11T15:00:46Z</time></trkpt><trkpt lat="46.036458083929205" lon="9.183939059697686"><ele>345.0</ele><time>2026-04-11T15:00:47Z</time></trkpt><trkpt lat="46.036561293218405" lon="9.183660452012504"><ele>346.0</ele><time>2026-04-11T15:00:48Z</time></trkpt><trkpt lat="46.03670391930556" lon="9.18341276611858"><ele>347.0</ele><time>2026-04-11T15:00:49Z</time></trkpt><trkpt lat="46.036824982389014" lon="9.183143399863958"><ele>348.0</ele><time>2026-04-11T15:00:50Z</time></trkpt><trkpt lat="46.036955103027736" lon="9.1828806413286"><ele>344.0</ele><time>2026-04-11T15:00:51Z</time></trkpt><trkpt lat="46.03707928947115" lon="9.182612195570915"><ele>340.0</ele><time>2026-04-11T15:00:52Z</time></trkpt><trkpt lat="46.037201114799416" lon="9.182349769455902"><ele>336.0</ele><time>2026-04-11T15:00:53Z</time></trkpt><trkpt lat="46.03732309356278" lon="9.18209831914581"><ele>337.0</ele><time>2026-04-11T15:00:54Z</time></trkpt><trkpt lat="46.037432151060884" lon="9.181845688277384"><ele>338.0</ele><time>2026-04-11T15:00:55Z</time></trkpt><trkpt lat="46.037512634738015" lon="9.181574119666147"><ele>339.0</ele><time>2026-04-11T15:00:56Z</time></trkpt><trkpt lat="46.037565226351326" lon="9.181286557988713"><ele>336.0</ele><time>2026-04-11T15:00:57Z</time></trkpt><trkpt lat="46.0376134622836" lon="9.180998607685499"><ele>333.0</ele><time>2026-04-11T15:00:58Z</time></trkpt><trkpt lat="46.037679739068956" lon="9.180713164670099"><ele>330.0</ele><time>2026-04-11T15:00:59Z</time></trkpt><trkpt lat="46.037763262262665" lon="9.18043702852728"><ele>327.3333333333333</ele><time>2026-04-11T15:01:00Z</time></trkpt><trkpt lat="46.037844128790844" lon="9.180167538613922"><ele>324.66666666666663</ele><time>2026-04-11T15:01:01Z</time></trkpt><trkpt lat="46.037920613924015" lon="9.17990559252579"><ele>322.0</ele><time>2026-04-11T15:01:02Z</time></trkpt><trkpt lat="46.03799292796642" lon="9.179652487881043"><ele>320.3333333333333</ele><time>2026-04-11T15:01:03Z</time></trkpt><trkpt lat="46.038061532813785" lon="9.179422356355584"><ele>318.6666666666667</ele><time>2026-04-11T15:01:04Z</time></trkpt><trkpt lat="46.038120468466964" lon="9.179221709205931"><ele>317.0</ele><time>2026-04-11T15:01:05Z</time></trkpt><trkpt lat="46.03816892424125" lon="9.179055503170886"><ele>316.4</ele><time>2026-04-11T15:01:06Z</time></trkpt><trkpt lat="46.03820966856232" lon="9.178924786389581"><ele>315.79999999999995</ele><time>2026-04-11T15:01:07Z</time></trkpt><trkpt lat="46.03825687229867" lon="9.178817001746967"><ele>315.2</ele><time>2026-04-11T15:01:08Z</time></trkpt><trkpt lat="46.038321516122174" lon="9.178722100228143"><ele>314.59999999999997</ele><time>2026-04-11T15:01:09Z</time></trkpt><trkpt lat="46.038389690618985" lon="9.17861705572125"><ele>314.0</ele><time>2026-04-11T15:01:10Z</time></trkpt><trkpt lat="46.03842624743606" lon="9.178464245169174"><ele>316.25</ele><time>2026-04-11T15:01:11Z</time></trkpt><trkpt lat="46.038482471197014" lon="9.178296048677828"><ele>318.5</ele><time>2026-04-11T15:01:12Z</time></trkpt><trkpt lat="46.038583407447206" lon="9.178159472211064"><ele>320.75</ele><time>2026-04-11T15:01:13Z</time></trkpt><trkpt lat="46.03869520927089" lon="9.178015384217728"><ele>323.0</ele><time>2026-04-11T15:01:14Z</time></trkpt><trkpt lat="46.03880177096235" lon="9.177848564808446"><ele>323.0</ele><time>2026-04-11T15:01:15Z</time></trkpt><trkpt lat="46.03890397080787" lon="9.177678300136055"><ele>323.0</ele><time>2026-04-11T15:01:16Z</time></trkpt><trkpt lat="46.03901251062584" lon="9.17750879943843"><ele>323.0</ele><time>2026-04-11T15:01:17Z</time></trkpt><trkpt lat="46.03911468193427" lon="9.177327776707857"><ele>322.6666666666667</ele><time>2026-04-11T15:01:18Z</time></trkpt><trkpt lat="46.03919925419674" lon="9.177122728677087"><ele>322.3333333333333</ele><time>2026-04-11T15:01:19Z</time></trkpt><trkpt lat="46.03925629237318" lon="9.176885410199754"><ele>322.0</ele><time>2026-04-11T15:01:20Z</time></trkpt><trkpt lat="46.03929410198171" lon="9.176638491821526"><ele>319.0</ele><time>2026-04-11T15:01:21Z</time></trkpt><trkpt lat="46.03932494398189" lon="9.176400258015972"><ele>316.0</ele><time>2026-04-11T15:01:22Z</time></trkpt><trkpt lat="46.039360127326454" lon="9.176165951944594"><ele>313.0</ele><time>2026-04-11T15:01:23Z</time></trkpt><trkpt lat="46.03939733578477" lon="9.175928718997008"><ele>313.0</ele><time>2026-04-11T15:01:24Z</time></trkpt><trkpt lat="46.03943082586318" lon="9.175693441692856"><ele>313.0</ele><time>2026-04-11T15:01:25Z</time></trkpt><trkpt lat="46.039464296858796" lon="9.175468349106346"><ele>313.0</ele><time>2026-04-11T15:01:26Z</time></trkpt><trkpt lat="46.03950311123677" lon="9.175256321415315"><ele>310.66666666666663</ele><time>2026-04-11T15:01:27Z</time></trkpt><trkpt lat="46.03958431393754" lon="9.175061181688394"><ele>308.3333333333333</ele><time>2026-04-11T15:01:28Z</time></trkpt><trkpt lat="46.03966319848596" lon="9.174855517278495"><ele>306.0</ele><time>2026-04-11T15:01:29Z</time></trkpt><trkpt lat="46.03972605847061" lon="9.17463066718148"><ele>304.3333333333333</ele><time>2026-04-11T15:01:30Z</time></trkpt><trkpt lat="46.039793302652356" lon="9.174419216257457"><ele>302.66666666666663</ele><time>2026-04-11T15:01:31Z</time></trkpt><trkpt lat="46.03985027577078" lon="9.174216477776353"><ele>301.0</ele><time>2026-04-11T15:01:32Z</time></trkpt><trkpt lat="46.03990722942041" lon="9.174023795672936"><ele>303.0</ele><time>2026-04-11T15:01:33Z</time></trkpt><trkpt lat="46.039973496359956" lon="9.173848759284827"><ele>305.0</ele><time>2026-04-11T15:01:34Z</time></trkpt><trkpt lat="46.0400475885405" lon="9.173699141738911"><ele>307.0</ele><time>2026-04-11T15:01:35Z</time></trkpt><trkpt lat="46.040120419556416" lon="9.173596100404499"><ele>309.0</ele><time>2026-04-11T15:01:36Z</time></trkpt><trkpt lat="46.040187436857025" lon="9.173532728786993"><ele>311.0</ele><time>2026-04-11T15:01:37Z</time></trkpt><trkpt lat="46.04026422372737" lon="9.173532279653346"><ele>311.0</ele><time>2026-04-11T15:01:38Z</time></trkpt><trkpt lat="46.040365690020785" lon="9.173579552081131"><ele>311.0</ele><time>2026-04-11T15:01:39Z</time></trkpt><trkpt lat="46.04047885663204" lon="9.17365873232877"><ele>311.0</ele><time>2026-04-11T15:01:40Z</time></trkpt><trkpt lat="46.04059769822687" lon="9.173724027986609"><ele>311.0</ele><time>2026-04-11T15:01:41Z</time></trkpt><trkpt lat="46.04070703947025" lon="9.17375877257764"><ele>311.75</ele><time>2026-04-11T15:01:42Z</time></trkpt><trkpt lat="46.040814735519625" lon="9.173742075627398"><ele>312.5</ele><time>2026-04-11T15:01:43Z</time></trkpt><trkpt lat="46.040917896013234" lon="9.173675884721117"><ele>313.25</ele><time>2026-04-11T15:01:44Z</time></trkpt><trkpt lat="46.0410137849373" lon="9.173547304342208"><ele>314.0</ele><time>2026-04-11T15:01:45Z</time></trkpt><trkpt lat="46.04109327880717" lon="9.173381313612191"><ele>314.0</ele><time>2026-04-11T15:01:46Z</time></trkpt><trkpt lat="46.04116394381964" lon="9.173207233119538"><ele>314.0</ele><time>2026-04-11T15:01:47Z</time></trkpt><trkpt lat="46.0412334966451" lon="9.17303558137848"><ele>314.0</ele><time>2026-04-11T15:01:48Z</time></trkpt><trkpt lat="46.04130472814713" lon="9.17286769985612"><ele>314.0</ele><time>2026-04-11T15:01:49Z</time></trkpt><trkpt lat="46.04137074563035" lon="9.172705783562455"><ele>311.75</ele><time>2026-04-11T15:01:50Z</time></trkpt><trkpt lat="46.04143326121627" lon="9.172545247199018"><ele>309.5</ele><time>2026-04-11T15:01:51Z</time></trkpt><trkpt lat="46.041480254279755" lon="9.172389766612865"><ele>307.25</ele><time>2026-04-11T15:01:52Z</time></trkpt><trkpt lat="46.04150256693721" lon="9.172236120104882"><ele>305.0</ele><time>2026-04-11T15:01:53Z</time></trkpt><trkpt lat="46.0415092404553" lon="9.172061492557377"><ele>302.25</ele><time>2026-04-11T15:01:54Z</time></trkpt><trkpt lat="46.04152317959309" lon="9.171861569117457"><ele>299.5</ele><time>2026-04-11T15:01:55Z</time></trkpt><trkpt lat="46.041579327657914" lon="9.171658528508205"><ele>296.75</ele><time>2026-04-11T15:01:56Z</time></trkpt><trkpt lat="46.041603609578665" lon="9.171456605998635"><ele>294.0</ele><time>2026-04-11T15:01:57Z</time></trkpt><trkpt lat="46.04162630188355" lon="9.17127156082309"><ele>295.59999999999997</ele><time>2026-04-11T15:01:58Z</time></trkpt><trkpt lat="46.0416473979859" lon="9.171099531631763"><ele>297.2</ele><time>2026-04-11T15:01:59Z</time></trkpt><trkpt lat="46.041665294867386" lon="9.17095359130248"><ele>298.79999999999995</ele><time>2026-04-11T15:02:00Z</time></trkpt><trkpt lat="46.04167958692237" lon="9.17083600272383"><ele>300.4</ele><time>2026-04-11T15:02:01Z</time></trkpt><trkpt lat="46.04169484395896" lon="9.17071016615235"><ele>302.0</ele><time>2026-04-11T15:02:02Z</time></trkpt><trkpt lat="46.041711168171304" lon="9.170575527898114"><ele>302.0</ele><time>2026-04-11T15:02:03Z</time></trkpt><trkpt lat="46.04172463076846" lon="9.170464491669927"><ele>302.0</ele><time>2026-04-11T15:02:04Z</time></trkpt><trkpt lat="46.041722186925064" lon="9.170350644402303"><ele>302.0</ele><time>2026-04-11T15:02:06Z</time></trkpt><trkpt lat="46.04175873816823" lon="9.170238633093197"><ele>302.0</ele><time>2026-04-11T15:02:09Z</time></trkpt><trkpt lat="46.04177968908089" lon="9.170108420953383"><ele>302.0</ele><time>2026-04-11T15:02:11Z</time></trkpt><trkpt lat="46.04182177815907" lon="9.169935323700946"><ele>301.0</ele><time>2026-04-11T15:02:13Z</time></trkpt><trkpt lat="46.041876462257925" lon="9.169768687027803"><ele>300.0</ele><time>2026-04-11T15:02:15Z</time></trkpt><trkpt lat="46.041922152175665" lon="9.169621705193125"><ele>299.0</ele><time>2026-04-11T15:02:17Z</time></trkpt><trkpt lat="46.041957704452116" lon="9.169495024317575"><ele>298.0</ele><time>2026-04-11T15:02:19Z</time></trkpt><trkpt lat="46.041998735184556" lon="9.16931580921022"><ele>298.0</ele><time>2026-04-11T15:02:21Z</time></trkpt><trkpt lat="46.04202042528353" lon="9.169225218984694"><ele>298.0</ele><time>2026-04-11T15:02:22Z</time></trkpt><trkpt lat="46.04202387090723" lon="9.169116831688832"><ele>298.0</ele><time>2026-04-11T15:02:23Z</time></trkpt><trkpt lat="46.04202369466692" lon="9.168984560464416"><ele>298.0</ele><time>2026-04-11T15:02:25Z</time></trkpt><trkpt lat="46.042018663357844" lon="9.168878463648591"><ele>298.0</ele><time>2026-04-11T15:02:27Z</time></trkpt><trkpt lat="46.04201491810564" lon="9.168763556338645"><ele>298.0</ele><time>2026-04-11T15:02:29Z</time></trkpt><trkpt lat="46.042025955630585" lon="9.16862202893417"><ele>298.3333333333333</ele><time>2026-04-11T15:02:31Z</time></trkpt><trkpt lat="46.04202836055749" lon="9.168519117119876"><ele>298.66666666666663</ele><time>2026-04-11T15:02:32Z</time></trkpt><trkpt lat="46.04203509806191" lon="9.168411153382994"><ele>299.0</ele><time>2026-04-11T15:02:33Z</time></trkpt><trkpt lat="46.042037366653894" lon="9.168296010734796"><ele>299.3333333333333</ele><time>2026-04-11T15:02:34Z</time></trkpt><trkpt lat="46.04204498879357" lon="9.1681603763662"><ele>299.6666666666667</ele><time>2026-04-11T15:02:35Z</time></trkpt><trkpt lat="46.042049310032574" lon="9.16802325046147"><ele>300.0</ele><time>2026-04-11T15:02:36Z</time></trkpt><trkpt lat="46.04205556909581" lon="9.167869713698087"><ele>299.2</ele><time>2026-04-11T15:02:37Z</time></trkpt><trkpt lat="46.04206274106329" lon="9.16771440619295"><ele>298.4</ele><time>2026-04-11T15:02:38Z</time></trkpt><trkpt lat="46.042065708148904" lon="9.167566415761396"><ele>297.6</ele><time>2026-04-11T15:02:39Z</time></trkpt><trkpt lat="46.04207122085125" lon="9.167414877766923"><ele>296.8</ele><time>2026-04-11T15:02:40Z</time></trkpt><trkpt lat="46.042077369703605" lon="9.16725659551629"><ele>296.0</ele><time>2026-04-11T15:02:41Z</time></trkpt><trkpt lat="46.04208296235071" lon="9.167098730562"><ele>295.75</ele><time>2026-04-11T15:02:42Z</time></trkpt><trkpt lat="46.04208972997147" lon="9.166937696630992"><ele>295.5</ele><time>2026-04-11T15:02:43Z</time></trkpt><trkpt lat="46.04209574824908" lon="9.16677723934044"><ele>295.25</ele><time>2026-04-11T15:02:44Z</time></trkpt><trkpt lat="46.04210122903753" lon="9.166615363315103"><ele>295.0</ele><time>2026-04-11T15:02:45Z</time></trkpt><trkpt lat="46.04210629755761" lon="9.166445587613932"><ele>294.8</ele><time>2026-04-11T15:02:46Z</time></trkpt><trkpt lat="46.042110276339365" lon="9.166272739815527"><ele>294.6</ele><time>2026-04-11T15:02:47Z</time></trkpt><trkpt lat="46.042117798376104" lon="9.166117518839515"><ele>294.4</ele><time>2026-04-11T15:02:48Z</time></trkpt><trkpt lat="46.042123719197406" lon="9.165967029685477"><ele>294.2</ele><time>2026-04-11T15:02:49Z</time></trkpt><trkpt lat="46.042129125640336" lon="9.165821780704919"><ele>294.0</ele><time>2026-04-11T15:02:50Z</time></trkpt><trkpt lat="46.04213424156441" lon="9.165676310612143"><ele>293.4</ele><time>2026-04-11T15:02:51Z</time></trkpt><trkpt lat="46.042139876570474" lon="9.165528048916796"><ele>292.79999999999995</ele><time>2026-04-11T15:02:52Z</time></trkpt><trkpt lat="46.042148150542126" lon="9.165374751453324"><ele>292.20000000000005</ele><time>2026-04-11T15:02:53Z</time></trkpt><trkpt lat="46.04215603413017" lon="9.165213868811833"><ele>291.6</ele><time>2026-04-11T15:02:54Z</time></trkpt><trkpt lat="46.042165349798495" lon="9.165049782973396"><ele>291.0</ele><time>2026-04-11T15:02:55Z</time></trkpt><trkpt lat="46.04217641110625" lon="9.16488334657319"><ele>290.25</ele><time>2026-04-11T15:02:56Z</time></trkpt><trkpt lat="46.042198022438605" lon="9.164725221357738"><ele>289.5</ele><time>2026-04-11T15:02:57Z</time></trkpt><trkpt lat="46.042226533415985" lon="9.164564439237221"><ele>288.75</ele><time>2026-04-11T15:02:58Z</time></trkpt><trkpt lat="46.042261511946684" lon="9.164403101564634"><ele>288.0</ele><time>2026-04-11T15:02:59Z</time></trkpt><trkpt lat="46.04230349043871" lon="9.164252169383333"><ele>288.0</ele><time>2026-04-11T15:03:00Z</time></trkpt><trkpt lat="46.042351825761855" lon="9.16410265713582"><ele>288.0</ele><time>2026-04-11T15:03:01Z</time></trkpt><trkpt lat="46.04240361676685" lon="9.163952158035544"><ele>288.0</ele><time>2026-04-11T15:03:02Z</time></trkpt><trkpt lat="46.04244830989607" lon="9.163812190225183"><ele>288.0</ele><time>2026-04-11T15:03:03Z</time></trkpt><trkpt lat="46.04249192925267" lon="9.163690605852391"><ele>288.0</ele><time>2026-04-11T15:03:04Z</time></trkpt><trkpt lat="46.04253630484778" lon="9.16356934346162"><ele>288.4</ele><time>2026-04-11T15:03:05Z</time></trkpt><trkpt lat="46.042577977135004" lon="9.163446901423358"><ele>288.8</ele><time>2026-04-11T15:03:06Z</time></trkpt><trkpt lat="46.04262352920214" lon="9.163315229966447"><ele>289.2</ele><time>2026-04-11T15:03:07Z</time></trkpt><trkpt lat="46.04266738163922" lon="9.163190987189992"><ele>289.6</ele><time>2026-04-11T15:03:08Z</time></trkpt><trkpt lat="46.04272377673857" lon="9.163060698330437"><ele>290.0</ele><time>2026-04-11T15:03:09Z</time></trkpt><trkpt lat="46.042763274081025" lon="9.16291623697825"><ele>290.0</ele><time>2026-04-11T15:03:10Z</time></trkpt><trkpt lat="46.042790172626034" lon="9.162739287585705"><ele>290.0</ele><time>2026-04-11T15:03:11Z</time></trkpt><trkpt lat="46.04280483001266" lon="9.162558114189657"><ele>290.0</ele><time>2026-04-11T15:03:12Z</time></trkpt><trkpt lat="46.04281291389267" lon="9.162361425318677"><ele>290.0</ele><time>2026-04-11T15:03:13Z</time></trkpt><trkpt lat="46.042819152232696" lon="9.162181538363248"><ele>290.25</ele><time>2026-04-11T15:03:14Z</time></trkpt><trkpt lat="46.042803733501785" lon="9.162009918040459"><ele>290.5</ele><time>2026-04-11T15:03:15Z</time></trkpt><trkpt lat="46.0428098869137" lon="9.161845347013148"><ele>290.75</ele><time>2026-04-11T15:03:16Z</time></trkpt><trkpt lat="46.042817492447476" lon="9.161673654478358"><ele>291.0</ele><time>2026-04-11T15:03:17Z</time></trkpt><trkpt lat="46.04282623445378" lon="9.161499374017003"><ele>290.5</ele><time>2026-04-11T15:03:18Z</time></trkpt><trkpt lat="46.042835792618746" lon="9.16132315211683"><ele>290.0</ele><time>2026-04-11T15:03:19Z</time></trkpt><trkpt lat="46.04285987137795" lon="9.161136589028093"><ele>289.5</ele><time>2026-04-11T15:03:20Z</time></trkpt><trkpt lat="46.04285329586998" lon="9.160943236887244"><ele>289.0</ele><time>2026-04-11T15:03:21Z</time></trkpt><trkpt lat="46.042864112095415" lon="9.160742737527631"><ele>288.5</ele><time>2026-04-11T15:03:22Z</time></trkpt><trkpt lat="46.04286919114518" lon="9.160538335254888"><ele>288.0</ele><time>2026-04-11T15:03:23Z</time></trkpt><trkpt lat="46.04289195215458" lon="9.160332757273329"><ele>287.5</ele><time>2026-04-11T15:03:24Z</time></trkpt><trkpt lat="46.04288381744824" lon="9.16013113301031"><ele>287.0</ele><time>2026-04-11T15:03:25Z</time></trkpt><trkpt lat="46.042893113945254" lon="9.159943507504858"><ele>287.5</ele><time>2026-04-11T15:03:26Z</time></trkpt><trkpt lat="46.04289882360314" lon="9.159769507457215"><ele>288.0</ele><time>2026-04-11T15:03:27Z</time></trkpt><trkpt lat="46.04291957837649" lon="9.159600564156461"><ele>288.5</ele><time>2026-04-11T15:03:28Z</time></trkpt><trkpt lat="46.04292660465175" lon="9.159434837781006"><ele>289.0</ele><time>2026-04-11T15:03:29Z</time></trkpt><trkpt lat="46.04293410119257" lon="9.159262687114389"><ele>289.0</ele><time>2026-04-11T15:03:30Z</time></trkpt><trkpt lat="46.04294144740819" lon="9.159076749006234"><ele>289.0</ele><time>2026-04-11T15:03:31Z</time></trkpt><trkpt lat="46.04294774240936" lon="9.158886362840063"><ele>289.0</ele><time>2026-04-11T15:03:32Z</time></trkpt><trkpt lat="46.04295050222675" lon="9.15870263635442"><ele>289.0</ele><time>2026-04-11T15:03:33Z</time></trkpt><trkpt lat="46.04294915829327" lon="9.158513913779307"><ele>288.5</ele><time>2026-04-11T15:03:34Z</time></trkpt><trkpt lat="46.04294630354902" lon="9.158324848021143"><ele>288.0</ele><time>2026-04-11T15:03:35Z</time></trkpt><trkpt lat="46.042943109096214" lon="9.15813961886083"><ele>287.5</ele><time>2026-04-11T15:03:36Z</time></trkpt><trkpt lat="46.04294021330775" lon="9.157957174296525"><ele>287.0</ele><time>2026-04-11T15:03:37Z</time></trkpt><trkpt lat="46.04293745718514" lon="9.157777583317054"><ele>287.0</ele><time>2026-04-11T15:03:38Z</time></trkpt><trkpt lat="46.04293501054622" lon="9.157598256529047"><ele>287.0</ele><time>2026-04-11T15:03:39Z</time></trkpt><trkpt lat="46.04293268349461" lon="9.157418196367635"><ele>287.0</ele><time>2026-04-11T15:03:40Z</time></trkpt><trkpt lat="46.04293043776029" lon="9.157244428335533"><ele>287.0</ele><time>2026-04-11T15:03:41Z</time></trkpt><trkpt lat="46.04292845787117" lon="9.157091230529895"><ele>287.0</ele><time>2026-04-11T15:03:42Z</time></trkpt><trkpt lat="46.04292656387997" lon="9.15694467916035"><ele>287.0</ele><time>2026-04-11T15:03:43Z</time></trkpt><trkpt lat="46.0429247216859" lon="9.156802135889409"><ele>287.0</ele><time>2026-04-11T15:03:44Z</time></trkpt><trkpt lat="46.04292295348218" lon="9.156665318894625"><ele>287.0</ele><time>2026-04-11T15:03:45Z</time></trkpt><trkpt lat="46.04292170069773" lon="9.156537275034973"><ele>287.0</ele><time>2026-04-11T15:03:46Z</time></trkpt><trkpt lat="46.04292057158709" lon="9.156431803946962"><ele>287.1666666666667</ele><time>2026-04-11T15:03:47Z</time></trkpt><trkpt lat="46.042919596907176" lon="9.156340758451764"><ele>287.33333333333337</ele><time>2026-04-11T15:03:48Z</time></trkpt><trkpt lat="46.04291798576517" lon="9.156190260595602"><ele>287.5</ele><time>2026-04-11T15:03:50Z</time></trkpt><trkpt lat="46.04291540290208" lon="9.156030979409536"><ele>287.6666666666667</ele><time>2026-04-11T15:03:52Z</time></trkpt><trkpt lat="46.04291382813839" lon="9.155932835248793"><ele>287.8333333333333</ele><time>2026-04-11T15:03:53Z</time></trkpt><trkpt lat="46.04291208347247" lon="9.1558241024425"><ele>288.0</ele><time>2026-04-11T15:03:54Z</time></trkpt><trkpt lat="46.0429099138086" lon="9.15568888610414"><ele>288.0</ele><time>2026-04-11T15:03:55Z</time></trkpt><trkpt lat="46.04290872826823" lon="9.155553708570832"><ele>288.0</ele><time>2026-04-11T15:03:56Z</time></trkpt><trkpt lat="46.04290668194518" lon="9.155421597983626"><ele>288.0</ele><time>2026-04-11T15:03:57Z</time></trkpt><trkpt lat="46.042888574680504" lon="9.155279545546074"><ele>288.0</ele><time>2026-04-11T15:03:58Z</time></trkpt><trkpt lat="46.04288810798277" lon="9.15511481386722"><ele>288.0</ele><time>2026-04-11T15:03:59Z</time></trkpt><trkpt lat="46.042885230083556" lon="9.154926376338453"><ele>288.0</ele><time>2026-04-11T15:04:00Z</time></trkpt><trkpt lat="46.04288341595239" lon="9.154731211405451"><ele>288.0</ele><time>2026-04-11T15:04:01Z</time></trkpt><trkpt lat="46.042880243242834" lon="9.154552220609144"><ele>288.0</ele><time>2026-04-11T15:04:02Z</time></trkpt><trkpt lat="46.04287894839357" lon="9.154387230427325"><ele>288.0</ele><time>2026-04-11T15:04:03Z</time></trkpt><trkpt lat="46.04287591769398" lon="9.154231824708368"><ele>288.0</ele><time>2026-04-11T15:04:04Z</time></trkpt><trkpt lat="46.04287307351295" lon="9.154073097851573"><ele>288.0</ele><time>2026-04-11T15:04:05Z</time></trkpt><trkpt lat="46.042872668230125" lon="9.153915367656912"><ele>288.0</ele><time>2026-04-11T15:04:06Z</time></trkpt><trkpt lat="46.042870982122196" lon="9.153749986102545"><ele>288.0</ele><time>2026-04-11T15:04:07Z</time></trkpt><trkpt lat="46.04286919393284" lon="9.153581322864484"><ele>288.5</ele><time>2026-04-11T15:04:08Z</time></trkpt><trkpt lat="46.0428646168016" lon="9.153414481267145"><ele>289.0</ele><time>2026-04-11T15:04:09Z</time></trkpt><trkpt lat="46.04286099183745" lon="9.1532462798898"><ele>289.5</ele><time>2026-04-11T15:04:10Z</time></trkpt><trkpt lat="46.042857344381645" lon="9.153069421492326"><ele>290.0</ele><time>2026-04-11T15:04:11Z</time></trkpt><trkpt lat="46.042845201662736" lon="9.152882424492445"><ele>290.2</ele><time>2026-04-11T15:04:12Z</time></trkpt><trkpt lat="46.04282104286806" lon="9.152706133762274"><ele>290.4</ele><time>2026-04-11T15:04:13Z</time></trkpt><trkpt lat="46.04280516350499" lon="9.152538002040618"><ele>290.6</ele><time>2026-04-11T15:04:14Z</time></trkpt><trkpt lat="46.04275742584476" lon="9.152405499075687"><ele>290.8</ele><time>2026-04-11T15:04:15Z</time></trkpt><trkpt lat="46.04272088285298" lon="9.152281727500865"><ele>291.0</ele><time>2026-04-11T15:04:16Z</time></trkpt><trkpt lat="46.042685466308775" lon="9.15217759295737"><ele>291.3333333333333</ele><time>2026-04-11T15:04:17Z</time></trkpt><trkpt lat="46.042647758171405" lon="9.152072333368531"><ele>291.6666666666667</ele><time>2026-04-11T15:04:18Z</time></trkpt><trkpt lat="46.04260847222633" lon="9.151969731548387"><ele>292.0</ele><time>2026-04-11T15:04:19Z</time></trkpt><trkpt lat="46.04256864760242" lon="9.151870314364391"><ele>292.33333333333337</ele><time>2026-04-11T15:04:20Z</time></trkpt><trkpt lat="46.04252425750458" lon="9.151765608598215"><ele>292.6666666666667</ele><time>2026-04-11T15:04:21Z</time></trkpt><trkpt lat="46.042481562722216" lon="9.151660914862768"><ele>293.0</ele><time>2026-04-11T15:04:22Z</time></trkpt><trkpt lat="46.04243858988093" lon="9.151562580329637"><ele>292.4285714285714</ele><time>2026-04-11T15:04:23Z</time></trkpt><trkpt lat="46.04239847680459" lon="9.151468865291617"><ele>291.85714285714283</ele><time>2026-04-11T15:04:24Z</time></trkpt><trkpt lat="46.042358773318796" lon="9.151371970956587"><ele>291.2857142857143</ele><time>2026-04-11T15:04:25Z</time></trkpt><trkpt lat="46.042319849411264" lon="9.151282818878217"><ele>290.71428571428567</ele><time>2026-04-11T15:04:26Z</time></trkpt><trkpt lat="46.042281661995304" lon="9.151201919393472"><ele>290.1428571428571</ele><time>2026-04-11T15:04:27Z</time></trkpt><trkpt lat="46.04224430637069" lon="9.151114362678578"><ele>289.57142857142856</ele><time>2026-04-11T15:04:28Z</time></trkpt><trkpt lat="46.04220900715522" lon="9.151034997554738"><ele>289.0</ele><time>2026-04-11T15:04:29Z</time></trkpt><trkpt lat="46.04214101937165" lon="9.150888581860176"><ele>289.0</ele><time>2026-04-11T15:04:31Z</time></trkpt><trkpt lat="46.04208692356746" lon="9.150763721251002"><ele>289.0</ele><time>2026-04-11T15:04:33Z</time></trkpt><trkpt lat="46.04202850097824" lon="9.15064048209447"><ele>289.0</ele><time>2026-04-11T15:04:35Z</time></trkpt><trkpt lat="46.04197127090473" lon="9.150525149081192"><ele>289.0</ele><time>2026-04-11T15:04:37Z</time></trkpt><trkpt lat="46.04193052239793" lon="9.150438573088602"><ele>289.0</ele><time>2026-04-11T15:04:39Z</time></trkpt><trkpt lat="46.04187493721092" lon="9.15031014229649"><ele>289.59999999999997</ele><time>2026-04-11T15:04:47Z</time></trkpt><trkpt lat="46.04183009436361" lon="9.150224314195954"><ele>290.2</ele><time>2026-04-11T15:04:49Z</time></trkpt><trkpt lat="46.04179339690978" lon="9.150118114245979"><ele>290.79999999999995</ele><time>2026-04-11T15:04:53Z</time></trkpt><trkpt lat="46.041736461011304" lon="9.149938171116505"><ele>291.4</ele><time>2026-04-11T15:04:55Z</time></trkpt><trkpt lat="46.04166997617314" lon="9.149838066980802"><ele>292.0</ele><time>2026-04-11T15:04:56Z</time></trkpt><trkpt lat="46.041611790006634" lon="9.149724024187705"><ele>292.0</ele><time>2026-04-11T15:04:57Z</time></trkpt><trkpt lat="46.041559720142395" lon="9.149600037824882"><ele>292.0</ele><time>2026-04-11T15:04:58Z</time></trkpt><trkpt lat="46.041509890709975" lon="9.149467108843105"><ele>292.0</ele><time>2026-04-11T15:04:59Z</time></trkpt><trkpt lat="46.041456650077656" lon="9.149331357197891"><ele>292.0</ele><time>2026-04-11T15:05:00Z</time></trkpt><trkpt lat="46.0414036083649" lon="9.149180863965354"><ele>292.0</ele><time>2026-04-11T15:05:01Z</time></trkpt><trkpt lat="46.04135828565306" lon="9.149018320704139"><ele>291.75</ele><time>2026-04-11T15:05:02Z</time></trkpt><trkpt lat="46.04131849068917" lon="9.148870392785085"><ele>291.5</ele><time>2026-04-11T15:05:03Z</time></trkpt><trkpt lat="46.04128340557534" lon="9.148723333201975"><ele>291.25</ele><time>2026-04-11T15:05:04Z</time></trkpt><trkpt lat="46.04124836346109" lon="9.148572716375448"><ele>291.0</ele><time>2026-04-11T15:05:05Z</time></trkpt><trkpt lat="46.04120342047979" lon="9.14839779686464"><ele>291.25</ele><time>2026-04-11T15:05:06Z</time></trkpt><trkpt lat="46.041175164667614" lon="9.148195940451998"><ele>291.5</ele><time>2026-04-11T15:05:07Z</time></trkpt><trkpt lat="46.0411323348216" lon="9.14800306185754"><ele>291.75</ele><time>2026-04-11T15:05:08Z</time></trkpt><trkpt lat="46.04107920626492" lon="9.147836925292594"><ele>292.0</ele><time>2026-04-11T15:05:09Z</time></trkpt><trkpt lat="46.04104637959744" lon="9.147679220556258"><ele>292.0</ele><time>2026-04-11T15:05:10Z</time></trkpt><trkpt lat="46.04100918832123" lon="9.14752284784925"><ele>292.0</ele><time>2026-04-11T15:05:11Z</time></trkpt><trkpt lat="46.04096937076869" lon="9.147348172578722"><ele>292.0</ele><time>2026-04-11T15:05:12Z</time></trkpt><trkpt lat="46.04093036130575" lon="9.147161093794587"><ele>292.0</ele><time>2026-04-11T15:05:13Z</time></trkpt><trkpt lat="46.04089406753937" lon="9.146977110543133"><ele>292.75</ele><time>2026-04-11T15:05:14Z</time></trkpt><trkpt lat="46.04085611944864" lon="9.146796270582904"><ele>293.5</ele><time>2026-04-11T15:05:15Z</time></trkpt><trkpt lat="46.04081575026046" lon="9.14661702455205"><ele>294.25</ele><time>2026-04-11T15:05:16Z</time></trkpt><trkpt lat="46.040776319875725" lon="9.146447046272156"><ele>295.0</ele><time>2026-04-11T15:05:17Z</time></trkpt><trkpt lat="46.04073910403506" lon="9.146288067404603"><ele>295.25</ele><time>2026-04-11T15:05:18Z</time></trkpt><trkpt lat="46.040704839693554" lon="9.146134877896062"><ele>295.5</ele><time>2026-04-11T15:05:19Z</time></trkpt><trkpt lat="46.040669581478454" lon="9.145979783835292"><ele>295.75</ele><time>2026-04-11T15:05:20Z</time></trkpt><trkpt lat="46.04063276176188" lon="9.145824547910978"><ele>296.0</ele><time>2026-04-11T15:05:21Z</time></trkpt><trkpt lat="46.040597651185834" lon="9.145662902783082"><ele>296.5</ele><time>2026-04-11T15:05:22Z</time></trkpt><trkpt lat="46.04056442680276" lon="9.14550304708245"><ele>297.0</ele><time>2026-04-11T15:05:23Z</time></trkpt><trkpt lat="46.040527741472644" lon="9.14534739350438"><ele>297.5</ele><time>2026-04-11T15:05:24Z</time></trkpt><trkpt lat="46.04049276229213" lon="9.145194934682898"><ele>298.0</ele><time>2026-04-11T15:05:25Z</time></trkpt><trkpt lat="46.04045853548251" lon="9.145037761873235"><ele>298.75</ele><time>2026-04-11T15:05:26Z</time></trkpt><trkpt lat="46.04042316718999" lon="9.14487362817191"><ele>299.5</ele><time>2026-04-11T15:05:27Z</time></trkpt><trkpt lat="46.040388738386184" lon="9.144714278716103"><ele>300.25</ele><time>2026-04-11T15:05:28Z</time></trkpt><trkpt lat="46.04036061268783" lon="9.144559629566846"><ele>301.0</ele><time>2026-04-11T15:05:29Z</time></trkpt><trkpt lat="46.04033740532054" lon="9.14440419004935"><ele>301.0</ele><time>2026-04-11T15:05:30Z</time></trkpt><trkpt lat="46.04032172219494" lon="9.144247339153424"><ele>301.0</ele><time>2026-04-11T15:05:31Z</time></trkpt><trkpt lat="46.04033149673289" lon="9.144093937401472"><ele>301.0</ele><time>2026-04-11T15:05:32Z</time></trkpt><trkpt lat="46.04033135853784" lon="9.143937795307702"><ele>301.0</ele><time>2026-04-11T15:05:33Z</time></trkpt><trkpt lat="46.040318154359305" lon="9.14377260866012"><ele>301.0</ele><time>2026-04-11T15:05:34Z</time></trkpt><trkpt lat="46.040323955592974" lon="9.143604366752282"><ele>301.25</ele><time>2026-04-11T15:05:35Z</time></trkpt><trkpt lat="46.040344373417426" lon="9.143425502959609"><ele>301.5</ele><time>2026-04-11T15:05:36Z</time></trkpt><trkpt lat="46.040348965154344" lon="9.143238081293203"><ele>301.75</ele><time>2026-04-11T15:05:37Z</time></trkpt><trkpt lat="46.04035362823237" lon="9.143041795743969"><ele>302.0</ele><time>2026-04-11T15:05:38Z</time></trkpt><trkpt lat="46.0403581646414" lon="9.142848679558137"><ele>301.6</ele><time>2026-04-11T15:05:39Z</time></trkpt><trkpt lat="46.04036228015065" lon="9.142673481380605"><ele>301.2</ele><time>2026-04-11T15:05:40Z</time></trkpt><trkpt lat="46.04036592908876" lon="9.142508994278966"><ele>300.8</ele><time>2026-04-11T15:05:41Z</time></trkpt><trkpt lat="46.04036924202624" lon="9.142359528744333"><ele>300.4</ele><time>2026-04-11T15:05:42Z</time></trkpt><trkpt lat="46.04037253934748" lon="9.142210767825437"><ele>300.0</ele><time>2026-04-11T15:05:43Z</time></trkpt><trkpt lat="46.04037562230168" lon="9.142071678137954"><ele>300.0</ele><time>2026-04-11T15:05:44Z</time></trkpt><trkpt lat="46.040378543254704" lon="9.141939897252286"><ele>300.0</ele><time>2026-04-11T15:05:45Z</time></trkpt><trkpt lat="46.040381328792364" lon="9.141814225799635"><ele>300.0</ele><time>2026-04-11T15:05:46Z</time></trkpt><trkpt lat="46.040384304497024" lon="9.141679974793526"><ele>300.0</ele><time>2026-04-11T15:05:47Z</time></trkpt><trkpt lat="46.040387393789416" lon="9.141540599908485"><ele>300.0</ele><time>2026-04-11T15:05:48Z</time></trkpt><trkpt lat="46.040389957696945" lon="9.141408863102672"><ele>300.0</ele><time>2026-04-11T15:05:49Z</time></trkpt><trkpt lat="46.040392729591765" lon="9.1412707963697"><ele>300.0</ele><time>2026-04-11T15:05:50Z</time></trkpt><trkpt lat="46.04039558555756" lon="9.141128542841784"><ele>300.0</ele><time>2026-04-11T15:05:51Z</time></trkpt><trkpt lat="46.040382141226765" lon="9.14098825909013"><ele>300.0</ele><time>2026-04-11T15:05:52Z</time></trkpt><trkpt lat="46.04038562389191" lon="9.14085976880133"><ele>300.0</ele><time>2026-04-11T15:05:53Z</time></trkpt><trkpt lat="46.040388692519514" lon="9.14073856183119"><ele>300.2</ele><time>2026-04-11T15:05:54Z</time></trkpt><trkpt lat="46.04039128519364" lon="9.140615417002214"><ele>300.4</ele><time>2026-04-11T15:05:55Z</time></trkpt><trkpt lat="46.04039396932947" lon="9.140487621382192"><ele>300.6</ele><time>2026-04-11T15:05:56Z</time></trkpt><trkpt lat="46.040396405431636" lon="9.140355948939122"><ele>300.8</ele><time>2026-04-11T15:05:57Z</time></trkpt><trkpt lat="46.040399142309234" lon="9.140220171852667"><ele>301.0</ele><time>2026-04-11T15:05:58Z</time></trkpt><trkpt lat="46.04040230019575" lon="9.140077230324566"><ele>301.0</ele><time>2026-04-11T15:05:59Z</time></trkpt><trkpt lat="46.04041926852989" lon="9.13993188578383"><ele>301.0</ele><time>2026-04-11T15:06:00Z</time></trkpt><trkpt lat="46.04042101987195" lon="9.13979008974332"><ele>301.0</ele><time>2026-04-11T15:06:01Z</time></trkpt><trkpt lat="46.04040371292139" lon="9.139644363905475"><ele>301.0</ele><time>2026-04-11T15:06:02Z</time></trkpt><trkpt lat="46.04040187817968" lon="9.139501881378488"><ele>301.0</ele><time>2026-04-11T15:06:03Z</time></trkpt><trkpt lat="46.04039182225425" lon="9.139364116646982"><ele>300.8</ele><time>2026-04-11T15:06:04Z</time></trkpt><trkpt lat="46.04037552160607" lon="9.139230862473985"><ele>300.6</ele><time>2026-04-11T15:06:05Z</time></trkpt><trkpt lat="46.040354132228984" lon="9.13909866478043"><ele>300.4</ele><time>2026-04-11T15:06:06Z</time></trkpt><trkpt lat="46.040344851838675" lon="9.138955042799257"><ele>300.2</ele><time>2026-04-11T15:06:07Z</time></trkpt><trkpt lat="46.04031236035518" lon="9.13882468106974"><ele>300.0</ele><time>2026-04-11T15:06:08Z</time></trkpt><trkpt lat="46.04026954576347" lon="9.138681869311327"><ele>300.0</ele><time>2026-04-11T15:06:09Z</time></trkpt><trkpt lat="46.04021830818514" lon="9.138522949866294"><ele>300.0</ele><time>2026-04-11T15:06:10Z</time></trkpt><trkpt lat="46.04015976093391" lon="9.138353505630976"><ele>300.0</ele><time>2026-04-11T15:06:11Z</time></trkpt><trkpt lat="46.040101935750684" lon="9.138194313926572"><ele>300.0</ele><time>2026-04-11T15:06:12Z</time></trkpt><trkpt lat="46.04004785403821" lon="9.138045489530233"><ele>300.0</ele><time>2026-04-11T15:06:13Z</time></trkpt><trkpt lat="46.039984314173964" lon="9.137913990755672"><ele>300.0</ele><time>2026-04-11T15:06:14Z</time></trkpt><trkpt lat="46.0399354047591" lon="9.137776175403433"><ele>300.0</ele><time>2026-04-11T15:06:15Z</time></trkpt><trkpt lat="46.03988664797658" lon="9.137641314076614"><ele>300.0</ele><time>2026-04-11T15:06:16Z</time></trkpt><trkpt lat="46.0398373392944" lon="9.137506630967161"><ele>300.0</ele><time>2026-04-11T15:06:17Z</time></trkpt><trkpt lat="46.03980158788549" lon="9.137360380193527"><ele>299.2</ele><time>2026-04-11T15:06:18Z</time></trkpt><trkpt lat="46.039752730857884" lon="9.13722425712867"><ele>298.4</ele><time>2026-04-11T15:06:19Z</time></trkpt><trkpt lat="46.039704223226984" lon="9.137089107551928"><ele>297.6</ele><time>2026-04-11T15:06:20Z</time></trkpt><trkpt lat="46.039656717145746" lon="9.136956748427865"><ele>296.8</ele><time>2026-04-11T15:06:21Z</time></trkpt><trkpt lat="46.039607182195795" lon="9.13681873732784"><ele>296.0</ele><time>2026-04-11T15:06:22Z</time></trkpt><trkpt lat="46.0395575739839" lon="9.13667985223945"><ele>295.2</ele><time>2026-04-11T15:06:23Z</time></trkpt><trkpt lat="46.03950704783679" lon="9.136538497722459"><ele>294.40000000000003</ele><time>2026-04-11T15:06:24Z</time></trkpt><trkpt lat="46.039456292558626" lon="9.136396502201364"><ele>293.6</ele><time>2026-04-11T15:06:25Z</time></trkpt><trkpt lat="46.03940518223157" lon="9.136253513372699"><ele>292.8</ele><time>2026-04-11T15:06:26Z</time></trkpt><trkpt lat="46.039353312941145" lon="9.136108401210622"><ele>292.0</ele><time>2026-04-11T15:06:27Z</time></trkpt><trkpt lat="46.03930173754813" lon="9.135964111299225"><ele>292.0</ele><time>2026-04-11T15:06:28Z</time></trkpt><trkpt lat="46.03924977979279" lon="9.135818751644074"><ele>292.0</ele><time>2026-04-11T15:06:29Z</time></trkpt><trkpt lat="46.03919690445745" lon="9.135670852177098"><ele>292.0</ele><time>2026-04-11T15:06:30Z</time></trkpt><trkpt lat="46.03914285461794" lon="9.135520508935857"><ele>292.0</ele><time>2026-04-11T15:06:31Z</time></trkpt><trkpt lat="46.039090130194296" lon="9.135373852376533"><ele>291.5</ele><time>2026-04-11T15:06:32Z</time></trkpt><trkpt lat="46.039037978063014" lon="9.135228787766453"><ele>291.0</ele><time>2026-04-11T15:06:33Z</time></trkpt><trkpt lat="46.03898391074375" lon="9.13507839593087"><ele>290.5</ele><time>2026-04-11T15:06:34Z</time></trkpt><trkpt lat="46.038909956101705" lon="9.134932413121316"><ele>290.0</ele><time>2026-04-11T15:06:35Z</time></trkpt><trkpt lat="46.038847690167806" lon="9.13477108441201"><ele>290.0</ele><time>2026-04-11T15:06:36Z</time></trkpt><trkpt lat="46.0387876335658" lon="9.134597893028674"><ele>290.0</ele><time>2026-04-11T15:06:37Z</time></trkpt><trkpt lat="46.03873418073947" lon="9.134416530846135"><ele>290.0</ele><time>2026-04-11T15:06:38Z</time></trkpt><trkpt lat="46.038684822011035" lon="9.134232058954838"><ele>290.0</ele><time>2026-04-11T15:06:39Z</time></trkpt><trkpt lat="46.038589480368465" lon="9.134161245739714"><ele>289.75</ele><time>2026-04-11T15:06:40Z</time></trkpt><trkpt lat="46.0385247110645" lon="9.134012121809635"><ele>289.5</ele><time>2026-04-11T15:06:41Z</time></trkpt><trkpt lat="46.03846229423149" lon="9.133864007380975"><ele>289.25</ele><time>2026-04-11T15:06:42Z</time></trkpt><trkpt lat="46.03839797171854" lon="9.133729132772666"><ele>289.0</ele><time>2026-04-11T15:06:43Z</time></trkpt><trkpt lat="46.03833565588264" lon="9.133584454820246"><ele>288.25</ele><time>2026-04-11T15:06:44Z</time></trkpt><trkpt lat="46.03827012549571" lon="9.13343721273338"><ele>287.5</ele><time>2026-04-11T15:06:45Z</time></trkpt><trkpt lat="46.038215157932015" lon="9.133274059284656"><ele>286.75</ele><time>2026-04-11T15:06:46Z</time></trkpt><trkpt lat="46.03815462220016" lon="9.133133676987981"><ele>286.0</ele><time>2026-04-11T15:06:47Z</time></trkpt><trkpt lat="46.03809673811672" lon="9.132993529681725"><ele>285.75</ele><time>2026-04-11T15:06:48Z</time></trkpt><trkpt lat="46.038040236818624" lon="9.132856730351119"><ele>285.5</ele><time>2026-04-11T15:06:49Z</time></trkpt><trkpt lat="46.03798799271735" lon="9.132717483899174"><ele>285.25</ele><time>2026-04-11T15:06:50Z</time></trkpt><trkpt lat="46.03792440567687" lon="9.132573886561405"><ele>285.0</ele><time>2026-04-11T15:06:51Z</time></trkpt><trkpt lat="46.03788147940084" lon="9.132416978926244"><ele>285.25</ele><time>2026-04-11T15:06:52Z</time></trkpt><trkpt lat="46.03784537944656" lon="9.132266729988746"><ele>285.5</ele><time>2026-04-11T15:06:53Z</time></trkpt><trkpt lat="46.03781193704006" lon="9.132101028427781"><ele>285.75</ele><time>2026-04-11T15:06:54Z</time></trkpt><trkpt lat="46.03778132664728" lon="9.131935495582288"><ele>286.0</ele><time>2026-04-11T15:06:55Z</time></trkpt><trkpt lat="46.03776120571514" lon="9.131789460333316"><ele>286.0</ele><time>2026-04-11T15:06:56Z</time></trkpt><trkpt lat="46.03774861515733" lon="9.13168422546254"><ele>286.0</ele><time>2026-04-11T15:06:57Z</time></trkpt><trkpt lat="46.03774023823166" lon="9.131578592565413"><ele>286.0</ele><time>2026-04-11T15:06:59Z</time></trkpt><trkpt lat="46.037612912599755" lon="9.131563227093057"><ele>286.0</ele><time>2026-04-11T15:07:04Z</time></trkpt><trkpt lat="46.03752453839786" lon="9.131667101588407"><ele>286.0</ele><time>2026-04-11T15:07:05Z</time></trkpt><trkpt lat="46.03744554802652" lon="9.13174326475931"><ele>285.8</ele><time>2026-04-11T15:07:06Z</time></trkpt><trkpt lat="46.03736313581284" lon="9.131825998668853"><ele>285.6</ele><time>2026-04-11T15:07:07Z</time></trkpt><trkpt lat="46.03728209575711" lon="9.13190832941649"><ele>285.4</ele><time>2026-04-11T15:07:08Z</time></trkpt><trkpt lat="46.03722462891217" lon="9.131967276733587"><ele>285.2</ele><time>2026-04-11T15:07:09Z</time></trkpt><trkpt lat="46.03716271346397" lon="9.132017366411636"><ele>285.0</ele><time>2026-04-11T15:07:11Z</time></trkpt><trkpt lat="46.037130055943784" lon="9.131846107968235"><ele>285.0</ele><time>2026-04-11T15:07:13Z</time></trkpt><trkpt lat="46.037109698906875" lon="9.131732389187894"><ele>285.0</ele><time>2026-04-11T15:07:14Z</time></trkpt><trkpt lat="46.0370816943278" lon="9.131595882008952"><ele>285.0</ele><time>2026-04-11T15:07:15Z</time></trkpt><trkpt lat="46.03705192836433" lon="9.131429037220679"><ele>285.0</ele><time>2026-04-11T15:07:16Z</time></trkpt><trkpt lat="46.03701243333431" lon="9.131242767582833"><ele>285.0</ele><time>2026-04-11T15:07:17Z</time></trkpt><trkpt lat="46.0369749919666" lon="9.131046737645546"><ele>284.8</ele><time>2026-04-11T15:07:18Z</time></trkpt><trkpt lat="46.036943845242135" lon="9.130867719666151"><ele>284.6</ele><time>2026-04-11T15:07:19Z</time></trkpt><trkpt lat="46.036916651073206" lon="9.130698519039429"><ele>284.4</ele><time>2026-04-11T15:07:20Z</time></trkpt><trkpt lat="46.036888509927266" lon="9.130551863268515"><ele>284.2</ele><time>2026-04-11T15:07:21Z</time></trkpt><trkpt lat="46.03686850884631" lon="9.13043129534164"><ele>284.0</ele><time>2026-04-11T15:07:22Z</time></trkpt><trkpt lat="46.036845928643785" lon="9.130315124293048"><ele>283.75</ele><time>2026-04-11T15:07:23Z</time></trkpt><trkpt lat="46.03683665796044" lon="9.130163026669639"><ele>283.5</ele><time>2026-04-11T15:07:24Z</time></trkpt><trkpt lat="46.03680740175542" lon="9.129986118867151"><ele>283.25</ele><time>2026-04-11T15:07:25Z</time></trkpt><trkpt lat="46.036757619342694" lon="9.129795797985173"><ele>283.0</ele><time>2026-04-11T15:07:26Z</time></trkpt><trkpt lat="46.03673463683937" lon="9.129591960035611"><ele>282.75</ele><time>2026-04-11T15:07:27Z</time></trkpt><trkpt lat="46.03670060820168" lon="9.129388577099348"><ele>282.5</ele><time>2026-04-11T15:07:28Z</time></trkpt><trkpt lat="46.036662418444436" lon="9.12917930248414"><ele>282.25</ele><time>2026-04-11T15:07:29Z</time></trkpt><trkpt lat="46.036624795790516" lon="9.12896752845866"><ele>282.0</ele><time>2026-04-11T15:07:30Z</time></trkpt><trkpt lat="46.036591070446136" lon="9.128753252986684"><ele>281.8</ele><time>2026-04-11T15:07:31Z</time></trkpt><trkpt lat="46.03655791296208" lon="9.128567262282498"><ele>281.6</ele><time>2026-04-11T15:07:32Z</time></trkpt><trkpt lat="46.03653205740882" lon="9.1284201114011"><ele>281.40000000000003</ele><time>2026-04-11T15:07:33Z</time></trkpt><trkpt lat="46.036513038525534" lon="9.12829970181398"><ele>281.2</ele><time>2026-04-11T15:07:34Z</time></trkpt><trkpt lat="46.036494385351354" lon="9.12817667081225"><ele>281.0</ele><time>2026-04-11T15:07:35Z</time></trkpt><trkpt lat="46.03647069023381" lon="9.128017411100668"><ele>281.0</ele><time>2026-04-11T15:07:36Z</time></trkpt><trkpt lat="46.03644296231021" lon="9.127833646382257"><ele>281.0</ele><time>2026-04-11T15:07:37Z</time></trkpt><trkpt lat="46.03641779096467" lon="9.12763825906357"><ele>281.0</ele><time>2026-04-11T15:07:38Z</time></trkpt><trkpt lat="46.03640260997713" lon="9.127436000733343"><ele>281.0</ele><time>2026-04-11T15:07:39Z</time></trkpt><trkpt lat="46.03639404955398" lon="9.127226046093213"><ele>281.0</ele><time>2026-04-11T15:07:40Z</time></trkpt><trkpt lat="46.0363953620109" lon="9.127040398252856"><ele>281.0</ele><time>2026-04-11T15:07:41Z</time></trkpt><trkpt lat="46.036398018406445" lon="9.126895091987011"><ele>281.0</ele><time>2026-04-11T15:07:42Z</time></trkpt><trkpt lat="46.03640045639875" lon="9.126751618606177"><ele>281.0</ele><time>2026-04-11T15:07:43Z</time></trkpt><trkpt lat="46.036403778814616" lon="9.126600545644376"><ele>281.0</ele><time>2026-04-11T15:07:44Z</time></trkpt><trkpt lat="46.036403130423196" lon="9.126464048992446"><ele>280.8</ele><time>2026-04-11T15:07:45Z</time></trkpt><trkpt lat="46.036400072164184" lon="9.126365203739702"><ele>280.6</ele><time>2026-04-11T15:07:46Z</time></trkpt><trkpt lat="46.03639184517362" lon="9.12626713921899"><ele>280.4</ele><time>2026-04-11T15:07:48Z</time></trkpt><trkpt lat="46.036370316781884" lon="9.126138714931006"><ele>280.2</ele><time>2026-04-11T15:07:56Z</time></trkpt><trkpt lat="46.03620049018887" lon="9.12619397529644"><ele>280.0</ele><time>2026-04-11T15:07:58Z</time></trkpt><trkpt lat="46.03611682112263" lon="9.12626798561744"><ele>280.0</ele><time>2026-04-11T15:07:59Z</time></trkpt><trkpt lat="46.036038191897816" lon="9.126334412624292"><ele>280.0</ele><time>2026-04-11T15:08:00Z</time></trkpt><trkpt lat="46.03595162573738" lon="9.126404692660936"><ele>280.0</ele><time>2026-04-11T15:08:01Z</time></trkpt><trkpt lat="46.035852075327824" lon="9.126480092316942"><ele>280.0</ele><time>2026-04-11T15:08:02Z</time></trkpt><trkpt lat="46.035743975557764" lon="9.126559787895866"><ele>280.0</ele><time>2026-04-11T15:08:03Z</time></trkpt><trkpt lat="46.0356369482132" lon="9.126634312356462"><ele>280.0</ele><time>2026-04-11T15:08:04Z</time></trkpt><trkpt lat="46.03553602432053" lon="9.126703685881974"><ele>280.0</ele><time>2026-04-11T15:08:05Z</time></trkpt><trkpt lat="46.03544124153756" lon="9.12676873047025"><ele>280.0</ele><time>2026-04-11T15:08:06Z</time></trkpt><trkpt lat="46.035351686145674" lon="9.126831821826906"><ele>280.0</ele><time>2026-04-11T15:08:07Z</time></trkpt><trkpt lat="46.035276955483425" lon="9.126888787902475"><ele>280.0</ele><time>2026-04-11T15:08:08Z</time></trkpt><trkpt lat="46.035211102448024" lon="9.126933518974814"><ele>280.0</ele><time>2026-04-11T15:08:09Z</time></trkpt><trkpt lat="46.03515418154554" lon="9.126973820475886"><ele>280.0</ele><time>2026-04-11T15:08:10Z</time></trkpt><trkpt lat="46.035094623087886" lon="9.127010765314466"><ele>280.0</ele><time>2026-04-11T15:08:11Z</time></trkpt><trkpt lat="46.03500838193466" lon="9.127069997541572"><ele>280.0</ele><time>2026-04-11T15:08:12Z</time></trkpt><trkpt lat="46.034924953019065" lon="9.127133246555394"><ele>280.0</ele><time>2026-04-11T15:08:13Z</time></trkpt><trkpt lat="46.03485081621212" lon="9.127193928220187"><ele>280.0</ele><time>2026-04-11T15:08:14Z</time></trkpt><trkpt lat="46.0347841019245" lon="9.127242396746496"><ele>279.66666666666663</ele><time>2026-04-11T15:08:15Z</time></trkpt><trkpt lat="46.03472011163046" lon="9.127286558563249"><ele>279.3333333333333</ele><time>2026-04-11T15:08:16Z</time></trkpt><trkpt lat="46.03464974762509" lon="9.127331876563629"><ele>279.0</ele><time>2026-04-11T15:08:17Z</time></trkpt><trkpt lat="46.03457367113623" lon="9.12738485314775"><ele>278.6666666666667</ele><time>2026-04-11T15:08:18Z</time></trkpt><trkpt lat="46.034495057993055" lon="9.127442954289084"><ele>278.33333333333337</ele><time>2026-04-11T15:08:19Z</time></trkpt><trkpt lat="46.034414769333786" lon="9.12749978255728"><ele>278.0</ele><time>2026-04-11T15:08:20Z</time></trkpt><trkpt lat="46.03432947237695" lon="9.127557309962457"><ele>278.0</ele><time>2026-04-11T15:08:21Z</time></trkpt><trkpt lat="46.03424407852653" lon="9.127620257517698"><ele>278.0</ele><time>2026-04-11T15:08:22Z</time></trkpt><trkpt lat="46.034159483356376" lon="9.127681849614698"><ele>278.0</ele><time>2026-04-11T15:08:23Z</time></trkpt><trkpt lat="46.0340726674229" lon="9.127740256529218"><ele>278.0</ele><time>2026-04-11T15:08:24Z</time></trkpt><trkpt lat="46.033986522820186" lon="9.127798262840349"><ele>278.0</ele><time>2026-04-11T15:08:25Z</time></trkpt><trkpt lat="46.033902346039376" lon="9.127858899816239"><ele>277.8</ele><time>2026-04-11T15:08:26Z</time></trkpt><trkpt lat="46.03382596519163" lon="9.127917698386486"><ele>277.6</ele><time>2026-04-11T15:08:27Z</time></trkpt><trkpt lat="46.033756394548064" lon="9.127965437555298"><ele>277.4</ele><time>2026-04-11T15:08:28Z</time></trkpt><trkpt lat="46.033683438904575" lon="9.127977149211441"><ele>277.2</ele><time>2026-04-11T15:08:29Z</time></trkpt><trkpt lat="46.03356014739741" lon="9.127913459713517"><ele>277.0</ele><time>2026-04-11T15:08:31Z</time></trkpt><trkpt lat="46.03352973997657" lon="9.127758914529169"><ele>277.0</ele><time>2026-04-11T15:08:33Z</time></trkpt><trkpt lat="46.03358136640671" lon="9.127586140553246"><ele>277.0</ele><time>2026-04-11T15:08:35Z</time></trkpt><trkpt lat="46.03362803362654" lon="9.127508085952643"><ele>277.0</ele><time>2026-04-11T15:08:36Z</time></trkpt><trkpt lat="46.03367267229464" lon="9.127431630808221"><ele>277.0</ele><time>2026-04-11T15:08:37Z</time></trkpt><trkpt lat="46.03371676353087" lon="9.127343534446851"><ele>277.0</ele><time>2026-04-11T15:08:38Z</time></trkpt><trkpt lat="46.03375189850361" lon="9.127239218480115"><ele>277.0</ele><time>2026-04-11T15:08:39Z</time></trkpt><trkpt lat="46.03377155355356" lon="9.127115414327989"><ele>276.8</ele><time>2026-04-11T15:08:40Z</time></trkpt><trkpt lat="46.03377960014118" lon="9.126984275462831"><ele>276.6</ele><time>2026-04-11T15:08:41Z</time></trkpt><trkpt lat="46.033785989413325" lon="9.126821935303816"><ele>276.40000000000003</ele><time>2026-04-11T15:08:42Z</time></trkpt><trkpt lat="46.03380205088661" lon="9.126653458460956"><ele>276.2</ele><time>2026-04-11T15:08:43Z</time></trkpt><trkpt lat="46.03383285004878" lon="9.126506732476274"><ele>276.0</ele><time>2026-04-11T15:08:44Z</time></trkpt><trkpt lat="46.03387820149933" lon="9.126360350840539"><ele>275.6</ele><time>2026-04-11T15:08:45Z</time></trkpt><trkpt lat="46.033927599261645" lon="9.126219073529548"><ele>275.20000000000005</ele><time>2026-04-11T15:08:46Z</time></trkpt><trkpt lat="46.03397285165979" lon="9.126089773132291"><ele>274.79999999999995</ele><time>2026-04-11T15:08:47Z</time></trkpt><trkpt lat="46.0340171227488" lon="9.125974696716856"><ele>274.4</ele><time>2026-04-11T15:08:48Z</time></trkpt><trkpt lat="46.03406458226373" lon="9.125857555963766"><ele>274.0</ele><time>2026-04-11T15:08:49Z</time></trkpt><trkpt lat="46.03410672770515" lon="9.125745390761084"><ele>274.75</ele><time>2026-04-11T15:08:50Z</time></trkpt><trkpt lat="46.03414284433874" lon="9.125660971024635"><ele>275.5</ele><time>2026-04-11T15:08:51Z</time></trkpt><trkpt lat="46.03422287185867" lon="9.125477926672449"><ele>276.25</ele><time>2026-04-11T15:08:53Z</time></trkpt><trkpt lat="46.03428790129062" lon="9.12532755154907"><ele>277.0</ele><time>2026-04-11T15:08:54Z</time></trkpt><trkpt lat="46.03436445966154" lon="9.12515952967578"><ele>277.0</ele><time>2026-04-11T15:08:55Z</time></trkpt><trkpt lat="46.03444521501484" lon="9.124986088189775"><ele>277.0</ele><time>2026-04-11T15:08:56Z</time></trkpt><trkpt lat="46.0345260542057" lon="9.124818492077708"><ele>277.0</ele><time>2026-04-11T15:08:57Z</time></trkpt><trkpt lat="46.03460428691711" lon="9.12465739610295"><ele>277.0</ele><time>2026-04-11T15:08:58Z</time></trkpt><trkpt lat="46.03466663501142" lon="9.124496590712857"><ele>276.75</ele><time>2026-04-11T15:08:59Z</time></trkpt><trkpt lat="46.03469974407821" lon="9.124313698801936"><ele>276.5</ele><time>2026-04-11T15:09:00Z</time></trkpt><trkpt lat="46.03470915946207" lon="9.124115371858737"><ele>276.25</ele><time>2026-04-11T15:09:01Z</time></trkpt><trkpt lat="46.03470381178163" lon="9.12392441689945"><ele>276.0</ele><time>2026-04-11T15:09:02Z</time></trkpt><trkpt lat="46.034684900296696" lon="9.123755046371182"><ele>276.0</ele><time>2026-04-11T15:09:03Z</time></trkpt><trkpt lat="46.03466602644199" lon="9.123598414097444"><ele>276.0</ele><time>2026-04-11T15:09:04Z</time></trkpt><trkpt lat="46.034647981473356" lon="9.123466807691692"><ele>276.0</ele><time>2026-04-11T15:09:05Z</time></trkpt><trkpt lat="46.03463811372343" lon="9.123352068817544"><ele>276.0</ele><time>2026-04-11T15:09:06Z</time></trkpt><trkpt lat="46.03466134735197" lon="9.123206893599114"><ele>276.0</ele><time>2026-04-11T15:09:08Z</time></trkpt><trkpt lat="46.03474500751835" lon="9.123165156246246"><ele>276.0</ele><time>2026-04-11T15:09:10Z</time></trkpt><trkpt lat="46.034804699885925" lon="9.12301399247257"><ele>276.0</ele><time>2026-04-11T15:09:13Z</time></trkpt><trkpt lat="46.03480700927161" lon="9.122899295397914"><ele>276.0</ele><time>2026-04-11T15:17:31Z</time></trkpt><trkpt lat="46.03479698979849" lon="9.122800379190148"><ele>276.0</ele><time>2026-04-11T15:17:32Z</time></trkpt><trkpt lat="46.03478968726992" lon="9.122661708295897"><ele>276.0</ele><time>2026-04-11T15:17:34Z</time></trkpt><trkpt lat="46.034726117778526" lon="9.122651193740841"><ele>276.0</ele><time>2026-04-11T15:17:36Z</time></trkpt><trkpt lat="46.03466103080374" lon="9.122778388338634"><ele>276.0</ele><time>2026-04-11T15:17:39Z</time></trkpt><trkpt lat="46.03464294632899" lon="9.122885461250576"><ele>276.0</ele><time>2026-04-11T15:17:40Z</time></trkpt><trkpt lat="46.03463533314671" lon="9.123012035580956"><ele>276.0</ele><time>2026-04-11T15:17:41Z</time></trkpt><trkpt lat="46.034629559537876" lon="9.123110480502751"><ele>276.0</ele><time>2026-04-11T15:17:42Z</time></trkpt><trkpt lat="46.034621850848715" lon="9.123241919356625"><ele>276.0</ele><time>2026-04-11T15:17:44Z</time></trkpt><trkpt lat="46.03478468973181" lon="9.123235535384795"><ele>276.0</ele><time>2026-04-11T15:17:47Z</time></trkpt><trkpt lat="46.03485512011799" lon="9.123228450619537"><ele>276.0</ele><time>2026-04-11T15:17:48Z</time></trkpt><trkpt lat="46.03495383525285" lon="9.123218531728805"><ele>276.0</ele><time>2026-04-11T15:17:50Z</time></trkpt><trkpt lat="46.03501734594008" lon="9.123234587118244"><ele>276.0</ele><time>2026-04-11T15:17:52Z</time></trkpt><trkpt lat="46.03507124992182" lon="9.123283737003861"><ele>276.0</ele><time>2026-04-11T15:31:11Z</time></trkpt><trkpt lat="46.035003110556694" lon="9.123243612754921"><ele>276.0</ele><time>2026-04-11T15:31:18Z</time></trkpt><trkpt lat="46.03489459385852" lon="9.123256832691828"><ele>276.0</ele><time>2026-04-11T15:31:44.999Z</time></trkpt><trkpt lat="46.03482863179637" lon="9.12326441977351"><ele>276.0</ele><time>2026-04-11T15:31:45.999Z</time></trkpt><trkpt lat="46.03472464960275" lon="9.123270715154414"><ele>276.0</ele><time>2026-04-11T15:31:47.999Z</time></trkpt><trkpt lat="46.03468490190777" lon="9.123173578485376"><ele>276.0</ele><time>2026-04-11T15:31:48.999Z</time></trkpt><trkpt lat="46.034617274848934" lon="9.123363255863705"><ele>276.0</ele><time>2026-04-11T15:31:52.999Z</time></trkpt><trkpt lat="46.034630139812634" lon="9.123461209910209"><ele>276.0</ele><time>2026-04-11T15:31:53.999Z</time></trkpt><trkpt lat="46.034641366021084" lon="9.123587445638238"><ele>276.0</ele><time>2026-04-11T15:31:54.999Z</time></trkpt><trkpt lat="46.03466564744208" lon="9.123716779500361"><ele>276.0</ele><time>2026-04-11T15:31:55.999Z</time></trkpt><trkpt lat="46.034666579847965" lon="9.123864887623073"><ele>276.0</ele><time>2026-04-11T15:31:56.999Z</time></trkpt><trkpt lat="46.03467204776327" lon="9.124019203535706"><ele>276.0</ele><time>2026-04-11T15:31:57.999Z</time></trkpt><trkpt lat="46.03467506686532" lon="9.12417940398417"><ele>276.0</ele><time>2026-04-11T15:31:58.999Z</time></trkpt><trkpt lat="46.03466596841367" lon="9.12434457139354"><ele>276.0</ele><time>2026-04-11T15:31:59.999Z</time></trkpt><trkpt lat="46.03463275009668" lon="9.124515688373705"><ele>276.0</ele><time>2026-04-11T15:32:00.999Z</time></trkpt><trkpt lat="46.03457800377754" lon="9.124676282515072"><ele>276.0</ele><time>2026-04-11T15:32:01.999Z</time></trkpt><trkpt lat="46.03450171393816" lon="9.12482721118068"><ele>276.25</ele><time>2026-04-11T15:32:02.999Z</time></trkpt><trkpt lat="46.034424705626705" lon="9.124977498738561"><ele>276.5</ele><time>2026-04-11T15:32:03.999Z</time></trkpt><trkpt lat="46.03434474027846" lon="9.12514451844981"><ele>276.75</ele><time>2026-04-11T15:32:04.999Z</time></trkpt><trkpt lat="46.03426647797031" lon="9.125314862802298"><ele>277.0</ele><time>2026-04-11T15:32:05.999Z</time></trkpt><trkpt lat="46.034188948562054" lon="9.125484563017052"><ele>276.25</ele><time>2026-04-11T15:32:06.999Z</time></trkpt><trkpt lat="46.034119056733836" lon="9.12565632541157"><ele>275.5</ele><time>2026-04-11T15:32:07.999Z</time></trkpt><trkpt lat="46.03404955331146" lon="9.125835103061936"><ele>274.75</ele><time>2026-04-11T15:32:08.999Z</time></trkpt><trkpt lat="46.03397682863978" lon="9.126013309416"><ele>274.0</ele><time>2026-04-11T15:32:09.999Z</time></trkpt><trkpt lat="46.03391526899165" lon="9.126192796233195"><ele>274.0</ele><time>2026-04-11T15:32:10.999Z</time></trkpt><trkpt lat="46.03385773598897" lon="9.1263759486897"><ele>274.0</ele><time>2026-04-11T15:32:11.999Z</time></trkpt><trkpt lat="46.033806031302234" lon="9.126559089548707"><ele>274.0</ele><time>2026-04-11T15:32:12.999Z</time></trkpt><trkpt lat="46.03377122541063" lon="9.12673912407434"><ele>274.0</ele><time>2026-04-11T15:32:13.999Z</time></trkpt><trkpt lat="46.03375687779386" lon="9.12692266966272"><ele>274.3333333333333</ele><time>2026-04-11T15:32:14.999Z</time></trkpt><trkpt lat="46.033747570251116" lon="9.127090456953253"><ele>274.66666666666663</ele><time>2026-04-11T15:32:15.999Z</time></trkpt><trkpt lat="46.03373067318109" lon="9.127219662384096"><ele>275.0</ele><time>2026-04-11T15:32:16.999Z</time></trkpt><trkpt lat="46.0337023881452" lon="9.127321305032257"><ele>275.3333333333333</ele><time>2026-04-11T15:32:17.999Z</time></trkpt><trkpt lat="46.03366274700892" lon="9.127399646625946"><ele>275.6666666666667</ele><time>2026-04-11T15:32:18.999Z</time></trkpt><trkpt lat="46.03361292768952" lon="9.127469454617081"><ele>276.0</ele><time>2026-04-11T15:32:19.999Z</time></trkpt><trkpt lat="46.033574458710234" lon="9.127544628136887"><ele>276.2</ele><time>2026-04-11T15:32:20.999Z</time></trkpt><trkpt lat="46.03351161502965" lon="9.127687319182877"><ele>276.40000000000003</ele><time>2026-04-11T15:32:22.999Z</time></trkpt><trkpt lat="46.033501357818196" lon="9.127820787986646"><ele>276.6</ele><time>2026-04-11T15:32:24.999Z</time></trkpt><trkpt lat="46.033505367320956" lon="9.127944887171855"><ele>276.8</ele><time>2026-04-11T15:32:26.999Z</time></trkpt><trkpt lat="46.03353751254644" lon="9.128029186748796"><ele>277.0</ele><time>2026-04-11T15:32:28.999Z</time></trkpt><trkpt lat="46.0334385836231" lon="9.128185377329638"><ele>277.0</ele><time>2026-04-11T15:32:30.999Z</time></trkpt><trkpt lat="46.0333607701554" lon="9.128251184738321"><ele>277.0</ele><time>2026-04-11T15:32:31.999Z</time></trkpt><trkpt lat="46.03327486603401" lon="9.12831985336815"><ele>277.0</ele><time>2026-04-11T15:32:32.999Z</time></trkpt><trkpt lat="46.03316817949073" lon="9.128396140031247"><ele>277.0</ele><time>2026-04-11T15:32:33.999Z</time></trkpt><trkpt lat="46.03302077707109" lon="9.128482617204636"><ele>277.0</ele><time>2026-04-11T15:32:34.999Z</time></trkpt><trkpt lat="46.032868718126096" lon="9.128619159681726"><ele>277.0</ele><time>2026-04-11T15:32:35.999Z</time></trkpt><trkpt lat="46.03269127897081" lon="9.128724562808275"><ele>277.0</ele><time>2026-04-11T15:32:36.999Z</time></trkpt><trkpt lat="46.03250730418193" lon="9.12884831770816"><ele>276.66666666666663</ele><time>2026-04-11T15:32:37.999Z</time></trkpt><trkpt lat="46.032321779776964" lon="9.128991178946965"><ele>276.3333333333333</ele><time>2026-04-11T15:32:38.999Z</time></trkpt><trkpt lat="46.03213442645454" lon="9.129126990603982"><ele>276.0</ele><time>2026-04-11T15:32:39.999Z</time></trkpt><trkpt lat="46.031942732510224" lon="9.129262114789512"><ele>276.0</ele><time>2026-04-11T15:32:40.999Z</time></trkpt><trkpt lat="46.03175111272752" lon="9.129400816194902"><ele>276.0</ele><time>2026-04-11T15:32:41.999Z</time></trkpt><trkpt lat="46.03155749610739" lon="9.129542062955249"><ele>276.0</ele><time>2026-04-11T15:32:42.999Z</time></trkpt><trkpt lat="46.03136790634986" lon="9.129676549039358"><ele>276.3333333333333</ele><time>2026-04-11T15:32:43.999Z</time></trkpt><trkpt lat="46.03117691478929" lon="9.12980733214287"><ele>276.66666666666663</ele><time>2026-04-11T15:32:44.999Z</time></trkpt><trkpt lat="46.030989648702054" lon="9.129939354467474"><ele>277.0</ele><time>2026-04-11T15:32:45.999Z</time></trkpt><trkpt lat="46.03080401271943" lon="9.130070251343588"><ele>277.66666666666663</ele><time>2026-04-11T15:32:46.999Z</time></trkpt><trkpt lat="46.030618843298775" lon="9.130199830116275"><ele>278.3333333333333</ele><time>2026-04-11T15:32:47.999Z</time></trkpt><trkpt lat="46.03043494054814" lon="9.130330102321672"><ele>279.0</ele><time>2026-04-11T15:32:48.999Z</time></trkpt><trkpt lat="46.03025045299904" lon="9.13046316500775"><ele>279.0</ele><time>2026-04-11T15:32:49.999Z</time></trkpt><trkpt lat="46.03006411799147" lon="9.130597003338904"><ele>279.0</ele><time>2026-04-11T15:32:50.999Z</time></trkpt><trkpt lat="46.029876054329435" lon="9.130731213272384"><ele>279.0</ele><time>2026-04-11T15:32:51.999Z</time></trkpt><trkpt lat="46.02968884152734" lon="9.130868088600566"><ele>278.6666666666667</ele><time>2026-04-11T15:32:52.999Z</time></trkpt><trkpt lat="46.02950104387284" lon="9.131004199608812"><ele>278.33333333333337</ele><time>2026-04-11T15:32:53.999Z</time></trkpt><trkpt lat="46.02931357627838" lon="9.131140394497244"><ele>278.0</ele><time>2026-04-11T15:32:54.999Z</time></trkpt><trkpt lat="46.02912523514613" lon="9.131274747313844"><ele>277.33333333333337</ele><time>2026-04-11T15:32:55.999Z</time></trkpt><trkpt lat="46.02893773836087" lon="9.131409893625024"><ele>276.6666666666667</ele><time>2026-04-11T15:32:56.999Z</time></trkpt><trkpt lat="46.02874868198289" lon="9.131544178756899"><ele>276.0</ele><time>2026-04-11T15:32:57.999Z</time></trkpt><trkpt lat="46.02856508196064" lon="9.131669284877807"><ele>276.0</ele><time>2026-04-11T15:32:58.999Z</time></trkpt><trkpt lat="46.02839212341382" lon="9.131778338634192"><ele>276.0</ele><time>2026-04-11T15:32:59.999Z</time></trkpt><trkpt lat="46.02821372468892" lon="9.131854325449368"><ele>276.0</ele><time>2026-04-11T15:33:00.999Z</time></trkpt><trkpt lat="46.028023063066016" lon="9.131878076374395"><ele>276.0</ele><time>2026-04-11T15:33:01.999Z</time></trkpt><trkpt lat="46.02782844917836" lon="9.131853344539753"><ele>276.0</ele><time>2026-04-11T15:33:02.999Z</time></trkpt><trkpt lat="46.02763533334522" lon="9.131770718203557"><ele>276.0</ele><time>2026-04-11T15:33:03.999Z</time></trkpt><trkpt lat="46.02745048446147" lon="9.131649334269236"><ele>276.3333333333333</ele><time>2026-04-11T15:33:04.999Z</time></trkpt><trkpt lat="46.027263788586474" lon="9.131530809444579"><ele>276.66666666666663</ele><time>2026-04-11T15:33:05.999Z</time></trkpt><trkpt lat="46.02707508481699" lon="9.131412114189459"><ele>277.0</ele><time>2026-04-11T15:33:06.999Z</time></trkpt><trkpt lat="46.02688890425208" lon="9.131290962033074"><ele>277.0</ele><time>2026-04-11T15:33:07.999Z</time></trkpt><trkpt lat="46.02670956725219" lon="9.131161447333001"><ele>277.0</ele><time>2026-04-11T15:33:08.999Z</time></trkpt><trkpt lat="46.02654449739062" lon="9.13098695308108"><ele>277.0</ele><time>2026-04-11T15:33:09.999Z</time></trkpt><trkpt lat="46.02640813141633" lon="9.130756138838196"><ele>280.3333333333333</ele><time>2026-04-11T15:33:10.999Z</time></trkpt><trkpt lat="46.026295176000765" lon="9.130500444747938"><ele>283.6666666666667</ele><time>2026-04-11T15:33:11.999Z</time></trkpt><trkpt lat="46.02621868395823" lon="9.13021992339535"><ele>287.0</ele><time>2026-04-11T15:33:12.999Z</time></trkpt><trkpt lat="46.02612701030785" lon="9.129944508310595"><ele>283.6666666666667</ele><time>2026-04-11T15:33:13.999Z</time></trkpt><trkpt lat="46.02604092310863" lon="9.129661608620848"><ele>280.3333333333333</ele><time>2026-04-11T15:33:14.999Z</time></trkpt><trkpt lat="46.025947930622756" lon="9.129376287252553"><ele>277.0</ele><time>2026-04-11T15:33:15.999Z</time></trkpt><trkpt lat="46.02585691548587" lon="9.129093008283975"><ele>288.0</ele><time>2026-04-11T15:33:16.999Z</time></trkpt><trkpt lat="46.025756439499496" lon="9.128755060587904"><ele>299.0</ele><time>2026-04-11T15:33:17.999Z</time></trkpt><trkpt lat="46.025674224772246" lon="9.128450058922837"><ele>295.33333333333337</ele><time>2026-04-11T15:33:18.999Z</time></trkpt><trkpt lat="46.025601105371045" lon="9.128168472519743"><ele>291.6666666666667</ele><time>2026-04-11T15:33:19.999Z</time></trkpt><trkpt lat="46.02550937981879" lon="9.127873886943549"><ele>288.0</ele><time>2026-04-11T15:33:20.999Z</time></trkpt><trkpt lat="46.025434302525625" lon="9.12757341746234"><ele>285.6666666666667</ele><time>2026-04-11T15:33:21.999Z</time></trkpt><trkpt lat="46.025361843688756" lon="9.127276353611753"><ele>283.33333333333337</ele><time>2026-04-11T15:33:22.999Z</time></trkpt><trkpt lat="46.02528707800992" lon="9.126981449585102"><ele>281.0</ele><time>2026-04-11T15:33:23.999Z</time></trkpt><trkpt lat="46.02521276385495" lon="9.126686557916551"><ele>280.0</ele><time>2026-04-11T15:33:24.999Z</time></trkpt><trkpt lat="46.02514086263655" lon="9.126392489522502"><ele>279.0</ele><time>2026-04-11T15:33:25.999Z</time></trkpt><trkpt lat="46.02507813952433" lon="9.126096840547275"><ele>278.0</ele><time>2026-04-11T15:33:26.999Z</time></trkpt><trkpt lat="46.02503333895054" lon="9.125801959505932"><ele>278.0</ele><time>2026-04-11T15:33:27.999Z</time></trkpt><trkpt lat="46.025018810096306" lon="9.125508137355647"><ele>278.0</ele><time>2026-04-11T15:33:28.999Z</time></trkpt><trkpt lat="46.02498718064246" lon="9.125219608029507"><ele>278.0</ele><time>2026-04-11T15:33:29.999Z</time></trkpt><trkpt lat="46.0249425726007" lon="9.124897784688896"><ele>282.33333333333337</ele><time>2026-04-11T15:33:30.999Z</time></trkpt><trkpt lat="46.02490917367784" lon="9.124616891188754"><ele>286.6666666666667</ele><time>2026-04-11T15:33:31.999Z</time></trkpt><trkpt lat="46.02487233900787" lon="9.124355741904541"><ele>291.0</ele><time>2026-04-11T15:33:32.999Z</time></trkpt><trkpt lat="46.024817632521184" lon="9.12413337454752"><ele>288.6666666666667</ele><time>2026-04-11T15:33:33.999Z</time></trkpt><trkpt lat="46.02472777778687" lon="9.123958186135813"><ele>286.33333333333337</ele><time>2026-04-11T15:33:34.999Z</time></trkpt><trkpt lat="46.02461162983575" lon="9.123815714215718"><ele>284.0</ele><time>2026-04-11T15:33:35.999Z</time></trkpt><trkpt lat="46.02449876693954" lon="9.123653007463425"><ele>284.0</ele><time>2026-04-11T15:33:36.999Z</time></trkpt><trkpt lat="46.024384585869896" lon="9.123496724933895"><ele>284.0</ele><time>2026-04-11T15:33:37.999Z</time></trkpt><trkpt lat="46.02428891353413" lon="9.123332704096704"><ele>284.0</ele><time>2026-04-11T15:33:38.999Z</time></trkpt><trkpt lat="46.0242105890248" lon="9.123154405919587"><ele>287.6666666666667</ele><time>2026-04-11T15:33:39.999Z</time></trkpt><trkpt lat="46.02412550235926" lon="9.122952900755562"><ele>291.3333333333333</ele><time>2026-04-11T15:33:40.999Z</time></trkpt><trkpt lat="46.02402624805155" lon="9.12272038128623"><ele>295.0</ele><time>2026-04-11T15:33:41.999Z</time></trkpt><trkpt lat="46.02391783409576" lon="9.12246868568057"><ele>291.66666666666663</ele><time>2026-04-11T15:33:42.999Z</time></trkpt><trkpt lat="46.02380267416905" lon="9.1222034847048"><ele>288.3333333333333</ele><time>2026-04-11T15:33:43.999Z</time></trkpt><trkpt lat="46.023668234531854" lon="9.121930608177781"><ele>285.0</ele><time>2026-04-11T15:33:44.999Z</time></trkpt><trkpt lat="46.02351771393748" lon="9.121668981448554"><ele>283.6666666666667</ele><time>2026-04-11T15:33:45.999Z</time></trkpt><trkpt lat="46.0233717757817" lon="9.121431100110893"><ele>282.33333333333337</ele><time>2026-04-11T15:33:46.999Z</time></trkpt><trkpt lat="46.023223949873596" lon="9.121219466699008"><ele>281.0</ele><time>2026-04-11T15:33:47.999Z</time></trkpt><trkpt lat="46.0231463819139" lon="9.120958422718566"><ele>289.33333333333337</ele><time>2026-04-11T15:33:48.999Z</time></trkpt><trkpt lat="46.023082550596015" lon="9.120700823471637"><ele>297.6666666666667</ele><time>2026-04-11T15:33:49.999Z</time></trkpt><trkpt lat="46.02301871854329" lon="9.120445230880579"><ele>306.0</ele><time>2026-04-11T15:33:50.999Z</time></trkpt><trkpt lat="46.02292182152306" lon="9.120074017053884"><ele>300.0</ele><time>2026-04-11T15:33:51.999Z</time></trkpt><trkpt lat="46.022832795025415" lon="9.119809414600256"><ele>294.0</ele><time>2026-04-11T15:33:52.999Z</time></trkpt><trkpt lat="46.02274921561347" lon="9.119552312423993"><ele>288.0</ele><time>2026-04-11T15:33:53.999Z</time></trkpt><trkpt lat="46.02264040467835" lon="9.119302534798043"><ele>290.3333333333333</ele><time>2026-04-11T15:33:54.999Z</time></trkpt><trkpt lat="46.02250895765842" lon="9.119066923851173"><ele>292.66666666666663</ele><time>2026-04-11T15:33:55.999Z</time></trkpt><trkpt lat="46.02235808557587" lon="9.118858973315104"><ele>295.0</ele><time>2026-04-11T15:33:56.999Z</time></trkpt><trkpt lat="46.02219415551225" lon="9.1186632491677"><ele>295.0</ele><time>2026-04-11T15:33:57.999Z</time></trkpt><trkpt lat="46.022026669389625" lon="9.118476188863777"><ele>295.0</ele><time>2026-04-11T15:33:58.999Z</time></trkpt><trkpt lat="46.0218663381522" lon="9.118275545190112"><ele>295.0</ele><time>2026-04-11T15:33:59.999Z</time></trkpt><trkpt lat="46.02170561476368" lon="9.11807755606497"><ele>299.0</ele><time>2026-04-11T15:34:00.999Z</time></trkpt><trkpt lat="46.02154319631957" lon="9.117874131571877"><ele>303.0</ele><time>2026-04-11T15:34:01.999Z</time></trkpt><trkpt lat="46.02140511491195" lon="9.117656037341273"><ele>307.0</ele><time>2026-04-11T15:34:02.999Z</time></trkpt><trkpt lat="46.02126614973324" lon="9.117427622565291"><ele>314.0</ele><time>2026-04-11T15:34:03.999Z</time></trkpt><trkpt lat="46.021130589169026" lon="9.117204344568435"><ele>321.0</ele><time>2026-04-11T15:34:04.999Z</time></trkpt><trkpt lat="46.020985110393134" lon="9.117014403088074"><ele>328.0</ele><time>2026-04-11T15:34:05.999Z</time></trkpt><trkpt lat="46.02081230976876" lon="9.116814494564592"><ele>328.0</ele><time>2026-04-11T15:34:06.999Z</time></trkpt><trkpt lat="46.02063921575865" lon="9.116734224792367"><ele>328.0</ele><time>2026-04-11T15:34:07.999Z</time></trkpt><trkpt lat="46.02046784787784" lon="9.116539981800358"><ele>328.0</ele><time>2026-04-11T15:34:08.999Z</time></trkpt><trkpt lat="46.02030460509012" lon="9.116346439329478"><ele>339.0</ele><time>2026-04-11T15:34:09.999Z</time></trkpt><trkpt lat="46.020128805153576" lon="9.116169013227987"><ele>350.0</ele><time>2026-04-11T15:34:10.999Z</time></trkpt><trkpt lat="46.01997351976455" lon="9.11600073773719"><ele>361.0</ele><time>2026-04-11T15:34:11.999Z</time></trkpt><trkpt lat="46.01981467243787" lon="9.115873790250447"><ele>361.0</ele><time>2026-04-11T15:34:12.999Z</time></trkpt><trkpt lat="46.019691870352794" lon="9.115770818845805"><ele>361.0</ele><time>2026-04-11T15:34:13.999Z</time></trkpt><trkpt lat="46.019593025988684" lon="9.115624095611924"><ele>361.0</ele><time>2026-04-11T15:34:14.999Z</time></trkpt><trkpt lat="46.01951180284149" lon="9.115433268815533"><ele>361.0</ele><time>2026-04-11T15:34:15.999Z</time></trkpt><trkpt lat="46.0194243538638" lon="9.115224489005502"><ele>358.66666666666663</ele><time>2026-04-11T15:34:16.999Z</time></trkpt><trkpt lat="46.01932988566536" lon="9.11501381597589"><ele>356.3333333333333</ele><time>2026-04-11T15:34:17.999Z</time></trkpt><trkpt lat="46.019193295156086" lon="9.114847708999866"><ele>354.0</ele><time>2026-04-11T15:34:18.999Z</time></trkpt><trkpt lat="46.01904851527412" lon="9.114702120080421"><ele>354.0</ele><time>2026-04-11T15:34:19.999Z</time></trkpt><trkpt lat="46.018924977974265" lon="9.114526456976963"><ele>354.0</ele><time>2026-04-11T15:34:20.999Z</time></trkpt><trkpt lat="46.01881721972575" lon="9.114363332203856"><ele>354.0</ele><time>2026-04-11T15:34:21.999Z</time></trkpt><trkpt lat="46.018748722351006" lon="9.11416407836972"><ele>346.0</ele><time>2026-04-11T15:34:22.999Z</time></trkpt><trkpt lat="46.01870614154905" lon="9.11392950901521"><ele>338.0</ele><time>2026-04-11T15:34:23.999Z</time></trkpt><trkpt lat="46.018654297096084" lon="9.113672676683143"><ele>330.0</ele><time>2026-04-11T15:34:24.999Z</time></trkpt><trkpt lat="46.018625555618314" lon="9.11341141868217"><ele>324.3333333333333</ele><time>2026-04-11T15:34:25.999Z</time></trkpt><trkpt lat="46.01859452033551" lon="9.113145989943572"><ele>318.66666666666663</ele><time>2026-04-11T15:34:26.999Z</time></trkpt><trkpt lat="46.01856345996658" lon="9.112873621476789"><ele>313.0</ele><time>2026-04-11T15:34:27.999Z</time></trkpt><trkpt lat="46.01852152625793" lon="9.11260920322037"><ele>305.3333333333333</ele><time>2026-04-11T15:34:28.999Z</time></trkpt><trkpt lat="46.01845423724026" lon="9.11235542534172"><ele>297.6666666666667</ele><time>2026-04-11T15:34:29.999Z</time></trkpt><trkpt lat="46.01836911340557" lon="9.112120236564342"><ele>290.0</ele><time>2026-04-11T15:34:30.999Z</time></trkpt><trkpt lat="46.018318228263205" lon="9.111878548311358"><ele>291.25</ele><time>2026-04-11T15:34:31.999Z</time></trkpt><trkpt lat="46.018260660937536" lon="9.111662314747623"><ele>292.5</ele><time>2026-04-11T15:34:32.999Z</time></trkpt><trkpt lat="46.018197824554846" lon="9.111490192991209"><ele>293.75</ele><time>2026-04-11T15:34:33.999Z</time></trkpt><trkpt lat="46.0181020305519" lon="9.111374800019352"><ele>295.0</ele><time>2026-04-11T15:34:34.999Z</time></trkpt><trkpt lat="46.01798536859887" lon="9.111253432439316"><ele>295.0</ele><time>2026-04-11T15:34:35.999Z</time></trkpt><trkpt lat="46.01786794942968" lon="9.111122100958552"><ele>295.0</ele><time>2026-04-11T15:34:36.999Z</time></trkpt><trkpt lat="46.01775607941046" lon="9.110922683818865"><ele>295.0</ele><time>2026-04-11T15:34:37.999Z</time></trkpt><trkpt lat="46.017666808510576" lon="9.110726225855275"><ele>296.3333333333333</ele><time>2026-04-11T15:34:38.999Z</time></trkpt><trkpt lat="46.0175592033881" lon="9.110538587623125"><ele>297.6666666666667</ele><time>2026-04-11T15:34:39.999Z</time></trkpt><trkpt lat="46.01744176748436" lon="9.110366493903129"><ele>299.0</ele><time>2026-04-11T15:34:40.999Z</time></trkpt><trkpt lat="46.01729872072383" lon="9.110227440466748"><ele>299.0</ele><time>2026-04-11T15:34:41.999Z</time></trkpt><trkpt lat="46.01718530272265" lon="9.110109006577579"><ele>299.0</ele><time>2026-04-11T15:34:42.999Z</time></trkpt><trkpt lat="46.01711516604342" lon="9.110029519267636"><ele>299.0</ele><time>2026-04-11T15:34:43.999Z</time></trkpt><trkpt lat="46.01704507348245" lon="9.109967550483336"><ele>299.0</ele><time>2026-04-11T15:34:44.999Z</time></trkpt><trkpt lat="46.01697223295126" lon="9.109912073708465"><ele>299.0</ele><time>2026-04-11T15:34:45.999Z</time></trkpt><trkpt lat="46.016903016716" lon="9.109820642184474"><ele>300.59999999999997</ele><time>2026-04-11T15:34:46.999Z</time></trkpt><trkpt lat="46.016829227281804" lon="9.109733585970345"><ele>302.2</ele><time>2026-04-11T15:34:47.999Z</time></trkpt><trkpt lat="46.016756146342416" lon="9.109630208781478"><ele>303.79999999999995</ele><time>2026-04-11T15:34:48.999Z</time></trkpt><trkpt lat="46.016677310357124" lon="9.1095030322212"><ele>305.4</ele><time>2026-04-11T15:34:49.999Z</time></trkpt><trkpt lat="46.01657705113283" lon="9.109378078258523"><ele>307.0</ele><time>2026-04-11T15:34:50.999Z</time></trkpt><trkpt lat="46.01648846786035" lon="9.109226501358465"><ele>298.66666666666663</ele><time>2026-04-11T15:34:51.999Z</time></trkpt><trkpt lat="46.01638448773609" lon="9.109070769905216"><ele>290.3333333333333</ele><time>2026-04-11T15:34:52.999Z</time></trkpt><trkpt lat="46.016266355497194" lon="9.108919918031182"><ele>282.0</ele><time>2026-04-11T15:34:53.999Z</time></trkpt><trkpt lat="46.01612590090983" lon="9.108792074088596"><ele>282.0</ele><time>2026-04-11T15:34:54.999Z</time></trkpt><trkpt lat="46.01598027537926" lon="9.108647854660898"><ele>282.0</ele><time>2026-04-11T15:34:55.999Z</time></trkpt><trkpt lat="46.0158475281187" lon="9.108507332172184"><ele>282.0</ele><time>2026-04-11T15:34:56.999Z</time></trkpt><trkpt lat="46.01571193604016" lon="9.108336968363947"><ele>285.0</ele><time>2026-04-11T15:34:57.999Z</time></trkpt><trkpt lat="46.015563568513905" lon="9.108179860022597"><ele>288.0</ele><time>2026-04-11T15:34:58.999Z</time></trkpt><trkpt lat="46.015441895152655" lon="9.108022328424232"><ele>291.0</ele><time>2026-04-11T15:34:59.999Z</time></trkpt><trkpt lat="46.01534751040838" lon="9.107852286809322"><ele>291.0</ele><time>2026-04-11T15:35:00.999Z</time></trkpt><trkpt lat="46.01526404184712" lon="9.107671931044283"><ele>291.0</ele><time>2026-04-11T15:35:01.999Z</time></trkpt><trkpt lat="46.015165325272015" lon="9.107484676670209"><ele>291.0</ele><time>2026-04-11T15:35:02.999Z</time></trkpt><trkpt lat="46.01507235782817" lon="9.107298955944358"><ele>290.6666666666667</ele><time>2026-04-11T15:35:03.999Z</time></trkpt><trkpt lat="46.01495449232065" lon="9.107135227065054"><ele>290.33333333333337</ele><time>2026-04-11T15:35:04.999Z</time></trkpt><trkpt lat="46.014823563110916" lon="9.107014404289375"><ele>290.0</ele><time>2026-04-11T15:35:05.999Z</time></trkpt><trkpt lat="46.01469742486277" lon="9.106909451432323"><ele>290.0</ele><time>2026-04-11T15:35:06.999Z</time></trkpt><trkpt lat="46.014586763219306" lon="9.10680084227276"><ele>290.0</ele><time>2026-04-11T15:35:07.999Z</time></trkpt><trkpt lat="46.014502871904696" lon="9.106647957223707"><ele>290.0</ele><time>2026-04-11T15:35:08.999Z</time></trkpt><trkpt lat="46.01442202037749" lon="9.106476933062156"><ele>290.0</ele><time>2026-04-11T15:35:09.999Z</time></trkpt><trkpt lat="46.01432405783142" lon="9.10629844789398"><ele>287.33333333333337</ele><time>2026-04-11T15:35:10.999Z</time></trkpt><trkpt lat="46.014236291053116" lon="9.106111636635346"><ele>284.6666666666667</ele><time>2026-04-11T15:35:11.999Z</time></trkpt><trkpt lat="46.014132874437" lon="9.105926957046517"><ele>282.0</ele><time>2026-04-11T15:35:12.999Z</time></trkpt><trkpt lat="46.01401964190391" lon="9.105754526797012"><ele>285.6666666666667</ele><time>2026-04-11T15:35:13.999Z</time></trkpt><trkpt lat="46.01389222958392" lon="9.105581333191726"><ele>289.33333333333337</ele><time>2026-04-11T15:35:14.999Z</time></trkpt><trkpt lat="46.01375818882322" lon="9.105404318009262"><ele>293.0</ele><time>2026-04-11T15:35:15.999Z</time></trkpt><trkpt lat="46.0136220614517" lon="9.105224484041939"><ele>293.0</ele><time>2026-04-11T15:35:16.999Z</time></trkpt><trkpt lat="46.0134842577029" lon="9.105045905254645"><ele>293.0</ele><time>2026-04-11T15:35:17.999Z</time></trkpt><trkpt lat="46.01334005790266" lon="9.104861122097251"><ele>293.0</ele><time>2026-04-11T15:35:18.999Z</time></trkpt><trkpt lat="46.01319842197297" lon="9.10466892995847"><ele>291.6666666666667</ele><time>2026-04-11T15:35:19.999Z</time></trkpt><trkpt lat="46.013058993658994" lon="9.104465467251359"><ele>290.3333333333333</ele><time>2026-04-11T15:35:20.999Z</time></trkpt><trkpt lat="46.01295538354837" lon="9.104212680540625"><ele>289.0</ele><time>2026-04-11T15:35:21.999Z</time></trkpt><trkpt lat="46.01281802586147" lon="9.103978612909676"><ele>289.0</ele><time>2026-04-11T15:35:22.999Z</time></trkpt><trkpt lat="46.01267874700839" lon="9.103749740781241"><ele>289.0</ele><time>2026-04-11T15:35:23.999Z</time></trkpt><trkpt lat="46.012571270127204" lon="9.103484054355746"><ele>289.0</ele><time>2026-04-11T15:35:24.999Z</time></trkpt><trkpt lat="46.012464101122546" lon="9.103213658081835"><ele>297.3333333333333</ele><time>2026-04-11T15:35:25.999Z</time></trkpt><trkpt lat="46.01234352112901" lon="9.102961792773035"><ele>305.6666666666667</ele><time>2026-04-11T15:35:26.999Z</time></trkpt><trkpt lat="46.01222448431221" lon="9.102705471509275"><ele>314.0</ele><time>2026-04-11T15:35:27.999Z</time></trkpt><trkpt lat="46.01208966214688" lon="9.102466044244306"><ele>306.33333333333337</ele><time>2026-04-11T15:35:28.999Z</time></trkpt><trkpt lat="46.01195193525015" lon="9.102232499870022"><ele>298.6666666666667</ele><time>2026-04-11T15:35:29.999Z</time></trkpt><trkpt lat="46.011830198049616" lon="9.101985815355945"><ele>291.0</ele><time>2026-04-11T15:35:30.999Z</time></trkpt><trkpt lat="46.01171469486905" lon="9.101761232994525"><ele>300.3333333333333</ele><time>2026-04-11T15:35:31.999Z</time></trkpt><trkpt lat="46.01158448920171" lon="9.10157259689762"><ele>309.66666666666663</ele><time>2026-04-11T15:35:32.999Z</time></trkpt><trkpt lat="46.01146555399213" lon="9.101424848422484"><ele>319.0</ele><time>2026-04-11T15:35:33.999Z</time></trkpt><trkpt lat="46.01137721559564" lon="9.101297135076596"><ele>319.0</ele><time>2026-04-11T15:35:34.999Z</time></trkpt><trkpt lat="46.01129037326722" lon="9.101161222130278"><ele>319.0</ele><time>2026-04-11T15:35:35.999Z</time></trkpt><trkpt lat="46.01120481613326" lon="9.101009372673309"><ele>319.0</ele><time>2026-04-11T15:35:36.999Z</time></trkpt><trkpt lat="46.011150202943064" lon="9.100796790735808"><ele>319.0</ele><time>2026-04-11T15:35:37.999Z</time></trkpt><trkpt lat="46.01106365192336" lon="9.100574218295781"><ele>311.0</ele><time>2026-04-11T15:35:38.999Z</time></trkpt><trkpt lat="46.01099090310827" lon="9.10033254000022"><ele>303.0</ele><time>2026-04-11T15:35:39.999Z</time></trkpt><trkpt lat="46.010891327124426" lon="9.100116375923754"><ele>295.0</ele><time>2026-04-11T15:35:40.999Z</time></trkpt><trkpt lat="46.01076833824591" lon="9.099935857012758"><ele>305.66666666666663</ele><time>2026-04-11T15:35:41.999Z</time></trkpt><trkpt lat="46.01067438283406" lon="9.099729687679675"><ele>316.3333333333333</ele><time>2026-04-11T15:35:42.999Z</time></trkpt><trkpt lat="46.01060197191577" lon="9.099496988408811"><ele>327.0</ele><time>2026-04-11T15:35:43.999Z</time></trkpt><trkpt lat="46.01050855044506" lon="9.099265034386097"><ele>316.0</ele><time>2026-04-11T15:35:44.999Z</time></trkpt><trkpt lat="46.01041474465124" lon="9.099037476102973"><ele>305.0</ele><time>2026-04-11T15:35:45.999Z</time></trkpt><trkpt lat="46.010295285672946" lon="9.098822592465545"><ele>294.0</ele><time>2026-04-11T15:35:46.999Z</time></trkpt><trkpt lat="46.0101567265228" lon="9.098624662047914"><ele>294.0</ele><time>2026-04-11T15:35:47.999Z</time></trkpt><trkpt lat="46.01001567104131" lon="9.098439946994672"><ele>294.0</ele><time>2026-04-11T15:35:48.999Z</time></trkpt><trkpt lat="46.00989080414947" lon="9.098251678017267"><ele>294.0</ele><time>2026-04-11T15:35:49.999Z</time></trkpt><trkpt lat="46.009801075330905" lon="9.098025454546931"><ele>305.0</ele><time>2026-04-11T15:35:50.999Z</time></trkpt><trkpt lat="46.00969828465809" lon="9.097810782103679"><ele>316.0</ele><time>2026-04-11T15:35:51.999Z</time></trkpt><trkpt lat="46.009590386816164" lon="9.097620146839011"><ele>327.0</ele><time>2026-04-11T15:35:52.999Z</time></trkpt><trkpt lat="46.00948615550079" lon="9.097456319987051"><ele>318.0</ele><time>2026-04-11T15:35:53.999Z</time></trkpt><trkpt lat="46.00940579148165" lon="9.097286511629976"><ele>309.0</ele><time>2026-04-11T15:35:54.999Z</time></trkpt><trkpt lat="46.00937181722826" lon="9.097072284942747"><ele>300.0</ele><time>2026-04-11T15:35:55.999Z</time></trkpt><trkpt lat="46.009309613584236" lon="9.096852928674535"><ele>300.0</ele><time>2026-04-11T15:35:56.999Z</time></trkpt><trkpt lat="46.009240620546244" lon="9.096639393782713"><ele>300.0</ele><time>2026-04-11T15:35:57.999Z</time></trkpt><trkpt lat="46.009126940243085" lon="9.096452388079747"><ele>300.0</ele><time>2026-04-11T15:35:58.999Z</time></trkpt><trkpt lat="46.00902768418891" lon="9.096247726858234"><ele>303.0</ele><time>2026-04-11T15:35:59.999Z</time></trkpt><trkpt lat="46.00893834828503" lon="9.096031924470868"><ele>306.0</ele><time>2026-04-11T15:36:00.999Z</time></trkpt><trkpt lat="46.00886677912853" lon="9.095776594016305"><ele>309.0</ele><time>2026-04-11T15:36:01.999Z</time></trkpt><trkpt lat="46.00875470329772" lon="9.095576617516038"><ele>309.0</ele><time>2026-04-11T15:36:02.999Z</time></trkpt><trkpt lat="46.00864998666404" lon="9.095349080395742"><ele>309.0</ele><time>2026-04-11T15:36:03.999Z</time></trkpt><trkpt lat="46.008573667665964" lon="9.095096455365299"><ele>309.0</ele><time>2026-04-11T15:36:04.999Z</time></trkpt><trkpt lat="46.008458969858545" lon="9.094881048192576"><ele>301.3333333333333</ele><time>2026-04-11T15:36:05.999Z</time></trkpt><trkpt lat="46.00835177534706" lon="9.094654689047767"><ele>293.66666666666663</ele><time>2026-04-11T15:36:06.999Z</time></trkpt><trkpt lat="46.00825914811658" lon="9.094423866818902"><ele>286.0</ele><time>2026-04-11T15:36:07.999Z</time></trkpt><trkpt lat="46.008151180636894" lon="9.094211969114046"><ele>296.66666666666663</ele><time>2026-04-11T15:36:08.999Z</time></trkpt><trkpt lat="46.00802503936774" lon="9.09404075484902"><ele>307.3333333333333</ele><time>2026-04-11T15:36:09.999Z</time></trkpt><trkpt lat="46.00792959786776" lon="9.093853706009972"><ele>318.0</ele><time>2026-04-11T15:36:10.999Z</time></trkpt><trkpt lat="46.00785458589894" lon="9.09362576090282"><ele>318.0</ele><time>2026-04-11T15:36:11.999Z</time></trkpt><trkpt lat="46.00773829102599" lon="9.093457867554948"><ele>318.0</ele><time>2026-04-11T15:36:12.999Z</time></trkpt><trkpt lat="46.00763645750647" lon="9.093270855799165"><ele>318.0</ele><time>2026-04-11T15:36:13.999Z</time></trkpt><trkpt lat="46.00755356783341" lon="9.093074070121007"><ele>332.0</ele><time>2026-04-11T15:36:14.999Z</time></trkpt><trkpt lat="46.00748211733912" lon="9.092854465337298"><ele>346.0</ele><time>2026-04-11T15:36:15.999Z</time></trkpt><trkpt lat="46.00741410765158" lon="9.092655686601882"><ele>360.0</ele><time>2026-04-11T15:36:16.999Z</time></trkpt><trkpt lat="46.00736056013381" lon="9.092487782416576"><ele>358.25</ele><time>2026-04-11T15:36:17.999Z</time></trkpt><trkpt lat="46.007333615777455" lon="9.092314016309219"><ele>356.5</ele><time>2026-04-11T15:36:18.999Z</time></trkpt><trkpt lat="46.00733000246116" lon="9.092111078793906"><ele>354.75</ele><time>2026-04-11T15:36:19.999Z</time></trkpt><trkpt lat="46.00736237321448" lon="9.091891070961728"><ele>353.0</ele><time>2026-04-11T15:36:20.999Z</time></trkpt><trkpt lat="46.0073908924104" lon="9.091649526407528"><ele>353.0</ele><time>2026-04-11T15:36:21.999Z</time></trkpt><trkpt lat="46.00744067929663" lon="9.091415283925494"><ele>353.0</ele><time>2026-04-11T15:36:22.999Z</time></trkpt><trkpt lat="46.00747784399059" lon="9.09117097575827"><ele>353.0</ele><time>2026-04-11T15:36:23.999Z</time></trkpt><trkpt lat="46.0075035321489" lon="9.090948483856256"><ele>350.6666666666667</ele><time>2026-04-11T15:36:24.999Z</time></trkpt><trkpt lat="46.00751176626709" lon="9.09073454244658"><ele>348.3333333333333</ele><time>2026-04-11T15:36:25.999Z</time></trkpt><trkpt lat="46.00748996022042" lon="9.090508422712825"><ele>346.0</ele><time>2026-04-11T15:36:26.999Z</time></trkpt><trkpt lat="46.00745514058797" lon="9.09026766151275"><ele>346.0</ele><time>2026-04-11T15:36:27.999Z</time></trkpt><trkpt lat="46.00744476960943" lon="9.090008558951428"><ele>346.0</ele><time>2026-04-11T15:36:28.999Z</time></trkpt><trkpt lat="46.007425770016646" lon="9.089742233627117"><ele>346.0</ele><time>2026-04-11T15:36:29.999Z</time></trkpt><trkpt lat="46.00742132791081" lon="9.0894811771521"><ele>343.3333333333333</ele><time>2026-04-11T15:36:30.999Z</time></trkpt><trkpt lat="46.007392899035494" lon="9.089214564637091"><ele>340.6666666666667</ele><time>2026-04-11T15:36:31.999Z</time></trkpt><trkpt lat="46.00733998427319" lon="9.08895456063922"><ele>338.0</ele><time>2026-04-11T15:36:32.999Z</time></trkpt><trkpt lat="46.00729705737667" lon="9.088706298262366"><ele>335.6666666666667</ele><time>2026-04-11T15:36:33.999Z</time></trkpt><trkpt lat="46.007244293548084" lon="9.08847480749462"><ele>333.3333333333333</ele><time>2026-04-11T15:36:34.999Z</time></trkpt><trkpt lat="46.00725303017413" lon="9.088224423349375"><ele>331.0</ele><time>2026-04-11T15:36:35.999Z</time></trkpt><trkpt lat="46.00724285759942" lon="9.087967962410989"><ele>326.0</ele><time>2026-04-11T15:36:36.999Z</time></trkpt><trkpt lat="46.00723095415012" lon="9.087720177139307"><ele>321.0</ele><time>2026-04-11T15:36:37.999Z</time></trkpt><trkpt lat="46.007226795390416" lon="9.08746823531298"><ele>316.0</ele><time>2026-04-11T15:36:38.999Z</time></trkpt><trkpt lat="46.00723313551405" lon="9.087227187525114"><ele>309.66666666666663</ele><time>2026-04-11T15:36:39.999Z</time></trkpt><trkpt lat="46.00722718504187" lon="9.086996048296957"><ele>303.3333333333333</ele><time>2026-04-11T15:36:40.999Z</time></trkpt><trkpt lat="46.00723353805059" lon="9.086775305804421"><ele>297.0</ele><time>2026-04-11T15:36:41.999Z</time></trkpt><trkpt lat="46.00723633302021" lon="9.086564564725471"><ele>295.0</ele><time>2026-04-11T15:36:42.999Z</time></trkpt><trkpt lat="46.007190177855065" lon="9.086368731956448"><ele>293.0</ele><time>2026-04-11T15:36:43.999Z</time></trkpt><trkpt lat="46.00709080678799" lon="9.086201813372934"><ele>291.0</ele><time>2026-04-11T15:36:44.999Z</time></trkpt><trkpt lat="46.00700764172046" lon="9.086051801876495"><ele>289.0</ele><time>2026-04-11T15:36:45.999Z</time></trkpt><trkpt lat="46.006941174836996" lon="9.085936293243664"><ele>289.0</ele><time>2026-04-11T15:36:46.999Z</time></trkpt><trkpt lat="46.00688417667947" lon="9.085856472974433"><ele>289.0</ele><time>2026-04-11T15:36:47.999Z</time></trkpt><trkpt lat="46.00682726648983" lon="9.085795365016335"><ele>289.0</ele><time>2026-04-11T15:36:48.999Z</time></trkpt><trkpt lat="46.0067620630686" lon="9.085820515147756"><ele>289.0</ele><time>2026-04-11T15:36:49.999Z</time></trkpt><trkpt lat="46.006720750848935" lon="9.085937584922998"><ele>289.0</ele><time>2026-04-11T15:36:50.999Z</time></trkpt><trkpt lat="46.00673112393304" lon="9.086099827609148"><ele>289.0</ele><time>2026-04-11T15:36:51.999Z</time></trkpt><trkpt lat="46.00677693785901" lon="9.08626938166776"><ele>289.0</ele><time>2026-04-11T15:36:52.999Z</time></trkpt><trkpt lat="46.006817648032914" lon="9.086454812804284"><ele>289.0</ele><time>2026-04-11T15:36:53.999Z</time></trkpt><trkpt lat="46.00685002518615" lon="9.08662551070425"><ele>289.0</ele><time>2026-04-11T15:36:54.999Z</time></trkpt><trkpt lat="46.006846970802" lon="9.086757933607926"><ele>289.0</ele><time>2026-04-11T15:36:55.999Z</time></trkpt><trkpt lat="46.006832680195174" lon="9.08687658368096"><ele>289.0</ele><time>2026-04-11T15:36:56.999Z</time></trkpt><trkpt lat="46.006803501250104" lon="9.086979194887562"><ele>290.59999999999997</ele><time>2026-04-11T15:36:57.999Z</time></trkpt><trkpt lat="46.0066979525767" lon="9.086976544340489"><ele>292.2</ele><time>2026-04-11T15:36:58.999Z</time></trkpt><trkpt lat="46.0066219855818" lon="9.086924389378005"><ele>293.79999999999995</ele><time>2026-04-11T15:36:59.999Z</time></trkpt><trkpt lat="46.006574835054295" lon="9.086828637126946"><ele>295.4</ele><time>2026-04-11T15:37:00.999Z</time></trkpt><trkpt lat="46.00658410466228" lon="9.086673412649793"><ele>297.0</ele><time>2026-04-11T15:37:01.999Z</time></trkpt><trkpt lat="46.00664601341779" lon="9.086506100067512"><ele>295.0</ele><time>2026-04-11T15:37:02.999Z</time></trkpt><trkpt lat="46.00666658256589" lon="9.08633496264718"><ele>293.0</ele><time>2026-04-11T15:37:03.999Z</time></trkpt><trkpt lat="46.006679610894814" lon="9.086182306468434"><ele>291.0</ele><time>2026-04-11T15:37:04.999Z</time></trkpt><trkpt lat="46.006657554161755" lon="9.086006012689138"><ele>289.0</ele><time>2026-04-11T15:37:05.999Z</time></trkpt><trkpt lat="46.00661609218736" lon="9.085829509744372"><ele>292.25</ele><time>2026-04-11T15:37:06.999Z</time></trkpt><trkpt lat="46.00656555332084" lon="9.08568628067553"><ele>295.5</ele><time>2026-04-11T15:37:07.999Z</time></trkpt><trkpt lat="46.006492821606614" lon="9.085587798217421"><ele>298.75</ele><time>2026-04-11T15:37:08.999Z</time></trkpt><trkpt lat="46.006379724758425" lon="9.085525841047298"><ele>302.0</ele><time>2026-04-11T15:37:09.999Z</time></trkpt><trkpt lat="46.00625187395339" lon="9.08549408096658"><ele>302.0</ele><time>2026-04-11T15:37:10.999Z</time></trkpt><trkpt lat="46.00613131001093" lon="9.085365747389332"><ele>302.0</ele><time>2026-04-11T15:37:11.999Z</time></trkpt><trkpt lat="46.00602672549167" lon="9.08522880749891"><ele>302.0</ele><time>2026-04-11T15:37:12.999Z</time></trkpt><trkpt lat="46.005946903802105" lon="9.085095148304108"><ele>302.0</ele><time>2026-04-11T15:37:13.999Z</time></trkpt><trkpt lat="46.005918634471065" lon="9.084962730476366"><ele>301.1666666666667</ele><time>2026-04-11T15:37:14.999Z</time></trkpt><trkpt lat="46.00587228371808" lon="9.08487909994198"><ele>300.33333333333337</ele><time>2026-04-11T15:37:16Z</time></trkpt><trkpt lat="46.00582397780243" lon="9.08481090984333"><ele>299.5</ele><time>2026-04-11T15:37:17Z</time></trkpt><trkpt lat="46.00573424840403" lon="9.084837282162319"><ele>298.6666666666667</ele><time>2026-04-11T15:37:18Z</time></trkpt><trkpt lat="46.00567027851764" lon="9.084949490444496"><ele>297.8333333333333</ele><time>2026-04-11T15:37:19Z</time></trkpt><trkpt lat="46.00568741892881" lon="9.08511048668954"><ele>297.0</ele><time>2026-04-11T15:37:20Z</time></trkpt><trkpt lat="46.005748601271634" lon="9.085250447577431"><ele>298.25</ele><time>2026-04-11T15:37:21Z</time></trkpt><trkpt lat="46.00583842941162" lon="9.085384725167497"><ele>299.5</ele><time>2026-04-11T15:37:22Z</time></trkpt><trkpt lat="46.00593807399009" lon="9.08551670343263"><ele>300.75</ele><time>2026-04-11T15:37:23Z</time></trkpt><trkpt lat="46.00605244196717" lon="9.085641237530991"><ele>302.0</ele><time>2026-04-11T15:37:24Z</time></trkpt><trkpt lat="46.00617866096249" lon="9.085759760255812"><ele>304.4</ele><time>2026-04-11T15:37:25Z</time></trkpt><trkpt lat="46.00628140681358" lon="9.085864094146347"><ele>306.79999999999995</ele><time>2026-04-11T15:37:26Z</time></trkpt><trkpt lat="46.00635331614983" lon="9.085965973975178"><ele>309.2</ele><time>2026-04-11T15:37:27Z</time></trkpt><trkpt lat="46.00638576687487" lon="9.086081026574119"><ele>311.59999999999997</ele><time>2026-04-11T15:37:28Z</time></trkpt><trkpt lat="46.0063633839382" lon="9.08621023582137"><ele>314.0</ele><time>2026-04-11T15:37:29Z</time></trkpt><trkpt lat="46.006297973223575" lon="9.086309603240425"><ele>314.0</ele><time>2026-04-11T15:37:30Z</time></trkpt><trkpt lat="46.006191312846916" lon="9.086306541969945"><ele>314.0</ele><time>2026-04-11T15:37:31Z</time></trkpt><trkpt lat="46.00609467878143" lon="9.086250879671939"><ele>314.0</ele><time>2026-04-11T15:37:32Z</time></trkpt><trkpt lat="46.005972046355616" lon="9.086234218716038"><ele>314.0</ele><time>2026-04-11T15:37:33Z</time></trkpt><trkpt lat="46.00586879627816" lon="9.086222778252484"><ele>314.0</ele><time>2026-04-11T15:37:34Z</time></trkpt><trkpt lat="46.00578214981974" lon="9.086307704939184"><ele>316.75</ele><time>2026-04-11T15:37:35Z</time></trkpt><trkpt lat="46.00568228628604" lon="9.086391476580237"><ele>319.5</ele><time>2026-04-11T15:37:36Z</time></trkpt><trkpt lat="46.005641946059015" lon="9.086542514420886"><ele>322.25</ele><time>2026-04-11T15:37:37Z</time></trkpt><trkpt lat="46.00576229557022" lon="9.086713237801762"><ele>325.0</ele><time>2026-04-11T15:37:38Z</time></trkpt><trkpt lat="46.00585275394519" lon="9.086815585588981"><ele>325.0</ele><time>2026-04-11T15:37:39Z</time></trkpt><trkpt lat="46.00596360818835" lon="9.086918350878634"><ele>325.0</ele><time>2026-04-11T15:37:40Z</time></trkpt><trkpt lat="46.00607481856154" lon="9.087025257548802"><ele>325.0</ele><time>2026-04-11T15:37:41Z</time></trkpt><trkpt lat="46.0061876389549" lon="9.087156100836648"><ele>325.0</ele><time>2026-04-11T15:37:42Z</time></trkpt><trkpt lat="46.006285824592226" lon="9.087313125396598"><ele>325.0</ele><time>2026-04-11T15:37:43Z</time></trkpt><trkpt lat="46.00639942553834" lon="9.087423084275088"><ele>325.0</ele><time>2026-04-11T15:37:44Z</time></trkpt><trkpt lat="46.0065331587898" lon="9.087482437130086"><ele>325.0</ele><time>2026-04-11T15:37:45Z</time></trkpt><trkpt lat="46.006649869082295" lon="9.087499003217463"><ele>325.0</ele><time>2026-04-11T15:37:46Z</time></trkpt><trkpt lat="46.00674179496116" lon="9.087553224657793"><ele>322.75</ele><time>2026-04-11T15:37:47Z</time></trkpt><trkpt lat="46.00680739054042" lon="9.087674996960358"><ele>320.5</ele><time>2026-04-11T15:37:48Z</time></trkpt><trkpt lat="46.006831859925285" lon="9.0878444515188"><ele>318.25</ele><time>2026-04-11T15:37:49Z</time></trkpt><trkpt lat="46.00681448361829" lon="9.088035931051605"><ele>316.0</ele><time>2026-04-11T15:37:50Z</time></trkpt><trkpt lat="46.00678069987076" lon="9.088227990302284"><ele>321.0</ele><time>2026-04-11T15:37:51Z</time></trkpt><trkpt lat="46.0067596018448" lon="9.088434814003037"><ele>326.0</ele><time>2026-04-11T15:37:52Z</time></trkpt><trkpt lat="46.00675303159099" lon="9.088651554182839"><ele>331.0</ele><time>2026-04-11T15:37:53Z</time></trkpt><trkpt lat="46.00676125905384" lon="9.088874183242865"><ele>331.0</ele><time>2026-04-11T15:37:54Z</time></trkpt><trkpt lat="46.006782704246845" lon="9.089089635015036"><ele>331.0</ele><time>2026-04-11T15:37:55Z</time></trkpt><trkpt lat="46.006803894490375" lon="9.089296696591825"><ele>331.0</ele><time>2026-04-11T15:37:56Z</time></trkpt><trkpt lat="46.00682813644801" lon="9.089457011552597"><ele>331.0</ele><time>2026-04-11T15:37:57Z</time></trkpt><trkpt lat="46.00683337138257" lon="9.089593099751253"><ele>332.4</ele><time>2026-04-11T15:37:58Z</time></trkpt><trkpt lat="46.006830774938145" lon="9.089698052658713"><ele>333.8</ele><time>2026-04-11T15:37:59Z</time></trkpt><trkpt lat="46.00672272788206" lon="9.089786757250947"><ele>335.2</ele><time>2026-04-11T15:38:01Z</time></trkpt><trkpt lat="46.00664666817935" lon="9.089734880700563"><ele>336.59999999999997</ele><time>2026-04-11T15:38:02Z</time></trkpt><trkpt lat="46.00660747826915" lon="9.089606925259716"><ele>338.0</ele><time>2026-04-11T15:38:03Z</time></trkpt><trkpt lat="46.006557920273714" lon="9.08946578304444"><ele>341.25</ele><time>2026-04-11T15:38:04Z</time></trkpt><trkpt lat="46.00648369202738" lon="9.089324397078808"><ele>344.5</ele><time>2026-04-11T15:38:05Z</time></trkpt><trkpt lat="46.00641632811667" lon="9.08916522603842"><ele>347.75</ele><time>2026-04-11T15:38:06Z</time></trkpt><trkpt lat="46.00634138196385" lon="9.089006588213056"><ele>351.0</ele><time>2026-04-11T15:38:07Z</time></trkpt><trkpt lat="46.006247005996244" lon="9.088873972767953"><ele>351.0</ele><time>2026-04-11T15:38:08Z</time></trkpt><trkpt lat="46.00612597272436" lon="9.08878043410991"><ele>351.0</ele><time>2026-04-11T15:38:09Z</time></trkpt><trkpt lat="46.006013138985494" lon="9.088658003223456"><ele>351.0</ele><time>2026-04-11T15:38:10Z</time></trkpt><trkpt lat="46.00592751650589" lon="9.088516812790651"><ele>351.0</ele><time>2026-04-11T15:38:11Z</time></trkpt><trkpt lat="46.00585480637" lon="9.088331659318687"><ele>354.3333333333333</ele><time>2026-04-11T15:38:12Z</time></trkpt><trkpt lat="46.00575754519959" lon="9.088154257463348"><ele>357.66666666666663</ele><time>2026-04-11T15:38:13Z</time></trkpt><trkpt lat="46.00567313794744" lon="9.087965206817099"><ele>361.0</ele><time>2026-04-11T15:38:14Z</time></trkpt><trkpt lat="46.00560167688443" lon="9.087763817705403"><ele>361.0</ele><time>2026-04-11T15:38:15Z</time></trkpt><trkpt lat="46.00550396010796" lon="9.087595865575706"><ele>361.0</ele><time>2026-04-11T15:38:16Z</time></trkpt><trkpt lat="46.00540939694038" lon="9.08743037511352"><ele>361.0</ele><time>2026-04-11T15:38:17Z</time></trkpt><trkpt lat="46.00530015093394" lon="9.08730096637638"><ele>361.0</ele><time>2026-04-11T15:38:18Z</time></trkpt><trkpt lat="46.00517235389984" lon="9.087212781744002"><ele>362.66666666666663</ele><time>2026-04-11T15:38:19Z</time></trkpt><trkpt lat="46.00502748694402" lon="9.087154873103833"><ele>364.3333333333333</ele><time>2026-04-11T15:38:20Z</time></trkpt><trkpt lat="46.004887405842716" lon="9.087074535246483"><ele>366.0</ele><time>2026-04-11T15:38:21Z</time></trkpt><trkpt lat="46.004758872379426" lon="9.086954661397847"><ele>366.0</ele><time>2026-04-11T15:38:21.999Z</time></trkpt><trkpt lat="46.00463158954121" lon="9.086823372233527"><ele>366.0</ele><time>2026-04-11T15:38:22.999Z</time></trkpt><trkpt lat="46.00448989338544" lon="9.086724707927829"><ele>366.0</ele><time>2026-04-11T15:38:23.999Z</time></trkpt><trkpt lat="46.004339794004416" lon="9.086654145225772"><ele>366.0</ele><time>2026-04-11T15:38:24.999Z</time></trkpt><trkpt lat="46.00418059018155" lon="9.086615619403103"><ele>366.0</ele><time>2026-04-11T15:38:25.999Z</time></trkpt><trkpt lat="46.00402242513335" lon="9.086578845217335"><ele>366.0</ele><time>2026-04-11T15:38:26.999Z</time></trkpt><trkpt lat="46.00388388221467" lon="9.086536166050612"><ele>365.75</ele><time>2026-04-11T15:38:27.999Z</time></trkpt><trkpt lat="46.00376585825394" lon="9.086517880776944"><ele>365.5</ele><time>2026-04-11T15:38:28.999Z</time></trkpt><trkpt lat="46.003664513192696" lon="9.08655630768256"><ele>365.25</ele><time>2026-04-11T15:38:29.999Z</time></trkpt><trkpt lat="46.00357179944711" lon="9.086666653610955"><ele>365.0</ele><time>2026-04-11T15:38:30.999Z</time></trkpt><trkpt lat="46.00349742353632" lon="9.086810318997584"><ele>366.4</ele><time>2026-04-11T15:38:31.999Z</time></trkpt><trkpt lat="46.003443684223306" lon="9.086981480456902"><ele>367.8</ele><time>2026-04-11T15:38:32.999Z</time></trkpt><trkpt lat="46.00336492219473" lon="9.087125996084788"><ele>369.20000000000005</ele><time>2026-04-11T15:38:33.999Z</time></trkpt><trkpt lat="46.00329418318846" lon="9.087220740880165"><ele>370.6</ele><time>2026-04-11T15:38:34.999Z</time></trkpt><trkpt lat="46.00322828279983" lon="9.087267444128369"><ele>372.0</ele><time>2026-04-11T15:38:35.999Z</time></trkpt><trkpt lat="46.00316082715273" lon="9.087275653775821"><ele>374.8</ele><time>2026-04-11T15:38:36.999Z</time></trkpt><trkpt lat="46.003040693515906" lon="9.08724179305289"><ele>377.6</ele><time>2026-04-11T15:38:38.999Z</time></trkpt><trkpt lat="46.00299475647477" lon="9.087126839812463"><ele>380.40000000000003</ele><time>2026-04-11T15:38:39.999Z</time></trkpt><trkpt lat="46.00292014733749" lon="9.0870405109625"><ele>383.20000000000005</ele><time>2026-04-11T15:38:40.999Z</time></trkpt><trkpt lat="46.00284949931356" lon="9.086955365486851"><ele>386.0</ele><time>2026-04-11T15:38:41.999Z</time></trkpt><trkpt lat="46.00280177810625" lon="9.08687121244479"><ele>386.0</ele><time>2026-04-11T15:38:42.999Z</time></trkpt><trkpt lat="46.0027790309171" lon="9.086779778975014"><ele>386.0</ele><time>2026-04-11T15:38:43.999Z</time></trkpt><trkpt lat="46.00281682926522" lon="9.086666807297433"><ele>386.0</ele><time>2026-04-11T15:38:44.999Z</time></trkpt><trkpt lat="46.00289557494601" lon="9.086587013382951"><ele>386.0</ele><time>2026-04-11T15:38:45.999Z</time></trkpt><trkpt lat="46.00299413907368" lon="9.086533705913265"><ele>386.0</ele><time>2026-04-11T15:38:46.999Z</time></trkpt><trkpt lat="46.00308174241801" lon="9.086460604596493"><ele>386.8333333333333</ele><time>2026-04-11T15:38:47.999Z</time></trkpt><trkpt lat="46.003123747416836" lon="9.086355593758995"><ele>387.66666666666663</ele><time>2026-04-11T15:38:48.999Z</time></trkpt><trkpt lat="46.0031232590068" lon="9.086237345583571"><ele>388.5</ele><time>2026-04-11T15:38:49.999Z</time></trkpt><trkpt lat="46.003109415897946" lon="9.086107389689094"><ele>389.33333333333337</ele><time>2026-04-11T15:38:50.999Z</time></trkpt><trkpt lat="46.00307458918804" lon="9.085984875324378"><ele>390.1666666666667</ele><time>2026-04-11T15:38:51.999Z</time></trkpt><trkpt lat="46.00302344448923" lon="9.085879542684344"><ele>391.0</ele><time>2026-04-11T15:38:52.999Z</time></trkpt><trkpt lat="46.002979997102784" lon="9.085790567866695"><ele>389.1666666666667</ele><time>2026-04-11T15:38:53.999Z</time></trkpt><trkpt lat="46.00294998987071" lon="9.085701766430699"><ele>387.33333333333337</ele><time>2026-04-11T15:38:54.999Z</time></trkpt><trkpt lat="46.00292550502168" lon="9.085606229636692"><ele>385.5</ele><time>2026-04-11T15:38:55.999Z</time></trkpt><trkpt lat="46.00290604756195" lon="9.085506382469363"><ele>383.6666666666667</ele><time>2026-04-11T15:38:56.999Z</time></trkpt><trkpt lat="46.00288102324118" lon="9.085421067590461"><ele>381.83333333333337</ele><time>2026-04-11T15:38:57.999Z</time></trkpt><trkpt lat="46.002786110138395" lon="9.085284348254524"><ele>380.0</ele><time>2026-04-11T15:38:59.999Z</time></trkpt><trkpt lat="46.00271630403289" lon="9.085235673107597"><ele>380.0</ele><time>2026-04-11T15:39:00.999Z</time></trkpt><trkpt lat="46.002644277619105" lon="9.08519669626042"><ele>380.0</ele><time>2026-04-11T15:39:01.999Z</time></trkpt><trkpt lat="46.002569106417255" lon="9.085158913917342"><ele>380.0</ele><time>2026-04-11T15:39:02.999Z</time></trkpt><trkpt lat="46.002489948901726" lon="9.085116306649372"><ele>380.0</ele><time>2026-04-11T15:39:03.999Z</time></trkpt><trkpt lat="46.00240504577175" lon="9.085075208214107"><ele>380.0</ele><time>2026-04-11T15:39:04.999Z</time></trkpt><trkpt lat="46.002323453377116" lon="9.08503310925962"><ele>380.0</ele><time>2026-04-11T15:39:05.999Z</time></trkpt><trkpt lat="46.00225117874842" lon="9.08498210753488"><ele>383.6666666666667</ele><time>2026-04-11T15:39:06.999Z</time></trkpt><trkpt lat="46.00218821394599" lon="9.084910678098456"><ele>387.33333333333337</ele><time>2026-04-11T15:39:07.999Z</time></trkpt><trkpt lat="46.002142941253474" lon="9.084825427766598"><ele>391.0</ele><time>2026-04-11T15:39:08.999Z</time></trkpt><trkpt lat="46.00210585329917" lon="9.0847204217806"><ele>394.6666666666667</ele><time>2026-04-11T15:39:09.999Z</time></trkpt><trkpt lat="46.00207330245779" lon="9.084596249033826"><ele>398.3333333333333</ele><time>2026-04-11T15:39:10.999Z</time></trkpt><trkpt lat="46.00204363214346" lon="9.084464950453553"><ele>402.0</ele><time>2026-04-11T15:39:11.999Z</time></trkpt><trkpt lat="46.0019971527997" lon="9.084349112534994"><ele>402.0</ele><time>2026-04-11T15:39:12.999Z</time></trkpt><trkpt lat="46.00194558085767" lon="9.08423287804468"><ele>402.0</ele><time>2026-04-11T15:39:13.999Z</time></trkpt><trkpt lat="46.00186427205847" lon="9.084122244294885"><ele>402.0</ele><time>2026-04-11T15:39:14.999Z</time></trkpt><trkpt lat="46.00177924543128" lon="9.084003900731656"><ele>402.0</ele><time>2026-04-11T15:39:16Z</time></trkpt><trkpt lat="46.00168740373538" lon="9.083880655927135"><ele>404.75</ele><time>2026-04-11T15:39:17Z</time></trkpt><trkpt lat="46.00159021435548" lon="9.083754956757813"><ele>407.5</ele><time>2026-04-11T15:39:18Z</time></trkpt><trkpt lat="46.00148574413834" lon="9.083621914020373"><ele>410.25</ele><time>2026-04-11T15:39:19Z</time></trkpt><trkpt lat="46.001379534907244" lon="9.083495104230439"><ele>413.0</ele><time>2026-04-11T15:39:20Z</time></trkpt><trkpt lat="46.00128385534626" lon="9.08338025031223"><ele>413.0</ele><time>2026-04-11T15:39:21Z</time></trkpt><trkpt lat="46.00119686049041" lon="9.083275017375694"><ele>413.0</ele><time>2026-04-11T15:39:22Z</time></trkpt><trkpt lat="46.00110764209532" lon="9.083162685378422"><ele>413.0</ele><time>2026-04-11T15:39:23Z</time></trkpt><trkpt lat="46.001009775399375" lon="9.083045203280658"><ele>413.0</ele><time>2026-04-11T15:39:24Z</time></trkpt><trkpt lat="46.0009008920393" lon="9.082933941545598"><ele>415.0</ele><time>2026-04-11T15:39:25Z</time></trkpt><trkpt lat="46.00077259285915" lon="9.082859240022422"><ele>417.0</ele><time>2026-04-11T15:39:26Z</time></trkpt><trkpt lat="46.00065456336167" lon="9.082754120283848"><ele>419.0</ele><time>2026-04-11T15:39:27Z</time></trkpt><trkpt lat="46.00053908526401" lon="9.082647108871013"><ele>421.0</ele><time>2026-04-11T15:39:28Z</time></trkpt><trkpt lat="46.000434059186375" lon="9.082550166188009"><ele>415.5</ele><time>2026-04-11T15:39:29Z</time></trkpt><trkpt lat="46.00033886813035" lon="9.08242997779094"><ele>410.0</ele><time>2026-04-11T15:39:30Z</time></trkpt><trkpt lat="46.00026520378726" lon="9.082287441184958"><ele>404.5</ele><time>2026-04-11T15:39:31Z</time></trkpt><trkpt lat="46.00018993933361" lon="9.082151632483388"><ele>399.0</ele><time>2026-04-11T15:39:32Z</time></trkpt><trkpt lat="46.00010441750216" lon="9.08204599428168"><ele>399.0</ele><time>2026-04-11T15:39:33Z</time></trkpt><trkpt lat="45.9999976126192" lon="9.081957393969994"><ele>399.0</ele><time>2026-04-11T15:39:34Z</time></trkpt><trkpt lat="45.99987901598287" lon="9.081908323356153"><ele>399.0</ele><time>2026-04-11T15:39:35Z</time></trkpt><trkpt lat="45.99976328739323" lon="9.081901125638366"><ele>399.0</ele><time>2026-04-11T15:39:36Z</time></trkpt><trkpt lat="45.99965136467833" lon="9.081925048417144"><ele>399.0</ele><time>2026-04-11T15:39:37Z</time></trkpt><trkpt lat="45.9995438472911" lon="9.081965009659498"><ele>399.0</ele><time>2026-04-11T15:39:38Z</time></trkpt><trkpt lat="45.999431065636934" lon="9.082001685743533"><ele>399.0</ele><time>2026-04-11T15:39:39Z</time></trkpt><trkpt lat="45.9993205831145" lon="9.082032259802933"><ele>399.0</ele><time>2026-04-11T15:39:40Z</time></trkpt><trkpt lat="45.999209619361935" lon="9.082007039775537"><ele>402.0</ele><time>2026-04-11T15:39:41Z</time></trkpt><trkpt lat="45.99910329985273" lon="9.081962945500454"><ele>405.0</ele><time>2026-04-11T15:39:42Z</time></trkpt><trkpt lat="45.99897176102637" lon="9.081923796205738"><ele>408.0</ele><time>2026-04-11T15:39:43Z</time></trkpt><trkpt lat="45.99880978772258" lon="9.081919581987986"><ele>411.0</ele><time>2026-04-11T15:39:44Z</time></trkpt><trkpt lat="45.998629788043544" lon="9.081925294981513"><ele>411.0</ele><time>2026-04-11T15:39:45Z</time></trkpt><trkpt lat="45.99845787881008" lon="9.081886584776345"><ele>411.0</ele><time>2026-04-11T15:39:46Z</time></trkpt><trkpt lat="45.99831297235782" lon="9.081835916809688"><ele>411.0</ele><time>2026-04-11T15:39:47Z</time></trkpt><trkpt lat="45.99818603867991" lon="9.081810506365015"><ele>412.20000000000005</ele><time>2026-04-11T15:39:48Z</time></trkpt><trkpt lat="45.998067312615234" lon="9.081810224864306"><ele>413.40000000000003</ele><time>2026-04-11T15:39:49Z</time></trkpt><trkpt lat="45.99799180458787" lon="9.081841998810628"><ele>414.6</ele><time>2026-04-11T15:39:50Z</time></trkpt><trkpt lat="45.997935494261945" lon="9.081937368990346"><ele>415.8</ele><time>2026-04-11T15:39:51Z</time></trkpt><trkpt lat="45.99780797682374" lon="9.082050037923723"><ele>417.0</ele><time>2026-04-11T15:39:52Z</time></trkpt><trkpt lat="45.99768384392478" lon="9.082106079467335"><ele>417.0</ele><time>2026-04-11T15:39:53Z</time></trkpt><trkpt lat="45.99755648872803" lon="9.082080781165862"><ele>417.0</ele><time>2026-04-11T15:39:54Z</time></trkpt><trkpt lat="45.99739253515186" lon="9.0820635909723"><ele>417.0</ele><time>2026-04-11T15:39:55Z</time></trkpt><trkpt lat="45.99722268135848" lon="9.082043224293102"><ele>418.0</ele><time>2026-04-11T15:39:56Z</time></trkpt><trkpt lat="45.99706196492814" lon="9.08202658852981"><ele>419.0</ele><time>2026-04-11T15:39:57Z</time></trkpt><trkpt lat="45.996938074293126" lon="9.082013018463988"><ele>420.0</ele><time>2026-04-11T15:39:58Z</time></trkpt><trkpt lat="45.996842732333306" lon="9.082005920648971"><ele>421.0</ele><time>2026-04-11T15:39:59Z</time></trkpt><trkpt lat="45.99677344161167" lon="9.081984358217383"><ele>421.0</ele><time>2026-04-11T15:40:00Z</time></trkpt><trkpt lat="45.996688653408754" lon="9.082057633459907"><ele>421.0</ele><time>2026-04-11T15:40:02Z</time></trkpt><trkpt lat="45.99670420592355" lon="9.082175277197564"><ele>421.0</ele><time>2026-04-11T15:40:03Z</time></trkpt><trkpt lat="45.996781172959466" lon="9.082225631190607"><ele>421.0</ele><time>2026-04-11T15:40:04Z</time></trkpt><trkpt lat="45.99686669032236" lon="9.082211422323688"><ele>421.0</ele><time>2026-04-11T15:40:05Z</time></trkpt><trkpt lat="45.99696896275419" lon="9.08217010986776"><ele>421.0</ele><time>2026-04-11T15:40:06Z</time></trkpt><trkpt lat="45.99708667240817" lon="9.082148016984185"><ele>421.0</ele><time>2026-04-11T15:40:07Z</time></trkpt><trkpt lat="45.997203422580675" lon="9.082166242772413"><ele>421.0</ele><time>2026-04-11T15:40:08Z</time></trkpt><trkpt lat="45.99730319666518" lon="9.082215906386635"><ele>421.0</ele><time>2026-04-11T15:40:09Z</time></trkpt><trkpt lat="45.99738162620611" lon="9.082269313002184"><ele>421.0</ele><time>2026-04-11T15:40:10Z</time></trkpt><trkpt lat="45.99744390500581" lon="9.082357156930788"><ele>425.25</ele><time>2026-04-11T15:40:11Z</time></trkpt><trkpt lat="45.9974847742555" lon="9.082498066373528"><ele>429.5</ele><time>2026-04-11T15:40:12Z</time></trkpt><trkpt lat="45.99747701538762" lon="9.082656957961277"><ele>433.75</ele><time>2026-04-11T15:40:13Z</time></trkpt><trkpt lat="45.99745299211168" lon="9.082823012768547"><ele>438.0</ele><time>2026-04-11T15:40:14Z</time></trkpt><trkpt lat="45.99743720905613" lon="9.082992426253766"><ele>438.0</ele><time>2026-04-11T15:40:15Z</time></trkpt><trkpt lat="45.99742658733203" lon="9.083127128545215"><ele>438.0</ele><time>2026-04-11T15:40:16Z</time></trkpt><trkpt lat="45.99739624314044" lon="9.083222293190211"><ele>438.0</ele><time>2026-04-11T15:40:17Z</time></trkpt><trkpt lat="45.99733403508097" lon="9.083274795807652"><ele>438.0</ele><time>2026-04-11T15:40:18Z</time></trkpt><trkpt lat="45.997238008322434" lon="9.083255932119654"><ele>438.0</ele><time>2026-04-11T15:40:19Z</time></trkpt><trkpt lat="45.997156469428404" lon="9.083144577555522"><ele>438.0</ele><time>2026-04-11T15:40:20Z</time></trkpt><trkpt lat="45.99704543395763" lon="9.083055854163637"><ele>438.0</ele><time>2026-04-11T15:40:21Z</time></trkpt><trkpt lat="45.99691510674166" lon="9.082961712837106"><ele>438.0</ele><time>2026-04-11T15:40:22Z</time></trkpt><trkpt lat="45.9968048968841" lon="9.082808604177943"><ele>438.0</ele><time>2026-04-11T15:40:23Z</time></trkpt><trkpt lat="45.99667771394438" lon="9.082666122656239"><ele>441.0</ele><time>2026-04-11T15:40:24Z</time></trkpt><trkpt lat="45.996525390504615" lon="9.082593236836528"><ele>444.0</ele><time>2026-04-11T15:40:25Z</time></trkpt><trkpt lat="45.996372451316425" lon="9.082509313688053"><ele>447.0</ele><time>2026-04-11T15:40:26Z</time></trkpt><trkpt lat="45.99621286387901" lon="9.082433443527629"><ele>448.33333333333337</ele><time>2026-04-11T15:40:27Z</time></trkpt><trkpt lat="45.99605621647105" lon="9.08232822512454"><ele>449.6666666666667</ele><time>2026-04-11T15:40:28Z</time></trkpt><trkpt lat="45.99588771273181" lon="9.082258564967338"><ele>451.0</ele><time>2026-04-11T15:40:29Z</time></trkpt><trkpt lat="45.99572954244963" lon="9.08216813992327"><ele>451.0</ele><time>2026-04-11T15:40:30Z</time></trkpt><trkpt lat="45.99558100439782" lon="9.082049638144966"><ele>451.0</ele><time>2026-04-11T15:40:31Z</time></trkpt><trkpt lat="45.99542788520668" lon="9.081934599568049"><ele>451.0</ele><time>2026-04-11T15:40:32Z</time></trkpt><trkpt lat="45.995273477250045" lon="9.081813476348584"><ele>451.0</ele><time>2026-04-11T15:40:33Z</time></trkpt><trkpt lat="45.99511882845861" lon="9.081689398326292"><ele>451.0</ele><time>2026-04-11T15:40:34Z</time></trkpt><trkpt lat="45.994962301218436" lon="9.081564108783212"><ele>451.0</ele><time>2026-04-11T15:40:35Z</time></trkpt><trkpt lat="45.99480620833322" lon="9.081439352007104"><ele>453.33333333333337</ele><time>2026-04-11T15:40:36Z</time></trkpt><trkpt lat="45.99464727260514" lon="9.081312322926756"><ele>455.66666666666663</ele><time>2026-04-11T15:40:37Z</time></trkpt><trkpt lat="45.994488059925025" lon="9.08118944318988"><ele>458.0</ele><time>2026-04-11T15:40:38Z</time></trkpt><trkpt lat="45.99434594714812" lon="9.081083181419197"><ele>458.0</ele><time>2026-04-11T15:40:39Z</time></trkpt><trkpt lat="45.99422896911405" lon="9.080959468717808"><ele>458.0</ele><time>2026-04-11T15:40:40Z</time></trkpt><trkpt lat="45.99413046988575" lon="9.080790636626498"><ele>458.0</ele><time>2026-04-11T15:40:41Z</time></trkpt><trkpt lat="45.994017276498724" lon="9.080598000047633"><ele>463.0</ele><time>2026-04-11T15:40:42Z</time></trkpt><trkpt lat="45.993921309261374" lon="9.080390860281268"><ele>468.0</ele><time>2026-04-11T15:40:43Z</time></trkpt><trkpt lat="45.993809082363896" lon="9.080196780976415"><ele>473.0</ele><time>2026-04-11T15:40:44Z</time></trkpt><trkpt lat="45.99369226384533" lon="9.080000706981252"><ele>466.3333333333333</ele><time>2026-04-11T15:40:44.999Z</time></trkpt><trkpt lat="45.99356915049633" lon="9.079808667215959"><ele>459.66666666666663</ele><time>2026-04-11T15:40:45.999Z</time></trkpt><trkpt lat="45.99345116049222" lon="9.079605797628403"><ele>453.0</ele><time>2026-04-11T15:40:46.999Z</time></trkpt><trkpt lat="45.993324050135314" lon="9.079413723462222"><ele>461.33333333333337</ele><time>2026-04-11T15:40:47.999Z</time></trkpt><trkpt lat="45.99319841677803" lon="9.079227869536167"><ele>469.6666666666667</ele><time>2026-04-11T15:40:48.999Z</time></trkpt><trkpt lat="45.99307671261216" lon="9.079034912501507"><ele>478.0</ele><time>2026-04-11T15:40:49.999Z</time></trkpt><trkpt lat="45.99297560187874" lon="9.0788308832721"><ele>478.0</ele><time>2026-04-11T15:40:50.999Z</time></trkpt><trkpt lat="45.99288651691427" lon="9.07860985991088"><ele>478.0</ele><time>2026-04-11T15:40:51.999Z</time></trkpt><trkpt lat="45.99280609601434" lon="9.078377433557822"><ele>478.0</ele><time>2026-04-11T15:40:52.999Z</time></trkpt><trkpt lat="45.992717980460604" lon="9.078177116797198"><ele>476.0</ele><time>2026-04-11T15:40:53.999Z</time></trkpt><trkpt lat="45.99264728690011" lon="9.078018991284575"><ele>474.0</ele><time>2026-04-11T15:40:54.999Z</time></trkpt><trkpt lat="45.99255076532195" lon="9.077907748365627"><ele>472.0</ele><time>2026-04-11T15:40:55.999Z</time></trkpt><trkpt lat="45.99242099474391" lon="9.07782676623769"><ele>470.0</ele><time>2026-04-11T15:40:56.999Z</time></trkpt><trkpt lat="45.99230305615062" lon="9.07770332828121"><ele>481.3333333333333</ele><time>2026-04-11T15:40:57.999Z</time></trkpt><trkpt lat="45.99220493306538" lon="9.077549875769169"><ele>492.66666666666663</ele><time>2026-04-11T15:40:58.999Z</time></trkpt><trkpt lat="45.99212574324799" lon="9.077363631260727"><ele>504.0</ele><time>2026-04-11T15:40:59.999Z</time></trkpt><trkpt lat="45.992081330011985" lon="9.077143600015642"><ele>504.0</ele><time>2026-04-11T15:41:00.999Z</time></trkpt><trkpt lat="45.99204611801863" lon="9.07690547976094"><ele>504.0</ele><time>2026-04-11T15:41:01.999Z</time></trkpt><trkpt lat="45.99200105409218" lon="9.076680027327868"><ele>504.0</ele><time>2026-04-11T15:41:02.999Z</time></trkpt><trkpt lat="45.991976424834455" lon="9.07648482564494"><ele>505.75</ele><time>2026-04-11T15:41:03.999Z</time></trkpt><trkpt lat="45.99194446104141" lon="9.076326259761851"><ele>507.5</ele><time>2026-04-11T15:41:04.999Z</time></trkpt><trkpt lat="45.9918854293823" lon="9.076200477006035"><ele>509.25</ele><time>2026-04-11T15:41:05.999Z</time></trkpt><trkpt lat="45.991788164003715" lon="9.076121075542826"><ele>511.0</ele><time>2026-04-11T15:41:06.999Z</time></trkpt><trkpt lat="45.99167007400397" lon="9.076103812074562"><ele>511.0</ele><time>2026-04-11T15:41:07.999Z</time></trkpt><trkpt lat="45.99155242317057" lon="9.076152885583232"><ele>511.0</ele><time>2026-04-11T15:41:08.999Z</time></trkpt><trkpt lat="45.99143416317694" lon="9.07624691171229"><ele>511.0</ele><time>2026-04-11T15:41:09.999Z</time></trkpt><trkpt lat="45.99128838201473" lon="9.076298306431953"><ele>511.0</ele><time>2026-04-11T15:41:10.999Z</time></trkpt><trkpt lat="45.99113928898785" lon="9.076373550859342"><ele>511.0</ele><time>2026-04-11T15:41:11.999Z</time></trkpt><trkpt lat="45.99098661141193" lon="9.076450604542023"><ele>511.0</ele><time>2026-04-11T15:41:12.999Z</time></trkpt><trkpt lat="45.9908332858017" lon="9.076540245943654"><ele>511.0</ele><time>2026-04-11T15:41:13.999Z</time></trkpt><trkpt lat="45.99067499834803" lon="9.076595350754538"><ele>518.0</ele><time>2026-04-11T15:41:14.999Z</time></trkpt><trkpt lat="45.99051557435357" lon="9.076631110205875"><ele>525.0</ele><time>2026-04-11T15:41:15.999Z</time></trkpt><trkpt lat="45.99034571194622" lon="9.076671697187093"><ele>532.0</ele><time>2026-04-11T15:41:16.999Z</time></trkpt><trkpt lat="45.99016958657369" lon="9.076671831011257"><ele>535.3333333333334</ele><time>2026-04-11T15:41:17.999Z</time></trkpt><trkpt lat="45.989992092506775" lon="9.076689699275141"><ele>538.6666666666666</ele><time>2026-04-11T15:41:18.999Z</time></trkpt><trkpt lat="45.989820812131235" lon="9.076710920784377"><ele>542.0</ele><time>2026-04-11T15:41:19.999Z</time></trkpt><trkpt lat="45.98967396928072" lon="9.076687376744385"><ele>542.0</ele><time>2026-04-11T15:41:20.999Z</time></trkpt><trkpt lat="45.98953338040088" lon="9.076625110425823"><ele>542.0</ele><time>2026-04-11T15:41:22Z</time></trkpt><trkpt lat="45.989387177085284" lon="9.076560786346423"><ele>542.0</ele><time>2026-04-11T15:41:23Z</time></trkpt><trkpt lat="45.98925602738944" lon="9.076513004655723"><ele>542.0</ele><time>2026-04-11T15:41:24Z</time></trkpt><trkpt lat="45.98916076338498" lon="9.076386982657036"><ele>544.4</ele><time>2026-04-11T15:41:25Z</time></trkpt><trkpt lat="45.989075012092165" lon="9.076248106963785"><ele>546.8000000000001</ele><time>2026-04-11T15:41:26Z</time></trkpt><trkpt lat="45.98902453218397" lon="9.076092707099091"><ele>549.2</ele><time>2026-04-11T15:41:27Z</time></trkpt><trkpt lat="45.98896958316938" lon="9.075969874445875"><ele>551.6</ele><time>2026-04-11T15:41:28Z</time></trkpt><trkpt lat="45.98891697076295" lon="9.075885795060618"><ele>554.0</ele><time>2026-04-11T15:41:29Z</time></trkpt><trkpt lat="45.98882710941499" lon="9.07587736201449"><ele>554.0</ele><time>2026-04-11T15:41:30Z</time></trkpt><trkpt lat="45.988735815715195" lon="9.075955165223021"><ele>554.0</ele><time>2026-04-11T15:41:31Z</time></trkpt><trkpt lat="45.988694386209275" lon="9.07609412454513"><ele>554.0</ele><time>2026-04-11T15:41:32Z</time></trkpt><trkpt lat="45.98870917028495" lon="9.076262051908259"><ele>554.0</ele><time>2026-04-11T15:41:33Z</time></trkpt><trkpt lat="45.988737873628686" lon="9.076443481690069"><ele>555.0</ele><time>2026-04-11T15:41:34Z</time></trkpt><trkpt lat="45.98873533879307" lon="9.076635086819948"><ele>556.0</ele><time>2026-04-11T15:41:35Z</time></trkpt><trkpt lat="45.988739210786896" lon="9.076837099991725"><ele>557.0</ele><time>2026-04-11T15:41:36Z</time></trkpt><trkpt lat="45.988720528225564" lon="9.077047018530314"><ele>558.0</ele><time>2026-04-11T15:41:37Z</time></trkpt><trkpt lat="45.9887278108449" lon="9.077269027310901"><ele>559.0</ele><time>2026-04-11T15:41:38Z</time></trkpt><trkpt lat="45.98872241485208" lon="9.077483263701449"><ele>560.0</ele><time>2026-04-11T15:41:39Z</time></trkpt><trkpt lat="45.98872609474086" lon="9.077705920242128"><ele>561.0</ele><time>2026-04-11T15:41:40Z</time></trkpt><trkpt lat="45.98874968931048" lon="9.077910233900027"><ele>562.0</ele><time>2026-04-11T15:41:41Z</time></trkpt><trkpt lat="45.98879150883217" lon="9.07806903132728"><ele>562.0</ele><time>2026-04-11T15:41:42Z</time></trkpt><trkpt lat="45.98880460922881" lon="9.07820000512604"><ele>562.0</ele><time>2026-04-11T15:41:43Z</time></trkpt><trkpt lat="45.98881393710775" lon="9.078312007625234"><ele>562.0</ele><time>2026-04-11T15:41:44Z</time></trkpt><trkpt lat="45.98876054370864" lon="9.078396112498366"><ele>562.0</ele><time>2026-04-11T15:41:45Z</time></trkpt><trkpt lat="45.98867357716649" lon="9.078433447957712"><ele>562.0</ele><time>2026-04-11T15:41:46Z</time></trkpt><trkpt lat="45.98857894693902" lon="9.078372696575308"><ele>562.0</ele><time>2026-04-11T15:41:47Z</time></trkpt><trkpt lat="45.98852784790464" lon="9.078249430450446"><ele>562.0</ele><time>2026-04-11T15:41:48Z</time></trkpt><trkpt lat="45.98854987314847" lon="9.078087680822934"><ele>562.0</ele><time>2026-04-11T15:41:49Z</time></trkpt><trkpt lat="45.98853565639958" lon="9.077913857519514"><ele>562.0</ele><time>2026-04-11T15:41:50Z</time></trkpt><trkpt lat="45.98850715289775" lon="9.07772761101893"><ele>562.0</ele><time>2026-04-11T15:41:51Z</time></trkpt><trkpt lat="45.98844893440847" lon="9.07753648718314"><ele>560.6666666666667</ele><time>2026-04-11T15:41:52Z</time></trkpt><trkpt lat="45.9883878435788" lon="9.077333851986149"><ele>559.3333333333334</ele><time>2026-04-11T15:41:53Z</time></trkpt><trkpt lat="45.98833281873793" lon="9.077127180042142"><ele>558.0</ele><time>2026-04-11T15:41:54Z</time></trkpt><trkpt lat="45.988274953645224" lon="9.076909767947852"><ele>568.0</ele><time>2026-04-11T15:41:55Z</time></trkpt><trkpt lat="45.988213060487276" lon="9.076687235368771"><ele>578.0</ele><time>2026-04-11T15:41:56Z</time></trkpt><trkpt lat="45.988151062834554" lon="9.07646262337852"><ele>588.0</ele><time>2026-04-11T15:41:57Z</time></trkpt><trkpt lat="45.988093034458196" lon="9.076240433168579"><ele>588.0</ele><time>2026-04-11T15:41:58Z</time></trkpt><trkpt lat="45.98803710007856" lon="9.076028737630546"><ele>588.0</ele><time>2026-04-11T15:41:59Z</time></trkpt><trkpt lat="45.9880102558814" lon="9.07580485546057"><ele>588.0</ele><time>2026-04-11T15:42:00Z</time></trkpt><trkpt lat="45.98797383140743" lon="9.075583099451583"><ele>587.3333333333334</ele><time>2026-04-11T15:42:01Z</time></trkpt><trkpt lat="45.98796454401129" lon="9.075360227950425"><ele>586.6666666666667</ele><time>2026-04-11T15:42:02Z</time></trkpt><trkpt lat="45.98795440567775" lon="9.0751346934285"><ele>586.0</ele><time>2026-04-11T15:42:03Z</time></trkpt><trkpt lat="45.98799335739917" lon="9.074911242985438"><ele>587.3333333333334</ele><time>2026-04-11T15:42:04Z</time></trkpt><trkpt lat="45.98801356207299" lon="9.074683290962291"><ele>588.6666666666666</ele><time>2026-04-11T15:42:05Z</time></trkpt><trkpt lat="45.98805389543423" lon="9.074461588892877"><ele>590.0</ele><time>2026-04-11T15:42:06Z</time></trkpt><trkpt lat="45.98805409271158" lon="9.074256023948022"><ele>588.3333333333333</ele><time>2026-04-11T15:42:07Z</time></trkpt><trkpt lat="45.98802326600022" lon="9.074034131152722"><ele>586.6666666666666</ele><time>2026-04-11T15:42:08Z</time></trkpt><trkpt lat="45.98798282506024" lon="9.073809784119641"><ele>585.0</ele><time>2026-04-11T15:42:09Z</time></trkpt><trkpt lat="45.98794755474712" lon="9.073612690553164"><ele>585.0</ele><time>2026-04-11T15:42:10Z</time></trkpt><trkpt lat="45.98790630589917" lon="9.073442605411751"><ele>585.0</ele><time>2026-04-11T15:42:11Z</time></trkpt><trkpt lat="45.98789085441077" lon="9.07330436400057"><ele>585.0</ele><time>2026-04-11T15:42:12Z</time></trkpt><trkpt lat="45.98786188981616" lon="9.073203221069592"><ele>585.0</ele><time>2026-04-11T15:42:13Z</time></trkpt><trkpt lat="45.987801778003856" lon="9.073151380340182"><ele>585.0</ele><time>2026-04-11T15:42:14Z</time></trkpt><trkpt lat="45.98770446514079" lon="9.073256486058995"><ele>585.0</ele><time>2026-04-11T15:42:16Z</time></trkpt><trkpt lat="45.98770891503423" lon="9.073396615992019"><ele>585.0</ele><time>2026-04-11T15:42:17Z</time></trkpt><trkpt lat="45.987741485114" lon="9.073552334669682"><ele>585.0</ele><time>2026-04-11T15:42:18Z</time></trkpt><trkpt lat="45.98776203175456" lon="9.073730929942522"><ele>585.0</ele><time>2026-04-11T15:42:19Z</time></trkpt><trkpt lat="45.98776497529069" lon="9.073919056134944"><ele>586.25</ele><time>2026-04-11T15:42:20Z</time></trkpt><trkpt lat="45.987741401317116" lon="9.074124214381628"><ele>587.5</ele><time>2026-04-11T15:42:21Z</time></trkpt><trkpt lat="45.987705806919635" lon="9.074312530414408"><ele>588.75</ele><time>2026-04-11T15:42:22Z</time></trkpt><trkpt lat="45.987675100771064" lon="9.074538017370184"><ele>590.0</ele><time>2026-04-11T15:42:23Z</time></trkpt><trkpt lat="45.9876361694684" lon="9.074733656273242"><ele>590.0</ele><time>2026-04-11T15:42:24Z</time></trkpt><trkpt lat="45.98762371595151" lon="9.074893416512694"><ele>590.0</ele><time>2026-04-11T15:42:25Z</time></trkpt><trkpt lat="45.98763597591825" lon="9.07502832935057"><ele>590.0</ele><time>2026-04-11T15:42:26Z</time></trkpt><trkpt lat="45.98764391617121" lon="9.075129867555694"><ele>590.0</ele><time>2026-04-11T15:42:27Z</time></trkpt><trkpt lat="45.98756580392598" lon="9.07518870052779"><ele>590.0</ele><time>2026-04-11T15:42:29Z</time></trkpt><trkpt lat="45.987508635405575" lon="9.075116923691663"><ele>590.0</ele><time>2026-04-11T15:42:30Z</time></trkpt><trkpt lat="45.987499957929145" lon="9.075001822453215"><ele>590.0</ele><time>2026-04-11T15:42:31Z</time></trkpt><trkpt lat="45.98754519466033" lon="9.0748681153316"><ele>590.0</ele><time>2026-04-11T15:42:32Z</time></trkpt><trkpt lat="45.98755033280463" lon="9.074708882820754"><ele>590.0</ele><time>2026-04-11T15:42:33Z</time></trkpt><trkpt lat="45.98754085797148" lon="9.074519126611428"><ele>590.0</ele><time>2026-04-11T15:42:34Z</time></trkpt><trkpt lat="45.98748279652359" lon="9.074343414856704"><ele>600.6666666666666</ele><time>2026-04-11T15:42:35Z</time></trkpt><trkpt lat="45.98741204204731" lon="9.074154738738425"><ele>611.3333333333334</ele><time>2026-04-11T15:42:36Z</time></trkpt><trkpt lat="45.98734777205034" lon="9.073944573755767"><ele>622.0</ele><time>2026-04-11T15:42:37Z</time></trkpt><trkpt lat="45.98727875793383" lon="9.073722578832015"><ele>622.0</ele><time>2026-04-11T15:42:38Z</time></trkpt><trkpt lat="45.987210928891756" lon="9.073501793540037"><ele>622.0</ele><time>2026-04-11T15:42:39Z</time></trkpt><trkpt lat="45.98713573349771" lon="9.073277307020746"><ele>622.0</ele><time>2026-04-11T15:42:40Z</time></trkpt><trkpt lat="45.987058482547674" lon="9.073071654896003"><ele>615.3333333333334</ele><time>2026-04-11T15:42:41Z</time></trkpt><trkpt lat="45.986960724568114" lon="9.072903400197712"><ele>608.6666666666666</ele><time>2026-04-11T15:42:42Z</time></trkpt><trkpt lat="45.98683862408152" lon="9.07276345564686"><ele>602.0</ele><time>2026-04-11T15:42:43Z</time></trkpt><trkpt lat="45.98670515673254" lon="9.072642979541115"><ele>609.25</ele><time>2026-04-11T15:42:44Z</time></trkpt><trkpt lat="45.98659477281962" lon="9.07249553579272"><ele>616.5</ele><time>2026-04-11T15:42:45Z</time></trkpt><trkpt lat="45.98650583969849" lon="9.072359862808279"><ele>623.75</ele><time>2026-04-11T15:42:46Z</time></trkpt><trkpt lat="45.98645145108769" lon="9.072196686018152"><ele>631.0</ele><time>2026-04-11T15:42:47Z</time></trkpt><trkpt lat="45.986424491198164" lon="9.071997613660534"><ele>631.0</ele><time>2026-04-11T15:42:48Z</time></trkpt><trkpt lat="45.98637325032165" lon="9.071835359384817"><ele>631.0</ele><time>2026-04-11T15:42:49Z</time></trkpt><trkpt lat="45.98630789893044" lon="9.071720042683838"><ele>631.0</ele><time>2026-04-11T15:42:50Z</time></trkpt><trkpt lat="45.98620475444204" lon="9.071657509750763"><ele>631.0</ele><time>2026-04-11T15:42:51Z</time></trkpt><trkpt lat="45.986071134967865" lon="9.071682716766048"><ele>631.0</ele><time>2026-04-11T15:42:52Z</time></trkpt><trkpt lat="45.98594762414791" lon="9.07178539874337"><ele>631.0</ele><time>2026-04-11T15:42:53Z</time></trkpt><trkpt lat="45.98581249884952" lon="9.071836508117864"><ele>631.0</ele><time>2026-04-11T15:42:54Z</time></trkpt><trkpt lat="45.98567872786651" lon="9.071902821696717"><ele>631.0</ele><time>2026-04-11T15:42:55Z</time></trkpt><trkpt lat="45.98554378953074" lon="9.071989434264058"><ele>635.0</ele><time>2026-04-11T15:42:56Z</time></trkpt><trkpt lat="45.98539975375912" lon="9.072058691037611"><ele>639.0</ele><time>2026-04-11T15:42:57Z</time></trkpt><trkpt lat="45.98524895828049" lon="9.072129705605242"><ele>643.0</ele><time>2026-04-11T15:42:58Z</time></trkpt><trkpt lat="45.98508982510652" lon="9.07215042735064"><ele>644.0</ele><time>2026-04-11T15:42:59Z</time></trkpt><trkpt lat="45.98493221922793" lon="9.072180094768385"><ele>645.0</ele><time>2026-04-11T15:43:00Z</time></trkpt><trkpt lat="45.98477347114718" lon="9.072225619061571"><ele>646.0</ele><time>2026-04-11T15:43:01Z</time></trkpt><trkpt lat="45.98462277842575" lon="9.072252057092106"><ele>646.0</ele><time>2026-04-11T15:43:02Z</time></trkpt><trkpt lat="45.98448977011551" lon="9.072286125303211"><ele>646.0</ele><time>2026-04-11T15:43:03Z</time></trkpt><trkpt lat="45.98438036489196" lon="9.072352539681445"><ele>646.0</ele><time>2026-04-11T15:43:03.999Z</time></trkpt><trkpt lat="45.984281020820845" lon="9.072458070275356"><ele>646.0</ele><time>2026-04-11T15:43:04.999Z</time></trkpt><trkpt lat="45.9842104882045" lon="9.072611315158458"><ele>651.0</ele><time>2026-04-11T15:43:05.999Z</time></trkpt><trkpt lat="45.98417339012505" lon="9.07279559310476"><ele>656.0</ele><time>2026-04-11T15:43:06.999Z</time></trkpt><trkpt lat="45.98415576015936" lon="9.072984835512901"><ele>661.0</ele><time>2026-04-11T15:43:07.999Z</time></trkpt><trkpt lat="45.98414053085122" lon="9.073154026667211"><ele>666.0</ele><time>2026-04-11T15:43:08.999Z</time></trkpt><trkpt lat="45.98411775190692" lon="9.073301809513405"><ele>667.4</ele><time>2026-04-11T15:43:09.999Z</time></trkpt><trkpt lat="45.984089243698335" lon="9.073444043671309"><ele>668.8</ele><time>2026-04-11T15:43:10.999Z</time></trkpt><trkpt lat="45.98405849651104" lon="9.073589139220061"><ele>670.1999999999999</ele><time>2026-04-11T15:43:11.999Z</time></trkpt><trkpt lat="45.98402664077366" lon="9.073729816339608"><ele>671.5999999999999</ele><time>2026-04-11T15:43:12.999Z</time></trkpt><trkpt lat="45.98399700634302" lon="9.073860218657853"><ele>673.0</ele><time>2026-04-11T15:43:13.999Z</time></trkpt><trkpt lat="45.983950897148894" lon="9.073966498779964"><ele>673.0</ele><time>2026-04-11T15:43:14.999Z</time></trkpt><trkpt lat="45.983913354909056" lon="9.0740713558065"><ele>673.0</ele><time>2026-04-11T15:43:15.999Z</time></trkpt><trkpt lat="45.98388300383655" lon="9.074171354447234"><ele>673.0</ele><time>2026-04-11T15:43:16.999Z</time></trkpt><trkpt lat="45.983845113256606" lon="9.074247150980476"><ele>673.0</ele><time>2026-04-11T15:43:17.999Z</time></trkpt><trkpt lat="45.98377718890894" lon="9.074347657541047"><ele>673.0</ele><time>2026-04-11T15:43:19.999Z</time></trkpt><trkpt lat="45.9836887227388" lon="9.074326656410275"><ele>673.0</ele><time>2026-04-11T15:43:21.999Z</time></trkpt><trkpt lat="45.98357472633299" lon="9.074223429570255"><ele>673.0</ele><time>2026-04-11T15:43:23.999Z</time></trkpt><trkpt lat="45.98349905740894" lon="9.074144915961293"><ele>673.0</ele><time>2026-04-11T15:43:24.999Z</time></trkpt><trkpt lat="45.983407812607844" lon="9.074071587277505"><ele>673.0</ele><time>2026-04-11T15:43:25.999Z</time></trkpt><trkpt lat="45.98332972191295" lon="9.073979632583109"><ele>673.0</ele><time>2026-04-11T15:43:26.999Z</time></trkpt><trkpt lat="45.98323152308422" lon="9.073928579846754"><ele>673.0</ele><time>2026-04-11T15:43:28Z</time></trkpt><trkpt lat="45.983130067140706" lon="9.073825255244678"><ele>672.75</ele><time>2026-04-11T15:43:29Z</time></trkpt><trkpt lat="45.98301041235492" lon="9.07373421727653"><ele>672.5</ele><time>2026-04-11T15:43:30Z</time></trkpt><trkpt lat="45.982885019850166" lon="9.073638081070834"><ele>672.25</ele><time>2026-04-11T15:43:31Z</time></trkpt><trkpt lat="45.98276599581258" lon="9.073547451806574"><ele>672.0</ele><time>2026-04-11T15:43:32Z</time></trkpt><trkpt lat="45.982651447843544" lon="9.073462366568316"><ele>672.0</ele><time>2026-04-11T15:43:33Z</time></trkpt><trkpt lat="45.982546551116904" lon="9.07338445065348"><ele>672.0</ele><time>2026-04-11T15:43:34Z</time></trkpt><trkpt lat="45.982426560510014" lon="9.073372963551407"><ele>672.0</ele><time>2026-04-11T15:43:35Z</time></trkpt><trkpt lat="45.98231982323741" lon="9.073351905064138"><ele>672.0</ele><time>2026-04-11T15:43:36Z</time></trkpt><trkpt lat="45.982220992330156" lon="9.073359124802016"><ele>672.0</ele><time>2026-04-11T15:43:37Z</time></trkpt><trkpt lat="45.98211591097657" lon="9.07336300123079"><ele>671.4000000000001</ele><time>2026-04-11T15:43:38Z</time></trkpt><trkpt lat="45.982000626114974" lon="9.073382509902316"><ele>670.8000000000001</ele><time>2026-04-11T15:43:39Z</time></trkpt><trkpt lat="45.98190695301795" lon="9.073350590139428"><ele>670.2</ele><time>2026-04-11T15:43:40Z</time></trkpt><trkpt lat="45.981834394985995" lon="9.073297234418973"><ele>669.6</ele><time>2026-04-11T15:43:41Z</time></trkpt><trkpt lat="45.981797800819635" lon="9.07316484672267"><ele>669.0</ele><time>2026-04-11T15:43:42Z</time></trkpt><trkpt lat="45.98181138145034" lon="9.072993548374484"><ele>669.0</ele><time>2026-04-11T15:43:43Z</time></trkpt><trkpt lat="45.9817882810642" lon="9.072815991143639"><ele>669.0</ele><time>2026-04-11T15:43:44Z</time></trkpt><trkpt lat="45.98177918913057" lon="9.072619729303103"><ele>669.0</ele><time>2026-04-11T15:43:45Z</time></trkpt><trkpt lat="45.98175538268703" lon="9.072438314259688"><ele>669.0</ele><time>2026-04-11T15:43:46Z</time></trkpt><trkpt lat="45.981703100043376" lon="9.07229508899047"><ele>667.0</ele><time>2026-04-11T15:43:47Z</time></trkpt><trkpt lat="45.981619180332835" lon="9.072186996217797"><ele>665.0</ele><time>2026-04-11T15:43:48Z</time></trkpt><trkpt lat="45.98149878589229" lon="9.07212731187233"><ele>663.0</ele><time>2026-04-11T15:43:49Z</time></trkpt><trkpt lat="45.98136261658506" lon="9.072108887114089"><ele>661.0</ele><time>2026-04-11T15:43:50Z</time></trkpt><trkpt lat="45.98122277251894" lon="9.072092086864942"><ele>661.0</ele><time>2026-04-11T15:43:51Z</time></trkpt><trkpt lat="45.98108423340373" lon="9.07210894525957"><ele>661.0</ele><time>2026-04-11T15:43:52Z</time></trkpt><trkpt lat="45.98094875497829" lon="9.072172424102"><ele>661.0</ele><time>2026-04-11T15:43:53Z</time></trkpt><trkpt lat="45.980814991934" lon="9.07226250229142"><ele>661.0</ele><time>2026-04-11T15:43:54Z</time></trkpt><trkpt lat="45.98067563659512" lon="9.072345427561796"><ele>663.0</ele><time>2026-04-11T15:43:55Z</time></trkpt><trkpt lat="45.980529879386204" lon="9.072427667980783"><ele>665.0</ele><time>2026-04-11T15:43:56Z</time></trkpt><trkpt lat="45.98039187776422" lon="9.072508830709836"><ele>667.0</ele><time>2026-04-11T15:43:57Z</time></trkpt><trkpt lat="45.98027063856989" lon="9.072571448341158"><ele>669.0</ele><time>2026-04-11T15:43:58Z</time></trkpt><trkpt lat="45.98017510910858" lon="9.072552020545318"><ele>669.0</ele><time>2026-04-11T15:43:59Z</time></trkpt><trkpt lat="45.980104310275614" lon="9.07250134979596"><ele>669.0</ele><time>2026-04-11T15:44:00Z</time></trkpt><trkpt lat="45.98005252766618" lon="9.072382947824842"><ele>669.0</ele><time>2026-04-11T15:44:01Z</time></trkpt><trkpt lat="45.980040483831736" lon="9.072246556588027"><ele>669.0</ele><time>2026-04-11T15:44:02Z</time></trkpt><trkpt lat="45.980020234419655" lon="9.072114117399588"><ele>669.0</ele><time>2026-04-11T15:44:03Z</time></trkpt><trkpt lat="45.98001959226808" lon="9.07199994313815"><ele>669.0</ele><time>2026-04-11T15:44:04Z</time></trkpt><trkpt lat="45.9800048164002" lon="9.071902219018801"><ele>668.8000000000001</ele><time>2026-04-11T15:44:05Z</time></trkpt><trkpt lat="45.9799900426248" lon="9.071789352991805"><ele>668.6</ele><time>2026-04-11T15:44:06Z</time></trkpt><trkpt lat="45.979972515286846" lon="9.071674349402084"><ele>668.4</ele><time>2026-04-11T15:44:07Z</time></trkpt><trkpt lat="45.9799238765976" lon="9.071572327390964"><ele>668.2</ele><time>2026-04-11T15:44:08Z</time></trkpt><trkpt lat="45.97984520274499" lon="9.071492872943946"><ele>668.0</ele><time>2026-04-11T15:44:09Z</time></trkpt><trkpt lat="45.97974043214305" lon="9.071412218789913"><ele>668.0</ele><time>2026-04-11T15:44:10Z</time></trkpt><trkpt lat="45.97958811534503" lon="9.071404831040617"><ele>668.0</ele><time>2026-04-11T15:44:11Z</time></trkpt><trkpt lat="45.97947274055554" lon="9.071351902021009"><ele>668.0</ele><time>2026-04-11T15:44:12Z</time></trkpt><trkpt lat="45.97939242899131" lon="9.071259664524295"><ele>668.0</ele><time>2026-04-11T15:44:13Z</time></trkpt><trkpt lat="45.979354318149426" lon="9.071093603841287"><ele>668.0</ele><time>2026-04-11T15:44:14Z</time></trkpt><trkpt lat="45.979301790471915" lon="9.070897573879854"><ele>668.0</ele><time>2026-04-11T15:44:15Z</time></trkpt><trkpt lat="45.97926211476781" lon="9.070693129559631"><ele>668.0</ele><time>2026-04-11T15:44:16Z</time></trkpt><trkpt lat="45.97916711652025" lon="9.07051990386654"><ele>668.0</ele><time>2026-04-11T15:44:17Z</time></trkpt><trkpt lat="45.97903772401174" lon="9.070398206767337"><ele>669.25</ele><time>2026-04-11T15:44:18Z</time></trkpt><trkpt lat="45.978956437010225" lon="9.070282598892403"><ele>670.5</ele><time>2026-04-11T15:44:19Z</time></trkpt><trkpt lat="45.97892452418755" lon="9.070125942334364"><ele>671.75</ele><time>2026-04-11T15:44:20Z</time></trkpt><trkpt lat="45.97893839015486" lon="9.069932948431331"><ele>673.0</ele><time>2026-04-11T15:44:21Z</time></trkpt><trkpt lat="45.97893208193105" lon="9.069712665583959"><ele>673.0</ele><time>2026-04-11T15:44:22Z</time></trkpt><trkpt lat="45.97890459272107" lon="9.06954461960703"><ele>673.0</ele><time>2026-04-11T15:44:23Z</time></trkpt><trkpt lat="45.978833709565784" lon="9.069410388908416"><ele>673.0</ele><time>2026-04-11T15:44:24Z</time></trkpt><trkpt lat="45.978718230224274" lon="9.069265960336313"><ele>673.0</ele><time>2026-04-11T15:44:25Z</time></trkpt><trkpt lat="45.978583042068806" lon="9.069129422191885"><ele>676.0</ele><time>2026-04-11T15:44:26Z</time></trkpt><trkpt lat="45.97845351691387" lon="9.068973949931745"><ele>679.0</ele><time>2026-04-11T15:44:27Z</time></trkpt><trkpt lat="45.97831831399551" lon="9.068801038962077"><ele>682.0</ele><time>2026-04-11T15:44:28Z</time></trkpt><trkpt lat="45.97817640638377" lon="9.068627202822022"><ele>685.6666666666667</ele><time>2026-04-11T15:44:29Z</time></trkpt><trkpt lat="45.97803768911455" lon="9.068455783845925"><ele>689.3333333333334</ele><time>2026-04-11T15:44:30Z</time></trkpt><trkpt lat="45.97789521083789" lon="9.068303122281685"><ele>693.0</ele><time>2026-04-11T15:44:31Z</time></trkpt><trkpt lat="45.97773385690377" lon="9.068179380699002"><ele>697.0</ele><time>2026-04-11T15:44:32Z</time></trkpt><trkpt lat="45.97756375718451" lon="9.068113894181261"><ele>701.0</ele><time>2026-04-11T15:44:33Z</time></trkpt><trkpt lat="45.97741290099271" lon="9.068033070874804"><ele>705.0</ele><time>2026-04-11T15:44:34Z</time></trkpt><trkpt lat="45.977277596341494" lon="9.067969139360848"><ele>705.2</ele><time>2026-04-11T15:44:35Z</time></trkpt><trkpt lat="45.977172450412276" lon="9.067906514729668"><ele>705.4</ele><time>2026-04-11T15:44:36Z</time></trkpt><trkpt lat="45.977086770830105" lon="9.067831155902132"><ele>705.5999999999999</ele><time>2026-04-11T15:44:37Z</time></trkpt><trkpt lat="45.97704656809144" lon="9.067702886079125"><ele>705.8</ele><time>2026-04-11T15:44:38Z</time></trkpt><trkpt lat="45.977040529803425" lon="9.067560602574225"><ele>706.0</ele><time>2026-04-11T15:44:39Z</time></trkpt><trkpt lat="45.977095534938314" lon="9.067424203189491"><ele>707.75</ele><time>2026-04-11T15:44:40Z</time></trkpt><trkpt lat="45.97718949177331" lon="9.067350662061852"><ele>709.5</ele><time>2026-04-11T15:44:41Z</time></trkpt><trkpt lat="45.977290402748515" lon="9.067210614641885"><ele>711.25</ele><time>2026-04-11T15:44:42Z</time></trkpt><trkpt lat="45.97737479743082" lon="9.0670611406494"><ele>713.0</ele><time>2026-04-11T15:44:43Z</time></trkpt><trkpt lat="45.97743828271351" lon="9.066885580890151"><ele>713.0</ele><time>2026-04-11T15:44:44Z</time></trkpt><trkpt lat="45.97745425225521" lon="9.066672567862236"><ele>713.0</ele><time>2026-04-11T15:44:45Z</time></trkpt><trkpt lat="45.97742904423919" lon="9.066443721581228"><ele>713.0</ele><time>2026-04-11T15:44:46Z</time></trkpt><trkpt lat="45.977403616798455" lon="9.066218577230655"><ele>712.75</ele><time>2026-04-11T15:44:47Z</time></trkpt><trkpt lat="45.97738618114562" lon="9.065991480185351"><ele>712.5</ele><time>2026-04-11T15:44:48Z</time></trkpt><trkpt lat="45.97736790954451" lon="9.06580325552739"><ele>712.25</ele><time>2026-04-11T15:44:49Z</time></trkpt><trkpt lat="45.97731759867797" lon="9.065656582423165"><ele>712.0</ele><time>2026-04-11T15:44:50Z</time></trkpt><trkpt lat="45.97722280060055" lon="9.065533953682799"><ele>714.6666666666667</ele><time>2026-04-11T15:44:51Z</time></trkpt><trkpt lat="45.97708987670256" lon="9.065436584454538"><ele>717.3333333333334</ele><time>2026-04-11T15:44:52Z</time></trkpt><trkpt lat="45.976941144621414" lon="9.065385920961711"><ele>720.0</ele><time>2026-04-11T15:44:53Z</time></trkpt><trkpt lat="45.976781536372805" lon="9.065399897599653"><ele>719.0</ele><time>2026-04-11T15:44:54Z</time></trkpt><trkpt lat="45.97662966523518" lon="9.065468136111454"><ele>718.0</ele><time>2026-04-11T15:44:55Z</time></trkpt><trkpt lat="45.97647263275033" lon="9.065531788731823"><ele>717.0</ele><time>2026-04-11T15:44:56Z</time></trkpt><trkpt lat="45.976312005744994" lon="9.065585675336877"><ele>717.0</ele><time>2026-04-11T15:44:57Z</time></trkpt><trkpt lat="45.97614794238899" lon="9.065627729643047"><ele>717.0</ele><time>2026-04-11T15:44:58Z</time></trkpt><trkpt lat="45.97597859273231" lon="9.065673826502485"><ele>717.0</ele><time>2026-04-11T15:44:59Z</time></trkpt><trkpt lat="45.975816227950254" lon="9.065719839438852"><ele>717.3333333333334</ele><time>2026-04-11T15:45:00Z</time></trkpt><trkpt lat="45.975662307362" lon="9.065791593205036"><ele>717.6666666666667</ele><time>2026-04-11T15:45:01Z</time></trkpt><trkpt lat="45.97551438404411" lon="9.065895810944856"><ele>718.0</ele><time>2026-04-11T15:45:02Z</time></trkpt><trkpt lat="45.97537674573932" lon="9.06603424634879"><ele>718.0</ele><time>2026-04-11T15:45:03Z</time></trkpt><trkpt lat="45.9752463635068" lon="9.066185483181581"><ele>718.0</ele><time>2026-04-11T15:45:04Z</time></trkpt><trkpt lat="45.97511413402114" lon="9.06633058025643"><ele>718.0</ele><time>2026-04-11T15:45:05Z</time></trkpt><trkpt lat="45.97497690174232" lon="9.06646409598278"><ele>718.3333333333334</ele><time>2026-04-11T15:45:06Z</time></trkpt><trkpt lat="45.974846784610605" lon="9.066609814599229"><ele>718.6666666666666</ele><time>2026-04-11T15:45:07Z</time></trkpt><trkpt lat="45.974715624593834" lon="9.066752744213087"><ele>719.0</ele><time>2026-04-11T15:45:08Z</time></trkpt><trkpt lat="45.974580598992034" lon="9.066892207795739"><ele>719.0</ele><time>2026-04-11T15:45:09Z</time></trkpt><trkpt lat="45.97444283508343" lon="9.067024719597207"><ele>719.0</ele><time>2026-04-11T15:45:10Z</time></trkpt><trkpt lat="45.97430041533239" lon="9.06714870789311"><ele>719.0</ele><time>2026-04-11T15:45:11Z</time></trkpt><trkpt lat="45.97415492575851" lon="9.067263767628372"><ele>721.3333333333333</ele><time>2026-04-11T15:45:12Z</time></trkpt><trkpt lat="45.97400994926442" lon="9.06738046536767"><ele>723.6666666666666</ele><time>2026-04-11T15:45:13Z</time></trkpt><trkpt lat="45.973865189787254" lon="9.067499462636668"><ele>726.0</ele><time>2026-04-11T15:45:14Z</time></trkpt><trkpt lat="45.973718424951024" lon="9.067629558761348"><ele>726.0</ele><time>2026-04-11T15:45:15Z</time></trkpt><trkpt lat="45.97357584902128" lon="9.067778104334185"><ele>726.0</ele><time>2026-04-11T15:45:16Z</time></trkpt><trkpt lat="45.97344165907228" lon="9.067950057885525"><ele>726.0</ele><time>2026-04-11T15:45:17Z</time></trkpt><trkpt lat="45.97331854411505" lon="9.068141700675001"><ele>728.6666666666666</ele><time>2026-04-11T15:45:18Z</time></trkpt><trkpt lat="45.97319960267878" lon="9.068339832905451"><ele>731.3333333333333</ele><time>2026-04-11T15:45:18.999Z</time></trkpt><trkpt lat="45.97307611474482" lon="9.06854081273751"><ele>734.0</ele><time>2026-04-11T15:45:19.999Z</time></trkpt><trkpt lat="45.97295118924516" lon="9.068739923078585"><ele>734.0</ele><time>2026-04-11T15:45:20.999Z</time></trkpt><trkpt lat="45.9728246402497" lon="9.068939556339291"><ele>734.0</ele><time>2026-04-11T15:45:21.999Z</time></trkpt><trkpt lat="45.97270329553175" lon="9.069131593240066"><ele>734.0</ele><time>2026-04-11T15:45:22.999Z</time></trkpt><trkpt lat="45.97259494010713" lon="9.069304219747162"><ele>734.25</ele><time>2026-04-11T15:45:23.999Z</time></trkpt><trkpt lat="45.972492456867016" lon="9.069469016528002"><ele>734.5</ele><time>2026-04-11T15:45:24.999Z</time></trkpt><trkpt lat="45.972390234866936" lon="9.069624584814957"><ele>734.75</ele><time>2026-04-11T15:45:25.999Z</time></trkpt><trkpt lat="45.972289296544474" lon="9.069761092279377"><ele>735.0</ele><time>2026-04-11T15:45:26.999Z</time></trkpt><trkpt lat="45.97218373259196" lon="9.069853516779562"><ele>735.0</ele><time>2026-04-11T15:45:27.999Z</time></trkpt><trkpt lat="45.97207603382045" lon="9.069874592400415"><ele>735.0</ele><time>2026-04-11T15:45:28.999Z</time></trkpt><trkpt lat="45.9719822968936" lon="9.069905006742086"><ele>735.0</ele><time>2026-04-11T15:45:29.999Z</time></trkpt><trkpt lat="45.97189235988825" lon="9.069867587439283"><ele>735.0</ele><time>2026-04-11T15:45:30.999Z</time></trkpt><trkpt lat="45.971826128671566" lon="9.069794470115808"><ele>735.0</ele><time>2026-04-11T15:45:31.999Z</time></trkpt><trkpt lat="45.971785855990845" lon="9.069679835641598"><ele>735.0</ele><time>2026-04-11T15:45:34Z</time></trkpt><trkpt lat="45.971767821971646" lon="9.069585227489881"><ele>735.0</ele><time>2026-04-11T15:45:36Z</time></trkpt><trkpt lat="45.97175691363453" lon="9.069457337399937"><ele>735.0</ele><time>2026-04-11T15:45:38Z</time></trkpt><trkpt lat="45.971656409454724" lon="9.069434472523414"><ele>735.0</ele><time>2026-04-11T15:45:39Z</time></trkpt><trkpt lat="45.97158075191853" lon="9.069500030919544"><ele>735.0</ele><time>2026-04-11T15:45:40Z</time></trkpt><trkpt lat="45.971503365852406" lon="9.069540330699699"><ele>735.0</ele><time>2026-04-11T15:45:41Z</time></trkpt><trkpt lat="45.971415478416596" lon="9.069569970491605"><ele>736.0</ele><time>2026-04-11T15:45:42Z</time></trkpt><trkpt lat="45.97131562103435" lon="9.069594934187053"><ele>737.0</ele><time>2026-04-11T15:45:43Z</time></trkpt><trkpt lat="45.971208692467115" lon="9.069621405723579"><ele>738.0</ele><time>2026-04-11T15:45:44Z</time></trkpt><trkpt lat="45.97109202229885" lon="9.069651043817895"><ele>739.0</ele><time>2026-04-11T15:45:45Z</time></trkpt><trkpt lat="45.97096990155627" lon="9.06967585134063"><ele>739.0</ele><time>2026-04-11T15:45:46Z</time></trkpt><trkpt lat="45.97084748509872" lon="9.069698272769527"><ele>739.0</ele><time>2026-04-11T15:45:47Z</time></trkpt><trkpt lat="45.970723127530704" lon="9.069724106626621"><ele>739.0</ele><time>2026-04-11T15:45:48Z</time></trkpt><trkpt lat="45.97059865999056" lon="9.069749482289959"><ele>739.0</ele><time>2026-04-11T15:45:49Z</time></trkpt><trkpt lat="45.97048424954286" lon="9.069773415345535"><ele>739.0</ele><time>2026-04-11T15:45:50Z</time></trkpt><trkpt lat="45.9703784708618" lon="9.069801029898594"><ele>739.0</ele><time>2026-04-11T15:45:51Z</time></trkpt><trkpt lat="45.970273150182244" lon="9.06983693463533"><ele>739.0</ele><time>2026-04-11T15:45:52Z</time></trkpt><trkpt lat="45.97016645043371" lon="9.069882615484739"><ele>739.0</ele><time>2026-04-11T15:45:53Z</time></trkpt><trkpt lat="45.970060500659756" lon="9.069941471738563"><ele>739.0</ele><time>2026-04-11T15:45:54Z</time></trkpt><trkpt lat="45.96996012398379" lon="9.070027681392578"><ele>738.5</ele><time>2026-04-11T15:45:55Z</time></trkpt><trkpt lat="45.96986760221612" lon="9.07013045824735"><ele>738.0</ele><time>2026-04-11T15:45:56Z</time></trkpt><trkpt lat="45.96977736858886" lon="9.0702490714074"><ele>737.5</ele><time>2026-04-11T15:45:57Z</time></trkpt><trkpt lat="45.96969699825381" lon="9.070379395279094"><ele>737.0</ele><time>2026-04-11T15:45:58Z</time></trkpt><trkpt lat="45.969630448626184" lon="9.070513078531802"><ele>737.0</ele><time>2026-04-11T15:45:59Z</time></trkpt><trkpt lat="45.969576408454344" lon="9.07065009529554"><ele>737.0</ele><time>2026-04-11T15:46:00Z</time></trkpt><trkpt lat="45.96954452090269" lon="9.07078058002526"><ele>737.0</ele><time>2026-04-11T15:46:01Z</time></trkpt><trkpt lat="45.96952626425243" lon="9.070890302299071"><ele>737.0</ele><time>2026-04-11T15:46:02Z</time></trkpt><trkpt lat="45.96949000219184" lon="9.070984958408747"><ele>737.0</ele><time>2026-04-11T15:46:04Z</time></trkpt><trkpt lat="45.969414915701286" lon="9.070844656754323"><ele>737.0</ele><time>2026-04-11T15:46:07Z</time></trkpt><trkpt lat="45.96945459855806" lon="9.070746151282943"><ele>737.0</ele><time>2026-04-11T15:46:08Z</time></trkpt><trkpt lat="45.96951661542944" lon="9.070651027286766"><ele>737.0</ele><time>2026-04-11T15:46:09Z</time></trkpt><trkpt lat="45.96956224345462" lon="9.070549741188751"><ele>737.0</ele><time>2026-04-11T15:46:10Z</time></trkpt><trkpt lat="45.96957498076265" lon="9.070443860353537"><ele>737.0</ele><time>2026-04-11T15:46:11Z</time></trkpt><trkpt lat="45.969553588782226" lon="9.070341768665921"><ele>737.0</ele><time>2026-04-11T15:46:12Z</time></trkpt><trkpt lat="45.96950385941754" lon="9.07025387312549"><ele>737.0</ele><time>2026-04-11T15:46:13Z</time></trkpt><trkpt lat="45.96942904665093" lon="9.070171985681597"><ele>737.0</ele><time>2026-04-11T15:46:14Z</time></trkpt><trkpt lat="45.96934540261836" lon="9.070094859732334"><ele>737.0</ele><time>2026-04-11T15:46:15Z</time></trkpt><trkpt lat="45.969256995430655" lon="9.07007617108607"><ele>737.0</ele><time>2026-04-11T15:46:16Z</time></trkpt><trkpt lat="45.969152687184504" lon="9.070113958958299"><ele>737.0</ele><time>2026-04-11T15:46:17Z</time></trkpt><trkpt lat="45.96904746189558" lon="9.07018519775485"><ele>736.75</ele><time>2026-04-11T15:46:18Z</time></trkpt><trkpt lat="45.96893900790969" lon="9.070238355952968"><ele>736.5</ele><time>2026-04-11T15:46:19Z</time></trkpt><trkpt lat="45.968825876059206" lon="9.070238902729308"><ele>736.25</ele><time>2026-04-11T15:46:20Z</time></trkpt><trkpt lat="45.968714439503735" lon="9.07015503581989"><ele>736.0</ele><time>2026-04-11T15:46:21Z</time></trkpt><trkpt lat="45.968585659282304" lon="9.070093824961953"><ele>736.0</ele><time>2026-04-11T15:46:22Z</time></trkpt><trkpt lat="45.96846516833435" lon="9.070004972407936"><ele>736.0</ele><time>2026-04-11T15:46:23Z</time></trkpt><trkpt lat="45.96833995130413" lon="9.069929675057221"><ele>736.0</ele><time>2026-04-11T15:46:24Z</time></trkpt><trkpt lat="45.968206419688485" lon="9.069888604640758"><ele>736.0</ele><time>2026-04-11T15:46:25Z</time></trkpt><trkpt lat="45.96806838965101" lon="9.069876913756707"><ele>737.25</ele><time>2026-04-11T15:46:26Z</time></trkpt><trkpt lat="45.967937026886695" lon="9.069886866913802"><ele>738.5</ele><time>2026-04-11T15:46:27Z</time></trkpt><trkpt lat="45.9678068851561" lon="9.069900649728675"><ele>739.75</ele><time>2026-04-11T15:46:28Z</time></trkpt><trkpt lat="45.96767171801855" lon="9.069911132250395"><ele>741.0</ele><time>2026-04-11T15:46:29Z</time></trkpt><trkpt lat="45.96753316893949" lon="9.069926039445885"><ele>737.75</ele><time>2026-04-11T15:46:30Z</time></trkpt><trkpt lat="45.96739341277505" lon="9.069957641839173"><ele>734.5</ele><time>2026-04-11T15:46:31Z</time></trkpt><trkpt lat="45.9672518473266" lon="9.07000975460803"><ele>731.25</ele><time>2026-04-11T15:46:32Z</time></trkpt><trkpt lat="45.967109308624856" lon="9.070085865287979"><ele>728.0</ele><time>2026-04-11T15:46:33Z</time></trkpt><trkpt lat="45.96696784581633" lon="9.07017356873733"><ele>728.0</ele><time>2026-04-11T15:46:34Z</time></trkpt><trkpt lat="45.96682900033499" lon="9.07026726117554"><ele>728.0</ele><time>2026-04-11T15:46:35Z</time></trkpt><trkpt lat="45.96668976646562" lon="9.070360613341611"><ele>728.0</ele><time>2026-04-11T15:46:36Z</time></trkpt><trkpt lat="45.96655049490985" lon="9.07044994181394"><ele>727.0</ele><time>2026-04-11T15:46:37Z</time></trkpt><trkpt lat="45.96642025273776" lon="9.070537706789919"><ele>726.0</ele><time>2026-04-11T15:46:38Z</time></trkpt><trkpt lat="45.96629634133152" lon="9.070629947555991"><ele>725.0</ele><time>2026-04-11T15:46:39Z</time></trkpt><trkpt lat="45.96617893541855" lon="9.070743469246127"><ele>724.0</ele><time>2026-04-11T15:46:40Z</time></trkpt><trkpt lat="45.96606309719773" lon="9.070868831684127"><ele>724.0</ele><time>2026-04-11T15:46:41Z</time></trkpt><trkpt lat="45.96594959601718" lon="9.070993052163143"><ele>724.0</ele><time>2026-04-11T15:46:42Z</time></trkpt><trkpt lat="45.96583599731816" lon="9.071093928481902"><ele>724.0</ele><time>2026-04-11T15:46:43Z</time></trkpt><trkpt lat="45.965713275508065" lon="9.071119872665971"><ele>724.0</ele><time>2026-04-11T15:46:44Z</time></trkpt><trkpt lat="45.96558697512947" lon="9.071132450168992"><ele>724.75</ele><time>2026-04-11T15:46:45Z</time></trkpt><trkpt lat="45.965453507650764" lon="9.07111595797169"><ele>725.5</ele><time>2026-04-11T15:46:46Z</time></trkpt><trkpt lat="45.96531952395925" lon="9.071061186772324"><ele>726.25</ele><time>2026-04-11T15:46:47Z</time></trkpt><trkpt lat="45.96518720384366" lon="9.0709848295219"><ele>727.0</ele><time>2026-04-11T15:46:48Z</time></trkpt><trkpt lat="45.965057134999284" lon="9.070927296007692"><ele>727.5</ele><time>2026-04-11T15:46:49Z</time></trkpt><trkpt lat="45.96494021279946" lon="9.070856636278174"><ele>728.0</ele><time>2026-04-11T15:46:50Z</time></trkpt><trkpt lat="45.96480444293639" lon="9.070840817575604"><ele>728.5</ele><time>2026-04-11T15:46:51Z</time></trkpt><trkpt lat="45.96466991324721" lon="9.070874555482714"><ele>729.0</ele><time>2026-04-11T15:46:52Z</time></trkpt><trkpt lat="45.9645375443536" lon="9.070899027694363"><ele>729.0</ele><time>2026-04-11T15:46:53Z</time></trkpt><trkpt lat="45.96441951842212" lon="9.07088344694458"><ele>729.0</ele><time>2026-04-11T15:46:54Z</time></trkpt><trkpt lat="45.96429783059417" lon="9.070808325575943"><ele>729.0</ele><time>2026-04-11T15:46:55Z</time></trkpt><trkpt lat="45.96415969600346" lon="9.070744066409222"><ele>729.0</ele><time>2026-04-11T15:46:56Z</time></trkpt><trkpt lat="45.964042938535655" lon="9.07065875872695"><ele>732.25</ele><time>2026-04-11T15:46:57Z</time></trkpt><trkpt lat="45.96392493154496" lon="9.07061716059443"><ele>735.5</ele><time>2026-04-11T15:46:58Z</time></trkpt><trkpt lat="45.96379933085192" lon="9.070625551668861"><ele>738.75</ele><time>2026-04-11T15:46:59Z</time></trkpt><trkpt lat="45.9636577388024" lon="9.070630243488935"><ele>742.0</ele><time>2026-04-11T15:47:00Z</time></trkpt><trkpt lat="45.963512484100654" lon="9.070639990540673"><ele>742.0</ele><time>2026-04-11T15:47:01Z</time></trkpt><trkpt lat="45.96337596078735" lon="9.070644229395246"><ele>742.0</ele><time>2026-04-11T15:47:02Z</time></trkpt><trkpt lat="45.96325459107415" lon="9.070649278667256"><ele>742.0</ele><time>2026-04-11T15:47:03Z</time></trkpt><trkpt lat="45.96314974329036" lon="9.070606291286195"><ele>742.0</ele><time>2026-04-11T15:47:04Z</time></trkpt><trkpt lat="45.963045513862326" lon="9.07055210737509"><ele>742.0</ele><time>2026-04-11T15:47:05Z</time></trkpt><trkpt lat="45.962933659360246" lon="9.070492265652488"><ele>742.0</ele><time>2026-04-11T15:47:06Z</time></trkpt><trkpt lat="45.96281894525251" lon="9.070447726975086"><ele>742.0</ele><time>2026-04-11T15:47:07Z</time></trkpt><trkpt lat="45.962710366883506" lon="9.070381727813068"><ele>742.0</ele><time>2026-04-11T15:47:08Z</time></trkpt><trkpt lat="45.96258516640082" lon="9.070332687197949"><ele>741.25</ele><time>2026-04-11T15:47:09Z</time></trkpt><trkpt lat="45.962463346619984" lon="9.070320278625019"><ele>740.5</ele><time>2026-04-11T15:47:10Z</time></trkpt><trkpt lat="45.962331293466505" lon="9.070308270928463"><ele>739.75</ele><time>2026-04-11T15:47:11Z</time></trkpt><trkpt lat="45.96219466414256" lon="9.07034956999719"><ele>739.0</ele><time>2026-04-11T15:47:12Z</time></trkpt><trkpt lat="45.96205131525747" lon="9.070364374004024"><ele>739.0</ele><time>2026-04-11T15:47:13Z</time></trkpt><trkpt lat="45.96191363910178" lon="9.070372689284286"><ele>739.0</ele><time>2026-04-11T15:47:14Z</time></trkpt><trkpt lat="45.96178170987236" lon="9.070336963370352"><ele>739.0</ele><time>2026-04-11T15:47:15Z</time></trkpt><trkpt lat="45.961648481896475" lon="9.070333347965098"><ele>739.0</ele><time>2026-04-11T15:47:16Z</time></trkpt><trkpt lat="45.96151683614595" lon="9.070289951939243"><ele>738.75</ele><time>2026-04-11T15:47:17Z</time></trkpt><trkpt lat="45.96138199686482" lon="9.070216205539825"><ele>738.5</ele><time>2026-04-11T15:47:18Z</time></trkpt><trkpt lat="45.96125988924373" lon="9.070160513416383"><ele>738.25</ele><time>2026-04-11T15:47:19Z</time></trkpt><trkpt lat="45.96111376472502" lon="9.070113579198475"><ele>738.0</ele><time>2026-04-11T15:47:19.999Z</time></trkpt><trkpt lat="45.96096654072129" lon="9.070085595085324"><ele>739.0</ele><time>2026-04-11T15:47:20.999Z</time></trkpt><trkpt lat="45.96081782114692" lon="9.070141245114993"><ele>740.0</ele><time>2026-04-11T15:47:21.999Z</time></trkpt><trkpt lat="45.96068099821573" lon="9.070230512617412"><ele>741.0</ele><time>2026-04-11T15:47:22.999Z</time></trkpt><trkpt lat="45.96053555661275" lon="9.07029190505963"><ele>741.0</ele><time>2026-04-11T15:47:23.999Z</time></trkpt><trkpt lat="45.96038200971264" lon="9.07027489898893"><ele>741.0</ele><time>2026-04-11T15:47:24.999Z</time></trkpt><trkpt lat="45.960234850310265" lon="9.070263434921776"><ele>741.0</ele><time>2026-04-11T15:47:25.999Z</time></trkpt><trkpt lat="45.96008892427879" lon="9.070273479197443"><ele>741.0</ele><time>2026-04-11T15:47:26.999Z</time></trkpt><trkpt lat="45.95994485932213" lon="9.070335899851296"><ele>744.3333333333334</ele><time>2026-04-11T15:47:27.999Z</time></trkpt><trkpt lat="45.9598095847983" lon="9.070441852943695"><ele>747.6666666666667</ele><time>2026-04-11T15:47:28.999Z</time></trkpt><trkpt lat="45.959680536501935" lon="9.07055174761354"><ele>751.0</ele><time>2026-04-11T15:47:29.999Z</time></trkpt><trkpt lat="45.95954892653997" lon="9.070654411981538"><ele>751.0</ele><time>2026-04-11T15:47:30.999Z</time></trkpt><trkpt lat="45.95940094641933" lon="9.07070852806921"><ele>751.0</ele><time>2026-04-11T15:47:31.999Z</time></trkpt><trkpt lat="45.95924950923207" lon="9.070729090883852"><ele>751.0</ele><time>2026-04-11T15:47:32.999Z</time></trkpt><trkpt lat="45.95908789670107" lon="9.070747225896396"><ele>748.75</ele><time>2026-04-11T15:47:33.999Z</time></trkpt><trkpt lat="45.958930497359326" lon="9.07078660639671"><ele>746.5</ele><time>2026-04-11T15:47:34.999Z</time></trkpt><trkpt lat="45.95879304151279" lon="9.070789400001422"><ele>744.25</ele><time>2026-04-11T15:47:35.999Z</time></trkpt><trkpt lat="45.958663973834476" lon="9.070808915077272"><ele>742.0</ele><time>2026-04-11T15:47:36.999Z</time></trkpt><trkpt lat="45.958549809484566" lon="9.070854865563744"><ele>742.0</ele><time>2026-04-11T15:47:37.999Z</time></trkpt><trkpt lat="45.95843024630533" lon="9.07096210030434"><ele>742.0</ele><time>2026-04-11T15:47:39Z</time></trkpt><trkpt lat="45.9583095496283" lon="9.071090338893393"><ele>742.0</ele><time>2026-04-11T15:47:40Z</time></trkpt><trkpt lat="45.95817392477365" lon="9.071211618397133"><ele>745.0</ele><time>2026-04-11T15:47:41Z</time></trkpt><trkpt lat="45.95802625641968" lon="9.071318809573958"><ele>748.0</ele><time>2026-04-11T15:47:42Z</time></trkpt><trkpt lat="45.95788629517633" lon="9.0714090661906"><ele>751.0</ele><time>2026-04-11T15:47:43Z</time></trkpt><trkpt lat="45.957747576177184" lon="9.07149497245876"><ele>751.0</ele><time>2026-04-11T15:47:44Z</time></trkpt><trkpt lat="45.95760456261541" lon="9.071577832947408"><ele>751.0</ele><time>2026-04-11T15:47:45Z</time></trkpt><trkpt lat="45.957469219331216" lon="9.071652837184374"><ele>751.0</ele><time>2026-04-11T15:47:46Z</time></trkpt><trkpt lat="45.95732994798476" lon="9.071745777605726"><ele>754.3333333333334</ele><time>2026-04-11T15:47:47Z</time></trkpt><trkpt lat="45.95720255761459" lon="9.071885020368372"><ele>757.6666666666666</ele><time>2026-04-11T15:47:48Z</time></trkpt><trkpt lat="45.95707715557899" lon="9.072027637936849"><ele>761.0</ele><time>2026-04-11T15:47:49Z</time></trkpt><trkpt lat="45.95694853001588" lon="9.072177586352856"><ele>761.0</ele><time>2026-04-11T15:47:50Z</time></trkpt><trkpt lat="45.956828112219505" lon="9.07231523578709"><ele>761.0</ele><time>2026-04-11T15:47:51Z</time></trkpt><trkpt lat="45.956709300949775" lon="9.072431769539895"><ele>761.0</ele><time>2026-04-11T15:47:52Z</time></trkpt><trkpt lat="45.95659358865497" lon="9.072532577429854"><ele>761.0</ele><time>2026-04-11T15:47:53Z</time></trkpt><trkpt lat="45.95647111668627" lon="9.07262399977386"><ele>760.75</ele><time>2026-04-11T15:47:54Z</time></trkpt><trkpt lat="45.956338069368584" lon="9.072708513400332"><ele>760.5</ele><time>2026-04-11T15:47:55Z</time></trkpt><trkpt lat="45.95620051521765" lon="9.07278191631557"><ele>760.25</ele><time>2026-04-11T15:47:56Z</time></trkpt><trkpt lat="45.95605948414513" lon="9.072846519714751"><ele>760.0</ele><time>2026-04-11T15:47:57Z</time></trkpt><trkpt lat="45.95591605673408" lon="9.072898985053097"><ele>763.0</ele><time>2026-04-11T15:47:58Z</time></trkpt><trkpt lat="45.955771715398356" lon="9.072943475654894"><ele>766.0</ele><time>2026-04-11T15:47:59Z</time></trkpt><trkpt lat="45.955626715500465" lon="9.072976122334575"><ele>769.0</ele><time>2026-04-11T15:48:00Z</time></trkpt><trkpt lat="45.9554836030271" lon="9.073003130541782"><ele>772.0</ele><time>2026-04-11T15:48:01Z</time></trkpt><trkpt lat="45.955342027734645" lon="9.073027320759119"><ele>772.0</ele><time>2026-04-11T15:48:02Z</time></trkpt><trkpt lat="45.95520332370085" lon="9.073050101018715"><ele>772.0</ele><time>2026-04-11T15:48:03Z</time></trkpt><trkpt lat="45.95506806649579" lon="9.073082176854234"><ele>772.0</ele><time>2026-04-11T15:48:04Z</time></trkpt><trkpt lat="45.95494295627016" lon="9.073112929956519"><ele>772.0</ele><time>2026-04-11T15:48:05Z</time></trkpt><trkpt lat="45.95482053954606" lon="9.07315181550051"><ele>772.0</ele><time>2026-04-11T15:48:06Z</time></trkpt><trkpt lat="45.95470768759326" lon="9.07321313999222"><ele>772.0</ele><time>2026-04-11T15:48:07Z</time></trkpt><trkpt lat="45.95460240691386" lon="9.073289477897731"><ele>772.0</ele><time>2026-04-11T15:48:08Z</time></trkpt><trkpt lat="45.95450582207036" lon="9.073351630795663"><ele>772.0</ele><time>2026-04-11T15:48:09Z</time></trkpt><trkpt lat="45.95440225514112" lon="9.07339133653465"><ele>772.0</ele><time>2026-04-11T15:48:10Z</time></trkpt><trkpt lat="45.95429255523282" lon="9.073388066465235"><ele>772.0</ele><time>2026-04-11T15:48:11Z</time></trkpt><trkpt lat="45.954193070015904" lon="9.073409411192205"><ele>772.0</ele><time>2026-04-11T15:48:12Z</time></trkpt><trkpt lat="45.95410342037682" lon="9.073414439003887"><ele>772.0</ele><time>2026-04-11T15:48:13Z</time></trkpt><trkpt lat="45.95401169831933" lon="9.073437485731"><ele>772.0</ele><time>2026-04-11T15:48:14Z</time></trkpt><trkpt lat="45.95391715883948" lon="9.073487282968129"><ele>774.5</ele><time>2026-04-11T15:48:15Z</time></trkpt><trkpt lat="45.95382023162407" lon="9.073556249873278"><ele>777.0</ele><time>2026-04-11T15:48:16Z</time></trkpt><trkpt lat="45.95371990858054" lon="9.073636150828515"><ele>779.5</ele><time>2026-04-11T15:48:17Z</time></trkpt><trkpt lat="45.95361782592927" lon="9.073736298260622"><ele>782.0</ele><time>2026-04-11T15:48:18Z</time></trkpt><trkpt lat="45.9535143404195" lon="9.073855018566311"><ele>782.0</ele><time>2026-04-11T15:48:19Z</time></trkpt><trkpt lat="45.953403805779665" lon="9.073976464564758"><ele>782.0</ele><time>2026-04-11T15:48:20Z</time></trkpt><trkpt lat="45.95328339528878" lon="9.074091238003295"><ele>782.0</ele><time>2026-04-11T15:48:21Z</time></trkpt><trkpt lat="45.95315502083322" lon="9.074203895140823"><ele>782.0</ele><time>2026-04-11T15:48:22Z</time></trkpt><trkpt lat="45.953023351140246" lon="9.074316933738874"><ele>784.0</ele><time>2026-04-11T15:48:23Z</time></trkpt><trkpt lat="45.9528880925123" lon="9.074431571999904"><ele>786.0</ele><time>2026-04-11T15:48:24Z</time></trkpt><trkpt lat="45.95275075984624" lon="9.074550218305456"><ele>788.0</ele><time>2026-04-11T15:48:25Z</time></trkpt><trkpt lat="45.95261959190456" lon="9.074664913030459"><ele>789.75</ele><time>2026-04-11T15:48:26Z</time></trkpt><trkpt lat="45.952502804453594" lon="9.074760079599102"><ele>791.5</ele><time>2026-04-11T15:48:27Z</time></trkpt><trkpt lat="45.95239599487837" lon="9.07484238667561"><ele>793.25</ele><time>2026-04-11T15:48:28Z</time></trkpt><trkpt lat="45.952296538497095" lon="9.074916071989119"><ele>795.0</ele><time>2026-04-11T15:48:29Z</time></trkpt><trkpt lat="45.95220020808716" lon="9.074975125014761"><ele>795.0</ele><time>2026-04-11T15:48:30Z</time></trkpt><trkpt lat="45.95209449619275" lon="9.075012769308561"><ele>795.0</ele><time>2026-04-11T15:48:31Z</time></trkpt><trkpt lat="45.951969970464624" lon="9.074987466754795"><ele>795.0</ele><time>2026-04-11T15:48:32Z</time></trkpt><trkpt lat="45.9518315271226" lon="9.074977376042966"><ele>795.0</ele><time>2026-04-11T15:48:33Z</time></trkpt><trkpt lat="45.9516865584117" lon="9.074931679608174"><ele>799.0</ele><time>2026-04-11T15:48:34Z</time></trkpt><trkpt lat="45.951534936463524" lon="9.074903059461347"><ele>803.0</ele><time>2026-04-11T15:48:35Z</time></trkpt><trkpt lat="45.95137933705747" lon="9.074895091347075"><ele>807.0</ele><time>2026-04-11T15:48:36Z</time></trkpt><trkpt lat="45.95122928557125" lon="9.07491668327928"><ele>805.5</ele><time>2026-04-11T15:48:37Z</time></trkpt><trkpt lat="45.95109328375713" lon="9.074965938263729"><ele>804.0</ele><time>2026-04-11T15:48:38Z</time></trkpt><trkpt lat="45.95096920305459" lon="9.075018526488481"><ele>802.5</ele><time>2026-04-11T15:48:39Z</time></trkpt><trkpt lat="45.95085698091879" lon="9.07506844544813"><ele>801.0</ele><time>2026-04-11T15:48:40Z</time></trkpt><trkpt lat="45.95075588814672" lon="9.075109131545576"><ele>801.0</ele><time>2026-04-11T15:48:41Z</time></trkpt><trkpt lat="45.95067027462223" lon="9.075121951784094"><ele>801.0</ele><time>2026-04-11T15:48:42Z</time></trkpt><trkpt lat="45.950599667463436" lon="9.075121189791583"><ele>801.0</ele><time>2026-04-11T15:48:43Z</time></trkpt><trkpt lat="45.9505216052706" lon="9.075107947055862"><ele>801.0</ele><time>2026-04-11T15:48:45Z</time></trkpt><trkpt lat="45.9505316374614" lon="9.075252527286196"><ele>801.0</ele><time>2026-04-11T15:48:47Z</time></trkpt><trkpt lat="45.95064511468816" lon="9.07529155865452"><ele>801.0</ele><time>2026-04-11T15:48:49Z</time></trkpt><trkpt lat="45.950726906248434" lon="9.075256963648823"><ele>801.0</ele><time>2026-04-11T15:48:50Z</time></trkpt><trkpt lat="45.950815105735984" lon="9.075235271529872"><ele>801.0</ele><time>2026-04-11T15:48:51Z</time></trkpt><trkpt lat="45.95091539420887" lon="9.075189330092742"><ele>801.0</ele><time>2026-04-11T15:48:52Z</time></trkpt><trkpt lat="45.95101866990042" lon="9.075119710349348"><ele>801.0</ele><time>2026-04-11T15:48:53Z</time></trkpt><trkpt lat="45.95111444175522" lon="9.075086881490508"><ele>800.5999999999999</ele><time>2026-04-11T15:48:54Z</time></trkpt><trkpt lat="45.95120528414617" lon="9.075056202000646"><ele>800.2</ele><time>2026-04-11T15:48:55Z</time></trkpt><trkpt lat="45.951292581099196" lon="9.075017265779863"><ele>799.8</ele><time>2026-04-11T15:48:56Z</time></trkpt><trkpt lat="45.95138131035957" lon="9.075027687728006"><ele>799.4000000000001</ele><time>2026-04-11T15:48:57Z</time></trkpt><trkpt lat="45.95146185663237" lon="9.075054505385696"><ele>799.0</ele><time>2026-04-11T15:48:58Z</time></trkpt><trkpt lat="45.95152918916731" lon="9.07514823776741"><ele>799.0</ele><time>2026-04-11T15:48:59Z</time></trkpt><trkpt lat="45.95161495259753" lon="9.075270905009129"><ele>799.0</ele><time>2026-04-11T15:49:00Z</time></trkpt><trkpt lat="45.95171289313895" lon="9.075387058844191"><ele>799.0</ele><time>2026-04-11T15:49:01Z</time></trkpt><trkpt lat="45.95181114291356" lon="9.075519915651057"><ele>799.0</ele><time>2026-04-11T15:49:02Z</time></trkpt><trkpt lat="45.951900438861216" lon="9.075639185355712"><ele>798.2</ele><time>2026-04-11T15:49:03Z</time></trkpt><trkpt lat="45.95195787741743" lon="9.075763037314417"><ele>797.4000000000001</ele><time>2026-04-11T15:49:04Z</time></trkpt><trkpt lat="45.951997170303606" lon="9.07588686563358"><ele>796.6</ele><time>2026-04-11T15:49:05Z</time></trkpt><trkpt lat="45.952000748177205" lon="9.076036184803355"><ele>795.8</ele><time>2026-04-11T15:49:06Z</time></trkpt><trkpt lat="45.9519999676939" lon="9.076190452036371"><ele>795.0</ele><time>2026-04-11T15:49:07Z</time></trkpt><trkpt lat="45.95194972393358" lon="9.07632279149353"><ele>794.6</ele><time>2026-04-11T15:49:08Z</time></trkpt><trkpt lat="45.95188585657485" lon="9.076417763861679"><ele>794.2</ele><time>2026-04-11T15:49:09Z</time></trkpt><trkpt lat="45.951800185617785" lon="9.076432653302978"><ele>793.8</ele><time>2026-04-11T15:49:10Z</time></trkpt><trkpt lat="45.95171404300351" lon="9.076425194869623"><ele>793.4</ele><time>2026-04-11T15:49:11Z</time></trkpt><trkpt lat="45.95160750967553" lon="9.076405078842267"><ele>793.0</ele><time>2026-04-11T15:49:12Z</time></trkpt><trkpt lat="45.95148164324571" lon="9.076368086226362"><ele>793.0</ele><time>2026-04-11T15:49:13Z</time></trkpt><trkpt lat="45.9513523523334" lon="9.07634164556697"><ele>793.0</ele><time>2026-04-11T15:49:14Z</time></trkpt><trkpt lat="45.951228271089576" lon="9.076314134852515"><ele>793.0</ele><time>2026-04-11T15:49:15Z</time></trkpt><trkpt lat="45.95111191553271" lon="9.076310472433"><ele>793.0</ele><time>2026-04-11T15:49:16Z</time></trkpt><trkpt lat="45.951000965395124" lon="9.076338235803597"><ele>793.0</ele><time>2026-04-11T15:49:17Z</time></trkpt><trkpt lat="45.9508901973987" lon="9.076400263616017"><ele>793.0</ele><time>2026-04-11T15:49:18Z</time></trkpt><trkpt lat="45.95078185933248" lon="9.07647118926847"><ele>793.0</ele><time>2026-04-11T15:49:19Z</time></trkpt><trkpt lat="45.950676694524866" lon="9.07653785271191"><ele>793.0</ele><time>2026-04-11T15:49:20Z</time></trkpt><trkpt lat="45.950566756122114" lon="9.076577757809755"><ele>791.0</ele><time>2026-04-11T15:49:21Z</time></trkpt><trkpt lat="45.95047408345722" lon="9.076652568767251"><ele>789.0</ele><time>2026-04-11T15:49:22Z</time></trkpt><trkpt lat="45.95037301178435" lon="9.076694580702409"><ele>787.0</ele><time>2026-04-11T15:49:22.999Z</time></trkpt><trkpt lat="45.9502715876597" lon="9.076719497014494"><ele>785.0</ele><time>2026-04-11T15:49:23.999Z</time></trkpt><trkpt lat="45.95016751528453" lon="9.076728310877048"><ele>783.0</ele><time>2026-04-11T15:49:24.999Z</time></trkpt><trkpt lat="45.950071062223614" lon="9.076726977548239"><ele>781.25</ele><time>2026-04-11T15:49:25.999Z</time></trkpt><trkpt lat="45.949974212014524" lon="9.076720046147027"><ele>779.5</ele><time>2026-04-11T15:49:26.999Z</time></trkpt><trkpt lat="45.94987212881048" lon="9.076663173786748"><ele>777.75</ele><time>2026-04-11T15:49:27.999Z</time></trkpt><trkpt lat="45.94975359415631" lon="9.076605052859927"><ele>776.0</ele><time>2026-04-11T15:49:28.999Z</time></trkpt><trkpt lat="45.94962663297334" lon="9.076566908044342"><ele>778.25</ele><time>2026-04-11T15:49:29.999Z</time></trkpt><trkpt lat="45.949500939147" lon="9.07651366987689"><ele>780.5</ele><time>2026-04-11T15:49:30.999Z</time></trkpt><trkpt lat="45.94937546482427" lon="9.076485443035995"><ele>782.75</ele><time>2026-04-11T15:49:31.999Z</time></trkpt><trkpt lat="45.94925118781979" lon="9.076459676808359"><ele>785.0</ele><time>2026-04-11T15:49:32.999Z</time></trkpt><trkpt lat="45.94912809493059" lon="9.076432516067705"><ele>785.0</ele><time>2026-04-11T15:49:33.999Z</time></trkpt><trkpt lat="45.94901120064155" lon="9.076410653012815"><ele>785.0</ele><time>2026-04-11T15:49:34.999Z</time></trkpt><trkpt lat="45.948912807876624" lon="9.076383252918202"><ele>785.0</ele><time>2026-04-11T15:49:35.999Z</time></trkpt><trkpt lat="45.9488295933378" lon="9.076354078884096"><ele>785.0</ele><time>2026-04-11T15:49:36.999Z</time></trkpt><trkpt lat="45.94876373434491" lon="9.076330097371455"><ele>785.0</ele><time>2026-04-11T15:49:37.999Z</time></trkpt><trkpt lat="45.94867720030904" lon="9.076380767945034"><ele>785.0</ele><time>2026-04-11T15:49:39.999Z</time></trkpt><trkpt lat="45.94870241510573" lon="9.076559955131263"><ele>785.0</ele><time>2026-04-11T15:49:41.999Z</time></trkpt><trkpt lat="45.948777514729734" lon="9.076636155119383"><ele>785.0</ele><time>2026-04-11T15:49:42.999Z</time></trkpt><trkpt lat="45.948868031690125" lon="9.07670508579786"><ele>785.0</ele><time>2026-04-11T15:49:43.999Z</time></trkpt><trkpt lat="45.948971627905685" lon="9.07676891327297"><ele>785.0</ele><time>2026-04-11T15:49:45Z</time></trkpt><trkpt lat="45.94908692281882" lon="9.076822852186991"><ele>782.75</ele><time>2026-04-11T15:49:46Z</time></trkpt><trkpt lat="45.94919871626383" lon="9.07688961423385"><ele>780.5</ele><time>2026-04-11T15:49:47Z</time></trkpt><trkpt lat="45.94927365290813" lon="9.077012635654974"><ele>778.25</ele><time>2026-04-11T15:49:48Z</time></trkpt><trkpt lat="45.949337110969104" lon="9.077136848268431"><ele>776.0</ele><time>2026-04-11T15:49:49Z</time></trkpt><trkpt lat="45.949407390932244" lon="9.077256313326671"><ele>776.0</ele><time>2026-04-11T15:49:50Z</time></trkpt><trkpt lat="45.94952944768195" lon="9.077306867668195"><ele>776.0</ele><time>2026-04-11T15:49:51Z</time></trkpt><trkpt lat="45.9496395183822" lon="9.0773629943505"><ele>776.0</ele><time>2026-04-11T15:49:52Z</time></trkpt><trkpt lat="45.94974085114346" lon="9.077422790596483"><ele>776.0</ele><time>2026-04-11T15:49:53Z</time></trkpt><trkpt lat="45.94983271610644" lon="9.077499924431171"><ele>774.75</ele><time>2026-04-11T15:49:54Z</time></trkpt><trkpt lat="45.949917959384834" lon="9.077582525394785"><ele>773.5</ele><time>2026-04-11T15:49:55Z</time></trkpt><trkpt lat="45.94998054630149" lon="9.077709310445758"><ele>772.25</ele><time>2026-04-11T15:49:56Z</time></trkpt><trkpt lat="45.95004919021179" lon="9.077845228036935"><ele>771.0</ele><time>2026-04-11T15:49:57Z</time></trkpt><trkpt lat="45.950131636072996" lon="9.07797648136363"><ele>771.0</ele><time>2026-04-11T15:49:58Z</time></trkpt><trkpt lat="45.95020059297838" lon="9.078120290368881"><ele>771.0</ele><time>2026-04-11T15:49:59Z</time></trkpt><trkpt lat="45.95028031814002" lon="9.078262483648942"><ele>771.0</ele><time>2026-04-11T15:50:00Z</time></trkpt><trkpt lat="45.950378893373404" lon="9.07839768378452"><ele>771.0</ele><time>2026-04-11T15:50:01Z</time></trkpt><trkpt lat="45.95048565114808" lon="9.078535353530386"><ele>768.0</ele><time>2026-04-11T15:50:02Z</time></trkpt><trkpt lat="45.95059496151252" lon="9.078662832407561"><ele>765.0</ele><time>2026-04-11T15:50:03Z</time></trkpt><trkpt lat="45.950709506340004" lon="9.078773450367876"><ele>762.0</ele><time>2026-04-11T15:50:04Z</time></trkpt><trkpt lat="45.950813945022766" lon="9.078901555430413"><ele>759.0</ele><time>2026-04-11T15:50:05Z</time></trkpt><trkpt lat="45.95091046923076" lon="9.079029888595741"><ele>756.5</ele><time>2026-04-11T15:50:06Z</time></trkpt><trkpt lat="45.951010910129455" lon="9.079146598906961"><ele>754.0</ele><time>2026-04-11T15:50:07Z</time></trkpt><trkpt lat="45.951113296730824" lon="9.079258410755807"><ele>751.5</ele><time>2026-04-11T15:50:08Z</time></trkpt><trkpt lat="45.95122198747814" lon="9.079350170437953"><ele>749.0</ele><time>2026-04-11T15:50:09Z</time></trkpt><trkpt lat="45.95131941736142" lon="9.07941525169514"><ele>749.0</ele><time>2026-04-11T15:50:10Z</time></trkpt><trkpt lat="45.95142597498217" lon="9.079440148905691"><ele>749.0</ele><time>2026-04-11T15:50:11Z</time></trkpt><trkpt lat="45.951543209616766" lon="9.079421553426833"><ele>749.0</ele><time>2026-04-11T15:50:12Z</time></trkpt><trkpt lat="45.951654194212864" lon="9.07938619887494"><ele>749.0</ele><time>2026-04-11T15:50:13Z</time></trkpt><trkpt lat="45.95174909071203" lon="9.079338640994935"><ele>749.0</ele><time>2026-04-11T15:50:14Z</time></trkpt><trkpt lat="45.951821347734565" lon="9.079324601299547"><ele>749.6</ele><time>2026-04-11T15:50:15Z</time></trkpt><trkpt lat="45.95192219671571" lon="9.079427955720018"><ele>750.2</ele><time>2026-04-11T15:50:17Z</time></trkpt><trkpt lat="45.951925580635205" lon="9.079526006574213"><ele>750.8000000000001</ele><time>2026-04-11T15:50:18Z</time></trkpt><trkpt lat="45.951884909786195" lon="9.079632782989624"><ele>751.4000000000001</ele><time>2026-04-11T15:50:19Z</time></trkpt><trkpt lat="45.951802276207516" lon="9.079716574185815"><ele>752.0</ele><time>2026-04-11T15:50:20Z</time></trkpt><trkpt lat="45.95170779978069" lon="9.079785250711522"><ele>751.4000000000001</ele><time>2026-04-11T15:50:21Z</time></trkpt><trkpt lat="45.951618291319164" lon="9.079841887024676"><ele>750.8000000000001</ele><time>2026-04-11T15:50:22Z</time></trkpt><trkpt lat="45.95152687923189" lon="9.079880809207431"><ele>750.2</ele><time>2026-04-11T15:50:23Z</time></trkpt><trkpt lat="45.95143717927534" lon="9.079906985819296"><ele>749.6</ele><time>2026-04-11T15:50:24Z</time></trkpt><trkpt lat="45.95134695330251" lon="9.079914294465844"><ele>749.0</ele><time>2026-04-11T15:50:25Z</time></trkpt><trkpt lat="45.95125344173463" lon="9.079910786828872"><ele>749.0</ele><time>2026-04-11T15:50:26Z</time></trkpt><trkpt lat="45.951158090562586" lon="9.079901359806938"><ele>749.0</ele><time>2026-04-11T15:50:27Z</time></trkpt><trkpt lat="45.95105599112427" lon="9.079896782574227"><ele>749.0</ele><time>2026-04-11T15:50:28Z</time></trkpt><trkpt lat="45.95094849895963" lon="9.079899848058979"><ele>749.0</ele><time>2026-04-11T15:50:29Z</time></trkpt><trkpt lat="45.95083328042292" lon="9.079922829048034"><ele>749.0</ele><time>2026-04-11T15:50:30Z</time></trkpt><trkpt lat="45.95072649199939" lon="9.079893827085789"><ele>748.4000000000001</ele><time>2026-04-11T15:50:31Z</time></trkpt><trkpt lat="45.95062469951036" lon="9.07988621065884"><ele>747.8</ele><time>2026-04-11T15:50:32Z</time></trkpt><trkpt lat="45.95052019488036" lon="9.079882527163916"><ele>747.2</ele><time>2026-04-11T15:50:33Z</time></trkpt><trkpt lat="45.950417587809014" lon="9.079873437062902"><ele>746.5999999999999</ele><time>2026-04-11T15:50:34Z</time></trkpt><trkpt lat="45.950308948049326" lon="9.079864968862783"><ele>746.0</ele><time>2026-04-11T15:50:35Z</time></trkpt><trkpt lat="45.95019798271011" lon="9.07984887515496"><ele>746.0</ele><time>2026-04-11T15:50:36Z</time></trkpt><trkpt lat="45.95008402684804" lon="9.079834011263955"><ele>746.0</ele><time>2026-04-11T15:50:37Z</time></trkpt><trkpt lat="45.94996508409704" lon="9.079816008313605"><ele>746.0</ele><time>2026-04-11T15:50:38Z</time></trkpt><trkpt lat="45.9498428442195" lon="9.079796546163568"><ele>746.0</ele><time>2026-04-11T15:50:39Z</time></trkpt><trkpt lat="45.94972177126583" lon="9.079777843104633"><ele>746.0</ele><time>2026-04-11T15:50:40Z</time></trkpt><trkpt lat="45.94960473970758" lon="9.079764774293885"><ele>746.0</ele><time>2026-04-11T15:50:41Z</time></trkpt><trkpt lat="45.94949119100458" lon="9.079749116668593"><ele>746.0</ele><time>2026-04-11T15:50:42Z</time></trkpt><trkpt lat="45.94937638038386" lon="9.079735762140727"><ele>746.0</ele><time>2026-04-11T15:50:43Z</time></trkpt><trkpt lat="45.94926365753059" lon="9.079697805323114"><ele>742.5</ele><time>2026-04-11T15:50:44Z</time></trkpt><trkpt lat="45.94914029343981" lon="9.079655592813697"><ele>739.0</ele><time>2026-04-11T15:50:45Z</time></trkpt><trkpt lat="45.94901803896582" lon="9.079603305583198"><ele>735.5</ele><time>2026-04-11T15:50:46Z</time></trkpt><trkpt lat="45.94889556598512" lon="9.079558206697472"><ele>732.0</ele><time>2026-04-11T15:50:47Z</time></trkpt><trkpt lat="45.94881713738755" lon="9.079551053332693"><ele>732.0</ele><time>2026-04-11T15:50:48Z</time></trkpt><trkpt lat="45.9487497082875" lon="9.079531989847162"><ele>732.0</ele><time>2026-04-11T15:50:49Z</time></trkpt><trkpt lat="45.9486664825681" lon="9.07961841772774"><ele>732.0</ele><time>2026-04-11T15:50:51Z</time></trkpt><trkpt lat="45.94865609754868" lon="9.079732028937546"><ele>732.0</ele><time>2026-04-11T15:50:52Z</time></trkpt><trkpt lat="45.948736888942804" lon="9.079866284419921"><ele>732.0</ele><time>2026-04-11T15:50:53Z</time></trkpt><trkpt lat="45.94883850513181" lon="9.079974081096028"><ele>729.5</ele><time>2026-04-11T15:50:54Z</time></trkpt><trkpt lat="45.948886200457366" lon="9.080126841420125"><ele>727.0</ele><time>2026-04-11T15:50:55Z</time></trkpt><trkpt lat="45.94891472181695" lon="9.08029721662281"><ele>724.5</ele><time>2026-04-11T15:50:56Z</time></trkpt><trkpt lat="45.94894421142627" lon="9.080488325547263"><ele>722.0</ele><time>2026-04-11T15:50:57Z</time></trkpt><trkpt lat="45.94897686030306" lon="9.080675066612477"><ele>721.25</ele><time>2026-04-11T15:50:58Z</time></trkpt><trkpt lat="45.949042625975345" lon="9.080835503691821"><ele>720.5</ele><time>2026-04-11T15:50:59Z</time></trkpt><trkpt lat="45.94909611988104" lon="9.080990722373606"><ele>719.75</ele><time>2026-04-11T15:51:00Z</time></trkpt><trkpt lat="45.94913009770485" lon="9.081156099637328"><ele>719.0</ele><time>2026-04-11T15:51:01Z</time></trkpt><trkpt lat="45.94913669713811" lon="9.081334199376979"><ele>719.0</ele><time>2026-04-11T15:51:02Z</time></trkpt><trkpt lat="45.94913061668188" lon="9.081515145557253"><ele>719.0</ele><time>2026-04-11T15:51:03Z</time></trkpt><trkpt lat="45.94914056307803" lon="9.081677521498312"><ele>719.0</ele><time>2026-04-11T15:51:04Z</time></trkpt><trkpt lat="45.9491697944787" lon="9.081811177170902"><ele>719.0</ele><time>2026-04-11T15:51:05Z</time></trkpt><trkpt lat="45.9492215510184" lon="9.081924158516905"><ele>719.0</ele><time>2026-04-11T15:51:06Z</time></trkpt><trkpt lat="45.9493032027494" lon="9.082018864667887"><ele>720.25</ele><time>2026-04-11T15:51:06.999Z</time></trkpt><trkpt lat="45.949408947852156" lon="9.082105469040687"><ele>721.5</ele><time>2026-04-11T15:51:07.999Z</time></trkpt><trkpt lat="45.949506816592354" lon="9.082198232724135"><ele>722.75</ele><time>2026-04-11T15:51:08.999Z</time></trkpt><trkpt lat="45.94960565078134" lon="9.082291220478288"><ele>724.0</ele><time>2026-04-11T15:51:09.999Z</time></trkpt><trkpt lat="45.949704196851464" lon="9.082391754975179"><ele>720.8000000000001</ele><time>2026-04-11T15:51:10.999Z</time></trkpt><trkpt lat="45.9498039706355" lon="9.082485599311216"><ele>717.6</ele><time>2026-04-11T15:51:11.999Z</time></trkpt><trkpt lat="45.949897476874284" lon="9.082572985394242"><ele>714.4</ele><time>2026-04-11T15:51:12.999Z</time></trkpt><trkpt lat="45.949990050428646" lon="9.082624183207274"><ele>711.2</ele><time>2026-04-11T15:51:13.999Z</time></trkpt><trkpt lat="45.950098166489106" lon="9.08262406794155"><ele>708.0</ele><time>2026-04-11T15:51:14.999Z</time></trkpt><trkpt lat="45.950222093502965" lon="9.082593090394507"><ele>708.0</ele><time>2026-04-11T15:51:15.999Z</time></trkpt><trkpt lat="45.95035311114764" lon="9.082567269000304"><ele>708.0</ele><time>2026-04-11T15:51:16.999Z</time></trkpt><trkpt lat="45.950488926764685" lon="9.08255498630891"><ele>708.0</ele><time>2026-04-11T15:51:17.999Z</time></trkpt><trkpt lat="45.95062323469971" lon="9.082544628523431"><ele>708.0</ele><time>2026-04-11T15:51:18.999Z</time></trkpt><trkpt lat="45.950751451069046" lon="9.082589482428128"><ele>707.75</ele><time>2026-04-11T15:51:19.999Z</time></trkpt><trkpt lat="45.95088552565475" lon="9.08259364542436"><ele>707.5</ele><time>2026-04-11T15:51:20.999Z</time></trkpt><trkpt lat="45.95101881167836" lon="9.082620128411213"><ele>707.25</ele><time>2026-04-11T15:51:21.999Z</time></trkpt><trkpt lat="45.951146918007304" lon="9.08264622410586"><ele>707.0</ele><time>2026-04-11T15:51:22.999Z</time></trkpt><trkpt lat="45.951270946906874" lon="9.082684095189135"><ele>707.0</ele><time>2026-04-11T15:51:23.999Z</time></trkpt><trkpt lat="45.951391792657475" lon="9.082732795192207"><ele>707.0</ele><time>2026-04-11T15:51:24.999Z</time></trkpt><trkpt lat="45.95151898105924" lon="9.082772394736976"><ele>707.0</ele><time>2026-04-11T15:51:25.999Z</time></trkpt><trkpt lat="45.951658380542895" lon="9.082766439331996"><ele>707.0</ele><time>2026-04-11T15:51:26.999Z</time></trkpt><trkpt lat="45.95180536699307" lon="9.082727048141388"><ele>705.25</ele><time>2026-04-11T15:51:27.999Z</time></trkpt><trkpt lat="45.95195970456819" lon="9.082709770261216"><ele>703.5</ele><time>2026-04-11T15:51:28.999Z</time></trkpt><trkpt lat="45.95210734092368" lon="9.082720604996418"><ele>701.75</ele><time>2026-04-11T15:51:29.999Z</time></trkpt><trkpt lat="45.952239173596936" lon="9.082729742965821"><ele>700.0</ele><time>2026-04-11T15:51:30.999Z</time></trkpt><trkpt lat="45.95234856705678" lon="9.082714640297533"><ele>700.0</ele><time>2026-04-11T15:51:31.999Z</time></trkpt><trkpt lat="45.95243713511057" lon="9.08265959678252"><ele>700.0</ele><time>2026-04-11T15:51:32.999Z</time></trkpt><trkpt lat="45.95249973879926" lon="9.082580621473747"><ele>700.0</ele><time>2026-04-11T15:51:33.999Z</time></trkpt><trkpt lat="45.95259331704519" lon="9.08252266530776"><ele>700.0</ele><time>2026-04-11T15:51:35.999Z</time></trkpt><trkpt lat="45.9526437955787" lon="9.082577237087227"><ele>700.0</ele><time>2026-04-11T15:51:37.999Z</time></trkpt><trkpt lat="45.95254794192257" lon="9.082692916380987"><ele>700.0</ele><time>2026-04-11T15:51:39.999Z</time></trkpt><trkpt lat="45.95248301157746" lon="9.082783432196544"><ele>700.0</ele><time>2026-04-11T15:51:40.999Z</time></trkpt><trkpt lat="45.95240106220355" lon="9.082863795849567"><ele>700.0</ele><time>2026-04-11T15:51:41.999Z</time></trkpt><trkpt lat="45.95229816896201" lon="9.082916499031535"><ele>700.0</ele><time>2026-04-11T15:51:42.999Z</time></trkpt><trkpt lat="45.95218606236594" lon="9.082973987128499"><ele>700.0</ele><time>2026-04-11T15:51:43.999Z</time></trkpt><trkpt lat="45.95206442685464" lon="9.083050082577753"><ele>700.0</ele><time>2026-04-11T15:51:44.999Z</time></trkpt><trkpt lat="45.95193757938642" lon="9.083102148522794"><ele>700.0</ele><time>2026-04-11T15:51:45.999Z</time></trkpt><trkpt lat="45.95180918705499" lon="9.08314902979621"><ele>700.0</ele><time>2026-04-11T15:51:46.999Z</time></trkpt><trkpt lat="45.951680148291885" lon="9.083197184828245"><ele>700.0</ele><time>2026-04-11T15:51:47.999Z</time></trkpt><trkpt lat="45.951550553351126" lon="9.083243303533015"><ele>696.0</ele><time>2026-04-11T15:51:48.999Z</time></trkpt><trkpt lat="45.951426936668504" lon="9.083295585217375"><ele>692.0</ele><time>2026-04-11T15:51:49.999Z</time></trkpt><trkpt lat="45.95130955935263" lon="9.083380477664505"><ele>688.0</ele><time>2026-04-11T15:51:51Z</time></trkpt><trkpt lat="45.95119552911436" lon="9.083470450988354"><ele>684.0</ele><time>2026-04-11T15:51:52Z</time></trkpt><trkpt lat="45.951081005288195" lon="9.083568835967126"><ele>684.0</ele><time>2026-04-11T15:51:53Z</time></trkpt><trkpt lat="45.95096776452822" lon="9.083678229672781"><ele>684.0</ele><time>2026-04-11T15:51:54Z</time></trkpt><trkpt lat="45.95084740258782" lon="9.083754118654596"><ele>684.0</ele><time>2026-04-11T15:51:55Z</time></trkpt><trkpt lat="45.95074583130965" lon="9.083868898785909"><ele>684.0</ele><time>2026-04-11T15:51:56Z</time></trkpt><trkpt lat="45.950635320088765" lon="9.083952544938686"><ele>685.25</ele><time>2026-04-11T15:51:57Z</time></trkpt><trkpt lat="45.95052857789738" lon="9.084041615516204"><ele>686.5</ele><time>2026-04-11T15:51:58Z</time></trkpt><trkpt lat="45.950412035583284" lon="9.084114172475239"><ele>687.75</ele><time>2026-04-11T15:51:59Z</time></trkpt><trkpt lat="45.95029362115222" lon="9.084184764650933"><ele>689.0</ele><time>2026-04-11T15:52:00Z</time></trkpt><trkpt lat="45.950182617362756" lon="9.084256754925034"><ele>686.2</ele><time>2026-04-11T15:52:01Z</time></trkpt><trkpt lat="45.950086358382876" lon="9.084323907160101"><ele>683.4000000000001</ele><time>2026-04-11T15:52:02Z</time></trkpt><trkpt lat="45.949999649536615" lon="9.0843699455235"><ele>680.6</ele><time>2026-04-11T15:52:03Z</time></trkpt><trkpt lat="45.94990101525517" lon="9.084376434615661"><ele>677.8</ele><time>2026-04-11T15:52:04Z</time></trkpt><trkpt lat="45.949797478043465" lon="9.084349836846377"><ele>675.0</ele><time>2026-04-11T15:52:05Z</time></trkpt><trkpt lat="45.94968776861559" lon="9.084330924750544"><ele>675.0</ele><time>2026-04-11T15:52:06Z</time></trkpt><trkpt lat="45.94960429731837" lon="9.084235942697294"><ele>675.0</ele><time>2026-04-11T15:52:07Z</time></trkpt><trkpt lat="45.949523082770284" lon="9.084150795925785"><ele>675.0</ele><time>2026-04-11T15:52:08Z</time></trkpt><trkpt lat="45.94943900177397" lon="9.084070219229108"><ele>675.0</ele><time>2026-04-11T15:52:09Z</time></trkpt><trkpt lat="45.94937167820979" lon="9.083938627249161"><ele>675.0</ele><time>2026-04-11T15:52:10Z</time></trkpt><trkpt lat="45.94930419668148" lon="9.083805831818761"><ele>675.0</ele><time>2026-04-11T15:52:11Z</time></trkpt><trkpt lat="45.94923274624771" lon="9.083686659805705"><ele>675.0</ele><time>2026-04-11T15:52:12Z</time></trkpt><trkpt lat="45.94915351655775" lon="9.08357079568105"><ele>675.0</ele><time>2026-04-11T15:52:13Z</time></trkpt><trkpt lat="45.94906924741693" lon="9.083457583561712"><ele>675.0</ele><time>2026-04-11T15:52:14Z</time></trkpt><trkpt lat="45.94898361841252" lon="9.083348391129997"><ele>677.8333333333334</ele><time>2026-04-11T15:52:15Z</time></trkpt><trkpt lat="45.948912186966695" lon="9.083261179463317"><ele>680.6666666666666</ele><time>2026-04-11T15:52:16Z</time></trkpt><trkpt lat="45.94886708227032" lon="9.083194836610447"><ele>683.5</ele><time>2026-04-11T15:52:17Z</time></trkpt><trkpt lat="45.94879349332896" lon="9.083149358634435"><ele>686.3333333333333</ele><time>2026-04-11T15:52:19Z</time></trkpt><trkpt lat="45.948681560130794" lon="9.083101244561176"><ele>689.1666666666666</ele><time>2026-04-11T15:52:21Z</time></trkpt><trkpt lat="45.94860768926229" lon="9.083076732055892"><ele>692.0</ele><time>2026-04-11T15:52:22Z</time></trkpt><trkpt lat="45.94852880541947" lon="9.083051816450045"><ele>692.0</ele><time>2026-04-11T15:52:23Z</time></trkpt><trkpt lat="45.948446752686344" lon="9.083026607471659"><ele>692.0</ele><time>2026-04-11T15:52:24Z</time></trkpt><trkpt lat="45.948368606736324" lon="9.083028132729583"><ele>692.0</ele><time>2026-04-11T15:52:25Z</time></trkpt><trkpt lat="45.94829665125351" lon="9.082985119744137"><ele>692.0</ele><time>2026-04-11T15:52:26Z</time></trkpt><trkpt lat="45.948224055905214" lon="9.082989526706656"><ele>692.0</ele><time>2026-04-11T15:52:27Z</time></trkpt><trkpt lat="45.94815238730018" lon="9.082974904735236"><ele>692.0</ele><time>2026-04-11T15:52:28Z</time></trkpt><trkpt lat="45.94808334546812" lon="9.08293449564859"><ele>690.0</ele><time>2026-04-11T15:52:29Z</time></trkpt><trkpt lat="45.94802074262077" lon="9.082897623422255"><ele>688.0</ele><time>2026-04-11T15:52:30Z</time></trkpt><trkpt lat="45.94796073785834" lon="9.082860155687161"><ele>686.0</ele><time>2026-04-11T15:52:31Z</time></trkpt><trkpt lat="45.94784920154468" lon="9.082786946770304"><ele>684.0</ele><time>2026-04-11T15:52:33Z</time></trkpt><trkpt lat="45.947777577646804" lon="9.082737159753766"><ele>682.0</ele><time>2026-04-11T15:52:34Z</time></trkpt><trkpt lat="45.94769384556021" lon="9.082681562060447"><ele>680.0</ele><time>2026-04-11T15:52:36Z</time></trkpt><trkpt lat="45.947594197177814" lon="9.082733021236939"><ele>677.8</ele><time>2026-04-11T15:52:39Z</time></trkpt><trkpt lat="45.94751504111185" lon="9.08273302746935"><ele>675.6</ele><time>2026-04-11T15:52:41Z</time></trkpt><trkpt lat="45.94740846929887" lon="9.082728876523266"><ele>673.4000000000001</ele><time>2026-04-11T15:52:43Z</time></trkpt><trkpt lat="45.947313089862895" lon="9.082677278204791"><ele>671.2</ele><time>2026-04-11T15:52:45Z</time></trkpt><trkpt lat="45.947203644155245" lon="9.082583410169223"><ele>669.0</ele><time>2026-04-11T15:52:47Z</time></trkpt><trkpt lat="45.94714097437792" lon="9.08251409118973"><ele>669.0</ele><time>2026-04-11T15:52:48Z</time></trkpt><trkpt lat="45.94706763345612" lon="9.082443997629749"><ele>669.0</ele><time>2026-04-11T15:52:49Z</time></trkpt><trkpt lat="45.94699685212417" lon="9.08234586293024"><ele>669.0</ele><time>2026-04-11T15:52:50Z</time></trkpt><trkpt lat="45.94692911361873" lon="9.082259772107198"><ele>669.0</ele><time>2026-04-11T15:52:51Z</time></trkpt><trkpt lat="45.94687659828233" lon="9.08218481334715"><ele>669.0</ele><time>2026-04-11T15:52:52Z</time></trkpt><trkpt lat="45.94679451924002" lon="9.082081755688282"><ele>668.0</ele><time>2026-04-11T15:52:54Z</time></trkpt><trkpt lat="45.94671339466918" lon="9.082051259917781"><ele>667.0</ele><time>2026-04-11T15:52:56Z</time></trkpt><trkpt lat="45.946657646982096" lon="9.082149980141654"><ele>666.0</ele><time>2026-04-11T15:52:57.999Z</time></trkpt><trkpt lat="45.946625277081424" lon="9.082347877339588"><ele>665.0</ele><time>2026-04-11T15:52:59.999Z</time></trkpt><trkpt lat="45.946616085595906" lon="9.082461668079725"><ele>664.0</ele><time>2026-04-11T15:53:00.999Z</time></trkpt><trkpt lat="45.9466057075107" lon="9.082591566869747"><ele>661.5</ele><time>2026-04-11T15:53:01.999Z</time></trkpt><trkpt lat="45.94659497829962" lon="9.082709992959234"><ele>659.0</ele><time>2026-04-11T15:53:02.999Z</time></trkpt><trkpt lat="45.94658321601335" lon="9.08282847858446"><ele>656.5</ele><time>2026-04-11T15:53:03.999Z</time></trkpt><trkpt lat="45.94652261472251" lon="9.082921539194784"><ele>654.0</ele><time>2026-04-11T15:53:04.999Z</time></trkpt><trkpt lat="45.94647582060913" lon="9.083028297393117"><ele>651.5</ele><time>2026-04-11T15:53:05.999Z</time></trkpt><trkpt lat="45.94643948974086" lon="9.08315149105996"><ele>649.0</ele><time>2026-04-11T15:53:06.999Z</time></trkpt><trkpt lat="45.94638338294344" lon="9.083271614985955"><ele>646.3333333333334</ele><time>2026-04-11T15:53:07.999Z</time></trkpt><trkpt lat="45.94632817509005" lon="9.08338747800473"><ele>643.6666666666667</ele><time>2026-04-11T15:53:08.999Z</time></trkpt><trkpt lat="45.94625663443475" lon="9.083488326279905"><ele>641.0</ele><time>2026-04-11T15:53:09.999Z</time></trkpt><trkpt lat="45.94620229706908" lon="9.083585936898649"><ele>638.3333333333334</ele><time>2026-04-11T15:53:10.999Z</time></trkpt><trkpt lat="45.94616869543864" lon="9.083685447649309"><ele>635.6666666666666</ele><time>2026-04-11T15:53:11.999Z</time></trkpt><trkpt lat="45.94612290006578" lon="9.08376499101898"><ele>633.0</ele><time>2026-04-11T15:53:12.999Z</time></trkpt><trkpt lat="45.946067917208175" lon="9.083831723798815"><ele>633.0</ele><time>2026-04-11T15:53:13.999Z</time></trkpt><trkpt lat="45.94600796404286" lon="9.08388889535045"><ele>633.0</ele><time>2026-04-11T15:53:14.999Z</time></trkpt><trkpt lat="45.94594007131875" lon="9.083930799611107"><ele>633.0</ele><time>2026-04-11T15:53:15.999Z</time></trkpt><trkpt lat="45.94586921699177" lon="9.08395884892035"><ele>633.0</ele><time>2026-04-11T15:53:16.999Z</time></trkpt><trkpt lat="45.945803270498246" lon="9.083973313367993"><ele>633.0</ele><time>2026-04-11T15:53:17.999Z</time></trkpt><trkpt lat="45.94568881189805" lon="9.083956353890477"><ele>633.0</ele><time>2026-04-11T15:53:19.999Z</time></trkpt><trkpt lat="45.9455960975789" lon="9.083990574398948"><ele>628.6</ele><time>2026-04-11T15:53:21.999Z</time></trkpt><trkpt lat="45.94556572321079" lon="9.084108171612792"><ele>624.1999999999999</ele><time>2026-04-11T15:53:22.999Z</time></trkpt><trkpt lat="45.94554661178106" lon="9.08421696382905"><ele>619.8</ele><time>2026-04-11T15:53:23.999Z</time></trkpt><trkpt lat="45.94550360407795" lon="9.084342892153085"><ele>615.4</ele><time>2026-04-11T15:53:25.999Z</time></trkpt><trkpt lat="45.94545578037767" lon="9.08445378965881"><ele>611.0</ele><time>2026-04-11T15:53:26.999Z</time></trkpt><trkpt lat="45.94539493356074" lon="9.084567545093407"><ele>611.0</ele><time>2026-04-11T15:53:27.999Z</time></trkpt><trkpt lat="45.94533429708454" lon="9.084671188613637"><ele>611.0</ele><time>2026-04-11T15:53:28.999Z</time></trkpt><trkpt lat="45.94527771859803" lon="9.084764702349412"><ele>611.0</ele><time>2026-04-11T15:53:29.999Z</time></trkpt><trkpt lat="45.94522903651175" lon="9.084865266581163"><ele>611.0</ele><time>2026-04-11T15:53:30.999Z</time></trkpt><trkpt lat="45.94518129401979" lon="9.084941604700854"><ele>611.0</ele><time>2026-04-11T15:53:31.999Z</time></trkpt><trkpt lat="45.94512687910974" lon="9.0850060086755"><ele>611.0</ele><time>2026-04-11T15:53:32.999Z</time></trkpt><trkpt lat="45.945073167269484" lon="9.08507862691633"><ele>609.8333333333333</ele><time>2026-04-11T15:53:33.999Z</time></trkpt><trkpt lat="45.945022678920544" lon="9.085193766275886"><ele>608.6666666666666</ele><time>2026-04-11T15:53:34.999Z</time></trkpt><trkpt lat="45.9449740959553" lon="9.085312944155305"><ele>607.5</ele><time>2026-04-11T15:53:35.999Z</time></trkpt><trkpt lat="45.94493511035375" lon="9.085433296071146"><ele>606.3333333333334</ele><time>2026-04-11T15:53:36.999Z</time></trkpt><trkpt lat="45.94489764421133" lon="9.08554765313998"><ele>605.1666666666667</ele><time>2026-04-11T15:53:37.999Z</time></trkpt><trkpt lat="45.94484734761313" lon="9.085627509086397"><ele>604.0</ele><time>2026-04-11T15:53:38.999Z</time></trkpt><trkpt lat="45.94482221298393" lon="9.08572562402913"><ele>599.8</ele><time>2026-04-11T15:53:39.999Z</time></trkpt><trkpt lat="45.94477457614053" lon="9.085799079784227"><ele>595.5999999999999</ele><time>2026-04-11T15:53:40.999Z</time></trkpt><trkpt lat="45.94469928329145" lon="9.08593277343777"><ele>591.4</ele><time>2026-04-11T15:53:42.999Z</time></trkpt><trkpt lat="45.944569694256884" lon="9.085973801067121"><ele>587.1999999999999</ele><time>2026-04-11T15:53:44.999Z</time></trkpt><trkpt lat="45.94449525160081" lon="9.086005510673035"><ele>583.0</ele><time>2026-04-11T15:53:45.999Z</time></trkpt><trkpt lat="45.94442077080006" lon="9.08601460147524"><ele>583.0</ele><time>2026-04-11T15:53:46.999Z</time></trkpt><trkpt lat="45.944355219688326" lon="9.08603039717923"><ele>583.0</ele><time>2026-04-11T15:53:47.999Z</time></trkpt><trkpt lat="45.94425733230389" lon="9.086125064606774"><ele>583.0</ele><time>2026-04-11T15:53:49.999Z</time></trkpt><trkpt lat="45.944199247701775" lon="9.08617101965469"><ele>583.0</ele><time>2026-04-11T15:53:50.999Z</time></trkpt><trkpt lat="45.94411795171577" lon="9.086206725329468"><ele>583.0</ele><time>2026-04-11T15:53:51.999Z</time></trkpt><trkpt lat="45.94402386581693" lon="9.0862268413456"><ele>583.0</ele><time>2026-04-11T15:53:52.999Z</time></trkpt><trkpt lat="45.9439450312467" lon="9.086251743925896"><ele>585.3333333333334</ele><time>2026-04-11T15:53:53.999Z</time></trkpt><trkpt lat="45.94387458200341" lon="9.086293141561633"><ele>587.6666666666667</ele><time>2026-04-11T15:53:54.999Z</time></trkpt><trkpt lat="45.94381062304189" lon="9.086347726834987"><ele>590.0</ele><time>2026-04-11T15:53:55.999Z</time></trkpt><trkpt lat="45.94375276541234" lon="9.086405280674562"><ele>592.3333333333334</ele><time>2026-04-11T15:53:57Z</time></trkpt><trkpt lat="45.94368509156376" lon="9.086469385970531"><ele>594.6666666666666</ele><time>2026-04-11T15:53:58Z</time></trkpt><trkpt lat="45.943612896204115" lon="9.086531553978624"><ele>597.0</ele><time>2026-04-11T15:53:59Z</time></trkpt><trkpt lat="45.9435509977769" lon="9.086566952585324"><ele>595.0</ele><time>2026-04-11T15:54:00Z</time></trkpt><trkpt lat="45.94344674893791" lon="9.086607832001766"><ele>593.0</ele><time>2026-04-11T15:54:02Z</time></trkpt><trkpt lat="45.9433781334411" lon="9.086651511902188"><ele>591.0</ele><time>2026-04-11T15:54:04Z</time></trkpt><trkpt lat="45.943288226072966" lon="9.08661731247233"><ele>589.0</ele><time>2026-04-11T15:54:09Z</time></trkpt><trkpt lat="45.943199231701456" lon="9.08663173386433"><ele>587.0</ele><time>2026-04-11T15:54:11Z</time></trkpt><trkpt lat="45.94308406195585" lon="9.086681928261262"><ele>587.0</ele><time>2026-04-11T15:54:13Z</time></trkpt><trkpt lat="45.943015055502975" lon="9.086713512416395"><ele>587.0</ele><time>2026-04-11T15:54:14Z</time></trkpt><trkpt lat="45.942944895336296" lon="9.086693442636694"><ele>587.0</ele><time>2026-04-11T15:54:15Z</time></trkpt><trkpt lat="45.94287435459503" lon="9.086688630647709"><ele>587.0</ele><time>2026-04-11T15:54:16Z</time></trkpt><trkpt lat="45.942798301475634" lon="9.086682377110035"><ele>587.0</ele><time>2026-04-11T15:54:17Z</time></trkpt><trkpt lat="45.9427151239688" lon="9.086688784206395"><ele>587.0</ele><time>2026-04-11T15:54:18Z</time></trkpt><trkpt lat="45.942636864943054" lon="9.086683832812984"><ele>587.0</ele><time>2026-04-11T15:54:19Z</time></trkpt><trkpt lat="45.94255008250471" lon="9.086682432700304"><ele>587.0</ele><time>2026-04-11T15:54:20Z</time></trkpt><trkpt lat="45.942466349947296" lon="9.086673986108122"><ele>587.0</ele><time>2026-04-11T15:54:21Z</time></trkpt><trkpt lat="45.942379951850754" lon="9.086662175624685"><ele>587.0</ele><time>2026-04-11T15:54:22Z</time></trkpt><trkpt lat="45.942299077635745" lon="9.086653705489718"><ele>587.0</ele><time>2026-04-11T15:54:23Z</time></trkpt><trkpt lat="45.942216520007165" lon="9.086647528145978"><ele>587.0</ele><time>2026-04-11T15:54:24Z</time></trkpt><trkpt lat="45.94214060674837" lon="9.08663506129621"><ele>589.3333333333333</ele><time>2026-04-11T15:54:25Z</time></trkpt><trkpt lat="45.94207022804055" lon="9.086619138315982"><ele>591.6666666666666</ele><time>2026-04-11T15:54:26Z</time></trkpt><trkpt lat="45.94199448832981" lon="9.086598172483463"><ele>594.0</ele><time>2026-04-11T15:54:27Z</time></trkpt><trkpt lat="45.941914001501466" lon="9.086577846067698"><ele>596.3333333333334</ele><time>2026-04-11T15:54:28Z</time></trkpt><trkpt lat="45.941827276315216" lon="9.086557394079115"><ele>598.6666666666667</ele><time>2026-04-11T15:54:29Z</time></trkpt><trkpt lat="45.94174473361199" lon="9.086522874719536"><ele>601.0</ele><time>2026-04-11T15:54:30Z</time></trkpt><trkpt lat="45.94166105222797" lon="9.086474209880736"><ele>603.5</ele><time>2026-04-11T15:54:31Z</time></trkpt><trkpt lat="45.941582393549034" lon="9.086416311274954"><ele>606.0</ele><time>2026-04-11T15:54:32Z</time></trkpt><trkpt lat="45.94151194297352" lon="9.08634119086282"><ele>608.5</ele><time>2026-04-11T15:54:33Z</time></trkpt><trkpt lat="45.941448577908176" lon="9.086261466437858"><ele>611.0</ele><time>2026-04-11T15:54:34Z</time></trkpt><trkpt lat="45.941391620078186" lon="9.086189936652218"><ele>613.5</ele><time>2026-04-11T15:54:35Z</time></trkpt><trkpt lat="45.941339516590894" lon="9.086123408567433"><ele>616.0</ele><time>2026-04-11T15:54:36Z</time></trkpt><trkpt lat="45.94128515679501" lon="9.086055604125251"><ele>616.0</ele><time>2026-04-11T15:54:37Z</time></trkpt><trkpt lat="45.94122056102082" lon="9.085918894945145"><ele>616.0</ele><time>2026-04-11T15:54:39Z</time></trkpt><trkpt lat="45.94117752881728" lon="9.085831409118368"><ele>616.0</ele><time>2026-04-11T15:54:41Z</time></trkpt><trkpt lat="45.94113281350535" lon="9.085924189250585"><ele>616.0</ele><time>2026-04-11T15:54:46Z</time></trkpt><trkpt lat="45.94119264537548" lon="9.086033789592841"><ele>616.0</ele><time>2026-04-11T15:54:48Z</time></trkpt><trkpt lat="45.94118307830168" lon="9.08612826502063"><ele>616.0</ele><time>2026-04-11T15:54:49Z</time></trkpt><trkpt lat="45.941192725160114" lon="9.086223840877999"><ele>616.0</ele><time>2026-04-11T15:54:49.999Z</time></trkpt><trkpt lat="45.941223146899674" lon="9.086319014713768"><ele>616.0</ele><time>2026-04-11T15:54:50.999Z</time></trkpt><trkpt lat="45.9412460728866" lon="9.086418050586701"><ele>616.0</ele><time>2026-04-11T15:54:51.999Z</time></trkpt><trkpt lat="45.94128183022718" lon="9.086510845032421"><ele>616.0</ele><time>2026-04-11T15:54:52.999Z</time></trkpt><trkpt lat="45.941323738859836" lon="9.086597595899272"><ele>616.0</ele><time>2026-04-11T15:54:53.999Z</time></trkpt><trkpt lat="45.9413656515907" lon="9.086678702390223"><ele>616.0</ele><time>2026-04-11T15:54:54.999Z</time></trkpt><trkpt lat="45.94141466320224" lon="9.086765504318034"><ele>616.0</ele><time>2026-04-11T15:54:55.999Z</time></trkpt><trkpt lat="45.941449523852285" lon="9.086855814459435"><ele>613.4</ele><time>2026-04-11T15:54:56.999Z</time></trkpt><trkpt lat="45.94151270445401" lon="9.086911997933209"><ele>610.8</ele><time>2026-04-11T15:54:57.999Z</time></trkpt><trkpt lat="45.941607370986425" lon="9.086996083774064"><ele>608.1999999999999</ele><time>2026-04-11T15:54:59.999Z</time></trkpt><trkpt lat="45.94167854967667" lon="9.087089211757075"><ele>605.6</ele><time>2026-04-11T15:55:01.999Z</time></trkpt><trkpt lat="45.941757499754914" lon="9.08716274930134"><ele>603.0</ele><time>2026-04-11T15:55:03.999Z</time></trkpt><trkpt lat="45.94183293933847" lon="9.087291638853637"><ele>602.6</ele><time>2026-04-11T15:55:05.999Z</time></trkpt><trkpt lat="45.94192491805898" lon="9.087405196129337"><ele>602.1999999999999</ele><time>2026-04-11T15:55:07.999Z</time></trkpt><trkpt lat="45.9419861925385" lon="9.087434858956188"><ele>601.8</ele><time>2026-04-11T15:55:08.999Z</time></trkpt><trkpt lat="45.94210643401609" lon="9.087455991871543"><ele>601.4</ele><time>2026-04-11T15:55:10.999Z</time></trkpt><trkpt lat="45.9422254641338" lon="9.0874394303907"><ele>601.0</ele><time>2026-04-11T15:55:12.999Z</time></trkpt><trkpt lat="45.94234540366744" lon="9.087433699334314"><ele>601.0</ele><time>2026-04-11T15:55:14.999Z</time></trkpt><trkpt lat="45.94243982039" lon="9.087404947428416"><ele>601.0</ele><time>2026-04-11T15:55:16.999Z</time></trkpt><trkpt lat="45.94251514974515" lon="9.087443992287962"><ele>601.0</ele><time>2026-04-11T15:55:19.999Z</time></trkpt><trkpt lat="45.94251072959257" lon="9.087563330768445"><ele>601.0</ele><time>2026-04-11T15:55:21.999Z</time></trkpt><trkpt lat="45.942426723777295" lon="9.087606253859228"><ele>601.0</ele><time>2026-04-11T15:55:23.999Z</time></trkpt><trkpt lat="45.942329497331826" lon="9.087678969806205"><ele>597.0</ele><time>2026-04-11T15:55:25.999Z</time></trkpt><trkpt lat="45.942267065253816" lon="9.087728396540943"><ele>593.0</ele><time>2026-04-11T15:55:26.999Z</time></trkpt><trkpt lat="45.94220947447132" lon="9.087801444689521"><ele>589.0</ele><time>2026-04-11T15:55:27.999Z</time></trkpt><trkpt lat="45.94213898952791" lon="9.087848117910589"><ele>585.0</ele><time>2026-04-11T15:55:28.999Z</time></trkpt><trkpt lat="45.94207533213522" lon="9.08790589580395"><ele>581.0</ele><time>2026-04-11T15:55:29.999Z</time></trkpt><trkpt lat="45.94200600706761" lon="9.087961288914773"><ele>577.0</ele><time>2026-04-11T15:55:30.999Z</time></trkpt><trkpt lat="45.941937740921624" lon="9.08801707959061"><ele>577.0</ele><time>2026-04-11T15:55:31.999Z</time></trkpt><trkpt lat="45.94188096051984" lon="9.088066449950933"><ele>577.0</ele><time>2026-04-11T15:55:32.999Z</time></trkpt><trkpt lat="45.94178382204017" lon="9.088156731886821"><ele>577.0</ele><time>2026-04-11T15:55:34.999Z</time></trkpt><trkpt lat="45.94165824034199" lon="9.08818802112921"><ele>577.0</ele><time>2026-04-11T15:55:36.999Z</time></trkpt><trkpt lat="45.94153913525679" lon="9.088166141004441"><ele>577.0</ele><time>2026-04-11T15:55:38.999Z</time></trkpt><trkpt lat="45.94146824272327" lon="9.088132790284988"><ele>577.1666666666667</ele><time>2026-04-11T15:55:39.999Z</time></trkpt><trkpt lat="45.941398792251185" lon="9.08809454928154"><ele>577.3333333333334</ele><time>2026-04-11T15:55:40.999Z</time></trkpt><trkpt lat="45.94128255342056" lon="9.0880207893684"><ele>577.5</ele><time>2026-04-11T15:55:42.999Z</time></trkpt><trkpt lat="45.94123125737932" lon="9.08796529725083"><ele>577.6666666666666</ele><time>2026-04-11T15:55:43.999Z</time></trkpt><trkpt lat="45.941181506775315" lon="9.08788570479855"><ele>577.8333333333333</ele><time>2026-04-11T15:55:44.999Z</time></trkpt><trkpt lat="45.941123611433774" lon="9.087799605903342"><ele>578.0</ele><time>2026-04-11T15:55:45.999Z</time></trkpt><trkpt lat="45.941062496983456" lon="9.087711088620127"><ele>578.0</ele><time>2026-04-11T15:55:46.999Z</time></trkpt><trkpt lat="45.94099927986231" lon="9.087645248069567"><ele>578.0</ele><time>2026-04-11T15:55:47.999Z</time></trkpt><trkpt lat="45.94093079539434" lon="9.087513484844354"><ele>578.0</ele><time>2026-04-11T15:55:49.999Z</time></trkpt><trkpt lat="45.94087882487948" lon="9.087451134873897"><ele>578.0</ele><time>2026-04-11T15:55:50.999Z</time></trkpt><trkpt lat="45.94082982688578" lon="9.087379795114906"><ele>578.0</ele><time>2026-04-11T15:55:51.999Z</time></trkpt><trkpt lat="45.94074216101643" lon="9.08728726918576"><ele>578.0</ele><time>2026-04-11T15:55:53.999Z</time></trkpt><trkpt lat="45.94068618465869" lon="9.087240306779309"><ele>578.6</ele><time>2026-04-11T15:55:55.999Z</time></trkpt><trkpt lat="45.94064116403998" lon="9.087145326801132"><ele>579.1999999999999</ele><time>2026-04-11T15:56:01.999Z</time></trkpt><trkpt lat="45.94060063885313" lon="9.087048084113412"><ele>579.8</ele><time>2026-04-11T15:56:03Z</time></trkpt><trkpt lat="45.94054126867126" lon="9.086937409712545"><ele>580.4</ele><time>2026-04-11T15:56:04Z</time></trkpt><trkpt lat="45.94048972450768" lon="9.086819261376014"><ele>581.0</ele><time>2026-04-11T15:56:05Z</time></trkpt><trkpt lat="45.94042158583756" lon="9.086703601693888"><ele>587.0</ele><time>2026-04-11T15:56:06Z</time></trkpt><trkpt lat="45.94033429179146" lon="9.086588733259756"><ele>593.0</ele><time>2026-04-11T15:56:07Z</time></trkpt><trkpt lat="45.940242236941245" lon="9.086478139459908"><ele>599.0</ele><time>2026-04-11T15:56:08Z</time></trkpt><trkpt lat="45.94015126911509" lon="9.08636630542729"><ele>605.0</ele><time>2026-04-11T15:56:09Z</time></trkpt><trkpt lat="45.940078935692455" lon="9.086220871779538"><ele>602.5</ele><time>2026-04-11T15:56:10Z</time></trkpt><trkpt lat="45.940030897769844" lon="9.08603544620559"><ele>600.0</ele><time>2026-04-11T15:56:11Z</time></trkpt><trkpt lat="45.939961328896196" lon="9.085864543615513"><ele>597.5</ele><time>2026-04-11T15:56:12Z</time></trkpt><trkpt lat="45.939903874679466" lon="9.085715312811534"><ele>595.0</ele><time>2026-04-11T15:56:13Z</time></trkpt><trkpt lat="45.939848131201195" lon="9.08562037537256"><ele>595.0</ele><time>2026-04-11T15:56:14Z</time></trkpt><trkpt lat="45.93977379577256" lon="9.08557279322395"><ele>595.0</ele><time>2026-04-11T15:56:15Z</time></trkpt><trkpt lat="45.93969287170987" lon="9.085568793578652"><ele>595.0</ele><time>2026-04-11T15:56:16Z</time></trkpt><trkpt lat="45.939608863744155" lon="9.085599401521327"><ele>595.0</ele><time>2026-04-11T15:56:17Z</time></trkpt><trkpt lat="45.939505896458954" lon="9.085634518878955"><ele>595.0</ele><time>2026-04-11T15:56:18Z</time></trkpt><trkpt lat="45.9394256807182" lon="9.085668422863556"><ele>595.0</ele><time>2026-04-11T15:56:19Z</time></trkpt><trkpt lat="45.93937009514175" lon="9.085746850506712"><ele>589.25</ele><time>2026-04-11T15:56:20Z</time></trkpt><trkpt lat="45.939331019743435" lon="9.085891381399865"><ele>583.5</ele><time>2026-04-11T15:56:21Z</time></trkpt><trkpt lat="45.939285701006106" lon="9.086049726671202"><ele>577.75</ele><time>2026-04-11T15:56:22Z</time></trkpt><trkpt lat="45.93922672500091" lon="9.08621055349955"><ele>572.0</ele><time>2026-04-11T15:56:23Z</time></trkpt><trkpt lat="45.939156146213946" lon="9.086370218331561"><ele>572.0</ele><time>2026-04-11T15:56:24Z</time></trkpt><trkpt lat="45.939075253948204" lon="9.08652518743224"><ele>572.0</ele><time>2026-04-11T15:56:25Z</time></trkpt><trkpt lat="45.939006292475014" lon="9.086675677417855"><ele>572.0</ele><time>2026-04-11T15:56:26Z</time></trkpt><trkpt lat="45.93896830486367" lon="9.08683406361509"><ele>572.0</ele><time>2026-04-11T15:56:27Z</time></trkpt><trkpt lat="45.938952226092006" lon="9.087004985348258"><ele>570.75</ele><time>2026-04-11T15:56:28Z</time></trkpt><trkpt lat="45.93894192087796" lon="9.087189359149779"><ele>569.5</ele><time>2026-04-11T15:56:29Z</time></trkpt><trkpt lat="45.93888910519181" lon="9.087368445226064"><ele>568.25</ele><time>2026-04-11T15:56:30Z</time></trkpt><trkpt lat="45.93883735398979" lon="9.087559144421206"><ele>567.0</ele><time>2026-04-11T15:56:31Z</time></trkpt><trkpt lat="45.93881685425444" lon="9.087760367385123"><ele>563.25</ele><time>2026-04-11T15:56:32Z</time></trkpt><trkpt lat="45.938780280255294" lon="9.08794925591485"><ele>559.5</ele><time>2026-04-11T15:56:33Z</time></trkpt><trkpt lat="45.93878855872084" lon="9.08814981247951"><ele>555.75</ele><time>2026-04-11T15:56:34Z</time></trkpt><trkpt lat="45.938788963199585" lon="9.08834884485961"><ele>552.0</ele><time>2026-04-11T15:56:35Z</time></trkpt><trkpt lat="45.93882737359463" lon="9.088510078787763"><ele>550.0</ele><time>2026-04-11T15:56:36Z</time></trkpt><trkpt lat="45.93884105030336" lon="9.088661345278718"><ele>548.0</ele><time>2026-04-11T15:56:37Z</time></trkpt><trkpt lat="45.93878794247459" lon="9.088790296223209"><ele>546.0</ele><time>2026-04-11T15:56:38Z</time></trkpt><trkpt lat="45.938737474260364" lon="9.08895466839025"><ele>544.0</ele><time>2026-04-11T15:56:39Z</time></trkpt><trkpt lat="45.93866140650633" lon="9.089108388360284"><ele>542.75</ele><time>2026-04-11T15:56:40Z</time></trkpt><trkpt lat="45.938613424690395" lon="9.089277592413811"><ele>541.5</ele><time>2026-04-11T15:56:41Z</time></trkpt><trkpt lat="45.93860939771598" lon="9.089456263427264"><ele>540.25</ele><time>2026-04-11T15:56:42Z</time></trkpt><trkpt lat="45.93860795126672" lon="9.089652187521528"><ele>539.0</ele><time>2026-04-11T15:56:43Z</time></trkpt><trkpt lat="45.93862054791732" lon="9.08984930993272"><ele>538.75</ele><time>2026-04-11T15:56:43.999Z</time></trkpt><trkpt lat="45.93862193259222" lon="9.090026304332996"><ele>538.5</ele><time>2026-04-11T15:56:44.999Z</time></trkpt><trkpt lat="45.9386102298044" lon="9.090207864542114"><ele>538.25</ele><time>2026-04-11T15:56:45.999Z</time></trkpt><trkpt lat="45.93855042712692" lon="9.09037627986387"><ele>538.0</ele><time>2026-04-11T15:56:46.999Z</time></trkpt><trkpt lat="45.93851163842533" lon="9.090542390788912"><ele>538.0</ele><time>2026-04-11T15:56:47.999Z</time></trkpt><trkpt lat="45.93853690281357" lon="9.090741005074191"><ele>538.0</ele><time>2026-04-11T15:56:48.999Z</time></trkpt><trkpt lat="45.93856735888211" lon="9.090952065455925"><ele>538.0</ele><time>2026-04-11T15:56:49.999Z</time></trkpt><trkpt lat="45.93858681276188" lon="9.091162443910338"><ele>538.0</ele><time>2026-04-11T15:56:50.999Z</time></trkpt><trkpt lat="45.938605609915406" lon="9.091347013479002"><ele>537.25</ele><time>2026-04-11T15:56:51.999Z</time></trkpt><trkpt lat="45.938601199854915" lon="9.091529769139921"><ele>536.5</ele><time>2026-04-11T15:56:52.999Z</time></trkpt><trkpt lat="45.93858072100856" lon="9.091727460025934"><ele>535.75</ele><time>2026-04-11T15:56:53.999Z</time></trkpt><trkpt lat="45.93852355059753" lon="9.091932778796874"><ele>535.0</ele><time>2026-04-11T15:56:54.999Z</time></trkpt><trkpt lat="45.93848019013187" lon="9.092139423059116"><ele>535.0</ele><time>2026-04-11T15:56:55.999Z</time></trkpt><trkpt lat="45.938436526375746" lon="9.092320008930729"><ele>535.0</ele><time>2026-04-11T15:56:56.999Z</time></trkpt><trkpt lat="45.93837248806552" lon="9.09245921093571"><ele>535.0</ele><time>2026-04-11T15:56:58Z</time></trkpt><trkpt lat="45.938289728779814" lon="9.092570798453432"><ele>535.0</ele><time>2026-04-11T15:56:59Z</time></trkpt><trkpt lat="45.93818129097459" lon="9.09266591312383"><ele>547.25</ele><time>2026-04-11T15:57:00Z</time></trkpt><trkpt lat="45.938079650947074" lon="9.092762310081135"><ele>559.5</ele><time>2026-04-11T15:57:01Z</time></trkpt><trkpt lat="45.93799924008539" lon="9.092863806075467"><ele>571.75</ele><time>2026-04-11T15:57:02Z</time></trkpt><trkpt lat="45.93794486113588" lon="9.093008247077462"><ele>584.0</ele><time>2026-04-11T15:57:03Z</time></trkpt><trkpt lat="45.93791283128909" lon="9.093185168015708"><ele>580.2</ele><time>2026-04-11T15:57:04Z</time></trkpt><trkpt lat="45.93788893931776" lon="9.093364352979938"><ele>576.4</ele><time>2026-04-11T15:57:05Z</time></trkpt><trkpt lat="45.937851706798014" lon="9.093511331162093"><ele>572.6</ele><time>2026-04-11T15:57:06Z</time></trkpt><trkpt lat="45.93781236825721" lon="9.093606791806973"><ele>568.8</ele><time>2026-04-11T15:57:07Z</time></trkpt><trkpt lat="45.93777164299073" lon="9.093706093556165"><ele>565.0</ele><time>2026-04-11T15:57:08Z</time></trkpt><trkpt lat="45.937664528650075" lon="9.093749947492263"><ele>565.0</ele><time>2026-04-11T15:57:09Z</time></trkpt><trkpt lat="45.937557476253254" lon="9.093835996964401"><ele>565.0</ele><time>2026-04-11T15:57:10Z</time></trkpt><trkpt lat="45.93743542216579" lon="9.093931689578934"><ele>565.0</ele><time>2026-04-11T15:57:11Z</time></trkpt><trkpt lat="45.937301123796374" lon="9.094019726638551"><ele>565.0</ele><time>2026-04-11T15:57:12Z</time></trkpt><trkpt lat="45.937159478145425" lon="9.09410161127749"><ele>569.0</ele><time>2026-04-11T15:57:13Z</time></trkpt><trkpt lat="45.937025988465024" lon="9.094218111313761"><ele>573.0</ele><time>2026-04-11T15:57:14Z</time></trkpt><trkpt lat="45.93689142690262" lon="9.09435270536449"><ele>577.0</ele><time>2026-04-11T15:57:15Z</time></trkpt><trkpt lat="45.93677144876472" lon="9.094522854826657"><ele>587.0</ele><time>2026-04-11T15:57:16Z</time></trkpt><trkpt lat="45.9366345030243" lon="9.094655351018478"><ele>597.0</ele><time>2026-04-11T15:57:17Z</time></trkpt><trkpt lat="45.9364964464528" lon="9.094788351834637"><ele>607.0</ele><time>2026-04-11T15:57:18Z</time></trkpt><trkpt lat="45.93636388142493" lon="9.094915815525583"><ele>597.6666666666667</ele><time>2026-04-11T15:57:19Z</time></trkpt><trkpt lat="45.93622741577102" lon="9.09505079965366"><ele>588.3333333333334</ele><time>2026-04-11T15:57:20Z</time></trkpt><trkpt lat="45.936115492104655" lon="9.095192730500465"><ele>579.0</ele><time>2026-04-11T15:57:21Z</time></trkpt><trkpt lat="45.936010952681045" lon="9.095327398236316"><ele>579.0</ele><time>2026-04-11T15:57:22Z</time></trkpt><trkpt lat="45.93593878956286" lon="9.095505706667492"><ele>579.0</ele><time>2026-04-11T15:57:23Z</time></trkpt><trkpt lat="45.935886921719046" lon="9.095698917088663"><ele>579.0</ele><time>2026-04-11T15:57:24Z</time></trkpt><trkpt lat="45.93580080210526" lon="9.095829537337345"><ele>579.0</ele><time>2026-04-11T15:57:25Z</time></trkpt><trkpt lat="45.935703928279146" lon="9.09589630864663"><ele>580.0</ele><time>2026-04-11T15:57:26Z</time></trkpt><trkpt lat="45.93558487302269" lon="9.095958285058678"><ele>581.0</ele><time>2026-04-11T15:57:27Z</time></trkpt><trkpt lat="45.93546108374039" lon="9.096051698529525"><ele>582.0</ele><time>2026-04-11T15:57:28Z</time></trkpt><trkpt lat="45.93532027904804" lon="9.096145416067401"><ele>583.0</ele><time>2026-04-11T15:57:29Z</time></trkpt><trkpt lat="45.935198274746945" lon="9.096276928279284"><ele>583.0</ele><time>2026-04-11T15:57:30Z</time></trkpt><trkpt lat="45.93508013357384" lon="9.096430439314174"><ele>583.0</ele><time>2026-04-11T15:57:31Z</time></trkpt><trkpt lat="45.93496725339226" lon="9.096585236245325"><ele>583.0</ele><time>2026-04-11T15:57:32Z</time></trkpt><trkpt lat="45.9348529759657" lon="9.096711926439442"><ele>585.0</ele><time>2026-04-11T15:57:33Z</time></trkpt><trkpt lat="45.93475650010182" lon="9.096825686815835"><ele>587.0</ele><time>2026-04-11T15:57:34Z</time></trkpt><trkpt lat="45.93465875694012" lon="9.09691331629467"><ele>589.0</ele><time>2026-04-11T15:57:35Z</time></trkpt><trkpt lat="45.934529527797714" lon="9.096899055890031"><ele>591.0</ele><time>2026-04-11T15:57:36Z</time></trkpt><trkpt lat="45.93439325547993" lon="9.096938089693007"><ele>591.0</ele><time>2026-04-11T15:57:37Z</time></trkpt><trkpt lat="45.93425185769553" lon="9.09695897582097"><ele>591.0</ele><time>2026-04-11T15:57:38Z</time></trkpt><trkpt lat="45.93411660505133" lon="9.096979377387413"><ele>591.0</ele><time>2026-04-11T15:57:39Z</time></trkpt><trkpt lat="45.93399385803369" lon="9.096976887310031"><ele>591.0</ele><time>2026-04-11T15:57:40Z</time></trkpt><trkpt lat="45.933887250374475" lon="9.09690951763123"><ele>596.0</ele><time>2026-04-11T15:57:41Z</time></trkpt><trkpt lat="45.93378445048572" lon="9.096833142157983"><ele>601.0</ele><time>2026-04-11T15:57:42Z</time></trkpt><trkpt lat="45.93368571567013" lon="9.096722457367395"><ele>606.0</ele><time>2026-04-11T15:57:43Z</time></trkpt><trkpt lat="45.9335783768716" lon="9.096594361878354"><ele>611.0</ele><time>2026-04-11T15:57:44Z</time></trkpt><trkpt lat="45.9334474428461" lon="9.096517894871257"><ele>616.0</ele><time>2026-04-11T15:57:45Z</time></trkpt><trkpt lat="45.933299141668265" lon="9.096492134848916"><ele>621.0</ele><time>2026-04-11T15:57:46Z</time></trkpt><trkpt lat="45.93315271760344" lon="9.096435961439036"><ele>626.0</ele><time>2026-04-11T15:57:47Z</time></trkpt><trkpt lat="45.93300845200441" lon="9.096375984881464"><ele>626.0</ele><time>2026-04-11T15:57:48Z</time></trkpt><trkpt lat="45.932865492417754" lon="9.096310605339903"><ele>626.0</ele><time>2026-04-11T15:57:49Z</time></trkpt><trkpt lat="45.93274874606492" lon="9.096166993751439"><ele>626.0</ele><time>2026-04-11T15:57:50Z</time></trkpt><trkpt lat="45.932618601879724" lon="9.096106203151793"><ele>626.0</ele><time>2026-04-11T15:57:51Z</time></trkpt><trkpt lat="45.93245817269776" lon="9.096054441969338"><ele>622.6</ele><time>2026-04-11T15:57:52Z</time></trkpt><trkpt lat="45.93230681882049" lon="9.096025776241145"><ele>619.2</ele><time>2026-04-11T15:57:53Z</time></trkpt><trkpt lat="45.93218554002799" lon="9.095999571499458"><ele>615.8</ele><time>2026-04-11T15:57:54Z</time></trkpt><trkpt lat="45.932090486948276" lon="9.095974561000777"><ele>612.4</ele><time>2026-04-11T15:58:07Z</time></trkpt><trkpt lat="45.93202197607556" lon="9.095949230727408"><ele>609.0</ele><time>2026-04-11T15:58:08Z</time></trkpt><trkpt lat="45.931928171040425" lon="9.09592485349303"><ele>609.0</ele><time>2026-04-11T15:58:09.001Z</time></trkpt><trkpt lat="45.9318331385256" lon="9.09591643023062"><ele>609.0</ele><time>2026-04-11T15:58:10.001Z</time></trkpt><trkpt lat="45.9317279373289" lon="9.095924970599295"><ele>609.0</ele><time>2026-04-11T15:58:11.001Z</time></trkpt><trkpt lat="45.93160766002795" lon="9.095948349528866"><ele>609.0</ele><time>2026-04-11T15:58:12.001Z</time></trkpt><trkpt lat="45.93147620864608" lon="9.095982135729107"><ele>608.0</ele><time>2026-04-11T15:58:13.001Z</time></trkpt><trkpt lat="45.93134928975123" lon="9.095999087075423"><ele>607.0</ele><time>2026-04-11T15:58:14.001Z</time></trkpt><trkpt lat="45.93121214072308" lon="9.095993501251538"><ele>606.0</ele><time>2026-04-11T15:58:15.001Z</time></trkpt><trkpt lat="45.931069464016204" lon="9.09595028569017"><ele>605.0</ele><time>2026-04-11T15:58:16.001Z</time></trkpt><trkpt lat="45.9309287674438" lon="9.095887969880797"><ele>604.75</ele><time>2026-04-11T15:58:17.001Z</time></trkpt><trkpt lat="45.93080134947703" lon="9.09583655196706"><ele>604.5</ele><time>2026-04-11T15:58:18.001Z</time></trkpt><trkpt lat="45.930682098575936" lon="9.095796485327448"><ele>604.25</ele><time>2026-04-11T15:58:19.001Z</time></trkpt><trkpt lat="45.930574445872004" lon="9.095767424921425"><ele>604.0</ele><time>2026-04-11T15:58:20.001Z</time></trkpt><trkpt lat="45.93046882934361" lon="9.09574840919141"><ele>607.8333333333334</ele><time>2026-04-11T15:58:21.001Z</time></trkpt><trkpt lat="45.9303682761983" lon="9.09571363129579"><ele>611.6666666666667</ele><time>2026-04-11T15:58:22.001Z</time></trkpt><trkpt lat="45.93027623400717" lon="9.095706050756595"><ele>615.5</ele><time>2026-04-11T15:58:23.001Z</time></trkpt><trkpt lat="45.930189611921925" lon="9.095711100987439"><ele>619.3333333333334</ele><time>2026-04-11T15:58:24.001Z</time></trkpt><trkpt lat="45.93011244224232" lon="9.095705924065017"><ele>623.1666666666666</ele><time>2026-04-11T15:58:25.001Z</time></trkpt><trkpt lat="45.930043710958536" lon="9.095700257085586"><ele>627.0</ele><time>2026-04-11T15:58:26.001Z</time></trkpt><trkpt lat="45.92995401126285" lon="9.095723188773823"><ele>623.0</ele><time>2026-04-11T15:58:28.001Z</time></trkpt><trkpt lat="45.929916335869216" lon="9.095814599833382"><ele>619.0</ele><time>2026-04-11T15:58:30.001Z</time></trkpt><trkpt lat="45.929957884130495" lon="9.096005752107361"><ele>615.0</ele><time>2026-04-11T15:58:32.001Z</time></trkpt><trkpt lat="45.92994547063494" lon="9.096125473989"><ele>611.0</ele><time>2026-04-11T15:58:33.001Z</time></trkpt><trkpt lat="45.929941914599354" lon="9.096244188712118"><ele>607.0</ele><time>2026-04-11T15:58:34.001Z</time></trkpt><trkpt lat="45.929938710930976" lon="9.096345325522405"><ele>607.0</ele><time>2026-04-11T15:58:35.001Z</time></trkpt><trkpt lat="45.929950097111266" lon="9.096444048972652"><ele>607.0</ele><time>2026-04-11T15:58:36.001Z</time></trkpt><trkpt lat="45.9299384673459" lon="9.096539310970591"><ele>607.0</ele><time>2026-04-11T15:58:37.001Z</time></trkpt><trkpt lat="45.929933421052034" lon="9.096630308432157"><ele>607.0</ele><time>2026-04-11T15:58:38.001Z</time></trkpt><trkpt lat="45.92992133553245" lon="9.096766763325448"><ele>607.0</ele><time>2026-04-11T15:58:40Z</time></trkpt><trkpt lat="45.92991296053811" lon="9.096886269695869"><ele>607.0</ele><time>2026-04-11T15:58:47Z</time></trkpt><trkpt lat="45.92976110280893" lon="9.096886819598504"><ele>604.5</ele><time>2026-04-11T15:58:49Z</time></trkpt><trkpt lat="45.92969201649459" lon="9.096915724541706"><ele>602.0</ele><time>2026-04-11T15:58:50Z</time></trkpt><trkpt lat="45.929614951068494" lon="9.096891416484665"><ele>599.5</ele><time>2026-04-11T15:58:51Z</time></trkpt><trkpt lat="45.92954111531317" lon="9.096876225861752"><ele>597.0</ele><time>2026-04-11T15:58:52Z</time></trkpt><trkpt lat="45.929467669513514" lon="9.096866356096518"><ele>594.5</ele><time>2026-04-11T15:58:53Z</time></trkpt><trkpt lat="45.9293838626905" lon="9.096857409239002"><ele>592.0</ele><time>2026-04-11T15:58:54Z</time></trkpt><trkpt lat="45.92929417114201" lon="9.096853824258151"><ele>594.2</ele><time>2026-04-11T15:58:55Z</time></trkpt><trkpt lat="45.929197375137726" lon="9.096862308382368"><ele>596.4000000000001</ele><time>2026-04-11T15:58:56Z</time></trkpt><trkpt lat="45.92910303915183" lon="9.096893832951192"><ele>598.5999999999999</ele><time>2026-04-11T15:58:57Z</time></trkpt><trkpt lat="45.92901460953925" lon="9.096902735568383"><ele>600.8</ele><time>2026-04-11T15:58:58Z</time></trkpt><trkpt lat="45.92892408298787" lon="9.096916237776542"><ele>603.0</ele><time>2026-04-11T15:58:59Z</time></trkpt><trkpt lat="45.928833865921895" lon="9.096931379742204"><ele>603.0</ele><time>2026-04-11T15:59:00Z</time></trkpt><trkpt lat="45.9287488140972" lon="9.096956095691667"><ele>603.0</ele><time>2026-04-11T15:59:01Z</time></trkpt><trkpt lat="45.928665630371015" lon="9.09698340430434"><ele>603.0</ele><time>2026-04-11T15:59:02Z</time></trkpt><trkpt lat="45.928579754593144" lon="9.097010410765908"><ele>603.0</ele><time>2026-04-11T15:59:03Z</time></trkpt><trkpt lat="45.92849035695685" lon="9.09702517348213"><ele>603.0</ele><time>2026-04-11T15:59:04Z</time></trkpt><trkpt lat="45.92840613014445" lon="9.096999043635993"><ele>603.0</ele><time>2026-04-11T15:59:05Z</time></trkpt><trkpt lat="45.928334991601496" lon="9.096909132010081"><ele>601.0</ele><time>2026-04-11T15:59:06Z</time></trkpt><trkpt lat="45.92827681237904" lon="9.096767026210465"><ele>599.0</ele><time>2026-04-11T15:59:07Z</time></trkpt><trkpt lat="45.928252481487554" lon="9.096604964448233"><ele>597.0</ele><time>2026-04-11T15:59:08Z</time></trkpt><trkpt lat="45.92821092266667" lon="9.096468421566728"><ele>595.0</ele><time>2026-04-11T15:59:09Z</time></trkpt><trkpt lat="45.92815020326298" lon="9.096346991144907"><ele>593.0</ele><time>2026-04-11T15:59:10Z</time></trkpt><trkpt lat="45.92809100148533" lon="9.096234067510917"><ele>597.1999999999999</ele><time>2026-04-11T15:59:11Z</time></trkpt><trkpt lat="45.928035690106505" lon="9.09612616210047"><ele>601.4</ele><time>2026-04-11T15:59:12Z</time></trkpt><trkpt lat="45.927957799524194" lon="9.09605216578054"><ele>605.5999999999999</ele><time>2026-04-11T15:59:13Z</time></trkpt><trkpt lat="45.92789808329102" lon="9.0959799622567"><ele>609.8</ele><time>2026-04-11T15:59:14Z</time></trkpt><trkpt lat="45.927795312540916" lon="9.095904646641237"><ele>614.0</ele><time>2026-04-11T15:59:16Z</time></trkpt><trkpt lat="45.92771027924764" lon="9.09595320372299"><ele>614.0</ele><time>2026-04-11T15:59:17Z</time></trkpt><trkpt lat="45.92765244545198" lon="9.096071432547427"><ele>614.0</ele><time>2026-04-11T15:59:18Z</time></trkpt><trkpt lat="45.927598519102304" lon="9.096157521582391"><ele>614.0</ele><time>2026-04-11T15:59:19Z</time></trkpt><trkpt lat="45.92754321981668" lon="9.096238187415729"><ele>614.0</ele><time>2026-04-11T15:59:20Z</time></trkpt><trkpt lat="45.92748923313231" lon="9.096308998475864"><ele>614.0</ele><time>2026-04-11T15:59:21Z</time></trkpt><trkpt lat="45.92744559236883" lon="9.096382969165074"><ele>614.0</ele><time>2026-04-11T15:59:22Z</time></trkpt><trkpt lat="45.92741284065069" lon="9.096480794875342"><ele>609.8</ele><time>2026-04-11T15:59:23Z</time></trkpt><trkpt lat="45.92746790402793" lon="9.096629735825623"><ele>605.5999999999999</ele><time>2026-04-11T15:59:24Z</time></trkpt><trkpt lat="45.9275076436327" lon="9.096754532492167"><ele>601.4</ele><time>2026-04-11T15:59:25Z</time></trkpt><trkpt lat="45.927544564797635" lon="9.096863695896962"><ele>597.1999999999999</ele><time>2026-04-11T15:59:26Z</time></trkpt><trkpt lat="45.92758044108845" lon="9.09696724233854"><ele>593.0</ele><time>2026-04-11T15:59:27Z</time></trkpt><trkpt lat="45.92762923528433" lon="9.097067265386512"><ele>592.9999999999999</ele><time>2026-04-11T15:59:28Z</time></trkpt><trkpt lat="45.92768169457111" lon="9.097164787961125"><ele>593.0</ele><time>2026-04-11T15:59:29Z</time></trkpt><trkpt lat="45.92772493041886" lon="9.097263511385608"><ele>593.0</ele><time>2026-04-11T15:59:30Z</time></trkpt><trkpt lat="45.92775780545265" lon="9.09735812758412"><ele>593.0</ele><time>2026-04-11T15:59:31Z</time></trkpt><trkpt lat="45.927782567535814" lon="9.097453849823063"><ele>593.0</ele><time>2026-04-11T15:59:32Z</time></trkpt><trkpt lat="45.927800508667275" lon="9.09754914520541"><ele>592.9999999999999</ele><time>2026-04-11T15:59:33Z</time></trkpt><trkpt lat="45.92780012362955" lon="9.097643785676773"><ele>593.0</ele><time>2026-04-11T15:59:34Z</time></trkpt><trkpt lat="45.92773811109013" lon="9.097776809414366"><ele>592.1666666666666</ele><time>2026-04-11T15:59:36Z</time></trkpt><trkpt lat="45.92763639052981" lon="9.09779607698862"><ele>591.3333333333333</ele><time>2026-04-11T15:59:38Z</time></trkpt><trkpt lat="45.92753046707908" lon="9.097821749051763"><ele>590.5</ele><time>2026-04-11T15:59:40Z</time></trkpt><trkpt lat="45.927463328178504" lon="9.09780092674559"><ele>589.6666666666666</ele><time>2026-04-11T15:59:41Z</time></trkpt><trkpt lat="45.92738698405222" lon="9.097795565055938"><ele>588.8333333333334</ele><time>2026-04-11T15:59:42Z</time></trkpt><trkpt lat="45.927299591927834" lon="9.097752141509291"><ele>588.0</ele><time>2026-04-11T15:59:43Z</time></trkpt><trkpt lat="45.92719902547466" lon="9.097766407385825"><ele>588.0</ele><time>2026-04-11T15:59:44Z</time></trkpt><trkpt lat="45.9271107819752" lon="9.097771754806303"><ele>588.0</ele><time>2026-04-11T15:59:45Z</time></trkpt><trkpt lat="45.927034412587034" lon="9.09778948142509"><ele>588.0</ele><time>2026-04-11T15:59:46Z</time></trkpt><trkpt lat="45.92695740710823" lon="9.097794049042832"><ele>588.0</ele><time>2026-04-11T15:59:47Z</time></trkpt><trkpt lat="45.92689307729987" lon="9.097830930243546"><ele>588.0</ele><time>2026-04-11T15:59:48Z</time></trkpt><trkpt lat="45.92678787498776" lon="9.097879658903393"><ele>588.0</ele><time>2026-04-11T15:59:50Z</time></trkpt><trkpt lat="45.92673313666443" lon="9.098006110123137"><ele>588.0</ele><time>2026-04-11T15:59:52Z</time></trkpt><trkpt lat="45.92674146536412" lon="9.098164855755357"><ele>588.0</ele><time>2026-04-11T15:59:54Z</time></trkpt><trkpt lat="45.92681413137064" lon="9.09830740602183"><ele>588.0</ele><time>2026-04-11T15:59:56Z</time></trkpt><trkpt lat="45.926868775443026" lon="9.098399469975876"><ele>588.0</ele><time>2026-04-11T15:59:57Z</time></trkpt><trkpt lat="45.926899750966946" lon="9.098504362148178"><ele>588.0</ele><time>2026-04-11T15:59:58Z</time></trkpt><trkpt lat="45.926868656372925" lon="9.098602131799783"><ele>588.4285714285714</ele><time>2026-04-11T15:59:59Z</time></trkpt><trkpt lat="45.92683749315079" lon="9.09870045120399"><ele>588.8571428571429</ele><time>2026-04-11T16:00:00Z</time></trkpt><trkpt lat="45.92680504610959" lon="9.098802283000255"><ele>589.2857142857142</ele><time>2026-04-11T16:00:01Z</time></trkpt><trkpt lat="45.92679269890859" lon="9.09890627828366"><ele>589.7142857142858</ele><time>2026-04-11T16:00:02Z</time></trkpt><trkpt lat="45.92677323203164" lon="9.099002088006564"><ele>590.1428571428571</ele><time>2026-04-11T16:00:03Z</time></trkpt><trkpt lat="45.92675274827341" lon="9.099107845439889"><ele>590.5714285714286</ele><time>2026-04-11T16:00:04Z</time></trkpt><trkpt lat="45.92672570038307" lon="9.099201481494998"><ele>591.0</ele><time>2026-04-11T16:00:05Z</time></trkpt><trkpt lat="45.926701953898075" lon="9.099298417255822"><ele>591.0</ele><time>2026-04-11T16:00:06Z</time></trkpt><trkpt lat="45.92668197603632" lon="9.099403467079574"><ele>591.0</ele><time>2026-04-11T16:00:07Z</time></trkpt><trkpt lat="45.926666248457146" lon="9.099495078522912"><ele>591.0</ele><time>2026-04-11T16:00:08Z</time></trkpt><trkpt lat="45.92665388601557" lon="9.099590192108234"><ele>591.0</ele><time>2026-04-11T16:00:09Z</time></trkpt><trkpt lat="45.926645865396424" lon="9.099732148268856"><ele>591.0</ele><time>2026-04-11T16:00:11Z</time></trkpt><trkpt lat="45.92664314891604" lon="9.099822937726696"><ele>591.0</ele><time>2026-04-11T16:00:12Z</time></trkpt><trkpt lat="45.92664017249355" lon="9.099947950466822"><ele>592.75</ele><time>2026-04-11T16:00:13Z</time></trkpt><trkpt lat="45.92666245743243" lon="9.100090259329368"><ele>594.5</ele><time>2026-04-11T16:00:14Z</time></trkpt><trkpt lat="45.92670990851704" lon="9.100242161941761"><ele>596.25</ele><time>2026-04-11T16:00:15.001Z</time></trkpt><trkpt lat="45.92678042807187" lon="9.100393055844341"><ele>598.0</ele><time>2026-04-11T16:00:16.001Z</time></trkpt><trkpt lat="45.92686689432332" lon="9.100542750566811"><ele>596.75</ele><time>2026-04-11T16:00:17.001Z</time></trkpt><trkpt lat="45.92695091458853" lon="9.100678473870587"><ele>595.5</ele><time>2026-04-11T16:00:18.001Z</time></trkpt><trkpt lat="45.92703938936407" lon="9.100799193185965"><ele>594.25</ele><time>2026-04-11T16:00:19.001Z</time></trkpt><trkpt lat="45.927151170780746" lon="9.100893767679505"><ele>593.0</ele><time>2026-04-11T16:00:20.001Z</time></trkpt><trkpt lat="45.92726155202292" lon="9.100999309828016"><ele>593.0</ele><time>2026-04-11T16:00:21.001Z</time></trkpt><trkpt lat="45.92736812877206" lon="9.101088090696134"><ele>593.0</ele><time>2026-04-11T16:00:22.001Z</time></trkpt><trkpt lat="45.92746756768797" lon="9.10115977173873"><ele>593.0</ele><time>2026-04-11T16:00:23.001Z</time></trkpt><trkpt lat="45.9275781944364" lon="9.101198036880328"><ele>593.0</ele><time>2026-04-11T16:00:24.001Z</time></trkpt><trkpt lat="45.92770962057912" lon="9.101197540150217"><ele>589.0</ele><time>2026-04-11T16:00:25.001Z</time></trkpt><trkpt lat="45.927843917990614" lon="9.101206913109726"><ele>585.0</ele><time>2026-04-11T16:00:26.001Z</time></trkpt><trkpt lat="45.927966575058235" lon="9.10126323593716"><ele>581.0</ele><time>2026-04-11T16:00:27.001Z</time></trkpt><trkpt lat="45.92807665553542" lon="9.10134647463745"><ele>577.0</ele><time>2026-04-11T16:00:28.001Z</time></trkpt><trkpt lat="45.92817792022816" lon="9.101442146586052"><ele>577.0</ele><time>2026-04-11T16:00:29.001Z</time></trkpt><trkpt lat="45.92828363072113" lon="9.101537028805373"><ele>577.0</ele><time>2026-04-11T16:00:30.001Z</time></trkpt><trkpt lat="45.92838547947349" lon="9.101626804243894"><ele>577.0</ele><time>2026-04-11T16:00:31.001Z</time></trkpt><trkpt lat="45.92849014947427" lon="9.101716142484861"><ele>577.0</ele><time>2026-04-11T16:00:32.001Z</time></trkpt><trkpt lat="45.92858955643859" lon="9.10180484855653"><ele>577.0</ele><time>2026-04-11T16:00:33.001Z</time></trkpt><trkpt lat="45.92869257720474" lon="9.101891749636025"><ele>577.0</ele><time>2026-04-11T16:00:34.001Z</time></trkpt><trkpt lat="45.928795617979354" lon="9.10197565939893"><ele>577.0</ele><time>2026-04-11T16:00:35.001Z</time></trkpt><trkpt lat="45.92889579778327" lon="9.102063726691972"><ele>577.0</ele><time>2026-04-11T16:00:36.001Z</time></trkpt><trkpt lat="45.92899436509491" lon="9.102144565899122"><ele>577.0</ele><time>2026-04-11T16:00:37.001Z</time></trkpt><trkpt lat="45.92909285134492" lon="9.102235117855354"><ele>577.0</ele><time>2026-04-11T16:00:38.001Z</time></trkpt><trkpt lat="45.92920929772873" lon="9.102331746195668"><ele>577.0</ele><time>2026-04-11T16:00:39.001Z</time></trkpt><trkpt lat="45.92933389360707" lon="9.102440792604577"><ele>577.0</ele><time>2026-04-11T16:00:40Z</time></trkpt><trkpt lat="45.92945422691036" lon="9.102544139007245"><ele>576.0</ele><time>2026-04-11T16:00:41Z</time></trkpt><trkpt lat="45.92956255818925" lon="9.102635120903148"><ele>575.0</ele><time>2026-04-11T16:00:42Z</time></trkpt><trkpt lat="45.92965469375786" lon="9.102719005810147"><ele>574.0</ele><time>2026-04-11T16:00:43Z</time></trkpt><trkpt lat="45.92973962218717" lon="9.102813551690742"><ele>573.0</ele><time>2026-04-11T16:00:44Z</time></trkpt><trkpt lat="45.92981040930941" lon="9.10292819719311"><ele>572.0</ele><time>2026-04-11T16:00:45Z</time></trkpt><trkpt lat="45.92987035248058" lon="9.103062019535553"><ele>572.0</ele><time>2026-04-11T16:00:46Z</time></trkpt><trkpt lat="45.9299232327602" lon="9.103213069384317"><ele>572.0</ele><time>2026-04-11T16:00:47Z</time></trkpt><trkpt lat="45.9299729249265" lon="9.103361299546648"><ele>572.0</ele><time>2026-04-11T16:00:48Z</time></trkpt><trkpt lat="45.93003035496293" lon="9.103505965739553"><ele>572.0</ele><time>2026-04-11T16:00:49Z</time></trkpt><trkpt lat="45.930087610947346" lon="9.103651317510657"><ele>569.25</ele><time>2026-04-11T16:00:50Z</time></trkpt><trkpt lat="45.93014522156886" lon="9.103800457493245"><ele>566.5</ele><time>2026-04-11T16:00:51Z</time></trkpt><trkpt lat="45.93021582975987" lon="9.10394562149034"><ele>563.75</ele><time>2026-04-11T16:00:52Z</time></trkpt><trkpt lat="45.93029804413422" lon="9.104078701586305"><ele>561.0</ele><time>2026-04-11T16:00:53Z</time></trkpt><trkpt lat="45.93038873713519" lon="9.104194421849867"><ele>561.0</ele><time>2026-04-11T16:00:54Z</time></trkpt><trkpt lat="45.93047496613108" lon="9.104328612948056"><ele>561.0</ele><time>2026-04-11T16:00:55Z</time></trkpt><trkpt lat="45.93057987679426" lon="9.104419105883759"><ele>561.0</ele><time>2026-04-11T16:00:56Z</time></trkpt><trkpt lat="45.93067959828532" lon="9.104482626918418"><ele>561.0</ele><time>2026-04-11T16:00:57Z</time></trkpt><trkpt lat="45.93079150569479" lon="9.104504477464413"><ele>558.75</ele><time>2026-04-11T16:00:58Z</time></trkpt><trkpt lat="45.930910900837354" lon="9.104507884311383"><ele>556.5</ele><time>2026-04-11T16:00:59Z</time></trkpt><trkpt lat="45.931029257189955" lon="9.104504058374374"><ele>554.25</ele><time>2026-04-11T16:01:00Z</time></trkpt><trkpt lat="45.93116212843841" lon="9.104527367294637"><ele>552.0</ele><time>2026-04-11T16:01:01Z</time></trkpt><trkpt lat="45.93128868395807" lon="9.104516851275534"><ele>552.0</ele><time>2026-04-11T16:01:02Z</time></trkpt><trkpt lat="45.931410689209095" lon="9.104479552662072"><ele>552.0</ele><time>2026-04-11T16:01:03Z</time></trkpt><trkpt lat="45.931534096676124" lon="9.104470950607645"><ele>552.0</ele><time>2026-04-11T16:01:04Z</time></trkpt><trkpt lat="45.9316557934039" lon="9.10445812509233"><ele>552.0</ele><time>2026-04-11T16:01:05Z</time></trkpt><trkpt lat="45.931778865321434" lon="9.104447648596992"><ele>550.0</ele><time>2026-04-11T16:01:06Z</time></trkpt><trkpt lat="45.93190746793931" lon="9.104431085789628"><ele>548.0</ele><time>2026-04-11T16:01:07Z</time></trkpt><trkpt lat="45.932036633220264" lon="9.104417019889263"><ele>546.0</ele><time>2026-04-11T16:01:08Z</time></trkpt><trkpt lat="45.9321621156624" lon="9.104412183793288"><ele>544.0</ele><time>2026-04-11T16:01:09Z</time></trkpt><trkpt lat="45.93228656189512" lon="9.104414097635573"><ele>544.0</ele><time>2026-04-11T16:01:10Z</time></trkpt><trkpt lat="45.93240962401849" lon="9.104432563264671"><ele>544.0</ele><time>2026-04-11T16:01:11Z</time></trkpt><trkpt lat="45.932530300460236" lon="9.10448119362905"><ele>544.0</ele><time>2026-04-11T16:01:12Z</time></trkpt><trkpt lat="45.93264802329822" lon="9.104557739904184"><ele>544.0</ele><time>2026-04-11T16:01:13Z</time></trkpt><trkpt lat="45.932760312451116" lon="9.104644174902743"><ele>545.5</ele><time>2026-04-11T16:01:14Z</time></trkpt><trkpt lat="45.93286748147546" lon="9.104733191619648"><ele>547.0</ele><time>2026-04-11T16:01:15Z</time></trkpt><trkpt lat="45.93297722083667" lon="9.104818701727945"><ele>548.5</ele><time>2026-04-11T16:01:16Z</time></trkpt><trkpt lat="45.933085003148925" lon="9.104905290475026"><ele>550.0</ele><time>2026-04-11T16:01:17Z</time></trkpt><trkpt lat="45.93318399352395" lon="9.104993427289347"><ele>550.0</ele><time>2026-04-11T16:01:18Z</time></trkpt><trkpt lat="45.933269748809295" lon="9.105064367486253"><ele>550.0</ele><time>2026-04-11T16:01:19Z</time></trkpt><trkpt lat="45.93335648860845" lon="9.105097263259605"><ele>550.0</ele><time>2026-04-11T16:01:20Z</time></trkpt><trkpt lat="45.933445576947285" lon="9.10508353780977"><ele>550.0</ele><time>2026-04-11T16:01:21Z</time></trkpt><trkpt lat="45.93352710146735" lon="9.1050328756545"><ele>550.0</ele><time>2026-04-11T16:01:22Z</time></trkpt><trkpt lat="45.933602476922935" lon="9.104963902253097"><ele>545.5</ele><time>2026-04-11T16:01:23Z</time></trkpt><trkpt lat="45.93365461539431" lon="9.104837215822865"><ele>541.0</ele><time>2026-04-11T16:01:24Z</time></trkpt><trkpt lat="45.93369670441177" lon="9.104712307105956"><ele>536.5</ele><time>2026-04-11T16:01:25Z</time></trkpt><trkpt lat="45.933730884703614" lon="9.104602434141224"><ele>532.0</ele><time>2026-04-11T16:01:26Z</time></trkpt><trkpt lat="45.93379006413423" lon="9.104532694116543"><ele>527.5</ele><time>2026-04-11T16:01:27Z</time></trkpt><trkpt lat="45.93386341316893" lon="9.104499762132278"><ele>523.0</ele><time>2026-04-11T16:01:28Z</time></trkpt><trkpt lat="45.933941909755646" lon="9.104547433480151"><ele>523.0</ele><time>2026-04-11T16:01:29Z</time></trkpt><trkpt lat="45.934020920874524" lon="9.104587157720205"><ele>523.0</ele><time>2026-04-11T16:01:30Z</time></trkpt><trkpt lat="45.93410268766547" lon="9.10464118277762"><ele>523.0</ele><time>2026-04-11T16:01:31Z</time></trkpt><trkpt lat="45.93419266066834" lon="9.104687162258395"><ele>523.0</ele><time>2026-04-11T16:01:32Z</time></trkpt><trkpt lat="45.93428608769741" lon="9.104722281906815"><ele>523.0</ele><time>2026-04-11T16:01:33Z</time></trkpt><trkpt lat="45.934386434738826" lon="9.104729325826113"><ele>523.6</ele><time>2026-04-11T16:01:34Z</time></trkpt><trkpt lat="45.93448471581942" lon="9.104706206594162"><ele>524.1999999999999</ele><time>2026-04-11T16:01:35Z</time></trkpt><trkpt lat="45.93457874301607" lon="9.104638899182946"><ele>524.8</ele><time>2026-04-11T16:01:36Z</time></trkpt><trkpt lat="45.93466051766085" lon="9.104545816312118"><ele>525.4</ele><time>2026-04-11T16:01:37Z</time></trkpt><trkpt lat="45.93475429738607" lon="9.104478437027286"><ele>526.0</ele><time>2026-04-11T16:01:38Z</time></trkpt><trkpt lat="45.93483908750911" lon="9.104382224812838"><ele>526.0</ele><time>2026-04-11T16:01:39Z</time></trkpt><trkpt lat="45.934937508685024" lon="9.104330571914717"><ele>526.0</ele><time>2026-04-11T16:01:40Z</time></trkpt><trkpt lat="45.9350332613508" lon="9.104341650652561"><ele>526.0</ele><time>2026-04-11T16:01:41Z</time></trkpt><trkpt lat="45.935113103137596" lon="9.104415443567241"><ele>526.0</ele><time>2026-04-11T16:01:42Z</time></trkpt><trkpt lat="45.935184728006135" lon="9.104526494238696"><ele>526.0</ele><time>2026-04-11T16:01:43Z</time></trkpt><trkpt lat="45.935266932789716" lon="9.104638683543063"><ele>526.3333333333334</ele><time>2026-04-11T16:01:44Z</time></trkpt><trkpt lat="45.93537689792247" lon="9.104752722224463"><ele>526.6666666666666</ele><time>2026-04-11T16:01:45Z</time></trkpt><trkpt lat="45.93551751243235" lon="9.104884548566972"><ele>527.0</ele><time>2026-04-11T16:01:46Z</time></trkpt><trkpt lat="45.93567131172142" lon="9.10503573590628"><ele>527.0</ele><time>2026-04-11T16:01:47Z</time></trkpt><trkpt lat="45.93583460307069" lon="9.105192625832148"><ele>527.0</ele><time>2026-04-11T16:01:48Z</time></trkpt><trkpt lat="45.935989857260076" lon="9.105350603009192"><ele>527.0</ele><time>2026-04-11T16:01:49Z</time></trkpt><trkpt lat="45.93613500548903" lon="9.10550248783942"><ele>522.0</ele><time>2026-04-11T16:01:50Z</time></trkpt><trkpt lat="45.93626642544659" lon="9.105660683479222"><ele>517.0</ele><time>2026-04-11T16:01:51Z</time></trkpt><trkpt lat="45.936378977708394" lon="9.10582331798403"><ele>512.0</ele><time>2026-04-11T16:01:52Z</time></trkpt><trkpt lat="45.936469490300496" lon="9.106001341142445"><ele>512.0</ele><time>2026-04-11T16:01:53Z</time></trkpt><trkpt lat="45.936533054314346" lon="9.106215218251487"><ele>512.0</ele><time>2026-04-11T16:01:54Z</time></trkpt><trkpt lat="45.936583513021844" lon="9.106436466929784"><ele>512.0</ele><time>2026-04-11T16:01:55Z</time></trkpt><trkpt lat="45.936653266614215" lon="9.106625806136623"><ele>504.5</ele><time>2026-04-11T16:01:56Z</time></trkpt><trkpt lat="45.93672706166189" lon="9.106758266579705"><ele>497.0</ele><time>2026-04-11T16:01:57Z</time></trkpt><trkpt lat="45.93677200958765" lon="9.106879619439107"><ele>489.5</ele><time>2026-04-11T16:01:58Z</time></trkpt><trkpt lat="45.9367517655951" lon="9.107037778538501"><ele>482.0</ele><time>2026-04-11T16:01:59Z</time></trkpt><trkpt lat="45.93674505571533" lon="9.107239305031374"><ele>483.0</ele><time>2026-04-11T16:02:00Z</time></trkpt><trkpt lat="45.93672637649896" lon="9.107433305619296"><ele>484.0</ele><time>2026-04-11T16:02:01Z</time></trkpt><trkpt lat="45.93673415513973" lon="9.10758614851209"><ele>485.0</ele><time>2026-04-11T16:02:02Z</time></trkpt><trkpt lat="45.93678208253345" lon="9.107716919920472"><ele>486.0</ele><time>2026-04-11T16:02:03Z</time></trkpt><trkpt lat="45.936873140815905" lon="9.107836361876764"><ele>486.0</ele><time>2026-04-11T16:02:04Z</time></trkpt><trkpt lat="45.936972630386045" lon="9.107946689118123"><ele>486.0</ele><time>2026-04-11T16:02:05Z</time></trkpt><trkpt lat="45.937032351991256" lon="9.108085231375089"><ele>486.0</ele><time>2026-04-11T16:02:06Z</time></trkpt><trkpt lat="45.93704137306589" lon="9.108259367881146"><ele>486.0</ele><time>2026-04-11T16:02:07Z</time></trkpt><trkpt lat="45.9369950284347" lon="9.10844873441037"><ele>484.5</ele><time>2026-04-11T16:02:08Z</time></trkpt><trkpt lat="45.93696208361114" lon="9.10866188368838"><ele>483.0</ele><time>2026-04-11T16:02:09Z</time></trkpt><trkpt lat="45.93691491284283" lon="9.108859737096168"><ele>481.5</ele><time>2026-04-11T16:02:10Z</time></trkpt><trkpt lat="45.93688863609236" lon="9.109065267822608"><ele>480.0</ele><time>2026-04-11T16:02:11Z</time></trkpt><trkpt lat="45.936893555560715" lon="9.109270440147492"><ele>479.66666666666663</ele><time>2026-04-11T16:02:12Z</time></trkpt><trkpt lat="45.9369231520618" lon="9.109479102639565"><ele>479.3333333333333</ele><time>2026-04-11T16:02:13Z</time></trkpt><trkpt lat="45.936970031976536" lon="9.109696714801784"><ele>479.0</ele><time>2026-04-11T16:02:14Z</time></trkpt><trkpt lat="45.93702603641071" lon="9.10992400012466"><ele>479.66666666666663</ele><time>2026-04-11T16:02:15Z</time></trkpt><trkpt lat="45.93708392968441" lon="9.11014194123248"><ele>480.33333333333337</ele><time>2026-04-11T16:02:16Z</time></trkpt><trkpt lat="45.93713947047406" lon="9.1103524993531"><ele>481.0</ele><time>2026-04-11T16:02:17Z</time></trkpt><trkpt lat="45.93720872439544" lon="9.110553777220392"><ele>483.5</ele><time>2026-04-11T16:02:18Z</time></trkpt><trkpt lat="45.937300516446044" lon="9.110742873874306"><ele>486.0</ele><time>2026-04-11T16:02:19Z</time></trkpt><trkpt lat="45.937384830533375" lon="9.110922433983902"><ele>488.5</ele><time>2026-04-11T16:02:20.001Z</time></trkpt><trkpt lat="45.93744276477112" lon="9.11110327564837"><ele>491.0</ele><time>2026-04-11T16:02:21.001Z</time></trkpt><trkpt lat="45.93747870602981" lon="9.111284986996944"><ele>491.0</ele><time>2026-04-11T16:02:22.001Z</time></trkpt><trkpt lat="45.93750496645519" lon="9.111498715410821"><ele>491.0</ele><time>2026-04-11T16:02:23.001Z</time></trkpt><trkpt lat="45.937536048576554" lon="9.11173210650126"><ele>491.0</ele><time>2026-04-11T16:02:24.001Z</time></trkpt><trkpt lat="45.93758275886614" lon="9.11196017127287"><ele>486.5</ele><time>2026-04-11T16:02:25.001Z</time></trkpt><trkpt lat="45.93759606861643" lon="9.112167182060979"><ele>482.0</ele><time>2026-04-11T16:02:26.001Z</time></trkpt><trkpt lat="45.93763687346194" lon="9.112307189105971"><ele>477.5</ele><time>2026-04-11T16:02:27.001Z</time></trkpt><trkpt lat="45.93769276872145" lon="9.11242004047435"><ele>473.0</ele><time>2026-04-11T16:02:28Z</time></trkpt><trkpt lat="45.93780084308846" lon="9.112506118640878"><ele>473.0</ele><time>2026-04-11T16:02:29.001Z</time></trkpt><trkpt lat="45.93793154019233" lon="9.11257486816473"><ele>473.0</ele><time>2026-04-11T16:02:30.001Z</time></trkpt><trkpt lat="45.93805573544335" lon="9.112649273253801"><ele>473.0</ele><time>2026-04-11T16:02:31Z</time></trkpt><trkpt lat="45.938155937167345" lon="9.112710915158143"><ele>473.0</ele><time>2026-04-11T16:02:32Z</time></trkpt><trkpt lat="45.93823227357814" lon="9.112729515563442"><ele>473.0</ele><time>2026-04-11T16:02:33Z</time></trkpt><trkpt lat="45.938313688516985" lon="9.112684133280416"><ele>473.0</ele><time>2026-04-11T16:02:34Z</time></trkpt><trkpt lat="45.938394059934666" lon="9.112568087771052"><ele>473.0</ele><time>2026-04-11T16:02:35Z</time></trkpt><trkpt lat="45.93845797087797" lon="9.112407518215443"><ele>473.0</ele><time>2026-04-11T16:02:36Z</time></trkpt><trkpt lat="45.938522507972785" lon="9.112261560337066"><ele>467.79999999999995</ele><time>2026-04-11T16:02:37Z</time></trkpt><trkpt lat="45.93858989643497" lon="9.112162178507512"><ele>462.59999999999997</ele><time>2026-04-11T16:02:38Z</time></trkpt><trkpt lat="45.938659568012184" lon="9.112103415055364"><ele>457.40000000000003</ele><time>2026-04-11T16:02:39Z</time></trkpt><trkpt lat="45.93874408551488" lon="9.1121046475527"><ele>452.20000000000005</ele><time>2026-04-11T16:02:40Z</time></trkpt><trkpt lat="45.93882962055373" lon="9.11217399839034"><ele>447.0</ele><time>2026-04-11T16:02:41Z</time></trkpt><trkpt lat="45.93889003085214" lon="9.112320256756712"><ele>446.20000000000005</ele><time>2026-04-11T16:02:42Z</time></trkpt><trkpt lat="45.93897248735461" lon="9.112431494649897"><ele>445.40000000000003</ele><time>2026-04-11T16:02:43Z</time></trkpt><trkpt lat="45.939056015618895" lon="9.112480171233244"><ele>444.59999999999997</ele><time>2026-04-11T16:02:44Z</time></trkpt><trkpt lat="45.93915845067965" lon="9.11245732330523"><ele>443.79999999999995</ele><time>2026-04-11T16:02:45Z</time></trkpt><trkpt lat="45.93926116220369" lon="9.112456248276775"><ele>443.0</ele><time>2026-04-11T16:02:46Z</time></trkpt><trkpt lat="45.939352626215076" lon="9.112539524181797"><ele>443.0</ele><time>2026-04-11T16:02:47Z</time></trkpt><trkpt lat="45.93941813168066" lon="9.112704585754367"><ele>443.0</ele><time>2026-04-11T16:02:48Z</time></trkpt><trkpt lat="45.93952979305551" lon="9.112796647099492"><ele>443.0</ele><time>2026-04-11T16:02:49Z</time></trkpt><trkpt lat="45.93966070648621" lon="9.112850937613322"><ele>443.0</ele><time>2026-04-11T16:02:50Z</time></trkpt><trkpt lat="45.939782238902204" lon="9.112933288153501"><ele>443.0</ele><time>2026-04-11T16:02:51Z</time></trkpt><trkpt lat="45.939867096191705" lon="9.113041013940686"><ele>442.99999999999994</ele><time>2026-04-11T16:02:52Z</time></trkpt><trkpt lat="45.939899330165055" lon="9.113162386198509"><ele>442.99999999999994</ele><time>2026-04-11T16:02:53Z</time></trkpt><trkpt lat="45.93989605697107" lon="9.11332395427142"><ele>443.0</ele><time>2026-04-11T16:02:54Z</time></trkpt><trkpt lat="45.9399145291136" lon="9.113424353160664"><ele>443.0</ele><time>2026-04-11T16:02:55Z</time></trkpt><trkpt lat="45.93995117236785" lon="9.113499607353893"><ele>446.25</ele><time>2026-04-11T16:02:56Z</time></trkpt><trkpt lat="45.94001582160425" lon="9.113570378393847"><ele>449.5</ele><time>2026-04-11T16:02:57Z</time></trkpt><trkpt lat="45.94012732198825" lon="9.113598234674305"><ele>452.75</ele><time>2026-04-11T16:02:58Z</time></trkpt><trkpt lat="45.940206605332186" lon="9.11363949787397"><ele>456.0</ele><time>2026-04-11T16:02:59Z</time></trkpt><trkpt lat="45.94021060930106" lon="9.113378670986394"><ele>452.75</ele><time>2026-04-11T16:03:00Z</time></trkpt><trkpt lat="45.94018023751935" lon="9.11326321285961"><ele>449.5</ele><time>2026-04-11T16:03:01Z</time></trkpt><trkpt lat="45.94011095684842" lon="9.113161722690565"><ele>446.25</ele><time>2026-04-11T16:03:02Z</time></trkpt><trkpt lat="45.94001448105624" lon="9.112962896228412"><ele>443.0</ele><time>2026-04-11T16:03:03Z</time></trkpt><trkpt lat="45.9399031822558" lon="9.112788688542972"><ele>443.0</ele><time>2026-04-11T16:03:04Z</time></trkpt><trkpt lat="45.93977258575504" lon="9.112633783857378"><ele>443.0</ele><time>2026-04-11T16:03:05Z</time></trkpt><trkpt lat="45.93968026348875" lon="9.112481760855061"><ele>443.0</ele><time>2026-04-11T16:03:06Z</time></trkpt><trkpt lat="45.939616235935546" lon="9.11231241904904"><ele>443.0</ele><time>2026-04-11T16:03:07Z</time></trkpt><trkpt lat="45.93960402943938" lon="9.112125726010278"><ele>437.0</ele><time>2026-04-11T16:03:08Z</time></trkpt><trkpt lat="45.93955200131585" lon="9.111956343355098"><ele>431.0</ele><time>2026-04-11T16:03:09Z</time></trkpt><trkpt lat="45.939471724181026" lon="9.111829436737406"><ele>425.0</ele><time>2026-04-11T16:03:10Z</time></trkpt><trkpt lat="45.93935920715156" lon="9.111736770056467"><ele>419.0</ele><time>2026-04-11T16:03:11Z</time></trkpt><trkpt lat="45.939245502944054" lon="9.111668387005006"><ele>420.25</ele><time>2026-04-11T16:03:12Z</time></trkpt><trkpt lat="45.939116277441244" lon="9.111592262316455"><ele>421.5</ele><time>2026-04-11T16:03:13Z</time></trkpt><trkpt lat="45.938987774430174" lon="9.11149409507381"><ele>422.75</ele><time>2026-04-11T16:03:14Z</time></trkpt><trkpt lat="45.93886487763931" lon="9.111399833340265"><ele>424.0</ele><time>2026-04-11T16:03:15Z</time></trkpt><trkpt lat="45.93875040541145" lon="9.111299825461096"><ele>424.0</ele><time>2026-04-11T16:03:16Z</time></trkpt><trkpt lat="45.938662345684875" lon="9.111189911212845"><ele>424.0</ele><time>2026-04-11T16:03:17Z</time></trkpt><trkpt lat="45.93857995038518" lon="9.111124168013294"><ele>424.0</ele><time>2026-04-11T16:03:18Z</time></trkpt><trkpt lat="45.938536329277085" lon="9.11098930145492"><ele>424.0</ele><time>2026-04-11T16:03:19Z</time></trkpt><trkpt lat="45.93851426748192" lon="9.110794000936561"><ele>420.75</ele><time>2026-04-11T16:03:20Z</time></trkpt><trkpt lat="45.93847543287433" lon="9.110610641066444"><ele>417.5</ele><time>2026-04-11T16:03:21Z</time></trkpt><trkpt lat="45.93845522985349" lon="9.110428548942389"><ele>414.25</ele><time>2026-04-11T16:03:22Z</time></trkpt><trkpt lat="45.93845017932139" lon="9.110257057276995"><ele>411.0</ele><time>2026-04-11T16:03:23Z</time></trkpt><trkpt lat="45.93846942868209" lon="9.110086471648788"><ele>410.25</ele><time>2026-04-11T16:03:24Z</time></trkpt><trkpt lat="45.93848969676969" lon="9.109900590802804"><ele>409.5</ele><time>2026-04-11T16:03:25Z</time></trkpt><trkpt lat="45.93850266023087" lon="9.109714474140572"><ele>408.75</ele><time>2026-04-11T16:03:26Z</time></trkpt><trkpt lat="45.93848126698596" lon="9.10951644476094"><ele>408.0</ele><time>2026-04-11T16:03:27Z</time></trkpt><trkpt lat="45.93845728733813" lon="9.10931084870777"><ele>408.0</ele><time>2026-04-11T16:03:28Z</time></trkpt><trkpt lat="45.93844133033344" lon="9.109107138268893"><ele>408.0</ele><time>2026-04-11T16:03:29Z</time></trkpt><trkpt lat="45.93842791946394" lon="9.108905386848717"><ele>408.0</ele><time>2026-04-11T16:03:30Z</time></trkpt><trkpt lat="45.93841289158893" lon="9.108718083565877"><ele>408.0</ele><time>2026-04-11T16:03:31Z</time></trkpt><trkpt lat="45.938429065525185" lon="9.108553019409674"><ele>407.6666666666667</ele><time>2026-04-11T16:03:32Z</time></trkpt><trkpt lat="45.93843614000628" lon="9.108421745268835"><ele>407.33333333333337</ele><time>2026-04-11T16:03:33Z</time></trkpt><trkpt lat="45.93845155123942" lon="9.108324023438103"><ele>407.0</ele><time>2026-04-11T16:03:34Z</time></trkpt><trkpt lat="45.93855782902017" lon="9.108244327500758"><ele>406.6666666666667</ele><time>2026-04-11T16:03:36Z</time></trkpt><trkpt lat="45.93862075402101" lon="9.108297478093936"><ele>406.33333333333337</ele><time>2026-04-11T16:03:37Z</time></trkpt><trkpt lat="45.9386325111658" lon="9.10842342745948"><ele>406.0</ele><time>2026-04-11T16:03:38Z</time></trkpt><trkpt lat="45.93867948621622" lon="9.108556071965017"><ele>406.0</ele><time>2026-04-11T16:03:39Z</time></trkpt><trkpt lat="45.93871167532174" lon="9.108721340980262"><ele>406.0</ele><time>2026-04-11T16:03:40Z</time></trkpt><trkpt lat="45.93875905272721" lon="9.108895025730124"><ele>406.0</ele><time>2026-04-11T16:03:41Z</time></trkpt><trkpt lat="45.93881349136839" lon="9.109081431357707"><ele>406.0</ele><time>2026-04-11T16:03:42Z</time></trkpt><trkpt lat="45.9388694746485" lon="9.109280823348072"><ele>406.6666666666667</ele><time>2026-04-11T16:03:43Z</time></trkpt><trkpt lat="45.938935517838225" lon="9.109478195863469"><ele>407.33333333333337</ele><time>2026-04-11T16:03:44Z</time></trkpt><trkpt lat="45.93903189296793" lon="9.109654498114804"><ele>408.0</ele><time>2026-04-11T16:03:45Z</time></trkpt><trkpt lat="45.93914150062485" lon="9.109813361141473"><ele>407.0</ele><time>2026-04-11T16:03:46Z</time></trkpt><trkpt lat="45.93925721559613" lon="9.109964898508318"><ele>406.0</ele><time>2026-04-11T16:03:47Z</time></trkpt><trkpt lat="45.93936336072511" lon="9.110102470226952"><ele>405.0</ele><time>2026-04-11T16:03:48Z</time></trkpt><trkpt lat="45.939447450259394" lon="9.110240091536115"><ele>404.0</ele><time>2026-04-11T16:03:49Z</time></trkpt><trkpt lat="45.93951576893507" lon="9.110397468852673"><ele>404.0</ele><time>2026-04-11T16:03:50Z</time></trkpt><trkpt lat="45.939578541193264" lon="9.110564403996525"><ele>404.0</ele><time>2026-04-11T16:03:51Z</time></trkpt><trkpt lat="45.939647225151525" lon="9.110714705411626"><ele>404.0</ele><time>2026-04-11T16:03:52Z</time></trkpt><trkpt lat="45.939727504668205" lon="9.110837134015737"><ele>404.0</ele><time>2026-04-11T16:03:53Z</time></trkpt><trkpt lat="45.93982806098552" lon="9.110919196208803"><ele>405.4</ele><time>2026-04-11T16:03:54Z</time></trkpt><trkpt lat="45.93993076021829" lon="9.110949256732386"><ele>406.79999999999995</ele><time>2026-04-11T16:03:55Z</time></trkpt><trkpt lat="45.940000790349885" lon="9.110971573607634"><ele>408.20000000000005</ele><time>2026-04-11T16:03:56Z</time></trkpt><trkpt lat="45.94008144254308" lon="9.11113876386378"><ele>409.6</ele><time>2026-04-11T16:03:58Z</time></trkpt><trkpt lat="45.940121355964074" lon="9.111280286654093"><ele>411.0</ele><time>2026-04-11T16:03:59Z</time></trkpt><trkpt lat="45.940157967562506" lon="9.111446279571659"><ele>403.25</ele><time>2026-04-11T16:04:00Z</time></trkpt><trkpt lat="45.94017645852008" lon="9.111636552614282"><ele>395.5</ele><time>2026-04-11T16:04:01Z</time></trkpt><trkpt lat="45.94020290983786" lon="9.111823850946843"><ele>387.75</ele><time>2026-04-11T16:04:02Z</time></trkpt><trkpt lat="45.94024220328485" lon="9.111994722633503"><ele>380.0</ele><time>2026-04-11T16:04:03Z</time></trkpt><trkpt lat="45.940313607678625" lon="9.112166838154542"><ele>380.0</ele><time>2026-04-11T16:04:04Z</time></trkpt><trkpt lat="45.940407374866055" lon="9.112337083263009"><ele>380.0</ele><time>2026-04-11T16:04:05Z</time></trkpt><trkpt lat="45.94049286956447" lon="9.112517516899649"><ele>380.0</ele><time>2026-04-11T16:04:06Z</time></trkpt><trkpt lat="45.94058069743065" lon="9.112681556397304"><ele>380.0</ele><time>2026-04-11T16:04:07Z</time></trkpt><trkpt lat="45.94067833287674" lon="9.112822265243555"><ele>379.75</ele><time>2026-04-11T16:04:08Z</time></trkpt><trkpt lat="45.94077480544408" lon="9.112971085771147"><ele>379.5</ele><time>2026-04-11T16:04:09Z</time></trkpt><trkpt lat="45.94084178324026" lon="9.113157458409207"><ele>379.25</ele><time>2026-04-11T16:04:10Z</time></trkpt><trkpt lat="45.940918526015466" lon="9.113325284729374"><ele>379.0</ele><time>2026-04-11T16:04:11Z</time></trkpt><trkpt lat="45.94096190192393" lon="9.113498469390946"><ele>369.5</ele><time>2026-04-11T16:04:12Z</time></trkpt><trkpt lat="45.94097928477592" lon="9.113656498817761"><ele>360.0</ele><time>2026-04-11T16:04:13Z</time></trkpt><trkpt lat="45.94097059137669" lon="9.113819389434058"><ele>350.5</ele><time>2026-04-11T16:04:14Z</time></trkpt><trkpt lat="45.940931113928244" lon="9.113987356123749"><ele>341.0</ele><time>2026-04-11T16:04:15Z</time></trkpt><trkpt lat="45.940887727688555" lon="9.114156882461733"><ele>341.0</ele><time>2026-04-11T16:04:16Z</time></trkpt><trkpt lat="45.94089593919214" lon="9.114345767810217"><ele>341.0</ele><time>2026-04-11T16:04:17Z</time></trkpt><trkpt lat="45.94093273625418" lon="9.114547433319537"><ele>341.0</ele><time>2026-04-11T16:04:18Z</time></trkpt><trkpt lat="45.94093888245724" lon="9.114774309494813"><ele>341.0</ele><time>2026-04-11T16:04:19Z</time></trkpt><trkpt lat="45.94092174816661" lon="9.115016469237718"><ele>344.6666666666667</ele><time>2026-04-11T16:04:20Z</time></trkpt><trkpt lat="45.940900661516956" lon="9.115269477889298"><ele>348.3333333333333</ele><time>2026-04-11T16:04:21Z</time></trkpt><trkpt lat="45.94088674664039" lon="9.115524090530235"><ele>352.0</ele><time>2026-04-11T16:04:22Z</time></trkpt><trkpt lat="45.940872635446304" lon="9.115768152609284"><ele>366.0</ele><time>2026-04-11T16:04:23Z</time></trkpt><trkpt lat="45.9408566038814" lon="9.11600272937981"><ele>380.0</ele><time>2026-04-11T16:04:24Z</time></trkpt><trkpt lat="45.940840408951395" lon="9.116235859127672"><ele>394.0</ele><time>2026-04-11T16:04:25Z</time></trkpt><trkpt lat="45.940835648406185" lon="9.116473621081466"><ele>392.0</ele><time>2026-04-11T16:04:26Z</time></trkpt><trkpt lat="45.94084345587225" lon="9.116718675518337"><ele>390.0</ele><time>2026-04-11T16:04:27Z</time></trkpt><trkpt lat="45.94085678811753" lon="9.116964572869296"><ele>388.0</ele><time>2026-04-11T16:04:28Z</time></trkpt><trkpt lat="45.940880204897944" lon="9.117202150787564"><ele>371.6666666666667</ele><time>2026-04-11T16:04:29Z</time></trkpt><trkpt lat="45.94091596168845" lon="9.117432067186641"><ele>355.33333333333337</ele><time>2026-04-11T16:04:30Z</time></trkpt><trkpt lat="45.94093867806348" lon="9.11766301376288"><ele>339.0</ele><time>2026-04-11T16:04:31Z</time></trkpt><trkpt lat="45.94099051691877" lon="9.117881250983983"><ele>339.0</ele><time>2026-04-11T16:04:32Z</time></trkpt><trkpt lat="45.941020150643624" lon="9.118101268317131"><ele>339.0</ele><time>2026-04-11T16:04:33Z</time></trkpt><trkpt lat="45.94104324254713" lon="9.118309465634338"><ele>339.0</ele><time>2026-04-11T16:04:34Z</time></trkpt><trkpt lat="45.941029294589995" lon="9.118512840894326"><ele>339.0</ele><time>2026-04-11T16:04:35Z</time></trkpt><trkpt lat="45.94102073305018" lon="9.118726947689291"><ele>339.25</ele><time>2026-04-11T16:04:36Z</time></trkpt><trkpt lat="45.94098488866718" lon="9.118943863911309"><ele>339.5</ele><time>2026-04-11T16:04:37Z</time></trkpt><trkpt lat="45.94095563176262" lon="9.119151069739928"><ele>339.75</ele><time>2026-04-11T16:04:38Z</time></trkpt><trkpt lat="45.94094071904298" lon="9.119352549833986"><ele>340.0</ele><time>2026-04-11T16:04:39Z</time></trkpt><trkpt lat="45.94095650377889" lon="9.119554721219851"><ele>340.0</ele><time>2026-04-11T16:04:40Z</time></trkpt><trkpt lat="45.94099687601886" lon="9.119756377647565"><ele>340.0</ele><time>2026-04-11T16:04:41Z</time></trkpt><trkpt lat="45.9410309320844" lon="9.119969868405109"><ele>340.0</ele><time>2026-04-11T16:04:42Z</time></trkpt><trkpt lat="45.94102335678033" lon="9.120198523159402"><ele>337.66666666666663</ele><time>2026-04-11T16:04:43Z</time></trkpt><trkpt lat="45.941018225808975" lon="9.120423915747331"><ele>335.3333333333333</ele><time>2026-04-11T16:04:44Z</time></trkpt><trkpt lat="45.94103076243448" lon="9.120638872603228"><ele>333.0</ele><time>2026-04-11T16:04:45Z</time></trkpt><trkpt lat="45.941045920034355" lon="9.120847460000576"><ele>331.25</ele><time>2026-04-11T16:04:46Z</time></trkpt><trkpt lat="45.94107011116263" lon="9.121054615770582"><ele>329.5</ele><time>2026-04-11T16:04:47Z</time></trkpt><trkpt lat="45.94108692797023" lon="9.121258027320751"><ele>327.75</ele><time>2026-04-11T16:04:48Z</time></trkpt><trkpt lat="45.94108597812462" lon="9.121468237314863"><ele>326.0</ele><time>2026-04-11T16:04:49Z</time></trkpt><trkpt lat="45.941042663135306" lon="9.121680942283387"><ele>325.33333333333337</ele><time>2026-04-11T16:04:50Z</time></trkpt><trkpt lat="45.94100912729003" lon="9.121902366206978"><ele>324.6666666666667</ele><time>2026-04-11T16:04:51Z</time></trkpt><trkpt lat="45.94095852280096" lon="9.122109955488853"><ele>324.0</ele><time>2026-04-11T16:04:52Z</time></trkpt><trkpt lat="45.94092484873196" lon="9.122311734969589"><ele>321.25</ele><time>2026-04-11T16:04:53Z</time></trkpt><trkpt lat="45.94090621520165" lon="9.122515940664742"><ele>318.5</ele><time>2026-04-11T16:04:54Z</time></trkpt><trkpt lat="45.94090425034743" lon="9.122720559325566"><ele>315.75</ele><time>2026-04-11T16:04:55Z</time></trkpt><trkpt lat="45.940908738716765" lon="9.122912595064962"><ele>313.0</ele><time>2026-04-11T16:04:56Z</time></trkpt><trkpt lat="45.940906359812914" lon="9.123091484516555"><ele>310.75</ele><time>2026-04-11T16:04:57Z</time></trkpt><trkpt lat="45.94088897683182" lon="9.123262125641855"><ele>308.5</ele><time>2026-04-11T16:04:58Z</time></trkpt><trkpt lat="45.94085207571692" lon="9.123431233940165"><ele>306.25</ele><time>2026-04-11T16:04:59Z</time></trkpt><trkpt lat="45.94080096053554" lon="9.123600127610032"><ele>304.0</ele><time>2026-04-11T16:05:00Z</time></trkpt><trkpt lat="45.94074671741947" lon="9.123770014988159"><ele>312.25</ele><time>2026-04-11T16:05:01Z</time></trkpt><trkpt lat="45.94070010840109" lon="9.123945435579406"><ele>320.5</ele><time>2026-04-11T16:05:02Z</time></trkpt><trkpt lat="45.940652650091536" lon="9.124123692639616"><ele>328.75</ele><time>2026-04-11T16:05:03Z</time></trkpt><trkpt lat="45.940604266486346" lon="9.124301598757263"><ele>337.0</ele><time>2026-04-11T16:05:04Z</time></trkpt><trkpt lat="45.94055695759467" lon="9.124479066582413"><ele>337.0</ele><time>2026-04-11T16:05:05Z</time></trkpt><trkpt lat="45.940520788343484" lon="9.124653445340243"><ele>337.0</ele><time>2026-04-11T16:05:06Z</time></trkpt><trkpt lat="45.94048566635023" lon="9.12481765118396"><ele>337.0</ele><time>2026-04-11T16:05:07Z</time></trkpt><trkpt lat="45.940456436881995" lon="9.124962483257049"><ele>337.0</ele><time>2026-04-11T16:05:08Z</time></trkpt><trkpt lat="45.94042630931397" lon="9.125078558417492"><ele>337.0</ele><time>2026-04-11T16:05:09Z</time></trkpt><trkpt lat="45.9403933807589" lon="9.125172556052917"><ele>333.40000000000003</ele><time>2026-04-11T16:05:10Z</time></trkpt><trkpt lat="45.94034663506791" lon="9.12531504663059"><ele>329.8</ele><time>2026-04-11T16:05:12Z</time></trkpt><trkpt lat="45.94039042038572" lon="9.12541848890255"><ele>326.2</ele><time>2026-04-11T16:05:14Z</time></trkpt><trkpt lat="45.94049384809798" lon="9.12539329034651"><ele>322.6</ele><time>2026-04-11T16:05:16Z</time></trkpt><trkpt lat="45.94051200666645" lon="9.125270277278984"><ele>319.0</ele><time>2026-04-11T16:05:17Z</time></trkpt><trkpt lat="45.94052137639327" lon="9.12516214074035"><ele>319.0</ele><time>2026-04-11T16:05:18Z</time></trkpt><trkpt lat="45.94053647996228" lon="9.125055277549038"><ele>319.0</ele><time>2026-04-11T16:05:19Z</time></trkpt><trkpt lat="45.940554965418634" lon="9.124958577864353"><ele>319.0</ele><time>2026-04-11T16:05:20Z</time></trkpt><trkpt lat="45.940576896088196" lon="9.124852066995354"><ele>319.0</ele><time>2026-04-11T16:05:22Z</time></trkpt><trkpt lat="45.9406310590602" lon="9.124705511325061"><ele>319.0</ele><time>2026-04-11T16:06:20Z</time></trkpt><trkpt lat="45.940676904516906" lon="9.124595864728688"><ele>319.0</ele><time>2026-04-11T16:06:21Z</time></trkpt><trkpt lat="45.940727105806346" lon="9.124488093490248"><ele>315.25</ele><time>2026-04-11T16:06:22Z</time></trkpt><trkpt lat="45.940787530557714" lon="9.124350735597153"><ele>311.5</ele><time>2026-04-11T16:06:23Z</time></trkpt><trkpt lat="45.94085773704176" lon="9.12421053824773"><ele>307.75</ele><time>2026-04-11T16:06:24Z</time></trkpt><trkpt lat="45.940935529321735" lon="9.124057110435833"><ele>304.0</ele><time>2026-04-11T16:06:25Z</time></trkpt><trkpt lat="45.941016067286114" lon="9.123890340497262"><ele>304.0</ele><time>2026-04-11T16:06:26Z</time></trkpt><trkpt lat="45.94108146841174" lon="9.12372579005227"><ele>304.0</ele><time>2026-04-11T16:06:27Z</time></trkpt><trkpt lat="45.94112706519774" lon="9.123547814732708"><ele>304.0</ele><time>2026-04-11T16:06:28Z</time></trkpt><trkpt lat="45.941170658021065" lon="9.12336968964905"><ele>304.0</ele><time>2026-04-11T16:06:29Z</time></trkpt><trkpt lat="45.94118672842493" lon="9.123195313385434"><ele>306.25</ele><time>2026-04-11T16:06:30Z</time></trkpt><trkpt lat="45.94124185706243" lon="9.123036347674065"><ele>308.5</ele><time>2026-04-11T16:06:31Z</time></trkpt><trkpt lat="45.94130724907559" lon="9.122880719741516"><ele>310.75</ele><time>2026-04-11T16:06:32Z</time></trkpt><trkpt lat="45.94137322537906" lon="9.122722900896582"><ele>313.0</ele><time>2026-04-11T16:06:33Z</time></trkpt><trkpt lat="45.94144037399754" lon="9.12256559965594"><ele>313.0</ele><time>2026-04-11T16:06:34Z</time></trkpt><trkpt lat="45.94151138416976" lon="9.12242050035946"><ele>313.0</ele><time>2026-04-11T16:06:35Z</time></trkpt><trkpt lat="45.94158952366671" lon="9.122280018629397"><ele>313.0</ele><time>2026-04-11T16:06:36Z</time></trkpt><trkpt lat="45.94166932917" lon="9.12214405834502"><ele>313.0</ele><time>2026-04-11T16:06:37Z</time></trkpt><trkpt lat="45.94174157552146" lon="9.122008934942311"><ele>310.4</ele><time>2026-04-11T16:06:38Z</time></trkpt><trkpt lat="45.94179589732585" lon="9.121884555776573"><ele>307.8</ele><time>2026-04-11T16:06:39Z</time></trkpt><trkpt lat="45.941829580992135" lon="9.121768068913992"><ele>305.2</ele><time>2026-04-11T16:06:40Z</time></trkpt><trkpt lat="45.941844195939964" lon="9.121670679014803"><ele>302.6</ele><time>2026-04-11T16:06:41Z</time></trkpt><trkpt lat="45.941887393813225" lon="9.1215637041902"><ele>300.0</ele><time>2026-04-11T16:06:43Z</time></trkpt><trkpt lat="45.94197803102766" lon="9.121641037019534"><ele>298.6</ele><time>2026-04-11T16:06:45Z</time></trkpt><trkpt lat="45.94191329494863" lon="9.121712228088322"><ele>297.2</ele><time>2026-04-11T16:06:46Z</time></trkpt><trkpt lat="45.941888351298275" lon="9.121809014615343"><ele>295.8</ele><time>2026-04-11T16:06:47Z</time></trkpt><trkpt lat="45.94186384702192" lon="9.121950904487056"><ele>294.4</ele><time>2026-04-11T16:06:48Z</time></trkpt><trkpt lat="45.94181964455853" lon="9.12210416512511"><ele>293.0</ele><time>2026-04-11T16:06:49Z</time></trkpt><trkpt lat="45.941781412799976" lon="9.122286656264631"><ele>290.75</ele><time>2026-04-11T16:06:50Z</time></trkpt><trkpt lat="45.94172497119406" lon="9.122474403772118"><ele>288.5</ele><time>2026-04-11T16:06:51Z</time></trkpt><trkpt lat="45.94170278882941" lon="9.122674759281912"><ele>286.25</ele><time>2026-04-11T16:06:52Z</time></trkpt><trkpt lat="45.94166276230933" lon="9.122862701916903"><ele>284.0</ele><time>2026-04-11T16:06:53Z</time></trkpt><trkpt lat="45.941624709789664" lon="9.123055742917355"><ele>289.0</ele><time>2026-04-11T16:06:54Z</time></trkpt><trkpt lat="45.94158767402092" lon="9.123257643324305"><ele>294.0</ele><time>2026-04-11T16:06:55Z</time></trkpt><trkpt lat="45.941530811912244" lon="9.12345946633731"><ele>299.0</ele><time>2026-04-11T16:06:56Z</time></trkpt><trkpt lat="45.94150504020564" lon="9.123668260303148"><ele>304.0</ele><time>2026-04-11T16:06:57Z</time></trkpt><trkpt lat="45.94144994906849" lon="9.12385811659529"><ele>304.0</ele><time>2026-04-11T16:06:58Z</time></trkpt><trkpt lat="45.941429515129116" lon="9.124058388568093"><ele>304.0</ele><time>2026-04-11T16:06:59Z</time></trkpt><trkpt lat="45.94139698329493" lon="9.124248977323813"><ele>304.0</ele><time>2026-04-11T16:07:00Z</time></trkpt><trkpt lat="45.94136524359815" lon="9.124435470731585"><ele>304.0</ele><time>2026-04-11T16:07:01Z</time></trkpt><trkpt lat="45.941333000099334" lon="9.124604521949406"><ele>301.75</ele><time>2026-04-11T16:07:02Z</time></trkpt><trkpt lat="45.94129168770975" lon="9.12477356316494"><ele>299.5</ele><time>2026-04-11T16:07:03Z</time></trkpt><trkpt lat="45.941231540739984" lon="9.124935833946324"><ele>297.25</ele><time>2026-04-11T16:07:04Z</time></trkpt><trkpt lat="45.94116790529795" lon="9.125107225502362"><ele>295.0</ele><time>2026-04-11T16:07:05Z</time></trkpt><trkpt lat="45.941111015323365" lon="9.125290438240867"><ele>296.25</ele><time>2026-04-11T16:07:06Z</time></trkpt><trkpt lat="45.9410493891871" lon="9.125467111874874"><ele>297.5</ele><time>2026-04-11T16:07:07Z</time></trkpt><trkpt lat="45.94099127912922" lon="9.125651603951075"><ele>298.75</ele><time>2026-04-11T16:07:08Z</time></trkpt><trkpt lat="45.94093478924822" lon="9.125830018866383"><ele>300.0</ele><time>2026-04-11T16:07:09Z</time></trkpt><trkpt lat="45.94088111027665" lon="9.125995557728915"><ele>300.0</ele><time>2026-04-11T16:07:10Z</time></trkpt><trkpt lat="45.94082537903417" lon="9.12614913027981"><ele>300.0</ele><time>2026-04-11T16:07:11Z</time></trkpt><trkpt lat="45.94075597147866" lon="9.12629152807105"><ele>300.0</ele><time>2026-04-11T16:07:12Z</time></trkpt><trkpt lat="45.94066993285062" lon="9.126417664321274"><ele>300.0</ele><time>2026-04-11T16:07:13Z</time></trkpt><trkpt lat="45.94056569430549" lon="9.126524740261774"><ele>298.75</ele><time>2026-04-11T16:07:14Z</time></trkpt><trkpt lat="45.940447873526935" lon="9.126618297403668"><ele>297.5</ele><time>2026-04-11T16:07:15Z</time></trkpt><trkpt lat="45.94032241972203" lon="9.12669333090439"><ele>296.25</ele><time>2026-04-11T16:07:16Z</time></trkpt><trkpt lat="45.94018282135709" lon="9.126746448355435"><ele>295.0</ele><time>2026-04-11T16:07:17Z</time></trkpt><trkpt lat="45.94003759800365" lon="9.126779952100787"><ele>295.0</ele><time>2026-04-11T16:07:18Z</time></trkpt><trkpt lat="45.939900693619215" lon="9.126820180291476"><ele>295.0</ele><time>2026-04-11T16:07:19Z</time></trkpt><trkpt lat="45.9397695639659" lon="9.126863845578065"><ele>295.0</ele><time>2026-04-11T16:07:20Z</time></trkpt><trkpt lat="45.93962968414013" lon="9.126909884452552"><ele>295.0</ele><time>2026-04-11T16:07:21Z</time></trkpt><trkpt lat="45.93948913721226" lon="9.126959818210372"><ele>295.0</ele><time>2026-04-11T16:07:22Z</time></trkpt><trkpt lat="45.939350468539054" lon="9.127008249825298"><ele>295.0</ele><time>2026-04-11T16:07:23Z</time></trkpt><trkpt lat="45.93921567374424" lon="9.127051533829373"><ele>295.0</ele><time>2026-04-11T16:07:24Z</time></trkpt><trkpt lat="45.939095773822345" lon="9.127085057755725"><ele>295.0</ele><time>2026-04-11T16:07:25Z</time></trkpt><trkpt lat="45.938993744319376" lon="9.127093349859821"><ele>299.4</ele><time>2026-04-11T16:07:26Z</time></trkpt><trkpt lat="45.93889307108476" lon="9.127066767742425"><ele>303.8</ele><time>2026-04-11T16:07:27Z</time></trkpt><trkpt lat="45.938807815218134" lon="9.127030261705448"><ele>308.2</ele><time>2026-04-11T16:07:28Z</time></trkpt><trkpt lat="45.93870634126117" lon="9.126981535586426"><ele>312.6</ele><time>2026-04-11T16:07:30Z</time></trkpt><trkpt lat="45.9386444908712" lon="9.127069027689778"><ele>317.0</ele><time>2026-04-11T16:07:32Z</time></trkpt><trkpt lat="45.938756548497246" lon="9.127188574096675"><ele>317.0</ele><time>2026-04-11T16:07:34Z</time></trkpt><trkpt lat="45.9388524308507" lon="9.127230006868258"><ele>317.0</ele><time>2026-04-11T16:07:35Z</time></trkpt><trkpt lat="45.93894816622267" lon="9.12724987818256"><ele>317.0</ele><time>2026-04-11T16:07:36Z</time></trkpt><trkpt lat="45.93906312511796" lon="9.12726391350438"><ele>317.0</ele><time>2026-04-11T16:07:37Z</time></trkpt><trkpt lat="45.93918248891813" lon="9.127264727768496"><ele>317.0</ele><time>2026-04-11T16:07:38Z</time></trkpt><trkpt lat="45.93931029994381" lon="9.127256651386048"><ele>311.5</ele><time>2026-04-11T16:07:39Z</time></trkpt><trkpt lat="45.93945093964195" lon="9.127249021007463"><ele>306.0</ele><time>2026-04-11T16:07:40Z</time></trkpt><trkpt lat="45.939591714053485" lon="9.127241383321126"><ele>300.5</ele><time>2026-04-11T16:07:41Z</time></trkpt><trkpt lat="45.939734768700355" lon="9.127233621924677"><ele>295.0</ele><time>2026-04-11T16:07:42Z</time></trkpt><trkpt lat="45.939865188400994" lon="9.127226460455475"><ele>295.0</ele><time>2026-04-11T16:07:43Z</time></trkpt><trkpt lat="45.939978660660145" lon="9.127217459263543"><ele>295.0</ele><time>2026-04-11T16:07:44Z</time></trkpt><trkpt lat="45.94008184826916" lon="9.12721725477198"><ele>295.0</ele><time>2026-04-11T16:07:45Z</time></trkpt><trkpt lat="45.94021825215707" lon="9.127224132751534"><ele>295.0</ele><time>2026-04-11T16:07:46Z</time></trkpt><trkpt lat="45.94032969591506" lon="9.127212150350207"><ele>289.75</ele><time>2026-04-11T16:07:47Z</time></trkpt><trkpt lat="45.94045212837194" lon="9.127222903465547"><ele>284.5</ele><time>2026-04-11T16:07:48Z</time></trkpt><trkpt lat="45.940575703371856" lon="9.127241206493308"><ele>279.25</ele><time>2026-04-11T16:07:49Z</time></trkpt><trkpt lat="45.94069084189976" lon="9.12725815106646"><ele>274.0</ele><time>2026-04-11T16:07:50Z</time></trkpt><trkpt lat="45.94080651811909" lon="9.127258118290674"><ele>271.0</ele><time>2026-04-11T16:07:51Z</time></trkpt><trkpt lat="45.94091471671135" lon="9.127255610956208"><ele>268.0</ele><time>2026-04-11T16:07:52Z</time></trkpt><trkpt lat="45.94101704746501" lon="9.127242630382364"><ele>265.0</ele><time>2026-04-11T16:07:53Z</time></trkpt><trkpt lat="45.94110831969285" lon="9.127197966480855"><ele>262.0</ele><time>2026-04-11T16:07:54Z</time></trkpt><trkpt lat="45.94120145988611" lon="9.127117818425932"><ele>259.0</ele><time>2026-04-11T16:07:55Z</time></trkpt><trkpt lat="45.941301376099815" lon="9.12701760391987"><ele>259.0</ele><time>2026-04-11T16:07:56Z</time></trkpt><trkpt lat="45.94140523550177" lon="9.12696813694499"><ele>259.0</ele><time>2026-04-11T16:07:57Z</time></trkpt><trkpt lat="45.94149742921202" lon="9.126927864675826"><ele>259.0</ele><time>2026-04-11T16:07:58Z</time></trkpt><trkpt lat="45.94159058130802" lon="9.12689843334455"><ele>259.0</ele><time>2026-04-11T16:07:59Z</time></trkpt><trkpt lat="45.94169499852773" lon="9.126906019725245"><ele>259.0</ele><time>2026-04-11T16:08:00Z</time></trkpt><trkpt lat="45.94181519785904" lon="9.126931556722154"><ele>256.0</ele><time>2026-04-11T16:08:01Z</time></trkpt><trkpt lat="45.94194566395885" lon="9.1269662542516"><ele>253.0</ele><time>2026-04-11T16:08:02Z</time></trkpt><trkpt lat="45.94206466671613" lon="9.126961079277292"><ele>250.0</ele><time>2026-04-11T16:08:03Z</time></trkpt><trkpt lat="45.94218452517907" lon="9.126970042264245"><ele>247.0</ele><time>2026-04-11T16:08:04Z</time></trkpt><trkpt lat="45.942294925913714" lon="9.12694917216433"><ele>247.0</ele><time>2026-04-11T16:08:05Z</time></trkpt><trkpt lat="45.94239389350232" lon="9.12692246049126"><ele>247.0</ele><time>2026-04-11T16:08:06Z</time></trkpt><trkpt lat="45.94246269666359" lon="9.126887333985305"><ele>247.0</ele><time>2026-04-11T16:08:07Z</time></trkpt><trkpt lat="45.94254350847822" lon="9.126854526241788"><ele>247.0</ele><time>2026-04-11T16:08:09Z</time></trkpt><trkpt lat="45.94254779568613" lon="9.126977096491425"><ele>247.0</ele><time>2026-04-11T16:08:12Z</time></trkpt><trkpt lat="45.94241846149356" lon="9.126968385689734"><ele>247.0</ele><time>2026-04-11T16:08:14Z</time></trkpt><trkpt lat="45.94232991262926" lon="9.126993865856804"><ele>247.0</ele><time>2026-04-11T16:08:15Z</time></trkpt><trkpt lat="45.94222355507816" lon="9.127032488018097"><ele>247.0</ele><time>2026-04-11T16:08:16Z</time></trkpt><trkpt lat="45.94211160807457" lon="9.127081794455922"><ele>247.0</ele><time>2026-04-11T16:08:17Z</time></trkpt><trkpt lat="45.94198867250114" lon="9.12708230052813"><ele>247.0</ele><time>2026-04-11T16:08:18Z</time></trkpt><trkpt lat="45.94187950973322" lon="9.12710045560651"><ele>247.0</ele><time>2026-04-11T16:08:19Z</time></trkpt><trkpt lat="45.94177086285729" lon="9.127123956240906"><ele>247.0</ele><time>2026-04-11T16:08:20Z</time></trkpt><trkpt lat="45.9416613845197" lon="9.127181539516705"><ele>247.0</ele><time>2026-04-11T16:08:21Z</time></trkpt><trkpt lat="45.94155293725565" lon="9.12724094277171"><ele>247.0</ele><time>2026-04-11T16:08:22Z</time></trkpt><trkpt lat="45.941440898691575" lon="9.127279383366146"><ele>250.0</ele><time>2026-04-11T16:08:23Z</time></trkpt><trkpt lat="45.941328765642915" lon="9.127361986926509"><ele>253.0</ele><time>2026-04-11T16:08:24Z</time></trkpt><trkpt lat="45.9412301114836" lon="9.12748393517282"><ele>256.0</ele><time>2026-04-11T16:08:25Z</time></trkpt><trkpt lat="45.94113107080396" lon="9.127584665574087"><ele>259.0</ele><time>2026-04-11T16:08:26Z</time></trkpt><trkpt lat="45.941014517852636" lon="9.127640824295375"><ele>255.25</ele><time>2026-04-11T16:08:27Z</time></trkpt><trkpt lat="45.94088462212524" lon="9.127669890321851"><ele>251.5</ele><time>2026-04-11T16:08:28Z</time></trkpt><trkpt lat="45.940748039084795" lon="9.127698861736777"><ele>247.75</ele><time>2026-04-11T16:08:29Z</time></trkpt><trkpt lat="45.94061113493133" lon="9.127726888075959"><ele>244.0</ele><time>2026-04-11T16:08:30Z</time></trkpt><trkpt lat="45.940475605015244" lon="9.127755378690095"><ele>244.0</ele><time>2026-04-11T16:08:31Z</time></trkpt><trkpt lat="45.940345704021766" lon="9.127790475075166"><ele>244.0</ele><time>2026-04-11T16:08:32Z</time></trkpt><trkpt lat="45.94022391860191" lon="9.127829418072608"><ele>244.0</ele><time>2026-04-11T16:08:33Z</time></trkpt><trkpt lat="45.94010846081614" lon="9.127852724596966"><ele>244.0</ele><time>2026-04-11T16:08:34Z</time></trkpt><trkpt lat="45.94001199810046" lon="9.127878423049342"><ele>245.0</ele><time>2026-04-11T16:08:35Z</time></trkpt><trkpt lat="45.93993149997274" lon="9.127867259563454"><ele>245.99999999999997</ele><time>2026-04-11T16:08:36Z</time></trkpt><trkpt lat="45.939844922865" lon="9.12782496779793"><ele>246.99999999999997</ele><time>2026-04-11T16:08:37Z</time></trkpt><trkpt lat="45.939747808750774" lon="9.127752785010653"><ele>248.0</ele><time>2026-04-11T16:08:38Z</time></trkpt><trkpt lat="45.93965495618698" lon="9.127682267908101"><ele>249.0</ele><time>2026-04-11T16:08:39Z</time></trkpt><trkpt lat="45.93956505922946" lon="9.127621458983018"><ele>249.0</ele><time>2026-04-11T16:08:40Z</time></trkpt><trkpt lat="45.93947249035817" lon="9.127599578519293"><ele>248.99999999999997</ele><time>2026-04-11T16:08:41Z</time></trkpt><trkpt lat="45.93937618142705" lon="9.127625286930389"><ele>248.99999999999997</ele><time>2026-04-11T16:08:42Z</time></trkpt><trkpt lat="45.93927596025566" lon="9.127686374969334"><ele>249.0</ele><time>2026-04-11T16:08:43Z</time></trkpt><trkpt lat="45.93917050091872" lon="9.127751358635711"><ele>249.0</ele><time>2026-04-11T16:08:44Z</time></trkpt><trkpt lat="45.93904864350183" lon="9.127801968413845"><ele>251.25</ele><time>2026-04-11T16:08:45Z</time></trkpt><trkpt lat="45.938912833933934" lon="9.127815936383858"><ele>253.5</ele><time>2026-04-11T16:08:46Z</time></trkpt><trkpt lat="45.93877670652465" lon="9.127839164140827"><ele>255.75</ele><time>2026-04-11T16:08:47Z</time></trkpt><trkpt lat="45.938649672675155" lon="9.127844363653914"><ele>258.0</ele><time>2026-04-11T16:08:48Z</time></trkpt><trkpt lat="45.93852656998773" lon="9.127858229921515"><ele>258.0</ele><time>2026-04-11T16:08:49Z</time></trkpt><trkpt lat="45.9384082812358" lon="9.127862494517174"><ele>258.0</ele><time>2026-04-11T16:08:50Z</time></trkpt><trkpt lat="45.93829319385978" lon="9.127860035391603"><ele>258.0</ele><time>2026-04-11T16:08:51Z</time></trkpt><trkpt lat="45.93819298023062" lon="9.127846371284365"><ele>258.0</ele><time>2026-04-11T16:08:52Z</time></trkpt><trkpt lat="45.938106739116876" lon="9.127840027692875"><ele>258.0</ele><time>2026-04-11T16:08:53Z</time></trkpt><trkpt lat="45.93804221206421" lon="9.127855557865562"><ele>256.6</ele><time>2026-04-11T16:08:54Z</time></trkpt><trkpt lat="45.93798176371093" lon="9.127952842033713"><ele>255.20000000000002</ele><time>2026-04-11T16:08:56Z</time></trkpt><trkpt lat="45.93802743538617" lon="9.1280320221783"><ele>253.8</ele><time>2026-04-11T16:09:09Z</time></trkpt><trkpt lat="45.9381678655503" lon="9.12804470023579"><ele>252.4</ele><time>2026-04-11T16:09:11Z</time></trkpt><trkpt lat="45.938270940518976" lon="9.128021435794297"><ele>251.0</ele><time>2026-04-11T16:09:12Z</time></trkpt><trkpt lat="45.93837667250645" lon="9.128000985543796"><ele>252.75</ele><time>2026-04-11T16:09:13Z</time></trkpt><trkpt lat="45.93849469409794" lon="9.127981764100063"><ele>254.5</ele><time>2026-04-11T16:09:14Z</time></trkpt><trkpt lat="45.93861916701" lon="9.127966484526976"><ele>256.25</ele><time>2026-04-11T16:09:15Z</time></trkpt><trkpt lat="45.9387550721927" lon="9.127957130356009"><ele>258.0</ele><time>2026-04-11T16:09:16Z</time></trkpt><trkpt lat="45.938893390463086" lon="9.12793866461836"><ele>258.0</ele><time>2026-04-11T16:09:17Z</time></trkpt><trkpt lat="45.93904102231577" lon="9.127914779571853"><ele>258.0</ele><time>2026-04-11T16:09:18Z</time></trkpt><trkpt lat="45.93918490882812" lon="9.12789544414728"><ele>258.0</ele><time>2026-04-11T16:09:19Z</time></trkpt><trkpt lat="45.93932042361584" lon="9.127877360740108"><ele>258.0</ele><time>2026-04-11T16:09:20Z</time></trkpt><trkpt lat="45.93944686830174" lon="9.127867287414485"><ele>255.75</ele><time>2026-04-11T16:09:21Z</time></trkpt><trkpt lat="45.939567886871735" lon="9.127892085448423"><ele>253.5</ele><time>2026-04-11T16:09:22Z</time></trkpt><trkpt lat="45.93967594445274" lon="9.127995326048161"><ele>251.25</ele><time>2026-04-11T16:09:23Z</time></trkpt><trkpt lat="45.93978969535933" lon="9.12809076763613"><ele>249.0</ele><time>2026-04-11T16:09:24Z</time></trkpt><trkpt lat="45.93988518402419" lon="9.128190032932368"><ele>247.75</ele><time>2026-04-11T16:09:25Z</time></trkpt><trkpt lat="45.9399906510548" lon="9.128241642433919"><ele>246.5</ele><time>2026-04-11T16:09:26Z</time></trkpt><trkpt lat="45.94011622576729" lon="9.128233061919827"><ele>245.25</ele><time>2026-04-11T16:09:27Z</time></trkpt><trkpt lat="45.940256006929545" lon="9.128212408759763"><ele>244.0</ele><time>2026-04-11T16:09:28Z</time></trkpt><trkpt lat="45.940389780047" lon="9.128219453385015"><ele>242.0</ele><time>2026-04-11T16:09:29Z</time></trkpt><trkpt lat="45.94050519660167" lon="9.128239303046673"><ele>239.99999999999997</ele><time>2026-04-11T16:09:30Z</time></trkpt><trkpt lat="45.94060658527882" lon="9.128261049930204"><ele>237.99999999999997</ele><time>2026-04-11T16:09:31Z</time></trkpt><trkpt lat="45.940709341783716" lon="9.128271425943694"><ele>236.0</ele><time>2026-04-11T16:09:32Z</time></trkpt><trkpt lat="45.94080864888504" lon="9.128243381569643"><ele>234.0</ele><time>2026-04-11T16:09:33Z</time></trkpt><trkpt lat="45.94090501698617" lon="9.128207807423898"><ele>234.0</ele><time>2026-04-11T16:09:34Z</time></trkpt><trkpt lat="45.94100091987493" lon="9.12817691459103"><ele>233.99999999999997</ele><time>2026-04-11T16:09:35Z</time></trkpt><trkpt lat="45.94109600168785" lon="9.128160172328046"><ele>233.99999999999997</ele><time>2026-04-11T16:09:36Z</time></trkpt><trkpt lat="45.94119111559476" lon="9.128133971135867"><ele>234.0</ele><time>2026-04-11T16:09:37Z</time></trkpt><trkpt lat="45.94128829430011" lon="9.128110887720203"><ele>234.0</ele><time>2026-04-11T16:09:38Z</time></trkpt><trkpt lat="45.94138620720447" lon="9.128097766547457"><ele>234.0</ele><time>2026-04-11T16:09:39Z</time></trkpt><trkpt lat="45.941488816292555" lon="9.128090745357836"><ele>233.99999999999997</ele><time>2026-04-11T16:09:40Z</time></trkpt><trkpt lat="45.94158745652487" lon="9.128099709645488"><ele>233.99999999999997</ele><time>2026-04-11T16:09:41Z</time></trkpt><trkpt lat="45.941679805882224" lon="9.128114395150686"><ele>234.0</ele><time>2026-04-11T16:09:42Z</time></trkpt><trkpt lat="45.941766059740196" lon="9.128129807467756"><ele>234.0</ele><time>2026-04-11T16:09:43Z</time></trkpt><trkpt lat="45.941853026811856" lon="9.128139600700596"><ele>232.0</ele><time>2026-04-11T16:09:44Z</time></trkpt><trkpt lat="45.94193801264754" lon="9.128150942288215"><ele>230.0</ele><time>2026-04-11T16:09:45Z</time></trkpt><trkpt lat="45.942029205078704" lon="9.128155992279419"><ele>228.0</ele><time>2026-04-11T16:09:46Z</time></trkpt><trkpt lat="45.942118747593874" lon="9.128153333736309"><ele>226.0</ele><time>2026-04-11T16:09:47Z</time></trkpt><trkpt lat="45.94220595717798" lon="9.128145497964557"><ele>224.0</ele><time>2026-04-11T16:09:48Z</time></trkpt><trkpt lat="45.942286724014714" lon="9.12814018721657"><ele>222.0</ele><time>2026-04-11T16:09:49Z</time></trkpt><trkpt lat="45.94235425752072" lon="9.128156373454038"><ele>218.8</ele><time>2026-04-11T16:09:50Z</time></trkpt><trkpt lat="45.94245559369594" lon="9.128245293269536"><ele>215.6</ele><time>2026-04-11T16:09:52Z</time></trkpt><trkpt lat="45.94253736222912" lon="9.128273411237391"><ele>212.4</ele><time>2026-04-11T16:09:54Z</time></trkpt><trkpt lat="45.94263428778299" lon="9.128291662602077"><ele>209.20000000000002</ele><time>2026-04-11T16:09:56Z</time></trkpt><trkpt lat="45.94274236851534" lon="9.128317501129375"><ele>206.0</ele><time>2026-04-11T16:09:58Z</time></trkpt><trkpt lat="45.942834902444446" lon="9.128327287796909"><ele>205.99999999999997</ele><time>2026-04-11T16:10:00Z</time></trkpt><trkpt lat="45.942898104551176" lon="9.128314399563696"><ele>206.0</ele><time>2026-04-11T16:10:03Z</time></trkpt><trkpt lat="45.942956673070434" lon="9.128278357479054"><ele>206.0</ele><time>2026-04-11T16:10:12Z</time></trkpt><trkpt lat="45.94293341292459" lon="9.128370803885252"><ele>206.0</ele><time>2026-04-11T16:11:42Z</time></trkpt><trkpt lat="45.94294660001469" lon="9.128279620077459"><ele>206.0</ele><time>2026-04-11T16:14:27Z</time></trkpt><trkpt lat="45.94294494079762" lon="9.128183372428834"><ele>205.99999999999997</ele><time>2026-04-11T16:14:51Z</time></trkpt><trkpt lat="45.942949420675966" lon="9.12827893709276"><ele>206.0</ele><time>2026-04-11T17:13:52Z</time></trkpt><trkpt lat="45.942964237862824" lon="9.128373200351488"><ele>206.00000000000003</ele><time>2026-04-11T17:13:58Z</time></trkpt><trkpt lat="45.94296656189055" lon="9.128247957163364"><ele>206.0</ele><time>2026-04-11T17:14:41.165Z</time></trkpt><trkpt lat="45.94299645048587" lon="9.128131685996724"><ele>206.0</ele><time>2026-04-11T17:14:47.385Z</time></trkpt><trkpt lat="45.94294277792063" lon="9.128192087493762"><ele>206.0</ele><time>2026-04-11T17:14:57Z</time></trkpt><trkpt lat="45.94294089734323" lon="9.128287597883311"><ele>206.00000000000003</ele><time>2026-04-11T17:15:03Z</time></trkpt><trkpt lat="45.943004764679756" lon="9.128303507423421"><ele>206.0</ele><time>2026-04-11T17:18:00Z</time></trkpt><trkpt lat="45.94308054257702" lon="9.12832649622708"><ele>207.60000000000002</ele><time>2026-04-11T17:18:02Z</time></trkpt><trkpt lat="45.94307803803777" lon="9.128209824121432"><ele>209.2</ele><time>2026-04-11T17:18:15Z</time></trkpt><trkpt lat="45.94295678163965" lon="9.128153381195967"><ele>210.79999999999998</ele><time>2026-04-11T17:18:17Z</time></trkpt><trkpt lat="45.9428743894239" lon="9.128135655088968"><ele>212.39999999999998</ele><time>2026-04-11T17:18:18Z</time></trkpt><trkpt lat="45.94278840574676" lon="9.128105684081468"><ele>214.0</ele><time>2026-04-11T17:18:19Z</time></trkpt><trkpt lat="45.9426953512194" lon="9.12808499284442"><ele>214.0</ele><time>2026-04-11T17:18:20Z</time></trkpt><trkpt lat="45.942597474931425" lon="9.128075534233993"><ele>213.99999999999997</ele><time>2026-04-11T17:18:21Z</time></trkpt><trkpt lat="45.9425087705351" lon="9.128078049702603"><ele>213.99999999999997</ele><time>2026-04-11T17:18:22Z</time></trkpt><trkpt lat="45.94241897664961" lon="9.128078739036708"><ele>214.0</ele><time>2026-04-11T17:18:23Z</time></trkpt><trkpt lat="45.942322475746074" lon="9.128083930672302"><ele>214.0</ele><time>2026-04-11T17:18:24Z</time></trkpt><trkpt lat="45.942227473541635" lon="9.128094477163522"><ele>215.6</ele><time>2026-04-11T17:18:25Z</time></trkpt><trkpt lat="45.94213440707376" lon="9.128100414695355"><ele>217.2</ele><time>2026-04-11T17:18:26Z</time></trkpt><trkpt lat="45.94204128894076" lon="9.128115085493196"><ele>218.79999999999998</ele><time>2026-04-11T17:18:27Z</time></trkpt><trkpt lat="45.941945668348794" lon="9.128115177850079"><ele>220.39999999999998</ele><time>2026-04-11T17:18:28Z</time></trkpt><trkpt lat="45.941853718813285" lon="9.128095301079652"><ele>222.0</ele><time>2026-04-11T17:18:29Z</time></trkpt><trkpt lat="45.94176313485201" lon="9.128082431988632"><ele>225.0</ele><time>2026-04-11T17:18:30Z</time></trkpt><trkpt lat="45.94165719957725" lon="9.128067406288077"><ele>228.0</ele><time>2026-04-11T17:18:31Z</time></trkpt><trkpt lat="45.94153789942219" lon="9.128059905747842"><ele>231.0</ele><time>2026-04-11T17:18:32Z</time></trkpt><trkpt lat="45.94142603129014" lon="9.128057389017945"><ele>234.0</ele><time>2026-04-11T17:18:33Z</time></trkpt><trkpt lat="45.941313545011965" lon="9.12806376173713"><ele>234.0</ele><time>2026-04-11T17:18:34Z</time></trkpt><trkpt lat="45.941208919334585" lon="9.128092054554058"><ele>233.99999999999997</ele><time>2026-04-11T17:18:35Z</time></trkpt><trkpt lat="45.94111633476948" lon="9.128120723670815"><ele>233.99999999999997</ele><time>2026-04-11T17:18:36Z</time></trkpt><trkpt lat="45.94102932182772" lon="9.128143356623962"><ele>234.0</ele><time>2026-04-11T17:18:37Z</time></trkpt><trkpt lat="45.940935845630264" lon="9.128175664222177"><ele>234.0</ele><time>2026-04-11T17:18:38Z</time></trkpt><trkpt lat="45.94083941293605" lon="9.128187853190965"><ele>236.0</ele><time>2026-04-11T17:18:39Z</time></trkpt><trkpt lat="45.9407433032545" lon="9.128213859904074"><ele>237.99999999999997</ele><time>2026-04-11T17:18:40Z</time></trkpt><trkpt lat="45.940648284361316" lon="9.128231291904955"><ele>239.99999999999997</ele><time>2026-04-11T17:18:41Z</time></trkpt><trkpt lat="45.94055534141892" lon="9.128234224131235"><ele>242.0</ele><time>2026-04-11T17:18:42Z</time></trkpt><trkpt lat="45.94047100690207" lon="9.128212216055276"><ele>244.0</ele><time>2026-04-11T17:18:43Z</time></trkpt><trkpt lat="45.940374045831554" lon="9.128202803180125"><ele>243.99999999999997</ele><time>2026-04-11T17:18:44Z</time></trkpt><trkpt lat="45.94028248103632" lon="9.128196826454275"><ele>244.0</ele><time>2026-04-11T17:18:45Z</time></trkpt><trkpt lat="45.94019112088129" lon="9.12818478325414"><ele>244.0</ele><time>2026-04-11T17:18:46Z</time></trkpt><trkpt lat="45.94009896017615" lon="9.128183812421588"><ele>244.0</ele><time>2026-04-11T17:18:47Z</time></trkpt><trkpt lat="45.940017355772795" lon="9.128178535487054"><ele>243.99999999999997</ele><time>2026-04-11T17:18:48Z</time></trkpt><trkpt lat="45.93993552862971" lon="9.12817178524765"><ele>244.0</ele><time>2026-04-11T17:18:49Z</time></trkpt><trkpt lat="45.939854848375994" lon="9.128131520412738"><ele>245.0</ele><time>2026-04-11T17:18:50Z</time></trkpt><trkpt lat="45.939773657971514" lon="9.128059373246268"><ele>245.99999999999997</ele><time>2026-04-11T17:18:51Z</time></trkpt><trkpt lat="45.939692277611286" lon="9.127969182797745"><ele>246.99999999999997</ele><time>2026-04-11T17:18:52Z</time></trkpt><trkpt lat="45.93960121689239" lon="9.127891423868256"><ele>248.0</ele><time>2026-04-11T17:18:53Z</time></trkpt><trkpt lat="45.93950535124448" lon="9.127846244557558"><ele>249.0</ele><time>2026-04-11T17:18:54Z</time></trkpt><trkpt lat="45.93940740466922" lon="9.127834400154555"><ele>249.0</ele><time>2026-04-11T17:18:55Z</time></trkpt><trkpt lat="45.939305698153994" lon="9.127843756753215"><ele>248.99999999999997</ele><time>2026-04-11T17:18:56Z</time></trkpt><trkpt lat="45.93920215013375" lon="9.12786159791544"><ele>248.99999999999997</ele><time>2026-04-11T17:18:57Z</time></trkpt><trkpt lat="45.93909521747738" lon="9.127879173516051"><ele>249.0</ele><time>2026-04-11T17:18:58Z</time></trkpt><trkpt lat="45.9389915141255" lon="9.127896739144743"><ele>249.0</ele><time>2026-04-11T17:18:59Z</time></trkpt><trkpt lat="45.93888886722639" lon="9.127907619844622"><ele>249.39999999999998</ele><time>2026-04-11T17:19:00Z</time></trkpt><trkpt lat="45.93878275651349" lon="9.127920220506473"><ele>249.79999999999998</ele><time>2026-04-11T17:19:01Z</time></trkpt><trkpt lat="45.938676387748096" lon="9.127933514272613"><ele>250.20000000000002</ele><time>2026-04-11T17:19:02Z</time></trkpt><trkpt lat="45.938565162618126" lon="9.127951057576325"><ele>250.60000000000002</ele><time>2026-04-11T17:19:03Z</time></trkpt><trkpt lat="45.93844419689296" lon="9.127968841942392"><ele>251.0</ele><time>2026-04-11T17:19:04Z</time></trkpt><trkpt lat="45.93831403242975" lon="9.127985620104582"><ele>251.0</ele><time>2026-04-11T17:19:05Z</time></trkpt><trkpt lat="45.938181959310306" lon="9.128003636701363"><ele>251.0</ele><time>2026-04-11T17:19:06Z</time></trkpt><trkpt lat="45.93804333718853" lon="9.128025756241984"><ele>251.0</ele><time>2026-04-11T17:19:07Z</time></trkpt><trkpt lat="45.93790335283433" lon="9.128031196436087"><ele>251.0</ele><time>2026-04-11T17:19:08Z</time></trkpt><trkpt lat="45.937773204127204" lon="9.128062900960138"><ele>251.0</ele><time>2026-04-11T17:19:09Z</time></trkpt><trkpt lat="45.937647548536006" lon="9.128092670612366"><ele>251.0</ele><time>2026-04-11T17:19:10Z</time></trkpt><trkpt lat="45.937516190284065" lon="9.128136529613291"><ele>251.0</ele><time>2026-04-11T17:19:11Z</time></trkpt><trkpt lat="45.93738432283451" lon="9.128191541287439"><ele>251.0</ele><time>2026-04-11T17:19:12Z</time></trkpt><trkpt lat="45.93725136449586" lon="9.128243148673823"><ele>242.75</ele><time>2026-04-11T17:19:13Z</time></trkpt><trkpt lat="45.93712070491982" lon="9.128292409035517"><ele>234.5</ele><time>2026-04-11T17:19:13.999Z</time></trkpt><trkpt lat="45.93699668842231" lon="9.128334432527774"><ele>226.25</ele><time>2026-04-11T17:19:14.999Z</time></trkpt><trkpt lat="45.93687882585791" lon="9.12836522939683"><ele>218.0</ele><time>2026-04-11T17:19:15.999Z</time></trkpt><trkpt lat="45.93675565619837" lon="9.128381287868391"><ele>222.25</ele><time>2026-04-11T17:19:16.999Z</time></trkpt><trkpt lat="45.93662912920225" lon="9.128376863127642"><ele>226.5</ele><time>2026-04-11T17:19:17.999Z</time></trkpt><trkpt lat="45.93649866589849" lon="9.12836582892362"><ele>230.75</ele><time>2026-04-11T17:19:18.999Z</time></trkpt><trkpt lat="45.93634924900733" lon="9.128349560732953"><ele>235.0</ele><time>2026-04-11T17:19:19.999Z</time></trkpt><trkpt lat="45.93618585877615" lon="9.128323788316585"><ele>235.0</ele><time>2026-04-11T17:19:20.999Z</time></trkpt><trkpt lat="45.936010968552026" lon="9.128292622696259"><ele>235.0</ele><time>2026-04-11T17:19:21.999Z</time></trkpt><trkpt lat="45.93583222078574" lon="9.128256963158409"><ele>235.0</ele><time>2026-04-11T17:19:22.999Z</time></trkpt><trkpt lat="45.935644358890286" lon="9.128221900750223"><ele>252.33333333333331</ele><time>2026-04-11T17:19:23.999Z</time></trkpt><trkpt lat="45.935452131223265" lon="9.128188903893523"><ele>269.6666666666667</ele><time>2026-04-11T17:19:24.999Z</time></trkpt><trkpt lat="45.93527156362218" lon="9.128154511753477"><ele>287.0</ele><time>2026-04-11T17:19:25.999Z</time></trkpt><trkpt lat="45.935102940321684" lon="9.128126847206376"><ele>283.6666666666667</ele><time>2026-04-11T17:19:26.999Z</time></trkpt><trkpt lat="45.93493753714674" lon="9.128111381132008"><ele>280.3333333333333</ele><time>2026-04-11T17:19:27.999Z</time></trkpt><trkpt lat="45.93477441793064" lon="9.12811176060982"><ele>277.0</ele><time>2026-04-11T17:19:28.999Z</time></trkpt><trkpt lat="45.93460627997787" lon="9.128126684462202"><ele>277.0</ele><time>2026-04-11T17:19:29.999Z</time></trkpt><trkpt lat="45.93442157726345" lon="9.128154859329712"><ele>277.0</ele><time>2026-04-11T17:19:30.999Z</time></trkpt><trkpt lat="45.93421662910487" lon="9.12821740421498"><ele>277.0</ele><time>2026-04-11T17:19:31.999Z</time></trkpt><trkpt lat="45.93400616153781" lon="9.128305239304801"><ele>257.66666666666663</ele><time>2026-04-11T17:19:32.999Z</time></trkpt><trkpt lat="45.93378915724245" lon="9.128364954697815"><ele>238.33333333333331</ele><time>2026-04-11T17:19:33.999Z</time></trkpt><trkpt lat="45.93358493359491" lon="9.128424963964582"><ele>219.0</ele><time>2026-04-11T17:19:34.999Z</time></trkpt><trkpt lat="45.93339194699433" lon="9.128480013752526"><ele>221.0</ele><time>2026-04-11T17:19:35.999Z</time></trkpt><trkpt lat="45.93320268915691" lon="9.12851942790949"><ele>223.0</ele><time>2026-04-11T17:19:36.999Z</time></trkpt><trkpt lat="45.933018528145496" lon="9.12851966976483"><ele>225.0</ele><time>2026-04-11T17:19:37.999Z</time></trkpt><trkpt lat="45.93284673316831" lon="9.128469758523304"><ele>225.0</ele><time>2026-04-11T17:19:38.999Z</time></trkpt><trkpt lat="45.93268410158649" lon="9.12841122790739"><ele>225.0</ele><time>2026-04-11T17:19:39.999Z</time></trkpt><trkpt lat="45.93252977549825" lon="9.128371310654813"><ele>225.0</ele><time>2026-04-11T17:19:40.999Z</time></trkpt><trkpt lat="45.9323872675397" lon="9.128332722805245"><ele>224.75</ele><time>2026-04-11T17:19:41.999Z</time></trkpt><trkpt lat="45.9322443271396" lon="9.128289123698952"><ele>224.5</ele><time>2026-04-11T17:19:42.999Z</time></trkpt><trkpt lat="45.93209805344207" lon="9.128252833550004"><ele>224.25</ele><time>2026-04-11T17:19:43.999Z</time></trkpt><trkpt lat="45.9319586245996" lon="9.128226920677205"><ele>224.0</ele><time>2026-04-11T17:19:44.999Z</time></trkpt><trkpt lat="45.93182330524992" lon="9.12821913488116"><ele>223.5</ele><time>2026-04-11T17:19:45.999Z</time></trkpt><trkpt lat="45.93169349620987" lon="9.128234897550389"><ele>223.0</ele><time>2026-04-11T17:19:46.999Z</time></trkpt><trkpt lat="45.93156436723529" lon="9.128272926249714"><ele>222.5</ele><time>2026-04-11T17:19:47.999Z</time></trkpt><trkpt lat="45.931435539117054" lon="9.12830187697167"><ele>222.0</ele><time>2026-04-11T17:19:48.999Z</time></trkpt><trkpt lat="45.931299215423934" lon="9.128332212700458"><ele>222.0</ele><time>2026-04-11T17:19:49.999Z</time></trkpt><trkpt lat="45.93116547911861" lon="9.128367307003332"><ele>222.0</ele><time>2026-04-11T17:19:50.999Z</time></trkpt><trkpt lat="45.931026236680864" lon="9.128398871017694"><ele>222.0</ele><time>2026-04-11T17:19:51.999Z</time></trkpt><trkpt lat="45.93089301941652" lon="9.12843010497533"><ele>222.0</ele><time>2026-04-11T17:19:52.999Z</time></trkpt><trkpt lat="45.930762166772205" lon="9.128459599613215"><ele>226.25</ele><time>2026-04-11T17:19:53.999Z</time></trkpt><trkpt lat="45.930632214017" lon="9.128491942754719"><ele>230.5</ele><time>2026-04-11T17:19:54.999Z</time></trkpt><trkpt lat="45.93051196609062" lon="9.128523970561131"><ele>234.75</ele><time>2026-04-11T17:19:55.999Z</time></trkpt><trkpt lat="45.93039512619776" lon="9.128559056165733"><ele>239.0</ele><time>2026-04-11T17:19:57Z</time></trkpt><trkpt lat="45.93028072943759" lon="9.128606573313649"><ele>239.0</ele><time>2026-04-11T17:19:58Z</time></trkpt><trkpt lat="45.93016915097057" lon="9.128686248674914"><ele>239.0</ele><time>2026-04-11T17:19:59Z</time></trkpt><trkpt lat="45.930048077967584" lon="9.128807898804306"><ele>239.0</ele><time>2026-04-11T17:20:00Z</time></trkpt><trkpt lat="45.929931427866904" lon="9.129010781491512"><ele>232.0</ele><time>2026-04-11T17:20:01Z</time></trkpt><trkpt lat="45.92981539497103" lon="9.129180635983387"><ele>225.0</ele><time>2026-04-11T17:20:02Z</time></trkpt><trkpt lat="45.92970780199954" lon="9.12933018009701"><ele>218.0</ele><time>2026-04-11T17:20:03Z</time></trkpt><trkpt lat="45.929583364530416" lon="9.129443134468639"><ele>218.0</ele><time>2026-04-11T17:20:04Z</time></trkpt><trkpt lat="45.92945094575764" lon="9.129511576173067"><ele>218.0</ele><time>2026-04-11T17:20:05Z</time></trkpt><trkpt lat="45.92932183034444" lon="9.129564748945493"><ele>218.0</ele><time>2026-04-11T17:20:06Z</time></trkpt><trkpt lat="45.929195132762246" lon="9.129622220873891"><ele>218.0</ele><time>2026-04-11T17:20:07Z</time></trkpt><trkpt lat="45.929065256502135" lon="9.129682681232069"><ele>216.25</ele><time>2026-04-11T17:20:08Z</time></trkpt><trkpt lat="45.92893578545521" lon="9.129738547868442"><ele>214.5</ele><time>2026-04-11T17:20:09Z</time></trkpt><trkpt lat="45.928807894339236" lon="9.129794634461243"><ele>212.75</ele><time>2026-04-11T17:20:10Z</time></trkpt><trkpt lat="45.928683283006606" lon="9.12984540963348"><ele>211.0</ele><time>2026-04-11T17:20:11Z</time></trkpt><trkpt lat="45.92855564929113" lon="9.12990041036136"><ele>211.0</ele><time>2026-04-11T17:20:12Z</time></trkpt><trkpt lat="45.92842662684062" lon="9.129955440749127"><ele>211.0</ele><time>2026-04-11T17:20:13Z</time></trkpt><trkpt lat="45.92828915072674" lon="9.13001100178328"><ele>211.0</ele><time>2026-04-11T17:20:14Z</time></trkpt><trkpt lat="45.92815015796998" lon="9.130068218169015"><ele>211.0</ele><time>2026-04-11T17:20:15Z</time></trkpt><trkpt lat="45.928004288211746" lon="9.130128434347967"><ele>214.0</ele><time>2026-04-11T17:20:16Z</time></trkpt><trkpt lat="45.92785451581796" lon="9.130190073922963"><ele>217.0</ele><time>2026-04-11T17:20:17Z</time></trkpt><trkpt lat="45.9277080893904" lon="9.130250528420607"><ele>220.0</ele><time>2026-04-11T17:20:18Z</time></trkpt><trkpt lat="45.927568248346155" lon="9.130312000772143"><ele>227.75</ele><time>2026-04-11T17:20:19Z</time></trkpt><trkpt lat="45.92742777454957" lon="9.13036959838171"><ele>235.5</ele><time>2026-04-11T17:20:20Z</time></trkpt><trkpt lat="45.92729380871753" lon="9.130428383563926"><ele>243.25</ele><time>2026-04-11T17:20:21Z</time></trkpt><trkpt lat="45.92716972516414" lon="9.13049093296037"><ele>251.0</ele><time>2026-04-11T17:20:22Z</time></trkpt><trkpt lat="45.927055524294516" lon="9.13056174366121"><ele>251.0</ele><time>2026-04-11T17:20:23Z</time></trkpt><trkpt lat="45.9269513649055" lon="9.130636645440063"><ele>251.0</ele><time>2026-04-11T17:20:24Z</time></trkpt><trkpt lat="45.92685136039992" lon="9.13071107866047"><ele>251.0</ele><time>2026-04-11T17:20:25Z</time></trkpt><trkpt lat="45.926745106286155" lon="9.130772231446485"><ele>251.0</ele><time>2026-04-11T17:20:26Z</time></trkpt><trkpt lat="45.9266321321969" lon="9.130815829705648"><ele>244.25</ele><time>2026-04-11T17:20:27Z</time></trkpt><trkpt lat="45.926517369001964" lon="9.130846849166018"><ele>237.5</ele><time>2026-04-11T17:20:28Z</time></trkpt><trkpt lat="45.92640059254716" lon="9.13085967885695"><ele>230.75</ele><time>2026-04-11T17:20:29Z</time></trkpt><trkpt lat="45.92628279653004" lon="9.13086590719348"><ele>224.0</ele><time>2026-04-11T17:20:30Z</time></trkpt><trkpt lat="45.92616530897444" lon="9.130879941040353"><ele>224.0</ele><time>2026-04-11T17:20:31Z</time></trkpt><trkpt lat="45.92604870440862" lon="9.1309010762866"><ele>224.0</ele><time>2026-04-11T17:20:32Z</time></trkpt><trkpt lat="45.92593357364051" lon="9.130930101795323"><ele>224.0</ele><time>2026-04-11T17:20:33Z</time></trkpt><trkpt lat="45.925814632711806" lon="9.13095832017368"><ele>224.0</ele><time>2026-04-11T17:20:34Z</time></trkpt><trkpt lat="45.92568999173875" lon="9.130977652597391"><ele>225.75</ele><time>2026-04-11T17:20:35Z</time></trkpt><trkpt lat="45.925560113528164" lon="9.13098759639873"><ele>227.5</ele><time>2026-04-11T17:20:36Z</time></trkpt><trkpt lat="45.92543384916821" lon="9.130986101229961"><ele>229.25</ele><time>2026-04-11T17:20:37Z</time></trkpt><trkpt lat="45.92531178480961" lon="9.130967759028188"><ele>231.0</ele><time>2026-04-11T17:20:38Z</time></trkpt><trkpt lat="45.92519125618666" lon="9.130934265983523"><ele>231.0</ele><time>2026-04-11T17:20:39Z</time></trkpt><trkpt lat="45.9250734728874" lon="9.130895339095796"><ele>231.0</ele><time>2026-04-11T17:20:40Z</time></trkpt><trkpt lat="45.92495931877756" lon="9.13085529587223"><ele>231.0</ele><time>2026-04-11T17:20:41Z</time></trkpt><trkpt lat="45.92484414216073" lon="9.13082773745044"><ele>231.0</ele><time>2026-04-11T17:20:42Z</time></trkpt><trkpt lat="45.92472054536093" lon="9.130824807068514"><ele>232.0</ele><time>2026-04-11T17:20:43Z</time></trkpt><trkpt lat="45.924598856220456" lon="9.130857603333707"><ele>233.0</ele><time>2026-04-11T17:20:44Z</time></trkpt><trkpt lat="45.924478480256404" lon="9.130917191882409"><ele>234.0</ele><time>2026-04-11T17:20:45Z</time></trkpt><trkpt lat="45.92435825807635" lon="9.130978139076209"><ele>235.0</ele><time>2026-04-11T17:20:46Z</time></trkpt><trkpt lat="45.92422817676387" lon="9.131048284260117"><ele>239.0</ele><time>2026-04-11T17:20:46.999Z</time></trkpt><trkpt lat="45.924100782850374" lon="9.131113390844714"><ele>243.0</ele><time>2026-04-11T17:20:47.999Z</time></trkpt><trkpt lat="45.92397248517582" lon="9.131179438392072"><ele>247.0</ele><time>2026-04-11T17:20:48.999Z</time></trkpt><trkpt lat="45.923848920783584" lon="9.131236580822334"><ele>251.0</ele><time>2026-04-11T17:20:49.999Z</time></trkpt><trkpt lat="45.92372781205977" lon="9.131293992561117"><ele>251.0</ele><time>2026-04-11T17:20:50.999Z</time></trkpt><trkpt lat="45.92360340575421" lon="9.131343051630058"><ele>251.0</ele><time>2026-04-11T17:20:51.999Z</time></trkpt><trkpt lat="45.9234742438981" lon="9.131383018387874"><ele>251.0</ele><time>2026-04-11T17:20:52.999Z</time></trkpt><trkpt lat="45.9233422367058" lon="9.131412317768108"><ele>251.0</ele><time>2026-04-11T17:20:53.999Z</time></trkpt><trkpt lat="45.92321002755239" lon="9.131428468980786"><ele>252.25</ele><time>2026-04-11T17:20:54.999Z</time></trkpt><trkpt lat="45.92307507547691" lon="9.131426528729417"><ele>253.5</ele><time>2026-04-11T17:20:55.999Z</time></trkpt><trkpt lat="45.92293883083667" lon="9.131409624733937"><ele>254.75</ele><time>2026-04-11T17:20:56.999Z</time></trkpt><trkpt lat="45.922802172250265" lon="9.1313825798754"><ele>256.0</ele><time>2026-04-11T17:20:57.999Z</time></trkpt><trkpt lat="45.922663313707716" lon="9.131350921165254"><ele>257.0</ele><time>2026-04-11T17:20:58.999Z</time></trkpt><trkpt lat="45.92252384733015" lon="9.131320356934095"><ele>258.0</ele><time>2026-04-11T17:20:59.999Z</time></trkpt><trkpt lat="45.922389143348894" lon="9.131291933190443"><ele>259.0</ele><time>2026-04-11T17:21:00.999Z</time></trkpt><trkpt lat="45.92226217662626" lon="9.131264877721557"><ele>260.0</ele><time>2026-04-11T17:21:01.999Z</time></trkpt><trkpt lat="45.92213544279282" lon="9.131235257371957"><ele>260.0</ele><time>2026-04-11T17:21:02.999Z</time></trkpt><trkpt lat="45.92201292767754" lon="9.131209598882489"><ele>260.0</ele><time>2026-04-11T17:21:03.999Z</time></trkpt><trkpt lat="45.92188814519025" lon="9.131194152084975"><ele>260.0</ele><time>2026-04-11T17:21:04.999Z</time></trkpt><trkpt lat="45.9217622232464" lon="9.1312073882824"><ele>260.0</ele><time>2026-04-11T17:21:05.999Z</time></trkpt><trkpt lat="45.92163846292945" lon="9.13124504593"><ele>258.0</ele><time>2026-04-11T17:21:06.999Z</time></trkpt><trkpt lat="45.921516637429676" lon="9.131293549409168"><ele>256.0</ele><time>2026-04-11T17:21:07.999Z</time></trkpt><trkpt lat="45.92139215155569" lon="9.131339361778286"><ele>254.0</ele><time>2026-04-11T17:21:08.999Z</time></trkpt><trkpt lat="45.92126847674277" lon="9.131379633773914"><ele>252.0</ele><time>2026-04-11T17:21:09.999Z</time></trkpt><trkpt lat="45.92113958214609" lon="9.131424213564044"><ele>252.0</ele><time>2026-04-11T17:21:10.999Z</time></trkpt><trkpt lat="45.92100794735459" lon="9.13146343670493"><ele>252.0</ele><time>2026-04-11T17:21:11.999Z</time></trkpt><trkpt lat="45.92087316777186" lon="9.131488551249621"><ele>252.0</ele><time>2026-04-11T17:21:12.999Z</time></trkpt><trkpt lat="45.920736195649404" lon="9.13149260243365"><ele>252.0</ele><time>2026-04-11T17:21:13.999Z</time></trkpt><trkpt lat="45.92060319885028" lon="9.13148176825697"><ele>253.0</ele><time>2026-04-11T17:21:14.999Z</time></trkpt><trkpt lat="45.92046561841565" lon="9.13147908208018"><ele>254.0</ele><time>2026-04-11T17:21:15.999Z</time></trkpt><trkpt lat="45.92032885030215" lon="9.13148979711302"><ele>255.0</ele><time>2026-04-11T17:21:16.999Z</time></trkpt><trkpt lat="45.92018809497118" lon="9.131513236545903"><ele>256.0</ele><time>2026-04-11T17:21:17.999Z</time></trkpt><trkpt lat="45.92004265497695" lon="9.131548834884562"><ele>244.66666666666666</ele><time>2026-04-11T17:21:18.999Z</time></trkpt><trkpt lat="45.91989349581064" lon="9.131592587164514"><ele>233.33333333333331</ele><time>2026-04-11T17:21:19.999Z</time></trkpt><trkpt lat="45.91974665625277" lon="9.131640329121266"><ele>222.0</ele><time>2026-04-11T17:21:20.999Z</time></trkpt><trkpt lat="45.91959745050007" lon="9.131689901295013"><ele>222.0</ele><time>2026-04-11T17:21:21.999Z</time></trkpt><trkpt lat="45.91944725624084" lon="9.13173869105119"><ele>222.0</ele><time>2026-04-11T17:21:22.999Z</time></trkpt><trkpt lat="45.91929405662656" lon="9.131788087714899"><ele>222.0</ele><time>2026-04-11T17:21:23.999Z</time></trkpt><trkpt lat="45.919137868917105" lon="9.131830006976129"><ele>226.66666666666669</ele><time>2026-04-11T17:21:24.999Z</time></trkpt><trkpt lat="45.91897751342209" lon="9.131853174520526"><ele>231.33333333333334</ele><time>2026-04-11T17:21:25.999Z</time></trkpt><trkpt lat="45.91881408161654" lon="9.131861105676197"><ele>236.0</ele><time>2026-04-11T17:21:26.999Z</time></trkpt><trkpt lat="45.918648729724225" lon="9.13185037885643"><ele>236.0</ele><time>2026-04-11T17:21:27.999Z</time></trkpt><trkpt lat="45.91848297079718" lon="9.131826016408713"><ele>236.0</ele><time>2026-04-11T17:21:28.999Z</time></trkpt><trkpt lat="45.91831804120181" lon="9.131782969498087"><ele>236.0</ele><time>2026-04-11T17:21:29.999Z</time></trkpt><trkpt lat="45.9181534237166" lon="9.13173611561687"><ele>243.66666666666669</ele><time>2026-04-11T17:21:30.999Z</time></trkpt><trkpt lat="45.917975340574564" lon="9.131683802913866"><ele>251.33333333333331</ele><time>2026-04-11T17:21:32.076Z</time></trkpt><trkpt lat="45.91781156195897" lon="9.131635345757793"><ele>259.0</ele><time>2026-04-11T17:21:33.058Z</time></trkpt><trkpt lat="45.91764640868991" lon="9.131587787274745"><ele>302.0</ele><time>2026-04-11T17:21:34.046Z</time></trkpt><trkpt lat="45.91589837481587" lon="9.131082262617788"><ele>302.0</ele><time>2026-04-11T17:21:45.578Z</time></trkpt><trkpt lat="45.91577606061728" lon="9.131046405705712"><ele>302.0</ele><time>2026-04-11T17:21:46.516Z</time></trkpt><trkpt lat="45.915225112497" lon="9.130886947759077"><ele>300.5</ele><time>2026-04-11T17:21:50.898Z</time></trkpt><trkpt lat="45.914841001522746" lon="9.130777589601914"><ele>299.0</ele><time>2026-04-11T17:21:54.146Z</time></trkpt><trkpt lat="45.91470436057089" lon="9.130742879342536"><ele>308.25</ele><time>2026-04-11T17:21:55.279Z</time></trkpt><trkpt lat="45.91459024196558" lon="9.130712001329266"><ele>317.5</ele><time>2026-04-11T17:21:56.284Z</time></trkpt><trkpt lat="45.91448629267838" lon="9.13068302477197"><ele>326.75</ele><time>2026-04-11T17:21:57.216Z</time></trkpt><trkpt lat="45.91436753607145" lon="9.130650958244514"><ele>336.0</ele><time>2026-04-11T17:21:58.297Z</time></trkpt><trkpt lat="45.914145835804334" lon="9.130594399028979"><ele>247.0</ele><time>2026-04-11T17:22:00.354Z</time></trkpt><trkpt lat="45.90836614362639" lon="9.131065885850505"><ele>247.0</ele><time>2026-04-11T17:22:28.999Z</time></trkpt><trkpt lat="45.908190098374504" lon="9.13113416143108"><ele>247.0</ele><time>2026-04-11T17:22:29.999Z</time></trkpt><trkpt lat="45.90811378991097" lon="9.131121421763151"><ele>247.0</ele><time>2026-04-11T17:22:30.999Z</time></trkpt><trkpt lat="45.90801574658404" lon="9.131098942833896"><ele>247.0</ele><time>2026-04-11T17:22:31.999Z</time></trkpt><trkpt lat="45.907900440887715" lon="9.131127923617134"><ele>247.0</ele><time>2026-04-11T17:22:32.999Z</time></trkpt><trkpt lat="45.90778558855798" lon="9.131152343011298"><ele>247.0</ele><time>2026-04-11T17:22:33.999Z</time></trkpt><trkpt lat="45.907664204692" lon="9.131171095518672"><ele>247.0</ele><time>2026-04-11T17:22:35Z</time></trkpt><trkpt lat="45.907544688641174" lon="9.131195576685883"><ele>247.0</ele><time>2026-04-11T17:22:36Z</time></trkpt><trkpt lat="45.9074198012898" lon="9.131231369842334"><ele>248.0</ele><time>2026-04-11T17:22:37Z</time></trkpt><trkpt lat="45.90728836144582" lon="9.131269644975273"><ele>249.0</ele><time>2026-04-11T17:22:38Z</time></trkpt><trkpt lat="45.907157198468305" lon="9.131308312211164"><ele>250.0</ele><time>2026-04-11T17:22:39Z</time></trkpt><trkpt lat="45.907024005352554" lon="9.131349023770456"><ele>251.0</ele><time>2026-04-11T17:22:40Z</time></trkpt><trkpt lat="45.90689492047493" lon="9.131389261121825"><ele>251.0</ele><time>2026-04-11T17:22:41Z</time></trkpt><trkpt lat="45.9067655622118" lon="9.131434254204198"><ele>251.0</ele><time>2026-04-11T17:22:42Z</time></trkpt><trkpt lat="45.90663940232597" lon="9.131480669590381"><ele>251.0</ele><time>2026-04-11T17:22:43Z</time></trkpt><trkpt lat="45.906513850691276" lon="9.131525336816786"><ele>251.0</ele><time>2026-04-11T17:22:44Z</time></trkpt><trkpt lat="45.906383651019" lon="9.131574132659852"><ele>245.25</ele><time>2026-04-11T17:22:45Z</time></trkpt><trkpt lat="45.90625717179165" lon="9.131625186464381"><ele>239.5</ele><time>2026-04-11T17:22:46Z</time></trkpt><trkpt lat="45.906132316350806" lon="9.13167838533455"><ele>233.75</ele><time>2026-04-11T17:22:47Z</time></trkpt><trkpt lat="45.90600798699254" lon="9.131735622548227"><ele>228.0</ele><time>2026-04-11T17:22:48Z</time></trkpt><trkpt lat="45.90588509285118" lon="9.131799912495001"><ele>228.0</ele><time>2026-04-11T17:22:48.999Z</time></trkpt><trkpt lat="45.905769573418254" lon="9.131895067303425"><ele>228.0</ele><time>2026-04-11T17:22:49.999Z</time></trkpt><trkpt lat="45.905664341878314" lon="9.132018280947335"><ele>228.0</ele><time>2026-04-11T17:22:50.999Z</time></trkpt><trkpt lat="45.905556140136774" lon="9.132147041673276"><ele>228.0</ele><time>2026-04-11T17:22:51.999Z</time></trkpt><trkpt lat="45.90545032729064" lon="9.132276979961297"><ele>230.5</ele><time>2026-04-11T17:22:52.999Z</time></trkpt><trkpt lat="45.90534544609724" lon="9.132408752042576"><ele>233.0</ele><time>2026-04-11T17:22:53.999Z</time></trkpt><trkpt lat="45.90523543283525" lon="9.132532184662098"><ele>235.5</ele><time>2026-04-11T17:22:54.999Z</time></trkpt><trkpt lat="45.9051244023618" lon="9.13264190164269"><ele>238.0</ele><time>2026-04-11T17:22:55.999Z</time></trkpt><trkpt lat="45.90501119559931" lon="9.132742826087684"><ele>238.0</ele><time>2026-04-11T17:22:56.999Z</time></trkpt><trkpt lat="45.90489311814193" lon="9.132834935578941"><ele>238.0</ele><time>2026-04-11T17:22:57.999Z</time></trkpt><trkpt lat="45.90476959148263" lon="9.132920856758576"><ele>238.0</ele><time>2026-04-11T17:22:58.999Z</time></trkpt><trkpt lat="45.90464475153429" lon="9.133004356111217"><ele>238.0</ele><time>2026-04-11T17:22:59.999Z</time></trkpt><trkpt lat="45.90452755224377" lon="9.133101791584153"><ele>238.0</ele><time>2026-04-11T17:23:00.999Z</time></trkpt><trkpt lat="45.90441469804119" lon="9.133208151628896"><ele>238.0</ele><time>2026-04-11T17:23:01.999Z</time></trkpt><trkpt lat="45.90430583291577" lon="9.13331879460818"><ele>238.0</ele><time>2026-04-11T17:23:02.999Z</time></trkpt><trkpt lat="45.90419464490852" lon="9.133430499125737"><ele>238.0</ele><time>2026-04-11T17:23:03.999Z</time></trkpt><trkpt lat="45.904082473447176" lon="9.133541216246671"><ele>237.0</ele><time>2026-04-11T17:23:04.999Z</time></trkpt><trkpt lat="45.903968907257465" lon="9.133648749231867"><ele>236.0</ele><time>2026-04-11T17:23:05.999Z</time></trkpt><trkpt lat="45.90385316682666" lon="9.13375429960815"><ele>235.0</ele><time>2026-04-11T17:23:06.999Z</time></trkpt><trkpt lat="45.90373824394174" lon="9.133855798418148"><ele>234.0</ele><time>2026-04-11T17:23:07.999Z</time></trkpt><trkpt lat="45.90362581095209" lon="9.133954699784208"><ele>234.0</ele><time>2026-04-11T17:23:08.999Z</time></trkpt><trkpt lat="45.90350801616975" lon="9.13404429230144"><ele>234.0</ele><time>2026-04-11T17:23:09.999Z</time></trkpt><trkpt lat="45.903374883687476" lon="9.134111040096125"><ele>234.0</ele><time>2026-04-11T17:23:10.999Z</time></trkpt><trkpt lat="45.90323457244872" lon="9.134172507903926"><ele>234.0</ele><time>2026-04-11T17:23:11.999Z</time></trkpt><trkpt lat="45.903101649760934" lon="9.134257361869203"><ele>231.25</ele><time>2026-04-11T17:23:12.999Z</time></trkpt><trkpt lat="45.90297483190104" lon="9.134352523208051"><ele>228.5</ele><time>2026-04-11T17:23:13.999Z</time></trkpt><trkpt lat="45.90285286175819" lon="9.134447134245967"><ele>225.75</ele><time>2026-04-11T17:23:14.999Z</time></trkpt><trkpt lat="45.902731810925715" lon="9.134543485946757"><ele>223.0</ele><time>2026-04-11T17:23:15.999Z</time></trkpt><trkpt lat="45.902614170219344" lon="9.134634186935983"><ele>220.0</ele><time>2026-04-11T17:23:16.999Z</time></trkpt><trkpt lat="45.9024964011468" lon="9.134728206111527"><ele>217.0</ele><time>2026-04-11T17:23:17.999Z</time></trkpt><trkpt lat="45.902379558480376" lon="9.13482110758529"><ele>214.0</ele><time>2026-04-11T17:23:18.999Z</time></trkpt><trkpt lat="45.9022604788935" lon="9.13491776482642"><ele>211.0</ele><time>2026-04-11T17:23:19.999Z</time></trkpt><trkpt lat="45.90213936769181" lon="9.135014617428132"><ele>211.0</ele><time>2026-04-11T17:23:20.999Z</time></trkpt><trkpt lat="45.90201726462476" lon="9.135115082020095"><ele>211.0</ele><time>2026-04-11T17:23:21.999Z</time></trkpt><trkpt lat="45.90189261538353" lon="9.135217633993491"><ele>211.0</ele><time>2026-04-11T17:23:22.999Z</time></trkpt><trkpt lat="45.90176732502035" lon="9.135318470200371"><ele>211.0</ele><time>2026-04-11T17:23:23.999Z</time></trkpt><trkpt lat="45.90164548439828" lon="9.135424595500242"><ele>210.5</ele><time>2026-04-11T17:23:24.999Z</time></trkpt><trkpt lat="45.90152693735134" lon="9.135520140579489"><ele>210.0</ele><time>2026-04-11T17:23:25.999Z</time></trkpt><trkpt lat="45.90141176678116" lon="9.135611268266699"><ele>209.5</ele><time>2026-04-11T17:23:26.999Z</time></trkpt><trkpt lat="45.90129847250713" lon="9.135702284273847"><ele>209.0</ele><time>2026-04-11T17:23:27.999Z</time></trkpt><trkpt lat="45.901181355141766" lon="9.135795397081324"><ele>209.0</ele><time>2026-04-11T17:23:28.999Z</time></trkpt><trkpt lat="45.90106062383377" lon="9.13589042499922"><ele>209.0</ele><time>2026-04-11T17:23:29.999Z</time></trkpt><trkpt lat="45.90093661026113" lon="9.135991490596812"><ele>209.0</ele><time>2026-04-11T17:23:30.999Z</time></trkpt><trkpt lat="45.900812071437535" lon="9.13609011388194"><ele>209.0</ele><time>2026-04-11T17:23:31.999Z</time></trkpt><trkpt lat="45.90071243360739" lon="9.136170059794685"><ele>213.00000000000003</ele><time>2026-04-11T17:23:32.999Z</time></trkpt><trkpt lat="45.90062943028597" lon="9.136234450888018"><ele>217.0</ele><time>2026-04-11T17:23:33.999Z</time></trkpt><trkpt lat="45.90056279490464" lon="9.136286412221281"><ele>221.0</ele><time>2026-04-11T17:23:34.999Z</time></trkpt><trkpt lat="45.90050810637017" lon="9.136332602932235"><ele>225.0</ele><time>2026-04-11T17:23:35.999Z</time></trkpt><trkpt lat="45.9004347344192" lon="9.136390971511203"><ele>229.00000000000003</ele><time>2026-04-11T17:23:37.999Z</time></trkpt><trkpt lat="45.90037825173011" lon="9.136433195968545"><ele>233.0</ele><time>2026-04-11T17:23:39.999Z</time></trkpt><trkpt lat="45.90030137680551" lon="9.136498533242575"><ele>230.5</ele><time>2026-04-11T17:23:42.999Z</time></trkpt><trkpt lat="45.900181891319775" lon="9.136571386610349"><ele>228.0</ele><time>2026-04-11T17:24:03.999Z</time></trkpt><trkpt lat="45.900079310003264" lon="9.136642523142504"><ele>225.5</ele><time>2026-04-11T17:24:04.999Z</time></trkpt><trkpt lat="45.89996557656162" lon="9.136737000148138"><ele>223.0</ele><time>2026-04-11T17:24:05.999Z</time></trkpt><trkpt lat="45.89984520603148" lon="9.136819409689428"><ele>223.0</ele><time>2026-04-11T17:24:06.999Z</time></trkpt><trkpt lat="45.899698718336154" lon="9.136882805516688"><ele>223.0</ele><time>2026-04-11T17:24:07.999Z</time></trkpt><trkpt lat="45.89953151624407" lon="9.136916447773055"><ele>223.0</ele><time>2026-04-11T17:24:08.999Z</time></trkpt><trkpt lat="45.8993569316683" lon="9.136939285917453"><ele>226.66666666666666</ele><time>2026-04-11T17:24:09.999Z</time></trkpt><trkpt lat="45.89918820824973" lon="9.13698031044401"><ele>230.33333333333331</ele><time>2026-04-11T17:24:10.999Z</time></trkpt><trkpt lat="45.899021789268716" lon="9.13703918120754"><ele>234.0</ele><time>2026-04-11T17:24:11.999Z</time></trkpt><trkpt lat="45.89885454324307" lon="9.13712937528755"><ele>234.0</ele><time>2026-04-11T17:24:12.999Z</time></trkpt><trkpt lat="45.89869338585652" lon="9.13724628825801"><ele>234.0</ele><time>2026-04-11T17:24:13.999Z</time></trkpt><trkpt lat="45.89852430215235" lon="9.137359349043338"><ele>234.0</ele><time>2026-04-11T17:24:14.999Z</time></trkpt><trkpt lat="45.898370504975595" lon="9.1374932810608"><ele>232.33333333333331</ele><time>2026-04-11T17:24:15.999Z</time></trkpt><trkpt lat="45.8982293405535" lon="9.137664920863726"><ele>230.66666666666666</ele><time>2026-04-11T17:24:16.999Z</time></trkpt><trkpt lat="45.89807500689919" lon="9.137840417552942"><ele>229.0</ele><time>2026-04-11T17:24:17.999Z</time></trkpt><trkpt lat="45.89793017656357" lon="9.138015073524242"><ele>229.0</ele><time>2026-04-11T17:24:18.999Z</time></trkpt><trkpt lat="45.897786311936336" lon="9.138188033773181"><ele>229.0</ele><time>2026-04-11T17:24:19.999Z</time></trkpt><trkpt lat="45.89763735144474" lon="9.138357920974606"><ele>229.0</ele><time>2026-04-11T17:24:20.999Z</time></trkpt><trkpt lat="45.89747966559937" lon="9.138507008971422"><ele>231.0</ele><time>2026-04-11T17:24:21.999Z</time></trkpt><trkpt lat="45.89731008719203" lon="9.138633100032594"><ele>233.0</ele><time>2026-04-11T17:24:22.999Z</time></trkpt><trkpt lat="45.89714338579877" lon="9.138773365587005"><ele>235.0</ele><time>2026-04-11T17:24:23.999Z</time></trkpt><trkpt lat="45.896982170368105" lon="9.138917384633725"><ele>233.33333333333331</ele><time>2026-04-11T17:24:24.999Z</time></trkpt><trkpt lat="45.89682619776302" lon="9.13905999978693"><ele>231.66666666666669</ele><time>2026-04-11T17:24:25.999Z</time></trkpt><trkpt lat="45.89668127797665" lon="9.139218700144774"><ele>230.0</ele><time>2026-04-11T17:24:26.999Z</time></trkpt><trkpt lat="45.89655310653514" lon="9.139402418610729"><ele>230.0</ele><time>2026-04-11T17:24:27.999Z</time></trkpt><trkpt lat="45.89642770411273" lon="9.139599454282626"><ele>230.0</ele><time>2026-04-11T17:24:28.999Z</time></trkpt><trkpt lat="45.89630158166517" lon="9.139806035966977"><ele>230.0</ele><time>2026-04-11T17:24:29.999Z</time></trkpt><trkpt lat="45.89617528980287" lon="9.140012521699886"><ele>236.33333333333334</ele><time>2026-04-11T17:24:30.999Z</time></trkpt><trkpt lat="45.896052295589485" lon="9.14022253848812"><ele>242.66666666666669</ele><time>2026-04-11T17:24:31.999Z</time></trkpt><trkpt lat="45.895939627485966" lon="9.140454695128472"><ele>249.0</ele><time>2026-04-11T17:24:32.999Z</time></trkpt><trkpt lat="45.89583099526882" lon="9.14068873632134"><ele>240.33333333333331</ele><time>2026-04-11T17:24:33.999Z</time></trkpt><trkpt lat="45.895717960010025" lon="9.140911107223314"><ele>231.66666666666666</ele><time>2026-04-11T17:24:34.999Z</time></trkpt><trkpt lat="45.89559785859014" lon="9.141132820821694"><ele>223.0</ele><time>2026-04-11T17:24:35.999Z</time></trkpt><trkpt lat="45.895469998653695" lon="9.141339341230747"><ele>223.0</ele><time>2026-04-11T17:24:36.999Z</time></trkpt><trkpt lat="45.89533399227207" lon="9.141529733223134"><ele>223.0</ele><time>2026-04-11T17:24:37.999Z</time></trkpt><trkpt lat="45.89519135788185" lon="9.141704255313421"><ele>223.0</ele><time>2026-04-11T17:24:38.999Z</time></trkpt><trkpt lat="45.895052250123115" lon="9.141857416586832"><ele>226.33333333333331</ele><time>2026-04-11T17:24:39.999Z</time></trkpt><trkpt lat="45.894907188004794" lon="9.141986259306455"><ele>229.66666666666669</ele><time>2026-04-11T17:24:40.999Z</time></trkpt><trkpt lat="45.89475290312353" lon="9.142102892643006"><ele>233.0</ele><time>2026-04-11T17:24:41.999Z</time></trkpt><trkpt lat="45.89459633040719" lon="9.14220794674639"><ele>233.0</ele><time>2026-04-11T17:24:42.999Z</time></trkpt><trkpt lat="45.89443910834019" lon="9.142296090701842"><ele>233.0</ele><time>2026-04-11T17:24:43.999Z</time></trkpt><trkpt lat="45.894287621288825" lon="9.142388420375555"><ele>233.0</ele><time>2026-04-11T17:24:44.999Z</time></trkpt><trkpt lat="45.894145900454326" lon="9.142487312086146"><ele>230.66666666666669</ele><time>2026-04-11T17:24:45.999Z</time></trkpt><trkpt lat="45.89400800553016" lon="9.142579306015808"><ele>228.33333333333331</ele><time>2026-04-11T17:24:46.999Z</time></trkpt><trkpt lat="45.89386869031198" lon="9.142667349698579"><ele>226.0</ele><time>2026-04-11T17:24:47.999Z</time></trkpt><trkpt lat="45.89372731444421" lon="9.142761175998176"><ele>226.0</ele><time>2026-04-11T17:24:48.999Z</time></trkpt><trkpt lat="45.89358459921722" lon="9.142859502065026"><ele>226.0</ele><time>2026-04-11T17:24:49.999Z</time></trkpt><trkpt lat="45.89343988615115" lon="9.14296332391194"><ele>226.0</ele><time>2026-04-11T17:24:50.999Z</time></trkpt><trkpt lat="45.893289527962935" lon="9.143074843557622"><ele>223.66666666666666</ele><time>2026-04-11T17:24:51.999Z</time></trkpt><trkpt lat="45.89313683197703" lon="9.143188739099049"><ele>221.33333333333331</ele><time>2026-04-11T17:24:52.999Z</time></trkpt><trkpt lat="45.892983134455726" lon="9.143303189024325"><ele>219.0</ele><time>2026-04-11T17:24:53.999Z</time></trkpt><trkpt lat="45.89282727595893" lon="9.143417660523289"><ele>219.0</ele><time>2026-04-11T17:24:54.999Z</time></trkpt><trkpt lat="45.89266838830469" lon="9.143535789032725"><ele>219.0</ele><time>2026-04-11T17:24:55.999Z</time></trkpt><trkpt lat="45.89251209387804" lon="9.143650296567476"><ele>219.0</ele><time>2026-04-11T17:24:56.999Z</time></trkpt><trkpt lat="45.892362660004544" lon="9.143764448225834"><ele>223.66666666666669</ele><time>2026-04-11T17:24:57.999Z</time></trkpt><trkpt lat="45.89221756687503" lon="9.143860640209292"><ele>228.33333333333334</ele><time>2026-04-11T17:24:58.999Z</time></trkpt><trkpt lat="45.892066578244474" lon="9.143920733357861"><ele>233.0</ele><time>2026-04-11T17:24:59.999Z</time></trkpt><trkpt lat="45.8919036185962" lon="9.143949147668591"><ele>235.33333333333334</ele><time>2026-04-11T17:25:00.999Z</time></trkpt><trkpt lat="45.891745860637066" lon="9.143950457251217"><ele>237.66666666666669</ele><time>2026-04-11T17:25:01.999Z</time></trkpt><trkpt lat="45.891594798862066" lon="9.143914779351338"><ele>240.0</ele><time>2026-04-11T17:25:02.999Z</time></trkpt><trkpt lat="45.8914493508502" lon="9.143837859830981"><ele>240.0</ele><time>2026-04-11T17:25:03.999Z</time></trkpt><trkpt lat="45.891305845628" lon="9.14374114176063"><ele>240.0</ele><time>2026-04-11T17:25:04.999Z</time></trkpt><trkpt lat="45.89115784054911" lon="9.143641383007969"><ele>240.0</ele><time>2026-04-11T17:25:05.999Z</time></trkpt><trkpt lat="45.89100763109914" lon="9.14353658671793"><ele>238.66666666666669</ele><time>2026-04-11T17:25:06.999Z</time></trkpt><trkpt lat="45.89085685488682" lon="9.143427582561724"><ele>237.33333333333334</ele><time>2026-04-11T17:25:07.999Z</time></trkpt><trkpt lat="45.89070557099132" lon="9.14332029464116"><ele>236.0</ele><time>2026-04-11T17:25:08.999Z</time></trkpt><trkpt lat="45.89056041598511" lon="9.14321832728556"><ele>239.25</ele><time>2026-04-11T17:25:09.999Z</time></trkpt><trkpt lat="45.89042367711821" lon="9.143123303869105"><ele>242.5</ele><time>2026-04-11T17:25:10.999Z</time></trkpt><trkpt lat="45.89029315097817" lon="9.143028624673207"><ele>245.75</ele><time>2026-04-11T17:25:11.999Z</time></trkpt><trkpt lat="45.89015916935759" lon="9.142936396624805"><ele>249.0</ele><time>2026-04-11T17:25:12.999Z</time></trkpt><trkpt lat="45.8900164870656" lon="9.14285945187026"><ele>249.0</ele><time>2026-04-11T17:25:13.999Z</time></trkpt><trkpt lat="45.88986792611085" lon="9.14280490450394"><ele>249.0</ele><time>2026-04-11T17:25:14.999Z</time></trkpt><trkpt lat="45.88971394557348" lon="9.142773001954838"><ele>249.0</ele><time>2026-04-11T17:25:15.999Z</time></trkpt><trkpt lat="45.88955573870181" lon="9.142751455588067"><ele>249.0</ele><time>2026-04-11T17:25:16.999Z</time></trkpt><trkpt lat="45.889400599478506" lon="9.142725612544094"><ele>249.0</ele><time>2026-04-11T17:25:17.999Z</time></trkpt><trkpt lat="45.889256458982494" lon="9.142699296004107"><ele>249.0</ele><time>2026-04-11T17:25:18.999Z</time></trkpt><trkpt lat="45.889119103894544" lon="9.14267426234684"><ele>249.0</ele><time>2026-04-11T17:25:19.999Z</time></trkpt><trkpt lat="45.88898933568233" lon="9.142649738052743"><ele>247.0</ele><time>2026-04-11T17:25:20.999Z</time></trkpt><trkpt lat="45.888864074557915" lon="9.142628251784833"><ele>245.0</ele><time>2026-04-11T17:25:21.999Z</time></trkpt><trkpt lat="45.888738792674985" lon="9.142599014132045"><ele>243.0</ele><time>2026-04-11T17:25:22.999Z</time></trkpt><trkpt lat="45.88861303635571" lon="9.142548972384171"><ele>241.0</ele><time>2026-04-11T17:25:23.999Z</time></trkpt><trkpt lat="45.888494931883244" lon="9.142467056005136"><ele>246.5</ele><time>2026-04-11T17:25:24.999Z</time></trkpt><trkpt lat="45.88838592578244" lon="9.14236767707282"><ele>252.0</ele><time>2026-04-11T17:25:25.999Z</time></trkpt><trkpt lat="45.88828983660133" lon="9.142257901951089"><ele>257.5</ele><time>2026-04-11T17:25:26.999Z</time></trkpt><trkpt lat="45.888204348760155" lon="9.142138655581205"><ele>263.0</ele><time>2026-04-11T17:25:27.999Z</time></trkpt><trkpt lat="45.88812558068311" lon="9.142010927793141"><ele>263.0</ele><time>2026-04-11T17:25:28.999Z</time></trkpt><trkpt lat="45.888047401320705" lon="9.141878258318327"><ele>263.0</ele><time>2026-04-11T17:25:29.999Z</time></trkpt><trkpt lat="45.88796490030482" lon="9.14174642289754"><ele>263.0</ele><time>2026-04-11T17:25:30.999Z</time></trkpt><trkpt lat="45.8878825592621" lon="9.141609932258184"><ele>263.0</ele><time>2026-04-11T17:25:31.999Z</time></trkpt><trkpt lat="45.88779532896941" lon="9.141472446071552"><ele>261.75</ele><time>2026-04-11T17:25:32.999Z</time></trkpt><trkpt lat="45.887706364166036" lon="9.141330914849986"><ele>260.5</ele><time>2026-04-11T17:25:33.999Z</time></trkpt><trkpt lat="45.88761904810587" lon="9.14119100624949"><ele>259.25</ele><time>2026-04-11T17:25:34.999Z</time></trkpt><trkpt lat="45.88753440355139" lon="9.14106022987097"><ele>258.0</ele><time>2026-04-11T17:25:35.999Z</time></trkpt><trkpt lat="45.88744087975068" lon="9.14093588065235"><ele>258.0</ele><time>2026-04-11T17:25:36.999Z</time></trkpt><trkpt lat="45.88732830630448" lon="9.140838056529214"><ele>258.0</ele><time>2026-04-11T17:25:37.999Z</time></trkpt><trkpt lat="45.887205012366955" lon="9.140762042267056"><ele>258.0</ele><time>2026-04-11T17:25:38.999Z</time></trkpt><trkpt lat="45.8870733259101" lon="9.140711851897551"><ele>258.0</ele><time>2026-04-11T17:25:39.999Z</time></trkpt><trkpt lat="45.886941565933405" lon="9.140682226371108"><ele>262.5</ele><time>2026-04-11T17:25:40.999Z</time></trkpt><trkpt lat="45.886808546152004" lon="9.140672900453428"><ele>267.0</ele><time>2026-04-11T17:25:41.999Z</time></trkpt><trkpt lat="45.88667312998144" lon="9.1406855110734"><ele>271.5</ele><time>2026-04-11T17:25:42.999Z</time></trkpt><trkpt lat="45.886537328802476" lon="9.140702109611366"><ele>276.0</ele><time>2026-04-11T17:25:43.999Z</time></trkpt><trkpt lat="45.886397840322324" lon="9.140725352455426"><ele>267.5</ele><time>2026-04-11T17:25:44.999Z</time></trkpt><trkpt lat="45.88625613703483" lon="9.140749084894642"><ele>259.0</ele><time>2026-04-11T17:25:45.999Z</time></trkpt><trkpt lat="45.88611139198174" lon="9.140769181291356"><ele>250.5</ele><time>2026-04-11T17:25:46.999Z</time></trkpt><trkpt lat="45.885966292641854" lon="9.140786031132038"><ele>242.0</ele><time>2026-04-11T17:25:47.999Z</time></trkpt><trkpt lat="45.88582647967121" lon="9.140795318053877"><ele>242.0</ele><time>2026-04-11T17:25:48.999Z</time></trkpt><trkpt lat="45.885698851954054" lon="9.140784386910747"><ele>242.0</ele><time>2026-04-11T17:25:49.999Z</time></trkpt><trkpt lat="45.88560400168999" lon="9.140760237908514"><ele>242.0</ele><time>2026-04-11T17:25:50.999Z</time></trkpt><trkpt lat="45.88554146760297" lon="9.140735360650647"><ele>242.0</ele><time>2026-04-11T17:25:51.999Z</time></trkpt><trkpt lat="45.88546013948137" lon="9.140690445024067"><ele>242.0</ele><time>2026-04-11T17:25:53.999Z</time></trkpt><trkpt lat="45.885380356019624" lon="9.140640888666189"><ele>244.16666666666669</ele><time>2026-04-11T17:25:55.999Z</time></trkpt><trkpt lat="45.885319320661125" lon="9.140594953134663"><ele>246.33333333333334</ele><time>2026-04-11T17:25:57.999Z</time></trkpt><trkpt lat="45.88525147837285" lon="9.140530011952649"><ele>248.5</ele><time>2026-04-11T17:25:59.999Z</time></trkpt><trkpt lat="45.8851700665125" lon="9.14044835847262"><ele>250.66666666666669</ele><time>2026-04-11T17:26:01.999Z</time></trkpt><trkpt lat="45.88508347053779" lon="9.14034996823732"><ele>252.83333333333334</ele><time>2026-04-11T17:26:03.999Z</time></trkpt><trkpt lat="45.8850317164161" lon="9.14028355832947"><ele>255.0</ele><time>2026-04-11T17:26:04.999Z</time></trkpt><trkpt lat="45.884970534408" lon="9.140210325983082"><ele>255.0</ele><time>2026-04-11T17:26:05.999Z</time></trkpt><trkpt lat="45.88491307560258" lon="9.140142265904794"><ele>255.0</ele><time>2026-04-11T17:26:06.999Z</time></trkpt><trkpt lat="45.88484949121065" lon="9.140066980589493"><ele>255.0</ele><time>2026-04-11T17:26:07.999Z</time></trkpt><trkpt lat="45.88479073136279" lon="9.139992554159747"><ele>255.0</ele><time>2026-04-11T17:26:08.999Z</time></trkpt><trkpt lat="45.88473188090208" lon="9.139917065964285"><ele>255.0</ele><time>2026-04-11T17:26:09.999Z</time></trkpt><trkpt lat="45.884670974916645" lon="9.139843675521394"><ele>255.0</ele><time>2026-04-11T17:26:10.999Z</time></trkpt><trkpt lat="45.884618586806" lon="9.139782096816074"><ele>255.33333333333334</ele><time>2026-04-11T17:26:11.999Z</time></trkpt><trkpt lat="45.88455172947913" lon="9.139696001602799"><ele>255.66666666666669</ele><time>2026-04-11T17:26:13.999Z</time></trkpt><trkpt lat="45.88450294769696" lon="9.139634889123428"><ele>256.0</ele><time>2026-04-11T17:26:15.999Z</time></trkpt><trkpt lat="45.88445198080044" lon="9.139574167277713"><ele>256.33333333333337</ele><time>2026-04-11T17:26:18.999Z</time></trkpt><trkpt lat="45.88434927416963" lon="9.139448085886428"><ele>256.6666666666667</ele><time>2026-04-11T17:26:29.999Z</time></trkpt><trkpt lat="45.88429124893971" lon="9.139378998815511"><ele>257.0</ele><time>2026-04-11T17:26:30.999Z</time></trkpt><trkpt lat="45.884235568994136" lon="9.139313888936892"><ele>257.0</ele><time>2026-04-11T17:26:31.999Z</time></trkpt><trkpt lat="45.88418309104468" lon="9.139248353936313"><ele>257.0</ele><time>2026-04-11T17:26:32.999Z</time></trkpt><trkpt lat="45.88412171681067" lon="9.139172965039856"><ele>257.0</ele><time>2026-04-11T17:26:33.999Z</time></trkpt><trkpt lat="45.88405508077302" lon="9.13908714434295"><ele>257.0</ele><time>2026-04-11T17:26:34.999Z</time></trkpt><trkpt lat="45.88398184280845" lon="9.138998356164164"><ele>257.0</ele><time>2026-04-11T17:26:35.999Z</time></trkpt><trkpt lat="45.883902819293176" lon="9.138905029194342"><ele>257.0</ele><time>2026-04-11T17:26:36.999Z</time></trkpt><trkpt lat="45.883819686731314" lon="9.138806440672216"><ele>265.5</ele><time>2026-04-11T17:26:37.999Z</time></trkpt><trkpt lat="45.88373148750355" lon="9.138700310811357"><ele>274.0</ele><time>2026-04-11T17:26:38.999Z</time></trkpt><trkpt lat="45.88363983738049" lon="9.138590582394114"><ele>282.5</ele><time>2026-04-11T17:26:39.999Z</time></trkpt><trkpt lat="45.883546673392296" lon="9.138475896290602"><ele>291.0</ele><time>2026-04-11T17:26:40.999Z</time></trkpt><trkpt lat="45.88345535065391" lon="9.138362325909004"><ele>287.5</ele><time>2026-04-11T17:26:41.999Z</time></trkpt><trkpt lat="45.88336338430876" lon="9.13825098114191"><ele>284.0</ele><time>2026-04-11T17:26:42.999Z</time></trkpt><trkpt lat="45.88326858598304" lon="9.138135415831092"><ele>280.5</ele><time>2026-04-11T17:26:43.999Z</time></trkpt><trkpt lat="45.883170986525904" lon="9.138011933573662"><ele>277.0</ele><time>2026-04-11T17:26:44.999Z</time></trkpt><trkpt lat="45.883068425015125" lon="9.137886634146708"><ele>277.0</ele><time>2026-04-11T17:26:46Z</time></trkpt><trkpt lat="45.882962889440876" lon="9.13776693424958"><ele>277.0</ele><time>2026-04-11T17:26:47Z</time></trkpt><trkpt lat="45.88285516660214" lon="9.137643759065552"><ele>277.0</ele><time>2026-04-11T17:26:48Z</time></trkpt><trkpt lat="45.88274384434683" lon="9.137524024036518"><ele>277.0</ele><time>2026-04-11T17:26:49Z</time></trkpt><trkpt lat="45.8826264699825" lon="9.137418762439916"><ele>277.25</ele><time>2026-04-11T17:26:50Z</time></trkpt><trkpt lat="45.88250242038921" lon="9.137334029903478"><ele>277.5</ele><time>2026-04-11T17:26:51Z</time></trkpt><trkpt lat="45.882363649317426" lon="9.13725216566635"><ele>277.75</ele><time>2026-04-11T17:26:52Z</time></trkpt><trkpt lat="45.88221249141175" lon="9.137171624498436"><ele>278.0</ele><time>2026-04-11T17:26:53Z</time></trkpt><trkpt lat="45.882052065307334" lon="9.13708846501825"><ele>278.0</ele><time>2026-04-11T17:26:54Z</time></trkpt><trkpt lat="45.881895038775085" lon="9.137002428084408"><ele>278.0</ele><time>2026-04-11T17:26:55Z</time></trkpt><trkpt lat="45.881747359540874" lon="9.136920105309606"><ele>278.0</ele><time>2026-04-11T17:26:56Z</time></trkpt><trkpt lat="45.881604000545245" lon="9.136847025249523"><ele>274.33333333333337</ele><time>2026-04-11T17:26:57Z</time></trkpt><trkpt lat="45.88145852410022" lon="9.136769670220549"><ele>270.6666666666667</ele><time>2026-04-11T17:26:58Z</time></trkpt><trkpt lat="45.88131012729514" lon="9.136688538625739"><ele>267.0</ele><time>2026-04-11T17:26:59Z</time></trkpt><trkpt lat="45.881155731358966" lon="9.136607047711397"><ele>271.0</ele><time>2026-04-11T17:27:00Z</time></trkpt><trkpt lat="45.88099906042482" lon="9.136524587865368"><ele>275.0</ele><time>2026-04-11T17:27:01Z</time></trkpt><trkpt lat="45.880842024250974" lon="9.13643563346145"><ele>279.0</ele><time>2026-04-11T17:27:02Z</time></trkpt><trkpt lat="45.88068463248339" lon="9.13634577108181"><ele>279.0</ele><time>2026-04-11T17:27:03Z</time></trkpt><trkpt lat="45.880526325553745" lon="9.136254805766077"><ele>279.0</ele><time>2026-04-11T17:27:04Z</time></trkpt><trkpt lat="45.880367072440755" lon="9.136164521905584"><ele>279.0</ele><time>2026-04-11T17:27:05Z</time></trkpt><trkpt lat="45.88020781729474" lon="9.136075960553294"><ele>274.3333333333333</ele><time>2026-04-11T17:27:06Z</time></trkpt><trkpt lat="45.88004855632701" lon="9.135993389236642"><ele>269.66666666666663</ele><time>2026-04-11T17:27:07Z</time></trkpt><trkpt lat="45.879891295446946" lon="9.13590907841422"><ele>265.0</ele><time>2026-04-11T17:27:08Z</time></trkpt><trkpt lat="45.879738682092174" lon="9.135828336551366"><ele>265.0</ele><time>2026-04-11T17:27:09Z</time></trkpt><trkpt lat="45.87959218221609" lon="9.135749424261881"><ele>265.0</ele><time>2026-04-11T17:27:10Z</time></trkpt><trkpt lat="45.87944921756134" lon="9.135668258592718"><ele>265.0</ele><time>2026-04-11T17:27:11Z</time></trkpt><trkpt lat="45.87930674086959" lon="9.135577909147347"><ele>265.66666666666663</ele><time>2026-04-11T17:27:12Z</time></trkpt><trkpt lat="45.87916656359446" lon="9.13547136583978"><ele>266.3333333333333</ele><time>2026-04-11T17:27:13Z</time></trkpt><trkpt lat="45.87903601388679" lon="9.1353338427382"><ele>267.0</ele><time>2026-04-11T17:27:14Z</time></trkpt><trkpt lat="45.87892477510282" lon="9.135158227362835"><ele>267.0</ele><time>2026-04-11T17:27:15Z</time></trkpt><trkpt lat="45.87882508870146" lon="9.13496737821128"><ele>267.0</ele><time>2026-04-11T17:27:16Z</time></trkpt><trkpt lat="45.87872408825475" lon="9.13478036282725"><ele>267.0</ele><time>2026-04-11T17:27:17Z</time></trkpt><trkpt lat="45.87862088700247" lon="9.134594055926145"><ele>265.6666666666667</ele><time>2026-04-11T17:27:18Z</time></trkpt><trkpt lat="45.87851825330826" lon="9.134406036803068"><ele>264.33333333333337</ele><time>2026-04-11T17:27:19Z</time></trkpt><trkpt lat="45.87841513754058" lon="9.134217212856257"><ele>263.0</ele><time>2026-04-11T17:27:20Z</time></trkpt><trkpt lat="45.878311575960105" lon="9.134027239978975"><ele>271.6666666666667</ele><time>2026-04-11T17:27:21Z</time></trkpt><trkpt lat="45.878207578609555" lon="9.133834007679406"><ele>280.3333333333333</ele><time>2026-04-11T17:27:22Z</time></trkpt><trkpt lat="45.87810306468384" lon="9.133640122092007"><ele>289.0</ele><time>2026-04-11T17:27:23Z</time></trkpt><trkpt lat="45.8779982646344" lon="9.133446075552257"><ele>289.0</ele><time>2026-04-11T17:27:24Z</time></trkpt><trkpt lat="45.87789307650236" lon="9.133252581731094"><ele>289.0</ele><time>2026-04-11T17:27:25Z</time></trkpt><trkpt lat="45.87778842296026" lon="9.133057174094116"><ele>289.0</ele><time>2026-04-11T17:27:26Z</time></trkpt><trkpt lat="45.877683442436016" lon="9.132862541532074"><ele>286.66666666666663</ele><time>2026-04-11T17:27:27Z</time></trkpt><trkpt lat="45.87757695250128" lon="9.13266442448245"><ele>284.3333333333333</ele><time>2026-04-11T17:27:28Z</time></trkpt><trkpt lat="45.87746852813944" lon="9.132466939496979"><ele>282.0</ele><time>2026-04-11T17:27:29Z</time></trkpt><trkpt lat="45.87735923461312" lon="9.132266748684193"><ele>282.0</ele><time>2026-04-11T17:27:30Z</time></trkpt><trkpt lat="45.87724976241894" lon="9.132065634817174"><ele>282.0</ele><time>2026-04-11T17:27:31Z</time></trkpt><trkpt lat="45.87714198928478" lon="9.131864958379156"><ele>282.0</ele><time>2026-04-11T17:27:32Z</time></trkpt><trkpt lat="45.87703417091961" lon="9.131666445909223"><ele>278.3333333333333</ele><time>2026-04-11T17:27:33Z</time></trkpt><trkpt lat="45.87692748588867" lon="9.131464965683756"><ele>274.66666666666663</ele><time>2026-04-11T17:27:34Z</time></trkpt><trkpt lat="45.87681764176093" lon="9.131268006680486"><ele>271.0</ele><time>2026-04-11T17:27:35Z</time></trkpt><trkpt lat="45.8767064114596" lon="9.131072978996736"><ele>271.0</ele><time>2026-04-11T17:27:36Z</time></trkpt><trkpt lat="45.8765901635805" lon="9.130878895614856"><ele>271.0</ele><time>2026-04-11T17:27:37Z</time></trkpt><trkpt lat="45.8764726152154" lon="9.130687673722607"><ele>271.0</ele><time>2026-04-11T17:27:38Z</time></trkpt><trkpt lat="45.876354199385474" lon="9.130498010386818"><ele>276.66666666666663</ele><time>2026-04-11T17:27:39Z</time></trkpt><trkpt lat="45.87623766920362" lon="9.130308069944922"><ele>282.3333333333333</ele><time>2026-04-11T17:27:40Z</time></trkpt><trkpt lat="45.876122260845754" lon="9.13011803196571"><ele>288.0</ele><time>2026-04-11T17:27:41Z</time></trkpt><trkpt lat="45.876007525948374" lon="9.129927427036128"><ele>286.3333333333333</ele><time>2026-04-11T17:27:42Z</time></trkpt><trkpt lat="45.875892063073614" lon="9.129738469453601"><ele>284.66666666666663</ele><time>2026-04-11T17:27:43Z</time></trkpt><trkpt lat="45.87577547472375" lon="9.129546528603205"><ele>283.0</ele><time>2026-04-11T17:27:44Z</time></trkpt><trkpt lat="45.87566006969268" lon="9.129349416903182"><ele>283.0</ele><time>2026-04-11T17:27:45Z</time></trkpt><trkpt lat="45.875550938816296" lon="9.129145032916938"><ele>283.0</ele><time>2026-04-11T17:27:46Z</time></trkpt><trkpt lat="45.87545844306578" lon="9.128926701345334"><ele>283.0</ele><time>2026-04-11T17:27:47Z</time></trkpt><trkpt lat="45.875373332652735" lon="9.128701740526912"><ele>292.66666666666663</ele><time>2026-04-11T17:27:48Z</time></trkpt><trkpt lat="45.87528864907975" lon="9.128476117138598"><ele>302.3333333333333</ele><time>2026-04-11T17:27:49Z</time></trkpt><trkpt lat="45.875203067710885" lon="9.128250172788073"><ele>312.0</ele><time>2026-04-11T17:27:50Z</time></trkpt><trkpt lat="45.87511621048105" lon="9.128024170596857"><ele>310.3333333333333</ele><time>2026-04-11T17:27:51Z</time></trkpt><trkpt lat="45.87503053721581" lon="9.127797507606548"><ele>308.66666666666663</ele><time>2026-04-11T17:27:52Z</time></trkpt><trkpt lat="45.87494553173599" lon="9.127569412739057"><ele>307.0</ele><time>2026-04-11T17:27:53Z</time></trkpt><trkpt lat="45.87486085909632" lon="9.12734235196876"><ele>307.0</ele><time>2026-04-11T17:27:54Z</time></trkpt><trkpt lat="45.874777071232245" lon="9.127113566584448"><ele>307.0</ele><time>2026-04-11T17:27:55Z</time></trkpt><trkpt lat="45.87468971093063" lon="9.126885798929264"><ele>307.0</ele><time>2026-04-11T17:27:56Z</time></trkpt><trkpt lat="45.87460375738906" lon="9.126661961197852"><ele>316.3333333333333</ele><time>2026-04-11T17:27:57Z</time></trkpt><trkpt lat="45.87451675905719" lon="9.1264418075344"><ele>325.6666666666667</ele><time>2026-04-11T17:27:58Z</time></trkpt><trkpt lat="45.87443131597849" lon="9.126224622546586"><ele>335.0</ele><time>2026-04-11T17:27:59Z</time></trkpt><trkpt lat="45.87434676086938" lon="9.126007798450267"><ele>325.33333333333337</ele><time>2026-04-11T17:28:00Z</time></trkpt><trkpt lat="45.87426264724418" lon="9.125791731201595"><ele>315.6666666666667</ele><time>2026-04-11T17:28:01Z</time></trkpt><trkpt lat="45.87417793284291" lon="9.125575656463981"><ele>306.0</ele><time>2026-04-11T17:28:02Z</time></trkpt><trkpt lat="45.87409430297685" lon="9.125361834661271"><ele>306.0</ele><time>2026-04-11T17:28:03Z</time></trkpt><trkpt lat="45.8740102441638" lon="9.125147430560855"><ele>306.0</ele><time>2026-04-11T17:28:04Z</time></trkpt><trkpt lat="45.87392335282802" lon="9.124935117365554"><ele>306.0</ele><time>2026-04-11T17:28:05Z</time></trkpt><trkpt lat="45.873836628662296" lon="9.12471992531317"><ele>320.3333333333333</ele><time>2026-04-11T17:28:06Z</time></trkpt><trkpt lat="45.87374377054924" lon="9.124510025830281"><ele>334.66666666666663</ele><time>2026-04-11T17:28:07Z</time></trkpt><trkpt lat="45.87364242295113" lon="9.124304568103147"><ele>349.0</ele><time>2026-04-11T17:28:08Z</time></trkpt><trkpt lat="45.873531798755835" lon="9.12411172361896"><ele>338.66666666666663</ele><time>2026-04-11T17:28:09Z</time></trkpt><trkpt lat="45.873413067493225" lon="9.12392716732813"><ele>328.3333333333333</ele><time>2026-04-11T17:28:10Z</time></trkpt><trkpt lat="45.873291915824446" lon="9.123742424361563"><ele>318.0</ele><time>2026-04-11T17:28:11Z</time></trkpt><trkpt lat="45.87317396352323" lon="9.123556288398431"><ele>318.0</ele><time>2026-04-11T17:28:12Z</time></trkpt><trkpt lat="45.87306120236345" lon="9.12336547542511"><ele>318.0</ele><time>2026-04-11T17:28:13Z</time></trkpt><trkpt lat="45.87294957194654" lon="9.123172213931378"><ele>318.0</ele><time>2026-04-11T17:28:14Z</time></trkpt><trkpt lat="45.87283227670191" lon="9.122983021950263"><ele>319.0</ele><time>2026-04-11T17:28:15Z</time></trkpt><trkpt lat="45.87271076739589" lon="9.122796094459053"><ele>320.0</ele><time>2026-04-11T17:28:16Z</time></trkpt><trkpt lat="45.87259579971029" lon="9.122596003971122"><ele>321.0</ele><time>2026-04-11T17:28:17Z</time></trkpt><trkpt lat="45.872488371044746" lon="9.122384608628819"><ele>321.0</ele><time>2026-04-11T17:28:18Z</time></trkpt><trkpt lat="45.87238251521642" lon="9.122173717684706"><ele>321.0</ele><time>2026-04-11T17:28:19Z</time></trkpt><trkpt lat="45.87227718408511" lon="9.121968163260885"><ele>321.0</ele><time>2026-04-11T17:28:20Z</time></trkpt><trkpt lat="45.872172081400336" lon="9.12175973129483"><ele>325.3333333333333</ele><time>2026-04-11T17:28:21Z</time></trkpt><trkpt lat="45.87206723728471" lon="9.121550408379505"><ele>329.66666666666663</ele><time>2026-04-11T17:28:22Z</time></trkpt><trkpt lat="45.871967869217045" lon="9.121332418531454"><ele>334.0</ele><time>2026-04-11T17:28:23Z</time></trkpt><trkpt lat="45.871863238366075" lon="9.121112638622133"><ele>325.3333333333333</ele><time>2026-04-11T17:28:24Z</time></trkpt><trkpt lat="45.8717405777281" lon="9.12090614837397"><ele>316.6666666666667</ele><time>2026-04-11T17:28:25Z</time></trkpt><trkpt lat="45.87160372234322" lon="9.12071599615905"><ele>308.0</ele><time>2026-04-11T17:28:26Z</time></trkpt><trkpt lat="45.87146701963371" lon="9.120532643810915"><ele>308.0</ele><time>2026-04-11T17:28:27Z</time></trkpt><trkpt lat="45.8713423772547" lon="9.120344226189532"><ele>308.0</ele><time>2026-04-11T17:28:28Z</time></trkpt><trkpt lat="45.87124212971821" lon="9.120137647430893"><ele>308.0</ele><time>2026-04-11T17:28:29Z</time></trkpt><trkpt lat="45.87116623161252" lon="9.119902913028215"><ele>311.33333333333337</ele><time>2026-04-11T17:28:30Z</time></trkpt><trkpt lat="45.871125309691394" lon="9.119662642942913"><ele>314.6666666666667</ele><time>2026-04-11T17:28:31Z</time></trkpt><trkpt lat="45.871122157384804" lon="9.119411333170543"><ele>318.0</ele><time>2026-04-11T17:28:32Z</time></trkpt><trkpt lat="45.87112216937829" lon="9.119151632390254"><ele>321.6666666666667</ele><time>2026-04-11T17:28:33Z</time></trkpt><trkpt lat="45.871108942086394" lon="9.118883879406145"><ele>325.33333333333337</ele><time>2026-04-11T17:28:34Z</time></trkpt><trkpt lat="45.87108529311314" lon="9.11861411507191"><ele>329.0</ele><time>2026-04-11T17:28:35Z</time></trkpt><trkpt lat="45.87102361263782" lon="9.118354677551652"><ele>321.33333333333337</ele><time>2026-04-11T17:28:36Z</time></trkpt><trkpt lat="45.870933771111574" lon="9.118124659545618"><ele>313.6666666666667</ele><time>2026-04-11T17:28:37Z</time></trkpt><trkpt lat="45.87082555179041" lon="9.117910210866315"><ele>306.0</ele><time>2026-04-11T17:28:38Z</time></trkpt><trkpt lat="45.87070877075911" lon="9.11770809397917"><ele>306.0</ele><time>2026-04-11T17:28:39Z</time></trkpt><trkpt lat="45.87060035180501" lon="9.11750333021078"><ele>306.0</ele><time>2026-04-11T17:28:40Z</time></trkpt><trkpt lat="45.87049751423506" lon="9.11730322998864"><ele>306.0</ele><time>2026-04-11T17:28:41Z</time></trkpt><trkpt lat="45.87039536095696" lon="9.117110236316822"><ele>309.0</ele><time>2026-04-11T17:28:42Z</time></trkpt><trkpt lat="45.87031111231753" lon="9.116910993254288"><ele>312.0</ele><time>2026-04-11T17:28:43Z</time></trkpt><trkpt lat="45.87025566068361" lon="9.11667819307379"><ele>315.0</ele><time>2026-04-11T17:28:44Z</time></trkpt><trkpt lat="45.87023474845994" lon="9.11642808484306"><ele>316.3333333333333</ele><time>2026-04-11T17:28:45Z</time></trkpt><trkpt lat="45.870242592572566" lon="9.11617426159884"><ele>317.66666666666663</ele><time>2026-04-11T17:28:46Z</time></trkpt><trkpt lat="45.87027079580388" lon="9.115922994119144"><ele>319.0</ele><time>2026-04-11T17:28:47Z</time></trkpt><trkpt lat="45.87031408085721" lon="9.115676425388806"><ele>319.0</ele><time>2026-04-11T17:28:48Z</time></trkpt><trkpt lat="45.87034272500179" lon="9.115425651825484"><ele>319.0</ele><time>2026-04-11T17:28:49Z</time></trkpt><trkpt lat="45.87034484942853" lon="9.11517192156266"><ele>319.0</ele><time>2026-04-11T17:28:50Z</time></trkpt><trkpt lat="45.87030723641123" lon="9.114920742404312"><ele>318.0</ele><time>2026-04-11T17:28:51Z</time></trkpt><trkpt lat="45.870232513697935" lon="9.114684703205215"><ele>317.0</ele><time>2026-04-11T17:28:52Z</time></trkpt><trkpt lat="45.87012471390807" lon="9.114477316130273"><ele>316.0</ele><time>2026-04-11T17:28:53Z</time></trkpt><trkpt lat="45.86999112199476" lon="9.114300166943005"><ele>311.66666666666663</ele><time>2026-04-11T17:28:54Z</time></trkpt><trkpt lat="45.86983767741251" lon="9.114157574523075"><ele>307.3333333333333</ele><time>2026-04-11T17:28:55Z</time></trkpt><trkpt lat="45.869671727647926" lon="9.11406562725396"><ele>303.0</ele><time>2026-04-11T17:28:56Z</time></trkpt><trkpt lat="45.86949424584704" lon="9.11401482537051"><ele>307.0</ele><time>2026-04-11T17:28:57Z</time></trkpt><trkpt lat="45.869315705336" lon="9.113978129821572"><ele>311.0</ele><time>2026-04-11T17:28:58Z</time></trkpt><trkpt lat="45.86914837321171" lon="9.113918364823308"><ele>315.0</ele><time>2026-04-11T17:28:59Z</time></trkpt><trkpt lat="45.86898888758931" lon="9.113844332839856"><ele>315.0</ele><time>2026-04-11T17:29:00Z</time></trkpt><trkpt lat="45.86883384393995" lon="9.113759686331543"><ele>315.0</ele><time>2026-04-11T17:29:01Z</time></trkpt><trkpt lat="45.86869662534455" lon="9.113610974604446"><ele>315.0</ele><time>2026-04-11T17:29:02Z</time></trkpt><trkpt lat="45.868577202359894" lon="9.113434726974099"><ele>312.3333333333333</ele><time>2026-04-11T17:29:03Z</time></trkpt><trkpt lat="45.86847328811319" lon="9.113231066523758"><ele>309.66666666666663</ele><time>2026-04-11T17:29:04Z</time></trkpt><trkpt lat="45.868384595940384" lon="9.113006900919439"><ele>307.0</ele><time>2026-04-11T17:29:05Z</time></trkpt><trkpt lat="45.868302372467305" lon="9.11277217042907"><ele>307.0</ele><time>2026-04-11T17:29:06Z</time></trkpt><trkpt lat="45.868218398647905" lon="9.112530800294508"><ele>307.0</ele><time>2026-04-11T17:29:07Z</time></trkpt><trkpt lat="45.86812904845809" lon="9.11229062506149"><ele>307.0</ele><time>2026-04-11T17:29:08Z</time></trkpt><trkpt lat="45.86804353228861" lon="9.112046119902478"><ele>315.66666666666663</ele><time>2026-04-11T17:29:09Z</time></trkpt><trkpt lat="45.86796364832576" lon="9.111809631322862"><ele>324.3333333333333</ele><time>2026-04-11T17:29:10Z</time></trkpt><trkpt lat="45.86788452672239" lon="9.111580953903715"><ele>333.0</ele><time>2026-04-11T17:29:11Z</time></trkpt><trkpt lat="45.86779993273194" lon="9.111359126803725"><ele>339.3333333333333</ele><time>2026-04-11T17:29:12Z</time></trkpt><trkpt lat="45.867695776093925" lon="9.111151375977814"><ele>345.66666666666663</ele><time>2026-04-11T17:29:13Z</time></trkpt><trkpt lat="45.86756649160699" lon="9.110968833659136"><ele>352.0</ele><time>2026-04-11T17:29:14Z</time></trkpt><trkpt lat="45.86743006866622" lon="9.110799031979004"><ele>345.0</ele><time>2026-04-11T17:29:15Z</time></trkpt><trkpt lat="45.86730808165551" lon="9.110628802304793"><ele>338.0</ele><time>2026-04-11T17:29:16Z</time></trkpt><trkpt lat="45.867193567983335" lon="9.110448941170397"><ele>331.0</ele><time>2026-04-11T17:29:17Z</time></trkpt><trkpt lat="45.86709076421929" lon="9.11025887247249"><ele>331.0</ele><time>2026-04-11T17:29:18Z</time></trkpt><trkpt lat="45.86700957282227" lon="9.110045482960867"><ele>331.0</ele><time>2026-04-11T17:29:19Z</time></trkpt><trkpt lat="45.866942898409015" lon="9.109816608263841"><ele>331.0</ele><time>2026-04-11T17:29:20Z</time></trkpt><trkpt lat="45.86688146121233" lon="9.109582667377277"><ele>327.0</ele><time>2026-04-11T17:29:21Z</time></trkpt><trkpt lat="45.86681195797592" lon="9.109348543923454"><ele>323.0</ele><time>2026-04-11T17:29:22Z</time></trkpt><trkpt lat="45.86673222224149" lon="9.10911998286953"><ele>319.0</ele><time>2026-04-11T17:29:23Z</time></trkpt><trkpt lat="45.866636697860024" lon="9.108901070609173"><ele>319.0</ele><time>2026-04-11T17:29:24Z</time></trkpt><trkpt lat="45.866524282841176" lon="9.108693729690387"><ele>319.0</ele><time>2026-04-11T17:29:25Z</time></trkpt><trkpt lat="45.86640297833873" lon="9.108495766404038"><ele>319.0</ele><time>2026-04-11T17:29:26Z</time></trkpt><trkpt lat="45.86628178497278" lon="9.108295142572667"><ele>326.3333333333333</ele><time>2026-04-11T17:29:27Z</time></trkpt><trkpt lat="45.86616427645815" lon="9.108100685822118"><ele>333.6666666666667</ele><time>2026-04-11T17:29:28Z</time></trkpt><trkpt lat="45.86605290022912" lon="9.10791093228169"><ele>341.0</ele><time>2026-04-11T17:29:29Z</time></trkpt><trkpt lat="45.86594561377402" lon="9.107728065674026"><ele>335.33333333333337</ele><time>2026-04-11T17:29:30Z</time></trkpt><trkpt lat="45.86584339619606" lon="9.107549882071176"><ele>329.6666666666667</ele><time>2026-04-11T17:29:31Z</time></trkpt><trkpt lat="45.865739555942525" lon="9.107378055863204"><ele>324.0</ele><time>2026-04-11T17:29:32Z</time></trkpt><trkpt lat="45.86563312969391" lon="9.107203378452908"><ele>324.0</ele><time>2026-04-11T17:29:33Z</time></trkpt><trkpt lat="45.86552664318077" lon="9.1070261261644"><ele>324.0</ele><time>2026-04-11T17:29:34Z</time></trkpt><trkpt lat="45.8654135475741" lon="9.106854742096253"><ele>324.0</ele><time>2026-04-11T17:29:35Z</time></trkpt><trkpt lat="45.8652880364753" lon="9.106696444838029"><ele>317.3333333333333</ele><time>2026-04-11T17:29:36Z</time></trkpt><trkpt lat="45.865155860901176" lon="9.10655306751984"><ele>310.66666666666663</ele><time>2026-04-11T17:29:37Z</time></trkpt><trkpt lat="45.8650257202728" lon="9.10640932157118"><ele>304.0</ele><time>2026-04-11T17:29:38Z</time></trkpt><trkpt lat="45.864897382319676" lon="9.106258023667126"><ele>304.0</ele><time>2026-04-11T17:29:39Z</time></trkpt><trkpt lat="45.864774855171596" lon="9.106098181641137"><ele>304.0</ele><time>2026-04-11T17:29:40Z</time></trkpt><trkpt lat="45.8646631578318" lon="9.105920546902164"><ele>304.0</ele><time>2026-04-11T17:29:41Z</time></trkpt><trkpt lat="45.864564228108755" lon="9.1057277739229"><ele>308.0</ele><time>2026-04-11T17:29:42Z</time></trkpt><trkpt lat="45.864467291359425" lon="9.105529558588476"><ele>312.0</ele><time>2026-04-11T17:29:43Z</time></trkpt><trkpt lat="45.864369274728055" lon="9.105329604009292"><ele>316.0</ele><time>2026-04-11T17:29:44Z</time></trkpt><trkpt lat="45.86426678469111" lon="9.105132807530264"><ele>310.66666666666663</ele><time>2026-04-11T17:29:45Z</time></trkpt><trkpt lat="45.86416165119079" lon="9.1049371170836"><ele>305.3333333333333</ele><time>2026-04-11T17:29:46Z</time></trkpt><trkpt lat="45.8640551665306" lon="9.104737879210838"><ele>300.0</ele><time>2026-04-11T17:29:47Z</time></trkpt><trkpt lat="45.86394840655692" lon="9.104535743559278"><ele>300.0</ele><time>2026-04-11T17:29:48Z</time></trkpt><trkpt lat="45.86384258061718" lon="9.104332761952197"><ele>300.0</ele><time>2026-04-11T17:29:49Z</time></trkpt><trkpt lat="45.863735860762795" lon="9.104127395989217"><ele>300.0</ele><time>2026-04-11T17:29:50Z</time></trkpt><trkpt lat="45.863629173116685" lon="9.103922252984207"><ele>304.3333333333333</ele><time>2026-04-11T17:29:51Z</time></trkpt><trkpt lat="45.863523344823754" lon="9.103716522779608"><ele>308.66666666666663</ele><time>2026-04-11T17:29:52Z</time></trkpt><trkpt lat="45.863419217506966" lon="9.103511221667585"><ele>313.0</ele><time>2026-04-11T17:29:53Z</time></trkpt><trkpt lat="45.86331865588436" lon="9.103311147569581"><ele>306.3333333333333</ele><time>2026-04-11T17:29:54Z</time></trkpt><trkpt lat="45.863229754765065" lon="9.103112445561694"><ele>299.6666666666667</ele><time>2026-04-11T17:29:55Z</time></trkpt><trkpt lat="45.86316512115057" lon="9.10289645957759"><ele>293.0</ele><time>2026-04-11T17:29:56Z</time></trkpt><trkpt lat="45.86311725779761" lon="9.102670053649678"><ele>293.0</ele><time>2026-04-11T17:29:57Z</time></trkpt><trkpt lat="45.863087310876836" lon="9.10243190601699"><ele>293.0</ele><time>2026-04-11T17:29:58Z</time></trkpt><trkpt lat="45.86308149644998" lon="9.10218785474642"><ele>293.0</ele><time>2026-04-11T17:29:59Z</time></trkpt><trkpt lat="45.863092956375326" lon="9.101943346884426"><ele>293.33333333333337</ele><time>2026-04-11T17:30:00Z</time></trkpt><trkpt lat="45.86310204790425" lon="9.101712374997687"><ele>293.6666666666667</ele><time>2026-04-11T17:30:01Z</time></trkpt><trkpt lat="45.86310693332772" lon="9.101493630377602"><ele>294.0</ele><time>2026-04-11T17:30:02Z</time></trkpt><trkpt lat="45.86311064972777" lon="9.101285856712098"><ele>294.0</ele><time>2026-04-11T17:30:03Z</time></trkpt><trkpt lat="45.86311421247264" lon="9.101091034353503"><ele>294.0</ele><time>2026-04-11T17:30:04Z</time></trkpt><trkpt lat="45.86311994409205" lon="9.100900616161029"><ele>294.0</ele><time>2026-04-11T17:30:05Z</time></trkpt><trkpt lat="45.86312673410965" lon="9.100714866572932"><ele>294.0</ele><time>2026-04-11T17:30:06Z</time></trkpt><trkpt lat="45.863132829349624" lon="9.100520878818585"><ele>294.0</ele><time>2026-04-11T17:30:07Z</time></trkpt><trkpt lat="45.863140404183206" lon="9.100313916294576"><ele>294.0</ele><time>2026-04-11T17:30:08Z</time></trkpt><trkpt lat="45.86314278326948" lon="9.100097158693083"><ele>294.0</ele><time>2026-04-11T17:30:09Z</time></trkpt><trkpt lat="45.863147859644734" lon="9.099873440540039"><ele>294.0</ele><time>2026-04-11T17:30:10Z</time></trkpt><trkpt lat="45.86315280831062" lon="9.099647819354686"><ele>294.0</ele><time>2026-04-11T17:30:11Z</time></trkpt><trkpt lat="45.863158509960634" lon="9.099431814065154"><ele>294.0</ele><time>2026-04-11T17:30:12Z</time></trkpt><trkpt lat="45.86316484046481" lon="9.099213446362148"><ele>295.25</ele><time>2026-04-11T17:30:13Z</time></trkpt><trkpt lat="45.863151112554625" lon="9.098998631337684"><ele>296.5</ele><time>2026-04-11T17:30:14Z</time></trkpt><trkpt lat="45.86310838728518" lon="9.09879635558704"><ele>297.75</ele><time>2026-04-11T17:30:15Z</time></trkpt><trkpt lat="45.86304324856534" lon="9.098611553296971"><ele>299.0</ele><time>2026-04-11T17:30:16Z</time></trkpt><trkpt lat="45.862958325047096" lon="9.098445457256386"><ele>299.0</ele><time>2026-04-11T17:30:17Z</time></trkpt><trkpt lat="45.86286084452761" lon="9.098307289184001"><ele>299.0</ele><time>2026-04-11T17:30:18Z</time></trkpt><trkpt lat="45.86275399144972" lon="9.098195747932147"><ele>299.0</ele><time>2026-04-11T17:30:19Z</time></trkpt><trkpt lat="45.86263675124785" lon="9.098105211593381"><ele>299.0</ele><time>2026-04-11T17:30:20Z</time></trkpt><trkpt lat="45.86250752970996" lon="9.098040768594796"><ele>300.25</ele><time>2026-04-11T17:30:21Z</time></trkpt><trkpt lat="45.86236727059765" lon="9.09800764971741"><ele>301.5</ele><time>2026-04-11T17:30:22Z</time></trkpt><trkpt lat="45.86222214648588" lon="9.097992096189465"><ele>302.75</ele><time>2026-04-11T17:30:23Z</time></trkpt><trkpt lat="45.862080134580104" lon="9.097978842354658"><ele>304.0</ele><time>2026-04-11T17:30:24Z</time></trkpt><trkpt lat="45.86194223694884" lon="9.097970104305604"><ele>304.0</ele><time>2026-04-11T17:30:25Z</time></trkpt><trkpt lat="45.86180279703159" lon="9.097955877314563"><ele>304.0</ele><time>2026-04-11T17:30:26Z</time></trkpt><trkpt lat="45.86166505530247" lon="9.09793515242508"><ele>304.0</ele><time>2026-04-11T17:30:27Z</time></trkpt><trkpt lat="45.861526002598126" lon="9.097913523779741"><ele>304.0</ele><time>2026-04-11T17:30:28Z</time></trkpt><trkpt lat="45.86139055848543" lon="9.097889099823242"><ele>302.5</ele><time>2026-04-11T17:30:29Z</time></trkpt><trkpt lat="45.861261742582656" lon="9.09783673767117"><ele>301.0</ele><time>2026-04-11T17:30:30Z</time></trkpt><trkpt lat="45.86114151538149" lon="9.097757535354292"><ele>299.5</ele><time>2026-04-11T17:30:31Z</time></trkpt><trkpt lat="45.86103401227408" lon="9.097649674047231"><ele>298.0</ele><time>2026-04-11T17:30:32Z</time></trkpt><trkpt lat="45.86093588660121" lon="9.097520329604402"><ele>297.75</ele><time>2026-04-11T17:30:33Z</time></trkpt><trkpt lat="45.86084750273346" lon="9.097370467359816"><ele>297.5</ele><time>2026-04-11T17:30:34Z</time></trkpt><trkpt lat="45.860770486850065" lon="9.097200148050218"><ele>297.25</ele><time>2026-04-11T17:30:35Z</time></trkpt><trkpt lat="45.86069436189655" lon="9.0970228375246"><ele>297.0</ele><time>2026-04-11T17:30:36Z</time></trkpt><trkpt lat="45.860613445419176" lon="9.09684601556119"><ele>297.0</ele><time>2026-04-11T17:30:37Z</time></trkpt><trkpt lat="45.860528967478544" lon="9.096671430080756"><ele>297.0</ele><time>2026-04-11T17:30:38Z</time></trkpt><trkpt lat="45.8604310690844" lon="9.096509538009217"><ele>297.0</ele><time>2026-04-11T17:30:39Z</time></trkpt><trkpt lat="45.86031604562192" lon="9.0963646264815"><ele>291.3333333333333</ele><time>2026-04-11T17:30:40Z</time></trkpt><trkpt lat="45.86019379437808" lon="9.096232062811955"><ele>285.66666666666663</ele><time>2026-04-11T17:30:41Z</time></trkpt><trkpt lat="45.860067873454" lon="9.096104752718334"><ele>280.0</ele><time>2026-04-11T17:30:42Z</time></trkpt><trkpt lat="45.859940899633045" lon="9.095976924623288"><ele>280.0</ele><time>2026-04-11T17:30:43Z</time></trkpt><trkpt lat="45.85981450381413" lon="9.095844282800211"><ele>280.0</ele><time>2026-04-11T17:30:44Z</time></trkpt><trkpt lat="45.85968774803842" lon="9.09570664346982"><ele>280.0</ele><time>2026-04-11T17:30:45Z</time></trkpt><trkpt lat="45.85956071497746" lon="9.095566270686685"><ele>280.3333333333333</ele><time>2026-04-11T17:30:46Z</time></trkpt><trkpt lat="45.85943357911946" lon="9.095427311262448"><ele>280.6666666666667</ele><time>2026-04-11T17:30:47Z</time></trkpt><trkpt lat="45.85930818258517" lon="9.095294716109892"><ele>281.0</ele><time>2026-04-11T17:30:48Z</time></trkpt><trkpt lat="45.85918490686081" lon="9.095162899072523"><ele>281.0</ele><time>2026-04-11T17:30:49Z</time></trkpt><trkpt lat="45.859069097203296" lon="9.09501616218367"><ele>281.0</ele><time>2026-04-11T17:30:50Z</time></trkpt><trkpt lat="45.85896138697114" lon="9.094856590822733"><ele>281.0</ele><time>2026-04-11T17:30:51Z</time></trkpt><trkpt lat="45.85886468024338" lon="9.094683800356524"><ele>293.0</ele><time>2026-04-11T17:30:52Z</time></trkpt><trkpt lat="45.858781221983826" lon="9.094497245976308"><ele>305.0</ele><time>2026-04-11T17:30:53Z</time></trkpt><trkpt lat="45.858706389623926" lon="9.094302235690218"><ele>317.0</ele><time>2026-04-11T17:30:54Z</time></trkpt><trkpt lat="45.858628464221155" lon="9.094103296400181"><ele>308.0</ele><time>2026-04-11T17:30:55Z</time></trkpt><trkpt lat="45.858549644970026" lon="9.093899606850492"><ele>299.0</ele><time>2026-04-11T17:30:56Z</time></trkpt><trkpt lat="45.85847109743132" lon="9.093691861059321"><ele>290.0</ele><time>2026-04-11T17:30:57Z</time></trkpt><trkpt lat="45.8583922676101" lon="9.093490436242142"><ele>290.0</ele><time>2026-04-11T17:30:58Z</time></trkpt><trkpt lat="45.85831748655508" lon="9.093298382275192"><ele>290.0</ele><time>2026-04-11T17:30:59Z</time></trkpt><trkpt lat="45.85824536231128" lon="9.093113164770374"><ele>290.0</ele><time>2026-04-11T17:31:00Z</time></trkpt><trkpt lat="45.8581688566179" lon="9.092940054072006"><ele>290.0</ele><time>2026-04-11T17:31:01Z</time></trkpt><trkpt lat="45.858084190687784" lon="9.092799741526138"><ele>302.75</ele><time>2026-04-11T17:31:02Z</time></trkpt><trkpt lat="45.85799455073939" lon="9.09267858806669"><ele>315.5</ele><time>2026-04-11T17:31:03Z</time></trkpt><trkpt lat="45.85790258965412" lon="9.0925669174997"><ele>328.25</ele><time>2026-04-11T17:31:04Z</time></trkpt><trkpt lat="45.85779452615393" lon="9.092464291311844"><ele>341.0</ele><time>2026-04-11T17:31:05Z</time></trkpt><trkpt lat="45.857665843194695" lon="9.092375011412594"><ele>340.33333333333337</ele><time>2026-04-11T17:31:06Z</time></trkpt><trkpt lat="45.8575250910103" lon="9.092296468317086"><ele>339.6666666666667</ele><time>2026-04-11T17:31:07Z</time></trkpt><trkpt lat="45.85737556341265" lon="9.092221267785687"><ele>339.0</ele><time>2026-04-11T17:31:08Z</time></trkpt><trkpt lat="45.85722402567233" lon="9.092143824738669"><ele>339.0</ele><time>2026-04-11T17:31:09Z</time></trkpt><trkpt lat="45.85707540507357" lon="9.092063257177445"><ele>339.0</ele><time>2026-04-11T17:31:10Z</time></trkpt><trkpt lat="45.85693186615535" lon="9.091984023336037"><ele>339.0</ele><time>2026-04-11T17:31:11Z</time></trkpt><trkpt lat="45.85679048690235" lon="9.091907677982418"><ele>329.3333333333333</ele><time>2026-04-11T17:31:12Z</time></trkpt><trkpt lat="45.85665075236181" lon="9.09182990891851"><ele>319.66666666666663</ele><time>2026-04-11T17:31:13Z</time></trkpt><trkpt lat="45.856500451948925" lon="9.091750968686886"><ele>310.0</ele><time>2026-04-11T17:31:14.074Z</time></trkpt><trkpt lat="45.85636352581881" lon="9.091677303473295"><ele>310.0</ele><time>2026-04-11T17:31:15.057Z</time></trkpt><trkpt lat="45.856224502179494" lon="9.091600520779178"><ele>310.0</ele><time>2026-04-11T17:31:16.052Z</time></trkpt><trkpt lat="45.85608894444655" lon="9.091520986288128"><ele>310.0</ele><time>2026-04-11T17:31:17Z</time></trkpt><trkpt lat="45.855909845849766" lon="9.091153719872416"><ele>313.0</ele><time>2026-04-11T17:31:18Z</time></trkpt><trkpt lat="45.85579503185414" lon="9.091276499609748"><ele>316.0</ele><time>2026-04-11T17:31:19Z</time></trkpt><trkpt lat="45.855637939693764" lon="9.091267710549353"><ele>319.0</ele><time>2026-04-11T17:31:20Z</time></trkpt><trkpt lat="45.855482715267755" lon="9.091218540678668"><ele>319.0</ele><time>2026-04-11T17:31:21Z</time></trkpt><trkpt lat="45.85534950765408" lon="9.091125446290741"><ele>319.0</ele><time>2026-04-11T17:31:22Z</time></trkpt><trkpt lat="45.85521377258097" lon="9.091028913042885"><ele>319.0</ele><time>2026-04-11T17:31:23Z</time></trkpt><trkpt lat="45.85507855573922" lon="9.09092167873408"><ele>323.66666666666663</ele><time>2026-04-11T17:31:24Z</time></trkpt><trkpt lat="45.85494343573786" lon="9.090819838979012"><ele>328.3333333333333</ele><time>2026-04-11T17:31:25Z</time></trkpt><trkpt lat="45.8547979831532" lon="9.090750913509737"><ele>333.0</ele><time>2026-04-11T17:31:26Z</time></trkpt><trkpt lat="45.85465940864709" lon="9.090646113929886"><ele>333.0</ele><time>2026-04-11T17:31:27Z</time></trkpt><trkpt lat="45.85453414621601" lon="9.09053752870739"><ele>333.0</ele><time>2026-04-11T17:31:28Z</time></trkpt><trkpt lat="45.85440208240446" lon="9.090439528830485"><ele>333.0</ele><time>2026-04-11T17:31:29Z</time></trkpt><trkpt lat="45.85427404763323" lon="9.090344671004722"><ele>333.0</ele><time>2026-04-11T17:31:30Z</time></trkpt><trkpt lat="45.85414343461537" lon="9.090251223538608"><ele>319.3333333333333</ele><time>2026-04-11T17:31:31Z</time></trkpt><trkpt lat="45.85401300775294" lon="9.090155883928038"><ele>305.66666666666663</ele><time>2026-04-11T17:31:32Z</time></trkpt><trkpt lat="45.85387876035246" lon="9.09006008973911"><ele>292.0</ele><time>2026-04-11T17:31:33Z</time></trkpt><trkpt lat="45.853742287373144" lon="9.089958260617289"><ele>293.0</ele><time>2026-04-11T17:31:34Z</time></trkpt><trkpt lat="45.8536053532058" lon="9.089856021064023"><ele>294.0</ele><time>2026-04-11T17:31:35Z</time></trkpt><trkpt lat="45.8534664529405" lon="9.08975179448013"><ele>295.0</ele><time>2026-04-11T17:31:36Z</time></trkpt><trkpt lat="45.853330325894454" lon="9.0896520555068"><ele>295.0</ele><time>2026-04-11T17:31:37Z</time></trkpt><trkpt lat="45.85319661696686" lon="9.089532356461701"><ele>295.0</ele><time>2026-04-11T17:31:38Z</time></trkpt><trkpt lat="45.85306446930594" lon="9.089428509036289"><ele>295.0</ele><time>2026-04-11T17:31:39Z</time></trkpt><trkpt lat="45.852925601865486" lon="9.089333439023221"><ele>295.0</ele><time>2026-04-11T17:31:40Z</time></trkpt><trkpt lat="45.852795474407195" lon="9.089232768730191"><ele>295.0</ele><time>2026-04-11T17:31:41Z</time></trkpt><trkpt lat="45.85266371062261" lon="9.089127462967634"><ele>295.0</ele><time>2026-04-11T17:31:42Z</time></trkpt><trkpt lat="45.85252490022746" lon="9.089022730265173"><ele>302.66666666666663</ele><time>2026-04-11T17:31:43Z</time></trkpt><trkpt lat="45.852386554329875" lon="9.088916819963826"><ele>310.3333333333333</ele><time>2026-04-11T17:31:44Z</time></trkpt><trkpt lat="45.85224655642487" lon="9.088808005623179"><ele>318.0</ele><time>2026-04-11T17:31:45Z</time></trkpt><trkpt lat="45.85210241192553" lon="9.088699624111484"><ele>318.0</ele><time>2026-04-11T17:31:46Z</time></trkpt><trkpt lat="45.85195386797716" lon="9.088586871017515"><ele>318.0</ele><time>2026-04-11T17:31:47Z</time></trkpt><trkpt lat="45.851806030601225" lon="9.088476307017784"><ele>318.0</ele><time>2026-04-11T17:31:48Z</time></trkpt><trkpt lat="45.8516551557833" lon="9.088364397906663"><ele>322.6666666666667</ele><time>2026-04-11T17:31:49Z</time></trkpt><trkpt lat="45.85149733093241" lon="9.08824267523357"><ele>327.33333333333337</ele><time>2026-04-11T17:31:50.071Z</time></trkpt><trkpt lat="45.85135092126379" lon="9.088127568028824"><ele>332.0</ele><time>2026-04-11T17:31:51.051Z</time></trkpt><trkpt lat="45.851205575793315" lon="9.088007106871926"><ele>332.0</ele><time>2026-04-11T17:31:52.048Z</time></trkpt><trkpt lat="45.851063135820596" lon="9.087883451313134"><ele>332.0</ele><time>2026-04-11T17:31:53.051Z</time></trkpt><trkpt lat="45.83822281032984" lon="9.067549363954319"><ele>291.0</ele><time>2026-04-11T17:33:51Z</time></trkpt><trkpt lat="45.838009125816036" lon="9.06752071726327"><ele>250.0</ele><time>2026-04-11T17:33:52Z</time></trkpt><trkpt lat="45.837853698977206" lon="9.06745616669875"><ele>209.0</ele><time>2026-04-11T17:33:53Z</time></trkpt><trkpt lat="45.837677293931655" lon="9.067422648311348"><ele>208.0</ele><time>2026-04-11T17:33:54Z</time></trkpt><trkpt lat="45.83751165711972" lon="9.067375865191758"><ele>207.0</ele><time>2026-04-11T17:33:55Z</time></trkpt><trkpt lat="45.83732226966445" lon="9.067359761994382"><ele>206.0</ele><time>2026-04-11T17:33:56Z</time></trkpt><trkpt lat="45.837126295181555" lon="9.06733685643455"><ele>206.0</ele><time>2026-04-11T17:33:57Z</time></trkpt><trkpt lat="45.83695006451085" lon="9.067374748162734"><ele>206.0</ele><time>2026-04-11T17:33:58Z</time></trkpt><trkpt lat="45.8367825532761" lon="9.06744143426177"><ele>206.0</ele><time>2026-04-11T17:33:59Z</time></trkpt><trkpt lat="45.83662841244743" lon="9.067533386859509"><ele>206.0</ele><time>2026-04-11T17:34:00Z</time></trkpt><trkpt lat="45.83648352814576" lon="9.067653431556337"><ele>206.0</ele><time>2026-04-11T17:34:01Z</time></trkpt><trkpt lat="45.83635319236911" lon="9.067794911107308"><ele>206.0</ele><time>2026-04-11T17:34:02Z</time></trkpt><trkpt lat="45.83623959875854" lon="9.067955107604709"><ele>206.0</ele><time>2026-04-11T17:34:03Z</time></trkpt><trkpt lat="45.83613865960329" lon="9.068126399820827"><ele>206.0</ele><time>2026-04-11T17:34:04Z</time></trkpt><trkpt lat="45.836055113848474" lon="9.068313629991595"><ele>206.0</ele><time>2026-04-11T17:34:05Z</time></trkpt><trkpt lat="45.8359896201098" lon="9.06851782830051"><ele>206.0</ele><time>2026-04-11T17:34:06Z</time></trkpt><trkpt lat="45.835938138096004" lon="9.068733644031047"><ele>206.0</ele><time>2026-04-11T17:34:07Z</time></trkpt><trkpt lat="45.83589139912802" lon="9.068945009916739"><ele>206.0</ele><time>2026-04-11T17:34:08Z</time></trkpt><trkpt lat="45.83584554648581" lon="9.069146260345534"><ele>206.5</ele><time>2026-04-11T17:34:09Z</time></trkpt><trkpt lat="45.83579936348454" lon="9.069327547420269"><ele>207.0</ele><time>2026-04-11T17:34:10Z</time></trkpt><trkpt lat="45.83575342326054" lon="9.069502890683955"><ele>207.5</ele><time>2026-04-11T17:34:11Z</time></trkpt><trkpt lat="45.83570433321249" lon="9.069682772293536"><ele>208.0</ele><time>2026-04-11T17:34:12Z</time></trkpt><trkpt lat="45.83565288560045" lon="9.06986172906994"><ele>207.75</ele><time>2026-04-11T17:34:13Z</time></trkpt><trkpt lat="45.8356040389148" lon="9.070036892531094"><ele>207.5</ele><time>2026-04-11T17:34:14Z</time></trkpt><trkpt lat="45.83555423311509" lon="9.070220742183269"><ele>207.25</ele><time>2026-04-11T17:34:15Z</time></trkpt><trkpt lat="45.835499870086934" lon="9.070416757406758"><ele>207.0</ele><time>2026-04-11T17:34:16Z</time></trkpt><trkpt lat="45.83544035653239" lon="9.070640283158482"><ele>206.33333333333331</ele><time>2026-04-11T17:34:17Z</time></trkpt><trkpt lat="45.83537951479288" lon="9.070862751662137"><ele>205.66666666666666</ele><time>2026-04-11T17:34:18Z</time></trkpt><trkpt lat="45.835320627189446" lon="9.071066916302579"><ele>205.0</ele><time>2026-04-11T17:34:19Z</time></trkpt><trkpt lat="45.835263260210496" lon="9.071258200641342"><ele>205.0</ele><time>2026-04-11T17:34:20Z</time></trkpt><trkpt lat="45.83520641801617" lon="9.071433497454368"><ele>205.0</ele><time>2026-04-11T17:34:21Z</time></trkpt><trkpt lat="45.835151476897174" lon="9.071586454418041"><ele>205.0</ele><time>2026-04-11T17:34:22Z</time></trkpt><trkpt lat="45.835093951404886" lon="9.071717768066438"><ele>205.0</ele><time>2026-04-11T17:34:23Z</time></trkpt><trkpt lat="45.835030062017516" lon="9.071831915737913"><ele>204.6</ele><time>2026-04-11T17:34:24Z</time></trkpt><trkpt lat="45.83496671773036" lon="9.0719342403973"><ele>204.2</ele><time>2026-04-11T17:34:25Z</time></trkpt><trkpt lat="45.83490854173624" lon="9.072028736859517"><ele>203.8</ele><time>2026-04-11T17:34:26Z</time></trkpt><trkpt lat="45.83485379248884" lon="9.072104997687838"><ele>203.4</ele><time>2026-04-11T17:34:27Z</time></trkpt><trkpt lat="45.83477796159602" lon="9.072205523783444"><ele>203.0</ele><time>2026-04-11T17:34:29Z</time></trkpt><trkpt lat="45.83469178394802" lon="9.072296184767282"><ele>203.00000000000003</ele><time>2026-04-11T17:34:31Z</time></trkpt><trkpt lat="45.834626020316634" lon="9.0723478305747"><ele>203.0</ele><time>2026-04-11T17:34:32Z</time></trkpt><trkpt lat="45.83455765097886" lon="9.072397605583038"><ele>203.0</ele><time>2026-04-11T17:34:33Z</time></trkpt><trkpt lat="45.834489560700675" lon="9.07244984590416"><ele>203.0</ele><time>2026-04-11T17:34:34Z</time></trkpt><trkpt lat="45.8344117388293" lon="9.072487377232687"><ele>203.00000000000003</ele><time>2026-04-11T17:34:35Z</time></trkpt><trkpt lat="45.83433343046437" lon="9.072511018717025"><ele>203.0</ele><time>2026-04-11T17:34:36Z</time></trkpt><trkpt lat="45.83425077995005" lon="9.072526599817126"><ele>203.0</ele><time>2026-04-11T17:34:37Z</time></trkpt><trkpt lat="45.8341561032253" lon="9.072529022786677"><ele>203.0</ele><time>2026-04-11T17:34:38Z</time></trkpt><trkpt lat="45.83405210866628" lon="9.072502059752754"><ele>203.0</ele><time>2026-04-11T17:34:39Z</time></trkpt><trkpt lat="45.83394879385558" lon="9.07247823730943"><ele>203.0</ele><time>2026-04-11T17:34:40Z</time></trkpt><trkpt lat="45.83383781919992" lon="9.072443704599698"><ele>203.0</ele><time>2026-04-11T17:34:41Z</time></trkpt><trkpt lat="45.83372840230728" lon="9.072396280531803"><ele>203.00000000000003</ele><time>2026-04-11T17:34:42Z</time></trkpt><trkpt lat="45.83363105122251" lon="9.072357867219607"><ele>203.0</ele><time>2026-04-11T17:34:43Z</time></trkpt><trkpt lat="45.833553156650936" lon="9.072329522904786"><ele>203.0</ele><time>2026-04-11T17:34:44Z</time></trkpt><trkpt lat="45.83348001227102" lon="9.072306467647023"><ele>203.0</ele><time>2026-04-11T17:34:45Z</time></trkpt><trkpt lat="45.83341253225084" lon="9.072279525610465"><ele>203.00000000000003</ele><time>2026-04-11T17:34:46Z</time></trkpt><trkpt lat="45.833350515530945" lon="9.072259966890172"><ele>203.0</ele><time>2026-04-11T17:34:47Z</time></trkpt><trkpt lat="45.833248706253016" lon="9.072226370042964"><ele>203.33333333333334</ele><time>2026-04-11T17:34:49Z</time></trkpt><trkpt lat="45.8331838120238" lon="9.072184423052876"><ele>203.66666666666669</ele><time>2026-04-11T17:34:51Z</time></trkpt><trkpt lat="45.833099383384564" lon="9.072152161816875"><ele>204.0</ele><time>2026-04-11T17:34:53Z</time></trkpt><trkpt lat="45.832990904289524" lon="9.072109011339542"><ele>204.33333333333331</ele><time>2026-04-11T17:34:55Z</time></trkpt><trkpt lat="45.832922665821535" lon="9.072081751961845"><ele>204.66666666666666</ele><time>2026-04-11T17:34:56Z</time></trkpt><trkpt lat="45.832852039083974" lon="9.072055608445243"><ele>205.0</ele><time>2026-04-11T17:34:57Z</time></trkpt><trkpt lat="45.832771952821744" lon="9.072025817707326"><ele>205.0</ele><time>2026-04-11T17:34:58Z</time></trkpt><trkpt lat="45.83268679633552" lon="9.071994641163107"><ele>205.0</ele><time>2026-04-11T17:34:59Z</time></trkpt><trkpt lat="45.83260357934022" lon="9.071965500048655"><ele>205.0</ele><time>2026-04-11T17:35:00Z</time></trkpt><trkpt lat="45.83251237396496" lon="9.071930804962687"><ele>205.0</ele><time>2026-04-11T17:35:01Z</time></trkpt><trkpt lat="45.83242088379245" lon="9.071897495676506"><ele>205.0</ele><time>2026-04-11T17:35:02Z</time></trkpt><trkpt lat="45.83232959296465" lon="9.071865185967175"><ele>205.0</ele><time>2026-04-11T17:35:03Z</time></trkpt><trkpt lat="45.83223395147064" lon="9.071841488824347"><ele>205.0</ele><time>2026-04-11T17:35:04Z</time></trkpt><trkpt lat="45.83213189673637" lon="9.07183058895621"><ele>205.0</ele><time>2026-04-11T17:35:05Z</time></trkpt><trkpt lat="45.832025951407594" lon="9.071833643499387"><ele>205.0</ele><time>2026-04-11T17:35:06Z</time></trkpt><trkpt lat="45.83191710867955" lon="9.071848269341478"><ele>205.0</ele><time>2026-04-11T17:35:07Z</time></trkpt><trkpt lat="45.83180756510875" lon="9.07186632007721"><ele>204.4</ele><time>2026-04-11T17:35:08Z</time></trkpt><trkpt lat="45.83170553100761" lon="9.071885523272643"><ele>203.8</ele><time>2026-04-11T17:35:09Z</time></trkpt><trkpt lat="45.831603912599235" lon="9.071900803750225"><ele>203.2</ele><time>2026-04-11T17:35:10Z</time></trkpt><trkpt lat="45.83150242985662" lon="9.071914762112714"><ele>202.6</ele><time>2026-04-11T17:35:11Z</time></trkpt><trkpt lat="45.831397129858594" lon="9.071931556214786"><ele>202.0</ele><time>2026-04-11T17:35:12Z</time></trkpt><trkpt lat="45.831292188884845" lon="9.071951342717004"><ele>202.0</ele><time>2026-04-11T17:35:13Z</time></trkpt><trkpt lat="45.83118656980437" lon="9.071968136920537"><ele>202.0</ele><time>2026-04-11T17:35:14Z</time></trkpt><trkpt lat="45.831076048637755" lon="9.071980610718464"><ele>202.0</ele><time>2026-04-11T17:35:15Z</time></trkpt><trkpt lat="45.83096674508907" lon="9.071984105768005"><ele>202.0</ele><time>2026-04-11T17:35:16Z</time></trkpt><trkpt lat="45.83085065549419" lon="9.071974721996211"><ele>202.0</ele><time>2026-04-11T17:35:17Z</time></trkpt><trkpt lat="45.83073238966066" lon="9.071950837344758"><ele>204.5</ele><time>2026-04-11T17:35:18Z</time></trkpt><trkpt lat="45.8306146529628" lon="9.07191771945947"><ele>207.0</ele><time>2026-04-11T17:35:19Z</time></trkpt><trkpt lat="45.83049817943479" lon="9.071869750502007"><ele>209.5</ele><time>2026-04-11T17:35:20Z</time></trkpt><trkpt lat="45.83038273964651" lon="9.07180876391469"><ele>212.0</ele><time>2026-04-11T17:35:21Z</time></trkpt><trkpt lat="45.830267092647404" lon="9.071740395531258"><ele>212.0</ele><time>2026-04-11T17:35:22Z</time></trkpt><trkpt lat="45.830148376494144" lon="9.071660209674382"><ele>212.0</ele><time>2026-04-11T17:35:23Z</time></trkpt><trkpt lat="45.83002743028825" lon="9.071574452356591"><ele>212.0</ele><time>2026-04-11T17:35:24Z</time></trkpt><trkpt lat="45.82990913137409" lon="9.071488422854397"><ele>212.0</ele><time>2026-04-11T17:35:25Z</time></trkpt><trkpt lat="45.82979778609269" lon="9.071402384259176"><ele>218.25</ele><time>2026-04-11T17:35:26Z</time></trkpt><trkpt lat="45.82969184850159" lon="9.07131958411206"><ele>224.5</ele><time>2026-04-11T17:35:27Z</time></trkpt><trkpt lat="45.829593385543625" lon="9.071237220464804"><ele>230.75</ele><time>2026-04-11T17:35:28Z</time></trkpt><trkpt lat="45.82949378044516" lon="9.071138917050092"><ele>237.0</ele><time>2026-04-11T17:35:29Z</time></trkpt><trkpt lat="45.82939340551228" lon="9.071028736252625"><ele>239.25</ele><time>2026-04-11T17:35:30Z</time></trkpt><trkpt lat="45.82929969351544" lon="9.070915114702634"><ele>241.5</ele><time>2026-04-11T17:35:31Z</time></trkpt><trkpt lat="45.829207109458864" lon="9.0708011420506"><ele>243.75</ele><time>2026-04-11T17:35:32Z</time></trkpt><trkpt lat="45.82911306693159" lon="9.07068151560843"><ele>246.0</ele><time>2026-04-11T17:35:33Z</time></trkpt><trkpt lat="45.82902083271638" lon="9.070559974957565"><ele>246.0</ele><time>2026-04-11T17:35:34Z</time></trkpt><trkpt lat="45.828935744572426" lon="9.070447613020873"><ele>246.00000000000003</ele><time>2026-04-11T17:35:35Z</time></trkpt><trkpt lat="45.82885767857412" lon="9.070333875859308"><ele>246.00000000000003</ele><time>2026-04-11T17:35:36Z</time></trkpt><trkpt lat="45.82877616801412" lon="9.070218653739513"><ele>246.0</ele><time>2026-04-11T17:35:37Z</time></trkpt><trkpt lat="45.828695346234376" lon="9.070118568602958"><ele>246.0</ele><time>2026-04-11T17:35:38Z</time></trkpt><trkpt lat="45.82860532770322" lon="9.07004368435047"><ele>246.0</ele><time>2026-04-11T17:35:39Z</time></trkpt><trkpt lat="45.828498546519114" lon="9.070000122170512"><ele>246.00000000000003</ele><time>2026-04-11T17:35:40Z</time></trkpt><trkpt lat="45.82838490766239" lon="9.069981788171674"><ele>246.00000000000003</ele><time>2026-04-11T17:35:41Z</time></trkpt><trkpt lat="45.82827035638393" lon="9.069976617247066"><ele>246.0</ele><time>2026-04-11T17:35:42Z</time></trkpt><trkpt lat="45.828163697430234" lon="9.069968825214442"><ele>246.0</ele><time>2026-04-11T17:35:43Z</time></trkpt><trkpt lat="45.828052147611174" lon="9.06996693469002"><ele>245.0</ele><time>2026-04-11T17:35:44Z</time></trkpt><trkpt lat="45.82793542094696" lon="9.069956145157862"><ele>244.00000000000003</ele><time>2026-04-11T17:35:45Z</time></trkpt><trkpt lat="45.82782493682205" lon="9.06993686696607"><ele>243.00000000000003</ele><time>2026-04-11T17:35:46Z</time></trkpt><trkpt lat="45.82772313397207" lon="9.069898901816316"><ele>242.0</ele><time>2026-04-11T17:35:47Z</time></trkpt><trkpt lat="45.82762268548453" lon="9.069842933952948"><ele>241.0</ele><time>2026-04-11T17:35:48Z</time></trkpt><trkpt lat="45.82752096117513" lon="9.069769984073709"><ele>241.0</ele><time>2026-04-11T17:35:49Z</time></trkpt><trkpt lat="45.82742115721703" lon="9.069694594025718"><ele>241.0</ele><time>2026-04-11T17:35:50Z</time></trkpt><trkpt lat="45.82732086215495" lon="9.069609854132468"><ele>241.0</ele><time>2026-04-11T17:35:51Z</time></trkpt><trkpt lat="45.827219451146796" lon="9.069527985429351"><ele>241.0</ele><time>2026-04-11T17:35:52Z</time></trkpt><trkpt lat="45.82711964654959" lon="9.069444028941966"><ele>241.0</ele><time>2026-04-11T17:35:53Z</time></trkpt><trkpt lat="45.82702076880879" lon="9.069357728589235"><ele>241.00000000000003</ele><time>2026-04-11T17:35:54Z</time></trkpt><trkpt lat="45.82692661828323" lon="9.069275633462714"><ele>241.00000000000003</ele><time>2026-04-11T17:35:55Z</time></trkpt><trkpt lat="45.82683396518741" lon="9.069193614041598"><ele>241.0</ele><time>2026-04-11T17:35:56Z</time></trkpt><trkpt lat="45.826738086109884" lon="9.069109135134847"><ele>241.0</ele><time>2026-04-11T17:35:57Z</time></trkpt><trkpt lat="45.826642511129954" lon="9.069019772757478"><ele>242.25</ele><time>2026-04-11T17:35:58Z</time></trkpt><trkpt lat="45.82654007944222" lon="9.068931544540035"><ele>243.5</ele><time>2026-04-11T17:35:59Z</time></trkpt><trkpt lat="45.82643151319305" lon="9.06884218885251"><ele>244.75</ele><time>2026-04-11T17:36:00Z</time></trkpt><trkpt lat="45.826322927471985" lon="9.068748605439586"><ele>246.0</ele><time>2026-04-11T17:36:01Z</time></trkpt><trkpt lat="45.82621538651186" lon="9.068654285503587"><ele>246.0</ele><time>2026-04-11T17:36:02Z</time></trkpt><trkpt lat="45.82610669759105" lon="9.068561271924485"><ele>246.0</ele><time>2026-04-11T17:36:03Z</time></trkpt><trkpt lat="45.82598857557092" lon="9.068490341399592"><ele>246.0</ele><time>2026-04-11T17:36:04Z</time></trkpt><trkpt lat="45.82587537547765" lon="9.068445577630145"><ele>246.0</ele><time>2026-04-11T17:36:05Z</time></trkpt><trkpt lat="45.8257574520369" lon="9.06840992098657"><ele>239.0</ele><time>2026-04-11T17:36:06Z</time></trkpt><trkpt lat="45.825635999289545" lon="9.068395074756577"><ele>232.0</ele><time>2026-04-11T17:36:07Z</time></trkpt><trkpt lat="45.82552216031047" lon="9.068394571407019"><ele>225.0</ele><time>2026-04-11T17:36:08Z</time></trkpt><trkpt lat="45.82541621573912" lon="9.06838971821383"><ele>218.0</ele><time>2026-04-11T17:36:09Z</time></trkpt><trkpt lat="45.82530715735096" lon="9.068382290715876"><ele>218.0</ele><time>2026-04-11T17:36:10Z</time></trkpt><trkpt lat="45.82520417896825" lon="9.068379462731457"><ele>218.0</ele><time>2026-04-11T17:36:11Z</time></trkpt><trkpt lat="45.8250991195901" lon="9.068378533707328"><ele>218.0</ele><time>2026-04-11T17:36:12Z</time></trkpt><trkpt lat="45.824996126358315" lon="9.06837619077922"><ele>218.0</ele><time>2026-04-11T17:36:13Z</time></trkpt><trkpt lat="45.824897921157145" lon="9.068372166734507"><ele>218.0</ele><time>2026-04-11T17:36:14Z</time></trkpt><trkpt lat="45.82479578919593" lon="9.068359719282876"><ele>216.8</ele><time>2026-04-11T17:36:15Z</time></trkpt><trkpt lat="45.824695549970606" lon="9.068332324246889"><ele>215.60000000000002</ele><time>2026-04-11T17:36:16Z</time></trkpt><trkpt lat="45.824590957806684" lon="9.068290738582307"><ele>214.39999999999998</ele><time>2026-04-11T17:36:17Z</time></trkpt><trkpt lat="45.82449118495126" lon="9.068242227847282"><ele>213.2</ele><time>2026-04-11T17:36:18Z</time></trkpt><trkpt lat="45.82438858806508" lon="9.068189301216862"><ele>212.0</ele><time>2026-04-11T17:36:19Z</time></trkpt><trkpt lat="45.82427966668413" lon="9.068134621901178"><ele>218.0</ele><time>2026-04-11T17:36:20Z</time></trkpt><trkpt lat="45.82417041061822" lon="9.06807992255799"><ele>224.0</ele><time>2026-04-11T17:36:21Z</time></trkpt><trkpt lat="45.824063144493714" lon="9.068026696906612"><ele>230.0</ele><time>2026-04-11T17:36:22Z</time></trkpt><trkpt lat="45.823960989271576" lon="9.067975916884093"><ele>236.0</ele><time>2026-04-11T17:36:23Z</time></trkpt><trkpt lat="45.82386363332898" lon="9.067924193179252"><ele>242.0</ele><time>2026-04-11T17:36:24Z</time></trkpt><trkpt lat="45.82376367767934" lon="9.067875269452914"><ele>242.0</ele><time>2026-04-11T17:36:25Z</time></trkpt><trkpt lat="45.8236590610564" lon="9.067834539085512"><ele>242.0</ele><time>2026-04-11T17:36:26Z</time></trkpt><trkpt lat="45.823555014699075" lon="9.067807243186824"><ele>242.0</ele><time>2026-04-11T17:36:27Z</time></trkpt><trkpt lat="45.82344560429918" lon="9.067786814893477"><ele>242.0</ele><time>2026-04-11T17:36:28Z</time></trkpt><trkpt lat="45.823334725586825" lon="9.067774661087665"><ele>242.0</ele><time>2026-04-11T17:36:29Z</time></trkpt><trkpt lat="45.82322485536031" lon="9.067767753597359"><ele>238.2</ele><time>2026-04-11T17:36:30Z</time></trkpt><trkpt lat="45.8231198016962" lon="9.067759380980334"><ele>234.39999999999998</ele><time>2026-04-11T17:36:31Z</time></trkpt><trkpt lat="45.82301676723657" lon="9.067750577842013"><ele>230.60000000000002</ele><time>2026-04-11T17:36:32Z</time></trkpt><trkpt lat="45.82291367369247" lon="9.067741074839253"><ele>226.8</ele><time>2026-04-11T17:36:33Z</time></trkpt><trkpt lat="45.82281479662029" lon="9.067729821724965"><ele>223.0</ele><time>2026-04-11T17:36:34Z</time></trkpt><trkpt lat="45.82271502253054" lon="9.067713498248661"><ele>221.2</ele><time>2026-04-11T17:36:35Z</time></trkpt><trkpt lat="45.82261554973423" lon="9.067675418125933"><ele>219.4</ele><time>2026-04-11T17:36:36Z</time></trkpt><trkpt lat="45.8225141833276" lon="9.067623779271242"><ele>217.59999999999997</ele><time>2026-04-11T17:36:37Z</time></trkpt><trkpt lat="45.82241116702352" lon="9.067554159998755"><ele>215.79999999999998</ele><time>2026-04-11T17:36:38Z</time></trkpt><trkpt lat="45.822306106670474" lon="9.06747876120691"><ele>214.0</ele><time>2026-04-11T17:36:39Z</time></trkpt><trkpt lat="45.82218511207763" lon="9.067395562808567"><ele>215.25</ele><time>2026-04-11T17:36:40Z</time></trkpt><trkpt lat="45.82205482975993" lon="9.067303727883013"><ele>216.5</ele><time>2026-04-11T17:36:41Z</time></trkpt><trkpt lat="45.82193068090489" lon="9.06721843497125"><ele>217.75</ele><time>2026-04-11T17:36:42Z</time></trkpt><trkpt lat="45.821812649988715" lon="9.067139299598654"><ele>219.0</ele><time>2026-04-11T17:36:43Z</time></trkpt><trkpt lat="45.82169857511814" lon="9.067066358434596"><ele>219.0</ele><time>2026-04-11T17:36:44Z</time></trkpt><trkpt lat="45.82158022421338" lon="9.067002751973812"><ele>219.0</ele><time>2026-04-11T17:36:45Z</time></trkpt><trkpt lat="45.82146897812436" lon="9.066942304579607"><ele>219.0</ele><time>2026-04-11T17:36:46Z</time></trkpt><trkpt lat="45.821361469624016" lon="9.066884195599457"><ele>219.0</ele><time>2026-04-11T17:36:47Z</time></trkpt><trkpt lat="45.82125540943101" lon="9.066827052618375"><ele>219.0</ele><time>2026-04-11T17:36:48Z</time></trkpt><trkpt lat="45.82114764838055" lon="9.06676824113679"><ele>219.0</ele><time>2026-04-11T17:36:49Z</time></trkpt><trkpt lat="45.8210408366767" lon="9.066698874518847"><ele>219.0</ele><time>2026-04-11T17:36:50Z</time></trkpt><trkpt lat="45.82093778946026" lon="9.066617036616792"><ele>219.0</ele><time>2026-04-11T17:36:51Z</time></trkpt><trkpt lat="45.820846864056065" lon="9.066515191557103"><ele>219.25</ele><time>2026-04-11T17:36:52Z</time></trkpt><trkpt lat="45.82076919446406" lon="9.066388281262128"><ele>219.5</ele><time>2026-04-11T17:36:53Z</time></trkpt><trkpt lat="45.820697480709214" lon="9.066243357695095"><ele>219.75</ele><time>2026-04-11T17:36:54Z</time></trkpt><trkpt lat="45.82062605562582" lon="9.066071865301874"><ele>220.0</ele><time>2026-04-11T17:36:55Z</time></trkpt><trkpt lat="45.82055722884318" lon="9.065876064009379"><ele>222.66666666666666</ele><time>2026-04-11T17:36:56Z</time></trkpt><trkpt lat="45.82049107629698" lon="9.065660783974042"><ele>225.33333333333331</ele><time>2026-04-11T17:36:57Z</time></trkpt><trkpt lat="45.82042409377149" lon="9.065435336405237"><ele>228.0</ele><time>2026-04-11T17:36:58Z</time></trkpt><trkpt lat="45.82035272079878" lon="9.065200389191974"><ele>228.0</ele><time>2026-04-11T17:36:59Z</time></trkpt><trkpt lat="45.82027827634601" lon="9.064974320320752"><ele>228.0</ele><time>2026-04-11T17:37:00Z</time></trkpt><trkpt lat="45.8201945987558" lon="9.06474556640187"><ele>228.0</ele><time>2026-04-11T17:37:01Z</time></trkpt><trkpt lat="45.82011783393151" lon="9.064512385941478"><ele>225.33333333333331</ele><time>2026-04-11T17:37:02Z</time></trkpt><trkpt lat="45.820038001891376" lon="9.064280143401945"><ele>222.66666666666666</ele><time>2026-04-11T17:37:03Z</time></trkpt><trkpt lat="45.81996212801118" lon="9.06405648573705"><ele>220.0</ele><time>2026-04-11T17:37:04Z</time></trkpt><trkpt lat="45.81988870011778" lon="9.063845886640026"><ele>220.0</ele><time>2026-04-11T17:37:05Z</time></trkpt><trkpt lat="45.81979969261002" lon="9.063660707934517"><ele>220.0</ele><time>2026-04-11T17:37:06Z</time></trkpt><trkpt lat="45.81968576697445" lon="9.063502330223885"><ele>220.0</ele><time>2026-04-11T17:37:07Z</time></trkpt><trkpt lat="45.81955754450726" lon="9.063368137359127"><ele>220.75</ele><time>2026-04-11T17:37:08Z</time></trkpt><trkpt lat="45.81941419435552" lon="9.063277587256962"><ele>221.5</ele><time>2026-04-11T17:37:09Z</time></trkpt><trkpt lat="45.819280934741066" lon="9.063233189030083"><ele>222.25</ele><time>2026-04-11T17:37:10Z</time></trkpt><trkpt lat="45.81917612387654" lon="9.063233120101057"><ele>223.0</ele><time>2026-04-11T17:37:11Z</time></trkpt><trkpt lat="45.81910605865215" lon="9.063230473035924"><ele>222.99999999999997</ele><time>2026-04-11T17:37:12Z</time></trkpt><trkpt lat="45.8190453146676" lon="9.063187082367897"><ele>223.0</ele><time>2026-04-11T17:37:14Z</time></trkpt><trkpt lat="45.81895261744864" lon="9.06310358056526"><ele>223.0</ele><time>2026-04-11T17:37:16Z</time></trkpt><trkpt lat="45.81885827993965" lon="9.063066721413712"><ele>223.0</ele><time>2026-04-11T17:37:18Z</time></trkpt><trkpt lat="45.81879747102976" lon="9.063122262904814"><ele>222.99999999999997</ele><time>2026-04-11T17:37:19Z</time></trkpt><trkpt lat="45.818752233976035" lon="9.063214525161994"><ele>223.0</ele><time>2026-04-11T17:37:20Z</time></trkpt><trkpt lat="45.8186927527617" lon="9.063299341986461"><ele>222.60000000000002</ele><time>2026-04-11T17:37:21Z</time></trkpt><trkpt lat="45.81861491195412" lon="9.06338433770803"><ele>222.20000000000002</ele><time>2026-04-11T17:37:22Z</time></trkpt><trkpt lat="45.81852967804577" lon="9.063476120162516"><ele>221.8</ele><time>2026-04-11T17:37:23Z</time></trkpt><trkpt lat="45.81843813622615" lon="9.063570784865984"><ele>221.4</ele><time>2026-04-11T17:37:24Z</time></trkpt><trkpt lat="45.8183477601709" lon="9.063661222244793"><ele>221.0</ele><time>2026-04-11T17:37:25Z</time></trkpt><trkpt lat="45.81825647376986" lon="9.063745706853716"><ele>220.4</ele><time>2026-04-11T17:37:26Z</time></trkpt><trkpt lat="45.818165389361866" lon="9.063832636409941"><ele>219.8</ele><time>2026-04-11T17:37:27Z</time></trkpt><trkpt lat="45.818078967244844" lon="9.06392548770323"><ele>219.20000000000002</ele><time>2026-04-11T17:37:28Z</time></trkpt><trkpt lat="45.81799224309074" lon="9.064023628160427"><ele>218.60000000000002</ele><time>2026-04-11T17:37:29Z</time></trkpt><trkpt lat="45.81790524605613" lon="9.064125778053581"><ele>218.0</ele><time>2026-04-11T17:37:30Z</time></trkpt><trkpt lat="45.81782463727003" lon="9.064223805623019"><ele>217.4</ele><time>2026-04-11T17:37:31Z</time></trkpt><trkpt lat="45.81776487917456" lon="9.064299022947683"><ele>216.8</ele><time>2026-04-11T17:37:32Z</time></trkpt><trkpt lat="45.81768573028379" lon="9.064402162081631"><ele>216.2</ele><time>2026-04-11T17:37:34Z</time></trkpt><trkpt lat="45.81763149559131" lon="9.064480671769902"><ele>215.6</ele><time>2026-04-11T17:37:36Z</time></trkpt><trkpt lat="45.81753132847826" lon="9.064593985628763"><ele>215.0</ele><time>2026-04-11T17:37:38Z</time></trkpt><trkpt lat="45.817463332000216" lon="9.064672153429168"><ele>214.66666666666669</ele><time>2026-04-11T17:37:39Z</time></trkpt><trkpt lat="45.817405987739136" lon="9.064741718904733"><ele>214.33333333333334</ele><time>2026-04-11T17:37:40Z</time></trkpt><trkpt lat="45.817350724252094" lon="9.064805621821431"><ele>214.0</ele><time>2026-04-11T17:37:41Z</time></trkpt><trkpt lat="45.81729745282786" lon="9.064864859293147"><ele>213.66666666666669</ele><time>2026-04-11T17:37:42Z</time></trkpt><trkpt lat="45.817242153131055" lon="9.064931528797688"><ele>213.33333333333334</ele><time>2026-04-11T17:37:43Z</time></trkpt><trkpt lat="45.81716899303979" lon="9.065023634206193"><ele>213.0</ele><time>2026-04-11T17:37:45Z</time></trkpt><trkpt lat="45.81707164519283" lon="9.065135833061941"><ele>212.0</ele><time>2026-04-11T17:37:47Z</time></trkpt><trkpt lat="45.8169952504631" lon="9.065237565047887"><ele>211.0</ele><time>2026-04-11T17:37:48Z</time></trkpt><trkpt lat="45.81689142644434" lon="9.065332187042305"><ele>210.0</ele><time>2026-04-11T17:37:49Z</time></trkpt><trkpt lat="45.81681629582032" lon="9.065434978001159"><ele>209.0</ele><time>2026-04-11T17:37:50Z</time></trkpt><trkpt lat="45.81674423529741" lon="9.065502334163392"><ele>208.0</ele><time>2026-04-11T17:37:51Z</time></trkpt><trkpt lat="45.816688346515136" lon="9.065562120790204"><ele>207.66666666666666</ele><time>2026-04-11T17:37:52Z</time></trkpt><trkpt lat="45.816635399051364" lon="9.065614366061812"><ele>207.33333333333331</ele><time>2026-04-11T17:37:53Z</time></trkpt><trkpt lat="45.816573731813996" lon="9.06563588660583"><ele>207.0</ele><time>2026-04-11T17:37:54Z</time></trkpt><trkpt lat="45.81646080039033" lon="9.065697096683119"><ele>206.66666666666669</ele><time>2026-04-11T17:37:56Z</time></trkpt><trkpt lat="45.81639631293275" lon="9.065753477756276"><ele>206.33333333333334</ele><time>2026-04-11T17:37:57Z</time></trkpt><trkpt lat="45.816313277529716" lon="9.065775184199273"><ele>206.0</ele><time>2026-04-11T17:37:58Z</time></trkpt><trkpt lat="45.81623380120594" lon="9.065841954966823"><ele>206.0</ele><time>2026-04-11T17:37:59Z</time></trkpt><trkpt lat="45.81614914270745" lon="9.065884685617254"><ele>206.0</ele><time>2026-04-11T17:38:00Z</time></trkpt><trkpt lat="45.81605835413758" lon="9.065935315531323"><ele>206.0</ele><time>2026-04-11T17:38:01Z</time></trkpt><trkpt lat="45.81596106562742" lon="9.065990127649384"><ele>206.0</ele><time>2026-04-11T17:38:02Z</time></trkpt><trkpt lat="45.815855582537985" lon="9.066026938519387"><ele>206.0</ele><time>2026-04-11T17:38:03Z</time></trkpt><trkpt lat="45.81575174469329" lon="9.066088173278525"><ele>206.0</ele><time>2026-04-11T17:38:04Z</time></trkpt><trkpt lat="45.81565111370729" lon="9.06615918981907"><ele>206.0</ele><time>2026-04-11T17:38:05Z</time></trkpt><trkpt lat="45.8155655456909" lon="9.066257420087606"><ele>206.0</ele><time>2026-04-11T17:38:06Z</time></trkpt><trkpt lat="45.815471566975695" lon="9.066336070751754"><ele>206.0</ele><time>2026-04-11T17:38:07Z</time></trkpt><trkpt lat="45.81538064829647" lon="9.066421445071882"><ele>206.0</ele><time>2026-04-11T17:38:08Z</time></trkpt><trkpt lat="45.815294000359806" lon="9.066511491574676"><ele>205.8</ele><time>2026-04-11T17:38:09Z</time></trkpt><trkpt lat="45.81521310660479" lon="9.066615764538465"><ele>205.60000000000002</ele><time>2026-04-11T17:38:10Z</time></trkpt><trkpt lat="45.815141203432056" lon="9.066734546454187"><ele>205.4</ele><time>2026-04-11T17:38:11Z</time></trkpt><trkpt lat="45.81507941848936" lon="9.066869453049378"><ele>205.2</ele><time>2026-04-11T17:38:12Z</time></trkpt><trkpt lat="45.815023734433204" lon="9.06700411835189"><ele>205.0</ele><time>2026-04-11T17:38:13Z</time></trkpt><trkpt lat="45.814975542434595" lon="9.067138560731847"><ele>205.4</ele><time>2026-04-11T17:38:14Z</time></trkpt><trkpt lat="45.81492436446707" lon="9.067274588932932"><ele>205.8</ele><time>2026-04-11T17:38:15Z</time></trkpt><trkpt lat="45.814869978101996" lon="9.067407614933238"><ele>206.2</ele><time>2026-04-11T17:38:16Z</time></trkpt><trkpt lat="45.814818910048594" lon="9.067549406105874"><ele>206.6</ele><time>2026-04-11T17:38:17Z</time></trkpt><trkpt lat="45.81476692340141" lon="9.067686854429311"><ele>207.0</ele><time>2026-04-11T17:38:18Z</time></trkpt><trkpt lat="45.81471416191833" lon="9.06782138694926"><ele>207.0</ele><time>2026-04-11T17:38:19Z</time></trkpt><trkpt lat="45.8146611200387" lon="9.067959863144088"><ele>207.0</ele><time>2026-04-11T17:38:20Z</time></trkpt><trkpt lat="45.81460371317389" lon="9.068090444445154"><ele>207.0</ele><time>2026-04-11T17:38:21Z</time></trkpt><trkpt lat="45.81454066379636" lon="9.068216182781688"><ele>207.0</ele><time>2026-04-11T17:38:22Z</time></trkpt><trkpt lat="45.81447279625827" lon="9.068330138069983"><ele>207.0</ele><time>2026-04-11T17:38:23Z</time></trkpt><trkpt lat="45.8143896183539" lon="9.06841472609409"><ele>207.2</ele><time>2026-04-11T17:38:24Z</time></trkpt><trkpt lat="45.814318168358874" lon="9.06852078571832"><ele>207.39999999999998</ele><time>2026-04-11T17:38:25Z</time></trkpt><trkpt lat="45.814241537239596" lon="9.068626965970626"><ele>207.60000000000002</ele><time>2026-04-11T17:38:26Z</time></trkpt><trkpt lat="45.81416618726327" lon="9.068739078166217"><ele>207.8</ele><time>2026-04-11T17:38:27Z</time></trkpt><trkpt lat="45.814072287116794" lon="9.068794520836732"><ele>208.0</ele><time>2026-04-11T17:38:28Z</time></trkpt><trkpt lat="45.81398383611045" lon="9.068863399729548"><ele>208.0</ele><time>2026-04-11T17:38:29Z</time></trkpt><trkpt lat="45.81388628050356" lon="9.0689337521026"><ele>208.0</ele><time>2026-04-11T17:38:30Z</time></trkpt><trkpt lat="45.813793494385244" lon="9.068998394008915"><ele>208.0</ele><time>2026-04-11T17:38:31Z</time></trkpt><trkpt lat="45.81370651944356" lon="9.069061599970523"><ele>208.0</ele><time>2026-04-11T17:38:32Z</time></trkpt><trkpt lat="45.81361825485615" lon="9.069125245592948"><ele>208.0</ele><time>2026-04-11T17:38:33Z</time></trkpt><trkpt lat="45.813532146858165" lon="9.069177239198492"><ele>207.8</ele><time>2026-04-11T17:38:34Z</time></trkpt><trkpt lat="45.813439560246515" lon="9.069216352978872"><ele>207.60000000000002</ele><time>2026-04-11T17:38:35Z</time></trkpt><trkpt lat="45.81334900256244" lon="9.06928217475644"><ele>207.39999999999998</ele><time>2026-04-11T17:38:36Z</time></trkpt><trkpt lat="45.81324866864193" lon="9.069330054900389"><ele>207.2</ele><time>2026-04-11T17:38:37Z</time></trkpt><trkpt lat="45.813157712540345" lon="9.069398511012436"><ele>207.0</ele><time>2026-04-11T17:38:38Z</time></trkpt><trkpt lat="45.81306445692081" lon="9.069478463366703"><ele>207.0</ele><time>2026-04-11T17:38:39Z</time></trkpt><trkpt lat="45.81297318394088" lon="9.069550215208306"><ele>207.0</ele><time>2026-04-11T17:38:40Z</time></trkpt><trkpt lat="45.81288587145542" lon="9.069614329903633"><ele>207.0</ele><time>2026-04-11T17:38:41Z</time></trkpt><trkpt lat="45.8128044213872" lon="9.069662223107596"><ele>207.0</ele><time>2026-04-11T17:38:42Z</time></trkpt><trkpt lat="45.812732273277426" lon="9.069704077117292"><ele>207.0</ele><time>2026-04-11T17:38:43Z</time></trkpt><trkpt lat="45.8126716761363" lon="9.069737586675588"><ele>207.0</ele><time>2026-04-11T17:38:44Z</time></trkpt><trkpt lat="45.81256530039159" lon="9.069789255563979"><ele>207.0</ele><time>2026-04-11T17:38:46Z</time></trkpt><trkpt lat="45.812457173215414" lon="9.069835886946995"><ele>207.0</ele><time>2026-04-11T17:38:48Z</time></trkpt><trkpt lat="45.81233515821488" lon="9.069887261091306"><ele>207.0</ele><time>2026-04-11T17:38:50Z</time></trkpt><trkpt lat="45.81223263189703" lon="9.069900604253846"><ele>207.0</ele><time>2026-04-11T17:38:52Z</time></trkpt><trkpt lat="45.812208618245286" lon="9.070017847410723"><ele>207.0</ele><time>2026-04-11T17:38:53Z</time></trkpt><trkpt lat="45.81225808377857" lon="9.070190992322892"><ele>207.0</ele><time>2026-04-11T17:38:55Z</time></trkpt><trkpt lat="45.812302466909564" lon="9.070276887809484"><ele>207.0</ele><time>2026-04-11T17:38:56Z</time></trkpt><trkpt lat="45.81230953108124" lon="9.07042205758377"><ele>207.0</ele><time>2026-04-11T17:38:57Z</time></trkpt><trkpt lat="45.81232898422672" lon="9.070567129901622"><ele>207.0</ele><time>2026-04-11T17:38:58Z</time></trkpt><trkpt lat="45.81235235150378" lon="9.070738885376874"><ele>207.0</ele><time>2026-04-11T17:38:59Z</time></trkpt><trkpt lat="45.81237940493336" lon="9.070932490378269"><ele>206.75</ele><time>2026-04-11T17:39:00Z</time></trkpt><trkpt lat="45.812405405038724" lon="9.071124492230219"><ele>206.5</ele><time>2026-04-11T17:39:01Z</time></trkpt><trkpt lat="45.81242965978112" lon="9.071294313033734"><ele>206.25</ele><time>2026-04-11T17:39:02Z</time></trkpt><trkpt lat="45.81244813486688" lon="9.071446346038488"><ele>206.0</ele><time>2026-04-11T17:39:03Z</time></trkpt><trkpt lat="45.812460862433916" lon="9.071570900362053"><ele>206.16666666666669</ele><time>2026-04-11T17:39:04Z</time></trkpt><trkpt lat="45.812463302433095" lon="9.07168027610257"><ele>206.33333333333334</ele><time>2026-04-11T17:39:05Z</time></trkpt><trkpt lat="45.812451779298605" lon="9.071779970765494"><ele>206.5</ele><time>2026-04-11T17:39:06Z</time></trkpt><trkpt lat="45.81242481408177" lon="9.071877703340084"><ele>206.66666666666669</ele><time>2026-04-11T17:39:07Z</time></trkpt><trkpt lat="45.81237872099893" lon="9.071984143682592"><ele>206.83333333333334</ele><time>2026-04-11T17:39:08Z</time></trkpt><trkpt lat="45.81231762956952" lon="9.072086693782301"><ele>207.0</ele><time>2026-04-11T17:39:09Z</time></trkpt><trkpt lat="45.81226032252451" lon="9.07220295200711"><ele>207.0</ele><time>2026-04-11T17:39:10Z</time></trkpt><trkpt lat="45.81219558113143" lon="9.072322092300348"><ele>207.0</ele><time>2026-04-11T17:39:11Z</time></trkpt><trkpt lat="45.81209924289159" lon="9.072419343029456"><ele>207.0</ele><time>2026-04-11T17:39:12Z</time></trkpt><trkpt lat="45.81200307982999" lon="9.072520474983317"><ele>207.0</ele><time>2026-04-11T17:39:13Z</time></trkpt><trkpt lat="45.81189876847954" lon="9.072637598081014"><ele>206.75</ele><time>2026-04-11T17:39:14Z</time></trkpt><trkpt lat="45.81179790780854" lon="9.072752581192725"><ele>206.5</ele><time>2026-04-11T17:39:15Z</time></trkpt><trkpt lat="45.811691610438864" lon="9.072872813979954"><ele>206.25</ele><time>2026-04-11T17:39:16Z</time></trkpt><trkpt lat="45.81157923645326" lon="9.072995816802623"><ele>206.0</ele><time>2026-04-11T17:39:17Z</time></trkpt><trkpt lat="45.81146647252298" lon="9.073117230918847"><ele>206.0</ele><time>2026-04-11T17:39:18Z</time></trkpt><trkpt lat="45.81135815098885" lon="9.073221387942326"><ele>206.0</ele><time>2026-04-11T17:39:19Z</time></trkpt><trkpt lat="45.81124904238895" lon="9.073334081550891"><ele>206.0</ele><time>2026-04-11T17:39:20Z</time></trkpt><trkpt lat="45.81114385332766" lon="9.07343597948172"><ele>206.0</ele><time>2026-04-11T17:39:21Z</time></trkpt><trkpt lat="45.811043663149626" lon="9.073536023037953"><ele>206.4</ele><time>2026-04-11T17:39:22Z</time></trkpt><trkpt lat="45.810964532809244" lon="9.07365464875712"><ele>206.8</ele><time>2026-04-11T17:39:23Z</time></trkpt><trkpt lat="45.8109056310608" lon="9.073770142637043"><ele>207.20000000000002</ele><time>2026-04-11T17:39:24Z</time></trkpt><trkpt lat="45.810868999808854" lon="9.073895597656772"><ele>207.60000000000002</ele><time>2026-04-11T17:39:25Z</time></trkpt><trkpt lat="45.810816893509035" lon="9.073998233496642"><ele>208.0</ele><time>2026-04-11T17:39:26Z</time></trkpt><trkpt lat="45.81072891370959" lon="9.074057332536396"><ele>208.0</ele><time>2026-04-11T17:39:27Z</time></trkpt><trkpt lat="45.81061831525453" lon="9.074078938276537"><ele>208.0</ele><time>2026-04-11T17:39:28Z</time></trkpt><trkpt lat="45.810494046825" lon="9.074117674333895"><ele>208.0</ele><time>2026-04-11T17:39:29Z</time></trkpt><trkpt lat="45.810368326049584" lon="9.07417986055553"><ele>208.0</ele><time>2026-04-11T17:39:30Z</time></trkpt><trkpt lat="45.81025000383889" lon="9.074275838317218"><ele>208.4</ele><time>2026-04-11T17:39:31Z</time></trkpt><trkpt lat="45.81014435529057" lon="9.074376202358682"><ele>208.8</ele><time>2026-04-11T17:39:32Z</time></trkpt><trkpt lat="45.810053981818236" lon="9.07447160020299"><ele>209.2</ele><time>2026-04-11T17:39:33Z</time></trkpt><trkpt lat="45.80997212034015" lon="9.0745555954091"><ele>209.6</ele><time>2026-04-11T17:39:34Z</time></trkpt><trkpt lat="45.80988485612561" lon="9.074636865268799"><ele>210.0</ele><time>2026-04-11T17:39:35Z</time></trkpt><trkpt lat="45.8097953399912" lon="9.074721943090838"><ele>210.0</ele><time>2026-04-11T17:39:36Z</time></trkpt><trkpt lat="45.80971165769635" lon="9.074809007861987"><ele>210.0</ele><time>2026-04-11T17:39:37Z</time></trkpt><trkpt lat="45.809638879017456" lon="9.074881248059302"><ele>210.0</ele><time>2026-04-11T17:39:38Z</time></trkpt><trkpt lat="45.809569762160166" lon="9.074952505717102"><ele>210.0</ele><time>2026-04-11T17:39:39Z</time></trkpt><trkpt lat="45.8095039497878" lon="9.075016646762268"><ele>210.0</ele><time>2026-04-11T17:39:40Z</time></trkpt><trkpt lat="45.80943768518693" lon="9.075079680046112"><ele>210.0</ele><time>2026-04-11T17:39:41Z</time></trkpt><trkpt lat="45.80936044479069" lon="9.075154124646"><ele>209.0</ele><time>2026-04-11T17:39:42Z</time></trkpt><trkpt lat="45.80927727520322" lon="9.075239685020124"><ele>208.0</ele><time>2026-04-11T17:39:43Z</time></trkpt><trkpt lat="45.80918517348424" lon="9.07533046414288"><ele>207.0</ele><time>2026-04-11T17:39:44Z</time></trkpt><trkpt lat="45.80908840749762" lon="9.075418043471657"><ele>206.0</ele><time>2026-04-11T17:39:45Z</time></trkpt><trkpt lat="45.80899055901299" lon="9.075506866929455"><ele>205.0</ele><time>2026-04-11T17:39:46Z</time></trkpt><trkpt lat="45.80889846589853" lon="9.075597187916317"><ele>205.0</ele><time>2026-04-11T17:39:47Z</time></trkpt><trkpt lat="45.80880752847116" lon="9.075679992245014"><ele>205.0</ele><time>2026-04-11T17:39:48Z</time></trkpt><trkpt lat="45.80870178670274" lon="9.07577604228798"><ele>205.0</ele><time>2026-04-11T17:39:49Z</time></trkpt><trkpt lat="45.8085834967865" lon="9.075898099848219"><ele>205.0</ele><time>2026-04-11T17:39:50Z</time></trkpt><trkpt lat="45.80846117053876" lon="9.07600939976125"><ele>205.25</ele><time>2026-04-11T17:39:51Z</time></trkpt><trkpt lat="45.80833455963794" lon="9.076114774558402"><ele>205.5</ele><time>2026-04-11T17:39:52Z</time></trkpt><trkpt lat="45.80822496115228" lon="9.076223827990429"><ele>205.75</ele><time>2026-04-11T17:39:53Z</time></trkpt><trkpt lat="45.80811640305056" lon="9.076334221873054"><ele>206.0</ele><time>2026-04-11T17:39:54Z</time></trkpt><trkpt lat="45.80799583092791" lon="9.076445775422409"><ele>206.0</ele><time>2026-04-11T17:39:55Z</time></trkpt><trkpt lat="45.80787698397614" lon="9.07654342150561"><ele>206.0</ele><time>2026-04-11T17:39:56Z</time></trkpt><trkpt lat="45.80775946617514" lon="9.076645018327204"><ele>206.0</ele><time>2026-04-11T17:39:57Z</time></trkpt><trkpt lat="45.80764353060891" lon="9.076764367464136"><ele>206.0</ele><time>2026-04-11T17:39:58Z</time></trkpt><trkpt lat="45.80752643494832" lon="9.076892992577973"><ele>206.66666666666669</ele><time>2026-04-11T17:39:59Z</time></trkpt><trkpt lat="45.80740332396354" lon="9.077018969106424"><ele>207.33333333333331</ele><time>2026-04-11T17:40:00Z</time></trkpt><trkpt lat="45.80727554401713" lon="9.077149750067058"><ele>208.0</ele><time>2026-04-11T17:40:01Z</time></trkpt><trkpt lat="45.80714302168822" lon="9.07728302778302"><ele>208.0</ele><time>2026-04-11T17:40:02Z</time></trkpt><trkpt lat="45.807010387652255" lon="9.07741126371619"><ele>208.0</ele><time>2026-04-11T17:40:03Z</time></trkpt><trkpt lat="45.80687788160707" lon="9.077535620784849"><ele>208.0</ele><time>2026-04-11T17:40:04Z</time></trkpt><trkpt lat="45.80674524249665" lon="9.077660606602427"><ele>207.66666666666666</ele><time>2026-04-11T17:40:05Z</time></trkpt><trkpt lat="45.80661045302384" lon="9.077786852231283"><ele>207.33333333333331</ele><time>2026-04-11T17:40:06Z</time></trkpt><trkpt lat="45.80647680389019" lon="9.077916058256655"><ele>207.0</ele><time>2026-04-11T17:40:07Z</time></trkpt><trkpt lat="45.806344198591795" lon="9.078049236253023"><ele>207.0</ele><time>2026-04-11T17:40:08Z</time></trkpt><trkpt lat="45.806222042377755" lon="9.07820218461868"><ele>207.0</ele><time>2026-04-11T17:40:09Z</time></trkpt><trkpt lat="45.80611815098438" lon="9.078381790439334"><ele>207.0</ele><time>2026-04-11T17:40:10Z</time></trkpt><trkpt lat="45.80600930996052" lon="9.078558557283431"><ele>207.33333333333331</ele><time>2026-04-11T17:40:11Z</time></trkpt><trkpt lat="45.80589807688937" lon="9.078733648344977"><ele>207.66666666666666</ele><time>2026-04-11T17:40:12Z</time></trkpt><trkpt lat="45.80578873634409" lon="9.078910836463622"><ele>208.0</ele><time>2026-04-11T17:40:13Z</time></trkpt><trkpt lat="45.805678387866976" lon="9.079089975360166"><ele>208.33333333333331</ele><time>2026-04-11T17:40:14Z</time></trkpt><trkpt lat="45.805568661778615" lon="9.079271477356421"><ele>208.66666666666669</ele><time>2026-04-11T17:40:15Z</time></trkpt><trkpt lat="45.80545727588505" lon="9.07945343449823"><ele>209.0</ele><time>2026-04-11T17:40:16Z</time></trkpt><trkpt lat="45.80534591651815" lon="9.07963270797043"><ele>209.0</ele><time>2026-04-11T17:40:17Z</time></trkpt><trkpt lat="45.80523527144087" lon="9.07981270933426"><ele>209.0</ele><time>2026-04-11T17:40:18Z</time></trkpt><trkpt lat="45.80513051055149" lon="9.079980835613398"><ele>209.0</ele><time>2026-04-11T17:40:19Z</time></trkpt><trkpt lat="45.8050293810982" lon="9.080145102901652"><ele>209.0</ele><time>2026-04-11T17:40:20Z</time></trkpt><trkpt lat="45.804932315392556" lon="9.08029810607942"><ele>209.0</ele><time>2026-04-11T17:40:21Z</time></trkpt><trkpt lat="45.80484222930574" lon="9.080441921179192"><ele>209.0</ele><time>2026-04-11T17:40:22Z</time></trkpt><trkpt lat="45.80476594622982" lon="9.08056727346861"><ele>209.0</ele><time>2026-04-11T17:40:23Z</time></trkpt><trkpt lat="45.80470681507654" lon="9.080668034275785"><ele>209.00000000000003</ele><time>2026-04-11T17:40:24Z</time></trkpt><trkpt lat="45.80464638976518" lon="9.08077237049477"><ele>209.0</ele><time>2026-04-11T17:40:25Z</time></trkpt><trkpt lat="45.80459252575261" lon="9.080860570257288"><ele>209.0</ele><time>2026-04-11T17:40:26Z</time></trkpt><trkpt lat="45.80454912905969" lon="9.080927768350914"><ele>209.0</ele><time>2026-04-11T17:40:27Z</time></trkpt><trkpt lat="45.80448479627478" lon="9.081017701918737"><ele>209.00000000000003</ele><time>2026-04-11T17:40:29Z</time></trkpt><trkpt lat="45.8044376988157" lon="9.081091966374725"><ele>209.0</ele><time>2026-04-11T17:40:32Z</time></trkpt><trkpt lat="45.804402509703564" lon="9.081167870878408"><ele>209.0</ele><time>2026-04-11T17:40:59Z</time></trkpt><trkpt lat="45.80435883564073" lon="9.081251446121199"><ele>209.0</ele><time>2026-04-11T17:41:00Z</time></trkpt><trkpt lat="45.804301888427375" lon="9.08135440292535"><ele>209.0</ele><time>2026-04-11T17:41:01Z</time></trkpt><trkpt lat="45.804243687449585" lon="9.081454306292875"><ele>209.0</ele><time>2026-04-11T17:41:02Z</time></trkpt><trkpt lat="45.804171326352865" lon="9.08157664793243"><ele>209.0</ele><time>2026-04-11T17:41:03Z</time></trkpt><trkpt lat="45.804090942022334" lon="9.081706294405368"><ele>209.6</ele><time>2026-04-11T17:41:04Z</time></trkpt><trkpt lat="45.80400702617628" lon="9.081838832925685"><ele>210.2</ele><time>2026-04-11T17:41:05Z</time></trkpt><trkpt lat="45.80393330310763" lon="9.081954580598788"><ele>210.79999999999998</ele><time>2026-04-11T17:41:06Z</time></trkpt><trkpt lat="45.80387023294545" lon="9.08205450413725"><ele>211.39999999999998</ele><time>2026-04-11T17:41:07Z</time></trkpt><trkpt lat="45.803822136828614" lon="9.082133984340466"><ele>212.0</ele><time>2026-04-11T17:41:08Z</time></trkpt><trkpt lat="45.80376773862661" lon="9.082219549797635"><ele>212.0</ele><time>2026-04-11T17:41:10Z</time></trkpt><trkpt lat="45.803689977584604" lon="9.08235881111001"><ele>212.0</ele><time>2026-04-11T17:41:32Z</time></trkpt><trkpt lat="45.803619443097496" lon="9.08243627176819"><ele>212.0</ele><time>2026-04-11T17:41:33Z</time></trkpt><trkpt lat="45.803556794475696" lon="9.08251401909446"><ele>212.0</ele><time>2026-04-11T17:41:34Z</time></trkpt><trkpt lat="45.80348402022402" lon="9.08262667142452"><ele>212.0</ele><time>2026-04-11T17:41:35Z</time></trkpt><trkpt lat="45.80340054751191" lon="9.082750952577564"><ele>212.0</ele><time>2026-04-11T17:41:36Z</time></trkpt><trkpt lat="45.80331319710862" lon="9.082871706623052"><ele>212.0</ele><time>2026-04-11T17:41:37Z</time></trkpt><trkpt lat="45.803217731995986" lon="9.083003875810777"><ele>212.0</ele><time>2026-04-11T17:41:38Z</time></trkpt><trkpt lat="45.803123803006336" lon="9.083141864206999"><ele>212.0</ele><time>2026-04-11T17:41:39Z</time></trkpt><trkpt lat="45.80302507429248" lon="9.083288475146503"><ele>212.0</ele><time>2026-04-11T17:41:40Z</time></trkpt><trkpt lat="45.80292421998818" lon="9.08342700209274"><ele>212.0</ele><time>2026-04-11T17:41:41Z</time></trkpt><trkpt lat="45.80282114242018" lon="9.083562717365941"><ele>212.0</ele><time>2026-04-11T17:41:42Z</time></trkpt><trkpt lat="45.80272512760742" lon="9.083690965103655"><ele>212.0</ele><time>2026-04-11T17:41:43Z</time></trkpt><trkpt lat="45.802637243651574" lon="9.083812063480357"><ele>212.0</ele><time>2026-04-11T17:41:44Z</time></trkpt><trkpt lat="45.802555323273815" lon="9.083921028086868"><ele>212.0</ele><time>2026-04-11T17:41:45Z</time></trkpt><trkpt lat="45.8024828391218" lon="9.084019524824043"><ele>212.0</ele><time>2026-04-11T17:41:46Z</time></trkpt><trkpt lat="45.802424417015324" lon="9.084101176162177"><ele>212.0</ele><time>2026-04-11T17:41:47Z</time></trkpt><trkpt lat="45.802351224443946" lon="9.084221811665918"><ele>212.0</ele><time>2026-04-11T17:41:49Z</time></trkpt><trkpt lat="45.802296087921526" lon="9.084307002022761"><ele>212.33333333333334</ele><time>2026-04-11T17:41:52Z</time></trkpt><trkpt lat="45.80222286343791" lon="9.084391186297799"><ele>212.66666666666669</ele><time>2026-04-11T17:42:01Z</time></trkpt><trkpt lat="45.80217442462942" lon="9.084537490439352"><ele>213.0</ele><time>2026-04-11T17:42:03Z</time></trkpt><trkpt lat="45.80215747325713" lon="9.084639537382392"><ele>213.33333333333331</ele><time>2026-04-11T17:42:04Z</time></trkpt><trkpt lat="45.80215242355092" lon="9.084751999300106"><ele>213.66666666666666</ele><time>2026-04-11T17:42:05Z</time></trkpt><trkpt lat="45.80214880440484" lon="9.084882492141778"><ele>214.0</ele><time>2026-04-11T17:42:06Z</time></trkpt><trkpt lat="45.80214871667101" lon="9.085013321493248"><ele>214.39999999999998</ele><time>2026-04-11T17:42:07Z</time></trkpt><trkpt lat="45.802150968187" lon="9.085157006763678"><ele>214.79999999999998</ele><time>2026-04-11T17:42:08Z</time></trkpt><trkpt lat="45.802153318068264" lon="9.085300493999618"><ele>215.20000000000002</ele><time>2026-04-11T17:42:09Z</time></trkpt><trkpt lat="45.80215632967757" lon="9.08543544381465"><ele>215.60000000000002</ele><time>2026-04-11T17:42:10Z</time></trkpt><trkpt lat="45.80216068887729" lon="9.085570160089041"><ele>216.0</ele><time>2026-04-11T17:42:11Z</time></trkpt><trkpt lat="45.80216546480332" lon="9.085708544592356"><ele>216.5</ele><time>2026-04-11T17:42:12Z</time></trkpt><trkpt lat="45.802169413910974" lon="9.085840858710396"><ele>217.0</ele><time>2026-04-11T17:42:13Z</time></trkpt><trkpt lat="45.80217154277117" lon="9.085962122962234"><ele>217.5</ele><time>2026-04-11T17:42:14Z</time></trkpt><trkpt lat="45.80217196885101" lon="9.08607926689126"><ele>218.0</ele><time>2026-04-11T17:42:15Z</time></trkpt><trkpt lat="45.80217937077769" lon="9.086205040461149"><ele>218.5</ele><time>2026-04-11T17:42:16Z</time></trkpt><trkpt lat="45.802188396633944" lon="9.086334120506232"><ele>219.0</ele><time>2026-04-11T17:42:17Z</time></trkpt><trkpt lat="45.80219321429571" lon="9.086464565369809"><ele>219.0</ele><time>2026-04-11T17:42:18Z</time></trkpt><trkpt lat="45.80220045473596" lon="9.086591325745559"><ele>218.99999999999997</ele><time>2026-04-11T17:42:19Z</time></trkpt><trkpt lat="45.80220250659146" lon="9.086721216469579"><ele>218.99999999999997</ele><time>2026-04-11T17:42:20Z</time></trkpt><trkpt lat="45.802188681987175" lon="9.086842902486131"><ele>219.0</ele><time>2026-04-11T17:42:21Z</time></trkpt><trkpt lat="45.802153520800935" lon="9.086972337302083"><ele>219.0</ele><time>2026-04-11T17:42:22Z</time></trkpt><trkpt lat="45.80209955697914" lon="9.087100047956445"><ele>219.0</ele><time>2026-04-11T17:42:23Z</time></trkpt><trkpt lat="45.80203557805326" lon="9.087227840706394"><ele>219.0</ele><time>2026-04-11T17:42:24Z</time></trkpt><trkpt lat="45.801965114378596" lon="9.087361969979549"><ele>219.0</ele><time>2026-04-11T17:42:25Z</time></trkpt><trkpt lat="45.80189341275542" lon="9.087508840640082"><ele>219.0</ele><time>2026-04-11T17:42:26Z</time></trkpt><trkpt lat="45.80181773902666" lon="9.087662546845308"><ele>219.5</ele><time>2026-04-11T17:42:27Z</time></trkpt><trkpt lat="45.801739290062265" lon="9.087822291153383"><ele>220.0</ele><time>2026-04-11T17:42:28Z</time></trkpt><trkpt lat="45.80166319397822" lon="9.087971809810462"><ele>220.5</ele><time>2026-04-11T17:42:29Z</time></trkpt><trkpt lat="45.80159115038603" lon="9.088110096554585"><ele>221.0</ele><time>2026-04-11T17:42:30Z</time></trkpt><trkpt lat="45.80151713011773" lon="9.088247964340168"><ele>220.8</ele><time>2026-04-11T17:42:31Z</time></trkpt><trkpt lat="45.801447167799346" lon="9.088376252488812"><ele>220.60000000000002</ele><time>2026-04-11T17:42:32Z</time></trkpt><trkpt lat="45.801382227628025" lon="9.088498969709086"><ele>220.4</ele><time>2026-04-11T17:42:33Z</time></trkpt><trkpt lat="45.80132213993999" lon="9.088615789308676"><ele>220.2</ele><time>2026-04-11T17:42:34Z</time></trkpt><trkpt lat="45.80126616509527" lon="9.088744223569421"><ele>220.0</ele><time>2026-04-11T17:42:35Z</time></trkpt><trkpt lat="45.801213264873226" lon="9.088872268389348"><ele>220.0</ele><time>2026-04-11T17:42:36Z</time></trkpt><trkpt lat="45.801176829292245" lon="9.089006753561451"><ele>220.0</ele><time>2026-04-11T17:42:37Z</time></trkpt><trkpt lat="45.80116573301674" lon="9.089166204371022"><ele>220.0</ele><time>2026-04-11T17:42:38Z</time></trkpt><trkpt lat="45.80117543290689" lon="9.089331100914157"><ele>220.0</ele><time>2026-04-11T17:42:39Z</time></trkpt><trkpt lat="45.801201537974414" lon="9.089481960421368"><ele>220.0</ele><time>2026-04-11T17:42:40Z</time></trkpt><trkpt lat="45.80123825988918" lon="9.089627751048079"><ele>219.8</ele><time>2026-04-11T17:42:41Z</time></trkpt><trkpt lat="45.80128062303776" lon="9.089772931535984"><ele>219.6</ele><time>2026-04-11T17:42:42Z</time></trkpt><trkpt lat="45.80132236517966" lon="9.089909064676057"><ele>219.39999999999998</ele><time>2026-04-11T17:42:43Z</time></trkpt><trkpt lat="45.80136087923553" lon="9.090044688235965"><ele>219.2</ele><time>2026-04-11T17:42:44Z</time></trkpt><trkpt lat="45.80140367840975" lon="9.090194928431723"><ele>219.0</ele><time>2026-04-11T17:42:45Z</time></trkpt><trkpt lat="45.801447424680745" lon="9.0903496303564"><ele>219.0</ele><time>2026-04-11T17:42:46Z</time></trkpt><trkpt lat="45.8014947586621" lon="9.090526336019874"><ele>219.0</ele><time>2026-04-11T17:42:47Z</time></trkpt><trkpt lat="45.801551541039494" lon="9.090712892459582"><ele>219.0</ele><time>2026-04-11T17:42:48Z</time></trkpt><trkpt lat="45.80162562334997" lon="9.090896518531968"><ele>219.0</ele><time>2026-04-11T17:42:49Z</time></trkpt><trkpt lat="45.8016995729275" lon="9.091073998063173"><ele>218.75</ele><time>2026-04-11T17:42:50Z</time></trkpt><trkpt lat="45.80177314300906" lon="9.091262693214293"><ele>218.5</ele><time>2026-04-11T17:42:51Z</time></trkpt><trkpt lat="45.80184735768286" lon="9.091449135892999"><ele>218.25</ele><time>2026-04-11T17:42:52Z</time></trkpt><trkpt lat="45.80193318097245" lon="9.091623541564838"><ele>218.0</ele><time>2026-04-11T17:42:53Z</time></trkpt><trkpt lat="45.802014060856" lon="9.091810641790982"><ele>217.33333333333334</ele><time>2026-04-11T17:42:54Z</time></trkpt><trkpt lat="45.80208694384511" lon="9.092004267872626"><ele>216.66666666666669</ele><time>2026-04-11T17:42:55Z</time></trkpt><trkpt lat="45.80217951942573" lon="9.092199848110265"><ele>216.0</ele><time>2026-04-11T17:42:56Z</time></trkpt><trkpt lat="45.80227450310005" lon="9.092394392744788"><ele>216.33333333333331</ele><time>2026-04-11T17:42:57Z</time></trkpt><trkpt lat="45.80236873141247" lon="9.092591968783218"><ele>216.66666666666666</ele><time>2026-04-11T17:42:58Z</time></trkpt><trkpt lat="45.802467216703185" lon="9.092796867706213"><ele>217.0</ele><time>2026-04-11T17:42:59Z</time></trkpt><trkpt lat="45.80256436182176" lon="9.093012001466372"><ele>217.0</ele><time>2026-04-11T17:43:00Z</time></trkpt><trkpt lat="45.80266088159642" lon="9.09322895633123"><ele>217.0</ele><time>2026-04-11T17:43:01Z</time></trkpt><trkpt lat="45.80275503985424" lon="9.0934346953527"><ele>217.0</ele><time>2026-04-11T17:43:02Z</time></trkpt><trkpt lat="45.802841433017775" lon="9.093616356783953"><ele>220.5</ele><time>2026-04-11T17:43:03Z</time></trkpt><trkpt lat="45.80292036279109" lon="9.093780391800765"><ele>224.0</ele><time>2026-04-11T17:43:04Z</time></trkpt><trkpt lat="45.80299784154956" lon="9.093938439185978"><ele>227.5</ele><time>2026-04-11T17:43:05Z</time></trkpt><trkpt lat="45.80307794421323" lon="9.094093724406363"><ele>231.0</ele><time>2026-04-11T17:43:06Z</time></trkpt><trkpt lat="45.80315395304554" lon="9.094243520541548"><ele>231.4</ele><time>2026-04-11T17:43:07Z</time></trkpt><trkpt lat="45.8032208715807" lon="9.094377717683269"><ele>231.8</ele><time>2026-04-11T17:43:08Z</time></trkpt><trkpt lat="45.80328557313131" lon="9.094493571698775"><ele>232.20000000000002</ele><time>2026-04-11T17:43:09Z</time></trkpt><trkpt lat="45.80335440772505" lon="9.094614804956294"><ele>232.60000000000002</ele><time>2026-04-11T17:43:10Z</time></trkpt><trkpt lat="45.80342267411393" lon="9.094728017070201"><ele>233.0</ele><time>2026-04-11T17:43:11Z</time></trkpt><trkpt lat="45.80348146888425" lon="9.09482951373542"><ele>231.83333333333334</ele><time>2026-04-11T17:43:12Z</time></trkpt><trkpt lat="45.80352626166334" lon="9.094910304084916"><ele>230.66666666666669</ele><time>2026-04-11T17:43:13Z</time></trkpt><trkpt lat="45.80358192200373" lon="9.095027096813302"><ele>229.5</ele><time>2026-04-11T17:43:15Z</time></trkpt><trkpt lat="45.803615114047155" lon="9.095108209850517"><ele>228.33333333333331</ele><time>2026-04-11T17:43:19Z</time></trkpt><trkpt lat="45.80366213761929" lon="9.09520011488668"><ele>227.16666666666666</ele><time>2026-04-11T17:43:24Z</time></trkpt><trkpt lat="45.80370513661382" lon="9.095290173164871"><ele>226.0</ele><time>2026-04-11T17:43:25Z</time></trkpt><trkpt lat="45.803754842129464" lon="9.095409020976428"><ele>225.5</ele><time>2026-04-11T17:43:26Z</time></trkpt><trkpt lat="45.80380272492103" lon="9.095525901425336"><ele>225.0</ele><time>2026-04-11T17:43:27Z</time></trkpt><trkpt lat="45.803860063583826" lon="9.095669289923576"><ele>224.5</ele><time>2026-04-11T17:43:28Z</time></trkpt><trkpt lat="45.80392206077945" lon="9.095823433427405"><ele>224.0</ele><time>2026-04-11T17:43:29Z</time></trkpt><trkpt lat="45.80398822604602" lon="9.095992748669786"><ele>223.0</ele><time>2026-04-11T17:43:30Z</time></trkpt><trkpt lat="45.80405990370506" lon="9.096174276909423"><ele>222.0</ele><time>2026-04-11T17:43:31Z</time></trkpt><trkpt lat="45.80413769838026" lon="9.096357447940758"><ele>221.0</ele><time>2026-04-11T17:43:32Z</time></trkpt><trkpt lat="45.80421827796039" lon="9.096553536511854"><ele>222.0</ele><time>2026-04-11T17:43:33Z</time></trkpt><trkpt lat="45.804296877089875" lon="9.096757934074413"><ele>223.0</ele><time>2026-04-11T17:43:34Z</time></trkpt><trkpt lat="45.80437338883289" lon="9.096962568864383"><ele>224.0</ele><time>2026-04-11T17:43:35Z</time></trkpt><trkpt lat="45.804443158252205" lon="9.097175792480382"><ele>224.25</ele><time>2026-04-11T17:43:36Z</time></trkpt><trkpt lat="45.80449986943127" lon="9.097383657290349"><ele>224.5</ele><time>2026-04-11T17:43:37Z</time></trkpt><trkpt lat="45.804548068919324" lon="9.097578865818859"><ele>224.75</ele><time>2026-04-11T17:43:38Z</time></trkpt><trkpt lat="45.804588183388574" lon="9.097769492802447"><ele>225.0</ele><time>2026-04-11T17:43:39Z</time></trkpt><trkpt lat="45.8046257539438" lon="9.09797688209251"><ele>225.5</ele><time>2026-04-11T17:43:40Z</time></trkpt><trkpt lat="45.80466764683995" lon="9.09818555040942"><ele>226.0</ele><time>2026-04-11T17:43:41Z</time></trkpt><trkpt lat="45.80470240816522" lon="9.098385489227107"><ele>226.5</ele><time>2026-04-11T17:43:42Z</time></trkpt><trkpt lat="45.80473118261442" lon="9.09855366890836"><ele>227.0</ele><time>2026-04-11T17:43:43Z</time></trkpt><trkpt lat="45.80475677796539" lon="9.098684586656125"><ele>227.39999999999998</ele><time>2026-04-11T17:43:44Z</time></trkpt><trkpt lat="45.80476440987784" lon="9.09878227831024"><ele>227.79999999999998</ele><time>2026-04-11T17:43:45Z</time></trkpt><trkpt lat="45.80472730631126" lon="9.098877586595538"><ele>228.2</ele><time>2026-04-11T17:43:46Z</time></trkpt><trkpt lat="45.80465632693591" lon="9.098949417607546"><ele>228.6</ele><time>2026-04-11T17:43:47Z</time></trkpt><trkpt lat="45.804555646323244" lon="9.098987454086906"><ele>229.0</ele><time>2026-04-11T17:43:48Z</time></trkpt><trkpt lat="45.804445631243325" lon="9.099045941125366"><ele>229.25</ele><time>2026-04-11T17:43:49Z</time></trkpt><trkpt lat="45.804331442216416" lon="9.099128795332286"><ele>229.5</ele><time>2026-04-11T17:43:50Z</time></trkpt><trkpt lat="45.8042069015987" lon="9.099207690967798"><ele>229.75</ele><time>2026-04-11T17:43:51Z</time></trkpt><trkpt lat="45.8040814380731" lon="9.099286601121653"><ele>230.0</ele><time>2026-04-11T17:43:52Z</time></trkpt><trkpt lat="45.80397286136946" lon="9.099382205921469"><ele>232.0</ele><time>2026-04-11T17:43:53Z</time></trkpt><trkpt lat="45.803895046074665" lon="9.099515285318736"><ele>234.0</ele><time>2026-04-11T17:43:54Z</time></trkpt><trkpt lat="45.803848946171705" lon="9.099689541745972"><ele>236.0</ele><time>2026-04-11T17:43:55Z</time></trkpt><trkpt lat="45.803849303293475" lon="9.099876360419007"><ele>238.0</ele><time>2026-04-11T17:43:56Z</time></trkpt><trkpt lat="45.80389401117667" lon="9.100073695909419"><ele>238.0</ele><time>2026-04-11T17:43:57Z</time></trkpt><trkpt lat="45.80397950570826" lon="9.100251049476434"><ele>238.0</ele><time>2026-04-11T17:43:58Z</time></trkpt><trkpt lat="45.804079851638" lon="9.100430316785591"><ele>238.0</ele><time>2026-04-11T17:43:59Z</time></trkpt><trkpt lat="45.80417805602163" lon="9.100613662215196"><ele>238.75</ele><time>2026-04-11T17:44:00Z</time></trkpt><trkpt lat="45.80426859691025" lon="9.10079017531883"><ele>239.5</ele><time>2026-04-11T17:44:01Z</time></trkpt><trkpt lat="45.804355125423676" lon="9.10095203576187"><ele>240.25</ele><time>2026-04-11T17:44:02Z</time></trkpt><trkpt lat="45.80441676264809" lon="9.101106978690439"><ele>241.0</ele><time>2026-04-11T17:44:03Z</time></trkpt><trkpt lat="45.804433271246545" lon="9.101253858663528"><ele>241.0</ele><time>2026-04-11T17:44:04Z</time></trkpt><trkpt lat="45.804394516956684" lon="9.10141884127052"><ele>241.0</ele><time>2026-04-11T17:44:05Z</time></trkpt><trkpt lat="45.80431073479894" lon="9.101568778833899"><ele>241.0</ele><time>2026-04-11T17:44:06Z</time></trkpt><trkpt lat="45.80419494674579" lon="9.101692693571723"><ele>241.0</ele><time>2026-04-11T17:44:07Z</time></trkpt><trkpt lat="45.80406586235038" lon="9.101816111635417"><ele>245.33333333333331</ele><time>2026-04-11T17:44:08Z</time></trkpt><trkpt lat="45.80394322687897" lon="9.101967760039184"><ele>249.66666666666669</ele><time>2026-04-11T17:44:09Z</time></trkpt><trkpt lat="45.80382051350017" lon="9.102134880949876"><ele>254.0</ele><time>2026-04-11T17:44:10Z</time></trkpt><trkpt lat="45.803701372392744" lon="9.10229091469227"><ele>255.5</ele><time>2026-04-11T17:44:11Z</time></trkpt><trkpt lat="45.80359324403407" lon="9.102428696526758"><ele>257.0</ele><time>2026-04-11T17:44:12Z</time></trkpt><trkpt lat="45.803505722704436" lon="9.102534251675563"><ele>258.5</ele><time>2026-04-11T17:44:13Z</time></trkpt><trkpt lat="45.80342528647597" lon="9.102619526534813"><ele>260.0</ele><time>2026-04-11T17:44:14Z</time></trkpt><trkpt lat="45.803348675903585" lon="9.102694733289182"><ele>260.0</ele><time>2026-04-11T17:44:15Z</time></trkpt><trkpt lat="45.80327021071205" lon="9.102767165101074"><ele>260.0</ele><time>2026-04-11T17:44:16Z</time></trkpt><trkpt lat="45.80318232448944" lon="9.10283999389228"><ele>260.0</ele><time>2026-04-11T17:44:17Z</time></trkpt><trkpt lat="45.80307122508498" lon="9.102924965185965"><ele>260.0</ele><time>2026-04-11T17:44:18Z</time></trkpt><trkpt lat="45.8029544745949" lon="9.102998164675489"><ele>260.0</ele><time>2026-04-11T17:44:19Z</time></trkpt><trkpt lat="45.8028463135736" lon="9.1030287688833"><ele>260.0</ele><time>2026-04-11T17:44:20Z</time></trkpt><trkpt lat="45.80273093315352" lon="9.103068643247052"><ele>260.0</ele><time>2026-04-11T17:44:21Z</time></trkpt><trkpt lat="45.80260512947855" lon="9.103118284920017"><ele>260.0</ele><time>2026-04-11T17:44:22Z</time></trkpt><trkpt lat="45.80245517846186" lon="9.103143330168376"><ele>260.0</ele><time>2026-04-11T17:44:23Z</time></trkpt><trkpt lat="45.80230040499493" lon="9.103160125443688"><ele>258.6666666666667</ele><time>2026-04-11T17:44:24Z</time></trkpt><trkpt lat="45.802136238099514" lon="9.103180100115567"><ele>257.3333333333333</ele><time>2026-04-11T17:44:25Z</time></trkpt><trkpt lat="45.80197574620317" lon="9.103197969385322"><ele>256.0</ele><time>2026-04-11T17:44:26Z</time></trkpt><trkpt lat="45.80183335646354" lon="9.103222504575008"><ele>255.8</ele><time>2026-04-11T17:44:27Z</time></trkpt><trkpt lat="45.801723382183944" lon="9.103240205602154"><ele>255.60000000000002</ele><time>2026-04-11T17:44:28Z</time></trkpt><trkpt lat="45.801632310858125" lon="9.103252334150602"><ele>255.4</ele><time>2026-04-11T17:44:29Z</time></trkpt><trkpt lat="45.80153879329034" lon="9.103272123283078"><ele>255.2</ele><time>2026-04-11T17:44:30Z</time></trkpt><trkpt lat="45.801437520796284" lon="9.103312854549793"><ele>255.0</ele><time>2026-04-11T17:44:31Z</time></trkpt><trkpt lat="45.80136745059993" lon="9.103371914536734"><ele>257.6666666666667</ele><time>2026-04-11T17:44:32Z</time></trkpt><trkpt lat="45.801332428808294" lon="9.10346026151191"><ele>260.3333333333333</ele><time>2026-04-11T17:44:33Z</time></trkpt><trkpt lat="45.801338091121195" lon="9.103574502300651"><ele>263.0</ele><time>2026-04-11T17:44:34Z</time></trkpt><trkpt lat="45.80138434021386" lon="9.10369455086965"><ele>265.66666666666663</ele><time>2026-04-11T17:44:35Z</time></trkpt><trkpt lat="45.80145390210583" lon="9.103785009629066"><ele>268.3333333333333</ele><time>2026-04-11T17:44:36Z</time></trkpt><trkpt lat="45.80155008077872" lon="9.103807328394911"><ele>271.0</ele><time>2026-04-11T17:44:37Z</time></trkpt><trkpt lat="45.80165669730813" lon="9.103808539551046"><ele>271.0</ele><time>2026-04-11T17:44:38Z</time></trkpt><trkpt lat="45.80177449112443" lon="9.103780763949525"><ele>271.0</ele><time>2026-04-11T17:44:39Z</time></trkpt><trkpt lat="45.801892502534926" lon="9.103770946500363"><ele>271.0</ele><time>2026-04-11T17:44:40Z</time></trkpt><trkpt lat="45.80201783761449" lon="9.103746667605341"><ele>271.0</ele><time>2026-04-11T17:44:41Z</time></trkpt><trkpt lat="45.80213610003115" lon="9.103729319053372"><ele>271.5</ele><time>2026-04-11T17:44:42Z</time></trkpt><trkpt lat="45.80222812681805" lon="9.103718290558165"><ele>272.0</ele><time>2026-04-11T17:44:43Z</time></trkpt><trkpt lat="45.802308070196176" lon="9.103713015846454"><ele>272.5</ele><time>2026-04-11T17:44:44Z</time></trkpt><trkpt lat="45.80239293563201" lon="9.10369543711659"><ele>273.0</ele><time>2026-04-11T17:44:45Z</time></trkpt><trkpt lat="45.80249006392043" lon="9.10368109866466"><ele>273.5</ele><time>2026-04-11T17:44:46Z</time></trkpt><trkpt lat="45.80257307283177" lon="9.103666489881219"><ele>274.0</ele><time>2026-04-11T17:44:47Z</time></trkpt><trkpt lat="45.80264371513564" lon="9.103648661713388"><ele>274.66666666666663</ele><time>2026-04-11T17:44:48Z</time></trkpt><trkpt lat="45.80272362510374" lon="9.103675721864747"><ele>275.3333333333333</ele><time>2026-04-11T17:44:49Z</time></trkpt><trkpt lat="45.80284131517927" lon="9.103735688615087"><ele>276.0</ele><time>2026-04-11T17:44:51Z</time></trkpt><trkpt lat="45.802894354558184" lon="9.103815311370829"><ele>276.6666666666667</ele><time>2026-04-11T17:44:52Z</time></trkpt><trkpt lat="45.802930310396945" lon="9.103917356140105"><ele>277.33333333333337</ele><time>2026-04-11T17:44:53Z</time></trkpt><trkpt lat="45.80294466214599" lon="9.104026081912302"><ele>278.0</ele><time>2026-04-11T17:44:54Z</time></trkpt><trkpt lat="45.802932726541904" lon="9.104143453581878"><ele>280.2</ele><time>2026-04-11T17:44:55Z</time></trkpt><trkpt lat="45.80289968350731" lon="9.104255651305982"><ele>282.4</ele><time>2026-04-11T17:44:56Z</time></trkpt><trkpt lat="45.80284253933832" lon="9.104344957336224"><ele>284.59999999999997</ele><time>2026-04-11T17:44:57Z</time></trkpt><trkpt lat="45.8027546825916" lon="9.104409217251334"><ele>286.8</ele><time>2026-04-11T17:44:58Z</time></trkpt><trkpt lat="45.802646834101935" lon="9.104476048921931"><ele>289.0</ele><time>2026-04-11T17:44:59Z</time></trkpt><trkpt lat="45.802530856348746" lon="9.10453960119129"><ele>289.75</ele><time>2026-04-11T17:45:00Z</time></trkpt><trkpt lat="45.80241650998056" lon="9.104611835223237"><ele>290.5</ele><time>2026-04-11T17:45:01Z</time></trkpt><trkpt lat="45.8023013126857" lon="9.104677965338702"><ele>291.25</ele><time>2026-04-11T17:45:02Z</time></trkpt><trkpt lat="45.802185244621526" lon="9.104741085441965"><ele>292.0</ele><time>2026-04-11T17:45:03Z</time></trkpt><trkpt lat="45.802073314046886" lon="9.104793756407208"><ele>292.0</ele><time>2026-04-11T17:45:04Z</time></trkpt><trkpt lat="45.80195884420604" lon="9.104839587418539"><ele>292.0</ele><time>2026-04-11T17:45:05Z</time></trkpt><trkpt lat="45.801847427330834" lon="9.104879943834552"><ele>292.0</ele><time>2026-04-11T17:45:06Z</time></trkpt><trkpt lat="45.80173216444342" lon="9.104911099805014"><ele>292.0</ele><time>2026-04-11T17:45:07Z</time></trkpt><trkpt lat="45.80161742789065" lon="9.104932890204509"><ele>292.2</ele><time>2026-04-11T17:45:08Z</time></trkpt><trkpt lat="45.80150640403266" lon="9.104945809631584"><ele>292.4</ele><time>2026-04-11T17:45:09Z</time></trkpt><trkpt lat="45.80140046781683" lon="9.104964136182598"><ele>292.6</ele><time>2026-04-11T17:45:10Z</time></trkpt><trkpt lat="45.80130258948359" lon="9.104993989532558"><ele>292.8</ele><time>2026-04-11T17:45:11Z</time></trkpt><trkpt lat="45.80120329727376" lon="9.105043891720568"><ele>293.0</ele><time>2026-04-11T17:45:12Z</time></trkpt><trkpt lat="45.801096694434996" lon="9.105116098977522"><ele>295.5</ele><time>2026-04-11T17:45:13Z</time></trkpt><trkpt lat="45.80098571718657" lon="9.105212471814609"><ele>298.0</ele><time>2026-04-11T17:45:14Z</time></trkpt><trkpt lat="45.800853902077726" lon="9.105319179460011"><ele>300.5</ele><time>2026-04-11T17:45:15Z</time></trkpt><trkpt lat="45.80071423955891" lon="9.105430854210098"><ele>303.0</ele><time>2026-04-11T17:45:16Z</time></trkpt><trkpt lat="45.800573677538694" lon="9.10553623317374"><ele>303.0</ele><time>2026-04-11T17:45:17Z</time></trkpt><trkpt lat="45.800433158781274" lon="9.105630337531306"><ele>303.0</ele><time>2026-04-11T17:45:18Z</time></trkpt><trkpt lat="45.80030553599058" lon="9.10571588586595"><ele>303.0</ele><time>2026-04-11T17:45:19Z</time></trkpt><trkpt lat="45.80018598260338" lon="9.105791276523037"><ele>303.0</ele><time>2026-04-11T17:45:20Z</time></trkpt><trkpt lat="45.80007528476249" lon="9.105862677875225"><ele>305.0</ele><time>2026-04-11T17:45:21Z</time></trkpt><trkpt lat="45.799957704905346" lon="9.10593928663943"><ele>307.0</ele><time>2026-04-11T17:45:22Z</time></trkpt><trkpt lat="45.79984470686164" lon="9.106012279097"><ele>309.0</ele><time>2026-04-11T17:45:23Z</time></trkpt><trkpt lat="45.79973035030284" lon="9.106090503015848"><ele>311.0</ele><time>2026-04-11T17:45:24Z</time></trkpt><trkpt lat="45.79961076452409" lon="9.10617169793946"><ele>311.0</ele><time>2026-04-11T17:45:25Z</time></trkpt><trkpt lat="45.79949494066602" lon="9.106264971663258"><ele>311.0</ele><time>2026-04-11T17:45:26Z</time></trkpt><trkpt lat="45.79938999779777" lon="9.10638891257164"><ele>311.0</ele><time>2026-04-11T17:45:27Z</time></trkpt><trkpt lat="45.79930310073764" lon="9.106535075930195"><ele>311.0</ele><time>2026-04-11T17:45:28Z</time></trkpt><trkpt lat="45.79924457233087" lon="9.106699319039153"><ele>312.40000000000003</ele><time>2026-04-11T17:45:29Z</time></trkpt><trkpt lat="45.799213472951905" lon="9.106857428100797"><ele>313.8</ele><time>2026-04-11T17:45:30Z</time></trkpt><trkpt lat="45.79920385012822" lon="9.107026069182185"><ele>315.20000000000005</ele><time>2026-04-11T17:45:31Z</time></trkpt><trkpt lat="45.79920411262214" lon="9.107184010831395"><ele>316.6</ele><time>2026-04-11T17:45:32Z</time></trkpt><trkpt lat="45.79920541619159" lon="9.107330296992448"><ele>318.0</ele><time>2026-04-11T17:45:33Z</time></trkpt><trkpt lat="45.79920921936758" lon="9.10748791148657"><ele>319.25</ele><time>2026-04-11T17:45:34Z</time></trkpt><trkpt lat="45.79921090337013" lon="9.107665004760818"><ele>320.5</ele><time>2026-04-11T17:45:35Z</time></trkpt><trkpt lat="45.79921562545039" lon="9.107860582037006"><ele>321.75</ele><time>2026-04-11T17:45:36Z</time></trkpt><trkpt lat="45.799217561834496" lon="9.108068855362475"><ele>323.0</ele><time>2026-04-11T17:45:37Z</time></trkpt><trkpt lat="45.799214942652284" lon="9.108286571406925"><ele>324.33333333333337</ele><time>2026-04-11T17:45:38Z</time></trkpt><trkpt lat="45.79921043428555" lon="9.108499468724226"><ele>325.6666666666667</ele><time>2026-04-11T17:45:39Z</time></trkpt><trkpt lat="45.79920640165468" lon="9.10871558377874"><ele>327.0</ele><time>2026-04-11T17:45:40Z</time></trkpt><trkpt lat="45.799200631723316" lon="9.108936689810804"><ele>327.6666666666667</ele><time>2026-04-11T17:45:41Z</time></trkpt><trkpt lat="45.799195234688256" lon="9.10915826451871"><ele>328.33333333333337</ele><time>2026-04-11T17:45:42Z</time></trkpt><trkpt lat="45.79919355914915" lon="9.109369384746023"><ele>329.0</ele><time>2026-04-11T17:45:43Z</time></trkpt><trkpt lat="45.79919041178446" lon="9.109586152264223"><ele>329.0</ele><time>2026-04-11T17:45:44Z</time></trkpt><trkpt lat="45.7991848899446" lon="9.109807452544985"><ele>329.0</ele><time>2026-04-11T17:45:45Z</time></trkpt><trkpt lat="45.79917896057728" lon="9.110033441749277"><ele>329.0</ele><time>2026-04-11T17:45:46Z</time></trkpt><trkpt lat="45.79916970646982" lon="9.110262523269169"><ele>329.6666666666667</ele><time>2026-04-11T17:45:47Z</time></trkpt><trkpt lat="45.7991504461623" lon="9.110492495019145"><ele>330.3333333333333</ele><time>2026-04-11T17:45:48Z</time></trkpt><trkpt lat="45.79910993355732" lon="9.110716736136764"><ele>331.0</ele><time>2026-04-11T17:45:49Z</time></trkpt><trkpt lat="45.7990446977713" lon="9.110930984751542"><ele>332.0</ele><time>2026-04-11T17:45:50Z</time></trkpt><trkpt lat="45.79896282301281" lon="9.111137262163027"><ele>333.0</ele><time>2026-04-11T17:45:51Z</time></trkpt><trkpt lat="45.79886486676419" lon="9.11133381478755"><ele>334.0</ele><time>2026-04-11T17:45:52Z</time></trkpt><trkpt lat="45.79876317829657" lon="9.111531305409962"><ele>335.0</ele><time>2026-04-11T17:45:53Z</time></trkpt><trkpt lat="45.798664694946" lon="9.111734143626336"><ele>336.0</ele><time>2026-04-11T17:45:54Z</time></trkpt><trkpt lat="45.79856885214002" lon="9.111943701192214"><ele>337.0</ele><time>2026-04-11T17:45:55Z</time></trkpt><trkpt lat="45.79847196614333" lon="9.11215291829082"><ele>337.66666666666663</ele><time>2026-04-11T17:45:56Z</time></trkpt><trkpt lat="45.79837378230954" lon="9.112359630825944"><ele>338.3333333333333</ele><time>2026-04-11T17:45:57Z</time></trkpt><trkpt lat="45.79827513964659" lon="9.11256670874175"><ele>339.0</ele><time>2026-04-11T17:45:58Z</time></trkpt><trkpt lat="45.798175700103386" lon="9.112769726514488"><ele>339.0</ele><time>2026-04-11T17:45:59Z</time></trkpt><trkpt lat="45.79808097411676" lon="9.112972711542584"><ele>339.0</ele><time>2026-04-11T17:46:00Z</time></trkpt><trkpt lat="45.797990638936135" lon="9.113163345194215"><ele>339.0</ele><time>2026-04-11T17:46:01Z</time></trkpt><trkpt lat="45.797903287279524" lon="9.113344843314044"><ele>338.75</ele><time>2026-04-11T17:46:02Z</time></trkpt><trkpt lat="45.79781961237828" lon="9.113520334674233"><ele>338.5</ele><time>2026-04-11T17:46:03Z</time></trkpt><trkpt lat="45.797741001176995" lon="9.113688770310954"><ele>338.25</ele><time>2026-04-11T17:46:04Z</time></trkpt><trkpt lat="45.797675028918135" lon="9.113840327569322"><ele>338.0</ele><time>2026-04-11T17:46:05Z</time></trkpt><trkpt lat="45.797620320151786" lon="9.113987168831752"><ele>338.2</ele><time>2026-04-11T17:46:06Z</time></trkpt><trkpt lat="45.79756773463961" lon="9.11412595694084"><ele>338.4</ele><time>2026-04-11T17:46:07Z</time></trkpt><trkpt lat="45.79751019905612" lon="9.114254769545237"><ele>338.59999999999997</ele><time>2026-04-11T17:46:08Z</time></trkpt><trkpt lat="45.79745286507788" lon="9.114377764261292"><ele>338.79999999999995</ele><time>2026-04-11T17:46:09Z</time></trkpt><trkpt lat="45.79739570832793" lon="9.114486817955815"><ele>339.0</ele><time>2026-04-11T17:46:10Z</time></trkpt><trkpt lat="45.797346294377746" lon="9.114570909195846"><ele>339.0</ele><time>2026-04-11T17:46:11Z</time></trkpt><trkpt lat="45.79728144785065" lon="9.11469310983249"><ele>339.0</ele><time>2026-04-11T17:46:13Z</time></trkpt><trkpt lat="45.79722654551758" lon="9.11477977696939"><ele>339.0</ele><time>2026-04-11T17:46:17Z</time></trkpt><trkpt lat="45.79711961083791" lon="9.114814670587638"><ele>339.0</ele><time>2026-04-11T17:46:19Z</time></trkpt><trkpt lat="45.797047525598074" lon="9.114848599524713"><ele>339.0</ele><time>2026-04-11T17:46:22Z</time></trkpt><trkpt lat="45.796997626816534" lon="9.114980407428417"><ele>339.1666666666667</ele><time>2026-04-11T17:46:25Z</time></trkpt><trkpt lat="45.79700008011449" lon="9.115119923594518"><ele>339.3333333333333</ele><time>2026-04-11T17:46:27Z</time></trkpt><trkpt lat="45.796992398876824" lon="9.11524228419673"><ele>339.5</ele><time>2026-04-11T17:46:29Z</time></trkpt><trkpt lat="45.79698669631409" lon="9.115339864672448"><ele>339.66666666666663</ele><time>2026-04-11T17:46:33Z</time></trkpt><trkpt lat="45.79698355827181" lon="9.115433009761277"><ele>339.8333333333333</ele><time>2026-04-11T17:46:39Z</time></trkpt><trkpt lat="45.79697869088877" lon="9.11553117725905"><ele>340.0</ele><time>2026-04-11T17:46:44Z</time></trkpt><trkpt lat="45.79697741812351" lon="9.115676509871065"><ele>339.8</ele><time>2026-04-11T17:46:48Z</time></trkpt><trkpt lat="45.79697794192348" lon="9.11580930797301"><ele>339.6</ele><time>2026-04-11T17:46:50Z</time></trkpt><trkpt lat="45.79696994182301" lon="9.115975191308197"><ele>339.4</ele><time>2026-04-11T17:46:52Z</time></trkpt><trkpt lat="45.796968373358624" lon="9.116082179425987"><ele>339.2</ele><time>2026-04-11T17:46:53Z</time></trkpt><trkpt lat="45.796965413795554" lon="9.116184053660369"><ele>339.0</ele><time>2026-04-11T17:46:54Z</time></trkpt><trkpt lat="45.79695744008312" lon="9.116361493016345"><ele>339.0</ele><time>2026-04-11T17:46:56Z</time></trkpt><trkpt lat="45.79695670084433" lon="9.116475132478058"><ele>339.0</ele><time>2026-04-11T17:46:57Z</time></trkpt><trkpt lat="45.79696087406609" lon="9.116609613034969"><ele>339.0</ele><time>2026-04-11T17:46:58Z</time></trkpt><trkpt lat="45.79696048821308" lon="9.11675610633152"><ele>339.0</ele><time>2026-04-11T17:46:59Z</time></trkpt><trkpt lat="45.79696265160023" lon="9.116901077670528"><ele>339.0</ele><time>2026-04-11T17:47:00Z</time></trkpt><trkpt lat="45.79696781853053" lon="9.11706226320133"><ele>339.0</ele><time>2026-04-11T17:47:01Z</time></trkpt><trkpt lat="45.7969702497649" lon="9.117232576242657"><ele>339.0</ele><time>2026-04-11T17:47:02Z</time></trkpt><trkpt lat="45.79697473176912" lon="9.117408785337954"><ele>339.0</ele><time>2026-04-11T17:47:03Z</time></trkpt><trkpt lat="45.79698335181813" lon="9.11758447838093"><ele>339.0</ele><time>2026-04-11T17:47:04Z</time></trkpt><trkpt lat="45.7969923717291" lon="9.117761787929272"><ele>339.0</ele><time>2026-04-11T17:47:05Z</time></trkpt><trkpt lat="45.7970007820224" lon="9.117947516906586"><ele>339.0</ele><time>2026-04-11T17:47:06Z</time></trkpt><trkpt lat="45.797008646680055" lon="9.118136912694055"><ele>339.0</ele><time>2026-04-11T17:47:07Z</time></trkpt><trkpt lat="45.797015955063756" lon="9.118323360625421"><ele>339.0</ele><time>2026-04-11T17:47:08Z</time></trkpt><trkpt lat="45.797021522075454" lon="9.118503139705558"><ele>339.5</ele><time>2026-04-11T17:47:09Z</time></trkpt><trkpt lat="45.797028019413816" lon="9.1186759650792"><ele>340.0</ele><time>2026-04-11T17:47:10Z</time></trkpt><trkpt lat="45.797037532770794" lon="9.118854412083616"><ele>340.5</ele><time>2026-04-11T17:47:11Z</time></trkpt><trkpt lat="45.79705595819913" lon="9.11904559529267"><ele>341.0</ele><time>2026-04-11T17:47:12Z</time></trkpt><trkpt lat="45.79706791826208" lon="9.119245142417055"><ele>341.75</ele><time>2026-04-11T17:47:13Z</time></trkpt><trkpt lat="45.797078068935384" lon="9.119445380218078"><ele>342.5</ele><time>2026-04-11T17:47:14Z</time></trkpt><trkpt lat="45.797090587737756" lon="9.119645527294463"><ele>343.25</ele><time>2026-04-11T17:47:15Z</time></trkpt><trkpt lat="45.797102294102096" lon="9.1198454727614"><ele>344.0</ele><time>2026-04-11T17:47:16Z</time></trkpt><trkpt lat="45.79710830353699" lon="9.120044637207684"><ele>346.6666666666667</ele><time>2026-04-11T17:47:17Z</time></trkpt><trkpt lat="45.79712256260603" lon="9.120264400285144"><ele>349.3333333333333</ele><time>2026-04-11T17:47:18Z</time></trkpt><trkpt lat="45.79712762548635" lon="9.120495928677677"><ele>352.0</ele><time>2026-04-11T17:47:19Z</time></trkpt><trkpt lat="45.79713172249324" lon="9.120717197348297"><ele>353.20000000000005</ele><time>2026-04-11T17:47:20Z</time></trkpt><trkpt lat="45.79714439087173" lon="9.120901011320438"><ele>354.4</ele><time>2026-04-11T17:47:21Z</time></trkpt><trkpt lat="45.797153803947516" lon="9.121046059610793"><ele>355.6</ele><time>2026-04-11T17:47:22Z</time></trkpt><trkpt lat="45.7971634649413" lon="9.12118161727228"><ele>356.79999999999995</ele><time>2026-04-11T17:47:23Z</time></trkpt><trkpt lat="45.79716987161189" lon="9.121322414267102"><ele>358.0</ele><time>2026-04-11T17:47:24Z</time></trkpt><trkpt lat="45.79717272201298" lon="9.121467265359824"><ele>358.8333333333333</ele><time>2026-04-11T17:47:25Z</time></trkpt><trkpt lat="45.797168148969405" lon="9.121617226855083"><ele>359.66666666666663</ele><time>2026-04-11T17:47:26Z</time></trkpt><trkpt lat="45.79715199418384" lon="9.121762060327978"><ele>360.5</ele><time>2026-04-11T17:47:27Z</time></trkpt><trkpt lat="45.797134250176896" lon="9.121887194593292"><ele>361.3333333333333</ele><time>2026-04-11T17:47:28Z</time></trkpt><trkpt lat="45.79711144961102" lon="9.122002255106931"><ele>362.1666666666667</ele><time>2026-04-11T17:47:29Z</time></trkpt><trkpt lat="45.797085802362375" lon="9.122090938428817"><ele>363.0</ele><time>2026-04-11T17:47:30Z</time></trkpt><trkpt lat="45.79705816189686" lon="9.122236656321975"><ele>363.0</ele><time>2026-04-11T17:47:32Z</time></trkpt><trkpt lat="45.797033433359985" lon="9.122355216382863"><ele>363.0</ele><time>2026-04-11T17:47:33Z</time></trkpt><trkpt lat="45.796978098743644" lon="9.122485014811101"><ele>363.0</ele><time>2026-04-11T17:47:34Z</time></trkpt><trkpt lat="45.79691945181068" lon="9.12261939180023"><ele>363.0</ele><time>2026-04-11T17:47:35Z</time></trkpt><trkpt lat="45.79686188098338" lon="9.122753050135989"><ele>363.0</ele><time>2026-04-11T17:47:36Z</time></trkpt><trkpt lat="45.79679615546955" lon="9.12289778587059"><ele>364.0</ele><time>2026-04-11T17:47:37Z</time></trkpt><trkpt lat="45.796727557168715" lon="9.123047726728478"><ele>365.0</ele><time>2026-04-11T17:47:38Z</time></trkpt><trkpt lat="45.79666005448405" lon="9.123184543438635"><ele>366.0</ele><time>2026-04-11T17:47:39Z</time></trkpt><trkpt lat="45.796598867193666" lon="9.123309618940864"><ele>367.0</ele><time>2026-04-11T17:47:40Z</time></trkpt><trkpt lat="45.79653923434994" lon="9.123426150172094"><ele>368.0</ele><time>2026-04-11T17:47:41Z</time></trkpt><trkpt lat="45.79648396812569" lon="9.123534874432298"><ele>368.0</ele><time>2026-04-11T17:47:42Z</time></trkpt><trkpt lat="45.796434544270156" lon="9.123639261541301"><ele>368.0</ele><time>2026-04-11T17:47:43Z</time></trkpt><trkpt lat="45.79638694812678" lon="9.123733219817742"><ele>368.0</ele><time>2026-04-11T17:47:44Z</time></trkpt><trkpt lat="45.79634483553984" lon="9.123822574274318"><ele>368.0</ele><time>2026-04-11T17:47:45Z</time></trkpt><trkpt lat="45.79630144715086" lon="9.12392305533119"><ele>368.0</ele><time>2026-04-11T17:47:46Z</time></trkpt><trkpt lat="45.79625403155086" lon="9.124027538433857"><ele>368.0</ele><time>2026-04-11T17:47:47Z</time></trkpt><trkpt lat="45.79619634106578" lon="9.124140540787005"><ele>367.79999999999995</ele><time>2026-04-11T17:47:48Z</time></trkpt><trkpt lat="45.79614079291087" lon="9.124260367391107"><ele>367.6</ele><time>2026-04-11T17:47:49Z</time></trkpt><trkpt lat="45.79607968185975" lon="9.124384606356108"><ele>367.4</ele><time>2026-04-11T17:47:50Z</time></trkpt><trkpt lat="45.79601121515838" lon="9.124515916612493"><ele>367.20000000000005</ele><time>2026-04-11T17:47:51Z</time></trkpt><trkpt lat="45.795937678055616" lon="9.124643911509972"><ele>367.0</ele><time>2026-04-11T17:47:52Z</time></trkpt><trkpt lat="45.79586100650571" lon="9.124775734451255"><ele>367.0</ele><time>2026-04-11T17:47:53Z</time></trkpt><trkpt lat="45.795783029748954" lon="9.124914852862334"><ele>367.0</ele><time>2026-04-11T17:47:54Z</time></trkpt><trkpt lat="45.795707277469724" lon="9.125042381743"><ele>367.0</ele><time>2026-04-11T17:47:55Z</time></trkpt><trkpt lat="45.79563866930129" lon="9.125154083360092"><ele>367.0</ele><time>2026-04-11T17:47:56Z</time></trkpt><trkpt lat="45.79557116726608" lon="9.125246657317014"><ele>367.0</ele><time>2026-04-11T17:47:57Z</time></trkpt><trkpt lat="45.7955052605097" lon="9.12532338989657"><ele>367.0</ele><time>2026-04-11T17:47:58Z</time></trkpt><trkpt lat="45.795437815289965" lon="9.125373847344841"><ele>367.0</ele><time>2026-04-11T17:47:59Z</time></trkpt><trkpt lat="45.795380686527736" lon="9.12544232241624"><ele>367.0</ele><time>2026-04-11T17:48:00Z</time></trkpt><trkpt lat="45.79535018367366" lon="9.12555952253755"><ele>367.0</ele><time>2026-04-11T17:48:01Z</time></trkpt><trkpt lat="45.795339144554546" lon="9.125705636552611"><ele>367.0</ele><time>2026-04-11T17:48:02Z</time></trkpt><trkpt lat="45.79531225415348" lon="9.125874663610565"><ele>366.75</ele><time>2026-04-11T17:48:03Z</time></trkpt><trkpt lat="45.79526342920216" lon="9.126037117952507"><ele>366.5</ele><time>2026-04-11T17:48:04Z</time></trkpt><trkpt lat="45.79520649406418" lon="9.126198145811019"><ele>366.25</ele><time>2026-04-11T17:48:05Z</time></trkpt><trkpt lat="45.795140283221876" lon="9.12632124830418"><ele>366.0</ele><time>2026-04-11T17:48:06Z</time></trkpt><trkpt lat="45.795076612274755" lon="9.126436043935652"><ele>366.6</ele><time>2026-04-11T17:48:07Z</time></trkpt><trkpt lat="45.79504324674536" lon="9.126538994054558"><ele>367.20000000000005</ele><time>2026-04-11T17:48:08Z</time></trkpt><trkpt lat="45.795043910457814" lon="9.12666527261219"><ele>367.79999999999995</ele><time>2026-04-11T17:48:09Z</time></trkpt><trkpt lat="45.795075084002754" lon="9.126792920708455"><ele>368.4</ele><time>2026-04-11T17:48:10Z</time></trkpt><trkpt lat="45.79513503055778" lon="9.126927677131734"><ele>369.0</ele><time>2026-04-11T17:48:11Z</time></trkpt><trkpt lat="45.79518493944316" lon="9.127083111083412"><ele>369.0</ele><time>2026-04-11T17:48:12Z</time></trkpt><trkpt lat="45.795220324861" lon="9.127281461604918"><ele>369.0</ele><time>2026-04-11T17:48:13Z</time></trkpt><trkpt lat="45.79523763313588" lon="9.127489195376576"><ele>369.0</ele><time>2026-04-11T17:48:14Z</time></trkpt><trkpt lat="45.7952620127361" lon="9.127662110177999"><ele>369.0</ele><time>2026-04-11T17:48:15Z</time></trkpt><trkpt lat="45.7953189338106" lon="9.127817806421636"><ele>370.5</ele><time>2026-04-11T17:48:16Z</time></trkpt><trkpt lat="45.795399439820464" lon="9.127966615300632"><ele>372.0</ele><time>2026-04-11T17:48:17Z</time></trkpt><trkpt lat="45.795486330384605" lon="9.128130166401258"><ele>373.5</ele><time>2026-04-11T17:48:18Z</time></trkpt><trkpt lat="45.795555916548565" lon="9.12832909922025"><ele>375.0</ele><time>2026-04-11T17:48:19Z</time></trkpt><trkpt lat="45.79561925048625" lon="9.12853687845209"><ele>378.33333333333337</ele><time>2026-04-11T17:48:20Z</time></trkpt><trkpt lat="45.79568290025082" lon="9.128745175050787"><ele>381.6666666666667</ele><time>2026-04-11T17:48:21Z</time></trkpt><trkpt lat="45.79574969942885" lon="9.12894461763772"><ele>385.0</ele><time>2026-04-11T17:48:22Z</time></trkpt><trkpt lat="45.79580885301995" lon="9.129131377183432"><ele>385.0</ele><time>2026-04-11T17:48:23Z</time></trkpt><trkpt lat="45.79587426307452" lon="9.129312648409128"><ele>385.0</ele><time>2026-04-11T17:48:24Z</time></trkpt><trkpt lat="45.79593833290112" lon="9.12949760727143"><ele>385.0</ele><time>2026-04-11T17:48:25Z</time></trkpt><trkpt lat="45.795994388184035" lon="9.12968787139525"><ele>385.0</ele><time>2026-04-11T17:48:26Z</time></trkpt><trkpt lat="45.796045661858614" lon="9.129868791558966"><ele>386.5</ele><time>2026-04-11T17:48:27Z</time></trkpt><trkpt lat="45.79609093041038" lon="9.130039444393468"><ele>388.0</ele><time>2026-04-11T17:48:28Z</time></trkpt><trkpt lat="45.79612613895672" lon="9.13021987324166"><ele>389.5</ele><time>2026-04-11T17:48:29Z</time></trkpt><trkpt lat="45.796146583173396" lon="9.13040562703994"><ele>391.0</ele><time>2026-04-11T17:48:30Z</time></trkpt><trkpt lat="45.79615137335632" lon="9.130587603459936"><ele>391.0</ele><time>2026-04-11T17:48:31Z</time></trkpt><trkpt lat="45.79614637889679" lon="9.130763017047718"><ele>391.0</ele><time>2026-04-11T17:48:32Z</time></trkpt><trkpt lat="45.796138289038915" lon="9.130924289490956"><ele>391.0</ele><time>2026-04-11T17:48:33Z</time></trkpt><trkpt lat="45.79611393516125" lon="9.131079598079408"><ele>391.0</ele><time>2026-04-11T17:48:34Z</time></trkpt><trkpt lat="45.79607834147925" lon="9.13125676673556"><ele>391.0</ele><time>2026-04-11T17:48:35Z</time></trkpt><trkpt lat="45.796032687291245" lon="9.131437439904863"><ele>391.0</ele><time>2026-04-11T17:48:36Z</time></trkpt><trkpt lat="45.79597283742705" lon="9.131619394402733"><ele>391.0</ele><time>2026-04-11T17:48:37Z</time></trkpt><trkpt lat="45.7959048636399" lon="9.131803495315172"><ele>391.0</ele><time>2026-04-11T17:48:38Z</time></trkpt><trkpt lat="45.79582905597318" lon="9.131991017184687"><ele>394.6666666666667</ele><time>2026-04-11T17:48:39Z</time></trkpt><trkpt lat="45.79574924779455" lon="9.132179792546381"><ele>398.33333333333337</ele><time>2026-04-11T17:48:40Z</time></trkpt><trkpt lat="45.79567439470367" lon="9.132361814759825"><ele>402.0</ele><time>2026-04-11T17:48:41Z</time></trkpt><trkpt lat="45.795595599717295" lon="9.132548249535265"><ele>402.0</ele><time>2026-04-11T17:48:42Z</time></trkpt><trkpt lat="45.795515848316185" lon="9.13274057753009"><ele>402.0</ele><time>2026-04-11T17:48:43Z</time></trkpt><trkpt lat="45.79543479961644" lon="9.132939737841703"><ele>402.0</ele><time>2026-04-11T17:48:44Z</time></trkpt><trkpt lat="45.79535202458315" lon="9.133145271457428"><ele>402.33333333333337</ele><time>2026-04-11T17:48:45Z</time></trkpt><trkpt lat="45.79527105616996" lon="9.133345871354509"><ele>402.6666666666667</ele><time>2026-04-11T17:48:46Z</time></trkpt><trkpt lat="45.795188173523734" lon="9.133547254486276"><ele>403.0</ele><time>2026-04-11T17:48:47Z</time></trkpt><trkpt lat="45.79510432803002" lon="9.133753386133654"><ele>406.6666666666667</ele><time>2026-04-11T17:48:48Z</time></trkpt><trkpt lat="45.79502352836374" lon="9.133958522958029"><ele>410.33333333333337</ele><time>2026-04-11T17:48:49Z</time></trkpt><trkpt lat="45.794945941615474" lon="9.134155395286479"><ele>414.0</ele><time>2026-04-11T17:48:50Z</time></trkpt><trkpt lat="45.794878628478465" lon="9.1343432939707"><ele>414.0</ele><time>2026-04-11T17:48:51Z</time></trkpt><trkpt lat="45.79482578070365" lon="9.134533789800674"><ele>414.0</ele><time>2026-04-11T17:48:52Z</time></trkpt><trkpt lat="45.794794618997216" lon="9.134720969691875"><ele>414.0</ele><time>2026-04-11T17:48:53Z</time></trkpt><trkpt lat="45.7947769443896" lon="9.134907446720815"><ele>414.0</ele><time>2026-04-11T17:48:54Z</time></trkpt><trkpt lat="45.794769296569505" lon="9.135089469318322"><ele>414.0</ele><time>2026-04-11T17:48:55Z</time></trkpt><trkpt lat="45.79477041790673" lon="9.135297564669987"><ele>414.0</ele><time>2026-04-11T17:48:56Z</time></trkpt><trkpt lat="45.79477464083865" lon="9.135526770009804"><ele>414.0</ele><time>2026-04-11T17:48:57Z</time></trkpt><trkpt lat="45.79477499649447" lon="9.135769891556782"><ele>413.0</ele><time>2026-04-11T17:48:58Z</time></trkpt><trkpt lat="45.79477615185109" lon="9.136027738780685"><ele>412.0</ele><time>2026-04-11T17:48:59Z</time></trkpt><trkpt lat="45.79478276145814" lon="9.136292786585066"><ele>411.0</ele><time>2026-04-11T17:49:00Z</time></trkpt><trkpt lat="45.794791409441174" lon="9.136574254142806"><ele>411.0</ele><time>2026-04-11T17:49:01Z</time></trkpt><trkpt lat="45.79479543491792" lon="9.136874718984158"><ele>411.0</ele><time>2026-04-11T17:49:02Z</time></trkpt><trkpt lat="45.79479423473425" lon="9.137184946736557"><ele>411.0</ele><time>2026-04-11T17:49:03Z</time></trkpt><trkpt lat="45.794787633327836" lon="9.137503176523087"><ele>411.0</ele><time>2026-04-11T17:49:04Z</time></trkpt><trkpt lat="45.794788363235305" lon="9.137825647568466"><ele>411.0</ele><time>2026-04-11T17:49:05Z</time></trkpt><trkpt lat="45.794792568520286" lon="9.13814746540479"><ele>411.0</ele><time>2026-04-11T17:49:06Z</time></trkpt><trkpt lat="45.7947994642637" lon="9.138463403448226"><ele>411.0</ele><time>2026-04-11T17:49:07Z</time></trkpt><trkpt lat="45.79480479032558" lon="9.138768223819463"><ele>411.0</ele><time>2026-04-11T17:49:08Z</time></trkpt><trkpt lat="45.794808793288695" lon="9.139057400425184"><ele>411.0</ele><time>2026-04-11T17:49:09Z</time></trkpt><trkpt lat="45.79481037238545" lon="9.139334796452088"><ele>411.0</ele><time>2026-04-11T17:49:10Z</time></trkpt><trkpt lat="45.79481181058923" lon="9.1396103462919"><ele>411.0</ele><time>2026-04-11T17:49:11Z</time></trkpt><trkpt lat="45.79481918130568" lon="9.139881963723365"><ele>411.0</ele><time>2026-04-11T17:49:12Z</time></trkpt><trkpt lat="45.7948345384497" lon="9.140135505788704"><ele>410.33333333333337</ele><time>2026-04-11T17:49:13Z</time></trkpt><trkpt lat="45.79485269230203" lon="9.14037932623562"><ele>409.6666666666667</ele><time>2026-04-11T17:49:14Z</time></trkpt><trkpt lat="45.79487006077755" lon="9.140609784458343"><ele>409.0</ele><time>2026-04-11T17:49:15Z</time></trkpt><trkpt lat="45.794877719195135" lon="9.14084737430871"><ele>409.0</ele><time>2026-04-11T17:49:16Z</time></trkpt><trkpt lat="45.794865658220566" lon="9.141085474279453"><ele>409.0</ele><time>2026-04-11T17:49:17Z</time></trkpt><trkpt lat="45.79485397102774" lon="9.141328844818148"><ele>409.0</ele><time>2026-04-11T17:49:18Z</time></trkpt><trkpt lat="45.79485573411512" lon="9.14157356652933"><ele>410.6666666666667</ele><time>2026-04-11T17:49:19Z</time></trkpt><trkpt lat="45.79485685083406" lon="9.141801489897137"><ele>412.33333333333337</ele><time>2026-04-11T17:49:20Z</time></trkpt><trkpt lat="45.7948544762527" lon="9.14202182512582"><ele>414.0</ele><time>2026-04-11T17:49:21Z</time></trkpt><trkpt lat="45.794851337740006" lon="9.142241750160556"><ele>414.0</ele><time>2026-04-11T17:49:22Z</time></trkpt><trkpt lat="45.79484874607156" lon="9.142456567317685"><ele>414.0</ele><time>2026-04-11T17:49:23Z</time></trkpt><trkpt lat="45.7948427651682" lon="9.14266209748637"><ele>414.0</ele><time>2026-04-11T17:49:24Z</time></trkpt><trkpt lat="45.79483291027017" lon="9.142868388522228"><ele>414.0</ele><time>2026-04-11T17:49:25Z</time></trkpt><trkpt lat="45.79482071331248" lon="9.143077149619597"><ele>413.25</ele><time>2026-04-11T17:49:26Z</time></trkpt><trkpt lat="45.79480928429717" lon="9.14327410731547"><ele>412.5</ele><time>2026-04-11T17:49:27Z</time></trkpt><trkpt lat="45.79479581299866" lon="9.143468510579414"><ele>411.75</ele><time>2026-04-11T17:49:28Z</time></trkpt><trkpt lat="45.7947812383509" lon="9.143681610332042"><ele>411.0</ele><time>2026-04-11T17:49:29Z</time></trkpt><trkpt lat="45.794765081724904" lon="9.14391234011533"><ele>410.66666666666663</ele><time>2026-04-11T17:49:30Z</time></trkpt><trkpt lat="45.79474726592119" lon="9.144157802082225"><ele>410.3333333333333</ele><time>2026-04-11T17:49:31Z</time></trkpt><trkpt lat="45.79472767907229" lon="9.144416281319453"><ele>410.0</ele><time>2026-04-11T17:49:32Z</time></trkpt><trkpt lat="45.794706983260696" lon="9.144686385588512"><ele>409.0</ele><time>2026-04-11T17:49:33Z</time></trkpt><trkpt lat="45.79468825317024" lon="9.144965612994067"><ele>408.0</ele><time>2026-04-11T17:49:34Z</time></trkpt><trkpt lat="45.79467071461966" lon="9.145244946531436"><ele>407.0</ele><time>2026-04-11T17:49:35Z</time></trkpt><trkpt lat="45.79465443084079" lon="9.145506449474007"><ele>406.66666666666663</ele><time>2026-04-11T17:49:36Z</time></trkpt><trkpt lat="45.79463678974523" lon="9.14575947893959"><ele>406.33333333333337</ele><time>2026-04-11T17:49:37Z</time></trkpt><trkpt lat="45.79461982087956" lon="9.146002825072697"><ele>406.0</ele><time>2026-04-11T17:49:38Z</time></trkpt><trkpt lat="45.79460347847757" lon="9.146238161222552"><ele>406.0</ele><time>2026-04-11T17:49:39Z</time></trkpt><trkpt lat="45.79458692270039" lon="9.146477864833003"><ele>406.0</ele><time>2026-04-11T17:49:40Z</time></trkpt><trkpt lat="45.79457082095556" lon="9.146723846818817"><ele>406.0</ele><time>2026-04-11T17:49:41Z</time></trkpt><trkpt lat="45.794555047385266" lon="9.14696470347534"><ele>406.0</ele><time>2026-04-11T17:49:42Z</time></trkpt><trkpt lat="45.79454157758444" lon="9.147181448174152"><ele>406.0</ele><time>2026-04-11T17:49:43Z</time></trkpt><trkpt lat="45.794528966464036" lon="9.14737044927206"><ele>406.0</ele><time>2026-04-11T17:49:44Z</time></trkpt><trkpt lat="45.794515509855884" lon="9.147544443457694"><ele>406.0</ele><time>2026-04-11T17:49:45Z</time></trkpt><trkpt lat="45.79450451219228" lon="9.147711895045383"><ele>406.0</ele><time>2026-04-11T17:49:46Z</time></trkpt><trkpt lat="45.79449382865419" lon="9.147880338626761"><ele>406.0</ele><time>2026-04-11T17:49:47Z</time></trkpt><trkpt lat="45.794484801203964" lon="9.14804357545264"><ele>406.0</ele><time>2026-04-11T17:49:48Z</time></trkpt><trkpt lat="45.79446784110539" lon="9.14821168030402"><ele>406.0</ele><time>2026-04-11T17:49:49Z</time></trkpt><trkpt lat="45.79444345875937" lon="9.148383327112557"><ele>406.0</ele><time>2026-04-11T17:49:50Z</time></trkpt><trkpt lat="45.794421597084174" lon="9.148561693701266"><ele>406.0</ele><time>2026-04-11T17:49:51Z</time></trkpt><trkpt lat="45.794404049583285" lon="9.148736310512371"><ele>406.0</ele><time>2026-04-11T17:49:52Z</time></trkpt><trkpt lat="45.794387999725" lon="9.148902173440227"><ele>406.0</ele><time>2026-04-11T17:49:53Z</time></trkpt><trkpt lat="45.7943723408324" lon="9.149061507214896"><ele>406.0</ele><time>2026-04-11T17:49:54Z</time></trkpt><trkpt lat="45.794357432018515" lon="9.14921518568351"><ele>406.0</ele><time>2026-04-11T17:49:55Z</time></trkpt><trkpt lat="45.794347993234084" lon="9.14937093829413"><ele>406.0</ele><time>2026-04-11T17:49:56Z</time></trkpt><trkpt lat="45.794342399114456" lon="9.149518702016834"><ele>406.0</ele><time>2026-04-11T17:49:57Z</time></trkpt><trkpt lat="45.79433876610989" lon="9.149658499091423"><ele>406.0</ele><time>2026-04-11T17:49:58Z</time></trkpt><trkpt lat="45.794325083431815" lon="9.149794289405753"><ele>405.75</ele><time>2026-04-11T17:49:59Z</time></trkpt><trkpt lat="45.79429265651339" lon="9.149945282426916"><ele>405.5</ele><time>2026-04-11T17:50:00Z</time></trkpt><trkpt lat="45.79425898286516" lon="9.150110234124172"><ele>405.25</ele><time>2026-04-11T17:50:01Z</time></trkpt><trkpt lat="45.79422789530786" lon="9.150266200892577"><ele>405.0</ele><time>2026-04-11T17:50:02Z</time></trkpt><trkpt lat="45.79417766560607" lon="9.150405443764347"><ele>405.0</ele><time>2026-04-11T17:50:03Z</time></trkpt><trkpt lat="45.79412636403601" lon="9.15050564664736"><ele>405.0</ele><time>2026-04-11T17:50:04Z</time></trkpt><trkpt lat="45.794070749764714" lon="9.150601784563172"><ele>405.0</ele><time>2026-04-11T17:50:05Z</time></trkpt><trkpt lat="45.79401027425021" lon="9.150742302850928"><ele>405.0</ele><time>2026-04-11T17:50:06Z</time></trkpt><trkpt lat="45.793917048982124" lon="9.150888387563398"><ele>405.0</ele><time>2026-04-11T17:50:07Z</time></trkpt><trkpt lat="45.79380955839976" lon="9.151044208960968"><ele>404.33333333333337</ele><time>2026-04-11T17:50:08Z</time></trkpt><trkpt lat="45.793696470881066" lon="9.151210423438744"><ele>403.6666666666667</ele><time>2026-04-11T17:50:09Z</time></trkpt><trkpt lat="45.79357874494098" lon="9.151383243400813"><ele>403.0</ele><time>2026-04-11T17:50:10Z</time></trkpt><trkpt lat="45.79345529746284" lon="9.151559023510535"><ele>405.33333333333337</ele><time>2026-04-11T17:50:11Z</time></trkpt><trkpt lat="45.79332788773838" lon="9.151729547644717"><ele>407.66666666666663</ele><time>2026-04-11T17:50:12Z</time></trkpt><trkpt lat="45.793198164521755" lon="9.151911478415496"><ele>410.0</ele><time>2026-04-11T17:50:13Z</time></trkpt><trkpt lat="45.79305975268757" lon="9.152095212073975"><ele>410.0</ele><time>2026-04-11T17:50:14Z</time></trkpt><trkpt lat="45.792916156298496" lon="9.152284197111245"><ele>410.0</ele><time>2026-04-11T17:50:15Z</time></trkpt><trkpt lat="45.79276898640144" lon="9.152479633951103"><ele>410.0</ele><time>2026-04-11T17:50:16Z</time></trkpt><trkpt lat="45.79261628328801" lon="9.152678452164768"><ele>411.66666666666663</ele><time>2026-04-11T17:50:17Z</time></trkpt><trkpt lat="45.79246103275334" lon="9.15288633402075"><ele>413.33333333333337</ele><time>2026-04-11T17:50:18Z</time></trkpt><trkpt lat="45.792301717106135" lon="9.153098976553872"><ele>415.0</ele><time>2026-04-11T17:50:19Z</time></trkpt><trkpt lat="45.792139175419564" lon="9.1533145455464"><ele>412.33333333333337</ele><time>2026-04-11T17:50:20Z</time></trkpt><trkpt lat="45.79197477063961" lon="9.153520657409073"><ele>409.66666666666663</ele><time>2026-04-11T17:50:21Z</time></trkpt><trkpt lat="45.79180772087429" lon="9.15372668731806"><ele>407.0</ele><time>2026-04-11T17:50:22Z</time></trkpt><trkpt lat="45.791642927544935" lon="9.153938339004437"><ele>403.3333333333333</ele><time>2026-04-11T17:50:23Z</time></trkpt><trkpt lat="45.791483975138306" lon="9.154159865049559"><ele>399.66666666666663</ele><time>2026-04-11T17:50:24Z</time></trkpt><trkpt lat="45.791333992312836" lon="9.154392237266896"><ele>396.0</ele><time>2026-04-11T17:50:25Z</time></trkpt><trkpt lat="45.79117936071805" lon="9.15462553327191"><ele>396.0</ele><time>2026-04-11T17:50:26Z</time></trkpt><trkpt lat="45.791011753312226" lon="9.154850512179497"><ele>396.0</ele><time>2026-04-11T17:50:27Z</time></trkpt><trkpt lat="45.790837546583504" lon="9.155065646896027"><ele>394.5</ele><time>2026-04-11T17:50:28Z</time></trkpt><trkpt lat="45.79066255178369" lon="9.155283198986199"><ele>393.0</ele><time>2026-04-11T17:50:29Z</time></trkpt><trkpt lat="45.79049005767121" lon="9.15550582819432"><ele>393.0</ele><time>2026-04-11T17:50:30Z</time></trkpt><trkpt lat="45.790318230554334" lon="9.155730386884372"><ele>393.0</ele><time>2026-04-11T17:50:31Z</time></trkpt><trkpt lat="45.790147540436884" lon="9.155955608802959"><ele>392.0</ele><time>2026-04-11T17:50:32Z</time></trkpt><trkpt lat="45.78997948893486" lon="9.156182058107964"><ele>391.0</ele><time>2026-04-11T17:50:33Z</time></trkpt><trkpt lat="45.78981358318958" lon="9.156406766612209"><ele>390.33333333333337</ele><time>2026-04-11T17:50:34Z</time></trkpt><trkpt lat="45.78965179250401" lon="9.156626022063152"><ele>389.66666666666663</ele><time>2026-04-11T17:50:35Z</time></trkpt><trkpt lat="45.78950977944459" lon="9.156817559438373"><ele>389.0</ele><time>2026-04-11T17:50:36Z</time></trkpt><trkpt lat="45.78939358612056" lon="9.156972192607656"><ele>389.0</ele><time>2026-04-11T17:50:37Z</time></trkpt><trkpt lat="45.78928436814496" lon="9.157113502607098"><ele>389.0</ele><time>2026-04-11T17:50:38Z</time></trkpt><trkpt lat="45.78916895152715" lon="9.157255163330447"><ele>389.0</ele><time>2026-04-11T17:50:39Z</time></trkpt><trkpt lat="45.789045775407324" lon="9.15738578861483"><ele>389.0</ele><time>2026-04-11T17:50:40Z</time></trkpt><trkpt lat="45.78891993208378" lon="9.157499255247531"><ele>389.0</ele><time>2026-04-11T17:50:41Z</time></trkpt><trkpt lat="45.78879594645919" lon="9.157602425293378"><ele>389.0</ele><time>2026-04-11T17:50:42Z</time></trkpt><trkpt lat="45.78868613903708" lon="9.157696387890633"><ele>389.0</ele><time>2026-04-11T17:50:43Z</time></trkpt><trkpt lat="45.7885904870055" lon="9.157803877822872"><ele>389.0</ele><time>2026-04-11T17:50:44Z</time></trkpt><trkpt lat="45.78850709218544" lon="9.157965849191362"><ele>389.0</ele><time>2026-04-11T17:50:45Z</time></trkpt><trkpt lat="45.78842560420367" lon="9.158151266691329"><ele>389.0</ele><time>2026-04-11T17:50:46Z</time></trkpt><trkpt lat="45.788321323158506" lon="9.158334258287182"><ele>389.0</ele><time>2026-04-11T17:50:47Z</time></trkpt><trkpt lat="45.78821058496937" lon="9.15850514510142"><ele>389.0</ele><time>2026-04-11T17:50:48Z</time></trkpt><trkpt lat="45.788086511726455" lon="9.158680273938543"><ele>389.0</ele><time>2026-04-11T17:50:49Z</time></trkpt><trkpt lat="45.78795416396768" lon="9.1588603076743"><ele>389.0</ele><time>2026-04-11T17:50:50Z</time></trkpt><trkpt lat="45.78781697385767" lon="9.159043390966369"><ele>389.0</ele><time>2026-04-11T17:50:51Z</time></trkpt><trkpt lat="45.78768229476225" lon="9.159223332863869"><ele>389.0</ele><time>2026-04-11T17:50:52Z</time></trkpt><trkpt lat="45.787544097627055" lon="9.159409919862878"><ele>388.66666666666663</ele><time>2026-04-11T17:50:53Z</time></trkpt><trkpt lat="45.78740132186143" lon="9.159601461419323"><ele>388.33333333333337</ele><time>2026-04-11T17:50:54Z</time></trkpt><trkpt lat="45.78725339421557" lon="9.159796663062265"><ele>388.0</ele><time>2026-04-11T17:50:55Z</time></trkpt><trkpt lat="45.78710271879221" lon="9.159996630668266"><ele>387.6666666666667</ele><time>2026-04-11T17:50:56Z</time></trkpt><trkpt lat="45.7869490605262" lon="9.16020212325275"><ele>387.33333333333337</ele><time>2026-04-11T17:50:57Z</time></trkpt><trkpt lat="45.78679210609494" lon="9.160410142268809"><ele>387.0</ele><time>2026-04-11T17:50:58Z</time></trkpt><trkpt lat="45.786633465920346" lon="9.160619318614362"><ele>386.0</ele><time>2026-04-11T17:50:59Z</time></trkpt><trkpt lat="45.78647314271674" lon="9.160828150157924"><ele>385.0</ele><time>2026-04-11T17:51:00Z</time></trkpt><trkpt lat="45.786312604295595" lon="9.161040064095388"><ele>384.0</ele><time>2026-04-11T17:51:01Z</time></trkpt><trkpt lat="45.78615349755432" lon="9.161249753076364"><ele>383.3333333333333</ele><time>2026-04-11T17:51:02Z</time></trkpt><trkpt lat="45.785995942714" lon="9.161462215567962"><ele>382.66666666666663</ele><time>2026-04-11T17:51:03Z</time></trkpt><trkpt lat="45.78583727902547" lon="9.16167221515995"><ele>382.0</ele><time>2026-04-11T17:51:04Z</time></trkpt><trkpt lat="45.78567688391116" lon="9.161880485608751"><ele>381.3333333333333</ele><time>2026-04-11T17:51:05Z</time></trkpt><trkpt lat="45.78551708833497" lon="9.162089155797437"><ele>380.6666666666667</ele><time>2026-04-11T17:51:06Z</time></trkpt><trkpt lat="45.78535702266434" lon="9.1623003901762"><ele>380.0</ele><time>2026-04-11T17:51:07Z</time></trkpt><trkpt lat="45.785197095522484" lon="9.16251321429727"><ele>379.0</ele><time>2026-04-11T17:51:08Z</time></trkpt><trkpt lat="45.78503626075829" lon="9.162728483489232"><ele>378.0</ele><time>2026-04-11T17:51:09Z</time></trkpt><trkpt lat="45.78487640216841" lon="9.162945937547189"><ele>377.0</ele><time>2026-04-11T17:51:10Z</time></trkpt><trkpt lat="45.78471907784999" lon="9.163160226624969"><ele>377.0</ele><time>2026-04-11T17:51:11Z</time></trkpt><trkpt lat="45.78456460610856" lon="9.163371949959492"><ele>377.0</ele><time>2026-04-11T17:51:12Z</time></trkpt><trkpt lat="45.78441624513544" lon="9.1635742385327"><ele>377.0</ele><time>2026-04-11T17:51:13Z</time></trkpt><trkpt lat="45.78427153870773" lon="9.163773458979001"><ele>377.0</ele><time>2026-04-11T17:51:14Z</time></trkpt><trkpt lat="45.78412298244146" lon="9.163973296270028"><ele>377.0</ele><time>2026-04-11T17:51:15Z</time></trkpt><trkpt lat="45.78397078119774" lon="9.164174702998087"><ele>377.0</ele><time>2026-04-11T17:51:16Z</time></trkpt><trkpt lat="45.783816307299716" lon="9.164377963599275"><ele>377.0</ele><time>2026-04-11T17:51:17Z</time></trkpt><trkpt lat="45.78365686753241" lon="9.164581905949616"><ele>377.0</ele><time>2026-04-11T17:51:18Z</time></trkpt><trkpt lat="45.78349721984125" lon="9.164789052796976"><ele>377.0</ele><time>2026-04-11T17:51:19Z</time></trkpt><trkpt lat="45.783336448120686" lon="9.164999560691742"><ele>376.33333333333337</ele><time>2026-04-11T17:51:20Z</time></trkpt><trkpt lat="45.78317403517709" lon="9.16521399000669"><ele>375.6666666666667</ele><time>2026-04-11T17:51:21Z</time></trkpt><trkpt lat="45.78301068547332" lon="9.165432606786363"><ele>375.0</ele><time>2026-04-11T17:51:22Z</time></trkpt><trkpt lat="45.782844747434766" lon="9.165654419847927"><ele>374.5</ele><time>2026-04-11T17:51:23Z</time></trkpt><trkpt lat="45.78267696442767" lon="9.165876292097996"><ele>374.0</ele><time>2026-04-11T17:51:24Z</time></trkpt><trkpt lat="45.78250759530444" lon="9.166098246916725"><ele>374.0</ele><time>2026-04-11T17:51:25Z</time></trkpt><trkpt lat="45.78233709060704" lon="9.166323747441465"><ele>374.0</ele><time>2026-04-11T17:51:26Z</time></trkpt><trkpt lat="45.782167581538296" lon="9.16655021132135"><ele>374.0</ele><time>2026-04-11T17:51:27Z</time></trkpt><trkpt lat="45.7819987369717" lon="9.16677819005052"><ele>374.0</ele><time>2026-04-11T17:51:28Z</time></trkpt><trkpt lat="45.78182964263093" lon="9.16701127888683"><ele>372.0</ele><time>2026-04-11T17:51:29Z</time></trkpt><trkpt lat="45.781657772822165" lon="9.167247887016286"><ele>370.0</ele><time>2026-04-11T17:51:30Z</time></trkpt><trkpt lat="45.78148231415935" lon="9.167481082963391"><ele>370.0</ele><time>2026-04-11T17:51:31Z</time></trkpt><trkpt lat="45.78130420069552" lon="9.167713156089626"><ele>370.0</ele><time>2026-04-11T17:51:32Z</time></trkpt><trkpt lat="45.78112484077814" lon="9.167942198468491"><ele>369.5</ele><time>2026-04-11T17:51:33Z</time></trkpt><trkpt lat="45.78095275869825" lon="9.168164921397809"><ele>369.0</ele><time>2026-04-11T17:51:34Z</time></trkpt><trkpt lat="45.78078716307154" lon="9.168384199812776"><ele>369.0</ele><time>2026-04-11T17:51:35Z</time></trkpt><trkpt lat="45.780627442068386" lon="9.168600007625521"><ele>369.0</ele><time>2026-04-11T17:51:36Z</time></trkpt><trkpt lat="45.780471326309325" lon="9.168807672270312"><ele>369.0</ele><time>2026-04-11T17:51:37Z</time></trkpt><trkpt lat="45.78031611408597" lon="9.169010763532752"><ele>368.0</ele><time>2026-04-11T17:51:38Z</time></trkpt><trkpt lat="45.7801658411608" lon="9.169205208438788"><ele>367.0</ele><time>2026-04-11T17:51:39Z</time></trkpt><trkpt lat="45.78002530762507" lon="9.169386945589107"><ele>366.0</ele><time>2026-04-11T17:51:40Z</time></trkpt><trkpt lat="45.77990644432827" lon="9.1695380314179"><ele>366.0</ele><time>2026-04-11T17:51:41Z</time></trkpt><trkpt lat="45.7798005825519" lon="9.169660878769308"><ele>366.0</ele><time>2026-04-11T17:51:42Z</time></trkpt><trkpt lat="45.779701978262224" lon="9.16975999503803"><ele>366.0</ele><time>2026-04-11T17:51:43Z</time></trkpt><trkpt lat="45.779617999865515" lon="9.169830077939679"><ele>366.0</ele><time>2026-04-11T17:51:44Z</time></trkpt><trkpt lat="45.77954608036116" lon="9.169878030733685"><ele>366.0</ele><time>2026-04-11T17:51:45Z</time></trkpt><trkpt lat="45.77945949648885" lon="9.169906705804916"><ele>366.0</ele><time>2026-04-11T17:51:46Z</time></trkpt><trkpt lat="45.77935192181873" lon="9.169900355256944"><ele>366.0</ele><time>2026-04-11T17:51:47Z</time></trkpt><trkpt lat="45.77927121588349" lon="9.169916897315497"><ele>366.0</ele><time>2026-04-11T17:51:48Z</time></trkpt><trkpt lat="45.779202099363474" lon="9.16998703563261"><ele>366.0</ele><time>2026-04-11T17:51:49Z</time></trkpt><trkpt lat="45.77913757878997" lon="9.17011469149721"><ele>366.0</ele><time>2026-04-11T17:51:50Z</time></trkpt><trkpt lat="45.779090178072266" lon="9.170269960938871"><ele>366.0</ele><time>2026-04-11T17:51:51Z</time></trkpt><trkpt lat="45.779004777578834" lon="9.170413174734373"><ele>366.0</ele><time>2026-04-11T17:51:52Z</time></trkpt><trkpt lat="45.77889532884242" lon="9.170561311865072"><ele>366.0</ele><time>2026-04-11T17:51:53Z</time></trkpt><trkpt lat="45.77878210608408" lon="9.170721310918355"><ele>366.0</ele><time>2026-04-11T17:51:54Z</time></trkpt><trkpt lat="45.77866181326177" lon="9.170876498671568"><ele>365.6666666666667</ele><time>2026-04-11T17:51:55Z</time></trkpt><trkpt lat="45.77853117786796" lon="9.171020528759051"><ele>365.33333333333337</ele><time>2026-04-11T17:51:56Z</time></trkpt><trkpt lat="45.77839306764477" lon="9.17116218942975"><ele>365.0</ele><time>2026-04-11T17:51:57Z</time></trkpt><trkpt lat="45.77824884462075" lon="9.171306962951691"><ele>365.0</ele><time>2026-04-11T17:51:58Z</time></trkpt><trkpt lat="45.77809935584185" lon="9.171455974281534"><ele>365.0</ele><time>2026-04-11T17:51:59Z</time></trkpt><trkpt lat="45.777944435136554" lon="9.17160743091369"><ele>365.0</ele><time>2026-04-11T17:52:00Z</time></trkpt><trkpt lat="45.77778573005027" lon="9.171760381098949"><ele>365.0</ele><time>2026-04-11T17:52:01Z</time></trkpt><trkpt lat="45.77762736782767" lon="9.171912875465003"><ele>365.0</ele><time>2026-04-11T17:52:02Z</time></trkpt><trkpt lat="45.7774742018386" lon="9.172062427715717"><ele>365.0</ele><time>2026-04-11T17:52:03Z</time></trkpt><trkpt lat="45.77732580382202" lon="9.172209580882495"><ele>365.0</ele><time>2026-04-11T17:52:04Z</time></trkpt><trkpt lat="45.77718476743474" lon="9.172351174798214"><ele>365.0</ele><time>2026-04-11T17:52:05Z</time></trkpt><trkpt lat="45.77704802074824" lon="9.172491202068835"><ele>365.0</ele><time>2026-04-11T17:52:06Z</time></trkpt><trkpt lat="45.776923373868605" lon="9.172621610821771"><ele>364.5</ele><time>2026-04-11T17:52:07Z</time></trkpt><trkpt lat="45.77681202313459" lon="9.172740702571753"><ele>364.0</ele><time>2026-04-11T17:52:08Z</time></trkpt><trkpt lat="45.77671092674963" lon="9.17284663607473"><ele>363.5</ele><time>2026-04-11T17:52:09Z</time></trkpt><trkpt lat="45.776628181041424" lon="9.172937203149457"><ele>363.0</ele><time>2026-04-11T17:52:10Z</time></trkpt><trkpt lat="45.77656080238719" lon="9.17301183325656"><ele>363.0</ele><time>2026-04-11T17:52:11Z</time></trkpt><trkpt lat="45.776498184469084" lon="9.173075546269523"><ele>363.0</ele><time>2026-04-11T17:52:12Z</time></trkpt><trkpt lat="45.77643395031383" lon="9.17313301307419"><ele>363.0</ele><time>2026-04-11T17:52:13Z</time></trkpt><trkpt lat="45.7763593706898" lon="9.173179363307327"><ele>363.0</ele><time>2026-04-11T17:52:14Z</time></trkpt><trkpt lat="45.7762864289242" lon="9.173202322254674"><ele>363.0</ele><time>2026-04-11T17:52:15Z</time></trkpt><trkpt lat="45.7762187700129" lon="9.173242611662767"><ele>363.0</ele><time>2026-04-11T17:52:16Z</time></trkpt><trkpt lat="45.776156883926475" lon="9.173340525307927"><ele>362.75</ele><time>2026-04-11T17:52:17Z</time></trkpt><trkpt lat="45.776092829267625" lon="9.173456878570178"><ele>362.5</ele><time>2026-04-11T17:52:18Z</time></trkpt><trkpt lat="45.776006042128344" lon="9.173570972993177"><ele>362.25</ele><time>2026-04-11T17:52:19Z</time></trkpt><trkpt lat="45.77590473120599" lon="9.173672168388059"><ele>362.0</ele><time>2026-04-11T17:52:20Z</time></trkpt><trkpt lat="45.775789466526625" lon="9.17378207344511"><ele>362.0</ele><time>2026-04-11T17:52:21Z</time></trkpt><trkpt lat="45.77567222378973" lon="9.173902153753145"><ele>362.0</ele><time>2026-04-11T17:52:22Z</time></trkpt><trkpt lat="45.7755571632663" lon="9.174029998697453"><ele>362.0</ele><time>2026-04-11T17:52:23Z</time></trkpt><trkpt lat="45.77544893349782" lon="9.174158746000101"><ele>362.0</ele><time>2026-04-11T17:52:24Z</time></trkpt><trkpt lat="45.7753428757492" lon="9.17430358747733"><ele>361.33333333333337</ele><time>2026-04-11T17:52:25Z</time></trkpt><trkpt lat="45.775234026868134" lon="9.174458380785197"><ele>360.6666666666667</ele><time>2026-04-11T17:52:26Z</time></trkpt><trkpt lat="45.77511865363002" lon="9.174620337942649"><ele>360.0</ele><time>2026-04-11T17:52:27Z</time></trkpt><trkpt lat="45.77499348625251" lon="9.174802514680765"><ele>359.6666666666667</ele><time>2026-04-11T17:52:28Z</time></trkpt><trkpt lat="45.774859154582764" lon="9.174998929232716"><ele>359.33333333333337</ele><time>2026-04-11T17:52:29Z</time></trkpt><trkpt lat="45.774716715964196" lon="9.17520640442254"><ele>359.0</ele><time>2026-04-11T17:52:30Z</time></trkpt><trkpt lat="45.77456654126842" lon="9.17541708583625"><ele>359.0</ele><time>2026-04-11T17:52:31Z</time></trkpt><trkpt lat="45.77441880722081" lon="9.175623978689627"><ele>359.0</ele><time>2026-04-11T17:52:32Z</time></trkpt><trkpt lat="45.774266674948066" lon="9.175838453272254"><ele>359.0</ele><time>2026-04-11T17:52:33Z</time></trkpt><trkpt lat="45.77411413014211" lon="9.176057055243419"><ele>358.33333333333337</ele><time>2026-04-11T17:52:34Z</time></trkpt><trkpt lat="45.773960749633744" lon="9.176280897552301"><ele>357.6666666666667</ele><time>2026-04-11T17:52:35Z</time></trkpt><trkpt lat="45.773804368594156" lon="9.176503824132135"><ele>357.0</ele><time>2026-04-11T17:52:36Z</time></trkpt><trkpt lat="45.77364574854624" lon="9.176727779409491"><ele>357.0</ele><time>2026-04-11T17:52:37Z</time></trkpt><trkpt lat="45.77348780738722" lon="9.176958482028173"><ele>357.0</ele><time>2026-04-11T17:52:38Z</time></trkpt><trkpt lat="45.77333187827401" lon="9.177195084378047"><ele>357.5</ele><time>2026-04-11T17:52:39Z</time></trkpt><trkpt lat="45.773176363838765" lon="9.177433181385581"><ele>358.0</ele><time>2026-04-11T17:52:40Z</time></trkpt><trkpt lat="45.77301953717982" lon="9.177669276230912"><ele>358.0</ele><time>2026-04-11T17:52:41Z</time></trkpt><trkpt lat="45.77286296129126" lon="9.17790438531459"><ele>358.0</ele><time>2026-04-11T17:52:42Z</time></trkpt><trkpt lat="45.77270600463445" lon="9.178136387593984"><ele>358.0</ele><time>2026-04-11T17:52:43Z</time></trkpt><trkpt lat="45.77254953564194" lon="9.178367611614235"><ele>358.0</ele><time>2026-04-11T17:52:44Z</time></trkpt><trkpt lat="45.77239385308814" lon="9.178592658530382"><ele>358.0</ele><time>2026-04-11T17:52:45Z</time></trkpt><trkpt lat="45.77224753130625" lon="9.178805702028487"><ele>358.0</ele><time>2026-04-11T17:52:46Z</time></trkpt><trkpt lat="45.77210892680489" lon="9.179008560325983"><ele>358.0</ele><time>2026-04-11T17:52:47Z</time></trkpt><trkpt lat="45.771976328429716" lon="9.179205206299237"><ele>358.0</ele><time>2026-04-11T17:52:48Z</time></trkpt><trkpt lat="45.77184883223579" lon="9.179393771844845"><ele>357.66666666666663</ele><time>2026-04-11T17:52:49Z</time></trkpt><trkpt lat="45.771730714030916" lon="9.179570120938882"><ele>357.3333333333333</ele><time>2026-04-11T17:52:50Z</time></trkpt><trkpt lat="45.77161946225306" lon="9.17973928307655"><ele>357.0</ele><time>2026-04-11T17:52:51Z</time></trkpt><trkpt lat="45.77151407608767" lon="9.179901676784645"><ele>357.0</ele><time>2026-04-11T17:52:52Z</time></trkpt><trkpt lat="45.77141295718817" lon="9.180060351940568"><ele>357.0</ele><time>2026-04-11T17:52:53Z</time></trkpt><trkpt lat="45.771314417940474" lon="9.180213431076561"><ele>357.0</ele><time>2026-04-11T17:52:54Z</time></trkpt><trkpt lat="45.771207053213175" lon="9.180371133330999"><ele>357.0</ele><time>2026-04-11T17:52:55Z</time></trkpt><trkpt lat="45.77110423678904" lon="9.180526993362488"><ele>357.0</ele><time>2026-04-11T17:52:56Z</time></trkpt><trkpt lat="45.77100762723123" lon="9.180665136457717"><ele>357.0</ele><time>2026-04-11T17:52:57Z</time></trkpt><trkpt lat="45.77092319779573" lon="9.180785868516212"><ele>357.0</ele><time>2026-04-11T17:52:58Z</time></trkpt><trkpt lat="45.770828188634106" lon="9.180908472401663"><ele>357.0</ele><time>2026-04-11T17:52:59Z</time></trkpt><trkpt lat="45.770729057518366" lon="9.181025819551623"><ele>357.0</ele><time>2026-04-11T17:53:00Z</time></trkpt><trkpt lat="45.77061650236173" lon="9.181166056910659"><ele>357.0</ele><time>2026-04-11T17:53:01Z</time></trkpt><trkpt lat="45.77049144626868" lon="9.181332636496045"><ele>357.0</ele><time>2026-04-11T17:53:02Z</time></trkpt><trkpt lat="45.77035075081615" lon="9.181491446965756"><ele>356.6666666666667</ele><time>2026-04-11T17:53:03Z</time></trkpt><trkpt lat="45.77021077847726" lon="9.181640801390552"><ele>356.33333333333337</ele><time>2026-04-11T17:53:04Z</time></trkpt><trkpt lat="45.77008419627646" lon="9.18178116076875"><ele>356.0</ele><time>2026-04-11T17:53:05Z</time></trkpt><trkpt lat="45.76996214629124" lon="9.181911866843945"><ele>356.0</ele><time>2026-04-11T17:53:06Z</time></trkpt><trkpt lat="45.76984635478629" lon="9.182030316712796"><ele>356.0</ele><time>2026-04-11T17:53:07Z</time></trkpt><trkpt lat="45.7697426444929" lon="9.182125017103315"><ele>356.0</ele><time>2026-04-11T17:53:08Z</time></trkpt><trkpt lat="45.76965556183907" lon="9.182190275971394"><ele>356.0</ele><time>2026-04-11T17:53:09Z</time></trkpt><trkpt lat="45.76959473095946" lon="9.182239400149475"><ele>356.0</ele><time>2026-04-11T17:53:12Z</time></trkpt><trkpt lat="45.769503444422384" lon="9.182306379649456"><ele>356.0</ele><time>2026-04-11T17:53:14Z</time></trkpt><trkpt lat="45.769470230975536" lon="9.182426368807965"><ele>356.0</ele><time>2026-04-11T17:53:15Z</time></trkpt><trkpt lat="45.7694650346091" lon="9.182579437786906"><ele>356.0</ele><time>2026-04-11T17:53:16Z</time></trkpt><trkpt lat="45.7694412969387" lon="9.182745779627966"><ele>356.0</ele><time>2026-04-11T17:53:17Z</time></trkpt><trkpt lat="45.769394692191334" lon="9.182927263762517"><ele>356.0</ele><time>2026-04-11T17:53:18Z</time></trkpt><trkpt lat="45.76934664354804" lon="9.183119481775721"><ele>356.0</ele><time>2026-04-11T17:53:19Z</time></trkpt><trkpt lat="45.76930533730176" lon="9.183315119101687"><ele>356.0</ele><time>2026-04-11T17:53:20Z</time></trkpt><trkpt lat="45.76925955257398" lon="9.183526308119895"><ele>356.0</ele><time>2026-04-11T17:53:21Z</time></trkpt><trkpt lat="45.769208264884064" lon="9.183736140647207"><ele>356.0</ele><time>2026-04-11T17:53:22Z</time></trkpt><trkpt lat="45.76915244410034" lon="9.183944172580466"><ele>356.0</ele><time>2026-04-11T17:53:23Z</time></trkpt><trkpt lat="45.769086751033804" lon="9.18415222884489"><ele>356.0</ele><time>2026-04-11T17:53:24Z</time></trkpt><trkpt lat="45.769014892529846" lon="9.184354321750849"><ele>356.6666666666667</ele><time>2026-04-11T17:53:25Z</time></trkpt><trkpt lat="45.76893498237461" lon="9.184549348690485"><ele>357.3333333333333</ele><time>2026-04-11T17:53:26Z</time></trkpt><trkpt lat="45.768848004825536" lon="9.184737343683258"><ele>358.0</ele><time>2026-04-11T17:53:27Z</time></trkpt><trkpt lat="45.76875226330779" lon="9.18491484970256"><ele>358.66666666666663</ele><time>2026-04-11T17:53:28Z</time></trkpt><trkpt lat="45.76865046590989" lon="9.185090932281845"><ele>359.3333333333333</ele><time>2026-04-11T17:53:29Z</time></trkpt><trkpt lat="45.768547954202525" lon="9.185264622216973"><ele>360.0</ele><time>2026-04-11T17:53:30Z</time></trkpt><trkpt lat="45.76843896967577" lon="9.18543373958268"><ele>360.3333333333333</ele><time>2026-04-11T17:53:31Z</time></trkpt><trkpt lat="45.76832429084238" lon="9.185607154367338"><ele>360.66666666666663</ele><time>2026-04-11T17:53:32Z</time></trkpt><trkpt lat="45.76820192586737" lon="9.185767646715446"><ele>361.0</ele><time>2026-04-11T17:53:33Z</time></trkpt><trkpt lat="45.76808258649036" lon="9.185936057469307"><ele>360.0</ele><time>2026-04-11T17:53:34Z</time></trkpt><trkpt lat="45.76796494615934" lon="9.186103784455508"><ele>359.0</ele><time>2026-04-11T17:53:35Z</time></trkpt><trkpt lat="45.767848657730106" lon="9.186268660313607"><ele>358.0</ele><time>2026-04-11T17:53:36Z</time></trkpt><trkpt lat="45.76773448198322" lon="9.186434295494145"><ele>357.3333333333333</ele><time>2026-04-11T17:53:37Z</time></trkpt><trkpt lat="45.76761904211574" lon="9.186603545175858"><ele>356.6666666666667</ele><time>2026-04-11T17:53:38Z</time></trkpt><trkpt lat="45.767500272055415" lon="9.186780657855346"><ele>356.0</ele><time>2026-04-11T17:53:39Z</time></trkpt><trkpt lat="45.767388293992596" lon="9.186973938196017"><ele>356.0</ele><time>2026-04-11T17:53:40Z</time></trkpt><trkpt lat="45.76729700223572" lon="9.187189869920855"><ele>356.0</ele><time>2026-04-11T17:53:41Z</time></trkpt><trkpt lat="45.76723092026878" lon="9.187425360509907"><ele>356.0</ele><time>2026-04-11T17:53:42Z</time></trkpt><trkpt lat="45.76718881637482" lon="9.187672623848869"><ele>356.0</ele><time>2026-04-11T17:53:43Z</time></trkpt><trkpt lat="45.767165408008914" lon="9.187929343636384"><ele>356.0</ele><time>2026-04-11T17:53:44Z</time></trkpt><trkpt lat="45.767158720394676" lon="9.188195000922466"><ele>356.0</ele><time>2026-04-11T17:53:45Z</time></trkpt><trkpt lat="45.767174864349904" lon="9.188461584434677"><ele>356.0</ele><time>2026-04-11T17:53:46Z</time></trkpt><trkpt lat="45.767204457971836" lon="9.18873073329413"><ele>356.0</ele><time>2026-04-11T17:53:47Z</time></trkpt><trkpt lat="45.767233010489804" lon="9.189001589057222"><ele>356.0</ele><time>2026-04-11T17:53:48Z</time></trkpt><trkpt lat="45.76726181150694" lon="9.189275485566545"><ele>354.6666666666667</ele><time>2026-04-11T17:53:49Z</time></trkpt><trkpt lat="45.76728939847819" lon="9.189552359476755"><ele>353.3333333333333</ele><time>2026-04-11T17:53:50Z</time></trkpt><trkpt lat="45.767315515618115" lon="9.18981896355963"><ele>352.0</ele><time>2026-04-11T17:53:51Z</time></trkpt><trkpt lat="45.767341448236216" lon="9.190077491088816"><ele>351.3333333333333</ele><time>2026-04-11T17:53:52Z</time></trkpt><trkpt lat="45.76736635464388" lon="9.1903299861378"><ele>350.6666666666667</ele><time>2026-04-11T17:53:53Z</time></trkpt><trkpt lat="45.76739191362484" lon="9.190570575246145"><ele>350.0</ele><time>2026-04-11T17:53:54Z</time></trkpt><trkpt lat="45.76741540845248" lon="9.190762500099334"><ele>349.6666666666667</ele><time>2026-04-11T17:53:55Z</time></trkpt><trkpt lat="45.767436325685686" lon="9.190889366306786"><ele>349.33333333333337</ele><time>2026-04-11T17:53:56Z</time></trkpt><trkpt lat="45.76744978743121" lon="9.190992201278664"><ele>349.0</ele><time>2026-04-11T17:53:57Z</time></trkpt><trkpt lat="45.76745959025743" lon="9.191093838277938"><ele>348.6666666666667</ele><time>2026-04-11T17:53:58Z</time></trkpt><trkpt lat="45.76746205954321" lon="9.191204345448137"><ele>348.3333333333333</ele><time>2026-04-11T17:53:59Z</time></trkpt><trkpt lat="45.76747032007568" lon="9.191302740158275"><ele>348.0</ele><time>2026-04-11T17:54:00Z</time></trkpt><trkpt lat="45.76751989527446" lon="9.191398579353963"><ele>348.0</ele><time>2026-04-11T17:54:01Z</time></trkpt><trkpt lat="45.76759445099274" lon="9.191489989689517"><ele>348.0</ele><time>2026-04-11T17:54:02Z</time></trkpt><trkpt lat="45.76764815219591" lon="9.191618701246147"><ele>348.0</ele><time>2026-04-11T17:54:03Z</time></trkpt><trkpt lat="45.76771156728131" lon="9.191760473518297"><ele>348.0</ele><time>2026-04-11T17:54:04Z</time></trkpt><trkpt lat="45.767774864249574" lon="9.191930365457887"><ele>347.75</ele><time>2026-04-11T17:54:05Z</time></trkpt><trkpt lat="45.767843232427005" lon="9.192103875300424"><ele>347.5</ele><time>2026-04-11T17:54:06Z</time></trkpt><trkpt lat="45.76791591704076" lon="9.192284170491773"><ele>347.25</ele><time>2026-04-11T17:54:07Z</time></trkpt><trkpt lat="45.767997370200796" lon="9.19248951518911"><ele>347.0</ele><time>2026-04-11T17:54:08Z</time></trkpt><trkpt lat="45.768085871584546" lon="9.192708188946153"><ele>344.33333333333337</ele><time>2026-04-11T17:54:09Z</time></trkpt><trkpt lat="45.76817798686561" lon="9.192945332867149"><ele>341.6666666666667</ele><time>2026-04-11T17:54:10Z</time></trkpt><trkpt lat="45.76826823794077" lon="9.193185342813535"><ele>339.0</ele><time>2026-04-11T17:54:11Z</time></trkpt><trkpt lat="45.7683648519528" lon="9.193439472775522"><ele>337.6666666666667</ele><time>2026-04-11T17:54:12Z</time></trkpt><trkpt lat="45.76846236429723" lon="9.19370273212952"><ele>336.33333333333337</ele><time>2026-04-11T17:54:13Z</time></trkpt><trkpt lat="45.768559882464444" lon="9.193969773103472"><ele>335.0</ele><time>2026-04-11T17:54:14Z</time></trkpt><trkpt lat="45.76865386113887" lon="9.194228209983958"><ele>332.6666666666667</ele><time>2026-04-11T17:54:15Z</time></trkpt><trkpt lat="45.76874587073211" lon="9.19447569440606"><ele>330.3333333333333</ele><time>2026-04-11T17:54:16Z</time></trkpt><trkpt lat="45.76883517758312" lon="9.194717590493468"><ele>328.0</ele><time>2026-04-11T17:54:17Z</time></trkpt><trkpt lat="45.76892253792808" lon="9.194953659286469"><ele>328.0</ele><time>2026-04-11T17:54:18Z</time></trkpt><trkpt lat="45.769002470118" lon="9.195192488743594"><ele>328.0</ele><time>2026-04-11T17:54:19Z</time></trkpt><trkpt lat="45.769061999397465" lon="9.19543563331623"><ele>328.0</ele><time>2026-04-11T17:54:20Z</time></trkpt><trkpt lat="45.76910067354687" lon="9.195685946213988"><ele>327.3333333333333</ele><time>2026-04-11T17:54:21Z</time></trkpt><trkpt lat="45.76911917309648" lon="9.195948868765536"><ele>326.6666666666667</ele><time>2026-04-11T17:54:22Z</time></trkpt><trkpt lat="45.769120395529704" lon="9.196219905231649"><ele>326.0</ele><time>2026-04-11T17:54:23Z</time></trkpt><trkpt lat="45.76910228416129" lon="9.196492359664528"><ele>325.0</ele><time>2026-04-11T17:54:24Z</time></trkpt><trkpt lat="45.769069380943385" lon="9.19675216279309"><ele>324.0</ele><time>2026-04-11T17:54:25Z</time></trkpt><trkpt lat="45.76903068812081" lon="9.197006278998813"><ele>323.0</ele><time>2026-04-11T17:54:26Z</time></trkpt><trkpt lat="45.76899102976205" lon="9.197257460403524"><ele>323.0</ele><time>2026-04-11T17:54:27Z</time></trkpt><trkpt lat="45.76894679026468" lon="9.197500885974561"><ele>323.0</ele><time>2026-04-11T17:54:28Z</time></trkpt><trkpt lat="45.768887711734536" lon="9.197731039797011"><ele>323.0</ele><time>2026-04-11T17:54:29Z</time></trkpt><trkpt lat="45.76881324797002" lon="9.197948751883763"><ele>323.0</ele><time>2026-04-11T17:54:30Z</time></trkpt><trkpt lat="45.76873117294497" lon="9.198133807031029"><ele>323.0</ele><time>2026-04-11T17:54:31Z</time></trkpt><trkpt lat="45.76864898970707" lon="9.19827654313822"><ele>323.0</ele><time>2026-04-11T17:54:32Z</time></trkpt><trkpt lat="45.76856014912644" lon="9.19839149149793"><ele>323.0</ele><time>2026-04-11T17:54:33Z</time></trkpt><trkpt lat="45.768461074894574" lon="9.198476255980426"><ele>322.0</ele><time>2026-04-11T17:54:34Z</time></trkpt><trkpt lat="45.768367330988205" lon="9.198531297179578"><ele>321.0</ele><time>2026-04-11T17:54:35Z</time></trkpt><trkpt lat="45.768296774394905" lon="9.19856723544032"><ele>320.0</ele><time>2026-04-11T17:54:36Z</time></trkpt><trkpt lat="45.768233171367555" lon="9.198597859810016"><ele>319.0</ele><time>2026-04-11T17:54:37Z</time></trkpt><trkpt lat="45.76816935314853" lon="9.198631596228864"><ele>318.0</ele><time>2026-04-11T17:54:38Z</time></trkpt><trkpt lat="45.768106577136415" lon="9.198662519543324"><ele>317.0</ele><time>2026-04-11T17:54:39Z</time></trkpt><trkpt lat="45.767999655619164" lon="9.198721847686633"><ele>317.0</ele><time>2026-04-11T17:54:41Z</time></trkpt><trkpt lat="45.76789939857145" lon="9.198792473232938"><ele>317.0</ele><time>2026-04-11T17:54:43Z</time></trkpt><trkpt lat="45.767828921817475" lon="9.19880853217205"><ele>317.0</ele><time>2026-04-11T17:54:44Z</time></trkpt><trkpt lat="45.76771421942455" lon="9.19889535875321"><ele>317.0</ele><time>2026-04-11T17:54:46Z</time></trkpt><trkpt lat="45.76765116334225" lon="9.19899523485313"><ele>317.0</ele><time>2026-04-11T17:54:47Z</time></trkpt><trkpt lat="45.76758357078971" lon="9.199113860458505"><ele>316.75</ele><time>2026-04-11T17:54:48Z</time></trkpt><trkpt lat="45.76749548032415" lon="9.199240626845269"><ele>316.5</ele><time>2026-04-11T17:54:49Z</time></trkpt><trkpt lat="45.76739501223934" lon="9.199346273561789"><ele>316.25</ele><time>2026-04-11T17:54:50Z</time></trkpt><trkpt lat="45.767272250182884" lon="9.199444166370393"><ele>316.0</ele><time>2026-04-11T17:54:51Z</time></trkpt><trkpt lat="45.76714495180813" lon="9.199530692919925"><ele>316.0</ele><time>2026-04-11T17:54:52Z</time></trkpt><trkpt lat="45.767011144597824" lon="9.199633331657644"><ele>316.0</ele><time>2026-04-11T17:54:53Z</time></trkpt><trkpt lat="45.76685342407378" lon="9.199759686664189"><ele>316.0</ele><time>2026-04-11T17:54:54Z</time></trkpt><trkpt lat="45.76667451013159" lon="9.19988352714248"><ele>315.3333333333333</ele><time>2026-04-11T17:54:55Z</time></trkpt><trkpt lat="45.76648693389954" lon="9.1999784013856"><ele>314.6666666666667</ele><time>2026-04-11T17:54:56Z</time></trkpt><trkpt lat="45.7663120609641" lon="9.20003800255755"><ele>314.0</ele><time>2026-04-11T17:54:57Z</time></trkpt><trkpt lat="45.76613898458081" lon="9.200082346250255"><ele>315.6666666666667</ele><time>2026-04-11T17:54:58Z</time></trkpt><trkpt lat="45.7659723933653" lon="9.200120592124971"><ele>317.3333333333333</ele><time>2026-04-11T17:54:59Z</time></trkpt><trkpt lat="45.76580941069125" lon="9.200153702011514"><ele>319.0</ele><time>2026-04-11T17:55:00Z</time></trkpt><trkpt lat="45.765647565842336" lon="9.200188248698"><ele>319.0</ele><time>2026-04-11T17:55:01Z</time></trkpt><trkpt lat="45.76548298315345" lon="9.200222113422008"><ele>319.0</ele><time>2026-04-11T17:55:02Z</time></trkpt><trkpt lat="45.76530683260833" lon="9.200262712008596"><ele>319.0</ele><time>2026-04-11T17:55:03Z</time></trkpt><trkpt lat="45.76514860421079" lon="9.200290523566284"><ele>319.75</ele><time>2026-04-11T17:55:04Z</time></trkpt><trkpt lat="45.76500338023163" lon="9.200313173473063"><ele>320.5</ele><time>2026-04-11T17:55:05Z</time></trkpt><trkpt lat="45.76486438035426" lon="9.200366507941412"><ele>321.25</ele><time>2026-04-11T17:55:06Z</time></trkpt><trkpt lat="45.76473087769338" lon="9.200473158047767"><ele>322.0</ele><time>2026-04-11T17:55:07Z</time></trkpt><trkpt lat="45.7646151971763" lon="9.20062575965607"><ele>320.66666666666663</ele><time>2026-04-11T17:55:08Z</time></trkpt><trkpt lat="45.76452957314934" lon="9.200817254820276"><ele>319.3333333333333</ele><time>2026-04-11T17:55:09Z</time></trkpt><trkpt lat="45.764473769074556" lon="9.201035222235658"><ele>318.0</ele><time>2026-04-11T17:55:10Z</time></trkpt><trkpt lat="45.76442828230899" lon="9.20125722402794"><ele>318.0</ele><time>2026-04-11T17:55:11Z</time></trkpt><trkpt lat="45.76437413982811" lon="9.201460727833739"><ele>318.0</ele><time>2026-04-11T17:55:12Z</time></trkpt><trkpt lat="45.76432050319266" lon="9.2016570573737"><ele>318.0</ele><time>2026-04-11T17:55:13Z</time></trkpt><trkpt lat="45.76427264690145" lon="9.201840398095307"><ele>318.0</ele><time>2026-04-11T17:55:14Z</time></trkpt><trkpt lat="45.76422287284659" lon="9.202016377481067"><ele>318.5</ele><time>2026-04-11T17:55:15Z</time></trkpt><trkpt lat="45.764170576489626" lon="9.202187563852508"><ele>319.0</ele><time>2026-04-11T17:55:16Z</time></trkpt><trkpt lat="45.76410322952749" lon="9.20235973099532"><ele>319.5</ele><time>2026-04-11T17:55:17Z</time></trkpt><trkpt lat="45.76400737086127" lon="9.202521457899133"><ele>320.0</ele><time>2026-04-11T17:55:18Z</time></trkpt><trkpt lat="45.763891478169946" lon="9.202658799585162"><ele>319.0</ele><time>2026-04-11T17:55:19Z</time></trkpt><trkpt lat="45.76375752462126" lon="9.202771481794821"><ele>318.0</ele><time>2026-04-11T17:55:20Z</time></trkpt><trkpt lat="45.76362156704311" lon="9.202849808840524"><ele>317.0</ele><time>2026-04-11T17:55:21Z</time></trkpt><trkpt lat="45.76350273197602" lon="9.202892701890148"><ele>316.0</ele><time>2026-04-11T17:55:22Z</time></trkpt><trkpt lat="45.76340061409706" lon="9.202914855365771"><ele>315.5</ele><time>2026-04-11T17:55:23Z</time></trkpt><trkpt lat="45.76331786580781" lon="9.20291989228569"><ele>315.0</ele><time>2026-04-11T17:55:24Z</time></trkpt><trkpt lat="45.76323845822799" lon="9.202915873688626"><ele>314.5</ele><time>2026-04-11T17:55:25Z</time></trkpt><trkpt lat="45.76315843659908" lon="9.202903927598713"><ele>314.0</ele><time>2026-04-11T17:55:26Z</time></trkpt><trkpt lat="45.7630703258646" lon="9.202882886627103"><ele>313.5</ele><time>2026-04-11T17:55:27Z</time></trkpt><trkpt lat="45.7629837649342" lon="9.202880960024494"><ele>313.0</ele><time>2026-04-11T17:55:28Z</time></trkpt><trkpt lat="45.76290046251977" lon="9.202926075673865"><ele>313.0</ele><time>2026-04-11T17:55:29Z</time></trkpt><trkpt lat="45.76282750090329" lon="9.203025490742913"><ele>313.0</ele><time>2026-04-11T17:55:30Z</time></trkpt><trkpt lat="45.76276236752056" lon="9.203172748825896"><ele>313.0</ele><time>2026-04-11T17:55:31Z</time></trkpt><trkpt lat="45.76269561315793" lon="9.203350544911013"><ele>313.0</ele><time>2026-04-11T17:55:32Z</time></trkpt><trkpt lat="45.76261554034927" lon="9.203531165709798"><ele>312.66666666666663</ele><time>2026-04-11T17:55:33Z</time></trkpt><trkpt lat="45.7625245092208" lon="9.20372297922766"><ele>312.3333333333333</ele><time>2026-04-11T17:55:34Z</time></trkpt><trkpt lat="45.762426156538616" lon="9.203927973952856"><ele>312.0</ele><time>2026-04-11T17:55:35Z</time></trkpt><trkpt lat="45.76232492935251" lon="9.204143393326968"><ele>312.0</ele><time>2026-04-11T17:55:36Z</time></trkpt><trkpt lat="45.76222318365987" lon="9.204364656922918"><ele>312.0</ele><time>2026-04-11T17:55:37Z</time></trkpt><trkpt lat="45.762119925265154" lon="9.20459575965993"><ele>312.0</ele><time>2026-04-11T17:55:38Z</time></trkpt><trkpt lat="45.76201262010362" lon="9.204833938707496"><ele>311.6666666666667</ele><time>2026-04-11T17:55:39Z</time></trkpt><trkpt lat="45.76190575688747" lon="9.205066126240252"><ele>311.33333333333337</ele><time>2026-04-11T17:55:40Z</time></trkpt><trkpt lat="45.761795229180464" lon="9.205303274853547"><ele>311.0</ele><time>2026-04-11T17:55:41Z</time></trkpt><trkpt lat="45.76168326407922" lon="9.205547121654009"><ele>311.0</ele><time>2026-04-11T17:55:42Z</time></trkpt><trkpt lat="45.7615717384571" lon="9.205795276860071"><ele>311.0</ele><time>2026-04-11T17:55:43Z</time></trkpt><trkpt lat="45.76145696242601" lon="9.206043940238205"><ele>311.0</ele><time>2026-04-11T17:55:44Z</time></trkpt><trkpt lat="45.76133867255096" lon="9.20629637244571"><ele>311.33333333333337</ele><time>2026-04-11T17:55:45Z</time></trkpt><trkpt lat="45.76122090175949" lon="9.206545626958217"><ele>311.6666666666667</ele><time>2026-04-11T17:55:46Z</time></trkpt><trkpt lat="45.761106926314724" lon="9.206787239529131"><ele>312.0</ele><time>2026-04-11T17:55:47Z</time></trkpt><trkpt lat="45.76099281006112" lon="9.207016654246226"><ele>312.0</ele><time>2026-04-11T17:55:48Z</time></trkpt><trkpt lat="45.76086629250331" lon="9.207225372925436"><ele>312.0</ele><time>2026-04-11T17:55:49Z</time></trkpt><trkpt lat="45.76072216614194" lon="9.207408724460347"><ele>312.0</ele><time>2026-04-11T17:55:50Z</time></trkpt><trkpt lat="45.76057060982036" lon="9.207582470594893"><ele>311.6666666666667</ele><time>2026-04-11T17:55:51Z</time></trkpt><trkpt lat="45.76041325645313" lon="9.207752705318022"><ele>311.33333333333337</ele><time>2026-04-11T17:55:52Z</time></trkpt><trkpt lat="45.76025823315519" lon="9.207918256278901"><ele>311.0</ele><time>2026-04-11T17:55:53Z</time></trkpt><trkpt lat="45.760109973770746" lon="9.208076773816346"><ele>309.6666666666667</ele><time>2026-04-11T17:55:54Z</time></trkpt><trkpt lat="45.75996492556005" lon="9.208231841519611"><ele>308.3333333333333</ele><time>2026-04-11T17:55:55Z</time></trkpt><trkpt lat="45.759820566357" lon="9.20838592208901"><ele>307.0</ele><time>2026-04-11T17:55:56Z</time></trkpt><trkpt lat="45.75965891001978" lon="9.208556690673772"><ele>307.0</ele><time>2026-04-11T17:55:57Z</time></trkpt><trkpt lat="45.75949202715656" lon="9.2087288892943"><ele>307.0</ele><time>2026-04-11T17:55:58Z</time></trkpt><trkpt lat="45.75933344159164" lon="9.208887854891756"><ele>307.0</ele><time>2026-04-11T17:55:59Z</time></trkpt><trkpt lat="45.75917239789045" lon="9.209030924285571"><ele>306.3333333333333</ele><time>2026-04-11T17:56:00Z</time></trkpt><trkpt lat="45.75901280973375" lon="9.209150379960944"><ele>305.6666666666667</ele><time>2026-04-11T17:56:01Z</time></trkpt><trkpt lat="45.75887137476356" lon="9.209249162931458"><ele>305.0</ele><time>2026-04-11T17:56:02Z</time></trkpt><trkpt lat="45.75873567598366" lon="9.20933577736439"><ele>305.0</ele><time>2026-04-11T17:56:03Z</time></trkpt><trkpt lat="45.758602074966845" lon="9.209414425936497"><ele>305.0</ele><time>2026-04-11T17:56:04Z</time></trkpt><trkpt lat="45.758456554610106" lon="9.209483326303264"><ele>305.0</ele><time>2026-04-11T17:56:05Z</time></trkpt><trkpt lat="45.758325378277895" lon="9.209531798321992"><ele>305.0</ele><time>2026-04-11T17:56:06Z</time></trkpt><trkpt lat="45.758222220213916" lon="9.20961272288627"><ele>305.25</ele><time>2026-04-11T17:56:07Z</time></trkpt><trkpt lat="45.75815318879972" lon="9.209738759507664"><ele>305.5</ele><time>2026-04-11T17:56:08Z</time></trkpt><trkpt lat="45.7581220577353" lon="9.209896337326736"><ele>305.75</ele><time>2026-04-11T17:56:09Z</time></trkpt><trkpt lat="45.75812641524937" lon="9.210076469197912"><ele>306.0</ele><time>2026-04-11T17:56:10Z</time></trkpt><trkpt lat="45.75815023332426" lon="9.210273951449473"><ele>306.3333333333333</ele><time>2026-04-11T17:56:11Z</time></trkpt><trkpt lat="45.75812080177728" lon="9.210481665075303"><ele>306.66666666666663</ele><time>2026-04-11T17:56:12Z</time></trkpt><trkpt lat="45.75806260155533" lon="9.210695746779416"><ele>307.0</ele><time>2026-04-11T17:56:13Z</time></trkpt><trkpt lat="45.75801620080537" lon="9.210933104839096"><ele>307.0</ele><time>2026-04-11T17:56:14Z</time></trkpt><trkpt lat="45.7580004947619" lon="9.211188311639269"><ele>307.0</ele><time>2026-04-11T17:56:15Z</time></trkpt><trkpt lat="45.75800483696156" lon="9.211442209480712"><ele>307.0</ele><time>2026-04-11T17:56:16Z</time></trkpt><trkpt lat="45.75802417787454" lon="9.211708354034425"><ele>307.3333333333333</ele><time>2026-04-11T17:56:17Z</time></trkpt><trkpt lat="45.758063656713794" lon="9.211973193858123"><ele>307.6666666666667</ele><time>2026-04-11T17:56:18Z</time></trkpt><trkpt lat="45.75812043824855" lon="9.212225523046586"><ele>308.0</ele><time>2026-04-11T17:56:19Z</time></trkpt><trkpt lat="45.758194004098826" lon="9.212474674705824"><ele>309.6666666666667</ele><time>2026-04-11T17:56:20Z</time></trkpt><trkpt lat="45.7582721620995" lon="9.21272178402725"><ele>311.3333333333333</ele><time>2026-04-11T17:56:21Z</time></trkpt><trkpt lat="45.75834950159636" lon="9.212979088842413"><ele>313.0</ele><time>2026-04-11T17:56:22Z</time></trkpt><trkpt lat="45.75842449243787" lon="9.213240839236892"><ele>311.3333333333333</ele><time>2026-04-11T17:56:23Z</time></trkpt><trkpt lat="45.758498880739296" lon="9.213504210414012"><ele>309.6666666666667</ele><time>2026-04-11T17:56:24Z</time></trkpt><trkpt lat="45.75857426425538" lon="9.213764418384375"><ele>308.0</ele><time>2026-04-11T17:56:25Z</time></trkpt><trkpt lat="45.7586504397601" lon="9.214020242741169"><ele>308.0</ele><time>2026-04-11T17:56:26Z</time></trkpt><trkpt lat="45.75873093288456" lon="9.21427312081938"><ele>308.0</ele><time>2026-04-11T17:56:27Z</time></trkpt><trkpt lat="45.75880230368642" lon="9.214527812092323"><ele>308.0</ele><time>2026-04-11T17:56:28Z</time></trkpt><trkpt lat="45.75887587606602" lon="9.214782802957654"><ele>310.0</ele><time>2026-04-11T17:56:29Z</time></trkpt><trkpt lat="45.758948804359534" lon="9.215037490685452"><ele>312.0</ele><time>2026-04-11T17:56:30Z</time></trkpt><trkpt lat="45.75901995833169" lon="9.21528865011289"><ele>314.0</ele><time>2026-04-11T17:56:31Z</time></trkpt><trkpt lat="45.75909289793735" lon="9.215538696221442"><ele>317.33333333333337</ele><time>2026-04-11T17:56:32Z</time></trkpt><trkpt lat="45.75916497692748" lon="9.215784010139275"><ele>320.6666666666667</ele><time>2026-04-11T17:56:33Z</time></trkpt><trkpt lat="45.75923146440711" lon="9.216019210320493"><ele>324.0</ele><time>2026-04-11T17:56:34Z</time></trkpt><trkpt lat="45.759292419016084" lon="9.216242756157424"><ele>324.0</ele><time>2026-04-11T17:56:35Z</time></trkpt><trkpt lat="45.75934562367437" lon="9.21646005082337"><ele>324.0</ele><time>2026-04-11T17:56:36Z</time></trkpt><trkpt lat="45.759374460949125" lon="9.216673111233993"><ele>324.0</ele><time>2026-04-11T17:56:37Z</time></trkpt><trkpt lat="45.7593666525909" lon="9.216901890487343"><ele>326.3333333333333</ele><time>2026-04-11T17:56:38Z</time></trkpt><trkpt lat="45.759346718202146" lon="9.217143534241329"><ele>328.66666666666663</ele><time>2026-04-11T17:56:39Z</time></trkpt><trkpt lat="45.75933095277762" lon="9.217364364826286"><ele>331.0</ele><time>2026-04-11T17:56:40Z</time></trkpt><trkpt lat="45.759312839386574" lon="9.217584420069548"><ele>332.0</ele><time>2026-04-11T17:56:41Z</time></trkpt><trkpt lat="45.7592969054958" lon="9.217813753087507"><ele>333.0</ele><time>2026-04-11T17:56:42Z</time></trkpt><trkpt lat="45.75928145727905" lon="9.218045128348543"><ele>334.0</ele><time>2026-04-11T17:56:43Z</time></trkpt><trkpt lat="45.759269335407616" lon="9.218276109348917"><ele>335.0</ele><time>2026-04-11T17:56:44Z</time></trkpt><trkpt lat="45.75925457417662" lon="9.218509557608028"><ele>336.0</ele><time>2026-04-11T17:56:45Z</time></trkpt><trkpt lat="45.75923765610384" lon="9.218747040511136"><ele>337.0</ele><time>2026-04-11T17:56:46Z</time></trkpt><trkpt lat="45.75922209540885" lon="9.218987207863918"><ele>338.0</ele><time>2026-04-11T17:56:47Z</time></trkpt><trkpt lat="45.75920656969985" lon="9.21923326778732"><ele>339.0</ele><time>2026-04-11T17:56:48Z</time></trkpt><trkpt lat="45.75918998159184" lon="9.219471492843661"><ele>340.0</ele><time>2026-04-11T17:56:49Z</time></trkpt><trkpt lat="45.75917305951339" lon="9.219704440458026"><ele>339.5</ele><time>2026-04-11T17:56:50Z</time></trkpt><trkpt lat="45.75915101097165" lon="9.219925720338912"><ele>339.0</ele><time>2026-04-11T17:56:51Z</time></trkpt><trkpt lat="45.75911777289052" lon="9.220129036610123"><ele>338.5</ele><time>2026-04-11T17:56:52Z</time></trkpt><trkpt lat="45.7590640345819" lon="9.220318835340027"><ele>338.0</ele><time>2026-04-11T17:56:53Z</time></trkpt><trkpt lat="45.75897586346126" lon="9.220502373274794"><ele>337.33333333333337</ele><time>2026-04-11T17:56:54Z</time></trkpt><trkpt lat="45.75887651645805" lon="9.220693514295982"><ele>336.6666666666667</ele><time>2026-04-11T17:56:55Z</time></trkpt><trkpt lat="45.75878844426367" lon="9.220893037475786"><ele>336.0</ele><time>2026-04-11T17:56:56Z</time></trkpt><trkpt lat="45.75869685541393" lon="9.221093106521066"><ele>336.0</ele><time>2026-04-11T17:56:57Z</time></trkpt><trkpt lat="45.75860141328497" lon="9.221303388028648"><ele>336.0</ele><time>2026-04-11T17:56:58Z</time></trkpt><trkpt lat="45.758506331183945" lon="9.221520481207063"><ele>336.0</ele><time>2026-04-11T17:56:59Z</time></trkpt><trkpt lat="45.75841524554623" lon="9.221731450091108"><ele>335.6666666666667</ele><time>2026-04-11T17:57:00Z</time></trkpt><trkpt lat="45.75832628872165" lon="9.221943530602246"><ele>335.33333333333337</ele><time>2026-04-11T17:57:01Z</time></trkpt><trkpt lat="45.75823829220398" lon="9.222169167416023"><ele>335.0</ele><time>2026-04-11T17:57:02Z</time></trkpt><trkpt lat="45.75815230976071" lon="9.222411499619886"><ele>334.0</ele><time>2026-04-11T17:57:03Z</time></trkpt><trkpt lat="45.75807304522888" lon="9.222669226682614"><ele>333.0</ele><time>2026-04-11T17:57:04Z</time></trkpt><trkpt lat="45.75799641675084" lon="9.222937237335277"><ele>332.0</ele><time>2026-04-11T17:57:05Z</time></trkpt><trkpt lat="45.757926638713876" lon="9.22321428299974"><ele>330.0</ele><time>2026-04-11T17:57:06Z</time></trkpt><trkpt lat="45.75786777552831" lon="9.223497052972865"><ele>328.0</ele><time>2026-04-11T17:57:07Z</time></trkpt><trkpt lat="45.75782422340402" lon="9.223785779583965"><ele>326.0</ele><time>2026-04-11T17:57:08Z</time></trkpt><trkpt lat="45.7578040010493" lon="9.224074463420653"><ele>325.0</ele><time>2026-04-11T17:57:09Z</time></trkpt><trkpt lat="45.757803246853875" lon="9.224342610925994"><ele>324.0</ele><time>2026-04-11T17:57:10Z</time></trkpt><trkpt lat="45.757804899901586" lon="9.22457485012333"><ele>323.0</ele><time>2026-04-11T17:57:11Z</time></trkpt><trkpt lat="45.75780024325432" lon="9.224772918509261"><ele>322.79999999999995</ele><time>2026-04-11T17:57:12Z</time></trkpt><trkpt lat="45.75778595553237" lon="9.224936482143912"><ele>322.6</ele><time>2026-04-11T17:57:13Z</time></trkpt><trkpt lat="45.75776015175782" lon="9.225081136533502"><ele>322.4</ele><time>2026-04-11T17:57:14Z</time></trkpt><trkpt lat="45.75772950226433" lon="9.225186490449785"><ele>322.20000000000005</ele><time>2026-04-11T17:57:15Z</time></trkpt><trkpt lat="45.757648485801276" lon="9.225328199031294"><ele>322.0</ele><time>2026-04-11T17:57:17Z</time></trkpt><trkpt lat="45.75758178353294" lon="9.22539863104975"><ele>323.0</ele><time>2026-04-11T17:57:18Z</time></trkpt><trkpt lat="45.75750541151763" lon="9.225457534167235"><ele>324.0</ele><time>2026-04-11T17:57:19Z</time></trkpt><trkpt lat="45.75741424620876" lon="9.225474496094492"><ele>325.0</ele><time>2026-04-11T17:57:20Z</time></trkpt><trkpt lat="45.75731161182783" lon="9.225444950259208"><ele>326.0</ele><time>2026-04-11T17:57:21Z</time></trkpt><trkpt lat="45.757218413535085" lon="9.225409296942184"><ele>327.0</ele><time>2026-04-11T17:57:22Z</time></trkpt><trkpt lat="45.75713158465876" lon="9.225385260180987"><ele>327.0</ele><time>2026-04-11T17:57:23Z</time></trkpt><trkpt lat="45.757052196146084" lon="9.225357213634954"><ele>327.0</ele><time>2026-04-11T17:57:24Z</time></trkpt><trkpt lat="45.75698207786361" lon="9.225327259361919"><ele>327.0</ele><time>2026-04-11T17:57:25Z</time></trkpt><trkpt lat="45.75691644195479" lon="9.225273230142465"><ele>327.0</ele><time>2026-04-11T17:57:26Z</time></trkpt><trkpt lat="45.756849796882115" lon="9.225192304802357"><ele>327.0</ele><time>2026-04-11T17:57:27Z</time></trkpt><trkpt lat="45.756760005589804" lon="9.225153625002463"><ele>327.0</ele><time>2026-04-11T17:57:28Z</time></trkpt><trkpt lat="45.756658139599146" lon="9.225151250739259"><ele>327.75</ele><time>2026-04-11T17:57:29Z</time></trkpt><trkpt lat="45.756554989664636" lon="9.225118158599903"><ele>328.5</ele><time>2026-04-11T17:57:30Z</time></trkpt><trkpt lat="45.756447126357216" lon="9.225060025251379"><ele>329.25</ele><time>2026-04-11T17:57:31Z</time></trkpt><trkpt lat="45.75634510652706" lon="9.22499423023587"><ele>330.0</ele><time>2026-04-11T17:57:32Z</time></trkpt><trkpt lat="45.756231067775154" lon="9.22491742876179"><ele>330.0</ele><time>2026-04-11T17:57:33Z</time></trkpt><trkpt lat="45.75610703939023" lon="9.224839542267896"><ele>330.0</ele><time>2026-04-11T17:57:34Z</time></trkpt><trkpt lat="45.75597444694694" lon="9.224758691070964"><ele>330.0</ele><time>2026-04-11T17:57:35Z</time></trkpt><trkpt lat="45.75583395055443" lon="9.224672272596637"><ele>330.0</ele><time>2026-04-11T17:57:36Z</time></trkpt><trkpt lat="45.755688226627" lon="9.224578312450197"><ele>331.0</ele><time>2026-04-11T17:57:37Z</time></trkpt><trkpt lat="45.755546863018644" lon="9.224485970115309"><ele>332.0</ele><time>2026-04-11T17:57:38Z</time></trkpt><trkpt lat="45.7554000637657" lon="9.224393055328875"><ele>333.0</ele><time>2026-04-11T17:57:39Z</time></trkpt><trkpt lat="45.755253166614224" lon="9.224298740391022"><ele>334.3333333333333</ele><time>2026-04-11T17:57:40Z</time></trkpt><trkpt lat="45.75510788885717" lon="9.224205918455054"><ele>335.66666666666663</ele><time>2026-04-11T17:57:41Z</time></trkpt><trkpt lat="45.75495949394919" lon="9.224110228904307"><ele>337.0</ele><time>2026-04-11T17:57:42Z</time></trkpt><trkpt lat="45.75480493934232" lon="9.224012669620679"><ele>336.66666666666663</ele><time>2026-04-11T17:57:43Z</time></trkpt><trkpt lat="45.75464588365994" lon="9.223912772523674"><ele>336.3333333333333</ele><time>2026-04-11T17:57:44Z</time></trkpt><trkpt lat="45.75448519442116" lon="9.223808982638108"><ele>336.0</ele><time>2026-04-11T17:57:45Z</time></trkpt><trkpt lat="45.75432868345623" lon="9.223710042057021"><ele>336.0</ele><time>2026-04-11T17:57:46Z</time></trkpt><trkpt lat="45.75418217694291" lon="9.223617558609908"><ele>336.0</ele><time>2026-04-11T17:57:47Z</time></trkpt><trkpt lat="45.754043441664194" lon="9.22353123138449"><ele>336.0</ele><time>2026-04-11T17:57:48Z</time></trkpt><trkpt lat="45.75391318980488" lon="9.223457203250902"><ele>336.0</ele><time>2026-04-11T17:57:49Z</time></trkpt><trkpt lat="45.753790486097294" lon="9.22339022044309"><ele>336.0</ele><time>2026-04-11T17:57:50Z</time></trkpt><trkpt lat="45.75368168017986" lon="9.223324291154425"><ele>336.0</ele><time>2026-04-11T17:57:51Z</time></trkpt><trkpt lat="45.75357843741005" lon="9.223252934327178"><ele>336.0</ele><time>2026-04-11T17:57:52Z</time></trkpt><trkpt lat="45.753464920674496" lon="9.223188636389517"><ele>336.25</ele><time>2026-04-11T17:57:53Z</time></trkpt><trkpt lat="45.753337593538554" lon="9.223124813276208"><ele>336.5</ele><time>2026-04-11T17:57:54Z</time></trkpt><trkpt lat="45.7532106394855" lon="9.22302660238713"><ele>336.75</ele><time>2026-04-11T17:57:55Z</time></trkpt><trkpt lat="45.75307488998692" lon="9.222931317426157"><ele>337.0</ele><time>2026-04-11T17:57:56Z</time></trkpt><trkpt lat="45.75293534891606" lon="9.222835952929923"><ele>337.0</ele><time>2026-04-11T17:57:57Z</time></trkpt><trkpt lat="45.75279579355232" lon="9.222745399279079"><ele>337.0</ele><time>2026-04-11T17:57:58Z</time></trkpt><trkpt lat="45.75265512094826" lon="9.222653417124397"><ele>337.0</ele><time>2026-04-11T17:57:59Z</time></trkpt><trkpt lat="45.75250973878795" lon="9.222558601073061"><ele>336.66666666666663</ele><time>2026-04-11T17:58:00Z</time></trkpt><trkpt lat="45.75235804247439" lon="9.222456815941667"><ele>336.3333333333333</ele><time>2026-04-11T17:58:01Z</time></trkpt><trkpt lat="45.752201048789985" lon="9.222350840775285"><ele>336.0</ele><time>2026-04-11T17:58:02Z</time></trkpt><trkpt lat="45.75204155019475" lon="9.222240309810003"><ele>336.0</ele><time>2026-04-11T17:58:03Z</time></trkpt><trkpt lat="45.75187686626319" lon="9.222123670354014"><ele>336.0</ele><time>2026-04-11T17:58:04Z</time></trkpt><trkpt lat="45.75170844130644" lon="9.222000848029923"><ele>336.0</ele><time>2026-04-11T17:58:05Z</time></trkpt><trkpt lat="45.751537578163656" lon="9.22187877429923"><ele>336.3333333333333</ele><time>2026-04-11T17:58:06Z</time></trkpt><trkpt lat="45.751350973999244" lon="9.221749726714473"><ele>336.66666666666663</ele><time>2026-04-11T17:58:07Z</time></trkpt><trkpt lat="45.75114319818235" lon="9.221609172493986"><ele>337.0</ele><time>2026-04-11T17:58:08Z</time></trkpt><trkpt lat="45.750951513428035" lon="9.221475160601404"><ele>337.3333333333333</ele><time>2026-04-11T17:58:09Z</time></trkpt><trkpt lat="45.750771251667295" lon="9.221345388034164"><ele>337.6666666666667</ele><time>2026-04-11T17:58:10Z</time></trkpt><trkpt lat="45.75059741767897" lon="9.22122152837518"><ele>338.0</ele><time>2026-04-11T17:58:11Z</time></trkpt><trkpt lat="45.750430154798416" lon="9.221104918923404"><ele>338.0</ele><time>2026-04-11T17:58:12Z</time></trkpt><trkpt lat="45.75026870888462" lon="9.220994358290644"><ele>338.0</ele><time>2026-04-11T17:58:13Z</time></trkpt><trkpt lat="45.750114021551575" lon="9.22088547083684"><ele>338.0</ele><time>2026-04-11T17:58:14Z</time></trkpt><trkpt lat="45.749962269978084" lon="9.220780017226389"><ele>338.33333333333337</ele><time>2026-04-11T17:58:15Z</time></trkpt><trkpt lat="45.749807555360725" lon="9.220676489550105"><ele>338.6666666666667</ele><time>2026-04-11T17:58:16Z</time></trkpt><trkpt lat="45.74965134354035" lon="9.220580083845697"><ele>339.0</ele><time>2026-04-11T17:58:17Z</time></trkpt><trkpt lat="45.749490370521485" lon="9.220498457803798"><ele>338.6666666666667</ele><time>2026-04-11T17:58:18Z</time></trkpt><trkpt lat="45.74933521876712" lon="9.220439988705678"><ele>338.33333333333337</ele><time>2026-04-11T17:58:19Z</time></trkpt><trkpt lat="45.74918695954485" lon="9.22039719878187"><ele>338.0</ele><time>2026-04-11T17:58:20Z</time></trkpt><trkpt lat="45.749044027282636" lon="9.220360407383517"><ele>338.0</ele><time>2026-04-11T17:58:21Z</time></trkpt><trkpt lat="45.748906164164985" lon="9.220324840585032"><ele>338.0</ele><time>2026-04-11T17:58:22Z</time></trkpt><trkpt lat="45.74878729785195" lon="9.220295535772037"><ele>338.0</ele><time>2026-04-11T17:58:23Z</time></trkpt><trkpt lat="45.748697968989156" lon="9.220272002669684"><ele>338.0</ele><time>2026-04-11T17:58:24Z</time></trkpt><trkpt lat="45.748625156797765" lon="9.220242626090885"><ele>338.0</ele><time>2026-04-11T17:58:25Z</time></trkpt><trkpt lat="45.74855955144643" lon="9.220196356699018"><ele>338.0</ele><time>2026-04-11T17:58:26Z</time></trkpt><trkpt lat="45.748484600333846" lon="9.220150708199984"><ele>338.0</ele><time>2026-04-11T17:58:27Z</time></trkpt><trkpt lat="45.74839422729417" lon="9.22013428027813"><ele>338.0</ele><time>2026-04-11T17:58:28Z</time></trkpt><trkpt lat="45.748289699022706" lon="9.220138483953091"><ele>338.0</ele><time>2026-04-11T17:58:29Z</time></trkpt><trkpt lat="45.74817193606323" lon="9.220112106973419"><ele>338.0</ele><time>2026-04-11T17:58:30Z</time></trkpt><trkpt lat="45.748044350536254" lon="9.22007653666431"><ele>338.0</ele><time>2026-04-11T17:58:31Z</time></trkpt><trkpt lat="45.74790735734682" lon="9.220041852108853"><ele>338.0</ele><time>2026-04-11T17:58:32Z</time></trkpt><trkpt lat="45.74776179589773" lon="9.22000491056942"><ele>338.0</ele><time>2026-04-11T17:58:33Z</time></trkpt><trkpt lat="45.74761578119108" lon="9.219967557426575"><ele>338.0</ele><time>2026-04-11T17:58:34Z</time></trkpt><trkpt lat="45.74745953758838" lon="9.219927950020676"><ele>338.0</ele><time>2026-04-11T17:58:35Z</time></trkpt><trkpt lat="45.74729534143212" lon="9.219884797568639"><ele>338.0</ele><time>2026-04-11T17:58:36Z</time></trkpt><trkpt lat="45.74712384513299" lon="9.219837818138242"><ele>338.0</ele><time>2026-04-11T17:58:37Z</time></trkpt><trkpt lat="45.746945177844374" lon="9.219788978206251"><ele>338.33333333333337</ele><time>2026-04-11T17:58:38Z</time></trkpt><trkpt lat="45.74677057059362" lon="9.219742928727829"><ele>338.6666666666667</ele><time>2026-04-11T17:58:39Z</time></trkpt><trkpt lat="45.74659065121093" lon="9.21969787021906"><ele>339.0</ele><time>2026-04-11T17:58:40Z</time></trkpt><trkpt lat="45.74640539475116" lon="9.219649168551454"><ele>339.0</ele><time>2026-04-11T17:58:41Z</time></trkpt><trkpt lat="45.74621976440262" lon="9.21959469952938"><ele>339.0</ele><time>2026-04-11T17:58:42Z</time></trkpt><trkpt lat="45.74603571753173" lon="9.219538743284339"><ele>339.0</ele><time>2026-04-11T17:58:43Z</time></trkpt><trkpt lat="45.74584646364212" lon="9.219466726504537"><ele>339.0</ele><time>2026-04-11T17:58:44Z</time></trkpt><trkpt lat="45.74565873146664" lon="9.219360954017219"><ele>339.0</ele><time>2026-04-11T17:58:45Z</time></trkpt><trkpt lat="45.74547477431218" lon="9.219224142621805"><ele>339.0</ele><time>2026-04-11T17:58:46Z</time></trkpt><trkpt lat="45.74529588335992" lon="9.219055216638441"><ele>340.3333333333333</ele><time>2026-04-11T17:58:47Z</time></trkpt><trkpt lat="45.745118794614335" lon="9.218869119614665"><ele>341.66666666666663</ele><time>2026-04-11T17:58:48Z</time></trkpt><trkpt lat="45.74494062175581" lon="9.218672543059855"><ele>343.0</ele><time>2026-04-11T17:58:49Z</time></trkpt><trkpt lat="45.744757339614054" lon="9.218472587557073"><ele>343.0</ele><time>2026-04-11T17:58:50Z</time></trkpt><trkpt lat="45.74457014677811" lon="9.218275952073869"><ele>343.0</ele><time>2026-04-11T17:58:51Z</time></trkpt><trkpt lat="45.74438073167613" lon="9.21807929759885"><ele>346.0</ele><time>2026-04-11T17:58:52Z</time></trkpt><trkpt lat="45.74419229327492" lon="9.217881857893945"><ele>349.0</ele><time>2026-04-11T17:58:53Z</time></trkpt><trkpt lat="45.744007515525254" lon="9.217684924001194"><ele>349.0</ele><time>2026-04-11T17:58:54Z</time></trkpt><trkpt lat="45.7438233491326" lon="9.217489292038719"><ele>349.0</ele><time>2026-04-11T17:58:55Z</time></trkpt><trkpt lat="45.743640284158815" lon="9.21729302137848"><ele>351.5</ele><time>2026-04-11T17:58:56Z</time></trkpt><trkpt lat="45.743457267327" lon="9.217098268863241"><ele>354.0</ele><time>2026-04-11T17:58:57Z</time></trkpt><trkpt lat="45.743276649245175" lon="9.216900708356745"><ele>354.0</ele><time>2026-04-11T17:58:58Z</time></trkpt><trkpt lat="45.74309507551448" lon="9.21670632364858"><ele>354.0</ele><time>2026-04-11T17:58:59Z</time></trkpt><trkpt lat="45.742912471755126" lon="9.216511187673396"><ele>355.0</ele><time>2026-04-11T17:59:00Z</time></trkpt><trkpt lat="45.742732023961274" lon="9.216317523484905"><ele>356.0</ele><time>2026-04-11T17:59:01Z</time></trkpt><trkpt lat="45.74255202817657" lon="9.21612621707666"><ele>356.0</ele><time>2026-04-11T17:59:02Z</time></trkpt><trkpt lat="45.74237442278866" lon="9.215937495435307"><ele>356.0</ele><time>2026-04-11T17:59:03Z</time></trkpt><trkpt lat="45.74219738087672" lon="9.215757990303949"><ele>356.0</ele><time>2026-04-11T17:59:04Z</time></trkpt><trkpt lat="45.74202472637779" lon="9.21560246321169"><ele>356.6666666666667</ele><time>2026-04-11T17:59:05Z</time></trkpt><trkpt lat="45.741852929189164" lon="9.2154742958019"><ele>357.3333333333333</ele><time>2026-04-11T17:59:06Z</time></trkpt><trkpt lat="45.74168369512085" lon="9.215377404317985"><ele>358.0</ele><time>2026-04-11T17:59:07Z</time></trkpt><trkpt lat="45.74152841520268" lon="9.215311143182962"><ele>358.0</ele><time>2026-04-11T17:59:08Z</time></trkpt><trkpt lat="45.74138216531591" lon="9.2152606884447"><ele>358.0</ele><time>2026-04-11T17:59:09Z</time></trkpt><trkpt lat="45.74125253213435" lon="9.215219482359185"><ele>358.0</ele><time>2026-04-11T17:59:10Z</time></trkpt><trkpt lat="45.741143783044315" lon="9.215188390512665"><ele>358.0</ele><time>2026-04-11T17:59:11Z</time></trkpt><trkpt lat="45.741055519953896" lon="9.21516514307881"><ele>357.4</ele><time>2026-04-11T17:59:12Z</time></trkpt><trkpt lat="45.740985483604405" lon="9.215144310474466"><ele>356.79999999999995</ele><time>2026-04-11T17:59:13Z</time></trkpt><trkpt lat="45.74089199521229" lon="9.21511539100678"><ele>356.2</ele><time>2026-04-11T17:59:15Z</time></trkpt><trkpt lat="45.74082323182361" lon="9.215082790556117"><ele>355.6</ele><time>2026-04-11T18:00:14Z</time></trkpt><trkpt lat="45.74067715223986" lon="9.215053797188805"><ele>355.0</ele><time>2026-04-11T18:00:16Z</time></trkpt><trkpt lat="45.74056547752608" lon="9.215023736091208"><ele>355.0</ele><time>2026-04-11T18:00:17Z</time></trkpt><trkpt lat="45.74043858763486" lon="9.214986372963397"><ele>355.0</ele><time>2026-04-11T18:00:18Z</time></trkpt><trkpt lat="45.74029536255991" lon="9.21495056894478"><ele>355.0</ele><time>2026-04-11T18:00:19Z</time></trkpt><trkpt lat="45.740140455141486" lon="9.214913944158146"><ele>355.0</ele><time>2026-04-11T18:00:20Z</time></trkpt><trkpt lat="45.73997926288675" lon="9.21487426185124"><ele>354.3333333333333</ele><time>2026-04-11T18:00:21Z</time></trkpt><trkpt lat="45.739810821451144" lon="9.214830468186848"><ele>353.6666666666667</ele><time>2026-04-11T18:00:22Z</time></trkpt><trkpt lat="45.739638885301275" lon="9.214784753010237"><ele>353.0</ele><time>2026-04-11T18:00:23Z</time></trkpt><trkpt lat="45.73945956070952" lon="9.214738817966868"><ele>350.6666666666667</ele><time>2026-04-11T18:00:24Z</time></trkpt><trkpt lat="45.73927365424874" lon="9.21469196329403"><ele>348.3333333333333</ele><time>2026-04-11T18:00:25Z</time></trkpt><trkpt lat="45.73908867101945" lon="9.214645380369015"><ele>346.0</ele><time>2026-04-11T18:00:26Z</time></trkpt><trkpt lat="45.738896109772455" lon="9.214597171702046"><ele>346.0</ele><time>2026-04-11T18:00:27Z</time></trkpt><trkpt lat="45.73869839926924" lon="9.214547493614154"><ele>346.0</ele><time>2026-04-11T18:00:28Z</time></trkpt><trkpt lat="45.73849788262952" lon="9.21449597923711"><ele>346.0</ele><time>2026-04-11T18:00:29Z</time></trkpt><trkpt lat="45.738293457590096" lon="9.214442954085143"><ele>348.66666666666663</ele><time>2026-04-11T18:00:30Z</time></trkpt><trkpt lat="45.738086458146654" lon="9.214385191304503"><ele>351.3333333333333</ele><time>2026-04-11T18:00:31Z</time></trkpt><trkpt lat="45.73787961365343" lon="9.214320212972758"><ele>354.0</ele><time>2026-04-11T18:00:32Z</time></trkpt><trkpt lat="45.737674429984224" lon="9.214242208606306"><ele>354.6666666666667</ele><time>2026-04-11T18:00:33Z</time></trkpt><trkpt lat="45.73747111573327" lon="9.214152468656259"><ele>355.33333333333337</ele><time>2026-04-11T18:00:34Z</time></trkpt><trkpt lat="45.73727000265572" lon="9.214050608222486"><ele>356.0</ele><time>2026-04-11T18:00:35Z</time></trkpt><trkpt lat="45.737070211826875" lon="9.213943491560077"><ele>355.0</ele><time>2026-04-11T18:00:36Z</time></trkpt><trkpt lat="45.73686877703849" lon="9.213838840899314"><ele>354.0</ele><time>2026-04-11T18:00:37Z</time></trkpt><trkpt lat="45.73666791939328" lon="9.2137344387061"><ele>353.0</ele><time>2026-04-11T18:00:38Z</time></trkpt><trkpt lat="45.73646916048335" lon="9.213628507858724"><ele>353.0</ele><time>2026-04-11T18:00:39Z</time></trkpt><trkpt lat="45.73627140736816" lon="9.213523431187573"><ele>353.0</ele><time>2026-04-11T18:00:40Z</time></trkpt><trkpt lat="45.73607372262092" lon="9.213418782525018"><ele>353.0</ele><time>2026-04-11T18:00:41Z</time></trkpt><trkpt lat="45.735876544399204" lon="9.213314375974537"><ele>351.6666666666667</ele><time>2026-04-11T18:00:42Z</time></trkpt><trkpt lat="45.735679500824446" lon="9.21320996981719"><ele>350.3333333333333</ele><time>2026-04-11T18:00:43Z</time></trkpt><trkpt lat="45.73548273193821" lon="9.213104818788329"><ele>349.0</ele><time>2026-04-11T18:00:44Z</time></trkpt><trkpt lat="45.73528448777629" lon="9.213002674049427"><ele>350.66666666666663</ele><time>2026-04-11T18:00:45Z</time></trkpt><trkpt lat="45.735084489966745" lon="9.21291036303288"><ele>352.3333333333333</ele><time>2026-04-11T18:00:46Z</time></trkpt><trkpt lat="45.7348811246908" lon="9.212834150672526"><ele>354.0</ele><time>2026-04-11T18:00:47Z</time></trkpt><trkpt lat="45.73467182958295" lon="9.212790557055015"><ele>354.0</ele><time>2026-04-11T18:00:48Z</time></trkpt><trkpt lat="45.734460024860816" lon="9.212778218057986"><ele>354.0</ele><time>2026-04-11T18:00:49Z</time></trkpt><trkpt lat="45.734247005775266" lon="9.212795760132467"><ele>354.0</ele><time>2026-04-11T18:00:50Z</time></trkpt><trkpt lat="45.734033769901686" lon="9.212841593833792"><ele>353.6666666666667</ele><time>2026-04-11T18:00:51Z</time></trkpt><trkpt lat="45.7338216465954" lon="9.212917545874536"><ele>353.33333333333337</ele><time>2026-04-11T18:00:52Z</time></trkpt><trkpt lat="45.73361249615514" lon="9.213016528332364"><ele>353.0</ele><time>2026-04-11T18:00:53Z</time></trkpt><trkpt lat="45.73340312389098" lon="9.213122815167809"><ele>349.33333333333337</ele><time>2026-04-11T18:00:54Z</time></trkpt><trkpt lat="45.73319094019002" lon="9.213220877002824"><ele>345.6666666666667</ele><time>2026-04-11T18:00:55Z</time></trkpt><trkpt lat="45.73297918304995" lon="9.21331512429544"><ele>342.0</ele><time>2026-04-11T18:00:56Z</time></trkpt><trkpt lat="45.73276927591574" lon="9.213407594205602"><ele>341.3333333333333</ele><time>2026-04-11T18:00:57Z</time></trkpt><trkpt lat="45.73256523296109" lon="9.213496940793902"><ele>340.66666666666663</ele><time>2026-04-11T18:00:58Z</time></trkpt><trkpt lat="45.73236985092363" lon="9.213584970121257"><ele>340.0</ele><time>2026-04-11T18:00:59Z</time></trkpt><trkpt lat="45.7321778727831" lon="9.213673651003907"><ele>340.0</ele><time>2026-04-11T18:01:00Z</time></trkpt><trkpt lat="45.73199661582162" lon="9.213758075763147"><ele>340.0</ele><time>2026-04-11T18:01:01Z</time></trkpt><trkpt lat="45.73182533932358" lon="9.213835439220007"><ele>340.0</ele><time>2026-04-11T18:01:02Z</time></trkpt><trkpt lat="45.731673742642904" lon="9.213892354874371"><ele>339.5</ele><time>2026-04-11T18:01:03Z</time></trkpt><trkpt lat="45.73152793633951" lon="9.213922024533149"><ele>339.0</ele><time>2026-04-11T18:01:04Z</time></trkpt><trkpt lat="45.73139094947561" lon="9.213931682177483"><ele>338.5</ele><time>2026-04-11T18:01:05Z</time></trkpt><trkpt lat="45.73125857535818" lon="9.213980753742646"><ele>338.0</ele><time>2026-04-11T18:01:06Z</time></trkpt><trkpt lat="45.73112669016671" lon="9.214087674305985"><ele>332.6666666666667</ele><time>2026-04-11T18:01:07Z</time></trkpt><trkpt lat="45.73098187383991" lon="9.214180035416888"><ele>327.3333333333333</ele><time>2026-04-11T18:01:08Z</time></trkpt><trkpt lat="45.73082318758543" lon="9.214231555118994"><ele>322.0</ele><time>2026-04-11T18:01:09Z</time></trkpt><trkpt lat="45.73065346222725" lon="9.214275023964959"><ele>322.0</ele><time>2026-04-11T18:01:10Z</time></trkpt><trkpt lat="45.730474037558444" lon="9.214312632860114"><ele>322.0</ele><time>2026-04-11T18:01:11Z</time></trkpt><trkpt lat="45.73029229358539" lon="9.214346366949636"><ele>322.0</ele><time>2026-04-11T18:01:12Z</time></trkpt><trkpt lat="45.73011252858327" lon="9.214369699514888"><ele>321.66666666666663</ele><time>2026-04-11T18:01:13Z</time></trkpt><trkpt lat="45.72993507301438" lon="9.214388310732438"><ele>321.3333333333333</ele><time>2026-04-11T18:01:14Z</time></trkpt><trkpt lat="45.729765421909136" lon="9.21440340184146"><ele>321.0</ele><time>2026-04-11T18:01:15Z</time></trkpt><trkpt lat="45.72960416486161" lon="9.21441758446035"><ele>321.0</ele><time>2026-04-11T18:01:16Z</time></trkpt><trkpt lat="45.729447801075395" lon="9.214433187991405"><ele>321.0</ele><time>2026-04-11T18:01:17Z</time></trkpt><trkpt lat="45.72929535585792" lon="9.214452814973356"><ele>321.0</ele><time>2026-04-11T18:01:18Z</time></trkpt><trkpt lat="45.72914665762404" lon="9.214475305672112"><ele>321.75</ele><time>2026-04-11T18:01:19Z</time></trkpt><trkpt lat="45.72900061664011" lon="9.214503627441864"><ele>322.5</ele><time>2026-04-11T18:01:20Z</time></trkpt><trkpt lat="45.72886234236642" lon="9.214531455678555"><ele>323.25</ele><time>2026-04-11T18:01:21Z</time></trkpt><trkpt lat="45.72872791795005" lon="9.214559565500538"><ele>324.0</ele><time>2026-04-11T18:01:22Z</time></trkpt><trkpt lat="45.7285906057575" lon="9.214587784245747"><ele>324.6666666666667</ele><time>2026-04-11T18:01:23Z</time></trkpt><trkpt lat="45.728441761340946" lon="9.2146152036244"><ele>325.33333333333337</ele><time>2026-04-11T18:01:24Z</time></trkpt><trkpt lat="45.728278773907164" lon="9.214641726104315"><ele>326.0</ele><time>2026-04-11T18:01:25Z</time></trkpt><trkpt lat="45.728106619435664" lon="9.214660747331912"><ele>326.0</ele><time>2026-04-11T18:01:26Z</time></trkpt><trkpt lat="45.727944426829616" lon="9.21467786094322"><ele>326.0</ele><time>2026-04-11T18:01:27Z</time></trkpt><trkpt lat="45.72778575109377" lon="9.21469975591752"><ele>326.0</ele><time>2026-04-11T18:01:28Z</time></trkpt><trkpt lat="45.727610941247015" lon="9.214722739973308"><ele>325.33333333333337</ele><time>2026-04-11T18:01:29Z</time></trkpt><trkpt lat="45.72742365589733" lon="9.214742557149126"><ele>324.6666666666667</ele><time>2026-04-11T18:01:30Z</time></trkpt><trkpt lat="45.72722704895791" lon="9.214763608945416"><ele>324.0</ele><time>2026-04-11T18:01:31Z</time></trkpt><trkpt lat="45.72702468799344" lon="9.214786979960119"><ele>323.0</ele><time>2026-04-11T18:01:32Z</time></trkpt><trkpt lat="45.72682737675001" lon="9.214810494131"><ele>322.0</ele><time>2026-04-11T18:01:33Z</time></trkpt><trkpt lat="45.72664296973156" lon="9.214827649284288"><ele>321.0</ele><time>2026-04-11T18:01:34Z</time></trkpt><trkpt lat="45.726471336412814" lon="9.214842950769736"><ele>320.75</ele><time>2026-04-11T18:01:35Z</time></trkpt><trkpt lat="45.726312409697385" lon="9.214854744635678"><ele>320.5</ele><time>2026-04-11T18:01:36Z</time></trkpt><trkpt lat="45.726170510173034" lon="9.214863266441881"><ele>320.25</ele><time>2026-04-11T18:01:37Z</time></trkpt><trkpt lat="45.72605129304933" lon="9.21486505686012"><ele>320.0</ele><time>2026-04-11T18:01:38Z</time></trkpt><trkpt lat="45.72594490280208" lon="9.214855248408432"><ele>319.4</ele><time>2026-04-11T18:01:39Z</time></trkpt><trkpt lat="45.72584652120741" lon="9.214813225978439"><ele>318.8</ele><time>2026-04-11T18:01:40Z</time></trkpt><trkpt lat="45.72575925669093" lon="9.214761524255321"><ele>318.2</ele><time>2026-04-11T18:01:41Z</time></trkpt><trkpt lat="45.72567295144866" lon="9.214772369915359"><ele>317.6</ele><time>2026-04-11T18:01:42Z</time></trkpt><trkpt lat="45.72557506491108" lon="9.214832549615462"><ele>317.0</ele><time>2026-04-11T18:01:43Z</time></trkpt><trkpt lat="45.725460473703734" lon="9.214914018851777"><ele>316.75</ele><time>2026-04-11T18:01:44Z</time></trkpt><trkpt lat="45.72532161725319" lon="9.214956430105772"><ele>316.5</ele><time>2026-04-11T18:01:45Z</time></trkpt><trkpt lat="45.72517435776739" lon="9.214974755118782"><ele>316.25</ele><time>2026-04-11T18:01:46Z</time></trkpt><trkpt lat="45.72502883898242" lon="9.215006114572184"><ele>316.0</ele><time>2026-04-11T18:01:47Z</time></trkpt><trkpt lat="45.72487773066948" lon="9.215039639534847"><ele>315.0</ele><time>2026-04-11T18:01:48Z</time></trkpt><trkpt lat="45.72472418415905" lon="9.215065204564837"><ele>314.0</ele><time>2026-04-11T18:01:49Z</time></trkpt><trkpt lat="45.72457020169302" lon="9.215088924600984"><ele>313.0</ele><time>2026-04-11T18:01:50Z</time></trkpt><trkpt lat="45.72441361121835" lon="9.215114364833017"><ele>312.75</ele><time>2026-04-11T18:01:51Z</time></trkpt><trkpt lat="45.72426214031151" lon="9.215140167230924"><ele>312.5</ele><time>2026-04-11T18:01:52Z</time></trkpt><trkpt lat="45.72413537661769" lon="9.21515785897748"><ele>312.25</ele><time>2026-04-11T18:01:53Z</time></trkpt><trkpt lat="45.72401861442113" lon="9.215171957161008"><ele>312.0</ele><time>2026-04-11T18:01:54Z</time></trkpt><trkpt lat="45.72388337065722" lon="9.215190221016657"><ele>312.0</ele><time>2026-04-11T18:01:55Z</time></trkpt><trkpt lat="45.72372598173013" lon="9.215213647768957"><ele>312.0</ele><time>2026-04-11T18:01:56Z</time></trkpt><trkpt lat="45.723552733156694" lon="9.215229476103252"><ele>312.0</ele><time>2026-04-11T18:01:57Z</time></trkpt><trkpt lat="45.72338212922434" lon="9.215245257417982"><ele>311.6666666666667</ele><time>2026-04-11T18:01:58Z</time></trkpt><trkpt lat="45.72320455782715" lon="9.215262910226949"><ele>311.33333333333337</ele><time>2026-04-11T18:01:59Z</time></trkpt><trkpt lat="45.72301858662929" lon="9.21528632717895"><ele>311.0</ele><time>2026-04-11T18:02:00Z</time></trkpt><trkpt lat="45.72282502300229" lon="9.215311280005318"><ele>310.6666666666667</ele><time>2026-04-11T18:02:01Z</time></trkpt><trkpt lat="45.72262514098933" lon="9.215334751655746"><ele>310.3333333333333</ele><time>2026-04-11T18:02:02Z</time></trkpt><trkpt lat="45.7224230585133" lon="9.21535895261246"><ele>310.0</ele><time>2026-04-11T18:02:03Z</time></trkpt><trkpt lat="45.72222369936896" lon="9.21538529662272"><ele>310.0</ele><time>2026-04-11T18:02:04Z</time></trkpt><trkpt lat="45.72202737093173" lon="9.215413489761458"><ele>310.0</ele><time>2026-04-11T18:02:05Z</time></trkpt><trkpt lat="45.72183284149737" lon="9.215436740828622"><ele>310.0</ele><time>2026-04-11T18:02:06Z</time></trkpt><trkpt lat="45.72164055239662" lon="9.21545993728788"><ele>308.3333333333333</ele><time>2026-04-11T18:02:07Z</time></trkpt><trkpt lat="45.72145032239896" lon="9.215483616822654"><ele>306.6666666666667</ele><time>2026-04-11T18:02:08Z</time></trkpt><trkpt lat="45.72126436687051" lon="9.2155101334686"><ele>305.0</ele><time>2026-04-11T18:02:09Z</time></trkpt><trkpt lat="45.721088078628206" lon="9.215536519113526"><ele>305.33333333333337</ele><time>2026-04-11T18:02:10Z</time></trkpt><trkpt lat="45.72091685335734" lon="9.215557598608754"><ele>305.6666666666667</ele><time>2026-04-11T18:02:11Z</time></trkpt><trkpt lat="45.72075274367106" lon="9.215575729711118"><ele>306.0</ele><time>2026-04-11T18:02:12Z</time></trkpt><trkpt lat="45.72059740486123" lon="9.215590316777979"><ele>306.0</ele><time>2026-04-11T18:02:13Z</time></trkpt><trkpt lat="45.720450487512274" lon="9.21560523527267"><ele>306.0</ele><time>2026-04-11T18:02:14Z</time></trkpt><trkpt lat="45.72031181068781" lon="9.2156239155035"><ele>306.0</ele><time>2026-04-11T18:02:15Z</time></trkpt><trkpt lat="45.72018114497007" lon="9.215641924994323"><ele>306.0</ele><time>2026-04-11T18:02:16Z</time></trkpt><trkpt lat="45.72004886692907" lon="9.215658935408923"><ele>305.3333333333333</ele><time>2026-04-11T18:02:17Z</time></trkpt><trkpt lat="45.719910930238306" lon="9.215679218935508"><ele>304.66666666666663</ele><time>2026-04-11T18:02:18Z</time></trkpt><trkpt lat="45.71975510078256" lon="9.215707618769944"><ele>304.0</ele><time>2026-04-11T18:02:19Z</time></trkpt><trkpt lat="45.71959845677143" lon="9.215731562186914"><ele>304.0</ele><time>2026-04-11T18:02:20Z</time></trkpt><trkpt lat="45.7194543621381" lon="9.21574975895102"><ele>304.0</ele><time>2026-04-11T18:02:21Z</time></trkpt><trkpt lat="45.719329838207486" lon="9.215764632194608"><ele>304.0</ele><time>2026-04-11T18:02:22Z</time></trkpt><trkpt lat="45.71923071206667" lon="9.215775489787408"><ele>304.0</ele><time>2026-04-11T18:02:23Z</time></trkpt><trkpt lat="45.71914695656467" lon="9.215783267983195"><ele>303.4</ele><time>2026-04-11T18:02:24Z</time></trkpt><trkpt lat="45.71907470421301" lon="9.215794703006074"><ele>302.79999999999995</ele><time>2026-04-11T18:02:25Z</time></trkpt><trkpt lat="45.71898180264722" lon="9.215795243863717"><ele>302.20000000000005</ele><time>2026-04-11T18:02:27Z</time></trkpt><trkpt lat="45.71887187061796" lon="9.215758156228686"><ele>301.6</ele><time>2026-04-11T18:02:29Z</time></trkpt><trkpt lat="45.71873877749518" lon="9.215776587485017"><ele>301.0</ele><time>2026-04-11T18:02:31Z</time></trkpt><trkpt lat="45.71865626503124" lon="9.215833830692961"><ele>301.0</ele><time>2026-04-11T18:02:32Z</time></trkpt><trkpt lat="45.71854355385729" lon="9.215853858325648"><ele>301.0</ele><time>2026-04-11T18:02:33Z</time></trkpt><trkpt lat="45.71841610338274" lon="9.215869848014137"><ele>301.0</ele><time>2026-04-11T18:02:34Z</time></trkpt><trkpt lat="45.71827703053735" lon="9.21589300493947"><ele>301.0</ele><time>2026-04-11T18:02:35Z</time></trkpt><trkpt lat="45.71812482850916" lon="9.215912975561988"><ele>301.0</ele><time>2026-04-11T18:02:36Z</time></trkpt><trkpt lat="45.71796440718909" lon="9.215923361379264"><ele>301.0</ele><time>2026-04-11T18:02:37Z</time></trkpt><trkpt lat="45.71779542082361" lon="9.215938556384613"><ele>301.0</ele><time>2026-04-11T18:02:38Z</time></trkpt><trkpt lat="45.717626865488214" lon="9.215959424418184"><ele>301.3333333333333</ele><time>2026-04-11T18:02:39Z</time></trkpt><trkpt lat="45.71744836709945" lon="9.21598594842178"><ele>301.6666666666667</ele><time>2026-04-11T18:02:40Z</time></trkpt><trkpt lat="45.717265093255385" lon="9.216010444761292"><ele>302.0</ele><time>2026-04-11T18:02:41Z</time></trkpt><trkpt lat="45.71708995530914" lon="9.216030070550342"><ele>302.0</ele><time>2026-04-11T18:02:42Z</time></trkpt><trkpt lat="45.716922536816995" lon="9.216049526771044"><ele>302.0</ele><time>2026-04-11T18:02:43Z</time></trkpt><trkpt lat="45.71675999691794" lon="9.216071501457575"><ele>302.0</ele><time>2026-04-11T18:02:44Z</time></trkpt><trkpt lat="45.71660197987329" lon="9.21609735001917"><ele>302.0</ele><time>2026-04-11T18:02:45Z</time></trkpt><trkpt lat="45.716452483728965" lon="9.216117534202366"><ele>302.0</ele><time>2026-04-11T18:02:46Z</time></trkpt><trkpt lat="45.71631107589524" lon="9.216133891579268"><ele>302.0</ele><time>2026-04-11T18:02:47Z</time></trkpt><trkpt lat="45.71617886271276" lon="9.216148826047444"><ele>302.0</ele><time>2026-04-11T18:02:48Z</time></trkpt><trkpt lat="45.716071032543134" lon="9.216157976933856"><ele>301.33333333333337</ele><time>2026-04-11T18:02:49Z</time></trkpt><trkpt lat="45.7159934363814" lon="9.216156858854015"><ele>300.6666666666667</ele><time>2026-04-11T18:02:50Z</time></trkpt><trkpt lat="45.71592926895502" lon="9.216148216434476"><ele>300.0</ele><time>2026-04-11T18:02:51Z</time></trkpt><trkpt lat="45.7158489676409" lon="9.216122643892755"><ele>299.3333333333333</ele><time>2026-04-11T18:02:53Z</time></trkpt><trkpt lat="45.715751001043955" lon="9.216056129757138"><ele>298.66666666666663</ele><time>2026-04-11T18:02:55Z</time></trkpt><trkpt lat="45.71565043473528" lon="9.216029513054382"><ele>298.0</ele><time>2026-04-11T18:02:57Z</time></trkpt><trkpt lat="45.71554378840901" lon="9.216124376430809"><ele>298.0</ele><time>2026-04-11T18:02:59Z</time></trkpt><trkpt lat="45.71548888794071" lon="9.216173196486915"><ele>298.0</ele><time>2026-04-11T18:03:00Z</time></trkpt><trkpt lat="45.71541645891075" lon="9.216203376509926"><ele>298.0</ele><time>2026-04-11T18:03:01Z</time></trkpt><trkpt lat="45.715329909292485" lon="9.216221386515665"><ele>298.0</ele><time>2026-04-11T18:03:02Z</time></trkpt><trkpt lat="45.71522300180114" lon="9.21622217087829"><ele>298.0</ele><time>2026-04-11T18:03:03Z</time></trkpt><trkpt lat="45.715101910152235" lon="9.21620322331185"><ele>298.25</ele><time>2026-04-11T18:03:04Z</time></trkpt><trkpt lat="45.7149727013944" lon="9.216165904229632"><ele>298.5</ele><time>2026-04-11T18:03:05Z</time></trkpt><trkpt lat="45.71483391791952" lon="9.21611577913414"><ele>298.75</ele><time>2026-04-11T18:03:06Z</time></trkpt><trkpt lat="45.714686361839654" lon="9.216060898622146"><ele>299.0</ele><time>2026-04-11T18:03:07Z</time></trkpt><trkpt lat="45.714528742569705" lon="9.216002390064343"><ele>298.33333333333337</ele><time>2026-04-11T18:03:08Z</time></trkpt><trkpt lat="45.714365254643305" lon="9.215937392059175"><ele>297.6666666666667</ele><time>2026-04-11T18:03:09Z</time></trkpt><trkpt lat="45.71420611228107" lon="9.215878146968276"><ele>297.0</ele><time>2026-04-11T18:03:10Z</time></trkpt><trkpt lat="45.71405402110469" lon="9.215818449875298"><ele>297.0</ele><time>2026-04-11T18:03:11Z</time></trkpt><trkpt lat="45.71390272256499" lon="9.215759701261208"><ele>297.0</ele><time>2026-04-11T18:03:12Z</time></trkpt><trkpt lat="45.71374277265344" lon="9.215691486257516"><ele>297.0</ele><time>2026-04-11T18:03:13Z</time></trkpt><trkpt lat="45.713575409757446" lon="9.21561436033045"><ele>295.0</ele><time>2026-04-11T18:03:14Z</time></trkpt><trkpt lat="45.71340792382035" lon="9.215542636247356"><ele>293.0</ele><time>2026-04-11T18:03:15Z</time></trkpt><trkpt lat="45.71323347651679" lon="9.215473271914968"><ele>291.0</ele><time>2026-04-11T18:03:16Z</time></trkpt><trkpt lat="45.71305202751023" lon="9.215398636479316"><ele>291.0</ele><time>2026-04-11T18:03:17Z</time></trkpt><trkpt lat="45.71286382487816" lon="9.215321901786115"><ele>291.0</ele><time>2026-04-11T18:03:18Z</time></trkpt><trkpt lat="45.712668590154685" lon="9.215244697419655"><ele>291.0</ele><time>2026-04-11T18:03:19Z</time></trkpt><trkpt lat="45.71247389477072" lon="9.215167737479792"><ele>291.0</ele><time>2026-04-11T18:03:20Z</time></trkpt><trkpt lat="45.7122871255638" lon="9.215091710748371"><ele>291.0</ele><time>2026-04-11T18:03:21Z</time></trkpt><trkpt lat="45.71210573777317" lon="9.21501977545357"><ele>291.0</ele><time>2026-04-11T18:03:22Z</time></trkpt><trkpt lat="45.71192320578432" lon="9.214958591752024"><ele>290.6666666666667</ele><time>2026-04-11T18:03:23Z</time></trkpt><trkpt lat="45.71174304347443" lon="9.214908718961759"><ele>290.33333333333337</ele><time>2026-04-11T18:03:24Z</time></trkpt><trkpt lat="45.71156287246133" lon="9.214861175716239"><ele>290.0</ele><time>2026-04-11T18:03:25Z</time></trkpt><trkpt lat="45.7113864561212" lon="9.214828923502356"><ele>290.33333333333337</ele><time>2026-04-11T18:03:26Z</time></trkpt><trkpt lat="45.711218284078655" lon="9.214808654477311"><ele>290.6666666666667</ele><time>2026-04-11T18:03:27Z</time></trkpt><trkpt lat="45.71106091852266" lon="9.214801207712004"><ele>291.0</ele><time>2026-04-11T18:03:28Z</time></trkpt><trkpt lat="45.71091288681189" lon="9.21479814415962"><ele>290.75</ele><time>2026-04-11T18:03:29Z</time></trkpt><trkpt lat="45.71077015822474" lon="9.214803358471908"><ele>290.5</ele><time>2026-04-11T18:03:30Z</time></trkpt><trkpt lat="45.710633021810196" lon="9.214817850153754"><ele>290.25</ele><time>2026-04-11T18:03:31Z</time></trkpt><trkpt lat="45.710496750882875" lon="9.214837893396474"><ele>290.0</ele><time>2026-04-11T18:03:32Z</time></trkpt><trkpt lat="45.71034969330412" lon="9.214861504476282"><ele>290.6666666666667</ele><time>2026-04-11T18:03:33Z</time></trkpt><trkpt lat="45.71019601352305" lon="9.214883300734462"><ele>291.3333333333333</ele><time>2026-04-11T18:03:34Z</time></trkpt><trkpt lat="45.71004348788151" lon="9.214903946295633"><ele>292.0</ele><time>2026-04-11T18:03:35Z</time></trkpt><trkpt lat="45.709899301136595" lon="9.214923616737597"><ele>292.0</ele><time>2026-04-11T18:03:36Z</time></trkpt><trkpt lat="45.70975613100756" lon="9.214946009889042"><ele>292.0</ele><time>2026-04-11T18:03:37Z</time></trkpt><trkpt lat="45.709612554981305" lon="9.214969745910969"><ele>292.0</ele><time>2026-04-11T18:03:38Z</time></trkpt><trkpt lat="45.709471549045546" lon="9.21499198253497"><ele>292.0</ele><time>2026-04-11T18:03:39Z</time></trkpt><trkpt lat="45.70933876846217" lon="9.215013562668453"><ele>292.0</ele><time>2026-04-11T18:03:40Z</time></trkpt><trkpt lat="45.709210495493764" lon="9.215032769825811"><ele>292.0</ele><time>2026-04-11T18:03:41Z</time></trkpt><trkpt lat="45.70908083712679" lon="9.215050331130136"><ele>292.0</ele><time>2026-04-11T18:03:42Z</time></trkpt><trkpt lat="45.708953364730746" lon="9.215071155026342"><ele>292.0</ele><time>2026-04-11T18:03:43Z</time></trkpt><trkpt lat="45.708827763669895" lon="9.21508833757771"><ele>292.0</ele><time>2026-04-11T18:03:44Z</time></trkpt><trkpt lat="45.70870373538182" lon="9.21510558109878"><ele>292.0</ele><time>2026-04-11T18:03:45Z</time></trkpt><trkpt lat="45.70857859491084" lon="9.215124413404267"><ele>292.0</ele><time>2026-04-11T18:03:46Z</time></trkpt><trkpt lat="45.70843617871139" lon="9.215146263644355"><ele>292.0</ele><time>2026-04-11T18:03:47Z</time></trkpt><trkpt lat="45.70828090029149" lon="9.215170730723532"><ele>291.3333333333333</ele><time>2026-04-11T18:03:48Z</time></trkpt><trkpt lat="45.70812049764479" lon="9.215193072601972"><ele>290.6666666666667</ele><time>2026-04-11T18:03:49Z</time></trkpt><trkpt lat="45.70797127764152" lon="9.21521470675736"><ele>290.0</ele><time>2026-04-11T18:03:50Z</time></trkpt><trkpt lat="45.70782576024389" lon="9.215236889302398"><ele>289.75</ele><time>2026-04-11T18:03:51Z</time></trkpt><trkpt lat="45.707686372387606" lon="9.215257736301112"><ele>289.5</ele><time>2026-04-11T18:03:52Z</time></trkpt><trkpt lat="45.707568897600844" lon="9.215272651146407"><ele>289.25</ele><time>2026-04-11T18:03:53Z</time></trkpt><trkpt lat="45.70745633833142" lon="9.215285230783133"><ele>289.0</ele><time>2026-04-11T18:03:54Z</time></trkpt><trkpt lat="45.707336231354944" lon="9.215301819313972"><ele>289.0</ele><time>2026-04-11T18:03:55Z</time></trkpt><trkpt lat="45.70720413513563" lon="9.215319952100577"><ele>289.0</ele><time>2026-04-11T18:03:56Z</time></trkpt><trkpt lat="45.707064386854476" lon="9.21534622356098"><ele>289.0</ele><time>2026-04-11T18:03:57Z</time></trkpt><trkpt lat="45.706910573179556" lon="9.215374911086684"><ele>289.0</ele><time>2026-04-11T18:03:58Z</time></trkpt><trkpt lat="45.70674816270534" lon="9.215397098377188"><ele>288.66666666666663</ele><time>2026-04-11T18:03:59Z</time></trkpt><trkpt lat="45.70657300426338" lon="9.215418557623085"><ele>288.3333333333333</ele><time>2026-04-11T18:04:00Z</time></trkpt><trkpt lat="45.70638905241092" lon="9.215440738994635"><ele>288.0</ele><time>2026-04-11T18:04:01Z</time></trkpt><trkpt lat="45.706198043267065" lon="9.215463017857424"><ele>288.3333333333333</ele><time>2026-04-11T18:04:02Z</time></trkpt><trkpt lat="45.70600495687779" lon="9.215487758554001"><ele>288.66666666666663</ele><time>2026-04-11T18:04:03Z</time></trkpt><trkpt lat="45.70580711628207" lon="9.215514651938472"><ele>289.0</ele><time>2026-04-11T18:04:04Z</time></trkpt><trkpt lat="45.705609152689746" lon="9.215542027080735"><ele>289.0</ele><time>2026-04-11T18:04:05Z</time></trkpt><trkpt lat="45.705410456221756" lon="9.215570035992787"><ele>289.0</ele><time>2026-04-11T18:04:06Z</time></trkpt><trkpt lat="45.705212363023705" lon="9.215601698576412"><ele>289.0</ele><time>2026-04-11T18:04:07Z</time></trkpt><trkpt lat="45.705012186511496" lon="9.215635645370012"><ele>289.0</ele><time>2026-04-11T18:04:08Z</time></trkpt><trkpt lat="45.704809926539056" lon="9.215668531122837"><ele>289.0</ele><time>2026-04-11T18:04:09Z</time></trkpt><trkpt lat="45.70460594916058" lon="9.21569887152472"><ele>289.0</ele><time>2026-04-11T18:04:10Z</time></trkpt><trkpt lat="45.704408794388804" lon="9.21572688585288"><ele>288.66666666666663</ele><time>2026-04-11T18:04:11Z</time></trkpt><trkpt lat="45.70421818860011" lon="9.215752942638483"><ele>288.3333333333333</ele><time>2026-04-11T18:04:12Z</time></trkpt><trkpt lat="45.70403399813467" lon="9.21577927451929"><ele>288.0</ele><time>2026-04-11T18:04:13Z</time></trkpt><trkpt lat="45.7038527552148" lon="9.21580689351877"><ele>288.0</ele><time>2026-04-11T18:04:14Z</time></trkpt><trkpt lat="45.70367616307025" lon="9.215834801740655"><ele>288.0</ele><time>2026-04-11T18:04:15Z</time></trkpt><trkpt lat="45.703508273734535" lon="9.215859904572495"><ele>288.0</ele><time>2026-04-11T18:04:16Z</time></trkpt><trkpt lat="45.703348573408086" lon="9.21588125226574"><ele>287.25</ele><time>2026-04-11T18:04:17Z</time></trkpt><trkpt lat="45.703195047417125" lon="9.215899968719684"><ele>286.5</ele><time>2026-04-11T18:04:18Z</time></trkpt><trkpt lat="45.70305510888019" lon="9.215919677001963"><ele>285.75</ele><time>2026-04-11T18:04:19Z</time></trkpt><trkpt lat="45.70293270454142" lon="9.215928405020314"><ele>285.0</ele><time>2026-04-11T18:04:20Z</time></trkpt><trkpt lat="45.70282422897246" lon="9.215913635577197"><ele>284.6</ele><time>2026-04-11T18:04:21Z</time></trkpt><trkpt lat="45.70270883154385" lon="9.215870752764264"><ele>284.2</ele><time>2026-04-11T18:04:22Z</time></trkpt><trkpt lat="45.70260397155886" lon="9.215792623826301"><ele>283.8</ele><time>2026-04-11T18:04:23Z</time></trkpt><trkpt lat="45.7025104480828" lon="9.215765939292371"><ele>283.4</ele><time>2026-04-11T18:04:24Z</time></trkpt><trkpt lat="45.70241484076244" lon="9.215800739991447"><ele>283.0</ele><time>2026-04-11T18:04:25Z</time></trkpt><trkpt lat="45.70231924676699" lon="9.215889055448214"><ele>283.0</ele><time>2026-04-11T18:04:26Z</time></trkpt><trkpt lat="45.70221778609107" lon="9.216003259474409"><ele>283.0</ele><time>2026-04-11T18:04:27Z</time></trkpt><trkpt lat="45.702081182378315" lon="9.216057822235962"><ele>283.0</ele><time>2026-04-11T18:04:28Z</time></trkpt><trkpt lat="45.70192660697875" lon="9.216087938001516"><ele>283.0</ele><time>2026-04-11T18:04:29Z</time></trkpt><trkpt lat="45.701761170266494" lon="9.216112019457501"><ele>282.3333333333333</ele><time>2026-04-11T18:04:30Z</time></trkpt><trkpt lat="45.701585265945546" lon="9.216134599616352"><ele>281.6666666666667</ele><time>2026-04-11T18:04:31Z</time></trkpt><trkpt lat="45.70140390049949" lon="9.216154402831338"><ele>281.0</ele><time>2026-04-11T18:04:32Z</time></trkpt><trkpt lat="45.70121800755033" lon="9.216182550432219"><ele>280.6666666666667</ele><time>2026-04-11T18:04:33Z</time></trkpt><trkpt lat="45.70102975262963" lon="9.21621537747683"><ele>280.3333333333333</ele><time>2026-04-11T18:04:34Z</time></trkpt><trkpt lat="45.70083566384889" lon="9.216247884370794"><ele>280.0</ele><time>2026-04-11T18:04:35Z</time></trkpt><trkpt lat="45.70063984697749" lon="9.216276642932115"><ele>280.0</ele><time>2026-04-11T18:04:36Z</time></trkpt><trkpt lat="45.70044744052752" lon="9.216305493412033"><ele>280.0</ele><time>2026-04-11T18:04:37Z</time></trkpt><trkpt lat="45.700262107215686" lon="9.216322341057682"><ele>280.0</ele><time>2026-04-11T18:04:38Z</time></trkpt><trkpt lat="45.700086695010384" lon="9.216316397867054"><ele>279.0</ele><time>2026-04-11T18:04:39Z</time></trkpt><trkpt lat="45.699916323013724" lon="9.21628243625239"><ele>278.0</ele><time>2026-04-11T18:04:40Z</time></trkpt><trkpt lat="45.69975967585726" lon="9.21623180486972"><ele>277.0</ele><time>2026-04-11T18:04:41Z</time></trkpt><trkpt lat="45.69960494119869" lon="9.216175986230876"><ele>277.0</ele><time>2026-04-11T18:04:42Z</time></trkpt><trkpt lat="45.6994588027756" lon="9.216103872820034"><ele>277.0</ele><time>2026-04-11T18:04:43Z</time></trkpt><trkpt lat="45.69932400853608" lon="9.216021982851615"><ele>277.0</ele><time>2026-04-11T18:04:44Z</time></trkpt><trkpt lat="45.69920849966973" lon="9.215951465504546"><ele>277.0</ele><time>2026-04-11T18:04:45Z</time></trkpt><trkpt lat="45.699108977375104" lon="9.215889173063788"><ele>276.8</ele><time>2026-04-11T18:04:46Z</time></trkpt><trkpt lat="45.699017530172554" lon="9.215827343721163"><ele>276.6</ele><time>2026-04-11T18:04:47Z</time></trkpt><trkpt lat="45.69892829201844" lon="9.215762155854303"><ele>276.40000000000003</ele><time>2026-04-11T18:04:48Z</time></trkpt><trkpt lat="45.69884672272311" lon="9.215691964521756"><ele>276.2</ele><time>2026-04-11T18:04:49Z</time></trkpt><trkpt lat="45.69876992656848" lon="9.215624824304019"><ele>276.0</ele><time>2026-04-11T18:04:50Z</time></trkpt><trkpt lat="45.69867958875897" lon="9.215575707809139"><ele>275.6</ele><time>2026-04-11T18:04:51Z</time></trkpt><trkpt lat="45.69858703452939" lon="9.21556878295712"><ele>275.20000000000005</ele><time>2026-04-11T18:04:52Z</time></trkpt><trkpt lat="45.698497000809255" lon="9.21559399595133"><ele>274.79999999999995</ele><time>2026-04-11T18:04:53Z</time></trkpt><trkpt lat="45.69839255907963" lon="9.215617429276879"><ele>274.4</ele><time>2026-04-11T18:04:54Z</time></trkpt><trkpt lat="45.69828653276736" lon="9.215592430323374"><ele>274.0</ele><time>2026-04-11T18:04:55Z</time></trkpt><trkpt lat="45.69817838731843" lon="9.215531812510816"><ele>274.0</ele><time>2026-04-11T18:04:56Z</time></trkpt><trkpt lat="45.6980497409441" lon="9.215461191114231"><ele>274.0</ele><time>2026-04-11T18:04:57Z</time></trkpt><trkpt lat="45.697908720867346" lon="9.215393607995708"><ele>274.0</ele><time>2026-04-11T18:04:58Z</time></trkpt><trkpt lat="45.69776245479811" lon="9.215329249270672"><ele>274.0</ele><time>2026-04-11T18:04:59Z</time></trkpt><trkpt lat="45.697618155263406" lon="9.215261189075934"><ele>274.0</ele><time>2026-04-11T18:05:00Z</time></trkpt><trkpt lat="45.69748413575615" lon="9.215201810001833"><ele>274.0</ele><time>2026-04-11T18:05:01Z</time></trkpt><trkpt lat="45.69735759357333" lon="9.215150460486885"><ele>274.0</ele><time>2026-04-11T18:05:02Z</time></trkpt><trkpt lat="45.697241340278964" lon="9.215105172606822"><ele>274.0</ele><time>2026-04-11T18:05:03Z</time></trkpt><trkpt lat="45.697147574074734" lon="9.215065327775763"><ele>274.0</ele><time>2026-04-11T18:05:04Z</time></trkpt><trkpt lat="45.697068350682606" lon="9.215032146715657"><ele>274.0</ele><time>2026-04-11T18:05:05Z</time></trkpt><trkpt lat="45.696996108285646" lon="9.215002797789367"><ele>274.0</ele><time>2026-04-11T18:05:06Z</time></trkpt><trkpt lat="45.69693281239465" lon="9.214973268773383"><ele>274.0</ele><time>2026-04-11T18:05:07Z</time></trkpt><trkpt lat="45.6968389260804" lon="9.214924721659711"><ele>274.0</ele><time>2026-04-11T18:05:09Z</time></trkpt><trkpt lat="45.6967609023589" lon="9.214893797262784"><ele>274.0</ele><time>2026-04-11T18:05:15Z</time></trkpt><trkpt lat="45.69663715822364" lon="9.214828607193638"><ele>273.59999999999997</ele><time>2026-04-11T18:05:17Z</time></trkpt><trkpt lat="45.696571032044396" lon="9.214772125927487"><ele>273.2</ele><time>2026-04-11T18:05:18Z</time></trkpt><trkpt lat="45.69649408208734" lon="9.214691719640237"><ele>272.79999999999995</ele><time>2026-04-11T18:05:19Z</time></trkpt><trkpt lat="45.696394721620784" lon="9.214656656573348"><ele>272.4</ele><time>2026-04-11T18:05:20Z</time></trkpt><trkpt lat="45.69627893892151" lon="9.21466492312208"><ele>272.0</ele><time>2026-04-11T18:05:21Z</time></trkpt><trkpt lat="45.696147690926985" lon="9.21464672875923"><ele>271.0</ele><time>2026-04-11T18:05:22Z</time></trkpt><trkpt lat="45.69601156904701" lon="9.214591815025999"><ele>270.0</ele><time>2026-04-11T18:05:23Z</time></trkpt><trkpt lat="45.69586808378116" lon="9.214528208415798"><ele>269.0</ele><time>2026-04-11T18:05:24Z</time></trkpt><trkpt lat="45.69571309142479" lon="9.214458785051303"><ele>269.0</ele><time>2026-04-11T18:05:25Z</time></trkpt><trkpt lat="45.69555569412212" lon="9.214382251339078"><ele>269.0</ele><time>2026-04-11T18:05:26Z</time></trkpt><trkpt lat="45.695394853601954" lon="9.214304771365288"><ele>269.0</ele><time>2026-04-11T18:05:27Z</time></trkpt><trkpt lat="45.6952246188694" lon="9.214222614507483"><ele>269.0</ele><time>2026-04-11T18:05:28Z</time></trkpt><trkpt lat="45.69505223953337" lon="9.214138527346137"><ele>269.0</ele><time>2026-04-11T18:05:29Z</time></trkpt><trkpt lat="45.69487803757725" lon="9.214052195816416"><ele>269.0</ele><time>2026-04-11T18:05:30Z</time></trkpt><trkpt lat="45.69469839831709" lon="9.21395864140079"><ele>268.6666666666667</ele><time>2026-04-11T18:05:31Z</time></trkpt><trkpt lat="45.69451465721893" lon="9.213859911079757"><ele>268.3333333333333</ele><time>2026-04-11T18:05:32Z</time></trkpt><trkpt lat="45.694328194230046" lon="9.213761259995001"><ele>268.0</ele><time>2026-04-11T18:05:33Z</time></trkpt><trkpt lat="45.694139164983376" lon="9.213668331465888"><ele>268.0</ele><time>2026-04-11T18:05:34Z</time></trkpt><trkpt lat="45.693947912473526" lon="9.213584980541183"><ele>268.0</ele><time>2026-04-11T18:05:35Z</time></trkpt><trkpt lat="45.693752654599976" lon="9.213514764273523"><ele>268.0</ele><time>2026-04-11T18:05:36Z</time></trkpt><trkpt lat="45.6935550929969" lon="9.21345884018574"><ele>267.0</ele><time>2026-04-11T18:05:37Z</time></trkpt><trkpt lat="45.69335354823926" lon="9.21341503601854"><ele>266.0</ele><time>2026-04-11T18:05:38Z</time></trkpt><trkpt lat="45.693149116995286" lon="9.213383521560822"><ele>265.0</ele><time>2026-04-11T18:05:39Z</time></trkpt><trkpt lat="45.692949152756086" lon="9.21337025561608"><ele>265.0</ele><time>2026-04-11T18:05:40Z</time></trkpt><trkpt lat="45.69276084626525" lon="9.213366432039459"><ele>265.0</ele><time>2026-04-11T18:05:41Z</time></trkpt><trkpt lat="45.69257756242102" lon="9.213371246543703"><ele>265.0</ele><time>2026-04-11T18:05:42Z</time></trkpt><trkpt lat="45.69240165448011" lon="9.213381183853159"><ele>264.75</ele><time>2026-04-11T18:05:43Z</time></trkpt><trkpt lat="45.6922440255386" lon="9.213387933206953"><ele>264.5</ele><time>2026-04-11T18:05:44Z</time></trkpt><trkpt lat="45.692107879773026" lon="9.213393684471903"><ele>264.25</ele><time>2026-04-11T18:05:45Z</time></trkpt><trkpt lat="45.691983577589234" lon="9.213383710082658"><ele>264.0</ele><time>2026-04-11T18:05:46Z</time></trkpt><trkpt lat="45.69187909804653" lon="9.213369651390478"><ele>263.8333333333333</ele><time>2026-04-11T18:05:47Z</time></trkpt><trkpt lat="45.69180096930673" lon="9.213353950687363"><ele>263.6666666666667</ele><time>2026-04-11T18:05:48Z</time></trkpt><trkpt lat="45.69168668338235" lon="9.213310593427384"><ele>263.5</ele><time>2026-04-11T18:05:50Z</time></trkpt><trkpt lat="45.69162253479575" lon="9.213263831636448"><ele>263.33333333333337</ele><time>2026-04-11T18:05:51Z</time></trkpt><trkpt lat="45.691555991195386" lon="9.213188858741304"><ele>263.1666666666667</ele><time>2026-04-11T18:05:52Z</time></trkpt><trkpt lat="45.69148532181235" lon="9.21310855874953"><ele>263.0</ele><time>2026-04-11T18:05:53Z</time></trkpt><trkpt lat="45.69138565456332" lon="9.213074560647458"><ele>263.0</ele><time>2026-04-11T18:05:54Z</time></trkpt><trkpt lat="45.69127504062456" lon="9.213103926714613"><ele>263.0</ele><time>2026-04-11T18:05:55Z</time></trkpt><trkpt lat="45.69116483458628" lon="9.213190328546073"><ele>263.0</ele><time>2026-04-11T18:05:56Z</time></trkpt><trkpt lat="45.69106825652756" lon="9.213326538102182"><ele>263.0</ele><time>2026-04-11T18:05:57Z</time></trkpt><trkpt lat="45.690964998835334" lon="9.213466549988139"><ele>261.6666666666667</ele><time>2026-04-11T18:05:58Z</time></trkpt><trkpt lat="45.69082199132878" lon="9.213555587749223"><ele>260.3333333333333</ele><time>2026-04-11T18:05:59Z</time></trkpt><trkpt lat="45.690654166129164" lon="9.213610797018429"><ele>259.0</ele><time>2026-04-11T18:06:00Z</time></trkpt><trkpt lat="45.690480987684325" lon="9.213682562172892"><ele>259.0</ele><time>2026-04-11T18:06:01Z</time></trkpt><trkpt lat="45.690303471321634" lon="9.213756413874082"><ele>259.0</ele><time>2026-04-11T18:06:02Z</time></trkpt><trkpt lat="45.690114874615205" lon="9.213833639896588"><ele>259.0</ele><time>2026-04-11T18:06:03Z</time></trkpt><trkpt lat="45.689917589044846" lon="9.213910147791148"><ele>259.0</ele><time>2026-04-11T18:06:04Z</time></trkpt><trkpt lat="45.68971566569818" lon="9.213989265050962"><ele>259.0</ele><time>2026-04-11T18:06:05Z</time></trkpt><trkpt lat="45.68951143815385" lon="9.21406863007721"><ele>259.0</ele><time>2026-04-11T18:06:06Z</time></trkpt><trkpt lat="45.689299564250604" lon="9.214148398801418"><ele>259.5</ele><time>2026-04-11T18:06:07Z</time></trkpt><trkpt lat="45.689075845525146" lon="9.21422488430274"><ele>260.0</ele><time>2026-04-11T18:06:08Z</time></trkpt><trkpt lat="45.688851009333206" lon="9.21430236450009"><ele>260.0</ele><time>2026-04-11T18:06:09Z</time></trkpt><trkpt lat="45.68862143645738" lon="9.214381882970612"><ele>260.0</ele><time>2026-04-11T18:06:10Z</time></trkpt><trkpt lat="45.68838860137449" lon="9.214465783998483"><ele>259.5</ele><time>2026-04-11T18:06:11Z</time></trkpt><trkpt lat="45.688155842678384" lon="9.214548840830126"><ele>259.0</ele><time>2026-04-11T18:06:12Z</time></trkpt><trkpt lat="45.6879244590822" lon="9.214626990530748"><ele>258.0</ele><time>2026-04-11T18:06:13Z</time></trkpt><trkpt lat="45.68769503286317" lon="9.214707346598637"><ele>257.0</ele><time>2026-04-11T18:06:14Z</time></trkpt><trkpt lat="45.687466592597964" lon="9.214788367313146"><ele>258.0</ele><time>2026-04-11T18:06:15Z</time></trkpt><trkpt lat="45.687240250192545" lon="9.214872235706062"><ele>259.0</ele><time>2026-04-11T18:06:16Z</time></trkpt><trkpt lat="45.68701335282169" lon="9.214961735388263"><ele>257.5</ele><time>2026-04-11T18:06:17Z</time></trkpt><trkpt lat="45.68678841783467" lon="9.2150428976402"><ele>256.0</ele><time>2026-04-11T18:06:18Z</time></trkpt><trkpt lat="45.6865622839184" lon="9.215118756766069"><ele>256.0</ele><time>2026-04-11T18:06:19Z</time></trkpt><trkpt lat="45.68633185425018" lon="9.215189621457705"><ele>256.0</ele><time>2026-04-11T18:06:20Z</time></trkpt><trkpt lat="45.686101726929905" lon="9.215265063826832"><ele>255.0</ele><time>2026-04-11T18:06:21Z</time></trkpt><trkpt lat="45.685873247462766" lon="9.21534228586348"><ele>254.0</ele><time>2026-04-11T18:06:22Z</time></trkpt><trkpt lat="45.68564533535159" lon="9.215422989024503"><ele>254.0</ele><time>2026-04-11T18:06:23Z</time></trkpt><trkpt lat="45.685415563983625" lon="9.215494558280996"><ele>254.0</ele><time>2026-04-11T18:06:24Z</time></trkpt><trkpt lat="45.68518391021361" lon="9.215544117570387"><ele>254.0</ele><time>2026-04-11T18:06:25Z</time></trkpt><trkpt lat="45.68494982196229" lon="9.215575019391547"><ele>254.0</ele><time>2026-04-11T18:06:26Z</time></trkpt><trkpt lat="45.68471569647959" lon="9.215594992964597"><ele>254.0</ele><time>2026-04-11T18:06:27Z</time></trkpt><trkpt lat="45.68448149487267" lon="9.215619449600096"><ele>254.0</ele><time>2026-04-11T18:06:28Z</time></trkpt><trkpt lat="45.68424766341573" lon="9.215661206646299"><ele>253.5</ele><time>2026-04-11T18:06:29Z</time></trkpt><trkpt lat="45.684016357997656" lon="9.215728221286678"><ele>253.0</ele><time>2026-04-11T18:06:30Z</time></trkpt><trkpt lat="45.68379015712602" lon="9.21581375578862"><ele>253.5</ele><time>2026-04-11T18:06:31Z</time></trkpt><trkpt lat="45.68356613493563" lon="9.215912724477393"><ele>254.0</ele><time>2026-04-11T18:06:32Z</time></trkpt><trkpt lat="45.68334257230777" lon="9.216014296105916"><ele>254.0</ele><time>2026-04-11T18:06:33Z</time></trkpt><trkpt lat="45.683117775775585" lon="9.216116258707961"><ele>254.0</ele><time>2026-04-11T18:06:34Z</time></trkpt><trkpt lat="45.682893682584975" lon="9.216219168742974"><ele>254.0</ele><time>2026-04-11T18:06:35Z</time></trkpt><trkpt lat="45.68267011475243" lon="9.216324706584185"><ele>254.0</ele><time>2026-04-11T18:06:36Z</time></trkpt><trkpt lat="45.68244439781072" lon="9.216435019348092"><ele>252.5</ele><time>2026-04-11T18:06:37Z</time></trkpt><trkpt lat="45.68221189825588" lon="9.216546132885183"><ele>251.0</ele><time>2026-04-11T18:06:38Z</time></trkpt><trkpt lat="45.68197562099548" lon="9.216650974128532"><ele>251.0</ele><time>2026-04-11T18:06:39Z</time></trkpt><trkpt lat="45.681731100898396" lon="9.216746511409005"><ele>251.0</ele><time>2026-04-11T18:06:40Z</time></trkpt><trkpt lat="45.681480730469254" lon="9.216835721146625"><ele>251.0</ele><time>2026-04-11T18:06:41Z</time></trkpt><trkpt lat="45.681227112455645" lon="9.216926405086834"><ele>251.0</ele><time>2026-04-11T18:06:42Z</time></trkpt><trkpt lat="45.68097123910222" lon="9.217022669235368"><ele>251.0</ele><time>2026-04-11T18:06:43Z</time></trkpt><trkpt lat="45.680713533853755" lon="9.217121257384848"><ele>251.0</ele><time>2026-04-11T18:06:44Z</time></trkpt><trkpt lat="45.6804536196722" lon="9.217226532165299"><ele>250.5</ele><time>2026-04-11T18:06:45Z</time></trkpt><trkpt lat="45.6801921327973" lon="9.217331944209333"><ele>250.0</ele><time>2026-04-11T18:06:46Z</time></trkpt><trkpt lat="45.679929564376415" lon="9.217433839722885"><ele>250.0</ele><time>2026-04-11T18:06:47Z</time></trkpt><trkpt lat="45.679666800155296" lon="9.217533826710158"><ele>250.0</ele><time>2026-04-11T18:06:48Z</time></trkpt><trkpt lat="45.67940508928434" lon="9.217633174320197"><ele>250.0</ele><time>2026-04-11T18:06:49Z</time></trkpt><trkpt lat="45.679144377029026" lon="9.217726538147243"><ele>250.0</ele><time>2026-04-11T18:06:50Z</time></trkpt><trkpt lat="45.678883659434796" lon="9.217818457248026"><ele>250.0</ele><time>2026-04-11T18:06:51Z</time></trkpt><trkpt lat="45.67862361325138" lon="9.2179092312546"><ele>250.0</ele><time>2026-04-11T18:06:52Z</time></trkpt><trkpt lat="45.67836432183524" lon="9.218001855078443"><ele>249.5</ele><time>2026-04-11T18:06:53Z</time></trkpt><trkpt lat="45.67810491288198" lon="9.218095350058961"><ele>249.0</ele><time>2026-04-11T18:06:54Z</time></trkpt><trkpt lat="45.677845145928465" lon="9.218190136362077"><ele>250.0</ele><time>2026-04-11T18:06:55Z</time></trkpt><trkpt lat="45.677584999617615" lon="9.218283474168103"><ele>251.0</ele><time>2026-04-11T18:06:56Z</time></trkpt><trkpt lat="45.67732513483031" lon="9.218372330746039"><ele>251.0</ele><time>2026-04-11T18:06:57Z</time></trkpt><trkpt lat="45.6770652525426" lon="9.218459043383882"><ele>251.0</ele><time>2026-04-11T18:06:58Z</time></trkpt><trkpt lat="45.67680374438404" lon="9.218550742020629"><ele>248.5</ele><time>2026-04-11T18:06:59Z</time></trkpt><trkpt lat="45.676542820549294" lon="9.218644099239198"><ele>246.0</ele><time>2026-04-11T18:07:00Z</time></trkpt><trkpt lat="45.67628264486153" lon="9.218740639453472"><ele>245.5</ele><time>2026-04-11T18:07:01Z</time></trkpt><trkpt lat="45.67602302184551" lon="9.218837252071891"><ele>245.0</ele><time>2026-04-11T18:07:02Z</time></trkpt><trkpt lat="45.67576324332096" lon="9.218933290173595"><ele>245.0</ele><time>2026-04-11T18:07:03Z</time></trkpt><trkpt lat="45.6755028046881" lon="9.219027428669918"><ele>245.0</ele><time>2026-04-11T18:07:04Z</time></trkpt><trkpt lat="45.67524207449768" lon="9.219119799314852"><ele>245.5</ele><time>2026-04-11T18:07:05Z</time></trkpt><trkpt lat="45.674980826029135" lon="9.219211573546385"><ele>246.0</ele><time>2026-04-11T18:07:06Z</time></trkpt><trkpt lat="45.67471816213697" lon="9.219303098977967"><ele>246.0</ele><time>2026-04-11T18:07:07Z</time></trkpt><trkpt lat="45.67445535985906" lon="9.219395239807495"><ele>246.0</ele><time>2026-04-11T18:07:08Z</time></trkpt><trkpt lat="45.67419374309447" lon="9.219484075605223"><ele>245.5</ele><time>2026-04-11T18:07:09Z</time></trkpt><trkpt lat="45.67393094765705" lon="9.219572128248124"><ele>245.0</ele><time>2026-04-11T18:07:10Z</time></trkpt><trkpt lat="45.67367011816845" lon="9.219665071311908"><ele>245.5</ele><time>2026-04-11T18:07:11Z</time></trkpt><trkpt lat="45.67340984782035" lon="9.219756823733809"><ele>246.0</ele><time>2026-04-11T18:07:12Z</time></trkpt><trkpt lat="45.67315005399766" lon="9.219853052721373"><ele>245.0</ele><time>2026-04-11T18:07:13Z</time></trkpt><trkpt lat="45.6728897751549" lon="9.21994995128072"><ele>244.0</ele><time>2026-04-11T18:07:14Z</time></trkpt><trkpt lat="45.67262982522645" lon="9.220045666458553"><ele>243.0</ele><time>2026-04-11T18:07:15Z</time></trkpt><trkpt lat="45.67236734565113" lon="9.220142882623005"><ele>242.0</ele><time>2026-04-11T18:07:16Z</time></trkpt><trkpt lat="45.67210564079276" lon="9.220231905189209"><ele>241.0</ele><time>2026-04-11T18:07:17Z</time></trkpt><trkpt lat="45.67184383668191" lon="9.220321969755526"><ele>240.0</ele><time>2026-04-11T18:07:18Z</time></trkpt><trkpt lat="45.67158381146924" lon="9.220415583974898"><ele>240.0</ele><time>2026-04-11T18:07:19Z</time></trkpt><trkpt lat="45.671325123019265" lon="9.220516656954725"><ele>240.0</ele><time>2026-04-11T18:07:20Z</time></trkpt><trkpt lat="45.671065619599105" lon="9.220619031462148"><ele>239.0</ele><time>2026-04-11T18:07:21Z</time></trkpt><trkpt lat="45.67080625755492" lon="9.220717931887238"><ele>238.0</ele><time>2026-04-11T18:07:22Z</time></trkpt><trkpt lat="45.67054704719612" lon="9.220816084998342"><ele>238.0</ele><time>2026-04-11T18:07:23Z</time></trkpt><trkpt lat="45.67028820654195" lon="9.220912042835366"><ele>238.0</ele><time>2026-04-11T18:07:24Z</time></trkpt><trkpt lat="45.67002847823412" lon="9.22100624541314"><ele>238.5</ele><time>2026-04-11T18:07:25Z</time></trkpt><trkpt lat="45.66976837145511" lon="9.221100373395554"><ele>239.0</ele><time>2026-04-11T18:07:26Z</time></trkpt><trkpt lat="45.66950692093708" lon="9.22119482324202"><ele>236.5</ele><time>2026-04-11T18:07:27Z</time></trkpt><trkpt lat="45.66924695385906" lon="9.22129007526823"><ele>234.0</ele><time>2026-04-11T18:07:28Z</time></trkpt><trkpt lat="45.66898679074929" lon="9.221384417326645"><ele>234.0</ele><time>2026-04-11T18:07:29Z</time></trkpt><trkpt lat="45.66872671009858" lon="9.221476370432475"><ele>234.0</ele><time>2026-04-11T18:07:30Z</time></trkpt><trkpt lat="45.66846587604048" lon="9.221566618711229"><ele>235.5</ele><time>2026-04-11T18:07:31Z</time></trkpt><trkpt lat="45.668205097105464" lon="9.221657900121164"><ele>237.0</ele><time>2026-04-11T18:07:32Z</time></trkpt><trkpt lat="45.66794267066066" lon="9.22174500034278"><ele>236.0</ele><time>2026-04-11T18:07:33Z</time></trkpt><trkpt lat="45.667679244601" lon="9.221827845878606"><ele>235.0</ele><time>2026-04-11T18:07:34Z</time></trkpt><trkpt lat="45.66741697316481" lon="9.221913297263642"><ele>235.0</ele><time>2026-04-11T18:07:35Z</time></trkpt><trkpt lat="45.66715630428571" lon="9.222004773976977"><ele>235.0</ele><time>2026-04-11T18:07:36Z</time></trkpt><trkpt lat="45.66689591883986" lon="9.222096495703951"><ele>237.5</ele><time>2026-04-11T18:07:37Z</time></trkpt><trkpt lat="45.666634879492726" lon="9.222187206103154"><ele>240.0</ele><time>2026-04-11T18:07:38Z</time></trkpt><trkpt lat="45.66637285798716" lon="9.222276272528598"><ele>239.0</ele><time>2026-04-11T18:07:39Z</time></trkpt><trkpt lat="45.666112784321605" lon="9.222366051349809"><ele>238.0</ele><time>2026-04-11T18:07:40Z</time></trkpt><trkpt lat="45.665852199560575" lon="9.222456920607979"><ele>237.0</ele><time>2026-04-11T18:07:41Z</time></trkpt><trkpt lat="45.665591783314404" lon="9.222552048984262"><ele>236.0</ele><time>2026-04-11T18:07:42Z</time></trkpt><trkpt lat="45.665331378725064" lon="9.222647826039635"><ele>236.0</ele><time>2026-04-11T18:07:43Z</time></trkpt><trkpt lat="45.665070555280664" lon="9.222741117037737"><ele>236.0</ele><time>2026-04-11T18:07:44Z</time></trkpt><trkpt lat="45.664808737349354" lon="9.222832477754906"><ele>236.0</ele><time>2026-04-11T18:07:45Z</time></trkpt><trkpt lat="45.66454789192682" lon="9.22292451937387"><ele>236.0</ele><time>2026-04-11T18:07:46Z</time></trkpt><trkpt lat="45.664287800758046" lon="9.223016012119675"><ele>235.5</ele><time>2026-04-11T18:07:47Z</time></trkpt><trkpt lat="45.66402775697369" lon="9.22310783581332"><ele>235.0</ele><time>2026-04-11T18:07:48Z</time></trkpt><trkpt lat="45.66376845636371" lon="9.22319971637192"><ele>234.0</ele><time>2026-04-11T18:07:49Z</time></trkpt><trkpt lat="45.663509043068345" lon="9.223294335715083"><ele>233.0</ele><time>2026-04-11T18:07:50Z</time></trkpt><trkpt lat="45.66324811448832" lon="9.223387675118227"><ele>233.0</ele><time>2026-04-11T18:07:51Z</time></trkpt><trkpt lat="45.66298792481681" lon="9.22348116182069"><ele>233.0</ele><time>2026-04-11T18:07:52Z</time></trkpt><trkpt lat="45.66272718905281" lon="9.223573698795246"><ele>233.0</ele><time>2026-04-11T18:07:53Z</time></trkpt><trkpt lat="45.662466567197455" lon="9.223666226717215"><ele>233.0</ele><time>2026-04-11T18:07:54Z</time></trkpt><trkpt lat="45.662205447120975" lon="9.223756285806163"><ele>233.0</ele><time>2026-04-11T18:07:55Z</time></trkpt><trkpt lat="45.66194472368207" lon="9.223847414051882"><ele>233.0</ele><time>2026-04-11T18:07:56Z</time></trkpt><trkpt lat="45.66168391033286" lon="9.223939754295246"><ele>233.0</ele><time>2026-04-11T18:07:57Z</time></trkpt><trkpt lat="45.66142413332507" lon="9.224034295686232"><ele>233.0</ele><time>2026-04-11T18:07:58Z</time></trkpt><trkpt lat="45.661163659801886" lon="9.224129518870178"><ele>231.5</ele><time>2026-04-11T18:07:59Z</time></trkpt><trkpt lat="45.66090389012949" lon="9.224222733534914"><ele>230.0</ele><time>2026-04-11T18:08:00Z</time></trkpt><trkpt lat="45.6606439133647" lon="9.224315269375134"><ele>230.0</ele><time>2026-04-11T18:08:01Z</time></trkpt><trkpt lat="45.660383821651635" lon="9.224406245527907"><ele>230.0</ele><time>2026-04-11T18:08:02Z</time></trkpt><trkpt lat="45.66012367241619" lon="9.224500573915057"><ele>230.0</ele><time>2026-04-11T18:08:03Z</time></trkpt><trkpt lat="45.659863557761376" lon="9.224594950472678"><ele>230.0</ele><time>2026-04-11T18:08:04Z</time></trkpt><trkpt lat="45.65960282719636" lon="9.2246894518816"><ele>230.5</ele><time>2026-04-11T18:08:05Z</time></trkpt><trkpt lat="45.65934303122951" lon="9.224784736395858"><ele>231.0</ele><time>2026-04-11T18:08:06Z</time></trkpt><trkpt lat="45.6590832584926" lon="9.224879644160877"><ele>231.0</ele><time>2026-04-11T18:08:07Z</time></trkpt><trkpt lat="45.65882315658326" lon="9.224975377940648"><ele>231.0</ele><time>2026-04-11T18:08:08Z</time></trkpt><trkpt lat="45.658562421724085" lon="9.225068212784722"><ele>231.0</ele><time>2026-04-11T18:08:09Z</time></trkpt><trkpt lat="45.65830086510385" lon="9.225160927790062"><ele>231.0</ele><time>2026-04-11T18:08:10Z</time></trkpt><trkpt lat="45.65803925797599" lon="9.22525496112155"><ele>230.0</ele><time>2026-04-11T18:08:11Z</time></trkpt><trkpt lat="45.65777873501701" lon="9.225348022814774"><ele>229.0</ele><time>2026-04-11T18:08:12Z</time></trkpt><trkpt lat="45.65751811348537" lon="9.22544161826198"><ele>229.0</ele><time>2026-04-11T18:08:13Z</time></trkpt><trkpt lat="45.657257514064824" lon="9.225531723672669"><ele>229.0</ele><time>2026-04-11T18:08:14Z</time></trkpt><trkpt lat="45.65699712326365" lon="9.225618808269106"><ele>229.0</ele><time>2026-04-11T18:08:15Z</time></trkpt><trkpt lat="45.656734509131795" lon="9.225701461997403"><ele>229.0</ele><time>2026-04-11T18:08:16Z</time></trkpt><trkpt lat="45.6564701956016" lon="9.225777900733053"><ele>229.0</ele><time>2026-04-11T18:08:17Z</time></trkpt><trkpt lat="45.65620486092962" lon="9.225845518894436"><ele>229.0</ele><time>2026-04-11T18:08:18Z</time></trkpt><trkpt lat="45.655937993639085" lon="9.225871223154126"><ele>229.0</ele><time>2026-04-11T18:08:19Z</time></trkpt><trkpt lat="45.65567039832913" lon="9.225872896625068"><ele>229.0</ele><time>2026-04-11T18:08:20Z</time></trkpt><trkpt lat="45.655402161216045" lon="9.22587776432227"><ele>227.0</ele><time>2026-04-11T18:08:21Z</time></trkpt><trkpt lat="45.65513437166501" lon="9.22587314831121"><ele>225.0</ele><time>2026-04-11T18:08:22Z</time></trkpt><trkpt lat="45.65486578475443" lon="9.225859710300561"><ele>225.0</ele><time>2026-04-11T18:08:23Z</time></trkpt><trkpt lat="45.65459705280968" lon="9.225844932882167"><ele>225.0</ele><time>2026-04-11T18:08:24Z</time></trkpt><trkpt lat="45.654328013084765" lon="9.22583102524283"><ele>225.5</ele><time>2026-04-11T18:08:25Z</time></trkpt><trkpt lat="45.654058710783026" lon="9.225818875724379"><ele>226.0</ele><time>2026-04-11T18:08:26Z</time></trkpt><trkpt lat="45.653789919709126" lon="9.225803321625918"><ele>225.5</ele><time>2026-04-11T18:08:27Z</time></trkpt><trkpt lat="45.653521381771945" lon="9.225789496977132"><ele>225.0</ele><time>2026-04-11T18:08:28Z</time></trkpt><trkpt lat="45.65325241475963" lon="9.225775579369355"><ele>225.0</ele><time>2026-04-11T18:08:29Z</time></trkpt><trkpt lat="45.65298330944251" lon="9.22576378909971"><ele>225.0</ele><time>2026-04-11T18:08:30Z</time></trkpt><trkpt lat="45.65271446061119" lon="9.225751375512626"><ele>224.0</ele><time>2026-04-11T18:08:31Z</time></trkpt><trkpt lat="45.652446315521466" lon="9.225737503038928"><ele>223.0</ele><time>2026-04-11T18:08:32Z</time></trkpt><trkpt lat="45.65217851555437" lon="9.22572314525446"><ele>224.0</ele><time>2026-04-11T18:08:33Z</time></trkpt><trkpt lat="45.65191129580373" lon="9.22570627267767"><ele>225.0</ele><time>2026-04-11T18:08:34Z</time></trkpt><trkpt lat="45.651642999745654" lon="9.225690357558513"><ele>225.0</ele><time>2026-04-11T18:08:35Z</time></trkpt><trkpt lat="45.65137413699653" lon="9.225677110891963"><ele>225.0</ele><time>2026-04-11T18:08:36Z</time></trkpt><trkpt lat="45.651105614618444" lon="9.225665546286573"><ele>224.5</ele><time>2026-04-11T18:08:37Z</time></trkpt><trkpt lat="45.65083751442166" lon="9.22565558976451"><ele>224.0</ele><time>2026-04-11T18:08:38Z</time></trkpt><trkpt lat="45.6505686501175" lon="9.225645979003191"><ele>223.0</ele><time>2026-04-11T18:08:39Z</time></trkpt><trkpt lat="45.65029970050405" lon="9.225631150399701"><ele>222.0</ele><time>2026-04-11T18:08:40Z</time></trkpt><trkpt lat="45.65003154520627" lon="9.225615045271592"><ele>222.0</ele><time>2026-04-11T18:08:41Z</time></trkpt><trkpt lat="45.64976251973218" lon="9.225597910801177"><ele>222.0</ele><time>2026-04-11T18:08:42Z</time></trkpt><trkpt lat="45.649493546326205" lon="9.225577168098189"><ele>221.5</ele><time>2026-04-11T18:08:43Z</time></trkpt><trkpt lat="45.6492241656047" lon="9.225559426646502"><ele>221.0</ele><time>2026-04-11T18:08:44Z</time></trkpt><trkpt lat="45.64895540273258" lon="9.225546567592795"><ele>221.0</ele><time>2026-04-11T18:08:45Z</time></trkpt><trkpt lat="45.64868448392735" lon="9.225537216147536"><ele>221.0</ele><time>2026-04-11T18:08:46Z</time></trkpt><trkpt lat="45.64841528197305" lon="9.225530036994998"><ele>220.5</ele><time>2026-04-11T18:08:47Z</time></trkpt><trkpt lat="45.648148044508076" lon="9.225523707215208"><ele>220.0</ele><time>2026-04-11T18:08:48Z</time></trkpt><trkpt lat="45.64788005999481" lon="9.225522185249488"><ele>221.0</ele><time>2026-04-11T18:08:49Z</time></trkpt><trkpt lat="45.647611788935976" lon="9.225519540773561"><ele>222.0</ele><time>2026-04-11T18:08:50Z</time></trkpt><trkpt lat="45.647342374239734" lon="9.225509851287912"><ele>222.0</ele><time>2026-04-11T18:08:51Z</time></trkpt><trkpt lat="45.64707295428429" lon="9.225498887667309"><ele>222.0</ele><time>2026-04-11T18:08:52Z</time></trkpt><trkpt lat="45.64680358927076" lon="9.225486468746299"><ele>222.5</ele><time>2026-04-11T18:08:53Z</time></trkpt><trkpt lat="45.64653509595592" lon="9.22547123831233"><ele>223.0</ele><time>2026-04-11T18:08:54Z</time></trkpt><trkpt lat="45.64626726017992" lon="9.225455968967955"><ele>221.5</ele><time>2026-04-11T18:08:55Z</time></trkpt><trkpt lat="45.64599890954952" lon="9.225440899594332"><ele>220.0</ele><time>2026-04-11T18:08:56Z</time></trkpt><trkpt lat="45.64573115848854" lon="9.225428391873036"><ele>220.0</ele><time>2026-04-11T18:08:57Z</time></trkpt><trkpt lat="45.64546238688772" lon="9.225416606477138"><ele>220.0</ele><time>2026-04-11T18:08:58Z</time></trkpt><trkpt lat="45.64519433798384" lon="9.225409626147053"><ele>219.0</ele><time>2026-04-11T18:08:59Z</time></trkpt><trkpt lat="45.644926385770994" lon="9.225403492683263"><ele>218.0</ele><time>2026-04-11T18:09:00Z</time></trkpt><trkpt lat="45.64465895664438" lon="9.225394081448556"><ele>218.5</ele><time>2026-04-11T18:09:01Z</time></trkpt><trkpt lat="45.64439062162332" lon="9.225381238339484"><ele>219.0</ele><time>2026-04-11T18:09:02Z</time></trkpt><trkpt lat="45.644123227976365" lon="9.225364345571776"><ele>219.0</ele><time>2026-04-11T18:09:03Z</time></trkpt><trkpt lat="45.64385592206353" lon="9.225345189793801"><ele>219.0</ele><time>2026-04-11T18:09:04Z</time></trkpt><trkpt lat="45.643588382248005" lon="9.225326527275715"><ele>219.0</ele><time>2026-04-11T18:09:05Z</time></trkpt><trkpt lat="45.643320754780206" lon="9.225308931794078"><ele>219.0</ele><time>2026-04-11T18:09:06Z</time></trkpt><trkpt lat="45.64305355761368" lon="9.225294769910962"><ele>218.0</ele><time>2026-04-11T18:09:07Z</time></trkpt><trkpt lat="45.64278540524837" lon="9.225280121465424"><ele>217.0</ele><time>2026-04-11T18:09:08Z</time></trkpt><trkpt lat="45.64251603127854" lon="9.225265545453325"><ele>217.0</ele><time>2026-04-11T18:09:09Z</time></trkpt><trkpt lat="45.64224612350095" lon="9.225250521072958"><ele>217.0</ele><time>2026-04-11T18:09:10Z</time></trkpt><trkpt lat="45.64197510863947" lon="9.225232670779562"><ele>217.0</ele><time>2026-04-11T18:09:11Z</time></trkpt><trkpt lat="45.64170401976858" lon="9.225216994143324"><ele>217.0</ele><time>2026-04-11T18:09:12Z</time></trkpt><trkpt lat="45.64143380875967" lon="9.225204422230092"><ele>217.0</ele><time>2026-04-11T18:09:13Z</time></trkpt><trkpt lat="45.64116428239924" lon="9.225192635035505"><ele>217.0</ele><time>2026-04-11T18:09:14Z</time></trkpt><trkpt lat="45.64089473859666" lon="9.225179462320302"><ele>216.0</ele><time>2026-04-11T18:09:15Z</time></trkpt><trkpt lat="45.64062520725591" lon="9.225164731338593"><ele>215.0</ele><time>2026-04-11T18:09:16Z</time></trkpt><trkpt lat="45.640355942692615" lon="9.225149738026856"><ele>215.5</ele><time>2026-04-11T18:09:17Z</time></trkpt><trkpt lat="45.64008736259401" lon="9.22513312753648"><ele>216.0</ele><time>2026-04-11T18:09:18Z</time></trkpt><trkpt lat="45.6398190295459" lon="9.225117866998376"><ele>216.0</ele><time>2026-04-11T18:09:19Z</time></trkpt><trkpt lat="45.63955065266995" lon="9.225104909125994"><ele>216.0</ele><time>2026-04-11T18:09:20Z</time></trkpt><trkpt lat="45.63928327036174" lon="9.225092123789043"><ele>215.5</ele><time>2026-04-11T18:09:21Z</time></trkpt><trkpt lat="45.63901558817872" lon="9.225078132564205"><ele>215.0</ele><time>2026-04-11T18:09:22Z</time></trkpt><trkpt lat="45.638747663721645" lon="9.225061830735012"><ele>213.5</ele><time>2026-04-11T18:09:23Z</time></trkpt><trkpt lat="45.638480195447094" lon="9.225045347859373"><ele>212.0</ele><time>2026-04-11T18:09:24Z</time></trkpt><trkpt lat="45.63821181980666" lon="9.225029930751791"><ele>212.0</ele><time>2026-04-11T18:09:25Z</time></trkpt><trkpt lat="45.63794430758724" lon="9.225018998819928"><ele>212.0</ele><time>2026-04-11T18:09:26Z</time></trkpt><trkpt lat="45.6376761448124" lon="9.225009467349098"><ele>211.0</ele><time>2026-04-11T18:09:27Z</time></trkpt><trkpt lat="45.637408013435014" lon="9.224996516943497"><ele>210.0</ele><time>2026-04-11T18:09:28Z</time></trkpt><trkpt lat="45.637140558681004" lon="9.224981833186892"><ele>210.0</ele><time>2026-04-11T18:09:29Z</time></trkpt><trkpt lat="45.63687241157544" lon="9.22496695833672"><ele>210.0</ele><time>2026-04-11T18:09:30Z</time></trkpt><trkpt lat="45.63660414225628" lon="9.224952314415223"><ele>210.0</ele><time>2026-04-11T18:09:31Z</time></trkpt><trkpt lat="45.63633536215187" lon="9.224940741379022"><ele>210.0</ele><time>2026-04-11T18:09:32Z</time></trkpt><trkpt lat="45.63606625505062" lon="9.224929127181099"><ele>210.5</ele><time>2026-04-11T18:09:33Z</time></trkpt><trkpt lat="45.63579723841485" lon="9.224915890096359"><ele>211.0</ele><time>2026-04-11T18:09:34Z</time></trkpt><trkpt lat="45.63552829235938" lon="9.224901411379438"><ele>210.0</ele><time>2026-04-11T18:09:35Z</time></trkpt><trkpt lat="45.63525828152154" lon="9.224883875354767"><ele>209.0</ele><time>2026-04-11T18:09:36Z</time></trkpt><trkpt lat="45.6349871252255" lon="9.224870295567257"><ele>209.0</ele><time>2026-04-11T18:09:37Z</time></trkpt><trkpt lat="45.63471944780288" lon="9.224857608276325"><ele>209.0</ele><time>2026-04-11T18:09:38Z</time></trkpt><trkpt lat="45.634453869676136" lon="9.224845907376146"><ele>208.5</ele><time>2026-04-11T18:09:39Z</time></trkpt><trkpt lat="45.63418660356778" lon="9.224830637876776"><ele>208.0</ele><time>2026-04-11T18:09:40Z</time></trkpt><trkpt lat="45.63391856190222" lon="9.224815639357905"><ele>207.5</ele><time>2026-04-11T18:09:41Z</time></trkpt><trkpt lat="45.633649859848866" lon="9.224801876237866"><ele>207.0</ele><time>2026-04-11T18:09:42Z</time></trkpt><trkpt lat="45.63338060937291" lon="9.22479053905461"><ele>205.5</ele><time>2026-04-11T18:09:43Z</time></trkpt><trkpt lat="45.633111777594934" lon="9.224783474169783"><ele>204.0</ele><time>2026-04-11T18:09:44Z</time></trkpt><trkpt lat="45.632842718847634" lon="9.224761305215129"><ele>204.0</ele><time>2026-04-11T18:09:45Z</time></trkpt><trkpt lat="45.63257493156204" lon="9.224729046709914"><ele>204.0</ele><time>2026-04-11T18:09:46Z</time></trkpt><trkpt lat="45.63230672338863" lon="9.224704284406075"><ele>204.0</ele><time>2026-04-11T18:09:47Z</time></trkpt><trkpt lat="45.63203882340432" lon="9.224684784882578"><ele>204.0</ele><time>2026-04-11T18:09:48Z</time></trkpt><trkpt lat="45.63177062463929" lon="9.224665677079669"><ele>206.0</ele><time>2026-04-11T18:09:49Z</time></trkpt><trkpt lat="45.63150326833002" lon="9.224653187981707"><ele>208.0</ele><time>2026-04-11T18:09:50Z</time></trkpt><trkpt lat="45.631235338353385" lon="9.224642608527251"><ele>206.5</ele><time>2026-04-11T18:09:51Z</time></trkpt><trkpt lat="45.630967317301845" lon="9.224631411563582"><ele>205.0</ele><time>2026-04-11T18:09:52Z</time></trkpt><trkpt lat="45.63069856637847" lon="9.22462565347446"><ele>205.0</ele><time>2026-04-11T18:09:53Z</time></trkpt><trkpt lat="45.630430810646764" lon="9.224622488393782"><ele>205.0</ele><time>2026-04-11T18:09:54Z</time></trkpt><trkpt lat="45.63016221323675" lon="9.22461594649557"><ele>204.0</ele><time>2026-04-11T18:09:55Z</time></trkpt><trkpt lat="45.629893124205594" lon="9.224609635766706"><ele>203.0</ele><time>2026-04-11T18:09:56Z</time></trkpt><trkpt lat="45.629623597365295" lon="9.224608010206165"><ele>203.0</ele><time>2026-04-11T18:09:57Z</time></trkpt><trkpt lat="45.62935353956264" lon="9.224602568191875"><ele>203.0</ele><time>2026-04-11T18:09:58Z</time></trkpt><trkpt lat="45.62908381375648" lon="9.224593657854564"><ele>203.0</ele><time>2026-04-11T18:09:59Z</time></trkpt><trkpt lat="45.62881473100863" lon="9.224581545793557"><ele>203.0</ele><time>2026-04-11T18:10:00Z</time></trkpt><trkpt lat="45.6285464595599" lon="9.224573009841"><ele>204.0</ele><time>2026-04-11T18:10:01Z</time></trkpt><trkpt lat="45.62827824870534" lon="9.224565214168104"><ele>205.0</ele><time>2026-04-11T18:10:02Z</time></trkpt><trkpt lat="45.628011052608855" lon="9.224550232994307"><ele>204.5</ele><time>2026-04-11T18:10:03Z</time></trkpt><trkpt lat="45.62774237547914" lon="9.224536666795455"><ele>204.0</ele><time>2026-04-11T18:10:04Z</time></trkpt><trkpt lat="45.62747477470866" lon="9.224521901584259"><ele>204.0</ele><time>2026-04-11T18:10:05Z</time></trkpt><trkpt lat="45.62720671634918" lon="9.224504880582245"><ele>204.0</ele><time>2026-04-11T18:10:06Z</time></trkpt><trkpt lat="45.626937413270504" lon="9.224490865400153"><ele>202.0</ele><time>2026-04-11T18:10:07Z</time></trkpt><trkpt lat="45.626668543654816" lon="9.224478588967978"><ele>200.0</ele><time>2026-04-11T18:10:08Z</time></trkpt><trkpt lat="45.62639938489711" lon="9.224462813985744"><ele>200.0</ele><time>2026-04-11T18:10:09Z</time></trkpt><trkpt lat="45.62613041049368" lon="9.224445289151861"><ele>200.0</ele><time>2026-04-11T18:10:10Z</time></trkpt><trkpt lat="45.62586195542192" lon="9.224421835438665"><ele>200.0</ele><time>2026-04-11T18:10:11Z</time></trkpt><trkpt lat="45.62559372240952" lon="9.224396988029158"><ele>200.0</ele><time>2026-04-11T18:10:12Z</time></trkpt><trkpt lat="45.62532509526555" lon="9.224375936988277"><ele>199.0</ele><time>2026-04-11T18:10:13Z</time></trkpt><trkpt lat="45.625056982711236" lon="9.224363754102932"><ele>198.0</ele><time>2026-04-11T18:10:14Z</time></trkpt><trkpt lat="45.624788824012455" lon="9.224348830737975"><ele>198.0</ele><time>2026-04-11T18:10:15Z</time></trkpt><trkpt lat="45.62452167505424" lon="9.224328162513002"><ele>198.0</ele><time>2026-04-11T18:10:16Z</time></trkpt><trkpt lat="45.62425324614652" lon="9.224307376004337"><ele>198.0</ele><time>2026-04-11T18:10:17Z</time></trkpt><trkpt lat="45.623984075652565" lon="9.224290361586316"><ele>198.0</ele><time>2026-04-11T18:10:18Z</time></trkpt><trkpt lat="45.623715811036725" lon="9.224278703225526"><ele>198.0</ele><time>2026-04-11T18:10:19Z</time></trkpt><trkpt lat="45.623446606326965" lon="9.224268525333104"><ele>198.0</ele><time>2026-04-11T18:10:20Z</time></trkpt><trkpt lat="45.62317756054956" lon="9.22425848314642"><ele>198.0</ele><time>2026-04-11T18:10:21Z</time></trkpt><trkpt lat="45.62290786359262" lon="9.224244727404814"><ele>198.0</ele><time>2026-04-11T18:10:22Z</time></trkpt><trkpt lat="45.62263859841208" lon="9.224233193027512"><ele>198.0</ele><time>2026-04-11T18:10:23Z</time></trkpt><trkpt lat="45.62236960496165" lon="9.22422460383257"><ele>198.0</ele><time>2026-04-11T18:10:24Z</time></trkpt><trkpt lat="45.6221001912857" lon="9.224212606743434"><ele>198.5</ele><time>2026-04-11T18:10:25Z</time></trkpt><trkpt lat="45.62183216405084" lon="9.224198478534362"><ele>199.0</ele><time>2026-04-11T18:10:26Z</time></trkpt><trkpt lat="45.62156463682871" lon="9.224179859602106"><ele>199.0</ele><time>2026-04-11T18:10:27Z</time></trkpt><trkpt lat="45.62129710009709" lon="9.224163727330085"><ele>199.0</ele><time>2026-04-11T18:10:28Z</time></trkpt><trkpt lat="45.621029888646234" lon="9.22415519707658"><ele>198.5</ele><time>2026-04-11T18:10:29Z</time></trkpt><trkpt lat="45.620761766815" lon="9.224144741470441"><ele>198.0</ele><time>2026-04-11T18:10:30Z</time></trkpt><trkpt lat="45.620493608297956" lon="9.224132681572591"><ele>197.0</ele><time>2026-04-11T18:10:31Z</time></trkpt><trkpt lat="45.62022590358233" lon="9.2241153907926"><ele>196.0</ele><time>2026-04-11T18:10:32Z</time></trkpt><trkpt lat="45.61995792610065" lon="9.22409864782409"><ele>196.0</ele><time>2026-04-11T18:10:33Z</time></trkpt><trkpt lat="45.6196906718335" lon="9.224080957848521"><ele>196.0</ele><time>2026-04-11T18:10:34Z</time></trkpt><trkpt lat="45.619421999781714" lon="9.22406998566572"><ele>195.5</ele><time>2026-04-11T18:10:35Z</time></trkpt><trkpt lat="45.61915272509953" lon="9.224056794373748"><ele>195.0</ele><time>2026-04-11T18:10:36Z</time></trkpt><trkpt lat="45.61888341898255" lon="9.224042435584012"><ele>195.0</ele><time>2026-04-11T18:10:37Z</time></trkpt><trkpt lat="45.618615757600736" lon="9.224028522307387"><ele>195.0</ele><time>2026-04-11T18:10:38Z</time></trkpt><trkpt lat="45.61834809678303" lon="9.224014168959082"><ele>195.0</ele><time>2026-04-11T18:10:39Z</time></trkpt><trkpt lat="45.61808019031753" lon="9.223999501124139"><ele>195.0</ele><time>2026-04-11T18:10:40Z</time></trkpt><trkpt lat="45.61781188502768" lon="9.223986369460638"><ele>195.0</ele><time>2026-04-11T18:10:41Z</time></trkpt><trkpt lat="45.61754423628264" lon="9.223972394422553"><ele>195.0</ele><time>2026-04-11T18:10:42Z</time></trkpt><trkpt lat="45.617276052327306" lon="9.223961814140822"><ele>195.0</ele><time>2026-04-11T18:10:43Z</time></trkpt><trkpt lat="45.61700828234415" lon="9.22394899985174"><ele>195.0</ele><time>2026-04-11T18:10:44Z</time></trkpt><trkpt lat="45.616739551310154" lon="9.22393425259391"><ele>194.5</ele><time>2026-04-11T18:10:45Z</time></trkpt><trkpt lat="45.61647037367907" lon="9.223918897332881"><ele>194.0</ele><time>2026-04-11T18:10:46Z</time></trkpt><trkpt lat="45.616201150049356" lon="9.223907247869509"><ele>194.0</ele><time>2026-04-11T18:10:47Z</time></trkpt><trkpt lat="45.615931304781206" lon="9.223896478008252"><ele>194.0</ele><time>2026-04-11T18:10:48Z</time></trkpt><trkpt lat="45.615662561480995" lon="9.223884033108721"><ele>194.0</ele><time>2026-04-11T18:10:49Z</time></trkpt><trkpt lat="45.61539353065844" lon="9.223870800639482"><ele>194.0</ele><time>2026-04-11T18:10:50Z</time></trkpt><trkpt lat="45.61512440927027" lon="9.223856258805624"><ele>192.5</ele><time>2026-04-11T18:10:51Z</time></trkpt><trkpt lat="45.61485492610868" lon="9.223842510110746"><ele>191.0</ele><time>2026-04-11T18:10:52Z</time></trkpt><trkpt lat="45.614587209448445" lon="9.2238308882599"><ele>191.0</ele><time>2026-04-11T18:10:53Z</time></trkpt><trkpt lat="45.614318081013586" lon="9.223820661479548"><ele>191.0</ele><time>2026-04-11T18:10:54Z</time></trkpt><trkpt lat="45.614049770926854" lon="9.22380895473148"><ele>191.0</ele><time>2026-04-11T18:10:55Z</time></trkpt><trkpt lat="45.613781631231475" lon="9.223797207914568"><ele>191.0</ele><time>2026-04-11T18:10:56Z</time></trkpt><trkpt lat="45.61351356643046" lon="9.223787061248938"><ele>192.0</ele><time>2026-04-11T18:10:57Z</time></trkpt><trkpt lat="45.61324604635998" lon="9.223777415921276"><ele>193.0</ele><time>2026-04-11T18:10:58Z</time></trkpt><trkpt lat="45.61298024485595" lon="9.223767591942664"><ele>192.0</ele><time>2026-04-11T18:10:59Z</time></trkpt><trkpt lat="45.61271466104929" lon="9.223756288201313"><ele>191.0</ele><time>2026-04-11T18:11:00Z</time></trkpt><trkpt lat="45.61244335469108" lon="9.22374366530843"><ele>191.0</ele><time>2026-04-11T18:11:01Z</time></trkpt><trkpt lat="45.6121768120359" lon="9.223732298893479"><ele>191.0</ele><time>2026-04-11T18:11:02Z</time></trkpt><trkpt lat="45.61193137616146" lon="9.22371842400223"><ele>191.5</ele><time>2026-04-11T18:11:03Z</time></trkpt><trkpt lat="45.61168187718996" lon="9.223709172604497"><ele>192.0</ele><time>2026-04-11T18:11:04Z</time></trkpt><trkpt lat="45.61142197553518" lon="9.22370021106849"><ele>192.0</ele><time>2026-04-11T18:11:05Z</time></trkpt><trkpt lat="45.61115980533009" lon="9.223691890466311"><ele>192.0</ele><time>2026-04-11T18:11:06Z</time></trkpt><trkpt lat="45.610897448668744" lon="9.2236763276578"><ele>191.5</ele><time>2026-04-11T18:11:07Z</time></trkpt><trkpt lat="45.61063569876322" lon="9.223656912310997"><ele>191.0</ele><time>2026-04-11T18:11:08Z</time></trkpt><trkpt lat="45.61037655830832" lon="9.223638205216387"><ele>191.5</ele><time>2026-04-11T18:11:09Z</time></trkpt><trkpt lat="45.6101292791359" lon="9.223628003993694"><ele>192.0</ele><time>2026-04-11T18:11:10Z</time></trkpt><trkpt lat="45.609881060729165" lon="9.2236225794179"><ele>192.0</ele><time>2026-04-11T18:11:11Z</time></trkpt><trkpt lat="45.60963451228687" lon="9.223644769802462"><ele>192.0</ele><time>2026-04-11T18:11:12Z</time></trkpt><trkpt lat="45.609395600905756" lon="9.22369875694997"><ele>191.5</ele><time>2026-04-11T18:11:13Z</time></trkpt><trkpt lat="45.60916362295715" lon="9.22377202730876"><ele>191.0</ele><time>2026-04-11T18:11:14Z</time></trkpt><trkpt lat="45.60892111971103" lon="9.223871234002536"><ele>191.5</ele><time>2026-04-11T18:11:15Z</time></trkpt><trkpt lat="45.60867128250511" lon="9.223998087055838"><ele>192.0</ele><time>2026-04-11T18:11:16Z</time></trkpt><trkpt lat="45.60841663071398" lon="9.224156589159257"><ele>190.0</ele><time>2026-04-11T18:11:17Z</time></trkpt><trkpt lat="45.608164466223" lon="9.224358934807736"><ele>188.0</ele><time>2026-04-11T18:11:18Z</time></trkpt><trkpt lat="45.60791985816045" lon="9.224599791383161"><ele>187.0</ele><time>2026-04-11T18:11:19Z</time></trkpt><trkpt lat="45.60768517134243" lon="9.224876535220405"><ele>186.0</ele><time>2026-04-11T18:11:20Z</time></trkpt><trkpt lat="45.60744974210223" lon="9.22516744681921"><ele>186.0</ele><time>2026-04-11T18:11:21Z</time></trkpt><trkpt lat="45.607209127382625" lon="9.225443600224118"><ele>186.0</ele><time>2026-04-11T18:11:22Z</time></trkpt><trkpt lat="45.60696795594898" lon="9.225710969548384"><ele>187.0</ele><time>2026-04-11T18:11:23Z</time></trkpt><trkpt lat="45.606733008555906" lon="9.225967872812982"><ele>188.0</ele><time>2026-04-11T18:11:24Z</time></trkpt><trkpt lat="45.606505859437426" lon="9.226219459706735"><ele>188.0</ele><time>2026-04-11T18:11:25Z</time></trkpt><trkpt lat="45.60628264362318" lon="9.226468702153937"><ele>188.0</ele><time>2026-04-11T18:11:26Z</time></trkpt><trkpt lat="45.60606203521336" lon="9.226714127020507"><ele>187.0</ele><time>2026-04-11T18:11:27Z</time></trkpt><trkpt lat="45.60584321898097" lon="9.22695693825982"><ele>186.0</ele><time>2026-04-11T18:11:28Z</time></trkpt><trkpt lat="45.60562443221223" lon="9.227200801310227"><ele>186.5</ele><time>2026-04-11T18:11:29Z</time></trkpt><trkpt lat="45.60540414977016" lon="9.22744934139164"><ele>187.0</ele><time>2026-04-11T18:11:30Z</time></trkpt><trkpt lat="45.605181545888456" lon="9.227699818682089"><ele>187.0</ele><time>2026-04-11T18:11:31Z</time></trkpt><trkpt lat="45.604953802013384" lon="9.227947972096015"><ele>187.0</ele><time>2026-04-11T18:11:32Z</time></trkpt><trkpt lat="45.6047243103822" lon="9.228192172965077"><ele>186.0</ele><time>2026-04-11T18:11:33Z</time></trkpt><trkpt lat="45.604494634453516" lon="9.22844278628552"><ele>185.0</ele><time>2026-04-11T18:11:34Z</time></trkpt><trkpt lat="45.60426576916924" lon="9.228696496825393"><ele>185.0</ele><time>2026-04-11T18:11:35Z</time></trkpt><trkpt lat="45.6040357648039" lon="9.228952201001782"><ele>185.0</ele><time>2026-04-11T18:11:36Z</time></trkpt><trkpt lat="45.60380424004158" lon="9.229211099743761"><ele>184.5</ele><time>2026-04-11T18:11:37Z</time></trkpt><trkpt lat="45.603572486744504" lon="9.229470737070033"><ele>184.0</ele><time>2026-04-11T18:11:38Z</time></trkpt><trkpt lat="45.6033384652213" lon="9.229729965723601"><ele>184.0</ele><time>2026-04-11T18:11:39Z</time></trkpt><trkpt lat="45.60310298307152" lon="9.229988620747303"><ele>184.0</ele><time>2026-04-11T18:11:40Z</time></trkpt><trkpt lat="45.60286830136992" lon="9.23024833415858"><ele>184.0</ele><time>2026-04-11T18:11:41Z</time></trkpt><trkpt lat="45.602635190779544" lon="9.230508716819173"><ele>184.0</ele><time>2026-04-11T18:11:42Z</time></trkpt><trkpt lat="45.60240056602244" lon="9.230769169195543"><ele>184.0</ele><time>2026-04-11T18:11:43Z</time></trkpt><trkpt lat="45.6021652568536" lon="9.231028532021554"><ele>184.0</ele><time>2026-04-11T18:11:44Z</time></trkpt><trkpt lat="45.601929587192366" lon="9.231284404014785"><ele>183.0</ele><time>2026-04-11T18:11:45Z</time></trkpt><trkpt lat="45.60169506538783" lon="9.231540000313977"><ele>182.0</ele><time>2026-04-11T18:11:46Z</time></trkpt><trkpt lat="45.60146404197453" lon="9.231796882911606"><ele>182.0</ele><time>2026-04-11T18:11:47Z</time></trkpt><trkpt lat="45.601236896875655" lon="9.232055534292334"><ele>182.0</ele><time>2026-04-11T18:11:48Z</time></trkpt><trkpt lat="45.601021365062756" lon="9.232326489733781"><ele>185.0</ele><time>2026-04-11T18:11:49Z</time></trkpt><trkpt lat="45.600825353342316" lon="9.232617020216924"><ele>188.0</ele><time>2026-04-11T18:11:50Z</time></trkpt><trkpt lat="45.60064574350406" lon="9.23291895885014"><ele>186.5</ele><time>2026-04-11T18:11:51Z</time></trkpt><trkpt lat="45.60048057255464" lon="9.233224306695817"><ele>185.0</ele><time>2026-04-11T18:11:52Z</time></trkpt><trkpt lat="45.60033203315862" lon="9.233544099480987"><ele>184.0</ele><time>2026-04-11T18:11:53Z</time></trkpt><trkpt lat="45.60019894909159" lon="9.233869187261307"><ele>183.0</ele><time>2026-04-11T18:11:54Z</time></trkpt><trkpt lat="45.600079670967105" lon="9.234206514447736"><ele>183.0</ele><time>2026-04-11T18:11:55Z</time></trkpt><trkpt lat="45.59997342714088" lon="9.234558273349172"><ele>183.0</ele><time>2026-04-11T18:11:56Z</time></trkpt><trkpt lat="45.5998728965549" lon="9.234922000992318"><ele>183.0</ele><time>2026-04-11T18:11:57Z</time></trkpt><trkpt lat="45.599772852115656" lon="9.235291265885255"><ele>183.0</ele><time>2026-04-11T18:11:58Z</time></trkpt><trkpt lat="45.59966932346658" lon="9.23566139209903"><ele>183.5</ele><time>2026-04-11T18:11:59Z</time></trkpt><trkpt lat="45.59956477664504" lon="9.236037625480977"><ele>184.0</ele><time>2026-04-11T18:12:00Z</time></trkpt><trkpt lat="45.59946489457844" lon="9.23641664368919"><ele>182.0</ele><time>2026-04-11T18:12:01Z</time></trkpt><trkpt lat="45.599370507783114" lon="9.236778885611242"><ele>180.0</ele><time>2026-04-11T18:12:02Z</time></trkpt><trkpt lat="45.59927461984016" lon="9.237137857268449"><ele>180.0</ele><time>2026-04-11T18:12:03Z</time></trkpt><trkpt lat="45.59917715726123" lon="9.237498312708727"><ele>180.0</ele><time>2026-04-11T18:12:04Z</time></trkpt><trkpt lat="45.5990752890919" lon="9.23786059845299"><ele>180.0</ele><time>2026-04-11T18:12:05Z</time></trkpt><trkpt lat="45.598972090277485" lon="9.23821667506211"><ele>180.0</ele><time>2026-04-11T18:12:06Z</time></trkpt><trkpt lat="45.598868137442544" lon="9.238562265735657"><ele>180.0</ele><time>2026-04-11T18:12:07Z</time></trkpt><trkpt lat="45.59876414292287" lon="9.238902063095807"><ele>180.0</ele><time>2026-04-11T18:12:08Z</time></trkpt><trkpt lat="45.59865641863554" lon="9.23924662007399"><ele>180.5</ele><time>2026-04-11T18:12:09Z</time></trkpt><trkpt lat="45.598545990388615" lon="9.239591630455394"><ele>181.0</ele><time>2026-04-11T18:12:10Z</time></trkpt><trkpt lat="45.59843764116591" lon="9.239931522547998"><ele>182.0</ele><time>2026-04-11T18:12:11Z</time></trkpt><trkpt lat="45.59833060737006" lon="9.240265323614741"><ele>183.0</ele><time>2026-04-11T18:12:12Z</time></trkpt><trkpt lat="45.59822291245555" lon="9.240585720390815"><ele>182.0</ele><time>2026-04-11T18:12:13Z</time></trkpt><trkpt lat="45.598106770954274" lon="9.240881724386458"><ele>181.0</ele><time>2026-04-11T18:12:14Z</time></trkpt><trkpt lat="45.59797126004624" lon="9.241166855822037"><ele>180.5</ele><time>2026-04-11T18:12:15Z</time></trkpt><trkpt lat="45.5978138108294" lon="9.241451075038022"><ele>180.0</ele><time>2026-04-11T18:12:16Z</time></trkpt><trkpt lat="45.59763799820881" lon="9.241729394706882"><ele>180.0</ele><time>2026-04-11T18:12:17Z</time></trkpt><trkpt lat="45.597443087467276" lon="9.241996432820521"><ele>180.0</ele><time>2026-04-11T18:12:18Z</time></trkpt><trkpt lat="45.597231448365115" lon="9.242247454577805"><ele>180.0</ele><time>2026-04-11T18:12:19Z</time></trkpt><trkpt lat="45.59700894455104" lon="9.242470621930664"><ele>180.0</ele><time>2026-04-11T18:12:20Z</time></trkpt><trkpt lat="45.59677854366648" lon="9.242669300720365"><ele>179.0</ele><time>2026-04-11T18:12:21Z</time></trkpt><trkpt lat="45.596533527169946" lon="9.242839297156719"><ele>178.0</ele><time>2026-04-11T18:12:22Z</time></trkpt><trkpt lat="45.59627853081594" lon="9.242993135286946"><ele>179.0</ele><time>2026-04-11T18:12:23Z</time></trkpt><trkpt lat="45.59601866937599" lon="9.243136876832121"><ele>180.0</ele><time>2026-04-11T18:12:24Z</time></trkpt><trkpt lat="45.595758232068725" lon="9.243285145537355"><ele>180.0</ele><time>2026-04-11T18:12:25Z</time></trkpt><trkpt lat="45.59549726234825" lon="9.243439335669141"><ele>180.0</ele><time>2026-04-11T18:12:26Z</time></trkpt><trkpt lat="45.59524419365928" lon="9.243586970142308"><ele>179.5</ele><time>2026-04-11T18:12:27Z</time></trkpt><trkpt lat="45.595004237061566" lon="9.243725347382036"><ele>179.0</ele><time>2026-04-11T18:12:28Z</time></trkpt><trkpt lat="45.59477364845786" lon="9.24385666760066"><ele>178.0</ele><time>2026-04-11T18:12:29Z</time></trkpt><trkpt lat="45.59454872074085" lon="9.243986155904631"><ele>177.0</ele><time>2026-04-11T18:12:30Z</time></trkpt><trkpt lat="45.59431764686412" lon="9.24412067460772"><ele>176.0</ele><time>2026-04-11T18:12:31Z</time></trkpt><trkpt lat="45.59407963444887" lon="9.244258022234032"><ele>175.0</ele><time>2026-04-11T18:12:32Z</time></trkpt><trkpt lat="45.593837860061996" lon="9.244397506012998"><ele>175.0</ele><time>2026-04-11T18:12:33Z</time></trkpt><trkpt lat="45.5935946285342" lon="9.244538545636415"><ele>175.0</ele><time>2026-04-11T18:12:34Z</time></trkpt><trkpt lat="45.59336232161558" lon="9.244670267693895"><ele>175.0</ele><time>2026-04-11T18:12:35Z</time></trkpt><trkpt lat="45.59314428576607" lon="9.24479362620759"><ele>175.0</ele><time>2026-04-11T18:12:36Z</time></trkpt><trkpt lat="45.59293339904368" lon="9.244913300430365"><ele>176.0</ele><time>2026-04-11T18:12:37Z</time></trkpt><trkpt lat="45.592716475851546" lon="9.245038778517223"><ele>177.0</ele><time>2026-04-11T18:12:38Z</time></trkpt><trkpt lat="45.59249381072326" lon="9.245170226508025"><ele>177.0</ele><time>2026-04-11T18:12:39Z</time></trkpt><trkpt lat="45.59226456519224" lon="9.245306957806996"><ele>177.0</ele><time>2026-04-11T18:12:40Z</time></trkpt><trkpt lat="45.592028739404384" lon="9.245443060279744"><ele>177.5</ele><time>2026-04-11T18:12:41Z</time></trkpt><trkpt lat="45.59178999605136" lon="9.245581852532686"><ele>178.0</ele><time>2026-04-11T18:12:42Z</time></trkpt><trkpt lat="45.5915538860364" lon="9.245718976844927"><ele>178.0</ele><time>2026-04-11T18:12:43Z</time></trkpt><trkpt lat="45.5913240506222" lon="9.245850898733408"><ele>178.0</ele><time>2026-04-11T18:12:44Z</time></trkpt><trkpt lat="45.59109750292091" lon="9.245979897894541"><ele>177.0</ele><time>2026-04-11T18:12:45Z</time></trkpt><trkpt lat="45.59086880486415" lon="9.246119528218381"><ele>176.0</ele><time>2026-04-11T18:12:46Z</time></trkpt><trkpt lat="45.59063936848178" lon="9.246269007045434"><ele>176.0</ele><time>2026-04-11T18:12:47Z</time></trkpt><trkpt lat="45.59040941950912" lon="9.24642384076101"><ele>176.0</ele><time>2026-04-11T18:12:48Z</time></trkpt><trkpt lat="45.590175647616746" lon="9.24658761096915"><ele>176.0</ele><time>2026-04-11T18:12:49Z</time></trkpt><trkpt lat="45.58993894008951" lon="9.246762041016478"><ele>176.0</ele><time>2026-04-11T18:12:50Z</time></trkpt><trkpt lat="45.58969694277812" lon="9.246939678558606"><ele>175.0</ele><time>2026-04-11T18:12:51Z</time></trkpt><trkpt lat="45.58945330914118" lon="9.247122959201894"><ele>174.0</ele><time>2026-04-11T18:12:52Z</time></trkpt><trkpt lat="45.58920897208942" lon="9.247314519672194"><ele>174.0</ele><time>2026-04-11T18:12:53Z</time></trkpt><trkpt lat="45.58896509769168" lon="9.247516551442562"><ele>174.0</ele><time>2026-04-11T18:12:54Z</time></trkpt><trkpt lat="45.58872280455523" lon="9.247719533462009"><ele>172.5</ele><time>2026-04-11T18:12:55Z</time></trkpt><trkpt lat="45.58849209731722" lon="9.24791554345675"><ele>171.0</ele><time>2026-04-11T18:12:56Z</time></trkpt><trkpt lat="45.588271181377884" lon="9.248100670165126"><ele>172.0</ele><time>2026-04-11T18:12:57Z</time></trkpt><trkpt lat="45.58805055892731" lon="9.248282722735409"><ele>173.0</ele><time>2026-04-11T18:12:58Z</time></trkpt><trkpt lat="45.58783046243844" lon="9.248463521108555"><ele>173.0</ele><time>2026-04-11T18:12:59Z</time></trkpt><trkpt lat="45.58760680480306" lon="9.248650512589812"><ele>173.0</ele><time>2026-04-11T18:13:00Z</time></trkpt><trkpt lat="45.58738450498072" lon="9.248835912416663"><ele>173.5</ele><time>2026-04-11T18:13:01Z</time></trkpt><trkpt lat="45.58716729641573" lon="9.249014540483431"><ele>174.0</ele><time>2026-04-11T18:13:02Z</time></trkpt><trkpt lat="45.586946501568896" lon="9.24919783271082"><ele>173.0</ele><time>2026-04-11T18:13:03Z</time></trkpt><trkpt lat="45.58672008468863" lon="9.249383167434813"><ele>172.0</ele><time>2026-04-11T18:13:04Z</time></trkpt><trkpt lat="45.58649328931889" lon="9.249566415287212"><ele>172.0</ele><time>2026-04-11T18:13:05Z</time></trkpt><trkpt lat="45.586274963712306" lon="9.249742905220192"><ele>172.0</ele><time>2026-04-11T18:13:06Z</time></trkpt><trkpt lat="45.58606516117565" lon="9.249915547197556"><ele>171.5</ele><time>2026-04-11T18:13:07Z</time></trkpt><trkpt lat="45.58586047859265" lon="9.25008309648674"><ele>171.0</ele><time>2026-04-11T18:13:08Z</time></trkpt><trkpt lat="45.58565907417749" lon="9.250232603672282"><ele>171.0</ele><time>2026-04-11T18:13:09Z</time></trkpt><trkpt lat="45.585442217914505" lon="9.250372677748999"><ele>171.0</ele><time>2026-04-11T18:13:10Z</time></trkpt><trkpt lat="45.58520779958846" lon="9.250502686002935"><ele>170.0</ele><time>2026-04-11T18:13:11Z</time></trkpt><trkpt lat="45.58497035087682" lon="9.25061943703964"><ele>169.0</ele><time>2026-04-11T18:13:12Z</time></trkpt><trkpt lat="45.58472734182146" lon="9.25071087710393"><ele>168.5</ele><time>2026-04-11T18:13:13Z</time></trkpt><trkpt lat="45.58447912271111" lon="9.250775517001644"><ele>168.0</ele><time>2026-04-11T18:13:14Z</time></trkpt><trkpt lat="45.58422108818007" lon="9.250815803276637"><ele>168.0</ele><time>2026-04-11T18:13:15Z</time></trkpt><trkpt lat="45.58396194911704" lon="9.250818870571381"><ele>168.0</ele><time>2026-04-11T18:13:16Z</time></trkpt><trkpt lat="45.58369818739247" lon="9.250797640171621"><ele>168.5</ele><time>2026-04-11T18:13:17Z</time></trkpt><trkpt lat="45.58342810495567" lon="9.25074794352444"><ele>169.0</ele><time>2026-04-11T18:13:18Z</time></trkpt><trkpt lat="45.58313680791642" lon="9.250666192909963"><ele>168.5</ele><time>2026-04-11T18:13:19.07Z</time></trkpt><trkpt lat="45.58286424831897" lon="9.250566518505067"><ele>168.0</ele><time>2026-04-11T18:13:20.068Z</time></trkpt><trkpt lat="45.58259442271919" lon="9.250452153814576"><ele>168.0</ele><time>2026-04-11T18:13:21.065Z</time></trkpt><trkpt lat="45.58232700087242" lon="9.2503419126923"><ele>168.0</ele><time>2026-04-11T18:13:22.067Z</time></trkpt><trkpt lat="45.579332430362825" lon="9.248923633620906"><ele>168.0</ele><time>2026-04-11T18:13:36.261Z</time></trkpt><trkpt lat="45.57879467351063" lon="9.248695915923978"><ele>167.0</ele><time>2026-04-11T18:13:39.043Z</time></trkpt><trkpt lat="45.57840965261828" lon="9.248509108091351"><ele>166.0</ele><time>2026-04-11T18:13:41.423Z</time></trkpt><trkpt lat="45.578306853424465" lon="9.248460153040078"><ele>161.0</ele><time>2026-04-11T18:13:42.125Z</time></trkpt><trkpt lat="45.56822790404673" lon="9.245056951315131"><ele>161.0</ele><time>2026-04-11T18:14:13Z</time></trkpt><trkpt lat="45.56807199754463" lon="9.24485088435637"><ele>161.0</ele><time>2026-04-11T18:14:14Z</time></trkpt><trkpt lat="45.56785724193629" lon="9.24472929973988"><ele>161.0</ele><time>2026-04-11T18:14:15Z</time></trkpt><trkpt lat="45.567603125853594" lon="9.244620934083123"><ele>159.5</ele><time>2026-04-11T18:14:16Z</time></trkpt><trkpt lat="45.567346487314154" lon="9.244517613159237"><ele>158.0</ele><time>2026-04-11T18:14:17Z</time></trkpt><trkpt lat="45.56709445684383" lon="9.24443109427368"><ele>158.5</ele><time>2026-04-11T18:14:18Z</time></trkpt><trkpt lat="45.566864070186085" lon="9.244345801661884"><ele>159.0</ele><time>2026-04-11T18:14:19Z</time></trkpt><trkpt lat="45.56662750417247" lon="9.244251919936321"><ele>159.0</ele><time>2026-04-11T18:14:20Z</time></trkpt><trkpt lat="45.56637785695227" lon="9.244157117280386"><ele>159.0</ele><time>2026-04-11T18:14:21Z</time></trkpt><trkpt lat="45.566120216273966" lon="9.24405824453048"><ele>160.0</ele><time>2026-04-11T18:14:22Z</time></trkpt><trkpt lat="45.565856342159215" lon="9.243953793322921"><ele>161.0</ele><time>2026-04-11T18:14:23Z</time></trkpt><trkpt lat="45.56558716957591" lon="9.243845997283955"><ele>160.0</ele><time>2026-04-11T18:14:24Z</time></trkpt><trkpt lat="45.56531367017205" lon="9.243735308486883"><ele>159.0</ele><time>2026-04-11T18:14:25Z</time></trkpt><trkpt lat="45.56503365268128" lon="9.243619657532001"><ele>159.0</ele><time>2026-04-11T18:14:26Z</time></trkpt><trkpt lat="45.56474883080612" lon="9.243500298254274"><ele>159.0</ele><time>2026-04-11T18:14:27Z</time></trkpt><trkpt lat="45.5644595800123" lon="9.243378615082758"><ele>158.5</ele><time>2026-04-11T18:14:28Z</time></trkpt><trkpt lat="45.56416714884297" lon="9.243255747981841"><ele>158.0</ele><time>2026-04-11T18:14:29Z</time></trkpt><trkpt lat="45.56387258213542" lon="9.243132378745704"><ele>158.0</ele><time>2026-04-11T18:14:30Z</time></trkpt><trkpt lat="45.56357498313831" lon="9.243010896815921"><ele>158.0</ele><time>2026-04-11T18:14:31Z</time></trkpt><trkpt lat="45.563277100840175" lon="9.242889988242583"><ele>158.0</ele><time>2026-04-11T18:14:32Z</time></trkpt><trkpt lat="45.56297904952173" lon="9.242767900301768"><ele>158.0</ele><time>2026-04-11T18:14:33Z</time></trkpt><trkpt lat="45.56268384420754" lon="9.242640550468609"><ele>158.0</ele><time>2026-04-11T18:14:34Z</time></trkpt><trkpt lat="45.56238917348578" lon="9.24251554148165"><ele>158.0</ele><time>2026-04-11T18:14:35Z</time></trkpt><trkpt lat="45.56209373113091" lon="9.242391942801367"><ele>157.0</ele><time>2026-04-11T18:14:36Z</time></trkpt><trkpt lat="45.56179932005786" lon="9.242267298879598"><ele>156.0</ele><time>2026-04-11T18:14:37Z</time></trkpt><trkpt lat="45.56150761791264" lon="9.24214181565211"><ele>156.0</ele><time>2026-04-11T18:14:38Z</time></trkpt><trkpt lat="45.561215073779884" lon="9.24201882413562"><ele>156.0</ele><time>2026-04-11T18:14:39Z</time></trkpt><trkpt lat="45.560922802489365" lon="9.241894301606294"><ele>154.5</ele><time>2026-04-11T18:14:40Z</time></trkpt><trkpt lat="45.560628942138116" lon="9.241774734012107"><ele>153.0</ele><time>2026-04-11T18:14:41Z</time></trkpt><trkpt lat="45.56033567364588" lon="9.241662843609177"><ele>153.0</ele><time>2026-04-11T18:14:42Z</time></trkpt><trkpt lat="45.560042203682436" lon="9.241548308117068"><ele>153.0</ele><time>2026-04-11T18:14:43Z</time></trkpt><trkpt lat="45.55974844445829" lon="9.241431023046973"><ele>153.0</ele><time>2026-04-11T18:14:44Z</time></trkpt><trkpt lat="45.55945635615113" lon="9.241311641827192"><ele>153.0</ele><time>2026-04-11T18:14:45Z</time></trkpt><trkpt lat="45.55916367538167" lon="9.241191080161961"><ele>153.0</ele><time>2026-04-11T18:14:46Z</time></trkpt><trkpt lat="45.55886984992996" lon="9.241068640272944"><ele>153.0</ele><time>2026-04-11T18:14:47Z</time></trkpt><trkpt lat="45.55857528595701" lon="9.240952250089572"><ele>153.0</ele><time>2026-04-11T18:14:48Z</time></trkpt><trkpt lat="45.558279853831614" lon="9.24084043085362"><ele>153.0</ele><time>2026-04-11T18:14:49Z</time></trkpt><trkpt lat="45.55798468804849" lon="9.240727294263456"><ele>152.5</ele><time>2026-04-11T18:14:50Z</time></trkpt><trkpt lat="45.55769026090529" lon="9.240611551081344"><ele>152.0</ele><time>2026-04-11T18:14:51Z</time></trkpt><trkpt lat="45.55739610589334" lon="9.240495626984789"><ele>152.0</ele><time>2026-04-11T18:14:52Z</time></trkpt><trkpt lat="45.55710313883028" lon="9.240378322898714"><ele>152.0</ele><time>2026-04-11T18:14:53Z</time></trkpt><trkpt lat="45.55681004409777" lon="9.240262975542306"><ele>153.0</ele><time>2026-04-11T18:14:54Z</time></trkpt><trkpt lat="45.55651728627159" lon="9.24014691333454"><ele>154.0</ele><time>2026-04-11T18:14:55Z</time></trkpt><trkpt lat="45.55622291887662" lon="9.240030842261087"><ele>152.5</ele><time>2026-04-11T18:14:56Z</time></trkpt><trkpt lat="45.55592909294047" lon="9.23991179394445"><ele>151.0</ele><time>2026-04-11T18:14:57Z</time></trkpt><trkpt lat="45.55563544183195" lon="9.23979593492154"><ele>150.0</ele><time>2026-04-11T18:14:58Z</time></trkpt><trkpt lat="45.55534306664341" lon="9.23967591941379"><ele>149.0</ele><time>2026-04-11T18:14:59Z</time></trkpt><trkpt lat="45.55504980734556" lon="9.239555389654546"><ele>149.0</ele><time>2026-04-11T18:15:00Z</time></trkpt><trkpt lat="45.55475668466176" lon="9.239437692093315"><ele>149.0</ele><time>2026-04-11T18:15:01Z</time></trkpt><trkpt lat="45.554462891500975" lon="9.239318789924594"><ele>149.5</ele><time>2026-04-11T18:15:02Z</time></trkpt><trkpt lat="45.55416819547251" lon="9.23920145669609"><ele>150.0</ele><time>2026-04-11T18:15:03Z</time></trkpt><trkpt lat="45.55387332181255" lon="9.239082748477951"><ele>150.5</ele><time>2026-04-11T18:15:04Z</time></trkpt><trkpt lat="45.553578770416" lon="9.238964053493984"><ele>151.0</ele><time>2026-04-11T18:15:05Z</time></trkpt><trkpt lat="45.55328357605691" lon="9.238847134727566"><ele>151.0</ele><time>2026-04-11T18:15:06Z</time></trkpt><trkpt lat="45.55298870880256" lon="9.238729104133148"><ele>151.0</ele><time>2026-04-11T18:15:07Z</time></trkpt><trkpt lat="45.55269499228617" lon="9.238610041807895"><ele>151.0</ele><time>2026-04-11T18:15:08Z</time></trkpt><trkpt lat="45.55240112449554" lon="9.238491415319665"><ele>151.0</ele><time>2026-04-11T18:15:09Z</time></trkpt><trkpt lat="45.55210705722722" lon="9.238374645867943"><ele>151.0</ele><time>2026-04-11T18:15:10Z</time></trkpt><trkpt lat="45.551812717825264" lon="9.238260066768058"><ele>151.0</ele><time>2026-04-11T18:15:11Z</time></trkpt><trkpt lat="45.55153040693754" lon="9.238151725892637"><ele>151.5</ele><time>2026-04-11T18:15:12Z</time></trkpt><trkpt lat="45.55126610052394" lon="9.238042665602388"><ele>152.0</ele><time>2026-04-11T18:15:13Z</time></trkpt><trkpt lat="45.551011851949234" lon="9.237925967026163"><ele>152.0</ele><time>2026-04-11T18:15:14Z</time></trkpt><trkpt lat="45.550763882243245" lon="9.237790923808301"><ele>152.0</ele><time>2026-04-11T18:15:15Z</time></trkpt><trkpt lat="45.55051324699453" lon="9.237628307596912"><ele>155.0</ele><time>2026-04-11T18:15:16Z</time></trkpt><trkpt lat="45.550284377799144" lon="9.237434686465255"><ele>158.0</ele><time>2026-04-11T18:15:17Z</time></trkpt><trkpt lat="45.550094821691374" lon="9.237239718709757"><ele>158.0</ele><time>2026-04-11T18:15:18Z</time></trkpt><trkpt lat="45.54991993392977" lon="9.2370381033889"><ele>158.0</ele><time>2026-04-11T18:15:19Z</time></trkpt><trkpt lat="45.54975266141519" lon="9.236809474386568"><ele>158.0</ele><time>2026-04-11T18:15:20Z</time></trkpt><trkpt lat="45.54959281756188" lon="9.23654233552794"><ele>158.0</ele><time>2026-04-11T18:15:21Z</time></trkpt><trkpt lat="45.54944508829211" lon="9.236241383970135"><ele>157.0</ele><time>2026-04-11T18:15:22Z</time></trkpt><trkpt lat="45.54930894769266" lon="9.235915080828933"><ele>156.0</ele><time>2026-04-11T18:15:23Z</time></trkpt><trkpt lat="45.549189827615535" lon="9.235570042382996"><ele>153.5</ele><time>2026-04-11T18:15:24Z</time></trkpt><trkpt lat="45.5490777835005" lon="9.235218800894001"><ele>151.0</ele><time>2026-04-11T18:15:25Z</time></trkpt><trkpt lat="45.54896402963063" lon="9.23487814529794"><ele>152.0</ele><time>2026-04-11T18:15:26Z</time></trkpt><trkpt lat="45.54885158722426" lon="9.234558287452288"><ele>153.0</ele><time>2026-04-11T18:15:27Z</time></trkpt><trkpt lat="45.548745945483546" lon="9.234247441371387"><ele>151.0</ele><time>2026-04-11T18:15:28Z</time></trkpt><trkpt lat="45.54864396768024" lon="9.233936435098741"><ele>149.0</ele><time>2026-04-11T18:15:29Z</time></trkpt><trkpt lat="45.54854560693933" lon="9.233635590147491"><ele>149.0</ele><time>2026-04-11T18:15:30Z</time></trkpt><trkpt lat="45.54845268132251" lon="9.233347586707083"><ele>149.0</ele><time>2026-04-11T18:15:31Z</time></trkpt><trkpt lat="45.54836398612311" lon="9.233074115833743"><ele>149.0</ele><time>2026-04-11T18:15:32Z</time></trkpt><trkpt lat="45.54827861649171" lon="9.232814847249214"><ele>150.33333333333331</ele><time>2026-04-11T18:15:33Z</time></trkpt><trkpt lat="45.54819598204414" lon="9.232563077137502"><ele>151.66666666666666</ele><time>2026-04-11T18:15:34Z</time></trkpt><trkpt lat="45.5481163508229" lon="9.23232063516571"><ele>153.0</ele><time>2026-04-11T18:15:35Z</time></trkpt><trkpt lat="45.54804015268442" lon="9.232089998569165"><ele>152.66666666666666</ele><time>2026-04-11T18:15:36Z</time></trkpt><trkpt lat="45.547967767258456" lon="9.231871288816995"><ele>152.33333333333331</ele><time>2026-04-11T18:15:37Z</time></trkpt><trkpt lat="45.54789881200399" lon="9.23165236341594"><ele>152.0</ele><time>2026-04-11T18:15:38Z</time></trkpt><trkpt lat="45.54783122770482" lon="9.231439929207482"><ele>152.0</ele><time>2026-04-11T18:15:39Z</time></trkpt><trkpt lat="45.54776026996074" lon="9.231228204540324"><ele>152.0</ele><time>2026-04-11T18:15:40Z</time></trkpt><trkpt lat="45.547689259310665" lon="9.231011640039469"><ele>152.0</ele><time>2026-04-11T18:15:41Z</time></trkpt><trkpt lat="45.547616008436556" lon="9.230782693543214"><ele>151.33333333333331</ele><time>2026-04-11T18:15:42Z</time></trkpt><trkpt lat="45.54753642554698" lon="9.230545606234637"><ele>150.66666666666666</ele><time>2026-04-11T18:15:43Z</time></trkpt><trkpt lat="45.547453664054224" lon="9.23029699399574"><ele>150.0</ele><time>2026-04-11T18:15:44Z</time></trkpt><trkpt lat="45.54736848656716" lon="9.230034320484394"><ele>149.33333333333334</ele><time>2026-04-11T18:15:45Z</time></trkpt><trkpt lat="45.54727923320432" lon="9.229758048820141"><ele>148.66666666666669</ele><time>2026-04-11T18:15:46Z</time></trkpt><trkpt lat="45.547185004270865" lon="9.229472140223203"><ele>148.0</ele><time>2026-04-11T18:15:47Z</time></trkpt><trkpt lat="45.5470867704288" lon="9.229170660917452"><ele>148.5</ele><time>2026-04-11T18:15:48Z</time></trkpt><trkpt lat="45.54698656595109" lon="9.228862434188123"><ele>149.0</ele><time>2026-04-11T18:15:49Z</time></trkpt><trkpt lat="45.54688294765524" lon="9.228546907714476"><ele>149.0</ele><time>2026-04-11T18:15:50Z</time></trkpt><trkpt lat="45.54678050598204" lon="9.228229981705548"><ele>149.0</ele><time>2026-04-11T18:15:51Z</time></trkpt><trkpt lat="45.54668206162152" lon="9.22793035568804"><ele>149.0</ele><time>2026-04-11T18:15:52Z</time></trkpt><trkpt lat="45.546589771744586" lon="9.227643741723952"><ele>149.0</ele><time>2026-04-11T18:15:53Z</time></trkpt><trkpt lat="45.546502996176784" lon="9.22736858146924"><ele>149.0</ele><time>2026-04-11T18:15:54Z</time></trkpt><trkpt lat="45.54641718038707" lon="9.227106282495447"><ele>149.0</ele><time>2026-04-11T18:15:55Z</time></trkpt><trkpt lat="45.54633388090023" lon="9.226854122412831"><ele>149.0</ele><time>2026-04-11T18:15:56Z</time></trkpt><trkpt lat="45.546255204635216" lon="9.226614073990314"><ele>149.0</ele><time>2026-04-11T18:15:57Z</time></trkpt><trkpt lat="45.54617798762252" lon="9.226369309728593"><ele>149.33333333333331</ele><time>2026-04-11T18:15:58Z</time></trkpt><trkpt lat="45.546099235553946" lon="9.226116433894012"><ele>149.66666666666666</ele><time>2026-04-11T18:15:59Z</time></trkpt><trkpt lat="45.5460146352973" lon="9.225856086649333"><ele>150.0</ele><time>2026-04-11T18:16:00Z</time></trkpt><trkpt lat="45.54593312729169" lon="9.225584611480455"><ele>150.0</ele><time>2026-04-11T18:16:01Z</time></trkpt><trkpt lat="45.54584921363453" lon="9.22532187904161"><ele>150.0</ele><time>2026-04-11T18:16:02Z</time></trkpt><trkpt lat="45.54576538177484" lon="9.225069536472255"><ele>150.0</ele><time>2026-04-11T18:16:03Z</time></trkpt><trkpt lat="45.54568524337535" lon="9.224825631503723"><ele>149.66666666666666</ele><time>2026-04-11T18:16:04Z</time></trkpt><trkpt lat="45.54561023411461" lon="9.224589003619062"><ele>149.33333333333331</ele><time>2026-04-11T18:16:05Z</time></trkpt><trkpt lat="45.54553325823388" lon="9.224353227245658"><ele>149.0</ele><time>2026-04-11T18:16:06Z</time></trkpt><trkpt lat="45.545445248966395" lon="9.224100777588163"><ele>148.0</ele><time>2026-04-11T18:16:07Z</time></trkpt><trkpt lat="45.54535108177842" lon="9.223843133325715"><ele>147.0</ele><time>2026-04-11T18:16:08Z</time></trkpt><trkpt lat="45.54526175590131" lon="9.223591286014415"><ele>146.0</ele><time>2026-04-11T18:16:09Z</time></trkpt><trkpt lat="45.54517008338487" lon="9.22335377149584"><ele>146.33333333333331</ele><time>2026-04-11T18:16:10Z</time></trkpt><trkpt lat="45.54507522649475" lon="9.223133450972695"><ele>146.66666666666666</ele><time>2026-04-11T18:16:11Z</time></trkpt><trkpt lat="45.544978485883036" lon="9.222923172360586"><ele>147.0</ele><time>2026-04-11T18:16:12Z</time></trkpt><trkpt lat="45.5448727634448" lon="9.222714183357196"><ele>147.0</ele><time>2026-04-11T18:16:13Z</time></trkpt><trkpt lat="45.54475569010032" lon="9.222520929496321"><ele>147.0</ele><time>2026-04-11T18:16:14Z</time></trkpt><trkpt lat="45.5446292243869" lon="9.22235189035467"><ele>147.0</ele><time>2026-04-11T18:16:15Z</time></trkpt><trkpt lat="45.54450852142052" lon="9.222214444021217"><ele>146.4</ele><time>2026-04-11T18:16:16Z</time></trkpt><trkpt lat="45.54439769200572" lon="9.22209801500139"><ele>145.79999999999998</ele><time>2026-04-11T18:16:17Z</time></trkpt><trkpt lat="45.544291933969234" lon="9.221996729139695"><ele>145.2</ele><time>2026-04-11T18:16:18Z</time></trkpt><trkpt lat="45.5442214221446" lon="9.221931989345881"><ele>144.6</ele><time>2026-04-11T18:16:19Z</time></trkpt><trkpt lat="45.544163311640126" lon="9.221878956514846"><ele>144.0</ele><time>2026-04-11T18:16:20Z</time></trkpt><trkpt lat="45.54410020008717" lon="9.221820495910668"><ele>144.0</ele><time>2026-04-11T18:16:22Z</time></trkpt><trkpt lat="45.54403982546027" lon="9.221772550854077"><ele>144.0</ele><time>2026-04-11T18:16:24Z</time></trkpt><trkpt lat="45.54390944776001" lon="9.221705784070641"><ele>144.0</ele><time>2026-04-11T18:17:00Z</time></trkpt><trkpt lat="45.54382340295054" lon="9.221652900628182"><ele>144.0</ele><time>2026-04-11T18:17:02Z</time></trkpt><trkpt lat="45.543763938118744" lon="9.221617679750585"><ele>144.0</ele><time>2026-04-11T18:17:03Z</time></trkpt><trkpt lat="45.54369035639496" lon="9.221584909493211"><ele>144.0</ele><time>2026-04-11T18:17:04Z</time></trkpt><trkpt lat="45.543606532270786" lon="9.221546796032325"><ele>144.16666666666666</ele><time>2026-04-11T18:17:05Z</time></trkpt><trkpt lat="45.54352290648005" lon="9.22151366212373"><ele>144.33333333333334</ele><time>2026-04-11T18:17:06Z</time></trkpt><trkpt lat="45.543451038372574" lon="9.221488494982678"><ele>144.5</ele><time>2026-04-11T18:17:07Z</time></trkpt><trkpt lat="45.543389102900676" lon="9.221467840351979"><ele>144.66666666666669</ele><time>2026-04-11T18:17:08Z</time></trkpt><trkpt lat="45.54329687552919" lon="9.221462573888735"><ele>144.83333333333334</ele><time>2026-04-11T18:17:10Z</time></trkpt><trkpt lat="45.54323499415272" lon="9.221537413738666"><ele>145.0</ele><time>2026-04-11T18:17:13Z</time></trkpt><trkpt lat="45.54322189842375" lon="9.221746395067179"><ele>145.0</ele><time>2026-04-11T18:17:57Z</time></trkpt><trkpt lat="45.54322591118895" lon="9.221859196222384"><ele>145.0</ele><time>2026-04-11T18:17:58Z</time></trkpt><trkpt lat="45.54322573254378" lon="9.22194928313176"><ele>145.0</ele><time>2026-04-11T18:17:59Z</time></trkpt><trkpt lat="45.54325396140327" lon="9.22209365956069"><ele>145.0</ele><time>2026-04-11T18:18:01Z</time></trkpt><trkpt lat="45.54331483811733" lon="9.222144478955068"><ele>145.0</ele><time>2026-04-11T18:18:02Z</time></trkpt><trkpt lat="45.54339314249461" lon="9.222179373103215"><ele>145.0</ele><time>2026-04-11T18:18:03Z</time></trkpt><trkpt lat="45.54348453893781" lon="9.222221560275713"><ele>145.0</ele><time>2026-04-11T18:18:04Z</time></trkpt><trkpt lat="45.5435924998864" lon="9.222278379109884"><ele>145.0</ele><time>2026-04-11T18:18:05Z</time></trkpt><trkpt lat="45.54369472711278" lon="9.222347531276357"><ele>145.0</ele><time>2026-04-11T18:18:06Z</time></trkpt><trkpt lat="45.543786952151336" lon="9.222416978033095"><ele>145.0</ele><time>2026-04-11T18:18:07Z</time></trkpt><trkpt lat="45.54386892174447" lon="9.222485080148168"><ele>145.0</ele><time>2026-04-11T18:18:08Z</time></trkpt><trkpt lat="45.54394227245749" lon="9.222545670447209"><ele>145.0</ele><time>2026-04-11T18:18:09Z</time></trkpt><trkpt lat="45.544007429029925" lon="9.222607709288921"><ele>145.0</ele><time>2026-04-11T18:18:10Z</time></trkpt><trkpt lat="45.54406212402478" lon="9.22266645886717"><ele>145.0</ele><time>2026-04-11T18:18:11Z</time></trkpt><trkpt lat="45.54415912308773" lon="9.222759803394696"><ele>145.0</ele><time>2026-04-11T18:18:13Z</time></trkpt><trkpt lat="45.54422634680203" lon="9.222846940998606"><ele>145.0</ele><time>2026-04-11T18:18:15Z</time></trkpt><trkpt lat="45.54429558754188" lon="9.222933283680705"><ele>145.0</ele><time>2026-04-11T18:18:17Z</time></trkpt><trkpt lat="45.544348671619154" lon="9.222990054436504"><ele>145.0</ele><time>2026-04-11T18:18:19Z</time></trkpt><trkpt lat="45.544281206183676" lon="9.222940149832972"><ele>145.0</ele><time>2026-04-11T18:27:00Z</time></trkpt><trkpt lat="45.54420058422159" lon="9.222823752882187"><ele>145.0</ele><time>2026-04-11T18:27:02Z</time></trkpt><trkpt lat="45.5441580785515" lon="9.222746367654784"><ele>145.0</ele><time>2026-04-11T18:27:03Z</time></trkpt><trkpt lat="45.544105060977756" lon="9.222672323523744"><ele>145.0</ele><time>2026-04-11T18:27:04Z</time></trkpt><trkpt lat="45.54403881735979" lon="9.222594901250979"><ele>145.0</ele><time>2026-04-11T18:27:05Z</time></trkpt><trkpt lat="45.543965757847424" lon="9.222516921339015"><ele>145.0</ele><time>2026-04-11T18:27:06Z</time></trkpt><trkpt lat="45.54389209254902" lon="9.222445318106256"><ele>145.0</ele><time>2026-04-11T18:27:07Z</time></trkpt><trkpt lat="45.543824203286306" lon="9.222391164516322"><ele>145.0</ele><time>2026-04-11T18:27:08Z</time></trkpt><trkpt lat="45.54376013022518" lon="9.22234739801826"><ele>145.0</ele><time>2026-04-11T18:27:09Z</time></trkpt><trkpt lat="45.54370124366284" lon="9.222309911148004"><ele>145.0</ele><time>2026-04-11T18:27:10Z</time></trkpt><trkpt lat="45.5436009296331" lon="9.222242379032084"><ele>145.0</ele><time>2026-04-11T18:27:12Z</time></trkpt><trkpt lat="45.54351339223149" lon="9.222194154002528"><ele>145.0</ele><time>2026-04-11T18:27:14Z</time></trkpt><trkpt lat="45.543445582830074" lon="9.222150889963196"><ele>145.0</ele><time>2026-04-11T18:27:16Z</time></trkpt><trkpt lat="45.54341335438585" lon="9.222057288197497"><ele>145.0</ele><time>2026-04-11T18:27:18Z</time></trkpt><trkpt lat="45.54348714739539" lon="9.221948897466564"><ele>145.0</ele><time>2026-04-11T18:27:20Z</time></trkpt><trkpt lat="45.54356236599593" lon="9.221952965497364"><ele>145.0</ele><time>2026-04-11T18:27:21Z</time></trkpt><trkpt lat="45.54364982603292" lon="9.222008860774421"><ele>145.0</ele><time>2026-04-11T18:27:22Z</time></trkpt><trkpt lat="45.543747265237386" lon="9.222082049584476"><ele>145.0</ele><time>2026-04-11T18:27:23Z</time></trkpt><trkpt lat="45.54385843480797" lon="9.222149088285866"><ele>145.0</ele><time>2026-04-11T18:27:24Z</time></trkpt><trkpt lat="45.54397258030256" lon="9.222241583125848"><ele>145.0</ele><time>2026-04-11T18:27:25Z</time></trkpt><trkpt lat="45.544094991951795" lon="9.222349074422441"><ele>145.0</ele><time>2026-04-11T18:27:26Z</time></trkpt><trkpt lat="45.54422184989828" lon="9.222472398932696"><ele>145.0</ele><time>2026-04-11T18:27:27Z</time></trkpt><trkpt lat="45.54435160725723" lon="9.222611230780611"><ele>145.0</ele><time>2026-04-11T18:27:28Z</time></trkpt><trkpt lat="45.544474841768796" lon="9.222766243542571"><ele>145.0</ele><time>2026-04-11T18:27:29Z</time></trkpt><trkpt lat="45.54459663013232" lon="9.222937599700407"><ele>145.33333333333334</ele><time>2026-04-11T18:27:30Z</time></trkpt><trkpt lat="45.544706451908596" lon="9.22313867342458"><ele>145.66666666666666</ele><time>2026-04-11T18:27:31Z</time></trkpt><trkpt lat="45.54480498965635" lon="9.223334498519787"><ele>146.0</ele><time>2026-04-11T18:27:32Z</time></trkpt><trkpt lat="45.544899474483024" lon="9.223544919831104"><ele>146.0</ele><time>2026-04-11T18:27:33Z</time></trkpt><trkpt lat="45.54498147105126" lon="9.223763813500213"><ele>146.0</ele><time>2026-04-11T18:27:34Z</time></trkpt><trkpt lat="45.54506035101636" lon="9.223994503861475"><ele>146.0</ele><time>2026-04-11T18:27:35Z</time></trkpt><trkpt lat="45.54513518715432" lon="9.224229116020295"><ele>146.33333333333331</ele><time>2026-04-11T18:27:36Z</time></trkpt><trkpt lat="45.545209976385344" lon="9.224471072413909"><ele>146.66666666666666</ele><time>2026-04-11T18:27:37Z</time></trkpt><trkpt lat="45.54528809032414" lon="9.22471333337155"><ele>147.0</ele><time>2026-04-11T18:27:38Z</time></trkpt><trkpt lat="45.54537060486736" lon="9.224956817459667"><ele>148.0</ele><time>2026-04-11T18:27:39Z</time></trkpt><trkpt lat="45.5454554532434" lon="9.225199702118973"><ele>149.0</ele><time>2026-04-11T18:27:40Z</time></trkpt><trkpt lat="45.545537338225245" lon="9.225447166019597"><ele>150.0</ele><time>2026-04-11T18:27:41Z</time></trkpt><trkpt lat="45.545618295572325" lon="9.225696502253202"><ele>150.33333333333334</ele><time>2026-04-11T18:27:42Z</time></trkpt><trkpt lat="45.54570115684413" lon="9.22594801831931"><ele>150.66666666666669</ele><time>2026-04-11T18:27:43Z</time></trkpt><trkpt lat="45.54578437365903" lon="9.226199278943485"><ele>151.0</ele><time>2026-04-11T18:27:44Z</time></trkpt><trkpt lat="45.545866796905734" lon="9.226450162861425"><ele>151.33333333333334</ele><time>2026-04-11T18:27:45Z</time></trkpt><trkpt lat="45.54594838753383" lon="9.226699850647423"><ele>151.66666666666666</ele><time>2026-04-11T18:27:46Z</time></trkpt><trkpt lat="45.54602968335887" lon="9.226949760437998"><ele>152.0</ele><time>2026-04-11T18:27:47Z</time></trkpt><trkpt lat="45.54611072867383" lon="9.227198800466553"><ele>152.0</ele><time>2026-04-11T18:27:48Z</time></trkpt><trkpt lat="45.54619275212835" lon="9.227445868909976"><ele>152.0</ele><time>2026-04-11T18:27:49Z</time></trkpt><trkpt lat="45.54627371421254" lon="9.227692310969662"><ele>152.0</ele><time>2026-04-11T18:27:50Z</time></trkpt><trkpt lat="45.54635312724574" lon="9.227937405179018"><ele>151.0</ele><time>2026-04-11T18:27:51Z</time></trkpt><trkpt lat="45.546431356229505" lon="9.228181765129136"><ele>150.0</ele><time>2026-04-11T18:27:52Z</time></trkpt><trkpt lat="45.5465080494935" lon="9.228423322105211"><ele>149.0</ele><time>2026-04-11T18:27:53Z</time></trkpt><trkpt lat="45.54658577967823" lon="9.228660255499554"><ele>149.0</ele><time>2026-04-11T18:27:54Z</time></trkpt><trkpt lat="45.54665934439438" lon="9.228886519467963"><ele>149.0</ele><time>2026-04-11T18:27:55Z</time></trkpt><trkpt lat="45.54672996567216" lon="9.229102769032288"><ele>149.0</ele><time>2026-04-11T18:27:56Z</time></trkpt><trkpt lat="45.54679854355972" lon="9.229316391178937"><ele>149.0</ele><time>2026-04-11T18:27:57Z</time></trkpt><trkpt lat="45.54686627410448" lon="9.229526086056584"><ele>149.0</ele><time>2026-04-11T18:27:58Z</time></trkpt><trkpt lat="45.54693379979569" lon="9.229731775967322"><ele>149.0</ele><time>2026-04-11T18:27:59Z</time></trkpt><trkpt lat="45.54700231428535" lon="9.229935899832773"><ele>149.33333333333331</ele><time>2026-04-11T18:28:00Z</time></trkpt><trkpt lat="45.54706977994073" lon="9.230141128690724"><ele>149.66666666666666</ele><time>2026-04-11T18:28:01Z</time></trkpt><trkpt lat="45.54713782645985" lon="9.230345090006987"><ele>150.0</ele><time>2026-04-11T18:28:02Z</time></trkpt><trkpt lat="45.547207923788235" lon="9.230553374848126"><ele>150.66666666666666</ele><time>2026-04-11T18:28:03Z</time></trkpt><trkpt lat="45.547284619162625" lon="9.230768853393485"><ele>151.33333333333331</ele><time>2026-04-11T18:28:04Z</time></trkpt><trkpt lat="45.54736599811717" lon="9.230988224499102"><ele>152.0</ele><time>2026-04-11T18:28:05Z</time></trkpt><trkpt lat="45.54744850153515" lon="9.231218195771172"><ele>152.0</ele><time>2026-04-11T18:28:06Z</time></trkpt><trkpt lat="45.54753180896147" lon="9.231454223999304"><ele>152.0</ele><time>2026-04-11T18:28:07Z</time></trkpt><trkpt lat="45.54761209344135" lon="9.23169879789429"><ele>152.0</ele><time>2026-04-11T18:28:08Z</time></trkpt><trkpt lat="45.547693385993796" lon="9.231948672868239"><ele>152.33333333333331</ele><time>2026-04-11T18:28:09Z</time></trkpt><trkpt lat="45.547776085222644" lon="9.232204416012511"><ele>152.66666666666666</ele><time>2026-04-11T18:28:10Z</time></trkpt><trkpt lat="45.54785965233707" lon="9.23246192449022"><ele>153.0</ele><time>2026-04-11T18:28:11Z</time></trkpt><trkpt lat="45.547945841264706" lon="9.232721987327153"><ele>153.0</ele><time>2026-04-11T18:28:12Z</time></trkpt><trkpt lat="45.548035972628064" lon="9.232984699112944"><ele>153.0</ele><time>2026-04-11T18:28:13Z</time></trkpt><trkpt lat="45.54812818578329" lon="9.23325278666688"><ele>153.0</ele><time>2026-04-11T18:28:14Z</time></trkpt><trkpt lat="45.54822284052927" lon="9.233524679143121"><ele>151.66666666666666</ele><time>2026-04-11T18:28:15Z</time></trkpt><trkpt lat="45.54831780047586" lon="9.233800630410421"><ele>150.33333333333331</ele><time>2026-04-11T18:28:16Z</time></trkpt><trkpt lat="45.54841095519893" lon="9.23407625744741"><ele>149.0</ele><time>2026-04-11T18:28:17Z</time></trkpt><trkpt lat="45.54850454882862" lon="9.234350338101502"><ele>148.66666666666666</ele><time>2026-04-11T18:28:18Z</time></trkpt><trkpt lat="45.548597067685726" lon="9.234624086386695"><ele>148.33333333333334</ele><time>2026-04-11T18:28:19Z</time></trkpt><trkpt lat="45.548689433429644" lon="9.234898688951388"><ele>148.0</ele><time>2026-04-11T18:28:20Z</time></trkpt><trkpt lat="45.548781341939936" lon="9.235178101750781"><ele>149.0</ele><time>2026-04-11T18:28:21Z</time></trkpt><trkpt lat="45.54887493856685" lon="9.235462467911503"><ele>150.0</ele><time>2026-04-11T18:28:22Z</time></trkpt><trkpt lat="45.54897276321098" lon="9.23574780404335"><ele>151.0</ele><time>2026-04-11T18:28:23Z</time></trkpt><trkpt lat="45.54907996539732" lon="9.23603129226093"><ele>151.5</ele><time>2026-04-11T18:28:24Z</time></trkpt><trkpt lat="45.54920344881649" lon="9.236305785981587"><ele>152.0</ele><time>2026-04-11T18:28:25Z</time></trkpt><trkpt lat="45.54934206132483" lon="9.236565303496807"><ele>152.0</ele><time>2026-04-11T18:28:26Z</time></trkpt><trkpt lat="45.54949505885814" lon="9.236809284879033"><ele>152.0</ele><time>2026-04-11T18:28:27Z</time></trkpt><trkpt lat="45.549653454831926" lon="9.237034688588777"><ele>155.0</ele><time>2026-04-11T18:28:28Z</time></trkpt><trkpt lat="45.549828423283905" lon="9.237250358453784"><ele>158.0</ele><time>2026-04-11T18:28:29Z</time></trkpt><trkpt lat="45.55001500152839" lon="9.23745283962955"><ele>158.0</ele><time>2026-04-11T18:28:30Z</time></trkpt><trkpt lat="45.550213344993736" lon="9.237625182182088"><ele>158.0</ele><time>2026-04-11T18:28:31Z</time></trkpt><trkpt lat="45.55042939767551" lon="9.237757572014855"><ele>155.0</ele><time>2026-04-11T18:28:32Z</time></trkpt><trkpt lat="45.55064123522481" lon="9.237883869909833"><ele>152.0</ele><time>2026-04-11T18:28:33Z</time></trkpt><trkpt lat="45.5508605484454" lon="9.237986641261852"><ele>152.0</ele><time>2026-04-11T18:28:34Z</time></trkpt><trkpt lat="45.55108480703424" lon="9.2380709195043"><ele>152.0</ele><time>2026-04-11T18:28:35Z</time></trkpt><trkpt lat="45.55130851400637" lon="9.23815872961809"><ele>151.5</ele><time>2026-04-11T18:28:36Z</time></trkpt><trkpt lat="45.551534022589685" lon="9.238255555317199"><ele>151.0</ele><time>2026-04-11T18:28:37Z</time></trkpt><trkpt lat="45.55175584986473" lon="9.238348060382345"><ele>151.0</ele><time>2026-04-11T18:28:38Z</time></trkpt><trkpt lat="45.55198328887994" lon="9.238435770080024"><ele>151.0</ele><time>2026-04-11T18:28:39Z</time></trkpt><trkpt lat="45.5522089559171" lon="9.238525852158547"><ele>151.0</ele><time>2026-04-11T18:28:40Z</time></trkpt><trkpt lat="45.55243323145971" lon="9.23861939452258"><ele>151.0</ele><time>2026-04-11T18:28:41Z</time></trkpt><trkpt lat="45.55265700877958" lon="9.238712792545533"><ele>151.0</ele><time>2026-04-11T18:28:42Z</time></trkpt><trkpt lat="45.55288120008644" lon="9.2388041339498"><ele>151.0</ele><time>2026-04-11T18:28:43Z</time></trkpt><trkpt lat="45.553106548009026" lon="9.238895246082498"><ele>150.5</ele><time>2026-04-11T18:28:44Z</time></trkpt><trkpt lat="45.55333079240906" lon="9.238986065029371"><ele>150.0</ele><time>2026-04-11T18:28:45Z</time></trkpt><trkpt lat="45.55355398050965" lon="9.239075971243112"><ele>150.0</ele><time>2026-04-11T18:28:46Z</time></trkpt><trkpt lat="45.55377894592776" lon="9.239165422852894"><ele>150.0</ele><time>2026-04-11T18:28:47Z</time></trkpt><trkpt lat="45.55400354274556" lon="9.239255151177872"><ele>150.0</ele><time>2026-04-11T18:28:48Z</time></trkpt><trkpt lat="45.554226544400834" lon="9.239346850985259"><ele>150.0</ele><time>2026-04-11T18:28:49Z</time></trkpt><trkpt lat="45.554449540315225" lon="9.23943909295177"><ele>149.5</ele><time>2026-04-11T18:28:50Z</time></trkpt><trkpt lat="45.554673240761765" lon="9.239530179732824"><ele>149.0</ele><time>2026-04-11T18:28:51Z</time></trkpt><trkpt lat="45.55489820920716" lon="9.239619335626355"><ele>149.0</ele><time>2026-04-11T18:28:52Z</time></trkpt><trkpt lat="45.555122122078146" lon="9.239709442689804"><ele>149.0</ele><time>2026-04-11T18:28:53Z</time></trkpt><trkpt lat="45.55534806739277" lon="9.239797504706502"><ele>150.0</ele><time>2026-04-11T18:28:54Z</time></trkpt><trkpt lat="45.55557326868964" lon="9.239885450139177"><ele>151.0</ele><time>2026-04-11T18:28:55Z</time></trkpt><trkpt lat="45.55579781580105" lon="9.239974259330854"><ele>151.0</ele><time>2026-04-11T18:28:56Z</time></trkpt><trkpt lat="45.55602182296973" lon="9.240063051212106"><ele>151.0</ele><time>2026-04-11T18:28:57Z</time></trkpt><trkpt lat="45.556246432365306" lon="9.240150806138072"><ele>152.5</ele><time>2026-04-11T18:28:58Z</time></trkpt><trkpt lat="45.55647131495149" lon="9.24023592494544"><ele>154.0</ele><time>2026-04-11T18:28:59Z</time></trkpt><trkpt lat="45.556695787617" lon="9.24032055376695"><ele>154.0</ele><time>2026-04-11T18:29:00Z</time></trkpt><trkpt lat="45.55692055209076" lon="9.240405692463444"><ele>154.0</ele><time>2026-04-11T18:29:01Z</time></trkpt><trkpt lat="45.55714541080227" lon="9.240492335588732"><ele>153.5</ele><time>2026-04-11T18:29:02Z</time></trkpt><trkpt lat="45.55737047891859" lon="9.240580103597239"><ele>153.0</ele><time>2026-04-11T18:29:03Z</time></trkpt><trkpt lat="45.55759551012284" lon="9.240670123209037"><ele>153.0</ele><time>2026-04-11T18:29:04Z</time></trkpt><trkpt lat="45.55781936586463" lon="9.24076207936241"><ele>153.0</ele><time>2026-04-11T18:29:05Z</time></trkpt><trkpt lat="45.55804367306371" lon="9.24085431839556"><ele>153.0</ele><time>2026-04-11T18:29:06Z</time></trkpt><trkpt lat="45.55826638184114" lon="9.240949155374484"><ele>153.0</ele><time>2026-04-11T18:29:07Z</time></trkpt><trkpt lat="45.55848812583997" lon="9.241048250425038"><ele>153.0</ele><time>2026-04-11T18:29:08Z</time></trkpt><trkpt lat="45.5587103509024" lon="9.241144930266083"><ele>153.0</ele><time>2026-04-11T18:29:09Z</time></trkpt><trkpt lat="45.558933289514684" lon="9.241239249190965"><ele>153.0</ele><time>2026-04-11T18:29:10Z</time></trkpt><trkpt lat="45.55915748657626" lon="9.241329871510935"><ele>153.0</ele><time>2026-04-11T18:29:11Z</time></trkpt><trkpt lat="45.55938168484262" lon="9.241418333373474"><ele>153.0</ele><time>2026-04-11T18:29:12Z</time></trkpt><trkpt lat="45.55960622608522" lon="9.241507132912266"><ele>153.0</ele><time>2026-04-11T18:29:13Z</time></trkpt><trkpt lat="45.55983124757215" lon="9.241595131815567"><ele>153.0</ele><time>2026-04-11T18:29:14Z</time></trkpt><trkpt lat="45.560055789283275" lon="9.241684705160715"><ele>153.0</ele><time>2026-04-11T18:29:15Z</time></trkpt><trkpt lat="45.56027985446003" lon="9.241775630783783"><ele>152.0</ele><time>2026-04-11T18:29:16Z</time></trkpt><trkpt lat="45.56050350433741" lon="9.241866380463618"><ele>151.0</ele><time>2026-04-11T18:29:17Z</time></trkpt><trkpt lat="45.56072681903137" lon="9.241957229466102"><ele>151.0</ele><time>2026-04-11T18:29:18Z</time></trkpt><trkpt lat="45.56094882686942" lon="9.24205236441566"><ele>151.0</ele><time>2026-04-11T18:29:19Z</time></trkpt><trkpt lat="45.56117108305736" lon="9.242150230887587"><ele>153.5</ele><time>2026-04-11T18:29:20Z</time></trkpt><trkpt lat="45.56139370025091" lon="9.242248796510937"><ele>156.0</ele><time>2026-04-11T18:29:21Z</time></trkpt><trkpt lat="45.56161666187686" lon="9.242345160994548"><ele>156.5</ele><time>2026-04-11T18:29:22Z</time></trkpt><trkpt lat="45.561841253334656" lon="9.242433505679298"><ele>157.0</ele><time>2026-04-11T18:29:23Z</time></trkpt><trkpt lat="45.56206639224752" lon="9.242517739843533"><ele>157.5</ele><time>2026-04-11T18:29:24Z</time></trkpt><trkpt lat="45.56229114024226" lon="9.242601310323185"><ele>158.0</ele><time>2026-04-11T18:29:25Z</time></trkpt><trkpt lat="45.562515484231014" lon="9.242688459990308"><ele>158.0</ele><time>2026-04-11T18:29:26Z</time></trkpt><trkpt lat="45.56273969887523" lon="9.242777375604861"><ele>158.0</ele><time>2026-04-11T18:29:27Z</time></trkpt><trkpt lat="45.56296285292996" lon="9.242866610616105"><ele>158.0</ele><time>2026-04-11T18:29:28Z</time></trkpt><trkpt lat="45.56318664428901" lon="9.2429540749865"><ele>158.0</ele><time>2026-04-11T18:29:29Z</time></trkpt><trkpt lat="45.563410830049186" lon="9.243040969727529"><ele>158.0</ele><time>2026-04-11T18:29:30Z</time></trkpt><trkpt lat="45.56363532875871" lon="9.243127276319843"><ele>158.0</ele><time>2026-04-11T18:29:31Z</time></trkpt><trkpt lat="45.56386021206199" lon="9.243211168403722"><ele>158.0</ele><time>2026-04-11T18:29:32Z</time></trkpt><trkpt lat="45.56408445559469" lon="9.243296021907387"><ele>158.0</ele><time>2026-04-11T18:29:33Z</time></trkpt><trkpt lat="45.56430854874874" lon="9.24338453451111"><ele>158.5</ele><time>2026-04-11T18:29:34Z</time></trkpt><trkpt lat="45.564531559467596" lon="9.24348054252484"><ele>159.0</ele><time>2026-04-11T18:29:35Z</time></trkpt><trkpt lat="45.564753894184655" lon="9.243579578864344"><ele>159.0</ele><time>2026-04-11T18:29:36Z</time></trkpt><trkpt lat="45.56497657370677" lon="9.243675349538375"><ele>159.0</ele><time>2026-04-11T18:29:37Z</time></trkpt><trkpt lat="45.56520053343158" lon="9.243767672097146"><ele>160.0</ele><time>2026-04-11T18:29:38Z</time></trkpt><trkpt lat="45.56542409554013" lon="9.243857554716621"><ele>161.0</ele><time>2026-04-11T18:29:39Z</time></trkpt><trkpt lat="45.565649001312316" lon="9.24394460941402"><ele>160.0</ele><time>2026-04-11T18:29:40Z</time></trkpt><trkpt lat="45.56587383082092" lon="9.2440313796423"><ele>159.0</ele><time>2026-04-11T18:29:41Z</time></trkpt><trkpt lat="45.56609874995545" lon="9.244117662579146"><ele>159.0</ele><time>2026-04-11T18:29:42Z</time></trkpt><trkpt lat="45.566321971377945" lon="9.244206784516189"><ele>159.0</ele><time>2026-04-11T18:29:43Z</time></trkpt><trkpt lat="45.56654607803525" lon="9.244296306988423"><ele>159.0</ele><time>2026-04-11T18:29:44Z</time></trkpt><trkpt lat="45.56677089961539" lon="9.244386183242154"><ele>159.0</ele><time>2026-04-11T18:29:45Z</time></trkpt><trkpt lat="45.566996281712775" lon="9.244477319862115"><ele>158.5</ele><time>2026-04-11T18:29:46Z</time></trkpt><trkpt lat="45.567221157178636" lon="9.24456611073799"><ele>158.0</ele><time>2026-04-11T18:29:47Z</time></trkpt><trkpt lat="45.56744642249044" lon="9.244653735952806"><ele>158.0</ele><time>2026-04-11T18:29:48Z</time></trkpt><trkpt lat="45.5676726955577" lon="9.244737922062221"><ele>158.0</ele><time>2026-04-11T18:29:49Z</time></trkpt><trkpt lat="45.56789863596661" lon="9.244825045742"><ele>159.5</ele><time>2026-04-11T18:29:50Z</time></trkpt><trkpt lat="45.56812345010785" lon="9.244915068567073"><ele>161.0</ele><time>2026-04-11T18:29:51Z</time></trkpt><trkpt lat="45.56834782294184" lon="9.245007662182188"><ele>161.0</ele><time>2026-04-11T18:29:52Z</time></trkpt><trkpt lat="45.56857166173045" lon="9.245099163556356"><ele>161.0</ele><time>2026-04-11T18:29:53Z</time></trkpt><trkpt lat="45.56879495783746" lon="9.2451937761405"><ele>161.5</ele><time>2026-04-11T18:29:54Z</time></trkpt><trkpt lat="45.56901969259494" lon="9.245288512753064"><ele>162.0</ele><time>2026-04-11T18:29:55Z</time></trkpt><trkpt lat="45.56923987366206" lon="9.245394410484607"><ele>162.0</ele><time>2026-04-11T18:29:56Z</time></trkpt><trkpt lat="45.569459700178584" lon="9.245506803527675"><ele>162.0</ele><time>2026-04-11T18:29:57Z</time></trkpt><trkpt lat="45.56967961796571" lon="9.245616681423929"><ele>161.0</ele><time>2026-04-11T18:29:58Z</time></trkpt><trkpt lat="45.5699000828304" lon="9.24572552824078"><ele>160.0</ele><time>2026-04-11T18:29:59Z</time></trkpt><trkpt lat="45.57012138973222" lon="9.245831562191166"><ele>160.0</ele><time>2026-04-11T18:30:00Z</time></trkpt><trkpt lat="45.57034315747767" lon="9.245937002723487"><ele>160.0</ele><time>2026-04-11T18:30:01Z</time></trkpt><trkpt lat="45.570565079703165" lon="9.246036947775314"><ele>162.5</ele><time>2026-04-11T18:30:02Z</time></trkpt><trkpt lat="45.5707871153753" lon="9.24612946247121"><ele>165.0</ele><time>2026-04-11T18:30:03Z</time></trkpt><trkpt lat="45.57101410045992" lon="9.246206570781878"><ele>164.0</ele><time>2026-04-11T18:30:04Z</time></trkpt><trkpt lat="45.571245424677464" lon="9.246272291769355"><ele>163.0</ele><time>2026-04-11T18:30:05Z</time></trkpt><trkpt lat="45.57147790211462" lon="9.246331714664722"><ele>163.0</ele><time>2026-04-11T18:30:06Z</time></trkpt><trkpt lat="45.57171244837007" lon="9.246384845294338"><ele>163.0</ele><time>2026-04-11T18:30:07Z</time></trkpt><trkpt lat="45.57194801892484" lon="9.24643204526222"><ele>162.5</ele><time>2026-04-11T18:30:08Z</time></trkpt><trkpt lat="45.57218270274641" lon="9.246479591412102"><ele>162.0</ele><time>2026-04-11T18:30:09Z</time></trkpt><trkpt lat="45.57239168835132" lon="9.246711840125347"><ele>162.0</ele><time>2026-04-11T18:30:10Z</time></trkpt><trkpt lat="45.57262390962024" lon="9.246774684822736"><ele>162.0</ele><time>2026-04-11T18:30:11Z</time></trkpt><trkpt lat="45.57285575716748" lon="9.246834704179376"><ele>163.5</ele><time>2026-04-11T18:30:12Z</time></trkpt><trkpt lat="45.57308934336973" lon="9.246903828008987"><ele>165.0</ele><time>2026-04-11T18:30:13Z</time></trkpt><trkpt lat="45.57332351531153" lon="9.246977478294324"><ele>165.0</ele><time>2026-04-11T18:30:14Z</time></trkpt><trkpt lat="45.57355780827797" lon="9.2470562567843"><ele>165.0</ele><time>2026-04-11T18:30:15Z</time></trkpt><trkpt lat="45.57379363414618" lon="9.247123600525057"><ele>164.5</ele><time>2026-04-11T18:30:16Z</time></trkpt><trkpt lat="45.57402824433331" lon="9.247190594949515"><ele>164.0</ele><time>2026-04-11T18:30:17Z</time></trkpt><trkpt lat="45.574263973403916" lon="9.247264589152802"><ele>164.0</ele><time>2026-04-11T18:30:18Z</time></trkpt><trkpt lat="45.5745011352839" lon="9.247340496829327"><ele>164.0</ele><time>2026-04-11T18:30:19Z</time></trkpt><trkpt lat="45.57473896137022" lon="9.247425457827545"><ele>164.0</ele><time>2026-04-11T18:30:20Z</time></trkpt><trkpt lat="45.574967364664865" lon="9.247519492947285"><ele>164.0</ele><time>2026-04-11T18:30:21Z</time></trkpt><trkpt lat="45.57520356524571" lon="9.247615735473214"><ele>164.5</ele><time>2026-04-11T18:30:22Z</time></trkpt><trkpt lat="45.57543898152583" lon="9.247711028310874"><ele>165.0</ele><time>2026-04-11T18:30:23Z</time></trkpt><trkpt lat="45.57567799143356" lon="9.247807305759535"><ele>165.0</ele><time>2026-04-11T18:30:24Z</time></trkpt><trkpt lat="45.57591553832721" lon="9.247907179207896"><ele>165.0</ele><time>2026-04-11T18:30:25Z</time></trkpt><trkpt lat="45.57615525014149" lon="9.248004324162675"><ele>164.5</ele><time>2026-04-11T18:30:26Z</time></trkpt><trkpt lat="45.576397914549915" lon="9.248098286609407"><ele>164.0</ele><time>2026-04-11T18:30:27Z</time></trkpt><trkpt lat="45.576640907976966" lon="9.248193084346637"><ele>164.0</ele><time>2026-04-11T18:30:28Z</time></trkpt><trkpt lat="45.57688192295895" lon="9.24828709102855"><ele>164.0</ele><time>2026-04-11T18:30:29.024Z</time></trkpt><trkpt lat="45.579128172722164" lon="9.249157598664944"><ele>166.0</ele><time>2026-04-11T18:30:39.142Z</time></trkpt><trkpt lat="45.57925277210883" lon="9.24920394166623"><ele>168.0</ele><time>2026-04-11T18:30:39.852Z</time></trkpt><trkpt lat="45.57958547647939" lon="9.249335512856161"><ele>168.0</ele><time>2026-04-11T18:30:41.504Z</time></trkpt><trkpt lat="45.58017816386594" lon="9.249577046737567"><ele>168.0</ele><time>2026-04-11T18:30:44.342Z</time></trkpt><trkpt lat="45.58027782656233" lon="9.249611050312113"><ele>168.0</ele><time>2026-04-11T18:30:45.066Z</time></trkpt><trkpt lat="45.58640802903007" lon="9.249917054440973"><ele>169.33333333333334</ele><time>2026-04-11T18:31:10Z</time></trkpt><trkpt lat="45.58660014440137" lon="9.249756936556969"><ele>170.66666666666669</ele><time>2026-04-11T18:31:11Z</time></trkpt><trkpt lat="45.586729496470234" lon="9.249565660664448"><ele>172.0</ele><time>2026-04-11T18:31:12Z</time></trkpt><trkpt lat="45.58692691442411" lon="9.24941507916753"><ele>173.0</ele><time>2026-04-11T18:31:13Z</time></trkpt><trkpt lat="45.5871330759516" lon="9.249264771365194"><ele>174.0</ele><time>2026-04-11T18:31:14Z</time></trkpt><trkpt lat="45.58733603226344" lon="9.24910908112776"><ele>173.5</ele><time>2026-04-11T18:31:15Z</time></trkpt><trkpt lat="45.587541953755995" lon="9.24894150623262"><ele>173.0</ele><time>2026-04-11T18:31:16Z</time></trkpt><trkpt lat="45.587746380560816" lon="9.248769153048217"><ele>173.0</ele><time>2026-04-11T18:31:17Z</time></trkpt><trkpt lat="45.587946389820715" lon="9.248604099241607"><ele>173.0</ele><time>2026-04-11T18:31:18Z</time></trkpt><trkpt lat="45.58814185561604" lon="9.2484439517685"><ele>173.0</ele><time>2026-04-11T18:31:19Z</time></trkpt><trkpt lat="45.58832923196336" lon="9.248291752740355"><ele>173.0</ele><time>2026-04-11T18:31:20Z</time></trkpt><trkpt lat="45.58851471383576" lon="9.248142537243352"><ele>173.0</ele><time>2026-04-11T18:31:21Z</time></trkpt><trkpt lat="45.58869117114149" lon="9.2479994387315"><ele>173.33333333333331</ele><time>2026-04-11T18:31:22Z</time></trkpt><trkpt lat="45.58885530883835" lon="9.247860978001007"><ele>173.66666666666666</ele><time>2026-04-11T18:31:23Z</time></trkpt><trkpt lat="45.589013586798835" lon="9.247729575809092"><ele>174.0</ele><time>2026-04-11T18:31:24Z</time></trkpt><trkpt lat="45.58915279891146" lon="9.24761447569282"><ele>174.0</ele><time>2026-04-11T18:31:25Z</time></trkpt><trkpt lat="45.58927322163154" lon="9.247517420074074"><ele>174.0</ele><time>2026-04-11T18:31:26Z</time></trkpt><trkpt lat="45.589384935795906" lon="9.247446228482499"><ele>174.0</ele><time>2026-04-11T18:31:27Z</time></trkpt><trkpt lat="45.58949752787786" lon="9.247439012961577"><ele>174.0</ele><time>2026-04-11T18:31:28Z</time></trkpt><trkpt lat="45.589623379851936" lon="9.247487058053952"><ele>174.5</ele><time>2026-04-11T18:31:29Z</time></trkpt><trkpt lat="45.589747969615075" lon="9.24758724739427"><ele>175.0</ele><time>2026-04-11T18:31:30Z</time></trkpt><trkpt lat="45.58984328746826" lon="9.247707831858616"><ele>175.5</ele><time>2026-04-11T18:31:31Z</time></trkpt><trkpt lat="45.58993374501875" lon="9.247793826407246"><ele>176.0</ele><time>2026-04-11T18:31:32Z</time></trkpt><trkpt lat="45.59003690906477" lon="9.24783659154158"><ele>176.0</ele><time>2026-04-11T18:31:33Z</time></trkpt><trkpt lat="45.5901600681223" lon="9.247826190063293"><ele>176.0</ele><time>2026-04-11T18:31:34Z</time></trkpt><trkpt lat="45.5902683370132" lon="9.247744706103283"><ele>176.0</ele><time>2026-04-11T18:31:35Z</time></trkpt><trkpt lat="45.590354823461986" lon="9.247604341456992"><ele>176.0</ele><time>2026-04-11T18:31:36Z</time></trkpt><trkpt lat="45.59042600372434" lon="9.247432889198581"><ele>176.0</ele><time>2026-04-11T18:31:37Z</time></trkpt><trkpt lat="45.59049667765949" lon="9.247266966217836"><ele>176.0</ele><time>2026-04-11T18:31:38Z</time></trkpt><trkpt lat="45.590599667573485" lon="9.247116249498607"><ele>176.0</ele><time>2026-04-11T18:31:39Z</time></trkpt><trkpt lat="45.59071051922016" lon="9.247018430486738"><ele>176.0</ele><time>2026-04-11T18:31:40Z</time></trkpt><trkpt lat="45.590817089833244" lon="9.24694607302527"><ele>176.0</ele><time>2026-04-11T18:31:41Z</time></trkpt><trkpt lat="45.59091515229326" lon="9.24689662532108"><ele>176.0</ele><time>2026-04-11T18:31:42Z</time></trkpt><trkpt lat="45.59100359492337" lon="9.246883253950038"><ele>176.0</ele><time>2026-04-11T18:31:43Z</time></trkpt><trkpt lat="45.591077331825964" lon="9.246929380701685"><ele>176.0</ele><time>2026-04-11T18:31:44Z</time></trkpt><trkpt lat="45.59112453296804" lon="9.24702658925961"><ele>176.0</ele><time>2026-04-11T18:31:45Z</time></trkpt><trkpt lat="45.59114172579601" lon="9.247155669393385"><ele>176.0</ele><time>2026-04-11T18:31:46Z</time></trkpt><trkpt lat="45.59115990029389" lon="9.247304784962099"><ele>176.0</ele><time>2026-04-11T18:31:47Z</time></trkpt><trkpt lat="45.59110453046611" lon="9.247497500558136"><ele>176.0</ele><time>2026-04-11T18:31:48Z</time></trkpt><trkpt lat="45.5910905925194" lon="9.24766256686192"><ele>176.0</ele><time>2026-04-11T18:31:49Z</time></trkpt><trkpt lat="45.59107566451581" lon="9.247798438854982"><ele>176.0</ele><time>2026-04-11T18:31:50Z</time></trkpt><trkpt lat="45.59105983500412" lon="9.247908575814762"><ele>176.0</ele><time>2026-04-11T18:31:51Z</time></trkpt><trkpt lat="45.591025897712285" lon="9.248048931755411"><ele>175.66666666666666</ele><time>2026-04-11T18:31:53Z</time></trkpt><trkpt lat="45.5909847486335" lon="9.248143268993019"><ele>175.33333333333331</ele><time>2026-04-11T18:31:55Z</time></trkpt><trkpt lat="45.59094534405145" lon="9.248215833061991"><ele>175.0</ele><time>2026-04-11T18:31:56Z</time></trkpt><trkpt lat="45.59089835895898" lon="9.248310564544413"><ele>174.66666666666666</ele><time>2026-04-11T18:31:57Z</time></trkpt><trkpt lat="45.59087301787995" lon="9.248433247184783"><ele>174.33333333333334</ele><time>2026-04-11T18:31:58Z</time></trkpt><trkpt lat="45.59088554966669" lon="9.248568878379334"><ele>174.0</ele><time>2026-04-11T18:31:59Z</time></trkpt><trkpt lat="45.59092722043224" lon="9.248708101481622"><ele>174.0</ele><time>2026-04-11T18:32:00Z</time></trkpt><trkpt lat="45.590954286193465" lon="9.24886895259522"><ele>174.0</ele><time>2026-04-11T18:32:01Z</time></trkpt><trkpt lat="45.59093999898383" lon="9.249051695473282"><ele>174.0</ele><time>2026-04-11T18:32:02Z</time></trkpt><trkpt lat="45.59091247820401" lon="9.249253099948076"><ele>174.0</ele><time>2026-04-11T18:32:03Z</time></trkpt><trkpt lat="45.59088563071331" lon="9.249467692025272"><ele>174.0</ele><time>2026-04-11T18:32:04Z</time></trkpt><trkpt lat="45.59085809882489" lon="9.249695147964356"><ele>174.0</ele><time>2026-04-11T18:32:05Z</time></trkpt><trkpt lat="45.59083318580604" lon="9.249931457615123"><ele>174.0</ele><time>2026-04-11T18:32:06Z</time></trkpt><trkpt lat="45.590805249719025" lon="9.25017324877861"><ele>174.0</ele><time>2026-04-11T18:32:07Z</time></trkpt><trkpt lat="45.59077303667534" lon="9.25041460866375"><ele>174.0</ele><time>2026-04-11T18:32:08Z</time></trkpt><trkpt lat="45.590742115573626" lon="9.250653810750984"><ele>174.0</ele><time>2026-04-11T18:32:09Z</time></trkpt><trkpt lat="45.590702916170976" lon="9.250896145418487"><ele>175.0</ele><time>2026-04-11T18:32:10Z</time></trkpt><trkpt lat="45.59065975108117" lon="9.251139184148538"><ele>176.0</ele><time>2026-04-11T18:32:11Z</time></trkpt><trkpt lat="45.59061656994179" lon="9.251383507570372"><ele>177.0</ele><time>2026-04-11T18:32:12Z</time></trkpt><trkpt lat="45.59057366083982" lon="9.251619303098682"><ele>178.0</ele><time>2026-04-11T18:32:13Z</time></trkpt><trkpt lat="45.590533264435656" lon="9.251844005879187"><ele>179.0</ele><time>2026-04-11T18:32:14Z</time></trkpt><trkpt lat="45.59049763778983" lon="9.252059090695115"><ele>180.0</ele><time>2026-04-11T18:32:15Z</time></trkpt><trkpt lat="45.59046747859222" lon="9.252266557447841"><ele>180.0</ele><time>2026-04-11T18:32:16Z</time></trkpt><trkpt lat="45.59044540248303" lon="9.25245918265029"><ele>180.0</ele><time>2026-04-11T18:32:17Z</time></trkpt><trkpt lat="45.59042661704386" lon="9.25263622916113"><ele>180.0</ele><time>2026-04-11T18:32:18Z</time></trkpt><trkpt lat="45.59041414241418" lon="9.252793950310707"><ele>180.0</ele><time>2026-04-11T18:32:19Z</time></trkpt><trkpt lat="45.59040701009503" lon="9.25292999815111"><ele>180.0</ele><time>2026-04-11T18:32:20Z</time></trkpt><trkpt lat="45.590393968358974" lon="9.253058877009286"><ele>180.0</ele><time>2026-04-11T18:32:21Z</time></trkpt><trkpt lat="45.59041050182446" lon="9.253168353764918"><ele>180.0</ele><time>2026-04-11T18:32:22Z</time></trkpt><trkpt lat="45.590288682533405" lon="9.253289449894583"><ele>180.0</ele><time>2026-04-11T18:32:23Z</time></trkpt><trkpt lat="45.59021264659768" lon="9.25336775163085"><ele>180.0</ele><time>2026-04-11T18:32:24Z</time></trkpt><trkpt lat="45.59017422800649" lon="9.253470970762406"><ele>179.16666666666666</ele><time>2026-04-11T18:32:25Z</time></trkpt><trkpt lat="45.59006944970674" lon="9.253484998330539"><ele>178.33333333333334</ele><time>2026-04-11T18:32:26Z</time></trkpt><trkpt lat="45.589995304499375" lon="9.253481796487058"><ele>177.5</ele><time>2026-04-11T18:32:27Z</time></trkpt><trkpt lat="45.58992621271082" lon="9.253454213195278"><ele>176.66666666666669</ele><time>2026-04-11T18:32:28Z</time></trkpt><trkpt lat="45.5898642487186" lon="9.253420044800684"><ele>175.83333333333334</ele><time>2026-04-11T18:32:29Z</time></trkpt><trkpt lat="45.589775578362136" lon="9.253379092832834"><ele>175.0</ele><time>2026-04-11T18:32:31Z</time></trkpt><trkpt lat="45.589790861262365" lon="9.253004900374915"><ele>174.8</ele><time>2026-04-11T18:33:04Z</time></trkpt><trkpt lat="45.58980185949238" lon="9.252896343547679"><ele>174.6</ele><time>2026-04-11T18:33:06Z</time></trkpt><trkpt lat="45.58981138951798" lon="9.25277009630761"><ele>174.39999999999998</ele><time>2026-04-11T18:33:09Z</time></trkpt><trkpt lat="45.58975663102759" lon="9.252717373476074"><ele>174.2</ele><time>2026-04-11T18:33:12Z</time></trkpt><trkpt lat="45.58976254987224" lon="9.252615019734364"><ele>174.0</ele><time>2026-04-11T18:33:17.063Z</time></trkpt><trkpt lat="45.58986888798089" lon="9.252444880060105"><ele>174.0</ele><time>2026-04-11T18:33:31.063Z</time></trkpt><trkpt lat="45.589628305351695" lon="9.25237256272958"><ele>174.0</ele><time>2026-04-11T18:33:41.03Z</time></trkpt><trkpt lat="45.58968484131493" lon="9.252430677081485"><ele>174.0</ele><time>2026-04-11T18:33:45.031Z</time></trkpt><trkpt lat="45.58967298984004" lon="9.25252504397878"><ele>174.0</ele><time>2026-04-11T18:33:48.033Z</time></trkpt></trkseg></trk></gpx>